<?xml version="1.0" encoding="UTF-8" standalone="no" ?>
<gpx xmlns="http://www.topografix.com/GPX/1/1" xmlns:xsi="http://www.w3.org/2001/XMLSchema-instance" xsi:schemaLocation="http://www.topografix.com/GPX/1/1 http://www.topografix.com/GPX/1/1/gpx.xsd" version="1.1" creator="VisuGPX - https://www.visugpx.com">
  <metadata>
    <name>Chamarande</name>
  </metadata>
  <trk>
    <name><![CDATA[Sortie vélo dans l'après-midi_1]]></name>
    <extensions>
      <line xmlns="http://www.topografix.com/GPX/gpx_style/0/2">
        <color>0000FF</color>
        <width>4</width>
      </line>
    </extensions>
    <trkseg>
      <trkpt lat="48.62218" lon="2.01953">
        <ele>120.6</ele>
        <time>2026-03-20T12:59:40Z</time>
      </trkpt>
      <trkpt lat="48.62218" lon="2.01953">
        <ele>120.6</ele>
        <time>2026-03-20T12:59:41Z</time>
      </trkpt>
      <trkpt lat="48.62217" lon="2.0196">
        <ele>120.6</ele>
        <time>2026-03-20T12:59:42Z</time>
      </trkpt>
      <trkpt lat="48.62216" lon="2.01968">
        <ele>120.6</ele>
        <time>2026-03-20T12:59:43Z</time>
      </trkpt>
      <trkpt lat="48.62215" lon="2.01975">
        <ele>120.8</ele>
        <time>2026-03-20T12:59:44Z</time>
      </trkpt>
      <trkpt lat="48.62215" lon="2.01982">
        <ele>120.8</ele>
        <time>2026-03-20T12:59:45Z</time>
      </trkpt>
      <trkpt lat="48.62214" lon="2.01989">
        <ele>120.8</ele>
        <time>2026-03-20T12:59:46Z</time>
      </trkpt>
      <trkpt lat="48.62213" lon="2.01996">
        <ele>120.8</ele>
        <time>2026-03-20T12:59:47Z</time>
      </trkpt>
      <trkpt lat="48.62212" lon="2.02004">
        <ele>120.8</ele>
        <time>2026-03-20T12:59:48Z</time>
      </trkpt>
      <trkpt lat="48.62212" lon="2.02011">
        <ele>120.8</ele>
        <time>2026-03-20T12:59:49Z</time>
      </trkpt>
      <trkpt lat="48.62211" lon="2.02019">
        <ele>120.8</ele>
        <time>2026-03-20T12:59:50Z</time>
      </trkpt>
      <trkpt lat="48.6221" lon="2.02026">
        <ele>121</ele>
        <time>2026-03-20T12:59:51Z</time>
      </trkpt>
      <trkpt lat="48.62209" lon="2.02033">
        <ele>120.8</ele>
        <time>2026-03-20T12:59:52Z</time>
      </trkpt>
      <trkpt lat="48.62208" lon="2.02041">
        <ele>120.8</ele>
        <time>2026-03-20T12:59:53Z</time>
      </trkpt>
      <trkpt lat="48.62207" lon="2.02049">
        <ele>120.8</ele>
        <time>2026-03-20T12:59:54Z</time>
      </trkpt>
      <trkpt lat="48.62206" lon="2.02056">
        <ele>120.8</ele>
        <time>2026-03-20T12:59:55Z</time>
      </trkpt>
      <trkpt lat="48.62205" lon="2.02064">
        <ele>120.6</ele>
        <time>2026-03-20T12:59:56Z</time>
      </trkpt>
      <trkpt lat="48.62204" lon="2.02072">
        <ele>120.6</ele>
        <time>2026-03-20T12:59:57Z</time>
      </trkpt>
      <trkpt lat="48.62204" lon="2.0208">
        <ele>120.6</ele>
        <time>2026-03-20T12:59:58Z</time>
      </trkpt>
      <trkpt lat="48.62203" lon="2.02087">
        <ele>120.6</ele>
        <time>2026-03-20T12:59:59Z</time>
      </trkpt>
      <trkpt lat="48.62202" lon="2.02095">
        <ele>120.8</ele>
        <time>2026-03-20T13:00:00Z</time>
      </trkpt>
      <trkpt lat="48.62202" lon="2.02103">
        <ele>120.8</ele>
        <time>2026-03-20T13:00:01Z</time>
      </trkpt>
      <trkpt lat="48.62201" lon="2.0211">
        <ele>120.8</ele>
        <time>2026-03-20T13:00:02Z</time>
      </trkpt>
      <trkpt lat="48.622" lon="2.02118">
        <ele>121.6</ele>
        <time>2026-03-20T13:00:03Z</time>
      </trkpt>
      <trkpt lat="48.62199" lon="2.02125">
        <ele>121.6</ele>
        <time>2026-03-20T13:00:04Z</time>
      </trkpt>
      <trkpt lat="48.62198" lon="2.02133">
        <ele>121.6</ele>
        <time>2026-03-20T13:00:05Z</time>
      </trkpt>
      <trkpt lat="48.62197" lon="2.0214">
        <ele>121.6</ele>
        <time>2026-03-20T13:00:06Z</time>
      </trkpt>
      <trkpt lat="48.62196" lon="2.02147">
        <ele>121.6</ele>
        <time>2026-03-20T13:00:07Z</time>
      </trkpt>
      <trkpt lat="48.62195" lon="2.02155">
        <ele>122</ele>
        <time>2026-03-20T13:00:08Z</time>
      </trkpt>
      <trkpt lat="48.62194" lon="2.02162">
        <ele>122</ele>
        <time>2026-03-20T13:00:09Z</time>
      </trkpt>
      <trkpt lat="48.62193" lon="2.02169">
        <ele>122</ele>
        <time>2026-03-20T13:00:10Z</time>
      </trkpt>
      <trkpt lat="48.62192" lon="2.02177">
        <ele>122</ele>
        <time>2026-03-20T13:00:11Z</time>
      </trkpt>
      <trkpt lat="48.62191" lon="2.02184">
        <ele>121.2</ele>
        <time>2026-03-20T13:00:12Z</time>
      </trkpt>
      <trkpt lat="48.62191" lon="2.02192">
        <ele>121.2</ele>
        <time>2026-03-20T13:00:13Z</time>
      </trkpt>
      <trkpt lat="48.62191" lon="2.022">
        <ele>121.2</ele>
        <time>2026-03-20T13:00:14Z</time>
      </trkpt>
      <trkpt lat="48.62191" lon="2.02207">
        <ele>121.8</ele>
        <time>2026-03-20T13:00:15Z</time>
      </trkpt>
      <trkpt lat="48.62191" lon="2.02215">
        <ele>121.2</ele>
        <time>2026-03-20T13:00:16Z</time>
      </trkpt>
      <trkpt lat="48.62192" lon="2.02223">
        <ele>121.2</ele>
        <time>2026-03-20T13:00:17Z</time>
      </trkpt>
      <trkpt lat="48.62192" lon="2.02231">
        <ele>121.2</ele>
        <time>2026-03-20T13:00:18Z</time>
      </trkpt>
      <trkpt lat="48.62193" lon="2.02239">
        <ele>120.6</ele>
        <time>2026-03-20T13:00:19Z</time>
      </trkpt>
      <trkpt lat="48.62193" lon="2.02246">
        <ele>120.8</ele>
        <time>2026-03-20T13:00:20Z</time>
      </trkpt>
      <trkpt lat="48.62194" lon="2.02254">
        <ele>120.8</ele>
        <time>2026-03-20T13:00:21Z</time>
      </trkpt>
      <trkpt lat="48.62194" lon="2.02262">
        <ele>120.8</ele>
        <time>2026-03-20T13:00:22Z</time>
      </trkpt>
      <trkpt lat="48.62195" lon="2.02269">
        <ele>120.8</ele>
        <time>2026-03-20T13:00:23Z</time>
      </trkpt>
      <trkpt lat="48.62195" lon="2.02277">
        <ele>121.2</ele>
        <time>2026-03-20T13:00:24Z</time>
      </trkpt>
      <trkpt lat="48.62196" lon="2.02285">
        <ele>121.2</ele>
        <time>2026-03-20T13:00:25Z</time>
      </trkpt>
      <trkpt lat="48.62197" lon="2.02292">
        <ele>121.2</ele>
        <time>2026-03-20T13:00:26Z</time>
      </trkpt>
      <trkpt lat="48.62197" lon="2.023">
        <ele>120.8</ele>
        <time>2026-03-20T13:00:27Z</time>
      </trkpt>
      <trkpt lat="48.62197" lon="2.02308">
        <ele>121.4</ele>
        <time>2026-03-20T13:00:28Z</time>
      </trkpt>
      <trkpt lat="48.62198" lon="2.02315">
        <ele>121.4</ele>
        <time>2026-03-20T13:00:29Z</time>
      </trkpt>
      <trkpt lat="48.62199" lon="2.02323">
        <ele>121.4</ele>
        <time>2026-03-20T13:00:30Z</time>
      </trkpt>
      <trkpt lat="48.622" lon="2.0233">
        <ele>121.4</ele>
        <time>2026-03-20T13:00:31Z</time>
      </trkpt>
      <trkpt lat="48.62201" lon="2.02337">
        <ele>121.4</ele>
        <time>2026-03-20T13:00:32Z</time>
      </trkpt>
      <trkpt lat="48.62203" lon="2.02345">
        <ele>121.4</ele>
        <time>2026-03-20T13:00:33Z</time>
      </trkpt>
      <trkpt lat="48.62204" lon="2.02352">
        <ele>121.4</ele>
        <time>2026-03-20T13:00:34Z</time>
      </trkpt>
      <trkpt lat="48.62205" lon="2.02359">
        <ele>122.4</ele>
        <time>2026-03-20T13:00:35Z</time>
      </trkpt>
      <trkpt lat="48.62205" lon="2.02367">
        <ele>122</ele>
        <time>2026-03-20T13:00:36Z</time>
      </trkpt>
      <trkpt lat="48.62205" lon="2.02374">
        <ele>122</ele>
        <time>2026-03-20T13:00:37Z</time>
      </trkpt>
      <trkpt lat="48.62204" lon="2.02381">
        <ele>122</ele>
        <time>2026-03-20T13:00:38Z</time>
      </trkpt>
      <trkpt lat="48.62203" lon="2.02388">
        <ele>122</ele>
        <time>2026-03-20T13:00:39Z</time>
      </trkpt>
      <trkpt lat="48.622" lon="2.02395">
        <ele>121.6</ele>
        <time>2026-03-20T13:00:40Z</time>
      </trkpt>
      <trkpt lat="48.62197" lon="2.02401">
        <ele>121.6</ele>
        <time>2026-03-20T13:00:41Z</time>
      </trkpt>
      <trkpt lat="48.62193" lon="2.02407">
        <ele>121.6</ele>
        <time>2026-03-20T13:00:42Z</time>
      </trkpt>
      <trkpt lat="48.62189" lon="2.02413">
        <ele>121</ele>
        <time>2026-03-20T13:00:43Z</time>
      </trkpt>
      <trkpt lat="48.62185" lon="2.02419">
        <ele>120.8</ele>
        <time>2026-03-20T13:00:44Z</time>
      </trkpt>
      <trkpt lat="48.62181" lon="2.02425">
        <ele>120.8</ele>
        <time>2026-03-20T13:00:45Z</time>
      </trkpt>
      <trkpt lat="48.62177" lon="2.02431">
        <ele>120.8</ele>
        <time>2026-03-20T13:00:46Z</time>
      </trkpt>
      <trkpt lat="48.62172" lon="2.02436">
        <ele>120.8</ele>
        <time>2026-03-20T13:00:47Z</time>
      </trkpt>
      <trkpt lat="48.62168" lon="2.02442">
        <ele>121.4</ele>
        <time>2026-03-20T13:00:48Z</time>
      </trkpt>
      <trkpt lat="48.62164" lon="2.02447">
        <ele>121.4</ele>
        <time>2026-03-20T13:00:49Z</time>
      </trkpt>
      <trkpt lat="48.6216" lon="2.02452">
        <ele>121.4</ele>
        <time>2026-03-20T13:00:50Z</time>
      </trkpt>
      <trkpt lat="48.62156" lon="2.02457">
        <ele>120.8</ele>
        <time>2026-03-20T13:00:51Z</time>
      </trkpt>
      <trkpt lat="48.62152" lon="2.02462">
        <ele>120.2</ele>
        <time>2026-03-20T13:00:52Z</time>
      </trkpt>
      <trkpt lat="48.62148" lon="2.02468">
        <ele>120.2</ele>
        <time>2026-03-20T13:00:53Z</time>
      </trkpt>
      <trkpt lat="48.62144" lon="2.02473">
        <ele>120.2</ele>
        <time>2026-03-20T13:00:54Z</time>
      </trkpt>
      <trkpt lat="48.6214" lon="2.02477">
        <ele>120.2</ele>
        <time>2026-03-20T13:00:55Z</time>
      </trkpt>
      <trkpt lat="48.62136" lon="2.02482">
        <ele>120.8</ele>
        <time>2026-03-20T13:00:56Z</time>
      </trkpt>
      <trkpt lat="48.62131" lon="2.02487">
        <ele>120.8</ele>
        <time>2026-03-20T13:00:57Z</time>
      </trkpt>
      <trkpt lat="48.62127" lon="2.02492">
        <ele>120.8</ele>
        <time>2026-03-20T13:00:58Z</time>
      </trkpt>
      <trkpt lat="48.62122" lon="2.02496">
        <ele>120.4</ele>
        <time>2026-03-20T13:00:59Z</time>
      </trkpt>
      <trkpt lat="48.62117" lon="2.025">
        <ele>120.8</ele>
        <time>2026-03-20T13:01:00Z</time>
      </trkpt>
      <trkpt lat="48.62112" lon="2.02504">
        <ele>120.8</ele>
        <time>2026-03-20T13:01:01Z</time>
      </trkpt>
      <trkpt lat="48.62107" lon="2.02507">
        <ele>120.8</ele>
        <time>2026-03-20T13:01:02Z</time>
      </trkpt>
      <trkpt lat="48.62101" lon="2.02507">
        <ele>119.8</ele>
        <time>2026-03-20T13:01:03Z</time>
      </trkpt>
      <trkpt lat="48.62096" lon="2.02506">
        <ele>120.2</ele>
        <time>2026-03-20T13:01:04Z</time>
      </trkpt>
      <trkpt lat="48.6209" lon="2.02505">
        <ele>120.2</ele>
        <time>2026-03-20T13:01:05Z</time>
      </trkpt>
      <trkpt lat="48.62085" lon="2.02505">
        <ele>120.2</ele>
        <time>2026-03-20T13:01:06Z</time>
      </trkpt>
      <trkpt lat="48.6208" lon="2.02505">
        <ele>120.2</ele>
        <time>2026-03-20T13:01:07Z</time>
      </trkpt>
      <trkpt lat="48.62074" lon="2.02504">
        <ele>121.2</ele>
        <time>2026-03-20T13:01:08Z</time>
      </trkpt>
      <trkpt lat="48.62069" lon="2.02504">
        <ele>121.2</ele>
        <time>2026-03-20T13:01:09Z</time>
      </trkpt>
      <trkpt lat="48.62064" lon="2.02503">
        <ele>121.2</ele>
        <time>2026-03-20T13:01:10Z</time>
      </trkpt>
      <trkpt lat="48.62059" lon="2.02503">
        <ele>121.2</ele>
        <time>2026-03-20T13:01:11Z</time>
      </trkpt>
      <trkpt lat="48.62054" lon="2.02504">
        <ele>121.4</ele>
        <time>2026-03-20T13:01:12Z</time>
      </trkpt>
      <trkpt lat="48.6205" lon="2.02506">
        <ele>121.4</ele>
        <time>2026-03-20T13:01:13Z</time>
      </trkpt>
      <trkpt lat="48.62045" lon="2.02509">
        <ele>121.4</ele>
        <time>2026-03-20T13:01:14Z</time>
      </trkpt>
      <trkpt lat="48.62042" lon="2.02512">
        <ele>122</ele>
        <time>2026-03-20T13:01:15Z</time>
      </trkpt>
      <trkpt lat="48.6204" lon="2.02514">
        <ele>121.8</ele>
        <time>2026-03-20T13:01:16Z</time>
      </trkpt>
      <trkpt lat="48.62039" lon="2.02516">
        <ele>121.8</ele>
        <time>2026-03-20T13:01:17Z</time>
      </trkpt>
      <trkpt lat="48.62038" lon="2.02518">
        <ele>121.8</ele>
        <time>2026-03-20T13:01:18Z</time>
      </trkpt>
      <trkpt lat="48.62039" lon="2.02519">
        <ele>122.2</ele>
        <time>2026-03-20T13:01:19Z</time>
      </trkpt>
      <trkpt lat="48.62039" lon="2.02519">
        <ele>122</ele>
        <time>2026-03-20T13:01:20Z</time>
      </trkpt>
      <trkpt lat="48.62027" lon="2.02519">
        <ele>123</ele>
        <time>2026-03-20T13:04:11Z</time>
      </trkpt>
      <trkpt lat="48.62025" lon="2.02519">
        <ele>123</ele>
        <time>2026-03-20T13:04:12Z</time>
      </trkpt>
      <trkpt lat="48.62024" lon="2.02521">
        <ele>123</ele>
        <time>2026-03-20T13:04:13Z</time>
      </trkpt>
      <trkpt lat="48.62023" lon="2.02523">
        <ele>123</ele>
        <time>2026-03-20T13:04:14Z</time>
      </trkpt>
      <trkpt lat="48.62022" lon="2.02525">
        <ele>123</ele>
        <time>2026-03-20T13:04:15Z</time>
      </trkpt>
      <trkpt lat="48.6202" lon="2.02526">
        <ele>123</ele>
        <time>2026-03-20T13:04:16Z</time>
      </trkpt>
      <trkpt lat="48.62019" lon="2.02528">
        <ele>123</ele>
        <time>2026-03-20T13:04:17Z</time>
      </trkpt>
      <trkpt lat="48.62017" lon="2.02529">
        <ele>123</ele>
        <time>2026-03-20T13:04:18Z</time>
      </trkpt>
      <trkpt lat="48.62015" lon="2.02529">
        <ele>123.2</ele>
        <time>2026-03-20T13:04:19Z</time>
      </trkpt>
      <trkpt lat="48.62014" lon="2.02528">
        <ele>123.2</ele>
        <time>2026-03-20T13:04:20Z</time>
      </trkpt>
      <trkpt lat="48.62012" lon="2.02528">
        <ele>123.2</ele>
        <time>2026-03-20T13:04:21Z</time>
      </trkpt>
      <trkpt lat="48.62012" lon="2.0253">
        <ele>123.2</ele>
        <time>2026-03-20T13:04:22Z</time>
      </trkpt>
      <trkpt lat="48.62013" lon="2.0253">
        <ele>123.2</ele>
        <time>2026-03-20T13:04:23Z</time>
      </trkpt>
      <trkpt lat="48.62014" lon="2.02528">
        <ele>122.6</ele>
        <time>2026-03-20T13:04:24Z</time>
      </trkpt>
      <trkpt lat="48.62015" lon="2.02527">
        <ele>122.6</ele>
        <time>2026-03-20T13:04:25Z</time>
      </trkpt>
      <trkpt lat="48.62016" lon="2.02526">
        <ele>122.6</ele>
        <time>2026-03-20T13:04:26Z</time>
      </trkpt>
      <trkpt lat="48.62018" lon="2.02525">
        <ele>122.6</ele>
        <time>2026-03-20T13:04:27Z</time>
      </trkpt>
      <trkpt lat="48.62019" lon="2.02524">
        <ele>122.8</ele>
        <time>2026-03-20T13:04:28Z</time>
      </trkpt>
      <trkpt lat="48.62021" lon="2.02524">
        <ele>122.8</ele>
        <time>2026-03-20T13:04:29Z</time>
      </trkpt>
      <trkpt lat="48.62022" lon="2.02524">
        <ele>122.8</ele>
        <time>2026-03-20T13:04:30Z</time>
      </trkpt>
      <trkpt lat="48.62023" lon="2.02524">
        <ele>122.8</ele>
        <time>2026-03-20T13:04:31Z</time>
      </trkpt>
      <trkpt lat="48.62024" lon="2.02525">
        <ele>122.8</ele>
        <time>2026-03-20T13:04:32Z</time>
      </trkpt>
      <trkpt lat="48.62025" lon="2.02525">
        <ele>122.8</ele>
        <time>2026-03-20T13:04:33Z</time>
      </trkpt>
      <trkpt lat="48.62026" lon="2.02526">
        <ele>122.8</ele>
        <time>2026-03-20T13:04:34Z</time>
      </trkpt>
      <trkpt lat="48.62026" lon="2.02526">
        <ele>123</ele>
        <time>2026-03-20T13:04:35Z</time>
      </trkpt>
      <trkpt lat="48.62023" lon="2.02526">
        <ele>123.4</ele>
        <time>2026-03-20T13:05:06Z</time>
      </trkpt>
      <trkpt lat="48.62021" lon="2.02527">
        <ele>123.4</ele>
        <time>2026-03-20T13:05:07Z</time>
      </trkpt>
      <trkpt lat="48.62019" lon="2.02528">
        <ele>123.4</ele>
        <time>2026-03-20T13:05:08Z</time>
      </trkpt>
      <trkpt lat="48.62018" lon="2.02528">
        <ele>123.4</ele>
        <time>2026-03-20T13:05:09Z</time>
      </trkpt>
      <trkpt lat="48.62016" lon="2.02529">
        <ele>123.4</ele>
        <time>2026-03-20T13:05:10Z</time>
      </trkpt>
      <trkpt lat="48.62013" lon="2.0253">
        <ele>123.6</ele>
        <time>2026-03-20T13:05:11Z</time>
      </trkpt>
      <trkpt lat="48.62011" lon="2.02532">
        <ele>123.8</ele>
        <time>2026-03-20T13:05:12Z</time>
      </trkpt>
      <trkpt lat="48.62009" lon="2.02533">
        <ele>123.8</ele>
        <time>2026-03-20T13:05:13Z</time>
      </trkpt>
      <trkpt lat="48.62007" lon="2.02534">
        <ele>123.8</ele>
        <time>2026-03-20T13:05:14Z</time>
      </trkpt>
      <trkpt lat="48.62005" lon="2.02535">
        <ele>123.8</ele>
        <time>2026-03-20T13:05:15Z</time>
      </trkpt>
      <trkpt lat="48.62002" lon="2.02536">
        <ele>123</ele>
        <time>2026-03-20T13:05:16Z</time>
      </trkpt>
      <trkpt lat="48.62" lon="2.02537">
        <ele>123</ele>
        <time>2026-03-20T13:05:17Z</time>
      </trkpt>
      <trkpt lat="48.61997" lon="2.02538">
        <ele>123</ele>
        <time>2026-03-20T13:05:18Z</time>
      </trkpt>
      <trkpt lat="48.61995" lon="2.0254">
        <ele>123.2</ele>
        <time>2026-03-20T13:05:19Z</time>
      </trkpt>
      <trkpt lat="48.61992" lon="2.02541">
        <ele>123.6</ele>
        <time>2026-03-20T13:05:20Z</time>
      </trkpt>
      <trkpt lat="48.6199" lon="2.02543">
        <ele>123.6</ele>
        <time>2026-03-20T13:05:21Z</time>
      </trkpt>
      <trkpt lat="48.61987" lon="2.02544">
        <ele>123.6</ele>
        <time>2026-03-20T13:05:22Z</time>
      </trkpt>
      <trkpt lat="48.61984" lon="2.02545">
        <ele>123.4</ele>
        <time>2026-03-20T13:05:23Z</time>
      </trkpt>
      <trkpt lat="48.61982" lon="2.02546">
        <ele>123.4</ele>
        <time>2026-03-20T13:05:24Z</time>
      </trkpt>
      <trkpt lat="48.61979" lon="2.02548">
        <ele>123.4</ele>
        <time>2026-03-20T13:05:25Z</time>
      </trkpt>
      <trkpt lat="48.61977" lon="2.0255">
        <ele>123.4</ele>
        <time>2026-03-20T13:05:26Z</time>
      </trkpt>
      <trkpt lat="48.61975" lon="2.02551">
        <ele>123</ele>
        <time>2026-03-20T13:05:27Z</time>
      </trkpt>
      <trkpt lat="48.61972" lon="2.02553">
        <ele>123.4</ele>
        <time>2026-03-20T13:05:28Z</time>
      </trkpt>
      <trkpt lat="48.6197" lon="2.02555">
        <ele>123.4</ele>
        <time>2026-03-20T13:05:29Z</time>
      </trkpt>
      <trkpt lat="48.61968" lon="2.02557">
        <ele>123.4</ele>
        <time>2026-03-20T13:05:30Z</time>
      </trkpt>
      <trkpt lat="48.61966" lon="2.0256">
        <ele>124</ele>
        <time>2026-03-20T13:05:31Z</time>
      </trkpt>
      <trkpt lat="48.61964" lon="2.02563">
        <ele>124.2</ele>
        <time>2026-03-20T13:05:32Z</time>
      </trkpt>
      <trkpt lat="48.61962" lon="2.02566">
        <ele>124.2</ele>
        <time>2026-03-20T13:05:33Z</time>
      </trkpt>
      <trkpt lat="48.6196" lon="2.02569">
        <ele>124.2</ele>
        <time>2026-03-20T13:05:34Z</time>
      </trkpt>
      <trkpt lat="48.61958" lon="2.02572">
        <ele>123.8</ele>
        <time>2026-03-20T13:05:35Z</time>
      </trkpt>
      <trkpt lat="48.61956" lon="2.02575">
        <ele>123.6</ele>
        <time>2026-03-20T13:05:36Z</time>
      </trkpt>
      <trkpt lat="48.61954" lon="2.02577">
        <ele>123.6</ele>
        <time>2026-03-20T13:05:37Z</time>
      </trkpt>
      <trkpt lat="48.61953" lon="2.0258">
        <ele>123.6</ele>
        <time>2026-03-20T13:05:38Z</time>
      </trkpt>
      <trkpt lat="48.61951" lon="2.02584">
        <ele>123.6</ele>
        <time>2026-03-20T13:05:39Z</time>
      </trkpt>
      <trkpt lat="48.61949" lon="2.02587">
        <ele>124.2</ele>
        <time>2026-03-20T13:05:40Z</time>
      </trkpt>
      <trkpt lat="48.61948" lon="2.02591">
        <ele>124.2</ele>
        <time>2026-03-20T13:05:41Z</time>
      </trkpt>
      <trkpt lat="48.61946" lon="2.02594">
        <ele>124.2</ele>
        <time>2026-03-20T13:05:42Z</time>
      </trkpt>
      <trkpt lat="48.61944" lon="2.02598">
        <ele>124.2</ele>
        <time>2026-03-20T13:05:43Z</time>
      </trkpt>
      <trkpt lat="48.61943" lon="2.02602">
        <ele>123.8</ele>
        <time>2026-03-20T13:05:44Z</time>
      </trkpt>
      <trkpt lat="48.6194" lon="2.02606">
        <ele>123.8</ele>
        <time>2026-03-20T13:05:45Z</time>
      </trkpt>
      <trkpt lat="48.61938" lon="2.02609">
        <ele>123.8</ele>
        <time>2026-03-20T13:05:46Z</time>
      </trkpt>
      <trkpt lat="48.61936" lon="2.02612">
        <ele>123.8</ele>
        <time>2026-03-20T13:05:47Z</time>
      </trkpt>
      <trkpt lat="48.61933" lon="2.02615">
        <ele>124</ele>
        <time>2026-03-20T13:05:48Z</time>
      </trkpt>
      <trkpt lat="48.61931" lon="2.02618">
        <ele>124</ele>
        <time>2026-03-20T13:05:49Z</time>
      </trkpt>
      <trkpt lat="48.61928" lon="2.02622">
        <ele>124</ele>
        <time>2026-03-20T13:05:50Z</time>
      </trkpt>
      <trkpt lat="48.61925" lon="2.02626">
        <ele>124</ele>
        <time>2026-03-20T13:05:51Z</time>
      </trkpt>
      <trkpt lat="48.61923" lon="2.0263">
        <ele>123.2</ele>
        <time>2026-03-20T13:05:52Z</time>
      </trkpt>
      <trkpt lat="48.6192" lon="2.02633">
        <ele>123.2</ele>
        <time>2026-03-20T13:05:53Z</time>
      </trkpt>
      <trkpt lat="48.61917" lon="2.02638">
        <ele>123.2</ele>
        <time>2026-03-20T13:05:54Z</time>
      </trkpt>
      <trkpt lat="48.61914" lon="2.02642">
        <ele>123.2</ele>
        <time>2026-03-20T13:05:55Z</time>
      </trkpt>
      <trkpt lat="48.61912" lon="2.02646">
        <ele>123</ele>
        <time>2026-03-20T13:05:56Z</time>
      </trkpt>
      <trkpt lat="48.61909" lon="2.0265">
        <ele>123</ele>
        <time>2026-03-20T13:05:57Z</time>
      </trkpt>
      <trkpt lat="48.61906" lon="2.02654">
        <ele>123</ele>
        <time>2026-03-20T13:05:58Z</time>
      </trkpt>
      <trkpt lat="48.61903" lon="2.02658">
        <ele>122.4</ele>
        <time>2026-03-20T13:05:59Z</time>
      </trkpt>
      <trkpt lat="48.61901" lon="2.02662">
        <ele>122.8</ele>
        <time>2026-03-20T13:06:00Z</time>
      </trkpt>
      <trkpt lat="48.61898" lon="2.02666">
        <ele>122.8</ele>
        <time>2026-03-20T13:06:01Z</time>
      </trkpt>
      <trkpt lat="48.61896" lon="2.0267">
        <ele>122.8</ele>
        <time>2026-03-20T13:06:02Z</time>
      </trkpt>
      <trkpt lat="48.61893" lon="2.02674">
        <ele>123</ele>
        <time>2026-03-20T13:06:03Z</time>
      </trkpt>
      <trkpt lat="48.6189" lon="2.02679">
        <ele>122.4</ele>
        <time>2026-03-20T13:06:04Z</time>
      </trkpt>
      <trkpt lat="48.61887" lon="2.02683">
        <ele>122.4</ele>
        <time>2026-03-20T13:06:05Z</time>
      </trkpt>
      <trkpt lat="48.61884" lon="2.02687">
        <ele>122.4</ele>
        <time>2026-03-20T13:06:06Z</time>
      </trkpt>
      <trkpt lat="48.61881" lon="2.02691">
        <ele>122.4</ele>
        <time>2026-03-20T13:06:07Z</time>
      </trkpt>
      <trkpt lat="48.61878" lon="2.02695">
        <ele>122.2</ele>
        <time>2026-03-20T13:06:08Z</time>
      </trkpt>
      <trkpt lat="48.61875" lon="2.02699">
        <ele>122.2</ele>
        <time>2026-03-20T13:06:09Z</time>
      </trkpt>
      <trkpt lat="48.61872" lon="2.02704">
        <ele>122.2</ele>
        <time>2026-03-20T13:06:10Z</time>
      </trkpt>
      <trkpt lat="48.61868" lon="2.02707">
        <ele>122</ele>
        <time>2026-03-20T13:06:11Z</time>
      </trkpt>
      <trkpt lat="48.61864" lon="2.02708">
        <ele>122.6</ele>
        <time>2026-03-20T13:06:12Z</time>
      </trkpt>
      <trkpt lat="48.6186" lon="2.02706">
        <ele>122.6</ele>
        <time>2026-03-20T13:06:13Z</time>
      </trkpt>
      <trkpt lat="48.61856" lon="2.02704">
        <ele>122.6</ele>
        <time>2026-03-20T13:06:14Z</time>
      </trkpt>
      <trkpt lat="48.61852" lon="2.02702">
        <ele>122.6</ele>
        <time>2026-03-20T13:06:15Z</time>
      </trkpt>
      <trkpt lat="48.61849" lon="2.027">
        <ele>121.4</ele>
        <time>2026-03-20T13:06:16Z</time>
      </trkpt>
      <trkpt lat="48.61844" lon="2.027">
        <ele>121.4</ele>
        <time>2026-03-20T13:06:17Z</time>
      </trkpt>
      <trkpt lat="48.6184" lon="2.02701">
        <ele>121.4</ele>
        <time>2026-03-20T13:06:18Z</time>
      </trkpt>
      <trkpt lat="48.61836" lon="2.027">
        <ele>120.6</ele>
        <time>2026-03-20T13:06:19Z</time>
      </trkpt>
      <trkpt lat="48.61831" lon="2.027">
        <ele>120</ele>
        <time>2026-03-20T13:06:20Z</time>
      </trkpt>
      <trkpt lat="48.61826" lon="2.027">
        <ele>120</ele>
        <time>2026-03-20T13:06:21Z</time>
      </trkpt>
      <trkpt lat="48.61821" lon="2.02699">
        <ele>120</ele>
        <time>2026-03-20T13:06:22Z</time>
      </trkpt>
      <trkpt lat="48.61816" lon="2.02698">
        <ele>120</ele>
        <time>2026-03-20T13:06:23Z</time>
      </trkpt>
      <trkpt lat="48.61811" lon="2.02697">
        <ele>119.8</ele>
        <time>2026-03-20T13:06:24Z</time>
      </trkpt>
      <trkpt lat="48.61805" lon="2.02696">
        <ele>119.8</ele>
        <time>2026-03-20T13:06:25Z</time>
      </trkpt>
      <trkpt lat="48.618" lon="2.02694">
        <ele>119.8</ele>
        <time>2026-03-20T13:06:26Z</time>
      </trkpt>
      <trkpt lat="48.61795" lon="2.02691">
        <ele>118.8</ele>
        <time>2026-03-20T13:06:27Z</time>
      </trkpt>
      <trkpt lat="48.61789" lon="2.02688">
        <ele>116.8</ele>
        <time>2026-03-20T13:06:28Z</time>
      </trkpt>
      <trkpt lat="48.61784" lon="2.02685">
        <ele>116.8</ele>
        <time>2026-03-20T13:06:29Z</time>
      </trkpt>
      <trkpt lat="48.61778" lon="2.02682">
        <ele>116.8</ele>
        <time>2026-03-20T13:06:30Z</time>
      </trkpt>
      <trkpt lat="48.61773" lon="2.02679">
        <ele>116.6</ele>
        <time>2026-03-20T13:06:31Z</time>
      </trkpt>
      <trkpt lat="48.61767" lon="2.02676">
        <ele>115.6</ele>
        <time>2026-03-20T13:06:32Z</time>
      </trkpt>
      <trkpt lat="48.61761" lon="2.02674">
        <ele>115.6</ele>
        <time>2026-03-20T13:06:33Z</time>
      </trkpt>
      <trkpt lat="48.61756" lon="2.02672">
        <ele>115.6</ele>
        <time>2026-03-20T13:06:34Z</time>
      </trkpt>
      <trkpt lat="48.6175" lon="2.02669">
        <ele>115.6</ele>
        <time>2026-03-20T13:06:35Z</time>
      </trkpt>
      <trkpt lat="48.61745" lon="2.02665">
        <ele>116</ele>
        <time>2026-03-20T13:06:36Z</time>
      </trkpt>
      <trkpt lat="48.61741" lon="2.02661">
        <ele>116</ele>
        <time>2026-03-20T13:06:37Z</time>
      </trkpt>
      <trkpt lat="48.61737" lon="2.02657">
        <ele>116</ele>
        <time>2026-03-20T13:06:38Z</time>
      </trkpt>
      <trkpt lat="48.61732" lon="2.02653">
        <ele>115</ele>
        <time>2026-03-20T13:06:39Z</time>
      </trkpt>
      <trkpt lat="48.61727" lon="2.0265">
        <ele>115</ele>
        <time>2026-03-20T13:06:40Z</time>
      </trkpt>
      <trkpt lat="48.61722" lon="2.0265">
        <ele>115</ele>
        <time>2026-03-20T13:06:41Z</time>
      </trkpt>
      <trkpt lat="48.61716" lon="2.02651">
        <ele>115</ele>
        <time>2026-03-20T13:06:42Z</time>
      </trkpt>
      <trkpt lat="48.6171" lon="2.02651">
        <ele>114.4</ele>
        <time>2026-03-20T13:06:43Z</time>
      </trkpt>
      <trkpt lat="48.61704" lon="2.02652">
        <ele>114.2</ele>
        <time>2026-03-20T13:06:44Z</time>
      </trkpt>
      <trkpt lat="48.61698" lon="2.02652">
        <ele>114.2</ele>
        <time>2026-03-20T13:06:45Z</time>
      </trkpt>
      <trkpt lat="48.61692" lon="2.02651">
        <ele>114.2</ele>
        <time>2026-03-20T13:06:46Z</time>
      </trkpt>
      <trkpt lat="48.61687" lon="2.02651">
        <ele>114.2</ele>
        <time>2026-03-20T13:06:47Z</time>
      </trkpt>
      <trkpt lat="48.61681" lon="2.02649">
        <ele>114</ele>
        <time>2026-03-20T13:06:48Z</time>
      </trkpt>
      <trkpt lat="48.61675" lon="2.02648">
        <ele>114</ele>
        <time>2026-03-20T13:06:49Z</time>
      </trkpt>
      <trkpt lat="48.61669" lon="2.02647">
        <ele>114</ele>
        <time>2026-03-20T13:06:50Z</time>
      </trkpt>
      <trkpt lat="48.61663" lon="2.02645">
        <ele>114</ele>
        <time>2026-03-20T13:06:51Z</time>
      </trkpt>
      <trkpt lat="48.61658" lon="2.02644">
        <ele>114.2</ele>
        <time>2026-03-20T13:06:52Z</time>
      </trkpt>
      <trkpt lat="48.61652" lon="2.02643">
        <ele>114.2</ele>
        <time>2026-03-20T13:06:53Z</time>
      </trkpt>
      <trkpt lat="48.61646" lon="2.02641">
        <ele>114.2</ele>
        <time>2026-03-20T13:06:54Z</time>
      </trkpt>
      <trkpt lat="48.6164" lon="2.0264">
        <ele>114.2</ele>
        <time>2026-03-20T13:06:55Z</time>
      </trkpt>
      <trkpt lat="48.61634" lon="2.02639">
        <ele>114.4</ele>
        <time>2026-03-20T13:06:56Z</time>
      </trkpt>
      <trkpt lat="48.61628" lon="2.02638">
        <ele>114.4</ele>
        <time>2026-03-20T13:06:57Z</time>
      </trkpt>
      <trkpt lat="48.61622" lon="2.02636">
        <ele>114.4</ele>
        <time>2026-03-20T13:06:58Z</time>
      </trkpt>
      <trkpt lat="48.61616" lon="2.02635">
        <ele>114.4</ele>
        <time>2026-03-20T13:06:59Z</time>
      </trkpt>
      <trkpt lat="48.6161" lon="2.02634">
        <ele>114</ele>
        <time>2026-03-20T13:07:00Z</time>
      </trkpt>
      <trkpt lat="48.61604" lon="2.02633">
        <ele>114</ele>
        <time>2026-03-20T13:07:01Z</time>
      </trkpt>
      <trkpt lat="48.61598" lon="2.02632">
        <ele>114</ele>
        <time>2026-03-20T13:07:02Z</time>
      </trkpt>
      <trkpt lat="48.61592" lon="2.02631">
        <ele>113</ele>
        <time>2026-03-20T13:07:03Z</time>
      </trkpt>
      <trkpt lat="48.61586" lon="2.02631">
        <ele>113.8</ele>
        <time>2026-03-20T13:07:04Z</time>
      </trkpt>
      <trkpt lat="48.6158" lon="2.02631">
        <ele>113.8</ele>
        <time>2026-03-20T13:07:05Z</time>
      </trkpt>
      <trkpt lat="48.61574" lon="2.02632">
        <ele>113.8</ele>
        <time>2026-03-20T13:07:06Z</time>
      </trkpt>
      <trkpt lat="48.61568" lon="2.02633">
        <ele>113.8</ele>
        <time>2026-03-20T13:07:07Z</time>
      </trkpt>
      <trkpt lat="48.61563" lon="2.02634">
        <ele>114.2</ele>
        <time>2026-03-20T13:07:08Z</time>
      </trkpt>
      <trkpt lat="48.61557" lon="2.02635">
        <ele>114.2</ele>
        <time>2026-03-20T13:07:09Z</time>
      </trkpt>
      <trkpt lat="48.61551" lon="2.02636">
        <ele>114.2</ele>
        <time>2026-03-20T13:07:10Z</time>
      </trkpt>
      <trkpt lat="48.61546" lon="2.02637">
        <ele>114.2</ele>
        <time>2026-03-20T13:07:11Z</time>
      </trkpt>
      <trkpt lat="48.6154" lon="2.02637">
        <ele>114.4</ele>
        <time>2026-03-20T13:07:12Z</time>
      </trkpt>
      <trkpt lat="48.61535" lon="2.02637">
        <ele>114.4</ele>
        <time>2026-03-20T13:07:13Z</time>
      </trkpt>
      <trkpt lat="48.6153" lon="2.02637">
        <ele>114.4</ele>
        <time>2026-03-20T13:07:14Z</time>
      </trkpt>
      <trkpt lat="48.61524" lon="2.02637">
        <ele>114.4</ele>
        <time>2026-03-20T13:07:15Z</time>
      </trkpt>
      <trkpt lat="48.61519" lon="2.02638">
        <ele>114.6</ele>
        <time>2026-03-20T13:07:16Z</time>
      </trkpt>
      <trkpt lat="48.61514" lon="2.02641">
        <ele>114.6</ele>
        <time>2026-03-20T13:07:17Z</time>
      </trkpt>
      <trkpt lat="48.6151" lon="2.02644">
        <ele>114.6</ele>
        <time>2026-03-20T13:07:18Z</time>
      </trkpt>
      <trkpt lat="48.61507" lon="2.02649">
        <ele>114.6</ele>
        <time>2026-03-20T13:07:19Z</time>
      </trkpt>
      <trkpt lat="48.61505" lon="2.02654">
        <ele>113.2</ele>
        <time>2026-03-20T13:07:20Z</time>
      </trkpt>
      <trkpt lat="48.61505" lon="2.0266">
        <ele>113.2</ele>
        <time>2026-03-20T13:07:21Z</time>
      </trkpt>
      <trkpt lat="48.61507" lon="2.02664">
        <ele>113.2</ele>
        <time>2026-03-20T13:07:22Z</time>
      </trkpt>
      <trkpt lat="48.61511" lon="2.02666">
        <ele>114.2</ele>
        <time>2026-03-20T13:07:23Z</time>
      </trkpt>
      <trkpt lat="48.61514" lon="2.02667">
        <ele>115</ele>
        <time>2026-03-20T13:07:24Z</time>
      </trkpt>
      <trkpt lat="48.61516" lon="2.02669">
        <ele>115</ele>
        <time>2026-03-20T13:07:25Z</time>
      </trkpt>
      <trkpt lat="48.61518" lon="2.02672">
        <ele>115</ele>
        <time>2026-03-20T13:07:26Z</time>
      </trkpt>
      <trkpt lat="48.6152" lon="2.02675">
        <ele>114.2</ele>
        <time>2026-03-20T13:07:27Z</time>
      </trkpt>
      <trkpt lat="48.61522" lon="2.02679">
        <ele>114.4</ele>
        <time>2026-03-20T13:07:28Z</time>
      </trkpt>
      <trkpt lat="48.61524" lon="2.02682">
        <ele>114.4</ele>
        <time>2026-03-20T13:07:29Z</time>
      </trkpt>
      <trkpt lat="48.61527" lon="2.02685">
        <ele>114.4</ele>
        <time>2026-03-20T13:07:30Z</time>
      </trkpt>
      <trkpt lat="48.61529" lon="2.02689">
        <ele>114.4</ele>
        <time>2026-03-20T13:07:31Z</time>
      </trkpt>
      <trkpt lat="48.61532" lon="2.02692">
        <ele>114.2</ele>
        <time>2026-03-20T13:07:32Z</time>
      </trkpt>
      <trkpt lat="48.61534" lon="2.02696">
        <ele>114.2</ele>
        <time>2026-03-20T13:07:33Z</time>
      </trkpt>
      <trkpt lat="48.61537" lon="2.027">
        <ele>114.2</ele>
        <time>2026-03-20T13:07:34Z</time>
      </trkpt>
      <trkpt lat="48.61539" lon="2.02704">
        <ele>114.6</ele>
        <time>2026-03-20T13:07:35Z</time>
      </trkpt>
      <trkpt lat="48.61542" lon="2.02708">
        <ele>114.4</ele>
        <time>2026-03-20T13:07:36Z</time>
      </trkpt>
      <trkpt lat="48.61545" lon="2.02712">
        <ele>114.4</ele>
        <time>2026-03-20T13:07:37Z</time>
      </trkpt>
      <trkpt lat="48.61548" lon="2.02716">
        <ele>114.4</ele>
        <time>2026-03-20T13:07:38Z</time>
      </trkpt>
      <trkpt lat="48.61551" lon="2.02721">
        <ele>114.4</ele>
        <time>2026-03-20T13:07:39Z</time>
      </trkpt>
      <trkpt lat="48.61554" lon="2.02725">
        <ele>115.6</ele>
        <time>2026-03-20T13:07:40Z</time>
      </trkpt>
      <trkpt lat="48.61557" lon="2.02729">
        <ele>115.6</ele>
        <time>2026-03-20T13:07:41Z</time>
      </trkpt>
      <trkpt lat="48.61559" lon="2.02733">
        <ele>115.6</ele>
        <time>2026-03-20T13:07:42Z</time>
      </trkpt>
      <trkpt lat="48.61562" lon="2.02738">
        <ele>115.6</ele>
        <time>2026-03-20T13:07:43Z</time>
      </trkpt>
      <trkpt lat="48.61565" lon="2.02742">
        <ele>115.2</ele>
        <time>2026-03-20T13:07:44Z</time>
      </trkpt>
      <trkpt lat="48.61568" lon="2.02746">
        <ele>115.2</ele>
        <time>2026-03-20T13:07:45Z</time>
      </trkpt>
      <trkpt lat="48.61571" lon="2.0275">
        <ele>115.2</ele>
        <time>2026-03-20T13:07:46Z</time>
      </trkpt>
      <trkpt lat="48.61574" lon="2.02755">
        <ele>115.2</ele>
        <time>2026-03-20T13:07:47Z</time>
      </trkpt>
      <trkpt lat="48.61576" lon="2.02759">
        <ele>115.2</ele>
        <time>2026-03-20T13:07:48Z</time>
      </trkpt>
      <trkpt lat="48.61579" lon="2.02763">
        <ele>115.2</ele>
        <time>2026-03-20T13:07:49Z</time>
      </trkpt>
      <trkpt lat="48.61582" lon="2.02767">
        <ele>115.2</ele>
        <time>2026-03-20T13:07:50Z</time>
      </trkpt>
      <trkpt lat="48.61585" lon="2.02772">
        <ele>115.2</ele>
        <time>2026-03-20T13:07:51Z</time>
      </trkpt>
      <trkpt lat="48.61588" lon="2.02776">
        <ele>115.4</ele>
        <time>2026-03-20T13:07:52Z</time>
      </trkpt>
      <trkpt lat="48.61591" lon="2.0278">
        <ele>115.4</ele>
        <time>2026-03-20T13:07:53Z</time>
      </trkpt>
      <trkpt lat="48.61594" lon="2.02785">
        <ele>115.4</ele>
        <time>2026-03-20T13:07:54Z</time>
      </trkpt>
      <trkpt lat="48.61597" lon="2.02789">
        <ele>115.4</ele>
        <time>2026-03-20T13:07:55Z</time>
      </trkpt>
      <trkpt lat="48.616" lon="2.02793">
        <ele>115.6</ele>
        <time>2026-03-20T13:07:56Z</time>
      </trkpt>
      <trkpt lat="48.61603" lon="2.02798">
        <ele>115.6</ele>
        <time>2026-03-20T13:07:57Z</time>
      </trkpt>
      <trkpt lat="48.61606" lon="2.02802">
        <ele>115.6</ele>
        <time>2026-03-20T13:07:58Z</time>
      </trkpt>
      <trkpt lat="48.61609" lon="2.02807">
        <ele>115.6</ele>
        <time>2026-03-20T13:07:59Z</time>
      </trkpt>
      <trkpt lat="48.61612" lon="2.02811">
        <ele>115.6</ele>
        <time>2026-03-20T13:08:00Z</time>
      </trkpt>
      <trkpt lat="48.61615" lon="2.02815">
        <ele>115.6</ele>
        <time>2026-03-20T13:08:01Z</time>
      </trkpt>
      <trkpt lat="48.61618" lon="2.02819">
        <ele>115.6</ele>
        <time>2026-03-20T13:08:02Z</time>
      </trkpt>
      <trkpt lat="48.61621" lon="2.02824">
        <ele>116</ele>
        <time>2026-03-20T13:08:03Z</time>
      </trkpt>
      <trkpt lat="48.61623" lon="2.02828">
        <ele>116.2</ele>
        <time>2026-03-20T13:08:04Z</time>
      </trkpt>
      <trkpt lat="48.61626" lon="2.02833">
        <ele>116.2</ele>
        <time>2026-03-20T13:08:05Z</time>
      </trkpt>
      <trkpt lat="48.61629" lon="2.02837">
        <ele>116.2</ele>
        <time>2026-03-20T13:08:06Z</time>
      </trkpt>
      <trkpt lat="48.61632" lon="2.02841">
        <ele>116.6</ele>
        <time>2026-03-20T13:08:07Z</time>
      </trkpt>
      <trkpt lat="48.61635" lon="2.02846">
        <ele>116.8</ele>
        <time>2026-03-20T13:08:08Z</time>
      </trkpt>
      <trkpt lat="48.61638" lon="2.0285">
        <ele>116.8</ele>
        <time>2026-03-20T13:08:09Z</time>
      </trkpt>
      <trkpt lat="48.6164" lon="2.02855">
        <ele>116.8</ele>
        <time>2026-03-20T13:08:10Z</time>
      </trkpt>
      <trkpt lat="48.61643" lon="2.02859">
        <ele>116.8</ele>
        <time>2026-03-20T13:08:11Z</time>
      </trkpt>
      <trkpt lat="48.61646" lon="2.02863">
        <ele>116.8</ele>
        <time>2026-03-20T13:08:12Z</time>
      </trkpt>
      <trkpt lat="48.61649" lon="2.02868">
        <ele>116.8</ele>
        <time>2026-03-20T13:08:13Z</time>
      </trkpt>
      <trkpt lat="48.61652" lon="2.02872">
        <ele>116.8</ele>
        <time>2026-03-20T13:08:14Z</time>
      </trkpt>
      <trkpt lat="48.61655" lon="2.02876">
        <ele>116.8</ele>
        <time>2026-03-20T13:08:15Z</time>
      </trkpt>
      <trkpt lat="48.61658" lon="2.0288">
        <ele>117.4</ele>
        <time>2026-03-20T13:08:16Z</time>
      </trkpt>
      <trkpt lat="48.61661" lon="2.02884">
        <ele>117.4</ele>
        <time>2026-03-20T13:08:17Z</time>
      </trkpt>
      <trkpt lat="48.61664" lon="2.02888">
        <ele>117.4</ele>
        <time>2026-03-20T13:08:18Z</time>
      </trkpt>
      <trkpt lat="48.61668" lon="2.02892">
        <ele>117.4</ele>
        <time>2026-03-20T13:08:19Z</time>
      </trkpt>
      <trkpt lat="48.61671" lon="2.02895">
        <ele>117.8</ele>
        <time>2026-03-20T13:08:20Z</time>
      </trkpt>
      <trkpt lat="48.61674" lon="2.02898">
        <ele>117.8</ele>
        <time>2026-03-20T13:08:21Z</time>
      </trkpt>
      <trkpt lat="48.61678" lon="2.02901">
        <ele>117.8</ele>
        <time>2026-03-20T13:08:22Z</time>
      </trkpt>
      <trkpt lat="48.61681" lon="2.02903">
        <ele>117</ele>
        <time>2026-03-20T13:08:23Z</time>
      </trkpt>
      <trkpt lat="48.61685" lon="2.02905">
        <ele>117.4</ele>
        <time>2026-03-20T13:08:24Z</time>
      </trkpt>
      <trkpt lat="48.61688" lon="2.02908">
        <ele>117.4</ele>
        <time>2026-03-20T13:08:25Z</time>
      </trkpt>
      <trkpt lat="48.61692" lon="2.0291">
        <ele>117.4</ele>
        <time>2026-03-20T13:08:26Z</time>
      </trkpt>
      <trkpt lat="48.61695" lon="2.02912">
        <ele>117.6</ele>
        <time>2026-03-20T13:08:27Z</time>
      </trkpt>
      <trkpt lat="48.61699" lon="2.02915">
        <ele>118.8</ele>
        <time>2026-03-20T13:08:28Z</time>
      </trkpt>
      <trkpt lat="48.61702" lon="2.02917">
        <ele>118.8</ele>
        <time>2026-03-20T13:08:29Z</time>
      </trkpt>
      <trkpt lat="48.61705" lon="2.0292">
        <ele>118.8</ele>
        <time>2026-03-20T13:08:30Z</time>
      </trkpt>
      <trkpt lat="48.61708" lon="2.02922">
        <ele>118.2</ele>
        <time>2026-03-20T13:08:31Z</time>
      </trkpt>
      <trkpt lat="48.61711" lon="2.02924">
        <ele>118.4</ele>
        <time>2026-03-20T13:08:32Z</time>
      </trkpt>
      <trkpt lat="48.61714" lon="2.02926">
        <ele>118.4</ele>
        <time>2026-03-20T13:08:33Z</time>
      </trkpt>
      <trkpt lat="48.61717" lon="2.02929">
        <ele>118.4</ele>
        <time>2026-03-20T13:08:34Z</time>
      </trkpt>
      <trkpt lat="48.61719" lon="2.02933">
        <ele>118.4</ele>
        <time>2026-03-20T13:08:35Z</time>
      </trkpt>
      <trkpt lat="48.6172" lon="2.02938">
        <ele>118.4</ele>
        <time>2026-03-20T13:08:36Z</time>
      </trkpt>
      <trkpt lat="48.6172" lon="2.02943">
        <ele>118.4</ele>
        <time>2026-03-20T13:08:37Z</time>
      </trkpt>
      <trkpt lat="48.6172" lon="2.02948">
        <ele>118.4</ele>
        <time>2026-03-20T13:08:38Z</time>
      </trkpt>
      <trkpt lat="48.6172" lon="2.02953">
        <ele>119.4</ele>
        <time>2026-03-20T13:08:39Z</time>
      </trkpt>
      <trkpt lat="48.6172" lon="2.02958">
        <ele>119.4</ele>
        <time>2026-03-20T13:08:40Z</time>
      </trkpt>
      <trkpt lat="48.61721" lon="2.02963">
        <ele>119.4</ele>
        <time>2026-03-20T13:08:41Z</time>
      </trkpt>
      <trkpt lat="48.61721" lon="2.02968">
        <ele>119.4</ele>
        <time>2026-03-20T13:08:42Z</time>
      </trkpt>
      <trkpt lat="48.61721" lon="2.02973">
        <ele>119.4</ele>
        <time>2026-03-20T13:08:43Z</time>
      </trkpt>
      <trkpt lat="48.61722" lon="2.02977">
        <ele>120.4</ele>
        <time>2026-03-20T13:08:44Z</time>
      </trkpt>
      <trkpt lat="48.61722" lon="2.02982">
        <ele>120.4</ele>
        <time>2026-03-20T13:08:45Z</time>
      </trkpt>
      <trkpt lat="48.61722" lon="2.02987">
        <ele>120.4</ele>
        <time>2026-03-20T13:08:46Z</time>
      </trkpt>
      <trkpt lat="48.61722" lon="2.02992">
        <ele>119.8</ele>
        <time>2026-03-20T13:08:47Z</time>
      </trkpt>
      <trkpt lat="48.61722" lon="2.02998">
        <ele>120</ele>
        <time>2026-03-20T13:08:48Z</time>
      </trkpt>
      <trkpt lat="48.61722" lon="2.03003">
        <ele>120</ele>
        <time>2026-03-20T13:08:49Z</time>
      </trkpt>
      <trkpt lat="48.61722" lon="2.03009">
        <ele>120</ele>
        <time>2026-03-20T13:08:50Z</time>
      </trkpt>
      <trkpt lat="48.61722" lon="2.03015">
        <ele>120.6</ele>
        <time>2026-03-20T13:08:51Z</time>
      </trkpt>
      <trkpt lat="48.61721" lon="2.03022">
        <ele>120.6</ele>
        <time>2026-03-20T13:08:52Z</time>
      </trkpt>
      <trkpt lat="48.61721" lon="2.03028">
        <ele>120.6</ele>
        <time>2026-03-20T13:08:53Z</time>
      </trkpt>
      <trkpt lat="48.61721" lon="2.03034">
        <ele>120.6</ele>
        <time>2026-03-20T13:08:54Z</time>
      </trkpt>
      <trkpt lat="48.6172" lon="2.0304">
        <ele>120.6</ele>
        <time>2026-03-20T13:08:55Z</time>
      </trkpt>
      <trkpt lat="48.61721" lon="2.03046">
        <ele>120.2</ele>
        <time>2026-03-20T13:08:56Z</time>
      </trkpt>
      <trkpt lat="48.6172" lon="2.03051">
        <ele>120.2</ele>
        <time>2026-03-20T13:08:57Z</time>
      </trkpt>
      <trkpt lat="48.6172" lon="2.03057">
        <ele>120.2</ele>
        <time>2026-03-20T13:08:58Z</time>
      </trkpt>
      <trkpt lat="48.61719" lon="2.03064">
        <ele>120</ele>
        <time>2026-03-20T13:08:59Z</time>
      </trkpt>
      <trkpt lat="48.61719" lon="2.0307">
        <ele>120.6</ele>
        <time>2026-03-20T13:09:00Z</time>
      </trkpt>
      <trkpt lat="48.61718" lon="2.03077">
        <ele>120.6</ele>
        <time>2026-03-20T13:09:01Z</time>
      </trkpt>
      <trkpt lat="48.61717" lon="2.03084">
        <ele>120.6</ele>
        <time>2026-03-20T13:09:02Z</time>
      </trkpt>
      <trkpt lat="48.61717" lon="2.03091">
        <ele>119.6</ele>
        <time>2026-03-20T13:09:03Z</time>
      </trkpt>
      <trkpt lat="48.61716" lon="2.03098">
        <ele>119.4</ele>
        <time>2026-03-20T13:09:04Z</time>
      </trkpt>
      <trkpt lat="48.61715" lon="2.03105">
        <ele>119.4</ele>
        <time>2026-03-20T13:09:05Z</time>
      </trkpt>
      <trkpt lat="48.61715" lon="2.03112">
        <ele>119.4</ele>
        <time>2026-03-20T13:09:06Z</time>
      </trkpt>
      <trkpt lat="48.61714" lon="2.03119">
        <ele>119.4</ele>
        <time>2026-03-20T13:09:07Z</time>
      </trkpt>
      <trkpt lat="48.61713" lon="2.03125">
        <ele>119</ele>
        <time>2026-03-20T13:09:08Z</time>
      </trkpt>
      <trkpt lat="48.61712" lon="2.03132">
        <ele>119</ele>
        <time>2026-03-20T13:09:09Z</time>
      </trkpt>
      <trkpt lat="48.61711" lon="2.03139">
        <ele>119</ele>
        <time>2026-03-20T13:09:10Z</time>
      </trkpt>
      <trkpt lat="48.6171" lon="2.03146">
        <ele>118.6</ele>
        <time>2026-03-20T13:09:11Z</time>
      </trkpt>
      <trkpt lat="48.6171" lon="2.03153">
        <ele>118.8</ele>
        <time>2026-03-20T13:09:12Z</time>
      </trkpt>
      <trkpt lat="48.61709" lon="2.0316">
        <ele>118.8</ele>
        <time>2026-03-20T13:09:13Z</time>
      </trkpt>
      <trkpt lat="48.61708" lon="2.03167">
        <ele>118.8</ele>
        <time>2026-03-20T13:09:14Z</time>
      </trkpt>
      <trkpt lat="48.61707" lon="2.03174">
        <ele>118.8</ele>
        <time>2026-03-20T13:09:15Z</time>
      </trkpt>
      <trkpt lat="48.61705" lon="2.0318">
        <ele>119.2</ele>
        <time>2026-03-20T13:09:16Z</time>
      </trkpt>
      <trkpt lat="48.61704" lon="2.03187">
        <ele>119.2</ele>
        <time>2026-03-20T13:09:17Z</time>
      </trkpt>
      <trkpt lat="48.61702" lon="2.03194">
        <ele>119.2</ele>
        <time>2026-03-20T13:09:18Z</time>
      </trkpt>
      <trkpt lat="48.61701" lon="2.03201">
        <ele>119.2</ele>
        <time>2026-03-20T13:09:19Z</time>
      </trkpt>
      <trkpt lat="48.617" lon="2.03207">
        <ele>118.8</ele>
        <time>2026-03-20T13:09:20Z</time>
      </trkpt>
      <trkpt lat="48.61698" lon="2.03214">
        <ele>118.8</ele>
        <time>2026-03-20T13:09:21Z</time>
      </trkpt>
      <trkpt lat="48.61697" lon="2.0322">
        <ele>118.8</ele>
        <time>2026-03-20T13:09:22Z</time>
      </trkpt>
      <trkpt lat="48.61695" lon="2.03226">
        <ele>118.8</ele>
        <time>2026-03-20T13:09:23Z</time>
      </trkpt>
      <trkpt lat="48.61694" lon="2.03232">
        <ele>118.8</ele>
        <time>2026-03-20T13:09:24Z</time>
      </trkpt>
      <trkpt lat="48.61692" lon="2.03238">
        <ele>118.8</ele>
        <time>2026-03-20T13:09:25Z</time>
      </trkpt>
      <trkpt lat="48.6169" lon="2.03244">
        <ele>118.8</ele>
        <time>2026-03-20T13:09:26Z</time>
      </trkpt>
      <trkpt lat="48.61688" lon="2.0325">
        <ele>118.4</ele>
        <time>2026-03-20T13:09:27Z</time>
      </trkpt>
      <trkpt lat="48.61687" lon="2.03256">
        <ele>118.4</ele>
        <time>2026-03-20T13:09:28Z</time>
      </trkpt>
      <trkpt lat="48.61685" lon="2.03262">
        <ele>118.4</ele>
        <time>2026-03-20T13:09:29Z</time>
      </trkpt>
      <trkpt lat="48.61683" lon="2.03267">
        <ele>118.4</ele>
        <time>2026-03-20T13:09:30Z</time>
      </trkpt>
      <trkpt lat="48.61681" lon="2.03273">
        <ele>117.8</ele>
        <time>2026-03-20T13:09:31Z</time>
      </trkpt>
      <trkpt lat="48.61679" lon="2.03278">
        <ele>118.8</ele>
        <time>2026-03-20T13:09:32Z</time>
      </trkpt>
      <trkpt lat="48.61678" lon="2.03284">
        <ele>118.8</ele>
        <time>2026-03-20T13:09:33Z</time>
      </trkpt>
      <trkpt lat="48.61676" lon="2.03289">
        <ele>118.8</ele>
        <time>2026-03-20T13:09:34Z</time>
      </trkpt>
      <trkpt lat="48.61674" lon="2.03294">
        <ele>118.8</ele>
        <time>2026-03-20T13:09:35Z</time>
      </trkpt>
      <trkpt lat="48.61672" lon="2.03299">
        <ele>118.2</ele>
        <time>2026-03-20T13:09:36Z</time>
      </trkpt>
      <trkpt lat="48.61669" lon="2.03303">
        <ele>118.2</ele>
        <time>2026-03-20T13:09:37Z</time>
      </trkpt>
      <trkpt lat="48.61667" lon="2.03307">
        <ele>118.2</ele>
        <time>2026-03-20T13:09:38Z</time>
      </trkpt>
      <trkpt lat="48.61665" lon="2.03309">
        <ele>119.2</ele>
        <time>2026-03-20T13:09:39Z</time>
      </trkpt>
      <trkpt lat="48.61663" lon="2.03312">
        <ele>120.2</ele>
        <time>2026-03-20T13:09:40Z</time>
      </trkpt>
      <trkpt lat="48.61661" lon="2.03315">
        <ele>120.2</ele>
        <time>2026-03-20T13:09:41Z</time>
      </trkpt>
      <trkpt lat="48.6166" lon="2.03319">
        <ele>120.2</ele>
        <time>2026-03-20T13:09:42Z</time>
      </trkpt>
      <trkpt lat="48.61658" lon="2.03323">
        <ele>119.2</ele>
        <time>2026-03-20T13:09:43Z</time>
      </trkpt>
      <trkpt lat="48.61657" lon="2.03328">
        <ele>119</ele>
        <time>2026-03-20T13:09:44Z</time>
      </trkpt>
      <trkpt lat="48.61656" lon="2.03334">
        <ele>119</ele>
        <time>2026-03-20T13:09:45Z</time>
      </trkpt>
      <trkpt lat="48.61655" lon="2.0334">
        <ele>119</ele>
        <time>2026-03-20T13:09:46Z</time>
      </trkpt>
      <trkpt lat="48.61653" lon="2.03346">
        <ele>119.6</ele>
        <time>2026-03-20T13:09:47Z</time>
      </trkpt>
      <trkpt lat="48.61652" lon="2.03352">
        <ele>119.8</ele>
        <time>2026-03-20T13:09:48Z</time>
      </trkpt>
      <trkpt lat="48.6165" lon="2.03357">
        <ele>119.8</ele>
        <time>2026-03-20T13:09:49Z</time>
      </trkpt>
      <trkpt lat="48.61648" lon="2.03363">
        <ele>119.8</ele>
        <time>2026-03-20T13:09:50Z</time>
      </trkpt>
      <trkpt lat="48.61646" lon="2.03369">
        <ele>119.8</ele>
        <time>2026-03-20T13:09:51Z</time>
      </trkpt>
      <trkpt lat="48.61644" lon="2.03374">
        <ele>119.6</ele>
        <time>2026-03-20T13:09:52Z</time>
      </trkpt>
      <trkpt lat="48.61642" lon="2.03379">
        <ele>119.6</ele>
        <time>2026-03-20T13:09:53Z</time>
      </trkpt>
      <trkpt lat="48.61639" lon="2.03385">
        <ele>119.6</ele>
        <time>2026-03-20T13:09:54Z</time>
      </trkpt>
      <trkpt lat="48.61637" lon="2.0339">
        <ele>120</ele>
        <time>2026-03-20T13:09:55Z</time>
      </trkpt>
      <trkpt lat="48.61635" lon="2.03394">
        <ele>120.4</ele>
        <time>2026-03-20T13:09:56Z</time>
      </trkpt>
      <trkpt lat="48.61632" lon="2.034">
        <ele>120.4</ele>
        <time>2026-03-20T13:09:57Z</time>
      </trkpt>
      <trkpt lat="48.6163" lon="2.03405">
        <ele>120.4</ele>
        <time>2026-03-20T13:09:58Z</time>
      </trkpt>
      <trkpt lat="48.61628" lon="2.0341">
        <ele>120.4</ele>
        <time>2026-03-20T13:09:59Z</time>
      </trkpt>
      <trkpt lat="48.61626" lon="2.03415">
        <ele>120.8</ele>
        <time>2026-03-20T13:10:00Z</time>
      </trkpt>
      <trkpt lat="48.61624" lon="2.0342">
        <ele>120.8</ele>
        <time>2026-03-20T13:10:01Z</time>
      </trkpt>
      <trkpt lat="48.61622" lon="2.03425">
        <ele>120.8</ele>
        <time>2026-03-20T13:10:02Z</time>
      </trkpt>
      <trkpt lat="48.61619" lon="2.0343">
        <ele>120.6</ele>
        <time>2026-03-20T13:10:03Z</time>
      </trkpt>
      <trkpt lat="48.61617" lon="2.03435">
        <ele>120.4</ele>
        <time>2026-03-20T13:10:04Z</time>
      </trkpt>
      <trkpt lat="48.61615" lon="2.0344">
        <ele>120.4</ele>
        <time>2026-03-20T13:10:05Z</time>
      </trkpt>
      <trkpt lat="48.61613" lon="2.03445">
        <ele>120.4</ele>
        <time>2026-03-20T13:10:06Z</time>
      </trkpt>
      <trkpt lat="48.61611" lon="2.03451">
        <ele>120.4</ele>
        <time>2026-03-20T13:10:07Z</time>
      </trkpt>
      <trkpt lat="48.61609" lon="2.03455">
        <ele>120.4</ele>
        <time>2026-03-20T13:10:08Z</time>
      </trkpt>
      <trkpt lat="48.61607" lon="2.03461">
        <ele>120.4</ele>
        <time>2026-03-20T13:10:09Z</time>
      </trkpt>
      <trkpt lat="48.61605" lon="2.03467">
        <ele>120.4</ele>
        <time>2026-03-20T13:10:10Z</time>
      </trkpt>
      <trkpt lat="48.61603" lon="2.03473">
        <ele>120.4</ele>
        <time>2026-03-20T13:10:11Z</time>
      </trkpt>
      <trkpt lat="48.61601" lon="2.03479">
        <ele>120.2</ele>
        <time>2026-03-20T13:10:12Z</time>
      </trkpt>
      <trkpt lat="48.61599" lon="2.03484">
        <ele>120.2</ele>
        <time>2026-03-20T13:10:13Z</time>
      </trkpt>
      <trkpt lat="48.61597" lon="2.0349">
        <ele>120.2</ele>
        <time>2026-03-20T13:10:14Z</time>
      </trkpt>
      <trkpt lat="48.61595" lon="2.03496">
        <ele>119.6</ele>
        <time>2026-03-20T13:10:15Z</time>
      </trkpt>
      <trkpt lat="48.61592" lon="2.03503">
        <ele>119</ele>
        <time>2026-03-20T13:10:16Z</time>
      </trkpt>
      <trkpt lat="48.6159" lon="2.0351">
        <ele>119</ele>
        <time>2026-03-20T13:10:17Z</time>
      </trkpt>
      <trkpt lat="48.61587" lon="2.03517">
        <ele>119</ele>
        <time>2026-03-20T13:10:18Z</time>
      </trkpt>
      <trkpt lat="48.61584" lon="2.03524">
        <ele>118</ele>
        <time>2026-03-20T13:10:19Z</time>
      </trkpt>
      <trkpt lat="48.61582" lon="2.03531">
        <ele>117.6</ele>
        <time>2026-03-20T13:10:20Z</time>
      </trkpt>
      <trkpt lat="48.6158" lon="2.03537">
        <ele>117.6</ele>
        <time>2026-03-20T13:10:21Z</time>
      </trkpt>
      <trkpt lat="48.61577" lon="2.03544">
        <ele>117.6</ele>
        <time>2026-03-20T13:10:22Z</time>
      </trkpt>
      <trkpt lat="48.61574" lon="2.03551">
        <ele>117.6</ele>
        <time>2026-03-20T13:10:23Z</time>
      </trkpt>
      <trkpt lat="48.61572" lon="2.03558">
        <ele>116.2</ele>
        <time>2026-03-20T13:10:24Z</time>
      </trkpt>
      <trkpt lat="48.61569" lon="2.03565">
        <ele>116.2</ele>
        <time>2026-03-20T13:10:25Z</time>
      </trkpt>
      <trkpt lat="48.61566" lon="2.03573">
        <ele>116.2</ele>
        <time>2026-03-20T13:10:26Z</time>
      </trkpt>
      <trkpt lat="48.61563" lon="2.0358">
        <ele>116.8</ele>
        <time>2026-03-20T13:10:27Z</time>
      </trkpt>
      <trkpt lat="48.61561" lon="2.03588">
        <ele>116.2</ele>
        <time>2026-03-20T13:10:28Z</time>
      </trkpt>
      <trkpt lat="48.61558" lon="2.03596">
        <ele>116.2</ele>
        <time>2026-03-20T13:10:29Z</time>
      </trkpt>
      <trkpt lat="48.61555" lon="2.03603">
        <ele>116.2</ele>
        <time>2026-03-20T13:10:30Z</time>
      </trkpt>
      <trkpt lat="48.61552" lon="2.03611">
        <ele>116.2</ele>
        <time>2026-03-20T13:10:31Z</time>
      </trkpt>
      <trkpt lat="48.6155" lon="2.03619">
        <ele>115.6</ele>
        <time>2026-03-20T13:10:32Z</time>
      </trkpt>
      <trkpt lat="48.61547" lon="2.03626">
        <ele>115.6</ele>
        <time>2026-03-20T13:10:33Z</time>
      </trkpt>
      <trkpt lat="48.61544" lon="2.03633">
        <ele>115.6</ele>
        <time>2026-03-20T13:10:34Z</time>
      </trkpt>
      <trkpt lat="48.61541" lon="2.03639">
        <ele>115.6</ele>
        <time>2026-03-20T13:10:35Z</time>
      </trkpt>
      <trkpt lat="48.61538" lon="2.03645">
        <ele>116.2</ele>
        <time>2026-03-20T13:10:36Z</time>
      </trkpt>
      <trkpt lat="48.61536" lon="2.03652">
        <ele>116.2</ele>
        <time>2026-03-20T13:10:37Z</time>
      </trkpt>
      <trkpt lat="48.61533" lon="2.0366">
        <ele>116.2</ele>
        <time>2026-03-20T13:10:38Z</time>
      </trkpt>
      <trkpt lat="48.6153" lon="2.03666">
        <ele>116</ele>
        <time>2026-03-20T13:10:39Z</time>
      </trkpt>
      <trkpt lat="48.61527" lon="2.03673">
        <ele>116.8</ele>
        <time>2026-03-20T13:10:40Z</time>
      </trkpt>
      <trkpt lat="48.61525" lon="2.0368">
        <ele>116.8</ele>
        <time>2026-03-20T13:10:41Z</time>
      </trkpt>
      <trkpt lat="48.61522" lon="2.03688">
        <ele>116.8</ele>
        <time>2026-03-20T13:10:42Z</time>
      </trkpt>
      <trkpt lat="48.61519" lon="2.03696">
        <ele>116</ele>
        <time>2026-03-20T13:10:43Z</time>
      </trkpt>
      <trkpt lat="48.61516" lon="2.03704">
        <ele>116.2</ele>
        <time>2026-03-20T13:10:44Z</time>
      </trkpt>
      <trkpt lat="48.61513" lon="2.03713">
        <ele>116.2</ele>
        <time>2026-03-20T13:10:45Z</time>
      </trkpt>
      <trkpt lat="48.6151" lon="2.0372">
        <ele>116.2</ele>
        <time>2026-03-20T13:10:46Z</time>
      </trkpt>
      <trkpt lat="48.61507" lon="2.03729">
        <ele>115.8</ele>
        <time>2026-03-20T13:10:47Z</time>
      </trkpt>
      <trkpt lat="48.61505" lon="2.03737">
        <ele>116</ele>
        <time>2026-03-20T13:10:48Z</time>
      </trkpt>
      <trkpt lat="48.61502" lon="2.03745">
        <ele>116</ele>
        <time>2026-03-20T13:10:49Z</time>
      </trkpt>
      <trkpt lat="48.61499" lon="2.03754">
        <ele>116</ele>
        <time>2026-03-20T13:10:50Z</time>
      </trkpt>
      <trkpt lat="48.61496" lon="2.03762">
        <ele>115.2</ele>
        <time>2026-03-20T13:10:51Z</time>
      </trkpt>
      <trkpt lat="48.61493" lon="2.0377">
        <ele>115</ele>
        <time>2026-03-20T13:10:52Z</time>
      </trkpt>
      <trkpt lat="48.6149" lon="2.03779">
        <ele>115</ele>
        <time>2026-03-20T13:10:53Z</time>
      </trkpt>
      <trkpt lat="48.61487" lon="2.03787">
        <ele>115</ele>
        <time>2026-03-20T13:10:54Z</time>
      </trkpt>
      <trkpt lat="48.61484" lon="2.03795">
        <ele>115</ele>
        <time>2026-03-20T13:10:55Z</time>
      </trkpt>
      <trkpt lat="48.61481" lon="2.03804">
        <ele>115</ele>
        <time>2026-03-20T13:10:56Z</time>
      </trkpt>
      <trkpt lat="48.61479" lon="2.03812">
        <ele>115</ele>
        <time>2026-03-20T13:10:57Z</time>
      </trkpt>
      <trkpt lat="48.61476" lon="2.03821">
        <ele>115</ele>
        <time>2026-03-20T13:10:58Z</time>
      </trkpt>
      <trkpt lat="48.61473" lon="2.03829">
        <ele>114</ele>
        <time>2026-03-20T13:10:59Z</time>
      </trkpt>
      <trkpt lat="48.6147" lon="2.03838">
        <ele>113.6</ele>
        <time>2026-03-20T13:11:00Z</time>
      </trkpt>
      <trkpt lat="48.61467" lon="2.03847">
        <ele>113.6</ele>
        <time>2026-03-20T13:11:01Z</time>
      </trkpt>
      <trkpt lat="48.61464" lon="2.03856">
        <ele>113.6</ele>
        <time>2026-03-20T13:11:02Z</time>
      </trkpt>
      <trkpt lat="48.61461" lon="2.03864">
        <ele>113.6</ele>
        <time>2026-03-20T13:11:03Z</time>
      </trkpt>
      <trkpt lat="48.61459" lon="2.03872">
        <ele>114.4</ele>
        <time>2026-03-20T13:11:04Z</time>
      </trkpt>
      <trkpt lat="48.61456" lon="2.0388">
        <ele>114.4</ele>
        <time>2026-03-20T13:11:05Z</time>
      </trkpt>
      <trkpt lat="48.61454" lon="2.03888">
        <ele>114.4</ele>
        <time>2026-03-20T13:11:06Z</time>
      </trkpt>
      <trkpt lat="48.61451" lon="2.03895">
        <ele>114.2</ele>
        <time>2026-03-20T13:11:07Z</time>
      </trkpt>
      <trkpt lat="48.61449" lon="2.03902">
        <ele>114.4</ele>
        <time>2026-03-20T13:11:08Z</time>
      </trkpt>
      <trkpt lat="48.61447" lon="2.03909">
        <ele>114.4</ele>
        <time>2026-03-20T13:11:09Z</time>
      </trkpt>
      <trkpt lat="48.61445" lon="2.03917">
        <ele>114.4</ele>
        <time>2026-03-20T13:11:10Z</time>
      </trkpt>
      <trkpt lat="48.61442" lon="2.03925">
        <ele>114</ele>
        <time>2026-03-20T13:11:11Z</time>
      </trkpt>
      <trkpt lat="48.6144" lon="2.03932">
        <ele>114.2</ele>
        <time>2026-03-20T13:11:12Z</time>
      </trkpt>
      <trkpt lat="48.61438" lon="2.0394">
        <ele>114.2</ele>
        <time>2026-03-20T13:11:13Z</time>
      </trkpt>
      <trkpt lat="48.61435" lon="2.03948">
        <ele>114.2</ele>
        <time>2026-03-20T13:11:14Z</time>
      </trkpt>
      <trkpt lat="48.61433" lon="2.03955">
        <ele>114.2</ele>
        <time>2026-03-20T13:11:15Z</time>
      </trkpt>
      <trkpt lat="48.6143" lon="2.03963">
        <ele>113.2</ele>
        <time>2026-03-20T13:11:16Z</time>
      </trkpt>
      <trkpt lat="48.61428" lon="2.03971">
        <ele>113.2</ele>
        <time>2026-03-20T13:11:17Z</time>
      </trkpt>
      <trkpt lat="48.61425" lon="2.03978">
        <ele>113.2</ele>
        <time>2026-03-20T13:11:18Z</time>
      </trkpt>
      <trkpt lat="48.61423" lon="2.03986">
        <ele>114</ele>
        <time>2026-03-20T13:11:19Z</time>
      </trkpt>
      <trkpt lat="48.6142" lon="2.03993">
        <ele>114.2</ele>
        <time>2026-03-20T13:11:20Z</time>
      </trkpt>
      <trkpt lat="48.61417" lon="2.04001">
        <ele>114.2</ele>
        <time>2026-03-20T13:11:21Z</time>
      </trkpt>
      <trkpt lat="48.61414" lon="2.04009">
        <ele>114.2</ele>
        <time>2026-03-20T13:11:22Z</time>
      </trkpt>
      <trkpt lat="48.61412" lon="2.04016">
        <ele>114.2</ele>
        <time>2026-03-20T13:11:23Z</time>
      </trkpt>
      <trkpt lat="48.61409" lon="2.04024">
        <ele>112.8</ele>
        <time>2026-03-20T13:11:24Z</time>
      </trkpt>
      <trkpt lat="48.61406" lon="2.04031">
        <ele>112.8</ele>
        <time>2026-03-20T13:11:25Z</time>
      </trkpt>
      <trkpt lat="48.61403" lon="2.04039">
        <ele>112.8</ele>
        <time>2026-03-20T13:11:26Z</time>
      </trkpt>
      <trkpt lat="48.61401" lon="2.04047">
        <ele>113</ele>
        <time>2026-03-20T13:11:27Z</time>
      </trkpt>
      <trkpt lat="48.61398" lon="2.04054">
        <ele>113.4</ele>
        <time>2026-03-20T13:11:28Z</time>
      </trkpt>
      <trkpt lat="48.61395" lon="2.04061">
        <ele>113.4</ele>
        <time>2026-03-20T13:11:29Z</time>
      </trkpt>
      <trkpt lat="48.61392" lon="2.04069">
        <ele>113.4</ele>
        <time>2026-03-20T13:11:30Z</time>
      </trkpt>
      <trkpt lat="48.61389" lon="2.04076">
        <ele>113.4</ele>
        <time>2026-03-20T13:11:31Z</time>
      </trkpt>
      <trkpt lat="48.61386" lon="2.04084">
        <ele>114.2</ele>
        <time>2026-03-20T13:11:32Z</time>
      </trkpt>
      <trkpt lat="48.61384" lon="2.04091">
        <ele>114.2</ele>
        <time>2026-03-20T13:11:33Z</time>
      </trkpt>
      <trkpt lat="48.61381" lon="2.04099">
        <ele>114.2</ele>
        <time>2026-03-20T13:11:34Z</time>
      </trkpt>
      <trkpt lat="48.61378" lon="2.04107">
        <ele>114.2</ele>
        <time>2026-03-20T13:11:35Z</time>
      </trkpt>
      <trkpt lat="48.61375" lon="2.04114">
        <ele>113.2</ele>
        <time>2026-03-20T13:11:36Z</time>
      </trkpt>
      <trkpt lat="48.61372" lon="2.04122">
        <ele>113.2</ele>
        <time>2026-03-20T13:11:37Z</time>
      </trkpt>
      <trkpt lat="48.6137" lon="2.04129">
        <ele>113.2</ele>
        <time>2026-03-20T13:11:38Z</time>
      </trkpt>
      <trkpt lat="48.61367" lon="2.04136">
        <ele>113.2</ele>
        <time>2026-03-20T13:11:39Z</time>
      </trkpt>
      <trkpt lat="48.61365" lon="2.04142">
        <ele>113</ele>
        <time>2026-03-20T13:11:40Z</time>
      </trkpt>
      <trkpt lat="48.61362" lon="2.04148">
        <ele>113</ele>
        <time>2026-03-20T13:11:41Z</time>
      </trkpt>
      <trkpt lat="48.6136" lon="2.04155">
        <ele>113</ele>
        <time>2026-03-20T13:11:42Z</time>
      </trkpt>
      <trkpt lat="48.61357" lon="2.04161">
        <ele>113</ele>
        <time>2026-03-20T13:11:43Z</time>
      </trkpt>
      <trkpt lat="48.61354" lon="2.04168">
        <ele>113.6</ele>
        <time>2026-03-20T13:11:44Z</time>
      </trkpt>
      <trkpt lat="48.61352" lon="2.04174">
        <ele>113.6</ele>
        <time>2026-03-20T13:11:45Z</time>
      </trkpt>
      <trkpt lat="48.61349" lon="2.04181">
        <ele>113.6</ele>
        <time>2026-03-20T13:11:46Z</time>
      </trkpt>
      <trkpt lat="48.61346" lon="2.04187">
        <ele>113.6</ele>
        <time>2026-03-20T13:11:47Z</time>
      </trkpt>
      <trkpt lat="48.61343" lon="2.04194">
        <ele>113.4</ele>
        <time>2026-03-20T13:11:48Z</time>
      </trkpt>
      <trkpt lat="48.61341" lon="2.04201">
        <ele>113.4</ele>
        <time>2026-03-20T13:11:49Z</time>
      </trkpt>
      <trkpt lat="48.61338" lon="2.04207">
        <ele>113.4</ele>
        <time>2026-03-20T13:11:50Z</time>
      </trkpt>
      <trkpt lat="48.61335" lon="2.04212">
        <ele>114.2</ele>
        <time>2026-03-20T13:11:51Z</time>
      </trkpt>
      <trkpt lat="48.61332" lon="2.04218">
        <ele>114.4</ele>
        <time>2026-03-20T13:11:52Z</time>
      </trkpt>
      <trkpt lat="48.61329" lon="2.04223">
        <ele>114.4</ele>
        <time>2026-03-20T13:11:53Z</time>
      </trkpt>
      <trkpt lat="48.61326" lon="2.04228">
        <ele>114.4</ele>
        <time>2026-03-20T13:11:54Z</time>
      </trkpt>
      <trkpt lat="48.61323" lon="2.04232">
        <ele>114.4</ele>
        <time>2026-03-20T13:11:55Z</time>
      </trkpt>
      <trkpt lat="48.6132" lon="2.04237">
        <ele>116</ele>
        <time>2026-03-20T13:11:56Z</time>
      </trkpt>
      <trkpt lat="48.61316" lon="2.04243">
        <ele>116</ele>
        <time>2026-03-20T13:11:57Z</time>
      </trkpt>
      <trkpt lat="48.61313" lon="2.04248">
        <ele>116</ele>
        <time>2026-03-20T13:11:58Z</time>
      </trkpt>
      <trkpt lat="48.61309" lon="2.04252">
        <ele>115.2</ele>
        <time>2026-03-20T13:11:59Z</time>
      </trkpt>
      <trkpt lat="48.61306" lon="2.04258">
        <ele>116</ele>
        <time>2026-03-20T13:12:00Z</time>
      </trkpt>
      <trkpt lat="48.61303" lon="2.04261">
        <ele>116</ele>
        <time>2026-03-20T13:12:01Z</time>
      </trkpt>
      <trkpt lat="48.61301" lon="2.04266">
        <ele>116</ele>
        <time>2026-03-20T13:12:02Z</time>
      </trkpt>
      <trkpt lat="48.61298" lon="2.04271">
        <ele>116</ele>
        <time>2026-03-20T13:12:03Z</time>
      </trkpt>
      <trkpt lat="48.61295" lon="2.04276">
        <ele>116.2</ele>
        <time>2026-03-20T13:12:04Z</time>
      </trkpt>
      <trkpt lat="48.61292" lon="2.04279">
        <ele>116.2</ele>
        <time>2026-03-20T13:12:05Z</time>
      </trkpt>
      <trkpt lat="48.6129" lon="2.04283">
        <ele>116.2</ele>
        <time>2026-03-20T13:12:06Z</time>
      </trkpt>
      <trkpt lat="48.61287" lon="2.04286">
        <ele>117.2</ele>
        <time>2026-03-20T13:12:07Z</time>
      </trkpt>
      <trkpt lat="48.61286" lon="2.04289">
        <ele>117.6</ele>
        <time>2026-03-20T13:12:08Z</time>
      </trkpt>
      <trkpt lat="48.61283" lon="2.04292">
        <ele>117.6</ele>
        <time>2026-03-20T13:12:09Z</time>
      </trkpt>
      <trkpt lat="48.61281" lon="2.04296">
        <ele>117.6</ele>
        <time>2026-03-20T13:12:10Z</time>
      </trkpt>
      <trkpt lat="48.61278" lon="2.04301">
        <ele>117.8</ele>
        <time>2026-03-20T13:12:11Z</time>
      </trkpt>
      <trkpt lat="48.61275" lon="2.04304">
        <ele>118.4</ele>
        <time>2026-03-20T13:12:12Z</time>
      </trkpt>
      <trkpt lat="48.61272" lon="2.04309">
        <ele>118.4</ele>
        <time>2026-03-20T13:12:13Z</time>
      </trkpt>
      <trkpt lat="48.6127" lon="2.04314">
        <ele>118.4</ele>
        <time>2026-03-20T13:12:14Z</time>
      </trkpt>
      <trkpt lat="48.61268" lon="2.04317">
        <ele>119.2</ele>
        <time>2026-03-20T13:12:15Z</time>
      </trkpt>
      <trkpt lat="48.61265" lon="2.04321">
        <ele>119.4</ele>
        <time>2026-03-20T13:12:16Z</time>
      </trkpt>
      <trkpt lat="48.61263" lon="2.04324">
        <ele>119.4</ele>
        <time>2026-03-20T13:12:17Z</time>
      </trkpt>
      <trkpt lat="48.6126" lon="2.04328">
        <ele>119.4</ele>
        <time>2026-03-20T13:12:18Z</time>
      </trkpt>
      <trkpt lat="48.61258" lon="2.0433">
        <ele>119.6</ele>
        <time>2026-03-20T13:12:19Z</time>
      </trkpt>
      <trkpt lat="48.61255" lon="2.04334">
        <ele>120.2</ele>
        <time>2026-03-20T13:12:20Z</time>
      </trkpt>
      <trkpt lat="48.61253" lon="2.04339">
        <ele>120.2</ele>
        <time>2026-03-20T13:12:21Z</time>
      </trkpt>
      <trkpt lat="48.61251" lon="2.04342">
        <ele>120.2</ele>
        <time>2026-03-20T13:12:22Z</time>
      </trkpt>
      <trkpt lat="48.61248" lon="2.04346">
        <ele>120.6</ele>
        <time>2026-03-20T13:12:23Z</time>
      </trkpt>
      <trkpt lat="48.61246" lon="2.0435">
        <ele>120.4</ele>
        <time>2026-03-20T13:12:24Z</time>
      </trkpt>
      <trkpt lat="48.61244" lon="2.04352">
        <ele>120.4</ele>
        <time>2026-03-20T13:12:25Z</time>
      </trkpt>
      <trkpt lat="48.61242" lon="2.04356">
        <ele>120.4</ele>
        <time>2026-03-20T13:12:26Z</time>
      </trkpt>
      <trkpt lat="48.61239" lon="2.04359">
        <ele>121.2</ele>
        <time>2026-03-20T13:12:27Z</time>
      </trkpt>
      <trkpt lat="48.61237" lon="2.04361">
        <ele>121.4</ele>
        <time>2026-03-20T13:12:28Z</time>
      </trkpt>
      <trkpt lat="48.61234" lon="2.04366">
        <ele>121.4</ele>
        <time>2026-03-20T13:12:29Z</time>
      </trkpt>
      <trkpt lat="48.61231" lon="2.04372">
        <ele>121.4</ele>
        <time>2026-03-20T13:12:30Z</time>
      </trkpt>
      <trkpt lat="48.61228" lon="2.04376">
        <ele>121.4</ele>
        <time>2026-03-20T13:12:31Z</time>
      </trkpt>
      <trkpt lat="48.61225" lon="2.04382">
        <ele>121.6</ele>
        <time>2026-03-20T13:12:32Z</time>
      </trkpt>
      <trkpt lat="48.61222" lon="2.04387">
        <ele>121.6</ele>
        <time>2026-03-20T13:12:33Z</time>
      </trkpt>
      <trkpt lat="48.6122" lon="2.04391">
        <ele>121.6</ele>
        <time>2026-03-20T13:12:34Z</time>
      </trkpt>
      <trkpt lat="48.61217" lon="2.04397">
        <ele>122.4</ele>
        <time>2026-03-20T13:12:35Z</time>
      </trkpt>
      <trkpt lat="48.61214" lon="2.04401">
        <ele>122.6</ele>
        <time>2026-03-20T13:12:36Z</time>
      </trkpt>
      <trkpt lat="48.61211" lon="2.04407">
        <ele>122.6</ele>
        <time>2026-03-20T13:12:37Z</time>
      </trkpt>
      <trkpt lat="48.61209" lon="2.04411">
        <ele>122.6</ele>
        <time>2026-03-20T13:12:38Z</time>
      </trkpt>
      <trkpt lat="48.61206" lon="2.04416">
        <ele>123</ele>
        <time>2026-03-20T13:12:39Z</time>
      </trkpt>
      <trkpt lat="48.61203" lon="2.04418">
        <ele>123.2</ele>
        <time>2026-03-20T13:12:40Z</time>
      </trkpt>
      <trkpt lat="48.612" lon="2.04422">
        <ele>123.2</ele>
        <time>2026-03-20T13:12:41Z</time>
      </trkpt>
      <trkpt lat="48.61198" lon="2.04426">
        <ele>123.2</ele>
        <time>2026-03-20T13:12:42Z</time>
      </trkpt>
      <trkpt lat="48.61195" lon="2.04431">
        <ele>123.2</ele>
        <time>2026-03-20T13:12:43Z</time>
      </trkpt>
      <trkpt lat="48.61192" lon="2.04434">
        <ele>123.4</ele>
        <time>2026-03-20T13:12:44Z</time>
      </trkpt>
      <trkpt lat="48.6119" lon="2.04437">
        <ele>123.4</ele>
        <time>2026-03-20T13:12:45Z</time>
      </trkpt>
      <trkpt lat="48.61187" lon="2.04441">
        <ele>123.4</ele>
        <time>2026-03-20T13:12:46Z</time>
      </trkpt>
      <trkpt lat="48.61184" lon="2.04445">
        <ele>124.2</ele>
        <time>2026-03-20T13:12:47Z</time>
      </trkpt>
      <trkpt lat="48.61182" lon="2.04448">
        <ele>124.4</ele>
        <time>2026-03-20T13:12:48Z</time>
      </trkpt>
      <trkpt lat="48.61179" lon="2.04453">
        <ele>124.4</ele>
        <time>2026-03-20T13:12:49Z</time>
      </trkpt>
      <trkpt lat="48.61177" lon="2.04458">
        <ele>124.4</ele>
        <time>2026-03-20T13:12:50Z</time>
      </trkpt>
      <trkpt lat="48.61175" lon="2.04462">
        <ele>124.4</ele>
        <time>2026-03-20T13:12:51Z</time>
      </trkpt>
      <trkpt lat="48.61172" lon="2.04466">
        <ele>124.8</ele>
        <time>2026-03-20T13:12:52Z</time>
      </trkpt>
      <trkpt lat="48.6117" lon="2.0447">
        <ele>124.8</ele>
        <time>2026-03-20T13:12:53Z</time>
      </trkpt>
      <trkpt lat="48.61167" lon="2.04474">
        <ele>124.8</ele>
        <time>2026-03-20T13:12:54Z</time>
      </trkpt>
      <trkpt lat="48.61165" lon="2.04477">
        <ele>125.4</ele>
        <time>2026-03-20T13:12:55Z</time>
      </trkpt>
      <trkpt lat="48.61163" lon="2.04481">
        <ele>126</ele>
        <time>2026-03-20T13:12:56Z</time>
      </trkpt>
      <trkpt lat="48.6116" lon="2.04486">
        <ele>126</ele>
        <time>2026-03-20T13:12:57Z</time>
      </trkpt>
      <trkpt lat="48.61158" lon="2.0449">
        <ele>126</ele>
        <time>2026-03-20T13:12:58Z</time>
      </trkpt>
      <trkpt lat="48.61156" lon="2.04494">
        <ele>126</ele>
        <time>2026-03-20T13:12:59Z</time>
      </trkpt>
      <trkpt lat="48.61154" lon="2.04498">
        <ele>126.2</ele>
        <time>2026-03-20T13:13:00Z</time>
      </trkpt>
      <trkpt lat="48.61151" lon="2.04502">
        <ele>126.2</ele>
        <time>2026-03-20T13:13:01Z</time>
      </trkpt>
      <trkpt lat="48.61149" lon="2.04506">
        <ele>126.2</ele>
        <time>2026-03-20T13:13:02Z</time>
      </trkpt>
      <trkpt lat="48.61146" lon="2.04511">
        <ele>126.6</ele>
        <time>2026-03-20T13:13:03Z</time>
      </trkpt>
      <trkpt lat="48.61144" lon="2.04515">
        <ele>126.6</ele>
        <time>2026-03-20T13:13:04Z</time>
      </trkpt>
      <trkpt lat="48.61142" lon="2.04518">
        <ele>126.6</ele>
        <time>2026-03-20T13:13:05Z</time>
      </trkpt>
      <trkpt lat="48.61139" lon="2.04522">
        <ele>126.6</ele>
        <time>2026-03-20T13:13:06Z</time>
      </trkpt>
      <trkpt lat="48.61137" lon="2.04526">
        <ele>127.4</ele>
        <time>2026-03-20T13:13:07Z</time>
      </trkpt>
      <trkpt lat="48.61134" lon="2.0453">
        <ele>127.4</ele>
        <time>2026-03-20T13:13:08Z</time>
      </trkpt>
      <trkpt lat="48.61132" lon="2.04534">
        <ele>127.4</ele>
        <time>2026-03-20T13:13:09Z</time>
      </trkpt>
      <trkpt lat="48.61129" lon="2.04537">
        <ele>127.4</ele>
        <time>2026-03-20T13:13:10Z</time>
      </trkpt>
      <trkpt lat="48.61127" lon="2.04541">
        <ele>127.4</ele>
        <time>2026-03-20T13:13:11Z</time>
      </trkpt>
      <trkpt lat="48.61125" lon="2.04544">
        <ele>128</ele>
        <time>2026-03-20T13:13:12Z</time>
      </trkpt>
      <trkpt lat="48.61123" lon="2.04548">
        <ele>128</ele>
        <time>2026-03-20T13:13:13Z</time>
      </trkpt>
      <trkpt lat="48.61121" lon="2.04552">
        <ele>128</ele>
        <time>2026-03-20T13:13:14Z</time>
      </trkpt>
      <trkpt lat="48.61118" lon="2.04556">
        <ele>128</ele>
        <time>2026-03-20T13:13:15Z</time>
      </trkpt>
      <trkpt lat="48.61115" lon="2.0456">
        <ele>127.6</ele>
        <time>2026-03-20T13:13:16Z</time>
      </trkpt>
      <trkpt lat="48.61113" lon="2.04564">
        <ele>127.6</ele>
        <time>2026-03-20T13:13:17Z</time>
      </trkpt>
      <trkpt lat="48.6111" lon="2.04568">
        <ele>127.6</ele>
        <time>2026-03-20T13:13:18Z</time>
      </trkpt>
      <trkpt lat="48.61108" lon="2.04572">
        <ele>128.6</ele>
        <time>2026-03-20T13:13:19Z</time>
      </trkpt>
      <trkpt lat="48.61105" lon="2.04578">
        <ele>128.8</ele>
        <time>2026-03-20T13:13:20Z</time>
      </trkpt>
      <trkpt lat="48.61103" lon="2.04583">
        <ele>128.8</ele>
        <time>2026-03-20T13:13:21Z</time>
      </trkpt>
      <trkpt lat="48.611" lon="2.04588">
        <ele>128.8</ele>
        <time>2026-03-20T13:13:22Z</time>
      </trkpt>
      <trkpt lat="48.61098" lon="2.04593">
        <ele>129.4</ele>
        <time>2026-03-20T13:13:23Z</time>
      </trkpt>
      <trkpt lat="48.61096" lon="2.04599">
        <ele>129.6</ele>
        <time>2026-03-20T13:13:24Z</time>
      </trkpt>
      <trkpt lat="48.61094" lon="2.04603">
        <ele>129.6</ele>
        <time>2026-03-20T13:13:25Z</time>
      </trkpt>
      <trkpt lat="48.61091" lon="2.04608">
        <ele>129.6</ele>
        <time>2026-03-20T13:13:26Z</time>
      </trkpt>
      <trkpt lat="48.61088" lon="2.04612">
        <ele>129.6</ele>
        <time>2026-03-20T13:13:27Z</time>
      </trkpt>
      <trkpt lat="48.61086" lon="2.04617">
        <ele>129.8</ele>
        <time>2026-03-20T13:13:28Z</time>
      </trkpt>
      <trkpt lat="48.61083" lon="2.04622">
        <ele>129.8</ele>
        <time>2026-03-20T13:13:29Z</time>
      </trkpt>
      <trkpt lat="48.6108" lon="2.04627">
        <ele>129.8</ele>
        <time>2026-03-20T13:13:30Z</time>
      </trkpt>
      <trkpt lat="48.61077" lon="2.04632">
        <ele>130.4</ele>
        <time>2026-03-20T13:13:31Z</time>
      </trkpt>
      <trkpt lat="48.61075" lon="2.04637">
        <ele>130.6</ele>
        <time>2026-03-20T13:13:32Z</time>
      </trkpt>
      <trkpt lat="48.61072" lon="2.04642">
        <ele>130.6</ele>
        <time>2026-03-20T13:13:33Z</time>
      </trkpt>
      <trkpt lat="48.61069" lon="2.04647">
        <ele>130.6</ele>
        <time>2026-03-20T13:13:34Z</time>
      </trkpt>
      <trkpt lat="48.61066" lon="2.04653">
        <ele>130.6</ele>
        <time>2026-03-20T13:13:35Z</time>
      </trkpt>
      <trkpt lat="48.61063" lon="2.04658">
        <ele>130.6</ele>
        <time>2026-03-20T13:13:36Z</time>
      </trkpt>
      <trkpt lat="48.61061" lon="2.04663">
        <ele>130.6</ele>
        <time>2026-03-20T13:13:37Z</time>
      </trkpt>
      <trkpt lat="48.61058" lon="2.04668">
        <ele>130.6</ele>
        <time>2026-03-20T13:13:38Z</time>
      </trkpt>
      <trkpt lat="48.61056" lon="2.04672">
        <ele>130.6</ele>
        <time>2026-03-20T13:13:39Z</time>
      </trkpt>
      <trkpt lat="48.61053" lon="2.04676">
        <ele>130.8</ele>
        <time>2026-03-20T13:13:40Z</time>
      </trkpt>
      <trkpt lat="48.61051" lon="2.0468">
        <ele>130.8</ele>
        <time>2026-03-20T13:13:41Z</time>
      </trkpt>
      <trkpt lat="48.61048" lon="2.04685">
        <ele>130.8</ele>
        <time>2026-03-20T13:13:42Z</time>
      </trkpt>
      <trkpt lat="48.61045" lon="2.04691">
        <ele>131.8</ele>
        <time>2026-03-20T13:13:43Z</time>
      </trkpt>
      <trkpt lat="48.61042" lon="2.04696">
        <ele>132.6</ele>
        <time>2026-03-20T13:13:44Z</time>
      </trkpt>
      <trkpt lat="48.6104" lon="2.04699">
        <ele>132.6</ele>
        <time>2026-03-20T13:13:45Z</time>
      </trkpt>
      <trkpt lat="48.61037" lon="2.04704">
        <ele>132.6</ele>
        <time>2026-03-20T13:13:46Z</time>
      </trkpt>
      <trkpt lat="48.61034" lon="2.04708">
        <ele>133.2</ele>
        <time>2026-03-20T13:13:47Z</time>
      </trkpt>
      <trkpt lat="48.61032" lon="2.04713">
        <ele>133.4</ele>
        <time>2026-03-20T13:13:48Z</time>
      </trkpt>
      <trkpt lat="48.61029" lon="2.04717">
        <ele>133.4</ele>
        <time>2026-03-20T13:13:49Z</time>
      </trkpt>
      <trkpt lat="48.61026" lon="2.04722">
        <ele>133.4</ele>
        <time>2026-03-20T13:13:50Z</time>
      </trkpt>
      <trkpt lat="48.61023" lon="2.04726">
        <ele>133.4</ele>
        <time>2026-03-20T13:13:51Z</time>
      </trkpt>
      <trkpt lat="48.6102" lon="2.04731">
        <ele>133.4</ele>
        <time>2026-03-20T13:13:52Z</time>
      </trkpt>
      <trkpt lat="48.61018" lon="2.04735">
        <ele>133.4</ele>
        <time>2026-03-20T13:13:53Z</time>
      </trkpt>
      <trkpt lat="48.61016" lon="2.04738">
        <ele>133.4</ele>
        <time>2026-03-20T13:13:54Z</time>
      </trkpt>
      <trkpt lat="48.61013" lon="2.04742">
        <ele>134</ele>
        <time>2026-03-20T13:13:55Z</time>
      </trkpt>
      <trkpt lat="48.61011" lon="2.04745">
        <ele>134</ele>
        <time>2026-03-20T13:13:56Z</time>
      </trkpt>
      <trkpt lat="48.61009" lon="2.0475">
        <ele>134</ele>
        <time>2026-03-20T13:13:57Z</time>
      </trkpt>
      <trkpt lat="48.61006" lon="2.04753">
        <ele>134</ele>
        <time>2026-03-20T13:13:58Z</time>
      </trkpt>
      <trkpt lat="48.61004" lon="2.04756">
        <ele>134.6</ele>
        <time>2026-03-20T13:13:59Z</time>
      </trkpt>
      <trkpt lat="48.61001" lon="2.04761">
        <ele>134.6</ele>
        <time>2026-03-20T13:14:00Z</time>
      </trkpt>
      <trkpt lat="48.60999" lon="2.04764">
        <ele>134.6</ele>
        <time>2026-03-20T13:14:01Z</time>
      </trkpt>
      <trkpt lat="48.60997" lon="2.04766">
        <ele>134.6</ele>
        <time>2026-03-20T13:14:02Z</time>
      </trkpt>
      <trkpt lat="48.60995" lon="2.0477">
        <ele>135.2</ele>
        <time>2026-03-20T13:14:03Z</time>
      </trkpt>
      <trkpt lat="48.60993" lon="2.04773">
        <ele>135.6</ele>
        <time>2026-03-20T13:14:04Z</time>
      </trkpt>
      <trkpt lat="48.6099" lon="2.04778">
        <ele>135.6</ele>
        <time>2026-03-20T13:14:05Z</time>
      </trkpt>
      <trkpt lat="48.60987" lon="2.04781">
        <ele>135.6</ele>
        <time>2026-03-20T13:14:06Z</time>
      </trkpt>
      <trkpt lat="48.60985" lon="2.04785">
        <ele>135.6</ele>
        <time>2026-03-20T13:14:07Z</time>
      </trkpt>
      <trkpt lat="48.60982" lon="2.04788">
        <ele>136.6</ele>
        <time>2026-03-20T13:14:08Z</time>
      </trkpt>
      <trkpt lat="48.6098" lon="2.04791">
        <ele>136.6</ele>
        <time>2026-03-20T13:14:09Z</time>
      </trkpt>
      <trkpt lat="48.60978" lon="2.04795">
        <ele>136.6</ele>
        <time>2026-03-20T13:14:10Z</time>
      </trkpt>
      <trkpt lat="48.60976" lon="2.04799">
        <ele>136.2</ele>
        <time>2026-03-20T13:14:11Z</time>
      </trkpt>
      <trkpt lat="48.60974" lon="2.04802">
        <ele>136.2</ele>
        <time>2026-03-20T13:14:12Z</time>
      </trkpt>
      <trkpt lat="48.60972" lon="2.04807">
        <ele>136.2</ele>
        <time>2026-03-20T13:14:13Z</time>
      </trkpt>
      <trkpt lat="48.60969" lon="2.04811">
        <ele>136.2</ele>
        <time>2026-03-20T13:14:14Z</time>
      </trkpt>
      <trkpt lat="48.60966" lon="2.04816">
        <ele>136.2</ele>
        <time>2026-03-20T13:14:15Z</time>
      </trkpt>
      <trkpt lat="48.60964" lon="2.04819">
        <ele>136.2</ele>
        <time>2026-03-20T13:14:16Z</time>
      </trkpt>
      <trkpt lat="48.60962" lon="2.04822">
        <ele>136.2</ele>
        <time>2026-03-20T13:14:17Z</time>
      </trkpt>
      <trkpt lat="48.60959" lon="2.04825">
        <ele>136.2</ele>
        <time>2026-03-20T13:14:18Z</time>
      </trkpt>
      <trkpt lat="48.60956" lon="2.0483">
        <ele>136.6</ele>
        <time>2026-03-20T13:14:19Z</time>
      </trkpt>
      <trkpt lat="48.60954" lon="2.04833">
        <ele>137</ele>
        <time>2026-03-20T13:14:20Z</time>
      </trkpt>
      <trkpt lat="48.60951" lon="2.04836">
        <ele>137</ele>
        <time>2026-03-20T13:14:21Z</time>
      </trkpt>
      <trkpt lat="48.60948" lon="2.04839">
        <ele>137</ele>
        <time>2026-03-20T13:14:22Z</time>
      </trkpt>
      <trkpt lat="48.60945" lon="2.04843">
        <ele>136.2</ele>
        <time>2026-03-20T13:14:23Z</time>
      </trkpt>
      <trkpt lat="48.60941" lon="2.04846">
        <ele>136.6</ele>
        <time>2026-03-20T13:14:24Z</time>
      </trkpt>
      <trkpt lat="48.60938" lon="2.04849">
        <ele>136.6</ele>
        <time>2026-03-20T13:14:25Z</time>
      </trkpt>
      <trkpt lat="48.60935" lon="2.04851">
        <ele>136.6</ele>
        <time>2026-03-20T13:14:26Z</time>
      </trkpt>
      <trkpt lat="48.60931" lon="2.04853">
        <ele>137.2</ele>
        <time>2026-03-20T13:14:27Z</time>
      </trkpt>
      <trkpt lat="48.60928" lon="2.04856">
        <ele>137.6</ele>
        <time>2026-03-20T13:14:28Z</time>
      </trkpt>
      <trkpt lat="48.60924" lon="2.04859">
        <ele>137.6</ele>
        <time>2026-03-20T13:14:29Z</time>
      </trkpt>
      <trkpt lat="48.60921" lon="2.04861">
        <ele>137.6</ele>
        <time>2026-03-20T13:14:30Z</time>
      </trkpt>
      <trkpt lat="48.60919" lon="2.04861">
        <ele>137.6</ele>
        <time>2026-03-20T13:14:31Z</time>
      </trkpt>
      <trkpt lat="48.60916" lon="2.04862">
        <ele>138.2</ele>
        <time>2026-03-20T13:14:32Z</time>
      </trkpt>
      <trkpt lat="48.60912" lon="2.04865">
        <ele>138.2</ele>
        <time>2026-03-20T13:14:33Z</time>
      </trkpt>
      <trkpt lat="48.60909" lon="2.04868">
        <ele>138.2</ele>
        <time>2026-03-20T13:14:34Z</time>
      </trkpt>
      <trkpt lat="48.60905" lon="2.0487">
        <ele>138.2</ele>
        <time>2026-03-20T13:14:35Z</time>
      </trkpt>
      <trkpt lat="48.60902" lon="2.04872">
        <ele>138</ele>
        <time>2026-03-20T13:14:36Z</time>
      </trkpt>
      <trkpt lat="48.60899" lon="2.04876">
        <ele>138</ele>
        <time>2026-03-20T13:14:37Z</time>
      </trkpt>
      <trkpt lat="48.60896" lon="2.04879">
        <ele>138</ele>
        <time>2026-03-20T13:14:38Z</time>
      </trkpt>
      <trkpt lat="48.60892" lon="2.04883">
        <ele>138</ele>
        <time>2026-03-20T13:14:39Z</time>
      </trkpt>
      <trkpt lat="48.60888" lon="2.04887">
        <ele>136.8</ele>
        <time>2026-03-20T13:14:40Z</time>
      </trkpt>
      <trkpt lat="48.60884" lon="2.04891">
        <ele>136.8</ele>
        <time>2026-03-20T13:14:41Z</time>
      </trkpt>
      <trkpt lat="48.6088" lon="2.04895">
        <ele>136.8</ele>
        <time>2026-03-20T13:14:42Z</time>
      </trkpt>
      <trkpt lat="48.60876" lon="2.04901">
        <ele>136.8</ele>
        <time>2026-03-20T13:14:43Z</time>
      </trkpt>
      <trkpt lat="48.60872" lon="2.04905">
        <ele>135.2</ele>
        <time>2026-03-20T13:14:44Z</time>
      </trkpt>
      <trkpt lat="48.60868" lon="2.0491">
        <ele>135.2</ele>
        <time>2026-03-20T13:14:45Z</time>
      </trkpt>
      <trkpt lat="48.60864" lon="2.04914">
        <ele>135.2</ele>
        <time>2026-03-20T13:14:46Z</time>
      </trkpt>
      <trkpt lat="48.60859" lon="2.04919">
        <ele>134.2</ele>
        <time>2026-03-20T13:14:47Z</time>
      </trkpt>
      <trkpt lat="48.60854" lon="2.04924">
        <ele>133.6</ele>
        <time>2026-03-20T13:14:48Z</time>
      </trkpt>
      <trkpt lat="48.60848" lon="2.04928">
        <ele>133.6</ele>
        <time>2026-03-20T13:14:49Z</time>
      </trkpt>
      <trkpt lat="48.60842" lon="2.04933">
        <ele>133.6</ele>
        <time>2026-03-20T13:14:50Z</time>
      </trkpt>
      <trkpt lat="48.60835" lon="2.04939">
        <ele>132.6</ele>
        <time>2026-03-20T13:14:51Z</time>
      </trkpt>
      <trkpt lat="48.60828" lon="2.04944">
        <ele>130</ele>
        <time>2026-03-20T13:14:52Z</time>
      </trkpt>
      <trkpt lat="48.60821" lon="2.04948">
        <ele>130</ele>
        <time>2026-03-20T13:14:53Z</time>
      </trkpt>
      <trkpt lat="48.60812" lon="2.04956">
        <ele>130</ele>
        <time>2026-03-20T13:14:54Z</time>
      </trkpt>
      <trkpt lat="48.60804" lon="2.04963">
        <ele>130</ele>
        <time>2026-03-20T13:14:55Z</time>
      </trkpt>
      <trkpt lat="48.60796" lon="2.04969">
        <ele>127</ele>
        <time>2026-03-20T13:14:56Z</time>
      </trkpt>
      <trkpt lat="48.60787" lon="2.04976">
        <ele>127</ele>
        <time>2026-03-20T13:14:57Z</time>
      </trkpt>
      <trkpt lat="48.60778" lon="2.04983">
        <ele>127</ele>
        <time>2026-03-20T13:14:58Z</time>
      </trkpt>
      <trkpt lat="48.60769" lon="2.0499">
        <ele>127</ele>
        <time>2026-03-20T13:14:59Z</time>
      </trkpt>
      <trkpt lat="48.6076" lon="2.04997">
        <ele>125</ele>
        <time>2026-03-20T13:15:00Z</time>
      </trkpt>
      <trkpt lat="48.6075" lon="2.05004">
        <ele>125</ele>
        <time>2026-03-20T13:15:01Z</time>
      </trkpt>
      <trkpt lat="48.6074" lon="2.05012">
        <ele>125</ele>
        <time>2026-03-20T13:15:02Z</time>
      </trkpt>
      <trkpt lat="48.60731" lon="2.0502">
        <ele>124</ele>
        <time>2026-03-20T13:15:03Z</time>
      </trkpt>
      <trkpt lat="48.60721" lon="2.05027">
        <ele>122.6</ele>
        <time>2026-03-20T13:15:04Z</time>
      </trkpt>
      <trkpt lat="48.60711" lon="2.05035">
        <ele>122.6</ele>
        <time>2026-03-20T13:15:05Z</time>
      </trkpt>
      <trkpt lat="48.60701" lon="2.05043">
        <ele>122.6</ele>
        <time>2026-03-20T13:15:06Z</time>
      </trkpt>
      <trkpt lat="48.60691" lon="2.05051">
        <ele>121.6</ele>
        <time>2026-03-20T13:15:07Z</time>
      </trkpt>
      <trkpt lat="48.60681" lon="2.0506">
        <ele>117</ele>
        <time>2026-03-20T13:15:08Z</time>
      </trkpt>
      <trkpt lat="48.60671" lon="2.05068">
        <ele>117</ele>
        <time>2026-03-20T13:15:09Z</time>
      </trkpt>
      <trkpt lat="48.60661" lon="2.05077">
        <ele>117</ele>
        <time>2026-03-20T13:15:10Z</time>
      </trkpt>
      <trkpt lat="48.6065" lon="2.05086">
        <ele>118</ele>
        <time>2026-03-20T13:15:11Z</time>
      </trkpt>
      <trkpt lat="48.6064" lon="2.05095">
        <ele>118.6</ele>
        <time>2026-03-20T13:15:12Z</time>
      </trkpt>
      <trkpt lat="48.60631" lon="2.05103">
        <ele>118.6</ele>
        <time>2026-03-20T13:15:13Z</time>
      </trkpt>
      <trkpt lat="48.60621" lon="2.05111">
        <ele>118.6</ele>
        <time>2026-03-20T13:15:14Z</time>
      </trkpt>
      <trkpt lat="48.60612" lon="2.05119">
        <ele>118.6</ele>
        <time>2026-03-20T13:15:15Z</time>
      </trkpt>
      <trkpt lat="48.60604" lon="2.05126">
        <ele>118.4</ele>
        <time>2026-03-20T13:15:16Z</time>
      </trkpt>
      <trkpt lat="48.60595" lon="2.05132">
        <ele>118.4</ele>
        <time>2026-03-20T13:15:17Z</time>
      </trkpt>
      <trkpt lat="48.60587" lon="2.05139">
        <ele>118.4</ele>
        <time>2026-03-20T13:15:18Z</time>
      </trkpt>
      <trkpt lat="48.60579" lon="2.05146">
        <ele>119.4</ele>
        <time>2026-03-20T13:15:19Z</time>
      </trkpt>
      <trkpt lat="48.60572" lon="2.05152">
        <ele>120.8</ele>
        <time>2026-03-20T13:15:20Z</time>
      </trkpt>
      <trkpt lat="48.60565" lon="2.05159">
        <ele>120.8</ele>
        <time>2026-03-20T13:15:21Z</time>
      </trkpt>
      <trkpt lat="48.60558" lon="2.05165">
        <ele>120.8</ele>
        <time>2026-03-20T13:15:22Z</time>
      </trkpt>
      <trkpt lat="48.60551" lon="2.0517">
        <ele>121.8</ele>
        <time>2026-03-20T13:15:23Z</time>
      </trkpt>
      <trkpt lat="48.60545" lon="2.05175">
        <ele>123</ele>
        <time>2026-03-20T13:15:24Z</time>
      </trkpt>
      <trkpt lat="48.60539" lon="2.05181">
        <ele>123</ele>
        <time>2026-03-20T13:15:25Z</time>
      </trkpt>
      <trkpt lat="48.60534" lon="2.05187">
        <ele>123</ele>
        <time>2026-03-20T13:15:26Z</time>
      </trkpt>
      <trkpt lat="48.60527" lon="2.05194">
        <ele>123</ele>
        <time>2026-03-20T13:15:27Z</time>
      </trkpt>
      <trkpt lat="48.60521" lon="2.052">
        <ele>123.8</ele>
        <time>2026-03-20T13:15:28Z</time>
      </trkpt>
      <trkpt lat="48.60516" lon="2.05205">
        <ele>123.8</ele>
        <time>2026-03-20T13:15:29Z</time>
      </trkpt>
      <trkpt lat="48.60511" lon="2.05209">
        <ele>123.8</ele>
        <time>2026-03-20T13:15:30Z</time>
      </trkpt>
      <trkpt lat="48.60506" lon="2.05212">
        <ele>124.8</ele>
        <time>2026-03-20T13:15:31Z</time>
      </trkpt>
      <trkpt lat="48.60501" lon="2.05217">
        <ele>125.2</ele>
        <time>2026-03-20T13:15:32Z</time>
      </trkpt>
      <trkpt lat="48.60497" lon="2.05222">
        <ele>125.2</ele>
        <time>2026-03-20T13:15:33Z</time>
      </trkpt>
      <trkpt lat="48.60492" lon="2.05226">
        <ele>125.2</ele>
        <time>2026-03-20T13:15:34Z</time>
      </trkpt>
      <trkpt lat="48.60488" lon="2.0523">
        <ele>126</ele>
        <time>2026-03-20T13:15:35Z</time>
      </trkpt>
      <trkpt lat="48.60483" lon="2.05234">
        <ele>126.4</ele>
        <time>2026-03-20T13:15:36Z</time>
      </trkpt>
      <trkpt lat="48.60478" lon="2.05237">
        <ele>126.4</ele>
        <time>2026-03-20T13:15:37Z</time>
      </trkpt>
      <trkpt lat="48.60474" lon="2.05243">
        <ele>126.4</ele>
        <time>2026-03-20T13:15:38Z</time>
      </trkpt>
      <trkpt lat="48.60469" lon="2.05248">
        <ele>126</ele>
        <time>2026-03-20T13:15:39Z</time>
      </trkpt>
      <trkpt lat="48.60465" lon="2.05252">
        <ele>126.6</ele>
        <time>2026-03-20T13:15:40Z</time>
      </trkpt>
      <trkpt lat="48.6046" lon="2.05256">
        <ele>126.6</ele>
        <time>2026-03-20T13:15:41Z</time>
      </trkpt>
      <trkpt lat="48.60456" lon="2.0526">
        <ele>126.6</ele>
        <time>2026-03-20T13:15:42Z</time>
      </trkpt>
      <trkpt lat="48.60452" lon="2.05264">
        <ele>126.6</ele>
        <time>2026-03-20T13:15:43Z</time>
      </trkpt>
      <trkpt lat="48.60447" lon="2.05268">
        <ele>127</ele>
        <time>2026-03-20T13:15:44Z</time>
      </trkpt>
      <trkpt lat="48.60443" lon="2.05272">
        <ele>127</ele>
        <time>2026-03-20T13:15:45Z</time>
      </trkpt>
      <trkpt lat="48.60438" lon="2.05276">
        <ele>127</ele>
        <time>2026-03-20T13:15:46Z</time>
      </trkpt>
      <trkpt lat="48.60433" lon="2.0528">
        <ele>127.6</ele>
        <time>2026-03-20T13:15:47Z</time>
      </trkpt>
      <trkpt lat="48.60428" lon="2.05286">
        <ele>128.2</ele>
        <time>2026-03-20T13:15:48Z</time>
      </trkpt>
      <trkpt lat="48.60424" lon="2.05291">
        <ele>128.2</ele>
        <time>2026-03-20T13:15:49Z</time>
      </trkpt>
      <trkpt lat="48.60418" lon="2.05297">
        <ele>128.2</ele>
        <time>2026-03-20T13:15:50Z</time>
      </trkpt>
      <trkpt lat="48.60414" lon="2.05301">
        <ele>127.6</ele>
        <time>2026-03-20T13:15:51Z</time>
      </trkpt>
      <trkpt lat="48.60409" lon="2.05306">
        <ele>127.8</ele>
        <time>2026-03-20T13:15:52Z</time>
      </trkpt>
      <trkpt lat="48.60405" lon="2.0531">
        <ele>127.8</ele>
        <time>2026-03-20T13:15:53Z</time>
      </trkpt>
      <trkpt lat="48.60401" lon="2.05313">
        <ele>127.8</ele>
        <time>2026-03-20T13:15:54Z</time>
      </trkpt>
      <trkpt lat="48.60396" lon="2.05318">
        <ele>128.6</ele>
        <time>2026-03-20T13:15:55Z</time>
      </trkpt>
      <trkpt lat="48.60391" lon="2.05322">
        <ele>128.2</ele>
        <time>2026-03-20T13:15:56Z</time>
      </trkpt>
      <trkpt lat="48.60387" lon="2.05326">
        <ele>128.2</ele>
        <time>2026-03-20T13:15:57Z</time>
      </trkpt>
      <trkpt lat="48.60382" lon="2.05331">
        <ele>128.2</ele>
        <time>2026-03-20T13:15:58Z</time>
      </trkpt>
      <trkpt lat="48.60378" lon="2.05334">
        <ele>128</ele>
        <time>2026-03-20T13:15:59Z</time>
      </trkpt>
      <trkpt lat="48.60373" lon="2.05339">
        <ele>128.2</ele>
        <time>2026-03-20T13:16:00Z</time>
      </trkpt>
      <trkpt lat="48.60368" lon="2.05343">
        <ele>128.2</ele>
        <time>2026-03-20T13:16:01Z</time>
      </trkpt>
      <trkpt lat="48.60364" lon="2.05347">
        <ele>128.2</ele>
        <time>2026-03-20T13:16:02Z</time>
      </trkpt>
      <trkpt lat="48.60359" lon="2.05351">
        <ele>128.2</ele>
        <time>2026-03-20T13:16:03Z</time>
      </trkpt>
      <trkpt lat="48.60355" lon="2.05355">
        <ele>128.2</ele>
        <time>2026-03-20T13:16:04Z</time>
      </trkpt>
      <trkpt lat="48.60351" lon="2.05361">
        <ele>128.2</ele>
        <time>2026-03-20T13:16:05Z</time>
      </trkpt>
      <trkpt lat="48.60346" lon="2.05366">
        <ele>128.2</ele>
        <time>2026-03-20T13:16:06Z</time>
      </trkpt>
      <trkpt lat="48.60341" lon="2.05371">
        <ele>128.6</ele>
        <time>2026-03-20T13:16:07Z</time>
      </trkpt>
      <trkpt lat="48.60337" lon="2.05376">
        <ele>127.8</ele>
        <time>2026-03-20T13:16:08Z</time>
      </trkpt>
      <trkpt lat="48.60332" lon="2.0538">
        <ele>127.8</ele>
        <time>2026-03-20T13:16:09Z</time>
      </trkpt>
      <trkpt lat="48.60327" lon="2.05384">
        <ele>127.8</ele>
        <time>2026-03-20T13:16:10Z</time>
      </trkpt>
      <trkpt lat="48.60323" lon="2.05389">
        <ele>127.8</ele>
        <time>2026-03-20T13:16:11Z</time>
      </trkpt>
      <trkpt lat="48.60318" lon="2.05394">
        <ele>128.6</ele>
        <time>2026-03-20T13:16:12Z</time>
      </trkpt>
      <trkpt lat="48.60314" lon="2.05398">
        <ele>128.6</ele>
        <time>2026-03-20T13:16:13Z</time>
      </trkpt>
      <trkpt lat="48.60309" lon="2.05403">
        <ele>128.6</ele>
        <time>2026-03-20T13:16:14Z</time>
      </trkpt>
      <trkpt lat="48.60305" lon="2.05407">
        <ele>128.2</ele>
        <time>2026-03-20T13:16:15Z</time>
      </trkpt>
      <trkpt lat="48.60301" lon="2.05411">
        <ele>127.6</ele>
        <time>2026-03-20T13:16:16Z</time>
      </trkpt>
      <trkpt lat="48.60297" lon="2.05415">
        <ele>127.6</ele>
        <time>2026-03-20T13:16:17Z</time>
      </trkpt>
      <trkpt lat="48.60292" lon="2.0542">
        <ele>127.6</ele>
        <time>2026-03-20T13:16:18Z</time>
      </trkpt>
      <trkpt lat="48.60288" lon="2.05425">
        <ele>127.6</ele>
        <time>2026-03-20T13:16:19Z</time>
      </trkpt>
      <trkpt lat="48.60284" lon="2.0543">
        <ele>127.2</ele>
        <time>2026-03-20T13:16:20Z</time>
      </trkpt>
      <trkpt lat="48.60279" lon="2.05435">
        <ele>127.2</ele>
        <time>2026-03-20T13:16:21Z</time>
      </trkpt>
      <trkpt lat="48.60275" lon="2.0544">
        <ele>127.2</ele>
        <time>2026-03-20T13:16:22Z</time>
      </trkpt>
      <trkpt lat="48.6027" lon="2.05444">
        <ele>127.2</ele>
        <time>2026-03-20T13:16:23Z</time>
      </trkpt>
      <trkpt lat="48.60266" lon="2.05448">
        <ele>126.6</ele>
        <time>2026-03-20T13:16:24Z</time>
      </trkpt>
      <trkpt lat="48.60261" lon="2.05454">
        <ele>126.6</ele>
        <time>2026-03-20T13:16:25Z</time>
      </trkpt>
      <trkpt lat="48.60256" lon="2.05459">
        <ele>126.6</ele>
        <time>2026-03-20T13:16:26Z</time>
      </trkpt>
      <trkpt lat="48.60252" lon="2.05464">
        <ele>126.6</ele>
        <time>2026-03-20T13:16:27Z</time>
      </trkpt>
      <trkpt lat="48.60247" lon="2.05469">
        <ele>126.6</ele>
        <time>2026-03-20T13:16:28Z</time>
      </trkpt>
      <trkpt lat="48.60243" lon="2.05473">
        <ele>126.6</ele>
        <time>2026-03-20T13:16:29Z</time>
      </trkpt>
      <trkpt lat="48.60239" lon="2.05478">
        <ele>126.6</ele>
        <time>2026-03-20T13:16:30Z</time>
      </trkpt>
      <trkpt lat="48.60233" lon="2.05483">
        <ele>126.6</ele>
        <time>2026-03-20T13:16:31Z</time>
      </trkpt>
      <trkpt lat="48.60229" lon="2.05487">
        <ele>125.8</ele>
        <time>2026-03-20T13:16:32Z</time>
      </trkpt>
      <trkpt lat="48.60224" lon="2.05493">
        <ele>125.8</ele>
        <time>2026-03-20T13:16:33Z</time>
      </trkpt>
      <trkpt lat="48.6022" lon="2.05498">
        <ele>125.8</ele>
        <time>2026-03-20T13:16:34Z</time>
      </trkpt>
      <trkpt lat="48.60215" lon="2.05502">
        <ele>126.4</ele>
        <time>2026-03-20T13:16:35Z</time>
      </trkpt>
      <trkpt lat="48.60211" lon="2.05507">
        <ele>127</ele>
        <time>2026-03-20T13:16:36Z</time>
      </trkpt>
      <trkpt lat="48.60206" lon="2.05512">
        <ele>127</ele>
        <time>2026-03-20T13:16:37Z</time>
      </trkpt>
      <trkpt lat="48.60202" lon="2.05517">
        <ele>127</ele>
        <time>2026-03-20T13:16:38Z</time>
      </trkpt>
      <trkpt lat="48.60197" lon="2.05523">
        <ele>126.4</ele>
        <time>2026-03-20T13:16:39Z</time>
      </trkpt>
      <trkpt lat="48.60192" lon="2.05528">
        <ele>127</ele>
        <time>2026-03-20T13:16:40Z</time>
      </trkpt>
      <trkpt lat="48.60188" lon="2.05533">
        <ele>127</ele>
        <time>2026-03-20T13:16:41Z</time>
      </trkpt>
      <trkpt lat="48.60184" lon="2.05537">
        <ele>127</ele>
        <time>2026-03-20T13:16:42Z</time>
      </trkpt>
      <trkpt lat="48.6018" lon="2.05541">
        <ele>127</ele>
        <time>2026-03-20T13:16:43Z</time>
      </trkpt>
      <trkpt lat="48.60176" lon="2.05546">
        <ele>128</ele>
        <time>2026-03-20T13:16:44Z</time>
      </trkpt>
      <trkpt lat="48.60172" lon="2.05551">
        <ele>128</ele>
        <time>2026-03-20T13:16:45Z</time>
      </trkpt>
      <trkpt lat="48.60167" lon="2.05556">
        <ele>128</ele>
        <time>2026-03-20T13:16:46Z</time>
      </trkpt>
      <trkpt lat="48.60163" lon="2.0556">
        <ele>127</ele>
        <time>2026-03-20T13:16:47Z</time>
      </trkpt>
      <trkpt lat="48.60159" lon="2.05565">
        <ele>127</ele>
        <time>2026-03-20T13:16:48Z</time>
      </trkpt>
      <trkpt lat="48.60155" lon="2.0557">
        <ele>127</ele>
        <time>2026-03-20T13:16:49Z</time>
      </trkpt>
      <trkpt lat="48.60151" lon="2.05575">
        <ele>127</ele>
        <time>2026-03-20T13:16:50Z</time>
      </trkpt>
      <trkpt lat="48.60146" lon="2.0558">
        <ele>127</ele>
        <time>2026-03-20T13:16:51Z</time>
      </trkpt>
      <trkpt lat="48.60142" lon="2.05586">
        <ele>126.8</ele>
        <time>2026-03-20T13:16:52Z</time>
      </trkpt>
      <trkpt lat="48.60137" lon="2.05591">
        <ele>126.8</ele>
        <time>2026-03-20T13:16:53Z</time>
      </trkpt>
      <trkpt lat="48.60132" lon="2.05597">
        <ele>126.8</ele>
        <time>2026-03-20T13:16:54Z</time>
      </trkpt>
      <trkpt lat="48.60127" lon="2.05602">
        <ele>126.8</ele>
        <time>2026-03-20T13:16:55Z</time>
      </trkpt>
      <trkpt lat="48.60123" lon="2.05607">
        <ele>126.4</ele>
        <time>2026-03-20T13:16:56Z</time>
      </trkpt>
      <trkpt lat="48.60118" lon="2.05612">
        <ele>126.4</ele>
        <time>2026-03-20T13:16:57Z</time>
      </trkpt>
      <trkpt lat="48.60114" lon="2.05617">
        <ele>126.4</ele>
        <time>2026-03-20T13:16:58Z</time>
      </trkpt>
      <trkpt lat="48.60109" lon="2.05623">
        <ele>127.4</ele>
        <time>2026-03-20T13:16:59Z</time>
      </trkpt>
      <trkpt lat="48.60104" lon="2.05627">
        <ele>127.2</ele>
        <time>2026-03-20T13:17:00Z</time>
      </trkpt>
      <trkpt lat="48.601" lon="2.05632">
        <ele>127.2</ele>
        <time>2026-03-20T13:17:01Z</time>
      </trkpt>
      <trkpt lat="48.60096" lon="2.05637">
        <ele>127.2</ele>
        <time>2026-03-20T13:17:02Z</time>
      </trkpt>
      <trkpt lat="48.60092" lon="2.05642">
        <ele>128.2</ele>
        <time>2026-03-20T13:17:03Z</time>
      </trkpt>
      <trkpt lat="48.60088" lon="2.05647">
        <ele>128</ele>
        <time>2026-03-20T13:17:04Z</time>
      </trkpt>
      <trkpt lat="48.60085" lon="2.05652">
        <ele>128</ele>
        <time>2026-03-20T13:17:05Z</time>
      </trkpt>
      <trkpt lat="48.6008" lon="2.05656">
        <ele>128</ele>
        <time>2026-03-20T13:17:06Z</time>
      </trkpt>
      <trkpt lat="48.60077" lon="2.05659">
        <ele>128.2</ele>
        <time>2026-03-20T13:17:07Z</time>
      </trkpt>
      <trkpt lat="48.60073" lon="2.05664">
        <ele>129.2</ele>
        <time>2026-03-20T13:17:08Z</time>
      </trkpt>
      <trkpt lat="48.60069" lon="2.05668">
        <ele>129.2</ele>
        <time>2026-03-20T13:17:09Z</time>
      </trkpt>
      <trkpt lat="48.60066" lon="2.05672">
        <ele>129.2</ele>
        <time>2026-03-20T13:17:10Z</time>
      </trkpt>
      <trkpt lat="48.60063" lon="2.05676">
        <ele>129.4</ele>
        <time>2026-03-20T13:17:11Z</time>
      </trkpt>
      <trkpt lat="48.60059" lon="2.0568">
        <ele>129.6</ele>
        <time>2026-03-20T13:17:12Z</time>
      </trkpt>
      <trkpt lat="48.60055" lon="2.05685">
        <ele>129.6</ele>
        <time>2026-03-20T13:17:13Z</time>
      </trkpt>
      <trkpt lat="48.60051" lon="2.05688">
        <ele>129.6</ele>
        <time>2026-03-20T13:17:14Z</time>
      </trkpt>
      <trkpt lat="48.60048" lon="2.05692">
        <ele>129.6</ele>
        <time>2026-03-20T13:17:15Z</time>
      </trkpt>
      <trkpt lat="48.60044" lon="2.05696">
        <ele>130.8</ele>
        <time>2026-03-20T13:17:16Z</time>
      </trkpt>
      <trkpt lat="48.60041" lon="2.05701">
        <ele>130.8</ele>
        <time>2026-03-20T13:17:17Z</time>
      </trkpt>
      <trkpt lat="48.60037" lon="2.05705">
        <ele>130.8</ele>
        <time>2026-03-20T13:17:18Z</time>
      </trkpt>
      <trkpt lat="48.60033" lon="2.0571">
        <ele>131.8</ele>
        <time>2026-03-20T13:17:19Z</time>
      </trkpt>
      <trkpt lat="48.60028" lon="2.05714">
        <ele>132.4</ele>
        <time>2026-03-20T13:17:20Z</time>
      </trkpt>
      <trkpt lat="48.60024" lon="2.05718">
        <ele>132.4</ele>
        <time>2026-03-20T13:17:21Z</time>
      </trkpt>
      <trkpt lat="48.60021" lon="2.05722">
        <ele>132.4</ele>
        <time>2026-03-20T13:17:22Z</time>
      </trkpt>
      <trkpt lat="48.60017" lon="2.05726">
        <ele>132.4</ele>
        <time>2026-03-20T13:17:23Z</time>
      </trkpt>
      <trkpt lat="48.60013" lon="2.05731">
        <ele>132.2</ele>
        <time>2026-03-20T13:17:24Z</time>
      </trkpt>
      <trkpt lat="48.60008" lon="2.05735">
        <ele>132.2</ele>
        <time>2026-03-20T13:17:25Z</time>
      </trkpt>
      <trkpt lat="48.60005" lon="2.05738">
        <ele>132.2</ele>
        <time>2026-03-20T13:17:26Z</time>
      </trkpt>
      <trkpt lat="48.60001" lon="2.05742">
        <ele>132.2</ele>
        <time>2026-03-20T13:17:27Z</time>
      </trkpt>
      <trkpt lat="48.59997" lon="2.05745">
        <ele>133.6</ele>
        <time>2026-03-20T13:17:28Z</time>
      </trkpt>
      <trkpt lat="48.59993" lon="2.0575">
        <ele>133.6</ele>
        <time>2026-03-20T13:17:29Z</time>
      </trkpt>
      <trkpt lat="48.59989" lon="2.05754">
        <ele>133.6</ele>
        <time>2026-03-20T13:17:30Z</time>
      </trkpt>
      <trkpt lat="48.59984" lon="2.0576">
        <ele>134</ele>
        <time>2026-03-20T13:17:31Z</time>
      </trkpt>
      <trkpt lat="48.5998" lon="2.05764">
        <ele>133.6</ele>
        <time>2026-03-20T13:17:32Z</time>
      </trkpt>
      <trkpt lat="48.59976" lon="2.05769">
        <ele>133.6</ele>
        <time>2026-03-20T13:17:33Z</time>
      </trkpt>
      <trkpt lat="48.59971" lon="2.05774">
        <ele>133.6</ele>
        <time>2026-03-20T13:17:34Z</time>
      </trkpt>
      <trkpt lat="48.59967" lon="2.05778">
        <ele>134.4</ele>
        <time>2026-03-20T13:17:35Z</time>
      </trkpt>
      <trkpt lat="48.59963" lon="2.05783">
        <ele>134.4</ele>
        <time>2026-03-20T13:17:36Z</time>
      </trkpt>
      <trkpt lat="48.59958" lon="2.05787">
        <ele>134.4</ele>
        <time>2026-03-20T13:17:37Z</time>
      </trkpt>
      <trkpt lat="48.59954" lon="2.05792">
        <ele>134.4</ele>
        <time>2026-03-20T13:17:38Z</time>
      </trkpt>
      <trkpt lat="48.59949" lon="2.05796">
        <ele>133.8</ele>
        <time>2026-03-20T13:17:39Z</time>
      </trkpt>
      <trkpt lat="48.59945" lon="2.05801">
        <ele>133.6</ele>
        <time>2026-03-20T13:17:40Z</time>
      </trkpt>
      <trkpt lat="48.5994" lon="2.05806">
        <ele>133.6</ele>
        <time>2026-03-20T13:17:41Z</time>
      </trkpt>
      <trkpt lat="48.59936" lon="2.0581">
        <ele>133.6</ele>
        <time>2026-03-20T13:17:42Z</time>
      </trkpt>
      <trkpt lat="48.59931" lon="2.05815">
        <ele>133.6</ele>
        <time>2026-03-20T13:17:43Z</time>
      </trkpt>
      <trkpt lat="48.59927" lon="2.0582">
        <ele>134.4</ele>
        <time>2026-03-20T13:17:44Z</time>
      </trkpt>
      <trkpt lat="48.59922" lon="2.05825">
        <ele>134.4</ele>
        <time>2026-03-20T13:17:45Z</time>
      </trkpt>
      <trkpt lat="48.59918" lon="2.0583">
        <ele>134.4</ele>
        <time>2026-03-20T13:17:46Z</time>
      </trkpt>
      <trkpt lat="48.59913" lon="2.05834">
        <ele>133.4</ele>
        <time>2026-03-20T13:17:47Z</time>
      </trkpt>
      <trkpt lat="48.59909" lon="2.05839">
        <ele>132.2</ele>
        <time>2026-03-20T13:17:48Z</time>
      </trkpt>
      <trkpt lat="48.59904" lon="2.05843">
        <ele>132.2</ele>
        <time>2026-03-20T13:17:49Z</time>
      </trkpt>
      <trkpt lat="48.599" lon="2.05848">
        <ele>132.2</ele>
        <time>2026-03-20T13:17:50Z</time>
      </trkpt>
      <trkpt lat="48.59895" lon="2.05853">
        <ele>132.6</ele>
        <time>2026-03-20T13:17:51Z</time>
      </trkpt>
      <trkpt lat="48.59891" lon="2.05857">
        <ele>132.2</ele>
        <time>2026-03-20T13:17:52Z</time>
      </trkpt>
      <trkpt lat="48.59887" lon="2.05861">
        <ele>132.2</ele>
        <time>2026-03-20T13:17:53Z</time>
      </trkpt>
      <trkpt lat="48.59883" lon="2.05865">
        <ele>132.2</ele>
        <time>2026-03-20T13:17:54Z</time>
      </trkpt>
      <trkpt lat="48.59878" lon="2.0587">
        <ele>132.8</ele>
        <time>2026-03-20T13:17:55Z</time>
      </trkpt>
      <trkpt lat="48.59874" lon="2.05874">
        <ele>133.4</ele>
        <time>2026-03-20T13:17:56Z</time>
      </trkpt>
      <trkpt lat="48.5987" lon="2.05878">
        <ele>133.4</ele>
        <time>2026-03-20T13:17:57Z</time>
      </trkpt>
      <trkpt lat="48.59865" lon="2.05883">
        <ele>133.4</ele>
        <time>2026-03-20T13:17:58Z</time>
      </trkpt>
      <trkpt lat="48.59861" lon="2.05888">
        <ele>134.4</ele>
        <time>2026-03-20T13:17:59Z</time>
      </trkpt>
      <trkpt lat="48.59856" lon="2.05892">
        <ele>135.2</ele>
        <time>2026-03-20T13:18:00Z</time>
      </trkpt>
      <trkpt lat="48.59851" lon="2.05896">
        <ele>135.2</ele>
        <time>2026-03-20T13:18:01Z</time>
      </trkpt>
      <trkpt lat="48.59846" lon="2.05901">
        <ele>135.2</ele>
        <time>2026-03-20T13:18:02Z</time>
      </trkpt>
      <trkpt lat="48.59842" lon="2.05905">
        <ele>134.2</ele>
        <time>2026-03-20T13:18:03Z</time>
      </trkpt>
      <trkpt lat="48.59837" lon="2.0591">
        <ele>132</ele>
        <time>2026-03-20T13:18:04Z</time>
      </trkpt>
      <trkpt lat="48.59832" lon="2.05914">
        <ele>132</ele>
        <time>2026-03-20T13:18:05Z</time>
      </trkpt>
      <trkpt lat="48.59827" lon="2.05917">
        <ele>132</ele>
        <time>2026-03-20T13:18:06Z</time>
      </trkpt>
      <trkpt lat="48.59822" lon="2.05922">
        <ele>131</ele>
        <time>2026-03-20T13:18:07Z</time>
      </trkpt>
      <trkpt lat="48.59817" lon="2.05926">
        <ele>129</ele>
        <time>2026-03-20T13:18:08Z</time>
      </trkpt>
      <trkpt lat="48.59812" lon="2.05931">
        <ele>129</ele>
        <time>2026-03-20T13:18:09Z</time>
      </trkpt>
      <trkpt lat="48.59807" lon="2.05936">
        <ele>129</ele>
        <time>2026-03-20T13:18:10Z</time>
      </trkpt>
      <trkpt lat="48.59802" lon="2.05941">
        <ele>128</ele>
        <time>2026-03-20T13:18:11Z</time>
      </trkpt>
      <trkpt lat="48.59796" lon="2.05947">
        <ele>129</ele>
        <time>2026-03-20T13:18:12Z</time>
      </trkpt>
      <trkpt lat="48.59791" lon="2.05952">
        <ele>129</ele>
        <time>2026-03-20T13:18:13Z</time>
      </trkpt>
      <trkpt lat="48.59785" lon="2.05956">
        <ele>129</ele>
        <time>2026-03-20T13:18:14Z</time>
      </trkpt>
      <trkpt lat="48.59779" lon="2.05961">
        <ele>128</ele>
        <time>2026-03-20T13:18:15Z</time>
      </trkpt>
      <trkpt lat="48.59773" lon="2.05967">
        <ele>126.8</ele>
        <time>2026-03-20T13:18:16Z</time>
      </trkpt>
      <trkpt lat="48.59767" lon="2.05973">
        <ele>126.8</ele>
        <time>2026-03-20T13:18:17Z</time>
      </trkpt>
      <trkpt lat="48.5976" lon="2.0598">
        <ele>126.8</ele>
        <time>2026-03-20T13:18:18Z</time>
      </trkpt>
      <trkpt lat="48.59754" lon="2.05986">
        <ele>126.8</ele>
        <time>2026-03-20T13:18:19Z</time>
      </trkpt>
      <trkpt lat="48.59746" lon="2.05992">
        <ele>126.2</ele>
        <time>2026-03-20T13:18:20Z</time>
      </trkpt>
      <trkpt lat="48.59739" lon="2.05998">
        <ele>126.2</ele>
        <time>2026-03-20T13:18:21Z</time>
      </trkpt>
      <trkpt lat="48.59732" lon="2.06005">
        <ele>126.2</ele>
        <time>2026-03-20T13:18:22Z</time>
      </trkpt>
      <trkpt lat="48.59725" lon="2.06012">
        <ele>125.2</ele>
        <time>2026-03-20T13:18:23Z</time>
      </trkpt>
      <trkpt lat="48.59718" lon="2.06019">
        <ele>123.2</ele>
        <time>2026-03-20T13:18:24Z</time>
      </trkpt>
      <trkpt lat="48.5971" lon="2.06025">
        <ele>123.2</ele>
        <time>2026-03-20T13:18:25Z</time>
      </trkpt>
      <trkpt lat="48.59703" lon="2.06032">
        <ele>123.2</ele>
        <time>2026-03-20T13:18:26Z</time>
      </trkpt>
      <trkpt lat="48.59696" lon="2.06038">
        <ele>122.2</ele>
        <time>2026-03-20T13:18:27Z</time>
      </trkpt>
      <trkpt lat="48.59689" lon="2.06045">
        <ele>120.2</ele>
        <time>2026-03-20T13:18:28Z</time>
      </trkpt>
      <trkpt lat="48.59682" lon="2.06051">
        <ele>120.2</ele>
        <time>2026-03-20T13:18:29Z</time>
      </trkpt>
      <trkpt lat="48.59675" lon="2.06057">
        <ele>120.2</ele>
        <time>2026-03-20T13:18:30Z</time>
      </trkpt>
      <trkpt lat="48.59668" lon="2.06065">
        <ele>120</ele>
        <time>2026-03-20T13:18:31Z</time>
      </trkpt>
      <trkpt lat="48.59661" lon="2.06073">
        <ele>120.8</ele>
        <time>2026-03-20T13:18:32Z</time>
      </trkpt>
      <trkpt lat="48.59655" lon="2.06082">
        <ele>120.8</ele>
        <time>2026-03-20T13:18:33Z</time>
      </trkpt>
      <trkpt lat="48.59649" lon="2.06091">
        <ele>120.8</ele>
        <time>2026-03-20T13:18:34Z</time>
      </trkpt>
      <trkpt lat="48.59643" lon="2.061">
        <ele>120.8</ele>
        <time>2026-03-20T13:18:35Z</time>
      </trkpt>
      <trkpt lat="48.59636" lon="2.06109">
        <ele>121</ele>
        <time>2026-03-20T13:18:36Z</time>
      </trkpt>
      <trkpt lat="48.59629" lon="2.06117">
        <ele>121</ele>
        <time>2026-03-20T13:18:37Z</time>
      </trkpt>
      <trkpt lat="48.59622" lon="2.06126">
        <ele>121</ele>
        <time>2026-03-20T13:18:38Z</time>
      </trkpt>
      <trkpt lat="48.59616" lon="2.06134">
        <ele>120</ele>
        <time>2026-03-20T13:18:39Z</time>
      </trkpt>
      <trkpt lat="48.59609" lon="2.06142">
        <ele>120.2</ele>
        <time>2026-03-20T13:18:40Z</time>
      </trkpt>
      <trkpt lat="48.59603" lon="2.0615">
        <ele>120.2</ele>
        <time>2026-03-20T13:18:41Z</time>
      </trkpt>
      <trkpt lat="48.59597" lon="2.06158">
        <ele>120.2</ele>
        <time>2026-03-20T13:18:42Z</time>
      </trkpt>
      <trkpt lat="48.59591" lon="2.06166">
        <ele>120.2</ele>
        <time>2026-03-20T13:18:43Z</time>
      </trkpt>
      <trkpt lat="48.59585" lon="2.06173">
        <ele>119.4</ele>
        <time>2026-03-20T13:18:44Z</time>
      </trkpt>
      <trkpt lat="48.59579" lon="2.06181">
        <ele>119.4</ele>
        <time>2026-03-20T13:18:45Z</time>
      </trkpt>
      <trkpt lat="48.59573" lon="2.06189">
        <ele>119.4</ele>
        <time>2026-03-20T13:18:46Z</time>
      </trkpt>
      <trkpt lat="48.59567" lon="2.06196">
        <ele>120.4</ele>
        <time>2026-03-20T13:18:47Z</time>
      </trkpt>
      <trkpt lat="48.59561" lon="2.06204">
        <ele>120.4</ele>
        <time>2026-03-20T13:18:48Z</time>
      </trkpt>
      <trkpt lat="48.59555" lon="2.06211">
        <ele>120.4</ele>
        <time>2026-03-20T13:18:49Z</time>
      </trkpt>
      <trkpt lat="48.59549" lon="2.06219">
        <ele>120.4</ele>
        <time>2026-03-20T13:18:50Z</time>
      </trkpt>
      <trkpt lat="48.59543" lon="2.06226">
        <ele>120.4</ele>
        <time>2026-03-20T13:18:51Z</time>
      </trkpt>
      <trkpt lat="48.59537" lon="2.06234">
        <ele>120.6</ele>
        <time>2026-03-20T13:18:52Z</time>
      </trkpt>
      <trkpt lat="48.59532" lon="2.06241">
        <ele>120.6</ele>
        <time>2026-03-20T13:18:53Z</time>
      </trkpt>
      <trkpt lat="48.59526" lon="2.06249">
        <ele>120.6</ele>
        <time>2026-03-20T13:18:54Z</time>
      </trkpt>
      <trkpt lat="48.59521" lon="2.06256">
        <ele>119.8</ele>
        <time>2026-03-20T13:18:55Z</time>
      </trkpt>
      <trkpt lat="48.59515" lon="2.06262">
        <ele>119.8</ele>
        <time>2026-03-20T13:18:56Z</time>
      </trkpt>
      <trkpt lat="48.5951" lon="2.06268">
        <ele>119.8</ele>
        <time>2026-03-20T13:18:57Z</time>
      </trkpt>
      <trkpt lat="48.59504" lon="2.06274">
        <ele>119.8</ele>
        <time>2026-03-20T13:18:58Z</time>
      </trkpt>
      <trkpt lat="48.59498" lon="2.06279">
        <ele>119.8</ele>
        <time>2026-03-20T13:18:59Z</time>
      </trkpt>
      <trkpt lat="48.59493" lon="2.06285">
        <ele>119.4</ele>
        <time>2026-03-20T13:19:00Z</time>
      </trkpt>
      <trkpt lat="48.59487" lon="2.06291">
        <ele>119.4</ele>
        <time>2026-03-20T13:19:01Z</time>
      </trkpt>
      <trkpt lat="48.59482" lon="2.06297">
        <ele>119.4</ele>
        <time>2026-03-20T13:19:02Z</time>
      </trkpt>
      <trkpt lat="48.59477" lon="2.06302">
        <ele>120.4</ele>
        <time>2026-03-20T13:19:03Z</time>
      </trkpt>
      <trkpt lat="48.59472" lon="2.06308">
        <ele>120.8</ele>
        <time>2026-03-20T13:19:04Z</time>
      </trkpt>
      <trkpt lat="48.59466" lon="2.06313">
        <ele>120.8</ele>
        <time>2026-03-20T13:19:05Z</time>
      </trkpt>
      <trkpt lat="48.59461" lon="2.06318">
        <ele>120.8</ele>
        <time>2026-03-20T13:19:06Z</time>
      </trkpt>
      <trkpt lat="48.59457" lon="2.06323">
        <ele>120.8</ele>
        <time>2026-03-20T13:19:07Z</time>
      </trkpt>
      <trkpt lat="48.59452" lon="2.06328">
        <ele>121.8</ele>
        <time>2026-03-20T13:19:08Z</time>
      </trkpt>
      <trkpt lat="48.59447" lon="2.06333">
        <ele>121.8</ele>
        <time>2026-03-20T13:19:09Z</time>
      </trkpt>
      <trkpt lat="48.59442" lon="2.06338">
        <ele>121.8</ele>
        <time>2026-03-20T13:19:10Z</time>
      </trkpt>
      <trkpt lat="48.59437" lon="2.06342">
        <ele>121.8</ele>
        <time>2026-03-20T13:19:11Z</time>
      </trkpt>
      <trkpt lat="48.59432" lon="2.06347">
        <ele>121.4</ele>
        <time>2026-03-20T13:19:12Z</time>
      </trkpt>
      <trkpt lat="48.59427" lon="2.06352">
        <ele>121.4</ele>
        <time>2026-03-20T13:19:13Z</time>
      </trkpt>
      <trkpt lat="48.59422" lon="2.06356">
        <ele>121.4</ele>
        <time>2026-03-20T13:19:14Z</time>
      </trkpt>
      <trkpt lat="48.59417" lon="2.06361">
        <ele>121.4</ele>
        <time>2026-03-20T13:19:15Z</time>
      </trkpt>
      <trkpt lat="48.59413" lon="2.06366">
        <ele>121.8</ele>
        <time>2026-03-20T13:19:16Z</time>
      </trkpt>
      <trkpt lat="48.59409" lon="2.0637">
        <ele>121.8</ele>
        <time>2026-03-20T13:19:17Z</time>
      </trkpt>
      <trkpt lat="48.59404" lon="2.06375">
        <ele>121.8</ele>
        <time>2026-03-20T13:19:18Z</time>
      </trkpt>
      <trkpt lat="48.594" lon="2.06379">
        <ele>122.4</ele>
        <time>2026-03-20T13:19:19Z</time>
      </trkpt>
      <trkpt lat="48.59395" lon="2.06383">
        <ele>122.8</ele>
        <time>2026-03-20T13:19:20Z</time>
      </trkpt>
      <trkpt lat="48.59391" lon="2.06387">
        <ele>122.8</ele>
        <time>2026-03-20T13:19:21Z</time>
      </trkpt>
      <trkpt lat="48.59387" lon="2.06389">
        <ele>122.8</ele>
        <time>2026-03-20T13:19:22Z</time>
      </trkpt>
      <trkpt lat="48.59382" lon="2.06389">
        <ele>123.8</ele>
        <time>2026-03-20T13:19:23Z</time>
      </trkpt>
      <trkpt lat="48.59378" lon="2.0639">
        <ele>124</ele>
        <time>2026-03-20T13:19:24Z</time>
      </trkpt>
      <trkpt lat="48.59374" lon="2.06394">
        <ele>124</ele>
        <time>2026-03-20T13:19:25Z</time>
      </trkpt>
      <trkpt lat="48.5937" lon="2.064">
        <ele>124</ele>
        <time>2026-03-20T13:19:26Z</time>
      </trkpt>
      <trkpt lat="48.59367" lon="2.06406">
        <ele>123</ele>
        <time>2026-03-20T13:19:27Z</time>
      </trkpt>
      <trkpt lat="48.59363" lon="2.06411">
        <ele>122.6</ele>
        <time>2026-03-20T13:19:28Z</time>
      </trkpt>
      <trkpt lat="48.59358" lon="2.06415">
        <ele>122.6</ele>
        <time>2026-03-20T13:19:29Z</time>
      </trkpt>
      <trkpt lat="48.59353" lon="2.06419">
        <ele>122.6</ele>
        <time>2026-03-20T13:19:30Z</time>
      </trkpt>
      <trkpt lat="48.59347" lon="2.06423">
        <ele>121.6</ele>
        <time>2026-03-20T13:19:31Z</time>
      </trkpt>
      <trkpt lat="48.59341" lon="2.06426">
        <ele>121.6</ele>
        <time>2026-03-20T13:19:32Z</time>
      </trkpt>
      <trkpt lat="48.59334" lon="2.06428">
        <ele>121.6</ele>
        <time>2026-03-20T13:19:33Z</time>
      </trkpt>
      <trkpt lat="48.59328" lon="2.0643">
        <ele>121.6</ele>
        <time>2026-03-20T13:19:34Z</time>
      </trkpt>
      <trkpt lat="48.59321" lon="2.06432">
        <ele>120.6</ele>
        <time>2026-03-20T13:19:35Z</time>
      </trkpt>
      <trkpt lat="48.59315" lon="2.06435">
        <ele>120.4</ele>
        <time>2026-03-20T13:19:36Z</time>
      </trkpt>
      <trkpt lat="48.59308" lon="2.06437">
        <ele>120.4</ele>
        <time>2026-03-20T13:19:37Z</time>
      </trkpt>
      <trkpt lat="48.59301" lon="2.0644">
        <ele>120.4</ele>
        <time>2026-03-20T13:19:38Z</time>
      </trkpt>
      <trkpt lat="48.59294" lon="2.06442">
        <ele>119.4</ele>
        <time>2026-03-20T13:19:39Z</time>
      </trkpt>
      <trkpt lat="48.59287" lon="2.06445">
        <ele>118.8</ele>
        <time>2026-03-20T13:19:40Z</time>
      </trkpt>
      <trkpt lat="48.59279" lon="2.06448">
        <ele>118.8</ele>
        <time>2026-03-20T13:19:41Z</time>
      </trkpt>
      <trkpt lat="48.59272" lon="2.06451">
        <ele>118.8</ele>
        <time>2026-03-20T13:19:42Z</time>
      </trkpt>
      <trkpt lat="48.59265" lon="2.06454">
        <ele>117.8</ele>
        <time>2026-03-20T13:19:43Z</time>
      </trkpt>
      <trkpt lat="48.59257" lon="2.06456">
        <ele>116.8</ele>
        <time>2026-03-20T13:19:44Z</time>
      </trkpt>
      <trkpt lat="48.59249" lon="2.06459">
        <ele>116.8</ele>
        <time>2026-03-20T13:19:45Z</time>
      </trkpt>
      <trkpt lat="48.59241" lon="2.06462">
        <ele>116.8</ele>
        <time>2026-03-20T13:19:46Z</time>
      </trkpt>
      <trkpt lat="48.59234" lon="2.06464">
        <ele>115.8</ele>
        <time>2026-03-20T13:19:47Z</time>
      </trkpt>
      <trkpt lat="48.59228" lon="2.06466">
        <ele>116</ele>
        <time>2026-03-20T13:19:48Z</time>
      </trkpt>
      <trkpt lat="48.59222" lon="2.06468">
        <ele>116</ele>
        <time>2026-03-20T13:19:49Z</time>
      </trkpt>
      <trkpt lat="48.59217" lon="2.06472">
        <ele>116</ele>
        <time>2026-03-20T13:19:50Z</time>
      </trkpt>
      <trkpt lat="48.59213" lon="2.06478">
        <ele>115.6</ele>
        <time>2026-03-20T13:19:51Z</time>
      </trkpt>
      <trkpt lat="48.5921" lon="2.06486">
        <ele>115.4</ele>
        <time>2026-03-20T13:19:52Z</time>
      </trkpt>
      <trkpt lat="48.59208" lon="2.06495">
        <ele>115.4</ele>
        <time>2026-03-20T13:19:53Z</time>
      </trkpt>
      <trkpt lat="48.59207" lon="2.06505">
        <ele>115.4</ele>
        <time>2026-03-20T13:19:54Z</time>
      </trkpt>
      <trkpt lat="48.59207" lon="2.06514">
        <ele>115.4</ele>
        <time>2026-03-20T13:19:55Z</time>
      </trkpt>
      <trkpt lat="48.59206" lon="2.06522">
        <ele>116</ele>
        <time>2026-03-20T13:19:56Z</time>
      </trkpt>
      <trkpt lat="48.59205" lon="2.06531">
        <ele>116</ele>
        <time>2026-03-20T13:19:57Z</time>
      </trkpt>
      <trkpt lat="48.59204" lon="2.0654">
        <ele>116</ele>
        <time>2026-03-20T13:19:58Z</time>
      </trkpt>
      <trkpt lat="48.59203" lon="2.06548">
        <ele>115</ele>
        <time>2026-03-20T13:19:59Z</time>
      </trkpt>
      <trkpt lat="48.59202" lon="2.06557">
        <ele>115.6</ele>
        <time>2026-03-20T13:20:00Z</time>
      </trkpt>
      <trkpt lat="48.592" lon="2.06566">
        <ele>115.6</ele>
        <time>2026-03-20T13:20:01Z</time>
      </trkpt>
      <trkpt lat="48.59198" lon="2.06575">
        <ele>115.6</ele>
        <time>2026-03-20T13:20:02Z</time>
      </trkpt>
      <trkpt lat="48.59196" lon="2.06584">
        <ele>115.6</ele>
        <time>2026-03-20T13:20:03Z</time>
      </trkpt>
      <trkpt lat="48.59194" lon="2.06593">
        <ele>115.2</ele>
        <time>2026-03-20T13:20:04Z</time>
      </trkpt>
      <trkpt lat="48.59194" lon="2.06602">
        <ele>115.2</ele>
        <time>2026-03-20T13:20:05Z</time>
      </trkpt>
      <trkpt lat="48.59193" lon="2.06611">
        <ele>115.2</ele>
        <time>2026-03-20T13:20:06Z</time>
      </trkpt>
      <trkpt lat="48.59192" lon="2.0662">
        <ele>115.2</ele>
        <time>2026-03-20T13:20:07Z</time>
      </trkpt>
      <trkpt lat="48.59191" lon="2.06628">
        <ele>114.8</ele>
        <time>2026-03-20T13:20:08Z</time>
      </trkpt>
      <trkpt lat="48.5919" lon="2.06637">
        <ele>114.8</ele>
        <time>2026-03-20T13:20:09Z</time>
      </trkpt>
      <trkpt lat="48.59189" lon="2.06646">
        <ele>114.8</ele>
        <time>2026-03-20T13:20:10Z</time>
      </trkpt>
      <trkpt lat="48.59189" lon="2.06654">
        <ele>114.8</ele>
        <time>2026-03-20T13:20:11Z</time>
      </trkpt>
      <trkpt lat="48.59188" lon="2.06663">
        <ele>114.2</ele>
        <time>2026-03-20T13:20:12Z</time>
      </trkpt>
      <trkpt lat="48.59188" lon="2.06672">
        <ele>114.2</ele>
        <time>2026-03-20T13:20:13Z</time>
      </trkpt>
      <trkpt lat="48.59189" lon="2.06681">
        <ele>114.2</ele>
        <time>2026-03-20T13:20:14Z</time>
      </trkpt>
      <trkpt lat="48.59189" lon="2.0669">
        <ele>113.6</ele>
        <time>2026-03-20T13:20:15Z</time>
      </trkpt>
      <trkpt lat="48.5919" lon="2.06699">
        <ele>114.2</ele>
        <time>2026-03-20T13:20:16Z</time>
      </trkpt>
      <trkpt lat="48.59191" lon="2.06708">
        <ele>114.2</ele>
        <time>2026-03-20T13:20:17Z</time>
      </trkpt>
      <trkpt lat="48.59192" lon="2.06717">
        <ele>114.2</ele>
        <time>2026-03-20T13:20:18Z</time>
      </trkpt>
      <trkpt lat="48.59194" lon="2.06725">
        <ele>114.2</ele>
        <time>2026-03-20T13:20:19Z</time>
      </trkpt>
      <trkpt lat="48.59196" lon="2.06734">
        <ele>113.8</ele>
        <time>2026-03-20T13:20:20Z</time>
      </trkpt>
      <trkpt lat="48.59197" lon="2.06743">
        <ele>113.8</ele>
        <time>2026-03-20T13:20:21Z</time>
      </trkpt>
      <trkpt lat="48.59198" lon="2.06751">
        <ele>113.8</ele>
        <time>2026-03-20T13:20:22Z</time>
      </trkpt>
      <trkpt lat="48.59199" lon="2.0676">
        <ele>113.8</ele>
        <time>2026-03-20T13:20:23Z</time>
      </trkpt>
      <trkpt lat="48.59201" lon="2.06768">
        <ele>112.8</ele>
        <time>2026-03-20T13:20:24Z</time>
      </trkpt>
      <trkpt lat="48.59202" lon="2.06776">
        <ele>112.8</ele>
        <time>2026-03-20T13:20:25Z</time>
      </trkpt>
      <trkpt lat="48.59204" lon="2.06784">
        <ele>112.8</ele>
        <time>2026-03-20T13:20:26Z</time>
      </trkpt>
      <trkpt lat="48.59206" lon="2.06792">
        <ele>112.6</ele>
        <time>2026-03-20T13:20:27Z</time>
      </trkpt>
      <trkpt lat="48.59208" lon="2.068">
        <ele>113.2</ele>
        <time>2026-03-20T13:20:28Z</time>
      </trkpt>
      <trkpt lat="48.5921" lon="2.06808">
        <ele>113.2</ele>
        <time>2026-03-20T13:20:29Z</time>
      </trkpt>
      <trkpt lat="48.59212" lon="2.06816">
        <ele>113.2</ele>
        <time>2026-03-20T13:20:30Z</time>
      </trkpt>
      <trkpt lat="48.59213" lon="2.06824">
        <ele>113.2</ele>
        <time>2026-03-20T13:20:31Z</time>
      </trkpt>
      <trkpt lat="48.59215" lon="2.06832">
        <ele>112</ele>
        <time>2026-03-20T13:20:32Z</time>
      </trkpt>
      <trkpt lat="48.59217" lon="2.0684">
        <ele>112</ele>
        <time>2026-03-20T13:20:33Z</time>
      </trkpt>
      <trkpt lat="48.5922" lon="2.06847">
        <ele>112</ele>
        <time>2026-03-20T13:20:34Z</time>
      </trkpt>
      <trkpt lat="48.59223" lon="2.06855">
        <ele>112</ele>
        <time>2026-03-20T13:20:35Z</time>
      </trkpt>
      <trkpt lat="48.59226" lon="2.06863">
        <ele>112.2</ele>
        <time>2026-03-20T13:20:36Z</time>
      </trkpt>
      <trkpt lat="48.59229" lon="2.0687">
        <ele>112.2</ele>
        <time>2026-03-20T13:20:37Z</time>
      </trkpt>
      <trkpt lat="48.59231" lon="2.06878">
        <ele>112.2</ele>
        <time>2026-03-20T13:20:38Z</time>
      </trkpt>
      <trkpt lat="48.59234" lon="2.06886">
        <ele>112.8</ele>
        <time>2026-03-20T13:20:39Z</time>
      </trkpt>
      <trkpt lat="48.59237" lon="2.06893">
        <ele>112.6</ele>
        <time>2026-03-20T13:20:40Z</time>
      </trkpt>
      <trkpt lat="48.59239" lon="2.06901">
        <ele>112.6</ele>
        <time>2026-03-20T13:20:41Z</time>
      </trkpt>
      <trkpt lat="48.59242" lon="2.06908">
        <ele>112.6</ele>
        <time>2026-03-20T13:20:42Z</time>
      </trkpt>
      <trkpt lat="48.59246" lon="2.06914">
        <ele>112.6</ele>
        <time>2026-03-20T13:20:43Z</time>
      </trkpt>
      <trkpt lat="48.5925" lon="2.06919">
        <ele>112.6</ele>
        <time>2026-03-20T13:20:44Z</time>
      </trkpt>
      <trkpt lat="48.59255" lon="2.06923">
        <ele>112.6</ele>
        <time>2026-03-20T13:20:45Z</time>
      </trkpt>
      <trkpt lat="48.59259" lon="2.06927">
        <ele>112.6</ele>
        <time>2026-03-20T13:20:46Z</time>
      </trkpt>
      <trkpt lat="48.59263" lon="2.06931">
        <ele>112.6</ele>
        <time>2026-03-20T13:20:47Z</time>
      </trkpt>
      <trkpt lat="48.59266" lon="2.06935">
        <ele>112.8</ele>
        <time>2026-03-20T13:20:48Z</time>
      </trkpt>
      <trkpt lat="48.59269" lon="2.0694">
        <ele>112.8</ele>
        <time>2026-03-20T13:20:49Z</time>
      </trkpt>
      <trkpt lat="48.59272" lon="2.06945">
        <ele>112.8</ele>
        <time>2026-03-20T13:20:50Z</time>
      </trkpt>
      <trkpt lat="48.59276" lon="2.06951">
        <ele>112.6</ele>
        <time>2026-03-20T13:20:51Z</time>
      </trkpt>
      <trkpt lat="48.5928" lon="2.06956">
        <ele>113</ele>
        <time>2026-03-20T13:20:52Z</time>
      </trkpt>
      <trkpt lat="48.59284" lon="2.06961">
        <ele>113</ele>
        <time>2026-03-20T13:20:53Z</time>
      </trkpt>
      <trkpt lat="48.59287" lon="2.06966">
        <ele>113</ele>
        <time>2026-03-20T13:20:54Z</time>
      </trkpt>
      <trkpt lat="48.59291" lon="2.06972">
        <ele>112.2</ele>
        <time>2026-03-20T13:20:55Z</time>
      </trkpt>
      <trkpt lat="48.59296" lon="2.06977">
        <ele>111.8</ele>
        <time>2026-03-20T13:20:56Z</time>
      </trkpt>
      <trkpt lat="48.593" lon="2.06982">
        <ele>111.8</ele>
        <time>2026-03-20T13:20:57Z</time>
      </trkpt>
      <trkpt lat="48.59304" lon="2.06988">
        <ele>111.8</ele>
        <time>2026-03-20T13:20:58Z</time>
      </trkpt>
      <trkpt lat="48.59308" lon="2.06993">
        <ele>111.8</ele>
        <time>2026-03-20T13:20:59Z</time>
      </trkpt>
      <trkpt lat="48.59312" lon="2.06999">
        <ele>112.8</ele>
        <time>2026-03-20T13:21:00Z</time>
      </trkpt>
      <trkpt lat="48.59317" lon="2.07005">
        <ele>112.8</ele>
        <time>2026-03-20T13:21:01Z</time>
      </trkpt>
      <trkpt lat="48.59321" lon="2.07011">
        <ele>112.8</ele>
        <time>2026-03-20T13:21:02Z</time>
      </trkpt>
      <trkpt lat="48.59325" lon="2.07016">
        <ele>112.8</ele>
        <time>2026-03-20T13:21:03Z</time>
      </trkpt>
      <trkpt lat="48.59329" lon="2.07022">
        <ele>112.4</ele>
        <time>2026-03-20T13:21:04Z</time>
      </trkpt>
      <trkpt lat="48.59334" lon="2.07028">
        <ele>112.4</ele>
        <time>2026-03-20T13:21:05Z</time>
      </trkpt>
      <trkpt lat="48.59339" lon="2.07034">
        <ele>112.4</ele>
        <time>2026-03-20T13:21:06Z</time>
      </trkpt>
      <trkpt lat="48.59343" lon="2.07041">
        <ele>111.4</ele>
        <time>2026-03-20T13:21:07Z</time>
      </trkpt>
      <trkpt lat="48.59348" lon="2.07047">
        <ele>111.2</ele>
        <time>2026-03-20T13:21:08Z</time>
      </trkpt>
      <trkpt lat="48.59353" lon="2.07052">
        <ele>111.2</ele>
        <time>2026-03-20T13:21:09Z</time>
      </trkpt>
      <trkpt lat="48.59357" lon="2.07058">
        <ele>111.2</ele>
        <time>2026-03-20T13:21:10Z</time>
      </trkpt>
      <trkpt lat="48.59362" lon="2.07065">
        <ele>110.2</ele>
        <time>2026-03-20T13:21:11Z</time>
      </trkpt>
      <trkpt lat="48.59366" lon="2.07071">
        <ele>110.6</ele>
        <time>2026-03-20T13:21:12Z</time>
      </trkpt>
      <trkpt lat="48.59371" lon="2.07076">
        <ele>110.6</ele>
        <time>2026-03-20T13:21:13Z</time>
      </trkpt>
      <trkpt lat="48.59376" lon="2.07082">
        <ele>110.6</ele>
        <time>2026-03-20T13:21:14Z</time>
      </trkpt>
      <trkpt lat="48.59381" lon="2.07088">
        <ele>110.2</ele>
        <time>2026-03-20T13:21:15Z</time>
      </trkpt>
      <trkpt lat="48.59385" lon="2.07094">
        <ele>110.6</ele>
        <time>2026-03-20T13:21:16Z</time>
      </trkpt>
      <trkpt lat="48.5939" lon="2.071">
        <ele>110.6</ele>
        <time>2026-03-20T13:21:17Z</time>
      </trkpt>
      <trkpt lat="48.59394" lon="2.07106">
        <ele>110.6</ele>
        <time>2026-03-20T13:21:18Z</time>
      </trkpt>
      <trkpt lat="48.59399" lon="2.07113">
        <ele>110.6</ele>
        <time>2026-03-20T13:21:19Z</time>
      </trkpt>
      <trkpt lat="48.59403" lon="2.07119">
        <ele>110.2</ele>
        <time>2026-03-20T13:21:20Z</time>
      </trkpt>
      <trkpt lat="48.59408" lon="2.07126">
        <ele>110.2</ele>
        <time>2026-03-20T13:21:21Z</time>
      </trkpt>
      <trkpt lat="48.59412" lon="2.07132">
        <ele>110.2</ele>
        <time>2026-03-20T13:21:22Z</time>
      </trkpt>
      <trkpt lat="48.59416" lon="2.07138">
        <ele>110.4</ele>
        <time>2026-03-20T13:21:23Z</time>
      </trkpt>
      <trkpt lat="48.59421" lon="2.07144">
        <ele>110.8</ele>
        <time>2026-03-20T13:21:24Z</time>
      </trkpt>
      <trkpt lat="48.59425" lon="2.0715">
        <ele>110.8</ele>
        <time>2026-03-20T13:21:25Z</time>
      </trkpt>
      <trkpt lat="48.5943" lon="2.07157">
        <ele>110.8</ele>
        <time>2026-03-20T13:21:26Z</time>
      </trkpt>
      <trkpt lat="48.59434" lon="2.07163">
        <ele>110.8</ele>
        <time>2026-03-20T13:21:27Z</time>
      </trkpt>
      <trkpt lat="48.59439" lon="2.07169">
        <ele>110.6</ele>
        <time>2026-03-20T13:21:28Z</time>
      </trkpt>
      <trkpt lat="48.59444" lon="2.07175">
        <ele>110.6</ele>
        <time>2026-03-20T13:21:29Z</time>
      </trkpt>
      <trkpt lat="48.59447" lon="2.07181">
        <ele>110.6</ele>
        <time>2026-03-20T13:21:30Z</time>
      </trkpt>
      <trkpt lat="48.59452" lon="2.07187">
        <ele>109.6</ele>
        <time>2026-03-20T13:21:31Z</time>
      </trkpt>
      <trkpt lat="48.59456" lon="2.07194">
        <ele>109.2</ele>
        <time>2026-03-20T13:21:32Z</time>
      </trkpt>
      <trkpt lat="48.5946" lon="2.072">
        <ele>109.2</ele>
        <time>2026-03-20T13:21:33Z</time>
      </trkpt>
      <trkpt lat="48.59463" lon="2.07207">
        <ele>109.2</ele>
        <time>2026-03-20T13:21:34Z</time>
      </trkpt>
      <trkpt lat="48.59467" lon="2.07214">
        <ele>109.2</ele>
        <time>2026-03-20T13:21:35Z</time>
      </trkpt>
      <trkpt lat="48.59471" lon="2.07221">
        <ele>108.8</ele>
        <time>2026-03-20T13:21:36Z</time>
      </trkpt>
      <trkpt lat="48.59476" lon="2.07228">
        <ele>108.8</ele>
        <time>2026-03-20T13:21:37Z</time>
      </trkpt>
      <trkpt lat="48.59479" lon="2.07235">
        <ele>108.8</ele>
        <time>2026-03-20T13:21:38Z</time>
      </trkpt>
      <trkpt lat="48.59484" lon="2.07241">
        <ele>108.2</ele>
        <time>2026-03-20T13:21:39Z</time>
      </trkpt>
      <trkpt lat="48.59488" lon="2.07248">
        <ele>108.2</ele>
        <time>2026-03-20T13:21:40Z</time>
      </trkpt>
      <trkpt lat="48.59493" lon="2.07255">
        <ele>108.2</ele>
        <time>2026-03-20T13:21:41Z</time>
      </trkpt>
      <trkpt lat="48.59497" lon="2.07262">
        <ele>108.2</ele>
        <time>2026-03-20T13:21:42Z</time>
      </trkpt>
      <trkpt lat="48.59502" lon="2.07268">
        <ele>108.2</ele>
        <time>2026-03-20T13:21:43Z</time>
      </trkpt>
      <trkpt lat="48.59506" lon="2.07274">
        <ele>107.8</ele>
        <time>2026-03-20T13:21:44Z</time>
      </trkpt>
      <trkpt lat="48.59512" lon="2.07279">
        <ele>107.8</ele>
        <time>2026-03-20T13:21:45Z</time>
      </trkpt>
      <trkpt lat="48.59518" lon="2.07284">
        <ele>107.8</ele>
        <time>2026-03-20T13:21:46Z</time>
      </trkpt>
      <trkpt lat="48.59523" lon="2.07288">
        <ele>107.8</ele>
        <time>2026-03-20T13:21:47Z</time>
      </trkpt>
      <trkpt lat="48.59529" lon="2.07293">
        <ele>107.8</ele>
        <time>2026-03-20T13:21:48Z</time>
      </trkpt>
      <trkpt lat="48.59534" lon="2.07297">
        <ele>107.8</ele>
        <time>2026-03-20T13:21:49Z</time>
      </trkpt>
      <trkpt lat="48.5954" lon="2.07302">
        <ele>107.8</ele>
        <time>2026-03-20T13:21:50Z</time>
      </trkpt>
      <trkpt lat="48.59545" lon="2.07307">
        <ele>107</ele>
        <time>2026-03-20T13:21:51Z</time>
      </trkpt>
      <trkpt lat="48.59551" lon="2.07311">
        <ele>106.8</ele>
        <time>2026-03-20T13:21:52Z</time>
      </trkpt>
      <trkpt lat="48.59557" lon="2.07316">
        <ele>106.8</ele>
        <time>2026-03-20T13:21:53Z</time>
      </trkpt>
      <trkpt lat="48.59563" lon="2.0732">
        <ele>106.8</ele>
        <time>2026-03-20T13:21:54Z</time>
      </trkpt>
      <trkpt lat="48.59569" lon="2.07324">
        <ele>106.2</ele>
        <time>2026-03-20T13:21:55Z</time>
      </trkpt>
      <trkpt lat="48.59575" lon="2.07329">
        <ele>105.2</ele>
        <time>2026-03-20T13:21:56Z</time>
      </trkpt>
      <trkpt lat="48.5958" lon="2.07334">
        <ele>105.2</ele>
        <time>2026-03-20T13:21:57Z</time>
      </trkpt>
      <trkpt lat="48.59586" lon="2.07339">
        <ele>105.2</ele>
        <time>2026-03-20T13:21:58Z</time>
      </trkpt>
      <trkpt lat="48.59592" lon="2.07344">
        <ele>105.2</ele>
        <time>2026-03-20T13:21:59Z</time>
      </trkpt>
      <trkpt lat="48.59596" lon="2.0735">
        <ele>105</ele>
        <time>2026-03-20T13:22:00Z</time>
      </trkpt>
      <trkpt lat="48.596" lon="2.07356">
        <ele>105</ele>
        <time>2026-03-20T13:22:01Z</time>
      </trkpt>
      <trkpt lat="48.59605" lon="2.07362">
        <ele>105</ele>
        <time>2026-03-20T13:22:02Z</time>
      </trkpt>
      <trkpt lat="48.5961" lon="2.07369">
        <ele>104</ele>
        <time>2026-03-20T13:22:03Z</time>
      </trkpt>
      <trkpt lat="48.59614" lon="2.07375">
        <ele>104</ele>
        <time>2026-03-20T13:22:04Z</time>
      </trkpt>
      <trkpt lat="48.59619" lon="2.07382">
        <ele>104</ele>
        <time>2026-03-20T13:22:05Z</time>
      </trkpt>
      <trkpt lat="48.59624" lon="2.07389">
        <ele>104</ele>
        <time>2026-03-20T13:22:06Z</time>
      </trkpt>
      <trkpt lat="48.59628" lon="2.07396">
        <ele>103.6</ele>
        <time>2026-03-20T13:22:07Z</time>
      </trkpt>
      <trkpt lat="48.59633" lon="2.07402">
        <ele>103.6</ele>
        <time>2026-03-20T13:22:08Z</time>
      </trkpt>
      <trkpt lat="48.59638" lon="2.07409">
        <ele>103.6</ele>
        <time>2026-03-20T13:22:09Z</time>
      </trkpt>
      <trkpt lat="48.59643" lon="2.07416">
        <ele>103.6</ele>
        <time>2026-03-20T13:22:10Z</time>
      </trkpt>
      <trkpt lat="48.59648" lon="2.07423">
        <ele>103.6</ele>
        <time>2026-03-20T13:22:11Z</time>
      </trkpt>
      <trkpt lat="48.59653" lon="2.07429">
        <ele>103</ele>
        <time>2026-03-20T13:22:12Z</time>
      </trkpt>
      <trkpt lat="48.59658" lon="2.07436">
        <ele>103</ele>
        <time>2026-03-20T13:22:13Z</time>
      </trkpt>
      <trkpt lat="48.59662" lon="2.07443">
        <ele>103</ele>
        <time>2026-03-20T13:22:14Z</time>
      </trkpt>
      <trkpt lat="48.59666" lon="2.0745">
        <ele>103</ele>
        <time>2026-03-20T13:22:15Z</time>
      </trkpt>
      <trkpt lat="48.5967" lon="2.07457">
        <ele>103.8</ele>
        <time>2026-03-20T13:22:16Z</time>
      </trkpt>
      <trkpt lat="48.59674" lon="2.07465">
        <ele>103.8</ele>
        <time>2026-03-20T13:22:17Z</time>
      </trkpt>
      <trkpt lat="48.59678" lon="2.07472">
        <ele>103.8</ele>
        <time>2026-03-20T13:22:18Z</time>
      </trkpt>
      <trkpt lat="48.59682" lon="2.0748">
        <ele>103.4</ele>
        <time>2026-03-20T13:22:19Z</time>
      </trkpt>
      <trkpt lat="48.59685" lon="2.07487">
        <ele>102.8</ele>
        <time>2026-03-20T13:22:20Z</time>
      </trkpt>
      <trkpt lat="48.59689" lon="2.07495">
        <ele>102.8</ele>
        <time>2026-03-20T13:22:21Z</time>
      </trkpt>
      <trkpt lat="48.59692" lon="2.07503">
        <ele>102.8</ele>
        <time>2026-03-20T13:22:22Z</time>
      </trkpt>
      <trkpt lat="48.59696" lon="2.0751">
        <ele>103.8</ele>
        <time>2026-03-20T13:22:23Z</time>
      </trkpt>
      <trkpt lat="48.59699" lon="2.07518">
        <ele>103</ele>
        <time>2026-03-20T13:22:24Z</time>
      </trkpt>
      <trkpt lat="48.59703" lon="2.07525">
        <ele>103</ele>
        <time>2026-03-20T13:22:25Z</time>
      </trkpt>
      <trkpt lat="48.59706" lon="2.07532">
        <ele>103</ele>
        <time>2026-03-20T13:22:26Z</time>
      </trkpt>
      <trkpt lat="48.5971" lon="2.07539">
        <ele>104</ele>
        <time>2026-03-20T13:22:27Z</time>
      </trkpt>
      <trkpt lat="48.59715" lon="2.07545">
        <ele>105</ele>
        <time>2026-03-20T13:22:28Z</time>
      </trkpt>
      <trkpt lat="48.59719" lon="2.07551">
        <ele>105</ele>
        <time>2026-03-20T13:22:29Z</time>
      </trkpt>
      <trkpt lat="48.59723" lon="2.07557">
        <ele>105</ele>
        <time>2026-03-20T13:22:30Z</time>
      </trkpt>
      <trkpt lat="48.59728" lon="2.07563">
        <ele>105</ele>
        <time>2026-03-20T13:22:31Z</time>
      </trkpt>
      <trkpt lat="48.59732" lon="2.07568">
        <ele>105.4</ele>
        <time>2026-03-20T13:22:32Z</time>
      </trkpt>
      <trkpt lat="48.59737" lon="2.07572">
        <ele>105.4</ele>
        <time>2026-03-20T13:22:33Z</time>
      </trkpt>
      <trkpt lat="48.59742" lon="2.07576">
        <ele>105.4</ele>
        <time>2026-03-20T13:22:34Z</time>
      </trkpt>
      <trkpt lat="48.59747" lon="2.0758">
        <ele>105.4</ele>
        <time>2026-03-20T13:22:35Z</time>
      </trkpt>
      <trkpt lat="48.59752" lon="2.07583">
        <ele>105.6</ele>
        <time>2026-03-20T13:22:36Z</time>
      </trkpt>
      <trkpt lat="48.59756" lon="2.07587">
        <ele>105.6</ele>
        <time>2026-03-20T13:22:37Z</time>
      </trkpt>
      <trkpt lat="48.5976" lon="2.0759">
        <ele>105.6</ele>
        <time>2026-03-20T13:22:38Z</time>
      </trkpt>
      <trkpt lat="48.59764" lon="2.07593">
        <ele>105.6</ele>
        <time>2026-03-20T13:22:39Z</time>
      </trkpt>
      <trkpt lat="48.59768" lon="2.07596">
        <ele>105.2</ele>
        <time>2026-03-20T13:22:40Z</time>
      </trkpt>
      <trkpt lat="48.59772" lon="2.07599">
        <ele>105.2</ele>
        <time>2026-03-20T13:22:41Z</time>
      </trkpt>
      <trkpt lat="48.59776" lon="2.07602">
        <ele>105.2</ele>
        <time>2026-03-20T13:22:42Z</time>
      </trkpt>
      <trkpt lat="48.59779" lon="2.07605">
        <ele>106.2</ele>
        <time>2026-03-20T13:22:43Z</time>
      </trkpt>
      <trkpt lat="48.59783" lon="2.07608">
        <ele>105.4</ele>
        <time>2026-03-20T13:22:44Z</time>
      </trkpt>
      <trkpt lat="48.59786" lon="2.07611">
        <ele>105.4</ele>
        <time>2026-03-20T13:22:45Z</time>
      </trkpt>
      <trkpt lat="48.5979" lon="2.07613">
        <ele>105.4</ele>
        <time>2026-03-20T13:22:46Z</time>
      </trkpt>
      <trkpt lat="48.59793" lon="2.07616">
        <ele>106</ele>
        <time>2026-03-20T13:22:47Z</time>
      </trkpt>
      <trkpt lat="48.59796" lon="2.07619">
        <ele>106.6</ele>
        <time>2026-03-20T13:22:48Z</time>
      </trkpt>
      <trkpt lat="48.59799" lon="2.07622">
        <ele>106.6</ele>
        <time>2026-03-20T13:22:49Z</time>
      </trkpt>
      <trkpt lat="48.59802" lon="2.07625">
        <ele>106.6</ele>
        <time>2026-03-20T13:22:50Z</time>
      </trkpt>
      <trkpt lat="48.59805" lon="2.07627">
        <ele>106.4</ele>
        <time>2026-03-20T13:22:51Z</time>
      </trkpt>
      <trkpt lat="48.59809" lon="2.07629">
        <ele>107</ele>
        <time>2026-03-20T13:22:52Z</time>
      </trkpt>
      <trkpt lat="48.59812" lon="2.07632">
        <ele>107</ele>
        <time>2026-03-20T13:22:53Z</time>
      </trkpt>
      <trkpt lat="48.59815" lon="2.07635">
        <ele>107</ele>
        <time>2026-03-20T13:22:54Z</time>
      </trkpt>
      <trkpt lat="48.59818" lon="2.07638">
        <ele>107</ele>
        <time>2026-03-20T13:22:55Z</time>
      </trkpt>
      <trkpt lat="48.5982" lon="2.0764">
        <ele>108.4</ele>
        <time>2026-03-20T13:22:56Z</time>
      </trkpt>
      <trkpt lat="48.59822" lon="2.07643">
        <ele>108.4</ele>
        <time>2026-03-20T13:22:57Z</time>
      </trkpt>
      <trkpt lat="48.59825" lon="2.07647">
        <ele>108.4</ele>
        <time>2026-03-20T13:22:58Z</time>
      </trkpt>
      <trkpt lat="48.59827" lon="2.07649">
        <ele>107.8</ele>
        <time>2026-03-20T13:22:59Z</time>
      </trkpt>
      <trkpt lat="48.59829" lon="2.07652">
        <ele>108.4</ele>
        <time>2026-03-20T13:23:00Z</time>
      </trkpt>
      <trkpt lat="48.59833" lon="2.07656">
        <ele>108.4</ele>
        <time>2026-03-20T13:23:01Z</time>
      </trkpt>
      <trkpt lat="48.59835" lon="2.0766">
        <ele>108.4</ele>
        <time>2026-03-20T13:23:02Z</time>
      </trkpt>
      <trkpt lat="48.59839" lon="2.07664">
        <ele>109</ele>
        <time>2026-03-20T13:23:03Z</time>
      </trkpt>
      <trkpt lat="48.59842" lon="2.07668">
        <ele>109</ele>
        <time>2026-03-20T13:23:04Z</time>
      </trkpt>
      <trkpt lat="48.59844" lon="2.07673">
        <ele>109</ele>
        <time>2026-03-20T13:23:05Z</time>
      </trkpt>
      <trkpt lat="48.59846" lon="2.07678">
        <ele>109</ele>
        <time>2026-03-20T13:23:06Z</time>
      </trkpt>
      <trkpt lat="48.59849" lon="2.07683">
        <ele>109</ele>
        <time>2026-03-20T13:23:07Z</time>
      </trkpt>
      <trkpt lat="48.59851" lon="2.07688">
        <ele>110.2</ele>
        <time>2026-03-20T13:23:08Z</time>
      </trkpt>
      <trkpt lat="48.59853" lon="2.07694">
        <ele>110.2</ele>
        <time>2026-03-20T13:23:09Z</time>
      </trkpt>
      <trkpt lat="48.59856" lon="2.07699">
        <ele>110.2</ele>
        <time>2026-03-20T13:23:10Z</time>
      </trkpt>
      <trkpt lat="48.59857" lon="2.07704">
        <ele>111.2</ele>
        <time>2026-03-20T13:23:11Z</time>
      </trkpt>
      <trkpt lat="48.59859" lon="2.0771">
        <ele>112</ele>
        <time>2026-03-20T13:23:12Z</time>
      </trkpt>
      <trkpt lat="48.59861" lon="2.07715">
        <ele>112</ele>
        <time>2026-03-20T13:23:13Z</time>
      </trkpt>
      <trkpt lat="48.59862" lon="2.0772">
        <ele>112</ele>
        <time>2026-03-20T13:23:14Z</time>
      </trkpt>
      <trkpt lat="48.59863" lon="2.07724">
        <ele>112</ele>
        <time>2026-03-20T13:23:15Z</time>
      </trkpt>
      <trkpt lat="48.59865" lon="2.0773">
        <ele>112</ele>
        <time>2026-03-20T13:23:16Z</time>
      </trkpt>
      <trkpt lat="48.59866" lon="2.07736">
        <ele>112</ele>
        <time>2026-03-20T13:23:17Z</time>
      </trkpt>
      <trkpt lat="48.59869" lon="2.07742">
        <ele>112</ele>
        <time>2026-03-20T13:23:18Z</time>
      </trkpt>
      <trkpt lat="48.59873" lon="2.07748">
        <ele>112.8</ele>
        <time>2026-03-20T13:23:19Z</time>
      </trkpt>
      <trkpt lat="48.59876" lon="2.07754">
        <ele>112.8</ele>
        <time>2026-03-20T13:23:20Z</time>
      </trkpt>
      <trkpt lat="48.5988" lon="2.0776">
        <ele>112.8</ele>
        <time>2026-03-20T13:23:21Z</time>
      </trkpt>
      <trkpt lat="48.59884" lon="2.07766">
        <ele>112.8</ele>
        <time>2026-03-20T13:23:22Z</time>
      </trkpt>
      <trkpt lat="48.59888" lon="2.07771">
        <ele>112.8</ele>
        <time>2026-03-20T13:23:23Z</time>
      </trkpt>
      <trkpt lat="48.59893" lon="2.07777">
        <ele>111.8</ele>
        <time>2026-03-20T13:23:24Z</time>
      </trkpt>
      <trkpt lat="48.59898" lon="2.07783">
        <ele>111.8</ele>
        <time>2026-03-20T13:23:25Z</time>
      </trkpt>
      <trkpt lat="48.59902" lon="2.07789">
        <ele>111.8</ele>
        <time>2026-03-20T13:23:26Z</time>
      </trkpt>
      <trkpt lat="48.59906" lon="2.07795">
        <ele>111.8</ele>
        <time>2026-03-20T13:23:27Z</time>
      </trkpt>
      <trkpt lat="48.5991" lon="2.07801">
        <ele>111.8</ele>
        <time>2026-03-20T13:23:28Z</time>
      </trkpt>
      <trkpt lat="48.59915" lon="2.07806">
        <ele>111.8</ele>
        <time>2026-03-20T13:23:29Z</time>
      </trkpt>
      <trkpt lat="48.59919" lon="2.07812">
        <ele>111.8</ele>
        <time>2026-03-20T13:23:30Z</time>
      </trkpt>
      <trkpt lat="48.59923" lon="2.07818">
        <ele>111.8</ele>
        <time>2026-03-20T13:23:31Z</time>
      </trkpt>
      <trkpt lat="48.59926" lon="2.07823">
        <ele>111.6</ele>
        <time>2026-03-20T13:23:32Z</time>
      </trkpt>
      <trkpt lat="48.59931" lon="2.07828">
        <ele>111.6</ele>
        <time>2026-03-20T13:23:33Z</time>
      </trkpt>
      <trkpt lat="48.59934" lon="2.07834">
        <ele>111.6</ele>
        <time>2026-03-20T13:23:34Z</time>
      </trkpt>
      <trkpt lat="48.59938" lon="2.07839">
        <ele>111.6</ele>
        <time>2026-03-20T13:23:35Z</time>
      </trkpt>
      <trkpt lat="48.59942" lon="2.07845">
        <ele>111.6</ele>
        <time>2026-03-20T13:23:36Z</time>
      </trkpt>
      <trkpt lat="48.59945" lon="2.0785">
        <ele>111.6</ele>
        <time>2026-03-20T13:23:37Z</time>
      </trkpt>
      <trkpt lat="48.59949" lon="2.07855">
        <ele>111.6</ele>
        <time>2026-03-20T13:23:38Z</time>
      </trkpt>
      <trkpt lat="48.59952" lon="2.0786">
        <ele>112.2</ele>
        <time>2026-03-20T13:23:39Z</time>
      </trkpt>
      <trkpt lat="48.59955" lon="2.07866">
        <ele>112.6</ele>
        <time>2026-03-20T13:23:40Z</time>
      </trkpt>
      <trkpt lat="48.59959" lon="2.07871">
        <ele>112.6</ele>
        <time>2026-03-20T13:23:41Z</time>
      </trkpt>
      <trkpt lat="48.59962" lon="2.07876">
        <ele>112.6</ele>
        <time>2026-03-20T13:23:42Z</time>
      </trkpt>
      <trkpt lat="48.59965" lon="2.07882">
        <ele>112.6</ele>
        <time>2026-03-20T13:23:43Z</time>
      </trkpt>
      <trkpt lat="48.59969" lon="2.07887">
        <ele>112.2</ele>
        <time>2026-03-20T13:23:44Z</time>
      </trkpt>
      <trkpt lat="48.59972" lon="2.07892">
        <ele>112.2</ele>
        <time>2026-03-20T13:23:45Z</time>
      </trkpt>
      <trkpt lat="48.59975" lon="2.07897">
        <ele>112.2</ele>
        <time>2026-03-20T13:23:46Z</time>
      </trkpt>
      <trkpt lat="48.59978" lon="2.07902">
        <ele>112.2</ele>
        <time>2026-03-20T13:23:47Z</time>
      </trkpt>
      <trkpt lat="48.59982" lon="2.07908">
        <ele>112.8</ele>
        <time>2026-03-20T13:23:48Z</time>
      </trkpt>
      <trkpt lat="48.59985" lon="2.07913">
        <ele>112.8</ele>
        <time>2026-03-20T13:23:49Z</time>
      </trkpt>
      <trkpt lat="48.59989" lon="2.07918">
        <ele>112.8</ele>
        <time>2026-03-20T13:23:50Z</time>
      </trkpt>
      <trkpt lat="48.59992" lon="2.07923">
        <ele>112</ele>
        <time>2026-03-20T13:23:51Z</time>
      </trkpt>
      <trkpt lat="48.59995" lon="2.07929">
        <ele>111.8</ele>
        <time>2026-03-20T13:23:52Z</time>
      </trkpt>
      <trkpt lat="48.59999" lon="2.07934">
        <ele>111.8</ele>
        <time>2026-03-20T13:23:53Z</time>
      </trkpt>
      <trkpt lat="48.60002" lon="2.07939">
        <ele>111.8</ele>
        <time>2026-03-20T13:23:54Z</time>
      </trkpt>
      <trkpt lat="48.60006" lon="2.07944">
        <ele>111.8</ele>
        <time>2026-03-20T13:23:55Z</time>
      </trkpt>
      <trkpt lat="48.60009" lon="2.07949">
        <ele>111.6</ele>
        <time>2026-03-20T13:23:56Z</time>
      </trkpt>
      <trkpt lat="48.60012" lon="2.07954">
        <ele>111.6</ele>
        <time>2026-03-20T13:23:57Z</time>
      </trkpt>
      <trkpt lat="48.60016" lon="2.07959">
        <ele>111.6</ele>
        <time>2026-03-20T13:23:58Z</time>
      </trkpt>
      <trkpt lat="48.6002" lon="2.07964">
        <ele>112.2</ele>
        <time>2026-03-20T13:23:59Z</time>
      </trkpt>
      <trkpt lat="48.60023" lon="2.07969">
        <ele>111.4</ele>
        <time>2026-03-20T13:24:00Z</time>
      </trkpt>
      <trkpt lat="48.60027" lon="2.07974">
        <ele>111.4</ele>
        <time>2026-03-20T13:24:01Z</time>
      </trkpt>
      <trkpt lat="48.6003" lon="2.07979">
        <ele>111.4</ele>
        <time>2026-03-20T13:24:02Z</time>
      </trkpt>
      <trkpt lat="48.60034" lon="2.07984">
        <ele>112</ele>
        <time>2026-03-20T13:24:03Z</time>
      </trkpt>
      <trkpt lat="48.60038" lon="2.07989">
        <ele>112.4</ele>
        <time>2026-03-20T13:24:04Z</time>
      </trkpt>
      <trkpt lat="48.60041" lon="2.07994">
        <ele>112.4</ele>
        <time>2026-03-20T13:24:05Z</time>
      </trkpt>
      <trkpt lat="48.60045" lon="2.07999">
        <ele>112.4</ele>
        <time>2026-03-20T13:24:06Z</time>
      </trkpt>
      <trkpt lat="48.60049" lon="2.08004">
        <ele>111.6</ele>
        <time>2026-03-20T13:24:07Z</time>
      </trkpt>
      <trkpt lat="48.60052" lon="2.08009">
        <ele>111.2</ele>
        <time>2026-03-20T13:24:08Z</time>
      </trkpt>
      <trkpt lat="48.60056" lon="2.08014">
        <ele>111.2</ele>
        <time>2026-03-20T13:24:09Z</time>
      </trkpt>
      <trkpt lat="48.6006" lon="2.08019">
        <ele>111.2</ele>
        <time>2026-03-20T13:24:10Z</time>
      </trkpt>
      <trkpt lat="48.60064" lon="2.08024">
        <ele>111.2</ele>
        <time>2026-03-20T13:24:11Z</time>
      </trkpt>
      <trkpt lat="48.60068" lon="2.0803">
        <ele>111.8</ele>
        <time>2026-03-20T13:24:12Z</time>
      </trkpt>
      <trkpt lat="48.60071" lon="2.08035">
        <ele>111.8</ele>
        <time>2026-03-20T13:24:13Z</time>
      </trkpt>
      <trkpt lat="48.60075" lon="2.0804">
        <ele>111.8</ele>
        <time>2026-03-20T13:24:14Z</time>
      </trkpt>
      <trkpt lat="48.60079" lon="2.08045">
        <ele>112</ele>
        <time>2026-03-20T13:24:15Z</time>
      </trkpt>
      <trkpt lat="48.60083" lon="2.0805">
        <ele>112.2</ele>
        <time>2026-03-20T13:24:16Z</time>
      </trkpt>
      <trkpt lat="48.60087" lon="2.08055">
        <ele>112.2</ele>
        <time>2026-03-20T13:24:17Z</time>
      </trkpt>
      <trkpt lat="48.60091" lon="2.08061">
        <ele>112.2</ele>
        <time>2026-03-20T13:24:18Z</time>
      </trkpt>
      <trkpt lat="48.60095" lon="2.08066">
        <ele>112.2</ele>
        <time>2026-03-20T13:24:19Z</time>
      </trkpt>
      <trkpt lat="48.60099" lon="2.08072">
        <ele>112</ele>
        <time>2026-03-20T13:24:20Z</time>
      </trkpt>
      <trkpt lat="48.60103" lon="2.08077">
        <ele>112</ele>
        <time>2026-03-20T13:24:21Z</time>
      </trkpt>
      <trkpt lat="48.60107" lon="2.08082">
        <ele>112</ele>
        <time>2026-03-20T13:24:22Z</time>
      </trkpt>
      <trkpt lat="48.60111" lon="2.08087">
        <ele>112</ele>
        <time>2026-03-20T13:24:23Z</time>
      </trkpt>
      <trkpt lat="48.60114" lon="2.08092">
        <ele>111.2</ele>
        <time>2026-03-20T13:24:24Z</time>
      </trkpt>
      <trkpt lat="48.60117" lon="2.08098">
        <ele>111.2</ele>
        <time>2026-03-20T13:24:25Z</time>
      </trkpt>
      <trkpt lat="48.6012" lon="2.08103">
        <ele>111.2</ele>
        <time>2026-03-20T13:24:26Z</time>
      </trkpt>
      <trkpt lat="48.60124" lon="2.08109">
        <ele>111.2</ele>
        <time>2026-03-20T13:24:27Z</time>
      </trkpt>
      <trkpt lat="48.60127" lon="2.08114">
        <ele>111</ele>
        <time>2026-03-20T13:24:28Z</time>
      </trkpt>
      <trkpt lat="48.60131" lon="2.0812">
        <ele>111</ele>
        <time>2026-03-20T13:24:29Z</time>
      </trkpt>
      <trkpt lat="48.60134" lon="2.08126">
        <ele>111</ele>
        <time>2026-03-20T13:24:30Z</time>
      </trkpt>
      <trkpt lat="48.60137" lon="2.08131">
        <ele>111</ele>
        <time>2026-03-20T13:24:31Z</time>
      </trkpt>
      <trkpt lat="48.60141" lon="2.08137">
        <ele>110</ele>
        <time>2026-03-20T13:24:32Z</time>
      </trkpt>
      <trkpt lat="48.60144" lon="2.08143">
        <ele>110</ele>
        <time>2026-03-20T13:24:33Z</time>
      </trkpt>
      <trkpt lat="48.60147" lon="2.08149">
        <ele>110</ele>
        <time>2026-03-20T13:24:34Z</time>
      </trkpt>
      <trkpt lat="48.6015" lon="2.08156">
        <ele>110</ele>
        <time>2026-03-20T13:24:35Z</time>
      </trkpt>
      <trkpt lat="48.60153" lon="2.08162">
        <ele>108.6</ele>
        <time>2026-03-20T13:24:36Z</time>
      </trkpt>
      <trkpt lat="48.60156" lon="2.08168">
        <ele>108.6</ele>
        <time>2026-03-20T13:24:37Z</time>
      </trkpt>
      <trkpt lat="48.60159" lon="2.08175">
        <ele>108.6</ele>
        <time>2026-03-20T13:24:38Z</time>
      </trkpt>
      <trkpt lat="48.60163" lon="2.08181">
        <ele>109</ele>
        <time>2026-03-20T13:24:39Z</time>
      </trkpt>
      <trkpt lat="48.60166" lon="2.08187">
        <ele>110.2</ele>
        <time>2026-03-20T13:24:40Z</time>
      </trkpt>
      <trkpt lat="48.60169" lon="2.08194">
        <ele>110.2</ele>
        <time>2026-03-20T13:24:41Z</time>
      </trkpt>
      <trkpt lat="48.60172" lon="2.082">
        <ele>110.2</ele>
        <time>2026-03-20T13:24:42Z</time>
      </trkpt>
      <trkpt lat="48.60174" lon="2.08207">
        <ele>110.2</ele>
        <time>2026-03-20T13:24:43Z</time>
      </trkpt>
      <trkpt lat="48.60178" lon="2.08213">
        <ele>108.2</ele>
        <time>2026-03-20T13:24:44Z</time>
      </trkpt>
      <trkpt lat="48.60181" lon="2.0822">
        <ele>108.2</ele>
        <time>2026-03-20T13:24:45Z</time>
      </trkpt>
      <trkpt lat="48.60183" lon="2.08226">
        <ele>108.2</ele>
        <time>2026-03-20T13:24:46Z</time>
      </trkpt>
      <trkpt lat="48.60187" lon="2.08233">
        <ele>108.2</ele>
        <time>2026-03-20T13:24:47Z</time>
      </trkpt>
      <trkpt lat="48.6019" lon="2.08239">
        <ele>107.2</ele>
        <time>2026-03-20T13:24:48Z</time>
      </trkpt>
      <trkpt lat="48.60193" lon="2.08246">
        <ele>107.2</ele>
        <time>2026-03-20T13:24:49Z</time>
      </trkpt>
      <trkpt lat="48.60196" lon="2.08252">
        <ele>107.2</ele>
        <time>2026-03-20T13:24:50Z</time>
      </trkpt>
      <trkpt lat="48.60199" lon="2.08259">
        <ele>107.6</ele>
        <time>2026-03-20T13:24:51Z</time>
      </trkpt>
      <trkpt lat="48.60202" lon="2.08265">
        <ele>108.4</ele>
        <time>2026-03-20T13:24:52Z</time>
      </trkpt>
      <trkpt lat="48.60205" lon="2.08272">
        <ele>108.4</ele>
        <time>2026-03-20T13:24:53Z</time>
      </trkpt>
      <trkpt lat="48.60207" lon="2.08278">
        <ele>108.4</ele>
        <time>2026-03-20T13:24:54Z</time>
      </trkpt>
      <trkpt lat="48.6021" lon="2.08285">
        <ele>109.4</ele>
        <time>2026-03-20T13:24:55Z</time>
      </trkpt>
      <trkpt lat="48.60213" lon="2.08292">
        <ele>108.2</ele>
        <time>2026-03-20T13:24:56Z</time>
      </trkpt>
      <trkpt lat="48.60215" lon="2.083">
        <ele>108.2</ele>
        <time>2026-03-20T13:24:57Z</time>
      </trkpt>
      <trkpt lat="48.60218" lon="2.08307">
        <ele>108.2</ele>
        <time>2026-03-20T13:24:58Z</time>
      </trkpt>
      <trkpt lat="48.6022" lon="2.08315">
        <ele>109</ele>
        <time>2026-03-20T13:24:59Z</time>
      </trkpt>
      <trkpt lat="48.60221" lon="2.08323">
        <ele>110</ele>
        <time>2026-03-20T13:25:00Z</time>
      </trkpt>
      <trkpt lat="48.60223" lon="2.08331">
        <ele>110</ele>
        <time>2026-03-20T13:25:01Z</time>
      </trkpt>
      <trkpt lat="48.60225" lon="2.08339">
        <ele>110</ele>
        <time>2026-03-20T13:25:02Z</time>
      </trkpt>
      <trkpt lat="48.60227" lon="2.08347">
        <ele>110.2</ele>
        <time>2026-03-20T13:25:03Z</time>
      </trkpt>
      <trkpt lat="48.60228" lon="2.08355">
        <ele>110.2</ele>
        <time>2026-03-20T13:25:04Z</time>
      </trkpt>
      <trkpt lat="48.6023" lon="2.08364">
        <ele>110.2</ele>
        <time>2026-03-20T13:25:05Z</time>
      </trkpt>
      <trkpt lat="48.60232" lon="2.08372">
        <ele>110.2</ele>
        <time>2026-03-20T13:25:06Z</time>
      </trkpt>
      <trkpt lat="48.60233" lon="2.0838">
        <ele>110.2</ele>
        <time>2026-03-20T13:25:07Z</time>
      </trkpt>
      <trkpt lat="48.60235" lon="2.08388">
        <ele>108.8</ele>
        <time>2026-03-20T13:25:08Z</time>
      </trkpt>
      <trkpt lat="48.60237" lon="2.08396">
        <ele>108.8</ele>
        <time>2026-03-20T13:25:09Z</time>
      </trkpt>
      <trkpt lat="48.60239" lon="2.08403">
        <ele>108.8</ele>
        <time>2026-03-20T13:25:10Z</time>
      </trkpt>
      <trkpt lat="48.6024" lon="2.08411">
        <ele>109.8</ele>
        <time>2026-03-20T13:25:11Z</time>
      </trkpt>
      <trkpt lat="48.60242" lon="2.08419">
        <ele>111</ele>
        <time>2026-03-20T13:25:12Z</time>
      </trkpt>
      <trkpt lat="48.60244" lon="2.08426">
        <ele>111</ele>
        <time>2026-03-20T13:25:13Z</time>
      </trkpt>
      <trkpt lat="48.60245" lon="2.08433">
        <ele>111</ele>
        <time>2026-03-20T13:25:14Z</time>
      </trkpt>
      <trkpt lat="48.60246" lon="2.0844">
        <ele>111.4</ele>
        <time>2026-03-20T13:25:15Z</time>
      </trkpt>
      <trkpt lat="48.60248" lon="2.08446">
        <ele>111</ele>
        <time>2026-03-20T13:25:16Z</time>
      </trkpt>
      <trkpt lat="48.60249" lon="2.08452">
        <ele>111</ele>
        <time>2026-03-20T13:25:17Z</time>
      </trkpt>
      <trkpt lat="48.6025" lon="2.08458">
        <ele>111</ele>
        <time>2026-03-20T13:25:18Z</time>
      </trkpt>
      <trkpt lat="48.60252" lon="2.08464">
        <ele>112</ele>
        <time>2026-03-20T13:25:19Z</time>
      </trkpt>
      <trkpt lat="48.60253" lon="2.0847">
        <ele>112.2</ele>
        <time>2026-03-20T13:25:20Z</time>
      </trkpt>
      <trkpt lat="48.60254" lon="2.08476">
        <ele>112.2</ele>
        <time>2026-03-20T13:25:21Z</time>
      </trkpt>
      <trkpt lat="48.60255" lon="2.08481">
        <ele>112.2</ele>
        <time>2026-03-20T13:25:22Z</time>
      </trkpt>
      <trkpt lat="48.60256" lon="2.08487">
        <ele>112.8</ele>
        <time>2026-03-20T13:25:23Z</time>
      </trkpt>
      <trkpt lat="48.60257" lon="2.08493">
        <ele>112.6</ele>
        <time>2026-03-20T13:25:24Z</time>
      </trkpt>
      <trkpt lat="48.60259" lon="2.08499">
        <ele>112.6</ele>
        <time>2026-03-20T13:25:25Z</time>
      </trkpt>
      <trkpt lat="48.6026" lon="2.08505">
        <ele>112.6</ele>
        <time>2026-03-20T13:25:26Z</time>
      </trkpt>
      <trkpt lat="48.60261" lon="2.08511">
        <ele>112.6</ele>
        <time>2026-03-20T13:25:27Z</time>
      </trkpt>
      <trkpt lat="48.60263" lon="2.08517">
        <ele>112.2</ele>
        <time>2026-03-20T13:25:28Z</time>
      </trkpt>
      <trkpt lat="48.60264" lon="2.08523">
        <ele>112.2</ele>
        <time>2026-03-20T13:25:29Z</time>
      </trkpt>
      <trkpt lat="48.60266" lon="2.08529">
        <ele>112.2</ele>
        <time>2026-03-20T13:25:30Z</time>
      </trkpt>
      <trkpt lat="48.60267" lon="2.08535">
        <ele>112.2</ele>
        <time>2026-03-20T13:25:31Z</time>
      </trkpt>
      <trkpt lat="48.60269" lon="2.08541">
        <ele>112.2</ele>
        <time>2026-03-20T13:25:32Z</time>
      </trkpt>
      <trkpt lat="48.6027" lon="2.08547">
        <ele>112.2</ele>
        <time>2026-03-20T13:25:33Z</time>
      </trkpt>
      <trkpt lat="48.60271" lon="2.08553">
        <ele>112.2</ele>
        <time>2026-03-20T13:25:34Z</time>
      </trkpt>
      <trkpt lat="48.60272" lon="2.08559">
        <ele>112.6</ele>
        <time>2026-03-20T13:25:35Z</time>
      </trkpt>
      <trkpt lat="48.60274" lon="2.08565">
        <ele>112.2</ele>
        <time>2026-03-20T13:25:36Z</time>
      </trkpt>
      <trkpt lat="48.60275" lon="2.08572">
        <ele>112.2</ele>
        <time>2026-03-20T13:25:37Z</time>
      </trkpt>
      <trkpt lat="48.60276" lon="2.08579">
        <ele>112.2</ele>
        <time>2026-03-20T13:25:38Z</time>
      </trkpt>
      <trkpt lat="48.60276" lon="2.08585">
        <ele>112.2</ele>
        <time>2026-03-20T13:25:39Z</time>
      </trkpt>
      <trkpt lat="48.60277" lon="2.08592">
        <ele>112.8</ele>
        <time>2026-03-20T13:25:40Z</time>
      </trkpt>
      <trkpt lat="48.60277" lon="2.08599">
        <ele>112.8</ele>
        <time>2026-03-20T13:25:41Z</time>
      </trkpt>
      <trkpt lat="48.60277" lon="2.08606">
        <ele>112.8</ele>
        <time>2026-03-20T13:25:42Z</time>
      </trkpt>
      <trkpt lat="48.60277" lon="2.08614">
        <ele>112.8</ele>
        <time>2026-03-20T13:25:43Z</time>
      </trkpt>
      <trkpt lat="48.60278" lon="2.08621">
        <ele>113.6</ele>
        <time>2026-03-20T13:25:44Z</time>
      </trkpt>
      <trkpt lat="48.60278" lon="2.08628">
        <ele>113.6</ele>
        <time>2026-03-20T13:25:45Z</time>
      </trkpt>
      <trkpt lat="48.60279" lon="2.08635">
        <ele>113.6</ele>
        <time>2026-03-20T13:25:46Z</time>
      </trkpt>
      <trkpt lat="48.6028" lon="2.08641">
        <ele>113.6</ele>
        <time>2026-03-20T13:25:47Z</time>
      </trkpt>
      <trkpt lat="48.60281" lon="2.08648">
        <ele>113.2</ele>
        <time>2026-03-20T13:25:48Z</time>
      </trkpt>
      <trkpt lat="48.60283" lon="2.08655">
        <ele>113.2</ele>
        <time>2026-03-20T13:25:49Z</time>
      </trkpt>
      <trkpt lat="48.60284" lon="2.08662">
        <ele>113.2</ele>
        <time>2026-03-20T13:25:50Z</time>
      </trkpt>
      <trkpt lat="48.60285" lon="2.08669">
        <ele>112.4</ele>
        <time>2026-03-20T13:25:51Z</time>
      </trkpt>
      <trkpt lat="48.60286" lon="2.08675">
        <ele>112.6</ele>
        <time>2026-03-20T13:25:52Z</time>
      </trkpt>
      <trkpt lat="48.60287" lon="2.08682">
        <ele>112.6</ele>
        <time>2026-03-20T13:25:53Z</time>
      </trkpt>
      <trkpt lat="48.60288" lon="2.08689">
        <ele>112.6</ele>
        <time>2026-03-20T13:25:54Z</time>
      </trkpt>
      <trkpt lat="48.60289" lon="2.08696">
        <ele>113.4</ele>
        <time>2026-03-20T13:25:55Z</time>
      </trkpt>
      <trkpt lat="48.60289" lon="2.08702">
        <ele>113.6</ele>
        <time>2026-03-20T13:25:56Z</time>
      </trkpt>
      <trkpt lat="48.60291" lon="2.08709">
        <ele>113.6</ele>
        <time>2026-03-20T13:25:57Z</time>
      </trkpt>
      <trkpt lat="48.60292" lon="2.08716">
        <ele>113.6</ele>
        <time>2026-03-20T13:25:58Z</time>
      </trkpt>
      <trkpt lat="48.60293" lon="2.08723">
        <ele>113.6</ele>
        <time>2026-03-20T13:25:59Z</time>
      </trkpt>
      <trkpt lat="48.60294" lon="2.0873">
        <ele>112.8</ele>
        <time>2026-03-20T13:26:00Z</time>
      </trkpt>
      <trkpt lat="48.60294" lon="2.08738">
        <ele>112.8</ele>
        <time>2026-03-20T13:26:01Z</time>
      </trkpt>
      <trkpt lat="48.60295" lon="2.08745">
        <ele>112.8</ele>
        <time>2026-03-20T13:26:02Z</time>
      </trkpt>
      <trkpt lat="48.60296" lon="2.08752">
        <ele>113</ele>
        <time>2026-03-20T13:26:03Z</time>
      </trkpt>
      <trkpt lat="48.60297" lon="2.08759">
        <ele>112.4</ele>
        <time>2026-03-20T13:26:04Z</time>
      </trkpt>
      <trkpt lat="48.60298" lon="2.08766">
        <ele>112.4</ele>
        <time>2026-03-20T13:26:05Z</time>
      </trkpt>
      <trkpt lat="48.60299" lon="2.08773">
        <ele>112.4</ele>
        <time>2026-03-20T13:26:06Z</time>
      </trkpt>
      <trkpt lat="48.603" lon="2.0878">
        <ele>112.4</ele>
        <time>2026-03-20T13:26:07Z</time>
      </trkpt>
      <trkpt lat="48.603" lon="2.08788">
        <ele>112.8</ele>
        <time>2026-03-20T13:26:08Z</time>
      </trkpt>
      <trkpt lat="48.60301" lon="2.08795">
        <ele>112.8</ele>
        <time>2026-03-20T13:26:09Z</time>
      </trkpt>
      <trkpt lat="48.60302" lon="2.08803">
        <ele>112.8</ele>
        <time>2026-03-20T13:26:10Z</time>
      </trkpt>
      <trkpt lat="48.60303" lon="2.08811">
        <ele>113</ele>
        <time>2026-03-20T13:26:11Z</time>
      </trkpt>
      <trkpt lat="48.60303" lon="2.08818">
        <ele>112.8</ele>
        <time>2026-03-20T13:26:12Z</time>
      </trkpt>
      <trkpt lat="48.60304" lon="2.08826">
        <ele>112.8</ele>
        <time>2026-03-20T13:26:13Z</time>
      </trkpt>
      <trkpt lat="48.60304" lon="2.08833">
        <ele>112.8</ele>
        <time>2026-03-20T13:26:14Z</time>
      </trkpt>
      <trkpt lat="48.60305" lon="2.0884">
        <ele>112.2</ele>
        <time>2026-03-20T13:26:15Z</time>
      </trkpt>
      <trkpt lat="48.60305" lon="2.08847">
        <ele>112.6</ele>
        <time>2026-03-20T13:26:16Z</time>
      </trkpt>
      <trkpt lat="48.60305" lon="2.08853">
        <ele>112.6</ele>
        <time>2026-03-20T13:26:17Z</time>
      </trkpt>
      <trkpt lat="48.60306" lon="2.0886">
        <ele>112.6</ele>
        <time>2026-03-20T13:26:18Z</time>
      </trkpt>
      <trkpt lat="48.60306" lon="2.08868">
        <ele>111.8</ele>
        <time>2026-03-20T13:26:19Z</time>
      </trkpt>
      <trkpt lat="48.60306" lon="2.08875">
        <ele>112</ele>
        <time>2026-03-20T13:26:20Z</time>
      </trkpt>
      <trkpt lat="48.60307" lon="2.08882">
        <ele>112</ele>
        <time>2026-03-20T13:26:21Z</time>
      </trkpt>
      <trkpt lat="48.60307" lon="2.0889">
        <ele>112</ele>
        <time>2026-03-20T13:26:22Z</time>
      </trkpt>
      <trkpt lat="48.60307" lon="2.08898">
        <ele>112</ele>
        <time>2026-03-20T13:26:23Z</time>
      </trkpt>
      <trkpt lat="48.60308" lon="2.08905">
        <ele>111.8</ele>
        <time>2026-03-20T13:26:24Z</time>
      </trkpt>
      <trkpt lat="48.60308" lon="2.08913">
        <ele>111.8</ele>
        <time>2026-03-20T13:26:25Z</time>
      </trkpt>
      <trkpt lat="48.60308" lon="2.0892">
        <ele>111.8</ele>
        <time>2026-03-20T13:26:26Z</time>
      </trkpt>
      <trkpt lat="48.60308" lon="2.08928">
        <ele>111.8</ele>
        <time>2026-03-20T13:26:27Z</time>
      </trkpt>
      <trkpt lat="48.60308" lon="2.08935">
        <ele>111.8</ele>
        <time>2026-03-20T13:26:28Z</time>
      </trkpt>
      <trkpt lat="48.60308" lon="2.08943">
        <ele>111.8</ele>
        <time>2026-03-20T13:26:29Z</time>
      </trkpt>
      <trkpt lat="48.60309" lon="2.0895">
        <ele>111.8</ele>
        <time>2026-03-20T13:26:30Z</time>
      </trkpt>
      <trkpt lat="48.60309" lon="2.08958">
        <ele>111.8</ele>
        <time>2026-03-20T13:26:31Z</time>
      </trkpt>
      <trkpt lat="48.60309" lon="2.08965">
        <ele>111.8</ele>
        <time>2026-03-20T13:26:32Z</time>
      </trkpt>
      <trkpt lat="48.60309" lon="2.08973">
        <ele>111.8</ele>
        <time>2026-03-20T13:26:33Z</time>
      </trkpt>
      <trkpt lat="48.6031" lon="2.0898">
        <ele>111.8</ele>
        <time>2026-03-20T13:26:34Z</time>
      </trkpt>
      <trkpt lat="48.6031" lon="2.08988">
        <ele>111.8</ele>
        <time>2026-03-20T13:26:35Z</time>
      </trkpt>
      <trkpt lat="48.6031" lon="2.08995">
        <ele>110.6</ele>
        <time>2026-03-20T13:26:36Z</time>
      </trkpt>
      <trkpt lat="48.60311" lon="2.09002">
        <ele>110.6</ele>
        <time>2026-03-20T13:26:37Z</time>
      </trkpt>
      <trkpt lat="48.60311" lon="2.0901">
        <ele>110.6</ele>
        <time>2026-03-20T13:26:38Z</time>
      </trkpt>
      <trkpt lat="48.60312" lon="2.09017">
        <ele>111.6</ele>
        <time>2026-03-20T13:26:39Z</time>
      </trkpt>
      <trkpt lat="48.60312" lon="2.09024">
        <ele>111.8</ele>
        <time>2026-03-20T13:26:40Z</time>
      </trkpt>
      <trkpt lat="48.60313" lon="2.09032">
        <ele>111.8</ele>
        <time>2026-03-20T13:26:41Z</time>
      </trkpt>
      <trkpt lat="48.60313" lon="2.09039">
        <ele>111.8</ele>
        <time>2026-03-20T13:26:42Z</time>
      </trkpt>
      <trkpt lat="48.60314" lon="2.09046">
        <ele>112.2</ele>
        <time>2026-03-20T13:26:43Z</time>
      </trkpt>
      <trkpt lat="48.60314" lon="2.09054">
        <ele>112.4</ele>
        <time>2026-03-20T13:26:44Z</time>
      </trkpt>
      <trkpt lat="48.60314" lon="2.09061">
        <ele>112.4</ele>
        <time>2026-03-20T13:26:45Z</time>
      </trkpt>
      <trkpt lat="48.60314" lon="2.09069">
        <ele>112.4</ele>
        <time>2026-03-20T13:26:46Z</time>
      </trkpt>
      <trkpt lat="48.60314" lon="2.09076">
        <ele>113.2</ele>
        <time>2026-03-20T13:26:47Z</time>
      </trkpt>
      <trkpt lat="48.60314" lon="2.09084">
        <ele>113.2</ele>
        <time>2026-03-20T13:26:48Z</time>
      </trkpt>
      <trkpt lat="48.60315" lon="2.09091">
        <ele>113.2</ele>
        <time>2026-03-20T13:26:49Z</time>
      </trkpt>
      <trkpt lat="48.60315" lon="2.09099">
        <ele>113.2</ele>
        <time>2026-03-20T13:26:50Z</time>
      </trkpt>
      <trkpt lat="48.60315" lon="2.09106">
        <ele>112.8</ele>
        <time>2026-03-20T13:26:51Z</time>
      </trkpt>
      <trkpt lat="48.60316" lon="2.09114">
        <ele>112.8</ele>
        <time>2026-03-20T13:26:52Z</time>
      </trkpt>
      <trkpt lat="48.60316" lon="2.09122">
        <ele>112.8</ele>
        <time>2026-03-20T13:26:53Z</time>
      </trkpt>
      <trkpt lat="48.60316" lon="2.09129">
        <ele>112.8</ele>
        <time>2026-03-20T13:26:54Z</time>
      </trkpt>
      <trkpt lat="48.60317" lon="2.09137">
        <ele>112.8</ele>
        <time>2026-03-20T13:26:55Z</time>
      </trkpt>
      <trkpt lat="48.60317" lon="2.09145">
        <ele>112</ele>
        <time>2026-03-20T13:26:56Z</time>
      </trkpt>
      <trkpt lat="48.60318" lon="2.09153">
        <ele>112</ele>
        <time>2026-03-20T13:26:57Z</time>
      </trkpt>
      <trkpt lat="48.60318" lon="2.09161">
        <ele>112</ele>
        <time>2026-03-20T13:26:58Z</time>
      </trkpt>
      <trkpt lat="48.60318" lon="2.09169">
        <ele>112.2</ele>
        <time>2026-03-20T13:26:59Z</time>
      </trkpt>
      <trkpt lat="48.60319" lon="2.09177">
        <ele>112.4</ele>
        <time>2026-03-20T13:27:00Z</time>
      </trkpt>
      <trkpt lat="48.60319" lon="2.09185">
        <ele>112.4</ele>
        <time>2026-03-20T13:27:01Z</time>
      </trkpt>
      <trkpt lat="48.6032" lon="2.09194">
        <ele>112.4</ele>
        <time>2026-03-20T13:27:02Z</time>
      </trkpt>
      <trkpt lat="48.60321" lon="2.09202">
        <ele>111.6</ele>
        <time>2026-03-20T13:27:03Z</time>
      </trkpt>
      <trkpt lat="48.60321" lon="2.0921">
        <ele>112</ele>
        <time>2026-03-20T13:27:04Z</time>
      </trkpt>
      <trkpt lat="48.60322" lon="2.09219">
        <ele>112</ele>
        <time>2026-03-20T13:27:05Z</time>
      </trkpt>
      <trkpt lat="48.60323" lon="2.09227">
        <ele>112</ele>
        <time>2026-03-20T13:27:06Z</time>
      </trkpt>
      <trkpt lat="48.60323" lon="2.09236">
        <ele>112</ele>
        <time>2026-03-20T13:27:07Z</time>
      </trkpt>
      <trkpt lat="48.60324" lon="2.09244">
        <ele>111.8</ele>
        <time>2026-03-20T13:27:08Z</time>
      </trkpt>
      <trkpt lat="48.60325" lon="2.09253">
        <ele>111.8</ele>
        <time>2026-03-20T13:27:09Z</time>
      </trkpt>
      <trkpt lat="48.60325" lon="2.09261">
        <ele>111.8</ele>
        <time>2026-03-20T13:27:10Z</time>
      </trkpt>
      <trkpt lat="48.60326" lon="2.0927">
        <ele>111.4</ele>
        <time>2026-03-20T13:27:11Z</time>
      </trkpt>
      <trkpt lat="48.60327" lon="2.09279">
        <ele>112.2</ele>
        <time>2026-03-20T13:27:12Z</time>
      </trkpt>
      <trkpt lat="48.60327" lon="2.09287">
        <ele>112.2</ele>
        <time>2026-03-20T13:27:13Z</time>
      </trkpt>
      <trkpt lat="48.60328" lon="2.09296">
        <ele>112.2</ele>
        <time>2026-03-20T13:27:14Z</time>
      </trkpt>
      <trkpt lat="48.60329" lon="2.09305">
        <ele>111.2</ele>
        <time>2026-03-20T13:27:15Z</time>
      </trkpt>
      <trkpt lat="48.6033" lon="2.09313">
        <ele>110</ele>
        <time>2026-03-20T13:27:16Z</time>
      </trkpt>
      <trkpt lat="48.6033" lon="2.09322">
        <ele>110</ele>
        <time>2026-03-20T13:27:17Z</time>
      </trkpt>
      <trkpt lat="48.60331" lon="2.09331">
        <ele>110</ele>
        <time>2026-03-20T13:27:18Z</time>
      </trkpt>
      <trkpt lat="48.60332" lon="2.0934">
        <ele>110.6</ele>
        <time>2026-03-20T13:27:19Z</time>
      </trkpt>
      <trkpt lat="48.60332" lon="2.09348">
        <ele>110.6</ele>
        <time>2026-03-20T13:27:20Z</time>
      </trkpt>
      <trkpt lat="48.60333" lon="2.09357">
        <ele>110.6</ele>
        <time>2026-03-20T13:27:21Z</time>
      </trkpt>
      <trkpt lat="48.60334" lon="2.09366">
        <ele>110.6</ele>
        <time>2026-03-20T13:27:22Z</time>
      </trkpt>
      <trkpt lat="48.60334" lon="2.09374">
        <ele>110.4</ele>
        <time>2026-03-20T13:27:23Z</time>
      </trkpt>
      <trkpt lat="48.60335" lon="2.09383">
        <ele>110.8</ele>
        <time>2026-03-20T13:27:24Z</time>
      </trkpt>
      <trkpt lat="48.60336" lon="2.09391">
        <ele>110.8</ele>
        <time>2026-03-20T13:27:25Z</time>
      </trkpt>
      <trkpt lat="48.60336" lon="2.094">
        <ele>110.8</ele>
        <time>2026-03-20T13:27:26Z</time>
      </trkpt>
      <trkpt lat="48.60336" lon="2.09408">
        <ele>110.8</ele>
        <time>2026-03-20T13:27:27Z</time>
      </trkpt>
      <trkpt lat="48.60336" lon="2.09417">
        <ele>110.6</ele>
        <time>2026-03-20T13:27:28Z</time>
      </trkpt>
      <trkpt lat="48.60336" lon="2.09426">
        <ele>110.6</ele>
        <time>2026-03-20T13:27:29Z</time>
      </trkpt>
      <trkpt lat="48.60336" lon="2.09434">
        <ele>110.6</ele>
        <time>2026-03-20T13:27:30Z</time>
      </trkpt>
      <trkpt lat="48.60336" lon="2.09443">
        <ele>110.6</ele>
        <time>2026-03-20T13:27:31Z</time>
      </trkpt>
      <trkpt lat="48.60335" lon="2.09451">
        <ele>109.8</ele>
        <time>2026-03-20T13:27:32Z</time>
      </trkpt>
      <trkpt lat="48.60335" lon="2.0946">
        <ele>109.8</ele>
        <time>2026-03-20T13:27:33Z</time>
      </trkpt>
      <trkpt lat="48.60334" lon="2.09469">
        <ele>109.8</ele>
        <time>2026-03-20T13:27:34Z</time>
      </trkpt>
      <trkpt lat="48.60334" lon="2.09477">
        <ele>110.4</ele>
        <time>2026-03-20T13:27:35Z</time>
      </trkpt>
      <trkpt lat="48.60333" lon="2.09486">
        <ele>110.2</ele>
        <time>2026-03-20T13:27:36Z</time>
      </trkpt>
      <trkpt lat="48.60332" lon="2.09495">
        <ele>110.2</ele>
        <time>2026-03-20T13:27:37Z</time>
      </trkpt>
      <trkpt lat="48.60332" lon="2.09503">
        <ele>110.2</ele>
        <time>2026-03-20T13:27:38Z</time>
      </trkpt>
      <trkpt lat="48.60331" lon="2.09512">
        <ele>109.4</ele>
        <time>2026-03-20T13:27:39Z</time>
      </trkpt>
      <trkpt lat="48.60331" lon="2.0952">
        <ele>109.8</ele>
        <time>2026-03-20T13:27:40Z</time>
      </trkpt>
      <trkpt lat="48.6033" lon="2.09528">
        <ele>109.8</ele>
        <time>2026-03-20T13:27:41Z</time>
      </trkpt>
      <trkpt lat="48.60329" lon="2.09536">
        <ele>109.8</ele>
        <time>2026-03-20T13:27:42Z</time>
      </trkpt>
      <trkpt lat="48.60328" lon="2.09544">
        <ele>109.2</ele>
        <time>2026-03-20T13:27:43Z</time>
      </trkpt>
      <trkpt lat="48.60327" lon="2.09551">
        <ele>109.6</ele>
        <time>2026-03-20T13:27:44Z</time>
      </trkpt>
      <trkpt lat="48.60326" lon="2.09559">
        <ele>109.6</ele>
        <time>2026-03-20T13:27:45Z</time>
      </trkpt>
      <trkpt lat="48.60326" lon="2.09566">
        <ele>109.6</ele>
        <time>2026-03-20T13:27:46Z</time>
      </trkpt>
      <trkpt lat="48.60325" lon="2.09573">
        <ele>109</ele>
        <time>2026-03-20T13:27:47Z</time>
      </trkpt>
      <trkpt lat="48.60324" lon="2.0958">
        <ele>109.2</ele>
        <time>2026-03-20T13:27:48Z</time>
      </trkpt>
      <trkpt lat="48.60323" lon="2.09588">
        <ele>109.2</ele>
        <time>2026-03-20T13:27:49Z</time>
      </trkpt>
      <trkpt lat="48.60322" lon="2.09596">
        <ele>109.2</ele>
        <time>2026-03-20T13:27:50Z</time>
      </trkpt>
      <trkpt lat="48.60321" lon="2.09603">
        <ele>109.6</ele>
        <time>2026-03-20T13:27:51Z</time>
      </trkpt>
      <trkpt lat="48.6032" lon="2.09611">
        <ele>108.8</ele>
        <time>2026-03-20T13:27:52Z</time>
      </trkpt>
      <trkpt lat="48.60319" lon="2.09619">
        <ele>108.8</ele>
        <time>2026-03-20T13:27:53Z</time>
      </trkpt>
      <trkpt lat="48.60318" lon="2.09627">
        <ele>108.8</ele>
        <time>2026-03-20T13:27:54Z</time>
      </trkpt>
      <trkpt lat="48.60317" lon="2.09635">
        <ele>108.8</ele>
        <time>2026-03-20T13:27:55Z</time>
      </trkpt>
      <trkpt lat="48.60316" lon="2.09643">
        <ele>109.4</ele>
        <time>2026-03-20T13:27:56Z</time>
      </trkpt>
      <trkpt lat="48.60315" lon="2.09651">
        <ele>109.4</ele>
        <time>2026-03-20T13:27:57Z</time>
      </trkpt>
      <trkpt lat="48.60314" lon="2.09659">
        <ele>109.4</ele>
        <time>2026-03-20T13:27:58Z</time>
      </trkpt>
      <trkpt lat="48.60312" lon="2.09667">
        <ele>109.4</ele>
        <time>2026-03-20T13:27:59Z</time>
      </trkpt>
      <trkpt lat="48.60311" lon="2.09676">
        <ele>108.8</ele>
        <time>2026-03-20T13:28:00Z</time>
      </trkpt>
      <trkpt lat="48.6031" lon="2.09684">
        <ele>108.8</ele>
        <time>2026-03-20T13:28:01Z</time>
      </trkpt>
      <trkpt lat="48.60309" lon="2.09692">
        <ele>108.8</ele>
        <time>2026-03-20T13:28:02Z</time>
      </trkpt>
      <trkpt lat="48.60308" lon="2.09701">
        <ele>108.8</ele>
        <time>2026-03-20T13:28:03Z</time>
      </trkpt>
      <trkpt lat="48.60307" lon="2.09709">
        <ele>107.8</ele>
        <time>2026-03-20T13:28:04Z</time>
      </trkpt>
      <trkpt lat="48.60305" lon="2.09718">
        <ele>107.8</ele>
        <time>2026-03-20T13:28:05Z</time>
      </trkpt>
      <trkpt lat="48.60304" lon="2.09726">
        <ele>107.8</ele>
        <time>2026-03-20T13:28:06Z</time>
      </trkpt>
      <trkpt lat="48.60303" lon="2.09734">
        <ele>107.6</ele>
        <time>2026-03-20T13:28:07Z</time>
      </trkpt>
      <trkpt lat="48.60302" lon="2.09742">
        <ele>107.2</ele>
        <time>2026-03-20T13:28:08Z</time>
      </trkpt>
      <trkpt lat="48.60301" lon="2.0975">
        <ele>107.2</ele>
        <time>2026-03-20T13:28:09Z</time>
      </trkpt>
      <trkpt lat="48.603" lon="2.09758">
        <ele>107.2</ele>
        <time>2026-03-20T13:28:10Z</time>
      </trkpt>
      <trkpt lat="48.60299" lon="2.09767">
        <ele>108</ele>
        <time>2026-03-20T13:28:11Z</time>
      </trkpt>
      <trkpt lat="48.60297" lon="2.09775">
        <ele>107.4</ele>
        <time>2026-03-20T13:28:12Z</time>
      </trkpt>
      <trkpt lat="48.60296" lon="2.09783">
        <ele>107.4</ele>
        <time>2026-03-20T13:28:13Z</time>
      </trkpt>
      <trkpt lat="48.60295" lon="2.0979">
        <ele>107.4</ele>
        <time>2026-03-20T13:28:14Z</time>
      </trkpt>
      <trkpt lat="48.60293" lon="2.09798">
        <ele>107.2</ele>
        <time>2026-03-20T13:28:15Z</time>
      </trkpt>
      <trkpt lat="48.60292" lon="2.09806">
        <ele>106.8</ele>
        <time>2026-03-20T13:28:16Z</time>
      </trkpt>
      <trkpt lat="48.60291" lon="2.09814">
        <ele>106.8</ele>
        <time>2026-03-20T13:28:17Z</time>
      </trkpt>
      <trkpt lat="48.60289" lon="2.09822">
        <ele>106.8</ele>
        <time>2026-03-20T13:28:18Z</time>
      </trkpt>
      <trkpt lat="48.60287" lon="2.0983">
        <ele>106.8</ele>
        <time>2026-03-20T13:28:19Z</time>
      </trkpt>
      <trkpt lat="48.60286" lon="2.09837">
        <ele>107.6</ele>
        <time>2026-03-20T13:28:20Z</time>
      </trkpt>
      <trkpt lat="48.60284" lon="2.09845">
        <ele>107.6</ele>
        <time>2026-03-20T13:28:21Z</time>
      </trkpt>
      <trkpt lat="48.60282" lon="2.09853">
        <ele>107.6</ele>
        <time>2026-03-20T13:28:22Z</time>
      </trkpt>
      <trkpt lat="48.6028" lon="2.09861">
        <ele>107.4</ele>
        <time>2026-03-20T13:28:23Z</time>
      </trkpt>
      <trkpt lat="48.60279" lon="2.09869">
        <ele>107.6</ele>
        <time>2026-03-20T13:28:24Z</time>
      </trkpt>
      <trkpt lat="48.60277" lon="2.09877">
        <ele>107.6</ele>
        <time>2026-03-20T13:28:25Z</time>
      </trkpt>
      <trkpt lat="48.60275" lon="2.09885">
        <ele>107.6</ele>
        <time>2026-03-20T13:28:26Z</time>
      </trkpt>
      <trkpt lat="48.60273" lon="2.09893">
        <ele>107.4</ele>
        <time>2026-03-20T13:28:27Z</time>
      </trkpt>
      <trkpt lat="48.60271" lon="2.09901">
        <ele>107.6</ele>
        <time>2026-03-20T13:28:28Z</time>
      </trkpt>
      <trkpt lat="48.6027" lon="2.09909">
        <ele>107.6</ele>
        <time>2026-03-20T13:28:29Z</time>
      </trkpt>
      <trkpt lat="48.60268" lon="2.09917">
        <ele>107.6</ele>
        <time>2026-03-20T13:28:30Z</time>
      </trkpt>
      <trkpt lat="48.60266" lon="2.09925">
        <ele>106.6</ele>
        <time>2026-03-20T13:28:31Z</time>
      </trkpt>
      <trkpt lat="48.60263" lon="2.09933">
        <ele>105.2</ele>
        <time>2026-03-20T13:28:32Z</time>
      </trkpt>
      <trkpt lat="48.60261" lon="2.09941">
        <ele>105.2</ele>
        <time>2026-03-20T13:28:33Z</time>
      </trkpt>
      <trkpt lat="48.60258" lon="2.09948">
        <ele>105.2</ele>
        <time>2026-03-20T13:28:34Z</time>
      </trkpt>
      <trkpt lat="48.60256" lon="2.09956">
        <ele>106.2</ele>
        <time>2026-03-20T13:28:35Z</time>
      </trkpt>
      <trkpt lat="48.60253" lon="2.09963">
        <ele>107.2</ele>
        <time>2026-03-20T13:28:36Z</time>
      </trkpt>
      <trkpt lat="48.6025" lon="2.0997">
        <ele>107.2</ele>
        <time>2026-03-20T13:28:37Z</time>
      </trkpt>
      <trkpt lat="48.60247" lon="2.09978">
        <ele>107.2</ele>
        <time>2026-03-20T13:28:38Z</time>
      </trkpt>
      <trkpt lat="48.60243" lon="2.09985">
        <ele>107.2</ele>
        <time>2026-03-20T13:28:39Z</time>
      </trkpt>
      <trkpt lat="48.6024" lon="2.09991">
        <ele>106.8</ele>
        <time>2026-03-20T13:28:40Z</time>
      </trkpt>
      <trkpt lat="48.60236" lon="2.09998">
        <ele>106.8</ele>
        <time>2026-03-20T13:28:41Z</time>
      </trkpt>
      <trkpt lat="48.60232" lon="2.10004">
        <ele>106.8</ele>
        <time>2026-03-20T13:28:42Z</time>
      </trkpt>
      <trkpt lat="48.60228" lon="2.10011">
        <ele>106.8</ele>
        <time>2026-03-20T13:28:43Z</time>
      </trkpt>
      <trkpt lat="48.60225" lon="2.10017">
        <ele>106.8</ele>
        <time>2026-03-20T13:28:44Z</time>
      </trkpt>
      <trkpt lat="48.60221" lon="2.10024">
        <ele>106.8</ele>
        <time>2026-03-20T13:28:45Z</time>
      </trkpt>
      <trkpt lat="48.60218" lon="2.10031">
        <ele>106.8</ele>
        <time>2026-03-20T13:28:46Z</time>
      </trkpt>
      <trkpt lat="48.60215" lon="2.10039">
        <ele>107.8</ele>
        <time>2026-03-20T13:28:47Z</time>
      </trkpt>
      <trkpt lat="48.60212" lon="2.10046">
        <ele>107.2</ele>
        <time>2026-03-20T13:28:48Z</time>
      </trkpt>
      <trkpt lat="48.6021" lon="2.10054">
        <ele>107.2</ele>
        <time>2026-03-20T13:28:49Z</time>
      </trkpt>
      <trkpt lat="48.60209" lon="2.10063">
        <ele>107.2</ele>
        <time>2026-03-20T13:28:50Z</time>
      </trkpt>
      <trkpt lat="48.60209" lon="2.10072">
        <ele>107.8</ele>
        <time>2026-03-20T13:28:51Z</time>
      </trkpt>
      <trkpt lat="48.60208" lon="2.10081">
        <ele>107.6</ele>
        <time>2026-03-20T13:28:52Z</time>
      </trkpt>
      <trkpt lat="48.60208" lon="2.1009">
        <ele>107.6</ele>
        <time>2026-03-20T13:28:53Z</time>
      </trkpt>
      <trkpt lat="48.60208" lon="2.10099">
        <ele>107.6</ele>
        <time>2026-03-20T13:28:54Z</time>
      </trkpt>
      <trkpt lat="48.60208" lon="2.10107">
        <ele>107.2</ele>
        <time>2026-03-20T13:28:55Z</time>
      </trkpt>
      <trkpt lat="48.60208" lon="2.10116">
        <ele>107.2</ele>
        <time>2026-03-20T13:28:56Z</time>
      </trkpt>
      <trkpt lat="48.60208" lon="2.10125">
        <ele>107.2</ele>
        <time>2026-03-20T13:28:57Z</time>
      </trkpt>
      <trkpt lat="48.60208" lon="2.10134">
        <ele>107.2</ele>
        <time>2026-03-20T13:28:58Z</time>
      </trkpt>
      <trkpt lat="48.60207" lon="2.10142">
        <ele>107.2</ele>
        <time>2026-03-20T13:28:59Z</time>
      </trkpt>
      <trkpt lat="48.60205" lon="2.10151">
        <ele>106.4</ele>
        <time>2026-03-20T13:29:00Z</time>
      </trkpt>
      <trkpt lat="48.60204" lon="2.10158">
        <ele>106.4</ele>
        <time>2026-03-20T13:29:01Z</time>
      </trkpt>
      <trkpt lat="48.60202" lon="2.10165">
        <ele>106.4</ele>
        <time>2026-03-20T13:29:02Z</time>
      </trkpt>
      <trkpt lat="48.60201" lon="2.10172">
        <ele>106.4</ele>
        <time>2026-03-20T13:29:03Z</time>
      </trkpt>
      <trkpt lat="48.60199" lon="2.1018">
        <ele>106.4</ele>
        <time>2026-03-20T13:29:04Z</time>
      </trkpt>
      <trkpt lat="48.60197" lon="2.10187">
        <ele>106.4</ele>
        <time>2026-03-20T13:29:05Z</time>
      </trkpt>
      <trkpt lat="48.60195" lon="2.10194">
        <ele>106.4</ele>
        <time>2026-03-20T13:29:06Z</time>
      </trkpt>
      <trkpt lat="48.60193" lon="2.10201">
        <ele>107.2</ele>
        <time>2026-03-20T13:29:07Z</time>
      </trkpt>
      <trkpt lat="48.60192" lon="2.10209">
        <ele>107.4</ele>
        <time>2026-03-20T13:29:08Z</time>
      </trkpt>
      <trkpt lat="48.6019" lon="2.10216">
        <ele>107.4</ele>
        <time>2026-03-20T13:29:09Z</time>
      </trkpt>
      <trkpt lat="48.60187" lon="2.10223">
        <ele>107.4</ele>
        <time>2026-03-20T13:29:10Z</time>
      </trkpt>
      <trkpt lat="48.60185" lon="2.1023">
        <ele>107.8</ele>
        <time>2026-03-20T13:29:11Z</time>
      </trkpt>
      <trkpt lat="48.60183" lon="2.10238">
        <ele>108</ele>
        <time>2026-03-20T13:29:12Z</time>
      </trkpt>
      <trkpt lat="48.60181" lon="2.10246">
        <ele>108</ele>
        <time>2026-03-20T13:29:13Z</time>
      </trkpt>
      <trkpt lat="48.60179" lon="2.10253">
        <ele>108</ele>
        <time>2026-03-20T13:29:14Z</time>
      </trkpt>
      <trkpt lat="48.60178" lon="2.1026">
        <ele>108</ele>
        <time>2026-03-20T13:29:15Z</time>
      </trkpt>
      <trkpt lat="48.60176" lon="2.10268">
        <ele>107.8</ele>
        <time>2026-03-20T13:29:16Z</time>
      </trkpt>
      <trkpt lat="48.60174" lon="2.10275">
        <ele>107.8</ele>
        <time>2026-03-20T13:29:17Z</time>
      </trkpt>
      <trkpt lat="48.60173" lon="2.10282">
        <ele>107.8</ele>
        <time>2026-03-20T13:29:18Z</time>
      </trkpt>
      <trkpt lat="48.60171" lon="2.10289">
        <ele>108.2</ele>
        <time>2026-03-20T13:29:19Z</time>
      </trkpt>
      <trkpt lat="48.6017" lon="2.10297">
        <ele>108.4</ele>
        <time>2026-03-20T13:29:20Z</time>
      </trkpt>
      <trkpt lat="48.60169" lon="2.10304">
        <ele>108.4</ele>
        <time>2026-03-20T13:29:21Z</time>
      </trkpt>
      <trkpt lat="48.60167" lon="2.10313">
        <ele>108.4</ele>
        <time>2026-03-20T13:29:22Z</time>
      </trkpt>
      <trkpt lat="48.60166" lon="2.10319">
        <ele>108.4</ele>
        <time>2026-03-20T13:29:23Z</time>
      </trkpt>
      <trkpt lat="48.60165" lon="2.10327">
        <ele>108.2</ele>
        <time>2026-03-20T13:29:24Z</time>
      </trkpt>
      <trkpt lat="48.60164" lon="2.10335">
        <ele>108.2</ele>
        <time>2026-03-20T13:29:25Z</time>
      </trkpt>
      <trkpt lat="48.60163" lon="2.10342">
        <ele>108.2</ele>
        <time>2026-03-20T13:29:26Z</time>
      </trkpt>
      <trkpt lat="48.60162" lon="2.1035">
        <ele>108.8</ele>
        <time>2026-03-20T13:29:27Z</time>
      </trkpt>
      <trkpt lat="48.60161" lon="2.10357">
        <ele>109.2</ele>
        <time>2026-03-20T13:29:28Z</time>
      </trkpt>
      <trkpt lat="48.60161" lon="2.10364">
        <ele>109.2</ele>
        <time>2026-03-20T13:29:29Z</time>
      </trkpt>
      <trkpt lat="48.60161" lon="2.10371">
        <ele>109.2</ele>
        <time>2026-03-20T13:29:30Z</time>
      </trkpt>
      <trkpt lat="48.6016" lon="2.10378">
        <ele>109.2</ele>
        <time>2026-03-20T13:29:31Z</time>
      </trkpt>
      <trkpt lat="48.6016" lon="2.10384">
        <ele>110.2</ele>
        <time>2026-03-20T13:29:32Z</time>
      </trkpt>
      <trkpt lat="48.6016" lon="2.10391">
        <ele>110.2</ele>
        <time>2026-03-20T13:29:33Z</time>
      </trkpt>
      <trkpt lat="48.6016" lon="2.10398">
        <ele>110.2</ele>
        <time>2026-03-20T13:29:34Z</time>
      </trkpt>
      <trkpt lat="48.6016" lon="2.10405">
        <ele>110.4</ele>
        <time>2026-03-20T13:29:35Z</time>
      </trkpt>
      <trkpt lat="48.60159" lon="2.10411">
        <ele>110.4</ele>
        <time>2026-03-20T13:29:36Z</time>
      </trkpt>
      <trkpt lat="48.60159" lon="2.10419">
        <ele>110.4</ele>
        <time>2026-03-20T13:29:37Z</time>
      </trkpt>
      <trkpt lat="48.60159" lon="2.10426">
        <ele>110.4</ele>
        <time>2026-03-20T13:29:38Z</time>
      </trkpt>
      <trkpt lat="48.60159" lon="2.10433">
        <ele>110.8</ele>
        <time>2026-03-20T13:29:39Z</time>
      </trkpt>
      <trkpt lat="48.60159" lon="2.1044">
        <ele>110.8</ele>
        <time>2026-03-20T13:29:40Z</time>
      </trkpt>
      <trkpt lat="48.6016" lon="2.10447">
        <ele>110.8</ele>
        <time>2026-03-20T13:29:41Z</time>
      </trkpt>
      <trkpt lat="48.6016" lon="2.10454">
        <ele>110.8</ele>
        <time>2026-03-20T13:29:42Z</time>
      </trkpt>
      <trkpt lat="48.6016" lon="2.10461">
        <ele>110.8</ele>
        <time>2026-03-20T13:29:43Z</time>
      </trkpt>
      <trkpt lat="48.6016" lon="2.10467">
        <ele>111.2</ele>
        <time>2026-03-20T13:29:44Z</time>
      </trkpt>
      <trkpt lat="48.60159" lon="2.10473">
        <ele>111.2</ele>
        <time>2026-03-20T13:29:45Z</time>
      </trkpt>
      <trkpt lat="48.60159" lon="2.1048">
        <ele>111.2</ele>
        <time>2026-03-20T13:29:46Z</time>
      </trkpt>
      <trkpt lat="48.60159" lon="2.10487">
        <ele>111.2</ele>
        <time>2026-03-20T13:29:47Z</time>
      </trkpt>
      <trkpt lat="48.60159" lon="2.10493">
        <ele>111.6</ele>
        <time>2026-03-20T13:29:48Z</time>
      </trkpt>
      <trkpt lat="48.60158" lon="2.105">
        <ele>111.6</ele>
        <time>2026-03-20T13:29:49Z</time>
      </trkpt>
      <trkpt lat="48.60158" lon="2.10507">
        <ele>111.6</ele>
        <time>2026-03-20T13:29:50Z</time>
      </trkpt>
      <trkpt lat="48.60158" lon="2.10514">
        <ele>112.6</ele>
        <time>2026-03-20T13:29:51Z</time>
      </trkpt>
      <trkpt lat="48.60158" lon="2.1052">
        <ele>113</ele>
        <time>2026-03-20T13:29:52Z</time>
      </trkpt>
      <trkpt lat="48.60158" lon="2.10527">
        <ele>113</ele>
        <time>2026-03-20T13:29:53Z</time>
      </trkpt>
      <trkpt lat="48.60158" lon="2.10532">
        <ele>113</ele>
        <time>2026-03-20T13:29:54Z</time>
      </trkpt>
      <trkpt lat="48.60157" lon="2.10538">
        <ele>113</ele>
        <time>2026-03-20T13:29:55Z</time>
      </trkpt>
      <trkpt lat="48.60157" lon="2.10543">
        <ele>113.8</ele>
        <time>2026-03-20T13:29:56Z</time>
      </trkpt>
      <trkpt lat="48.60156" lon="2.10547">
        <ele>113.8</ele>
        <time>2026-03-20T13:29:57Z</time>
      </trkpt>
      <trkpt lat="48.60156" lon="2.10553">
        <ele>113.8</ele>
        <time>2026-03-20T13:29:58Z</time>
      </trkpt>
      <trkpt lat="48.60156" lon="2.10558">
        <ele>114.4</ele>
        <time>2026-03-20T13:29:59Z</time>
      </trkpt>
      <trkpt lat="48.60155" lon="2.10565">
        <ele>114.4</ele>
        <time>2026-03-20T13:30:00Z</time>
      </trkpt>
      <trkpt lat="48.60154" lon="2.10571">
        <ele>114.4</ele>
        <time>2026-03-20T13:30:01Z</time>
      </trkpt>
      <trkpt lat="48.60154" lon="2.10579">
        <ele>114.4</ele>
        <time>2026-03-20T13:30:02Z</time>
      </trkpt>
      <trkpt lat="48.60153" lon="2.10588">
        <ele>114.8</ele>
        <time>2026-03-20T13:30:03Z</time>
      </trkpt>
      <trkpt lat="48.60152" lon="2.10594">
        <ele>115</ele>
        <time>2026-03-20T13:30:04Z</time>
      </trkpt>
      <trkpt lat="48.60152" lon="2.10601">
        <ele>115</ele>
        <time>2026-03-20T13:30:05Z</time>
      </trkpt>
      <trkpt lat="48.60152" lon="2.10607">
        <ele>115</ele>
        <time>2026-03-20T13:30:06Z</time>
      </trkpt>
      <trkpt lat="48.60152" lon="2.10614">
        <ele>115.2</ele>
        <time>2026-03-20T13:30:07Z</time>
      </trkpt>
      <trkpt lat="48.60153" lon="2.10622">
        <ele>115.6</ele>
        <time>2026-03-20T13:30:08Z</time>
      </trkpt>
      <trkpt lat="48.60154" lon="2.10629">
        <ele>115.6</ele>
        <time>2026-03-20T13:30:09Z</time>
      </trkpt>
      <trkpt lat="48.60156" lon="2.10637">
        <ele>115.6</ele>
        <time>2026-03-20T13:30:10Z</time>
      </trkpt>
      <trkpt lat="48.60157" lon="2.10645">
        <ele>115.2</ele>
        <time>2026-03-20T13:30:11Z</time>
      </trkpt>
      <trkpt lat="48.60159" lon="2.10653">
        <ele>114.8</ele>
        <time>2026-03-20T13:30:12Z</time>
      </trkpt>
      <trkpt lat="48.6016" lon="2.1066">
        <ele>114.8</ele>
        <time>2026-03-20T13:30:13Z</time>
      </trkpt>
      <trkpt lat="48.60162" lon="2.10666">
        <ele>114.8</ele>
        <time>2026-03-20T13:30:14Z</time>
      </trkpt>
      <trkpt lat="48.60164" lon="2.10673">
        <ele>115.2</ele>
        <time>2026-03-20T13:30:15Z</time>
      </trkpt>
      <trkpt lat="48.60165" lon="2.1068">
        <ele>115</ele>
        <time>2026-03-20T13:30:16Z</time>
      </trkpt>
      <trkpt lat="48.60167" lon="2.10687">
        <ele>115</ele>
        <time>2026-03-20T13:30:17Z</time>
      </trkpt>
      <trkpt lat="48.60169" lon="2.10693">
        <ele>115</ele>
        <time>2026-03-20T13:30:18Z</time>
      </trkpt>
      <trkpt lat="48.6017" lon="2.107">
        <ele>115</ele>
        <time>2026-03-20T13:30:19Z</time>
      </trkpt>
      <trkpt lat="48.60171" lon="2.10707">
        <ele>115.2</ele>
        <time>2026-03-20T13:30:20Z</time>
      </trkpt>
      <trkpt lat="48.60172" lon="2.10714">
        <ele>115.2</ele>
        <time>2026-03-20T13:30:21Z</time>
      </trkpt>
      <trkpt lat="48.60172" lon="2.10721">
        <ele>115.2</ele>
        <time>2026-03-20T13:30:22Z</time>
      </trkpt>
      <trkpt lat="48.60173" lon="2.10729">
        <ele>114.2</ele>
        <time>2026-03-20T13:30:23Z</time>
      </trkpt>
      <trkpt lat="48.60173" lon="2.10739">
        <ele>113.6</ele>
        <time>2026-03-20T13:30:24Z</time>
      </trkpt>
      <trkpt lat="48.60173" lon="2.10747">
        <ele>113.6</ele>
        <time>2026-03-20T13:30:25Z</time>
      </trkpt>
      <trkpt lat="48.60173" lon="2.10755">
        <ele>113.6</ele>
        <time>2026-03-20T13:30:26Z</time>
      </trkpt>
      <trkpt lat="48.60173" lon="2.10764">
        <ele>113.6</ele>
        <time>2026-03-20T13:30:27Z</time>
      </trkpt>
      <trkpt lat="48.60173" lon="2.10773">
        <ele>113</ele>
        <time>2026-03-20T13:30:28Z</time>
      </trkpt>
      <trkpt lat="48.60173" lon="2.10782">
        <ele>113</ele>
        <time>2026-03-20T13:30:29Z</time>
      </trkpt>
      <trkpt lat="48.60172" lon="2.10791">
        <ele>113</ele>
        <time>2026-03-20T13:30:30Z</time>
      </trkpt>
      <trkpt lat="48.60171" lon="2.108">
        <ele>112.6</ele>
        <time>2026-03-20T13:30:31Z</time>
      </trkpt>
      <trkpt lat="48.60171" lon="2.10808">
        <ele>111.6</ele>
        <time>2026-03-20T13:30:32Z</time>
      </trkpt>
      <trkpt lat="48.60171" lon="2.10817">
        <ele>111.6</ele>
        <time>2026-03-20T13:30:33Z</time>
      </trkpt>
      <trkpt lat="48.6017" lon="2.10826">
        <ele>111.6</ele>
        <time>2026-03-20T13:30:34Z</time>
      </trkpt>
      <trkpt lat="48.60169" lon="2.10836">
        <ele>111.6</ele>
        <time>2026-03-20T13:30:35Z</time>
      </trkpt>
      <trkpt lat="48.60168" lon="2.10845">
        <ele>111.8</ele>
        <time>2026-03-20T13:30:36Z</time>
      </trkpt>
      <trkpt lat="48.60167" lon="2.10855">
        <ele>111.8</ele>
        <time>2026-03-20T13:30:37Z</time>
      </trkpt>
      <trkpt lat="48.60167" lon="2.10865">
        <ele>111.8</ele>
        <time>2026-03-20T13:30:38Z</time>
      </trkpt>
      <trkpt lat="48.60166" lon="2.10875">
        <ele>111.8</ele>
        <time>2026-03-20T13:30:39Z</time>
      </trkpt>
      <trkpt lat="48.60165" lon="2.10884">
        <ele>111.4</ele>
        <time>2026-03-20T13:30:40Z</time>
      </trkpt>
      <trkpt lat="48.60165" lon="2.10894">
        <ele>111.4</ele>
        <time>2026-03-20T13:30:41Z</time>
      </trkpt>
      <trkpt lat="48.60164" lon="2.10904">
        <ele>111.4</ele>
        <time>2026-03-20T13:30:42Z</time>
      </trkpt>
      <trkpt lat="48.60163" lon="2.10914">
        <ele>110.4</ele>
        <time>2026-03-20T13:30:43Z</time>
      </trkpt>
      <trkpt lat="48.60163" lon="2.10924">
        <ele>108.4</ele>
        <time>2026-03-20T13:30:44Z</time>
      </trkpt>
      <trkpt lat="48.60162" lon="2.10933">
        <ele>108.4</ele>
        <time>2026-03-20T13:30:45Z</time>
      </trkpt>
      <trkpt lat="48.60162" lon="2.10943">
        <ele>108.4</ele>
        <time>2026-03-20T13:30:46Z</time>
      </trkpt>
      <trkpt lat="48.60161" lon="2.10953">
        <ele>109</ele>
        <time>2026-03-20T13:30:47Z</time>
      </trkpt>
      <trkpt lat="48.6016" lon="2.10963">
        <ele>108.6</ele>
        <time>2026-03-20T13:30:48Z</time>
      </trkpt>
      <trkpt lat="48.6016" lon="2.10972">
        <ele>108.6</ele>
        <time>2026-03-20T13:30:49Z</time>
      </trkpt>
      <trkpt lat="48.60159" lon="2.10982">
        <ele>108.6</ele>
        <time>2026-03-20T13:30:50Z</time>
      </trkpt>
      <trkpt lat="48.60158" lon="2.10993">
        <ele>108.2</ele>
        <time>2026-03-20T13:30:51Z</time>
      </trkpt>
      <trkpt lat="48.60157" lon="2.11003">
        <ele>108.2</ele>
        <time>2026-03-20T13:30:52Z</time>
      </trkpt>
      <trkpt lat="48.60157" lon="2.11013">
        <ele>108.2</ele>
        <time>2026-03-20T13:30:53Z</time>
      </trkpt>
      <trkpt lat="48.60156" lon="2.11023">
        <ele>108.2</ele>
        <time>2026-03-20T13:30:54Z</time>
      </trkpt>
      <trkpt lat="48.60155" lon="2.11034">
        <ele>107.2</ele>
        <time>2026-03-20T13:30:55Z</time>
      </trkpt>
      <trkpt lat="48.60154" lon="2.11045">
        <ele>107</ele>
        <time>2026-03-20T13:30:56Z</time>
      </trkpt>
      <trkpt lat="48.60154" lon="2.11055">
        <ele>107</ele>
        <time>2026-03-20T13:30:57Z</time>
      </trkpt>
      <trkpt lat="48.60153" lon="2.11066">
        <ele>107</ele>
        <time>2026-03-20T13:30:58Z</time>
      </trkpt>
      <trkpt lat="48.60152" lon="2.11077">
        <ele>106</ele>
        <time>2026-03-20T13:30:59Z</time>
      </trkpt>
      <trkpt lat="48.60152" lon="2.11087">
        <ele>106</ele>
        <time>2026-03-20T13:31:00Z</time>
      </trkpt>
      <trkpt lat="48.60151" lon="2.11098">
        <ele>106</ele>
        <time>2026-03-20T13:31:01Z</time>
      </trkpt>
      <trkpt lat="48.60151" lon="2.11108">
        <ele>106</ele>
        <time>2026-03-20T13:31:02Z</time>
      </trkpt>
      <trkpt lat="48.6015" lon="2.11119">
        <ele>105.8</ele>
        <time>2026-03-20T13:31:03Z</time>
      </trkpt>
      <trkpt lat="48.60149" lon="2.11129">
        <ele>104.8</ele>
        <time>2026-03-20T13:31:04Z</time>
      </trkpt>
      <trkpt lat="48.60149" lon="2.1114">
        <ele>104.8</ele>
        <time>2026-03-20T13:31:05Z</time>
      </trkpt>
      <trkpt lat="48.60149" lon="2.1115">
        <ele>104.8</ele>
        <time>2026-03-20T13:31:06Z</time>
      </trkpt>
      <trkpt lat="48.60149" lon="2.1116">
        <ele>104.8</ele>
        <time>2026-03-20T13:31:07Z</time>
      </trkpt>
      <trkpt lat="48.6015" lon="2.11171">
        <ele>104.4</ele>
        <time>2026-03-20T13:31:08Z</time>
      </trkpt>
      <trkpt lat="48.6015" lon="2.11181">
        <ele>104.4</ele>
        <time>2026-03-20T13:31:09Z</time>
      </trkpt>
      <trkpt lat="48.60151" lon="2.11191">
        <ele>104.4</ele>
        <time>2026-03-20T13:31:10Z</time>
      </trkpt>
      <trkpt lat="48.60152" lon="2.112">
        <ele>104.4</ele>
        <time>2026-03-20T13:31:11Z</time>
      </trkpt>
      <trkpt lat="48.60153" lon="2.1121">
        <ele>104</ele>
        <time>2026-03-20T13:31:12Z</time>
      </trkpt>
      <trkpt lat="48.60154" lon="2.1122">
        <ele>104</ele>
        <time>2026-03-20T13:31:13Z</time>
      </trkpt>
      <trkpt lat="48.60156" lon="2.11229">
        <ele>104</ele>
        <time>2026-03-20T13:31:14Z</time>
      </trkpt>
      <trkpt lat="48.60157" lon="2.11239">
        <ele>104</ele>
        <time>2026-03-20T13:31:15Z</time>
      </trkpt>
      <trkpt lat="48.60157" lon="2.11248">
        <ele>102</ele>
        <time>2026-03-20T13:31:16Z</time>
      </trkpt>
      <trkpt lat="48.60158" lon="2.11258">
        <ele>102</ele>
        <time>2026-03-20T13:31:17Z</time>
      </trkpt>
      <trkpt lat="48.60159" lon="2.11268">
        <ele>102</ele>
        <time>2026-03-20T13:31:18Z</time>
      </trkpt>
      <trkpt lat="48.6016" lon="2.11277">
        <ele>101.6</ele>
        <time>2026-03-20T13:31:19Z</time>
      </trkpt>
      <trkpt lat="48.60161" lon="2.11287">
        <ele>102</ele>
        <time>2026-03-20T13:31:20Z</time>
      </trkpt>
      <trkpt lat="48.60162" lon="2.11296">
        <ele>102</ele>
        <time>2026-03-20T13:31:21Z</time>
      </trkpt>
      <trkpt lat="48.60164" lon="2.11306">
        <ele>102</ele>
        <time>2026-03-20T13:31:22Z</time>
      </trkpt>
      <trkpt lat="48.60165" lon="2.11315">
        <ele>103</ele>
        <time>2026-03-20T13:31:23Z</time>
      </trkpt>
      <trkpt lat="48.60166" lon="2.11325">
        <ele>103.4</ele>
        <time>2026-03-20T13:31:24Z</time>
      </trkpt>
      <trkpt lat="48.60167" lon="2.11335">
        <ele>103.4</ele>
        <time>2026-03-20T13:31:25Z</time>
      </trkpt>
      <trkpt lat="48.60168" lon="2.11346">
        <ele>103.4</ele>
        <time>2026-03-20T13:31:26Z</time>
      </trkpt>
      <trkpt lat="48.6017" lon="2.11356">
        <ele>102.4</ele>
        <time>2026-03-20T13:31:27Z</time>
      </trkpt>
      <trkpt lat="48.60171" lon="2.11366">
        <ele>101.8</ele>
        <time>2026-03-20T13:31:28Z</time>
      </trkpt>
      <trkpt lat="48.60172" lon="2.11377">
        <ele>101.8</ele>
        <time>2026-03-20T13:31:29Z</time>
      </trkpt>
      <trkpt lat="48.60174" lon="2.11388">
        <ele>101.8</ele>
        <time>2026-03-20T13:31:30Z</time>
      </trkpt>
      <trkpt lat="48.60176" lon="2.11399">
        <ele>102.8</ele>
        <time>2026-03-20T13:31:31Z</time>
      </trkpt>
      <trkpt lat="48.60178" lon="2.11409">
        <ele>101</ele>
        <time>2026-03-20T13:31:32Z</time>
      </trkpt>
      <trkpt lat="48.60181" lon="2.1142">
        <ele>101</ele>
        <time>2026-03-20T13:31:33Z</time>
      </trkpt>
      <trkpt lat="48.60183" lon="2.11431">
        <ele>101</ele>
        <time>2026-03-20T13:31:34Z</time>
      </trkpt>
      <trkpt lat="48.60185" lon="2.11441">
        <ele>101</ele>
        <time>2026-03-20T13:31:35Z</time>
      </trkpt>
      <trkpt lat="48.60187" lon="2.11452">
        <ele>102.2</ele>
        <time>2026-03-20T13:31:36Z</time>
      </trkpt>
      <trkpt lat="48.6019" lon="2.11462">
        <ele>102.2</ele>
        <time>2026-03-20T13:31:37Z</time>
      </trkpt>
      <trkpt lat="48.60192" lon="2.11473">
        <ele>102.2</ele>
        <time>2026-03-20T13:31:38Z</time>
      </trkpt>
      <trkpt lat="48.60195" lon="2.11483">
        <ele>101.2</ele>
        <time>2026-03-20T13:31:39Z</time>
      </trkpt>
      <trkpt lat="48.60197" lon="2.11493">
        <ele>101.2</ele>
        <time>2026-03-20T13:31:40Z</time>
      </trkpt>
      <trkpt lat="48.60199" lon="2.11504">
        <ele>101.2</ele>
        <time>2026-03-20T13:31:41Z</time>
      </trkpt>
      <trkpt lat="48.60202" lon="2.11514">
        <ele>101.2</ele>
        <time>2026-03-20T13:31:42Z</time>
      </trkpt>
      <trkpt lat="48.60204" lon="2.11524">
        <ele>101.2</ele>
        <time>2026-03-20T13:31:43Z</time>
      </trkpt>
      <trkpt lat="48.60207" lon="2.11534">
        <ele>101</ele>
        <time>2026-03-20T13:31:44Z</time>
      </trkpt>
      <trkpt lat="48.60209" lon="2.11545">
        <ele>101</ele>
        <time>2026-03-20T13:31:45Z</time>
      </trkpt>
      <trkpt lat="48.60211" lon="2.11555">
        <ele>101</ele>
        <time>2026-03-20T13:31:46Z</time>
      </trkpt>
      <trkpt lat="48.60214" lon="2.11566">
        <ele>101</ele>
        <time>2026-03-20T13:31:47Z</time>
      </trkpt>
      <trkpt lat="48.60216" lon="2.11576">
        <ele>99</ele>
        <time>2026-03-20T13:31:48Z</time>
      </trkpt>
      <trkpt lat="48.60219" lon="2.11587">
        <ele>99</ele>
        <time>2026-03-20T13:31:49Z</time>
      </trkpt>
      <trkpt lat="48.60221" lon="2.11597">
        <ele>99</ele>
        <time>2026-03-20T13:31:50Z</time>
      </trkpt>
      <trkpt lat="48.60224" lon="2.11608">
        <ele>98</ele>
        <time>2026-03-20T13:31:51Z</time>
      </trkpt>
      <trkpt lat="48.60227" lon="2.11618">
        <ele>97.2</ele>
        <time>2026-03-20T13:31:52Z</time>
      </trkpt>
      <trkpt lat="48.6023" lon="2.11629">
        <ele>97.2</ele>
        <time>2026-03-20T13:31:53Z</time>
      </trkpt>
      <trkpt lat="48.60233" lon="2.11639">
        <ele>97.2</ele>
        <time>2026-03-20T13:31:54Z</time>
      </trkpt>
      <trkpt lat="48.60236" lon="2.1165">
        <ele>96.2</ele>
        <time>2026-03-20T13:31:55Z</time>
      </trkpt>
      <trkpt lat="48.60238" lon="2.1166">
        <ele>96.4</ele>
        <time>2026-03-20T13:31:56Z</time>
      </trkpt>
      <trkpt lat="48.60241" lon="2.11671">
        <ele>96.4</ele>
        <time>2026-03-20T13:31:57Z</time>
      </trkpt>
      <trkpt lat="48.60245" lon="2.11681">
        <ele>96.4</ele>
        <time>2026-03-20T13:31:58Z</time>
      </trkpt>
      <trkpt lat="48.60248" lon="2.11691">
        <ele>96.4</ele>
        <time>2026-03-20T13:31:59Z</time>
      </trkpt>
      <trkpt lat="48.60251" lon="2.11702">
        <ele>95.6</ele>
        <time>2026-03-20T13:32:00Z</time>
      </trkpt>
      <trkpt lat="48.60253" lon="2.11712">
        <ele>95.6</ele>
        <time>2026-03-20T13:32:01Z</time>
      </trkpt>
      <trkpt lat="48.60256" lon="2.11723">
        <ele>95.6</ele>
        <time>2026-03-20T13:32:02Z</time>
      </trkpt>
      <trkpt lat="48.60258" lon="2.11733">
        <ele>94.6</ele>
        <time>2026-03-20T13:32:03Z</time>
      </trkpt>
      <trkpt lat="48.6026" lon="2.11744">
        <ele>95.6</ele>
        <time>2026-03-20T13:32:04Z</time>
      </trkpt>
      <trkpt lat="48.60261" lon="2.11755">
        <ele>95.6</ele>
        <time>2026-03-20T13:32:05Z</time>
      </trkpt>
      <trkpt lat="48.60262" lon="2.11767">
        <ele>95.6</ele>
        <time>2026-03-20T13:32:06Z</time>
      </trkpt>
      <trkpt lat="48.60264" lon="2.11779">
        <ele>94.6</ele>
        <time>2026-03-20T13:32:07Z</time>
      </trkpt>
      <trkpt lat="48.60265" lon="2.1179">
        <ele>93.8</ele>
        <time>2026-03-20T13:32:08Z</time>
      </trkpt>
      <trkpt lat="48.60266" lon="2.11803">
        <ele>93.8</ele>
        <time>2026-03-20T13:32:09Z</time>
      </trkpt>
      <trkpt lat="48.60267" lon="2.11815">
        <ele>93.8</ele>
        <time>2026-03-20T13:32:10Z</time>
      </trkpt>
      <trkpt lat="48.60268" lon="2.11827">
        <ele>92.8</ele>
        <time>2026-03-20T13:32:11Z</time>
      </trkpt>
      <trkpt lat="48.60268" lon="2.11839">
        <ele>91.6</ele>
        <time>2026-03-20T13:32:12Z</time>
      </trkpt>
      <trkpt lat="48.60269" lon="2.11852">
        <ele>91.6</ele>
        <time>2026-03-20T13:32:13Z</time>
      </trkpt>
      <trkpt lat="48.6027" lon="2.11864">
        <ele>91.6</ele>
        <time>2026-03-20T13:32:14Z</time>
      </trkpt>
      <trkpt lat="48.6027" lon="2.11877">
        <ele>90.6</ele>
        <time>2026-03-20T13:32:15Z</time>
      </trkpt>
      <trkpt lat="48.60271" lon="2.11889">
        <ele>88.8</ele>
        <time>2026-03-20T13:32:16Z</time>
      </trkpt>
      <trkpt lat="48.6027" lon="2.11902">
        <ele>88.8</ele>
        <time>2026-03-20T13:32:17Z</time>
      </trkpt>
      <trkpt lat="48.6027" lon="2.11914">
        <ele>88.8</ele>
        <time>2026-03-20T13:32:18Z</time>
      </trkpt>
      <trkpt lat="48.60269" lon="2.11926">
        <ele>89.8</ele>
        <time>2026-03-20T13:32:19Z</time>
      </trkpt>
      <trkpt lat="48.60268" lon="2.11938">
        <ele>89</ele>
        <time>2026-03-20T13:32:20Z</time>
      </trkpt>
      <trkpt lat="48.60267" lon="2.1195">
        <ele>89</ele>
        <time>2026-03-20T13:32:21Z</time>
      </trkpt>
      <trkpt lat="48.60265" lon="2.11961">
        <ele>89</ele>
        <time>2026-03-20T13:32:22Z</time>
      </trkpt>
      <trkpt lat="48.60262" lon="2.11972">
        <ele>89</ele>
        <time>2026-03-20T13:32:23Z</time>
      </trkpt>
      <trkpt lat="48.6026" lon="2.11983">
        <ele>89.8</ele>
        <time>2026-03-20T13:32:24Z</time>
      </trkpt>
      <trkpt lat="48.60258" lon="2.11994">
        <ele>89.8</ele>
        <time>2026-03-20T13:32:25Z</time>
      </trkpt>
      <trkpt lat="48.60255" lon="2.12004">
        <ele>89.8</ele>
        <time>2026-03-20T13:32:26Z</time>
      </trkpt>
      <trkpt lat="48.60253" lon="2.12014">
        <ele>89.8</ele>
        <time>2026-03-20T13:32:27Z</time>
      </trkpt>
      <trkpt lat="48.6025" lon="2.12024">
        <ele>89.2</ele>
        <time>2026-03-20T13:32:28Z</time>
      </trkpt>
      <trkpt lat="48.60247" lon="2.12034">
        <ele>89.2</ele>
        <time>2026-03-20T13:32:29Z</time>
      </trkpt>
      <trkpt lat="48.60243" lon="2.12044">
        <ele>89.2</ele>
        <time>2026-03-20T13:32:30Z</time>
      </trkpt>
      <trkpt lat="48.6024" lon="2.12052">
        <ele>88.4</ele>
        <time>2026-03-20T13:32:31Z</time>
      </trkpt>
      <trkpt lat="48.60238" lon="2.1206">
        <ele>88.4</ele>
        <time>2026-03-20T13:32:32Z</time>
      </trkpt>
      <trkpt lat="48.60236" lon="2.12067">
        <ele>88.4</ele>
        <time>2026-03-20T13:32:33Z</time>
      </trkpt>
      <trkpt lat="48.60234" lon="2.12072">
        <ele>88.4</ele>
        <time>2026-03-20T13:32:34Z</time>
      </trkpt>
      <trkpt lat="48.60233" lon="2.12077">
        <ele>88.4</ele>
        <time>2026-03-20T13:32:35Z</time>
      </trkpt>
      <trkpt lat="48.60232" lon="2.12081">
        <ele>88.4</ele>
        <time>2026-03-20T13:32:36Z</time>
      </trkpt>
      <trkpt lat="48.60231" lon="2.12085">
        <ele>88.4</ele>
        <time>2026-03-20T13:32:37Z</time>
      </trkpt>
      <trkpt lat="48.6023" lon="2.12088">
        <ele>88.4</ele>
        <time>2026-03-20T13:32:38Z</time>
      </trkpt>
      <trkpt lat="48.6023" lon="2.12089">
        <ele>88.4</ele>
        <time>2026-03-20T13:32:39Z</time>
      </trkpt>
      <trkpt lat="48.6023" lon="2.1209">
        <ele>89.2</ele>
        <time>2026-03-20T13:32:40Z</time>
      </trkpt>
      <trkpt lat="48.6023" lon="2.1209">
        <ele>89.2</ele>
        <time>2026-03-20T13:32:41Z</time>
      </trkpt>
      <trkpt lat="48.60229" lon="2.12091">
        <ele>89.2</ele>
        <time>2026-03-20T13:32:42Z</time>
      </trkpt>
      <trkpt lat="48.60228" lon="2.12094">
        <ele>88.2</ele>
        <time>2026-03-20T13:32:43Z</time>
      </trkpt>
      <trkpt lat="48.60226" lon="2.12097">
        <ele>88.4</ele>
        <time>2026-03-20T13:32:44Z</time>
      </trkpt>
      <trkpt lat="48.60225" lon="2.12101">
        <ele>88.4</ele>
        <time>2026-03-20T13:32:45Z</time>
      </trkpt>
      <trkpt lat="48.60224" lon="2.12105">
        <ele>88.4</ele>
        <time>2026-03-20T13:32:46Z</time>
      </trkpt>
      <trkpt lat="48.60223" lon="2.12111">
        <ele>87.8</ele>
        <time>2026-03-20T13:32:47Z</time>
      </trkpt>
      <trkpt lat="48.60222" lon="2.12117">
        <ele>87</ele>
        <time>2026-03-20T13:32:48Z</time>
      </trkpt>
      <trkpt lat="48.60221" lon="2.12123">
        <ele>87</ele>
        <time>2026-03-20T13:32:49Z</time>
      </trkpt>
      <trkpt lat="48.60219" lon="2.1213">
        <ele>87</ele>
        <time>2026-03-20T13:32:50Z</time>
      </trkpt>
      <trkpt lat="48.60218" lon="2.12138">
        <ele>86</ele>
        <time>2026-03-20T13:32:51Z</time>
      </trkpt>
      <trkpt lat="48.60217" lon="2.12146">
        <ele>86.6</ele>
        <time>2026-03-20T13:32:52Z</time>
      </trkpt>
      <trkpt lat="48.60216" lon="2.12154">
        <ele>86.6</ele>
        <time>2026-03-20T13:32:53Z</time>
      </trkpt>
      <trkpt lat="48.60215" lon="2.12162">
        <ele>86.6</ele>
        <time>2026-03-20T13:32:54Z</time>
      </trkpt>
      <trkpt lat="48.60214" lon="2.1217">
        <ele>85.8</ele>
        <time>2026-03-20T13:32:55Z</time>
      </trkpt>
      <trkpt lat="48.60213" lon="2.12178">
        <ele>86.2</ele>
        <time>2026-03-20T13:32:56Z</time>
      </trkpt>
      <trkpt lat="48.60212" lon="2.12187">
        <ele>86.2</ele>
        <time>2026-03-20T13:32:57Z</time>
      </trkpt>
      <trkpt lat="48.6021" lon="2.12195">
        <ele>86.2</ele>
        <time>2026-03-20T13:32:58Z</time>
      </trkpt>
      <trkpt lat="48.60207" lon="2.12201">
        <ele>85.2</ele>
        <time>2026-03-20T13:32:59Z</time>
      </trkpt>
      <trkpt lat="48.60202" lon="2.12206">
        <ele>82.8</ele>
        <time>2026-03-20T13:33:00Z</time>
      </trkpt>
      <trkpt lat="48.60197" lon="2.12209">
        <ele>82.8</ele>
        <time>2026-03-20T13:33:01Z</time>
      </trkpt>
      <trkpt lat="48.60193" lon="2.12213">
        <ele>82.8</ele>
        <time>2026-03-20T13:33:02Z</time>
      </trkpt>
      <trkpt lat="48.60188" lon="2.12216">
        <ele>83.8</ele>
        <time>2026-03-20T13:33:03Z</time>
      </trkpt>
      <trkpt lat="48.60183" lon="2.1222">
        <ele>85.2</ele>
        <time>2026-03-20T13:33:04Z</time>
      </trkpt>
      <trkpt lat="48.60178" lon="2.12223">
        <ele>85.2</ele>
        <time>2026-03-20T13:33:05Z</time>
      </trkpt>
      <trkpt lat="48.60174" lon="2.12226">
        <ele>85.2</ele>
        <time>2026-03-20T13:33:06Z</time>
      </trkpt>
      <trkpt lat="48.60169" lon="2.12229">
        <ele>85.2</ele>
        <time>2026-03-20T13:33:07Z</time>
      </trkpt>
      <trkpt lat="48.60165" lon="2.12232">
        <ele>85.4</ele>
        <time>2026-03-20T13:33:08Z</time>
      </trkpt>
      <trkpt lat="48.60161" lon="2.12236">
        <ele>85.4</ele>
        <time>2026-03-20T13:33:09Z</time>
      </trkpt>
      <trkpt lat="48.60157" lon="2.12239">
        <ele>85.4</ele>
        <time>2026-03-20T13:33:10Z</time>
      </trkpt>
      <trkpt lat="48.60155" lon="2.12244">
        <ele>85.4</ele>
        <time>2026-03-20T13:33:11Z</time>
      </trkpt>
      <trkpt lat="48.60152" lon="2.12249">
        <ele>85.8</ele>
        <time>2026-03-20T13:33:12Z</time>
      </trkpt>
      <trkpt lat="48.60151" lon="2.12254">
        <ele>85.8</ele>
        <time>2026-03-20T13:33:13Z</time>
      </trkpt>
      <trkpt lat="48.6015" lon="2.1226">
        <ele>85.8</ele>
        <time>2026-03-20T13:33:14Z</time>
      </trkpt>
      <trkpt lat="48.60151" lon="2.12266">
        <ele>85.6</ele>
        <time>2026-03-20T13:33:15Z</time>
      </trkpt>
      <trkpt lat="48.60152" lon="2.12271">
        <ele>85.8</ele>
        <time>2026-03-20T13:33:16Z</time>
      </trkpt>
      <trkpt lat="48.60153" lon="2.12277">
        <ele>85.8</ele>
        <time>2026-03-20T13:33:17Z</time>
      </trkpt>
      <trkpt lat="48.60154" lon="2.12282">
        <ele>85.8</ele>
        <time>2026-03-20T13:33:18Z</time>
      </trkpt>
      <trkpt lat="48.60155" lon="2.12287">
        <ele>86.8</ele>
        <time>2026-03-20T13:33:19Z</time>
      </trkpt>
      <trkpt lat="48.60155" lon="2.12291">
        <ele>86.8</ele>
        <time>2026-03-20T13:33:20Z</time>
      </trkpt>
      <trkpt lat="48.60155" lon="2.12296">
        <ele>86.8</ele>
        <time>2026-03-20T13:33:21Z</time>
      </trkpt>
      <trkpt lat="48.60156" lon="2.12301">
        <ele>86.8</ele>
        <time>2026-03-20T13:33:22Z</time>
      </trkpt>
      <trkpt lat="48.60157" lon="2.12306">
        <ele>87.8</ele>
        <time>2026-03-20T13:33:23Z</time>
      </trkpt>
      <trkpt lat="48.60157" lon="2.12311">
        <ele>88</ele>
        <time>2026-03-20T13:33:24Z</time>
      </trkpt>
      <trkpt lat="48.60157" lon="2.12316">
        <ele>88</ele>
        <time>2026-03-20T13:33:25Z</time>
      </trkpt>
      <trkpt lat="48.60158" lon="2.12321">
        <ele>88</ele>
        <time>2026-03-20T13:33:26Z</time>
      </trkpt>
      <trkpt lat="48.60157" lon="2.12326">
        <ele>89</ele>
        <time>2026-03-20T13:33:27Z</time>
      </trkpt>
      <trkpt lat="48.60157" lon="2.1233">
        <ele>89.6</ele>
        <time>2026-03-20T13:33:28Z</time>
      </trkpt>
      <trkpt lat="48.60157" lon="2.12335">
        <ele>89.6</ele>
        <time>2026-03-20T13:33:29Z</time>
      </trkpt>
      <trkpt lat="48.60156" lon="2.12341">
        <ele>89.6</ele>
        <time>2026-03-20T13:33:30Z</time>
      </trkpt>
      <trkpt lat="48.60156" lon="2.12346">
        <ele>89.6</ele>
        <time>2026-03-20T13:33:31Z</time>
      </trkpt>
      <trkpt lat="48.60156" lon="2.1235">
        <ele>91.4</ele>
        <time>2026-03-20T13:33:32Z</time>
      </trkpt>
      <trkpt lat="48.60156" lon="2.12355">
        <ele>91.4</ele>
        <time>2026-03-20T13:33:33Z</time>
      </trkpt>
      <trkpt lat="48.60156" lon="2.1236">
        <ele>91.4</ele>
        <time>2026-03-20T13:33:34Z</time>
      </trkpt>
      <trkpt lat="48.60156" lon="2.12365">
        <ele>92.2</ele>
        <time>2026-03-20T13:33:35Z</time>
      </trkpt>
      <trkpt lat="48.60155" lon="2.1237">
        <ele>92.4</ele>
        <time>2026-03-20T13:33:36Z</time>
      </trkpt>
      <trkpt lat="48.60155" lon="2.12376">
        <ele>92.4</ele>
        <time>2026-03-20T13:33:37Z</time>
      </trkpt>
      <trkpt lat="48.60155" lon="2.12381">
        <ele>92.4</ele>
        <time>2026-03-20T13:33:38Z</time>
      </trkpt>
      <trkpt lat="48.60155" lon="2.12386">
        <ele>93.2</ele>
        <time>2026-03-20T13:33:39Z</time>
      </trkpt>
      <trkpt lat="48.60154" lon="2.12391">
        <ele>92</ele>
        <time>2026-03-20T13:33:40Z</time>
      </trkpt>
      <trkpt lat="48.60154" lon="2.12397">
        <ele>92</ele>
        <time>2026-03-20T13:33:41Z</time>
      </trkpt>
      <trkpt lat="48.60154" lon="2.12402">
        <ele>92</ele>
        <time>2026-03-20T13:33:42Z</time>
      </trkpt>
      <trkpt lat="48.60154" lon="2.12407">
        <ele>93</ele>
        <time>2026-03-20T13:33:43Z</time>
      </trkpt>
      <trkpt lat="48.60153" lon="2.12412">
        <ele>93.6</ele>
        <time>2026-03-20T13:33:44Z</time>
      </trkpt>
      <trkpt lat="48.60152" lon="2.12418">
        <ele>93.6</ele>
        <time>2026-03-20T13:33:45Z</time>
      </trkpt>
      <trkpt lat="48.60152" lon="2.12422">
        <ele>93.6</ele>
        <time>2026-03-20T13:33:46Z</time>
      </trkpt>
      <trkpt lat="48.60151" lon="2.12427">
        <ele>93.6</ele>
        <time>2026-03-20T13:33:47Z</time>
      </trkpt>
      <trkpt lat="48.60151" lon="2.12432">
        <ele>95</ele>
        <time>2026-03-20T13:33:48Z</time>
      </trkpt>
      <trkpt lat="48.60151" lon="2.12437">
        <ele>95</ele>
        <time>2026-03-20T13:33:49Z</time>
      </trkpt>
      <trkpt lat="48.60151" lon="2.12442">
        <ele>95</ele>
        <time>2026-03-20T13:33:50Z</time>
      </trkpt>
      <trkpt lat="48.6015" lon="2.12445">
        <ele>95.4</ele>
        <time>2026-03-20T13:33:51Z</time>
      </trkpt>
      <trkpt lat="48.60149" lon="2.1245">
        <ele>95.6</ele>
        <time>2026-03-20T13:33:52Z</time>
      </trkpt>
      <trkpt lat="48.6015" lon="2.12455">
        <ele>95.6</ele>
        <time>2026-03-20T13:33:53Z</time>
      </trkpt>
      <trkpt lat="48.60151" lon="2.1246">
        <ele>95.6</ele>
        <time>2026-03-20T13:33:54Z</time>
      </trkpt>
      <trkpt lat="48.60151" lon="2.12465">
        <ele>95.2</ele>
        <time>2026-03-20T13:33:55Z</time>
      </trkpt>
      <trkpt lat="48.60152" lon="2.1247">
        <ele>95.6</ele>
        <time>2026-03-20T13:33:56Z</time>
      </trkpt>
      <trkpt lat="48.60152" lon="2.12475">
        <ele>95.6</ele>
        <time>2026-03-20T13:33:57Z</time>
      </trkpt>
      <trkpt lat="48.60153" lon="2.1248">
        <ele>95.6</ele>
        <time>2026-03-20T13:33:58Z</time>
      </trkpt>
      <trkpt lat="48.60154" lon="2.12485">
        <ele>95.4</ele>
        <time>2026-03-20T13:33:59Z</time>
      </trkpt>
      <trkpt lat="48.60155" lon="2.1249">
        <ele>95.6</ele>
        <time>2026-03-20T13:34:00Z</time>
      </trkpt>
      <trkpt lat="48.60156" lon="2.12495">
        <ele>95.6</ele>
        <time>2026-03-20T13:34:01Z</time>
      </trkpt>
      <trkpt lat="48.60157" lon="2.125">
        <ele>95.6</ele>
        <time>2026-03-20T13:34:02Z</time>
      </trkpt>
      <trkpt lat="48.60158" lon="2.12505">
        <ele>96.2</ele>
        <time>2026-03-20T13:34:03Z</time>
      </trkpt>
      <trkpt lat="48.6016" lon="2.1251">
        <ele>96.6</ele>
        <time>2026-03-20T13:34:04Z</time>
      </trkpt>
      <trkpt lat="48.60162" lon="2.12515">
        <ele>96.6</ele>
        <time>2026-03-20T13:34:05Z</time>
      </trkpt>
      <trkpt lat="48.60164" lon="2.12519">
        <ele>96.6</ele>
        <time>2026-03-20T13:34:06Z</time>
      </trkpt>
      <trkpt lat="48.60166" lon="2.12524">
        <ele>96</ele>
        <time>2026-03-20T13:34:07Z</time>
      </trkpt>
      <trkpt lat="48.60168" lon="2.12528">
        <ele>96.4</ele>
        <time>2026-03-20T13:34:08Z</time>
      </trkpt>
      <trkpt lat="48.6017" lon="2.12531">
        <ele>96.4</ele>
        <time>2026-03-20T13:34:09Z</time>
      </trkpt>
      <trkpt lat="48.60172" lon="2.12535">
        <ele>96.4</ele>
        <time>2026-03-20T13:34:10Z</time>
      </trkpt>
      <trkpt lat="48.60175" lon="2.12538">
        <ele>96.4</ele>
        <time>2026-03-20T13:34:11Z</time>
      </trkpt>
      <trkpt lat="48.60177" lon="2.12542">
        <ele>96.8</ele>
        <time>2026-03-20T13:34:12Z</time>
      </trkpt>
      <trkpt lat="48.6018" lon="2.12545">
        <ele>96.8</ele>
        <time>2026-03-20T13:34:13Z</time>
      </trkpt>
      <trkpt lat="48.60183" lon="2.12548">
        <ele>96.8</ele>
        <time>2026-03-20T13:34:14Z</time>
      </trkpt>
      <trkpt lat="48.60186" lon="2.12551">
        <ele>96.8</ele>
        <time>2026-03-20T13:34:15Z</time>
      </trkpt>
      <trkpt lat="48.60189" lon="2.12554">
        <ele>97.2</ele>
        <time>2026-03-20T13:34:16Z</time>
      </trkpt>
      <trkpt lat="48.60192" lon="2.12557">
        <ele>97.2</ele>
        <time>2026-03-20T13:34:17Z</time>
      </trkpt>
      <trkpt lat="48.60195" lon="2.12561">
        <ele>97.2</ele>
        <time>2026-03-20T13:34:18Z</time>
      </trkpt>
      <trkpt lat="48.60198" lon="2.12564">
        <ele>97</ele>
        <time>2026-03-20T13:34:19Z</time>
      </trkpt>
      <trkpt lat="48.60202" lon="2.12567">
        <ele>97</ele>
        <time>2026-03-20T13:34:20Z</time>
      </trkpt>
      <trkpt lat="48.60205" lon="2.12571">
        <ele>97</ele>
        <time>2026-03-20T13:34:21Z</time>
      </trkpt>
      <trkpt lat="48.60208" lon="2.12574">
        <ele>97</ele>
        <time>2026-03-20T13:34:22Z</time>
      </trkpt>
      <trkpt lat="48.60212" lon="2.12577">
        <ele>97</ele>
        <time>2026-03-20T13:34:23Z</time>
      </trkpt>
      <trkpt lat="48.60215" lon="2.1258">
        <ele>96.8</ele>
        <time>2026-03-20T13:34:24Z</time>
      </trkpt>
      <trkpt lat="48.60218" lon="2.12583">
        <ele>96.8</ele>
        <time>2026-03-20T13:34:25Z</time>
      </trkpt>
      <trkpt lat="48.60221" lon="2.12587">
        <ele>96.8</ele>
        <time>2026-03-20T13:34:26Z</time>
      </trkpt>
      <trkpt lat="48.60224" lon="2.1259">
        <ele>97.2</ele>
        <time>2026-03-20T13:34:27Z</time>
      </trkpt>
      <trkpt lat="48.60227" lon="2.12593">
        <ele>97.2</ele>
        <time>2026-03-20T13:34:28Z</time>
      </trkpt>
      <trkpt lat="48.6023" lon="2.12596">
        <ele>97.2</ele>
        <time>2026-03-20T13:34:29Z</time>
      </trkpt>
      <trkpt lat="48.60233" lon="2.12599">
        <ele>97.2</ele>
        <time>2026-03-20T13:34:30Z</time>
      </trkpt>
      <trkpt lat="48.60236" lon="2.12603">
        <ele>97.2</ele>
        <time>2026-03-20T13:34:31Z</time>
      </trkpt>
      <trkpt lat="48.60238" lon="2.12606">
        <ele>97.6</ele>
        <time>2026-03-20T13:34:32Z</time>
      </trkpt>
      <trkpt lat="48.6024" lon="2.1261">
        <ele>97.6</ele>
        <time>2026-03-20T13:34:33Z</time>
      </trkpt>
      <trkpt lat="48.60243" lon="2.12614">
        <ele>97.6</ele>
        <time>2026-03-20T13:34:34Z</time>
      </trkpt>
      <trkpt lat="48.60244" lon="2.12618">
        <ele>98.6</ele>
        <time>2026-03-20T13:34:35Z</time>
      </trkpt>
      <trkpt lat="48.60246" lon="2.12622">
        <ele>98.6</ele>
        <time>2026-03-20T13:34:36Z</time>
      </trkpt>
      <trkpt lat="48.60248" lon="2.12627">
        <ele>98.6</ele>
        <time>2026-03-20T13:34:37Z</time>
      </trkpt>
      <trkpt lat="48.60249" lon="2.12631">
        <ele>98.6</ele>
        <time>2026-03-20T13:34:38Z</time>
      </trkpt>
      <trkpt lat="48.6025" lon="2.12636">
        <ele>98.6</ele>
        <time>2026-03-20T13:34:39Z</time>
      </trkpt>
      <trkpt lat="48.60251" lon="2.12641">
        <ele>99</ele>
        <time>2026-03-20T13:34:40Z</time>
      </trkpt>
      <trkpt lat="48.60253" lon="2.12646">
        <ele>99</ele>
        <time>2026-03-20T13:34:41Z</time>
      </trkpt>
      <trkpt lat="48.60254" lon="2.1265">
        <ele>99</ele>
        <time>2026-03-20T13:34:42Z</time>
      </trkpt>
      <trkpt lat="48.60255" lon="2.12655">
        <ele>99.6</ele>
        <time>2026-03-20T13:34:43Z</time>
      </trkpt>
      <trkpt lat="48.60256" lon="2.1266">
        <ele>99.8</ele>
        <time>2026-03-20T13:34:44Z</time>
      </trkpt>
      <trkpt lat="48.60257" lon="2.12665">
        <ele>99.8</ele>
        <time>2026-03-20T13:34:45Z</time>
      </trkpt>
      <trkpt lat="48.60258" lon="2.12669">
        <ele>99.8</ele>
        <time>2026-03-20T13:34:46Z</time>
      </trkpt>
      <trkpt lat="48.60258" lon="2.12674">
        <ele>99.8</ele>
        <time>2026-03-20T13:34:47Z</time>
      </trkpt>
      <trkpt lat="48.60258" lon="2.12679">
        <ele>100.2</ele>
        <time>2026-03-20T13:34:48Z</time>
      </trkpt>
      <trkpt lat="48.60259" lon="2.12684">
        <ele>100.2</ele>
        <time>2026-03-20T13:34:49Z</time>
      </trkpt>
      <trkpt lat="48.60259" lon="2.12689">
        <ele>100.2</ele>
        <time>2026-03-20T13:34:50Z</time>
      </trkpt>
      <trkpt lat="48.60259" lon="2.12694">
        <ele>100.2</ele>
        <time>2026-03-20T13:34:51Z</time>
      </trkpt>
      <trkpt lat="48.6026" lon="2.12699">
        <ele>100.2</ele>
        <time>2026-03-20T13:34:52Z</time>
      </trkpt>
      <trkpt lat="48.6026" lon="2.12704">
        <ele>100.2</ele>
        <time>2026-03-20T13:34:53Z</time>
      </trkpt>
      <trkpt lat="48.6026" lon="2.12709">
        <ele>100.2</ele>
        <time>2026-03-20T13:34:54Z</time>
      </trkpt>
      <trkpt lat="48.60261" lon="2.12714">
        <ele>100.4</ele>
        <time>2026-03-20T13:34:55Z</time>
      </trkpt>
      <trkpt lat="48.60261" lon="2.12719">
        <ele>99.8</ele>
        <time>2026-03-20T13:34:56Z</time>
      </trkpt>
      <trkpt lat="48.60261" lon="2.12724">
        <ele>99.8</ele>
        <time>2026-03-20T13:34:57Z</time>
      </trkpt>
      <trkpt lat="48.60261" lon="2.12729">
        <ele>99.8</ele>
        <time>2026-03-20T13:34:58Z</time>
      </trkpt>
      <trkpt lat="48.60262" lon="2.12734">
        <ele>100.8</ele>
        <time>2026-03-20T13:34:59Z</time>
      </trkpt>
      <trkpt lat="48.60262" lon="2.1274">
        <ele>101.4</ele>
        <time>2026-03-20T13:35:00Z</time>
      </trkpt>
      <trkpt lat="48.60262" lon="2.12745">
        <ele>101.4</ele>
        <time>2026-03-20T13:35:01Z</time>
      </trkpt>
      <trkpt lat="48.60262" lon="2.1275">
        <ele>101.4</ele>
        <time>2026-03-20T13:35:02Z</time>
      </trkpt>
      <trkpt lat="48.60263" lon="2.12756">
        <ele>102.2</ele>
        <time>2026-03-20T13:35:03Z</time>
      </trkpt>
      <trkpt lat="48.60263" lon="2.12761">
        <ele>102.2</ele>
        <time>2026-03-20T13:35:04Z</time>
      </trkpt>
      <trkpt lat="48.60264" lon="2.12766">
        <ele>102.2</ele>
        <time>2026-03-20T13:35:05Z</time>
      </trkpt>
      <trkpt lat="48.60265" lon="2.12772">
        <ele>102.2</ele>
        <time>2026-03-20T13:35:06Z</time>
      </trkpt>
      <trkpt lat="48.60265" lon="2.12777">
        <ele>102.6</ele>
        <time>2026-03-20T13:35:07Z</time>
      </trkpt>
      <trkpt lat="48.60265" lon="2.12782">
        <ele>102.8</ele>
        <time>2026-03-20T13:35:08Z</time>
      </trkpt>
      <trkpt lat="48.60266" lon="2.12788">
        <ele>102.8</ele>
        <time>2026-03-20T13:35:09Z</time>
      </trkpt>
      <trkpt lat="48.60267" lon="2.12793">
        <ele>102.8</ele>
        <time>2026-03-20T13:35:10Z</time>
      </trkpt>
      <trkpt lat="48.60267" lon="2.12798">
        <ele>103.2</ele>
        <time>2026-03-20T13:35:11Z</time>
      </trkpt>
      <trkpt lat="48.60268" lon="2.12803">
        <ele>103.2</ele>
        <time>2026-03-20T13:35:12Z</time>
      </trkpt>
      <trkpt lat="48.60269" lon="2.12808">
        <ele>103.2</ele>
        <time>2026-03-20T13:35:13Z</time>
      </trkpt>
      <trkpt lat="48.6027" lon="2.12813">
        <ele>103.2</ele>
        <time>2026-03-20T13:35:14Z</time>
      </trkpt>
      <trkpt lat="48.6027" lon="2.12818">
        <ele>103.8</ele>
        <time>2026-03-20T13:35:15Z</time>
      </trkpt>
      <trkpt lat="48.60271" lon="2.12823">
        <ele>103.6</ele>
        <time>2026-03-20T13:35:16Z</time>
      </trkpt>
      <trkpt lat="48.60271" lon="2.12828">
        <ele>103.6</ele>
        <time>2026-03-20T13:35:17Z</time>
      </trkpt>
      <trkpt lat="48.60272" lon="2.12832">
        <ele>103.6</ele>
        <time>2026-03-20T13:35:18Z</time>
      </trkpt>
      <trkpt lat="48.60273" lon="2.12837">
        <ele>104.4</ele>
        <time>2026-03-20T13:35:19Z</time>
      </trkpt>
      <trkpt lat="48.60273" lon="2.12843">
        <ele>104.4</ele>
        <time>2026-03-20T13:35:20Z</time>
      </trkpt>
      <trkpt lat="48.60274" lon="2.12849">
        <ele>104.4</ele>
        <time>2026-03-20T13:35:21Z</time>
      </trkpt>
      <trkpt lat="48.60275" lon="2.12854">
        <ele>104.4</ele>
        <time>2026-03-20T13:35:22Z</time>
      </trkpt>
      <trkpt lat="48.60275" lon="2.1286">
        <ele>104.4</ele>
        <time>2026-03-20T13:35:23Z</time>
      </trkpt>
      <trkpt lat="48.60276" lon="2.12866">
        <ele>104.8</ele>
        <time>2026-03-20T13:35:24Z</time>
      </trkpt>
      <trkpt lat="48.60277" lon="2.12871">
        <ele>104.8</ele>
        <time>2026-03-20T13:35:25Z</time>
      </trkpt>
      <trkpt lat="48.60278" lon="2.12877">
        <ele>104.8</ele>
        <time>2026-03-20T13:35:26Z</time>
      </trkpt>
      <trkpt lat="48.60279" lon="2.12883">
        <ele>104.8</ele>
        <time>2026-03-20T13:35:27Z</time>
      </trkpt>
      <trkpt lat="48.6028" lon="2.12888">
        <ele>105.6</ele>
        <time>2026-03-20T13:35:28Z</time>
      </trkpt>
      <trkpt lat="48.60281" lon="2.12893">
        <ele>105.6</ele>
        <time>2026-03-20T13:35:29Z</time>
      </trkpt>
      <trkpt lat="48.60281" lon="2.12899">
        <ele>105.6</ele>
        <time>2026-03-20T13:35:30Z</time>
      </trkpt>
      <trkpt lat="48.60282" lon="2.12904">
        <ele>105.6</ele>
        <time>2026-03-20T13:35:31Z</time>
      </trkpt>
      <trkpt lat="48.60283" lon="2.12909">
        <ele>106</ele>
        <time>2026-03-20T13:35:32Z</time>
      </trkpt>
      <trkpt lat="48.60284" lon="2.12914">
        <ele>106</ele>
        <time>2026-03-20T13:35:33Z</time>
      </trkpt>
      <trkpt lat="48.60285" lon="2.1292">
        <ele>106</ele>
        <time>2026-03-20T13:35:34Z</time>
      </trkpt>
      <trkpt lat="48.60286" lon="2.12925">
        <ele>107</ele>
        <time>2026-03-20T13:35:35Z</time>
      </trkpt>
      <trkpt lat="48.60287" lon="2.12931">
        <ele>107</ele>
        <time>2026-03-20T13:35:36Z</time>
      </trkpt>
      <trkpt lat="48.60288" lon="2.12936">
        <ele>107</ele>
        <time>2026-03-20T13:35:37Z</time>
      </trkpt>
      <trkpt lat="48.60289" lon="2.12941">
        <ele>107</ele>
        <time>2026-03-20T13:35:38Z</time>
      </trkpt>
      <trkpt lat="48.60291" lon="2.12947">
        <ele>107</ele>
        <time>2026-03-20T13:35:39Z</time>
      </trkpt>
      <trkpt lat="48.60292" lon="2.12952">
        <ele>106.6</ele>
        <time>2026-03-20T13:35:40Z</time>
      </trkpt>
      <trkpt lat="48.60293" lon="2.12958">
        <ele>106.6</ele>
        <time>2026-03-20T13:35:41Z</time>
      </trkpt>
      <trkpt lat="48.60294" lon="2.12963">
        <ele>106.6</ele>
        <time>2026-03-20T13:35:42Z</time>
      </trkpt>
      <trkpt lat="48.60295" lon="2.12969">
        <ele>107.6</ele>
        <time>2026-03-20T13:35:43Z</time>
      </trkpt>
      <trkpt lat="48.60296" lon="2.12974">
        <ele>107</ele>
        <time>2026-03-20T13:35:44Z</time>
      </trkpt>
      <trkpt lat="48.60297" lon="2.1298">
        <ele>107</ele>
        <time>2026-03-20T13:35:45Z</time>
      </trkpt>
      <trkpt lat="48.60298" lon="2.12986">
        <ele>107</ele>
        <time>2026-03-20T13:35:46Z</time>
      </trkpt>
      <trkpt lat="48.60299" lon="2.12991">
        <ele>107.2</ele>
        <time>2026-03-20T13:35:47Z</time>
      </trkpt>
      <trkpt lat="48.603" lon="2.12997">
        <ele>107.8</ele>
        <time>2026-03-20T13:35:48Z</time>
      </trkpt>
      <trkpt lat="48.60301" lon="2.13002">
        <ele>107.8</ele>
        <time>2026-03-20T13:35:49Z</time>
      </trkpt>
      <trkpt lat="48.60303" lon="2.13008">
        <ele>107.8</ele>
        <time>2026-03-20T13:35:50Z</time>
      </trkpt>
      <trkpt lat="48.60304" lon="2.13013">
        <ele>107.8</ele>
        <time>2026-03-20T13:35:51Z</time>
      </trkpt>
      <trkpt lat="48.60305" lon="2.13019">
        <ele>107.6</ele>
        <time>2026-03-20T13:35:52Z</time>
      </trkpt>
      <trkpt lat="48.60306" lon="2.13024">
        <ele>107.6</ele>
        <time>2026-03-20T13:35:53Z</time>
      </trkpt>
      <trkpt lat="48.60307" lon="2.1303">
        <ele>107.6</ele>
        <time>2026-03-20T13:35:54Z</time>
      </trkpt>
      <trkpt lat="48.60308" lon="2.13036">
        <ele>107.6</ele>
        <time>2026-03-20T13:35:55Z</time>
      </trkpt>
      <trkpt lat="48.60309" lon="2.13043">
        <ele>108.2</ele>
        <time>2026-03-20T13:35:56Z</time>
      </trkpt>
      <trkpt lat="48.60309" lon="2.1305">
        <ele>108.2</ele>
        <time>2026-03-20T13:35:57Z</time>
      </trkpt>
      <trkpt lat="48.6031" lon="2.13056">
        <ele>108.2</ele>
        <time>2026-03-20T13:35:58Z</time>
      </trkpt>
      <trkpt lat="48.6031" lon="2.13063">
        <ele>108.2</ele>
        <time>2026-03-20T13:35:59Z</time>
      </trkpt>
      <trkpt lat="48.60311" lon="2.1307">
        <ele>107.6</ele>
        <time>2026-03-20T13:36:00Z</time>
      </trkpt>
      <trkpt lat="48.60311" lon="2.13077">
        <ele>107.6</ele>
        <time>2026-03-20T13:36:01Z</time>
      </trkpt>
      <trkpt lat="48.60312" lon="2.13084">
        <ele>107.6</ele>
        <time>2026-03-20T13:36:02Z</time>
      </trkpt>
      <trkpt lat="48.60312" lon="2.13092">
        <ele>107.6</ele>
        <time>2026-03-20T13:36:03Z</time>
      </trkpt>
      <trkpt lat="48.60313" lon="2.13099">
        <ele>106.6</ele>
        <time>2026-03-20T13:36:04Z</time>
      </trkpt>
      <trkpt lat="48.60313" lon="2.13107">
        <ele>106.6</ele>
        <time>2026-03-20T13:36:05Z</time>
      </trkpt>
      <trkpt lat="48.60314" lon="2.13114">
        <ele>106.6</ele>
        <time>2026-03-20T13:36:06Z</time>
      </trkpt>
      <trkpt lat="48.60314" lon="2.13121">
        <ele>107.6</ele>
        <time>2026-03-20T13:36:07Z</time>
      </trkpt>
      <trkpt lat="48.60315" lon="2.13129">
        <ele>107.6</ele>
        <time>2026-03-20T13:36:08Z</time>
      </trkpt>
      <trkpt lat="48.60316" lon="2.13136">
        <ele>107.6</ele>
        <time>2026-03-20T13:36:09Z</time>
      </trkpt>
      <trkpt lat="48.60317" lon="2.13144">
        <ele>107.6</ele>
        <time>2026-03-20T13:36:10Z</time>
      </trkpt>
      <trkpt lat="48.60317" lon="2.13151">
        <ele>106.6</ele>
        <time>2026-03-20T13:36:11Z</time>
      </trkpt>
      <trkpt lat="48.60318" lon="2.13159">
        <ele>106.2</ele>
        <time>2026-03-20T13:36:12Z</time>
      </trkpt>
      <trkpt lat="48.60319" lon="2.13167">
        <ele>106.2</ele>
        <time>2026-03-20T13:36:13Z</time>
      </trkpt>
      <trkpt lat="48.6032" lon="2.13175">
        <ele>106.2</ele>
        <time>2026-03-20T13:36:14Z</time>
      </trkpt>
      <trkpt lat="48.60321" lon="2.13184">
        <ele>107.2</ele>
        <time>2026-03-20T13:36:15Z</time>
      </trkpt>
      <trkpt lat="48.60322" lon="2.13192">
        <ele>106.6</ele>
        <time>2026-03-20T13:36:16Z</time>
      </trkpt>
      <trkpt lat="48.60323" lon="2.132">
        <ele>106.6</ele>
        <time>2026-03-20T13:36:17Z</time>
      </trkpt>
      <trkpt lat="48.60323" lon="2.13208">
        <ele>106.6</ele>
        <time>2026-03-20T13:36:18Z</time>
      </trkpt>
      <trkpt lat="48.60324" lon="2.13217">
        <ele>106</ele>
        <time>2026-03-20T13:36:19Z</time>
      </trkpt>
      <trkpt lat="48.60325" lon="2.13225">
        <ele>106</ele>
        <time>2026-03-20T13:36:20Z</time>
      </trkpt>
      <trkpt lat="48.60326" lon="2.13233">
        <ele>106</ele>
        <time>2026-03-20T13:36:21Z</time>
      </trkpt>
      <trkpt lat="48.60326" lon="2.13242">
        <ele>106</ele>
        <time>2026-03-20T13:36:22Z</time>
      </trkpt>
      <trkpt lat="48.60327" lon="2.1325">
        <ele>106.4</ele>
        <time>2026-03-20T13:36:23Z</time>
      </trkpt>
      <trkpt lat="48.60328" lon="2.13258">
        <ele>106.8</ele>
        <time>2026-03-20T13:36:24Z</time>
      </trkpt>
      <trkpt lat="48.60329" lon="2.13266">
        <ele>106.8</ele>
        <time>2026-03-20T13:36:25Z</time>
      </trkpt>
      <trkpt lat="48.60329" lon="2.13275">
        <ele>106.8</ele>
        <time>2026-03-20T13:36:26Z</time>
      </trkpt>
      <trkpt lat="48.6033" lon="2.13283">
        <ele>106.8</ele>
        <time>2026-03-20T13:36:27Z</time>
      </trkpt>
      <trkpt lat="48.60331" lon="2.13291">
        <ele>106.4</ele>
        <time>2026-03-20T13:36:28Z</time>
      </trkpt>
      <trkpt lat="48.60331" lon="2.133">
        <ele>106.4</ele>
        <time>2026-03-20T13:36:29Z</time>
      </trkpt>
      <trkpt lat="48.60332" lon="2.13308">
        <ele>106.4</ele>
        <time>2026-03-20T13:36:30Z</time>
      </trkpt>
      <trkpt lat="48.60332" lon="2.13317">
        <ele>106.4</ele>
        <time>2026-03-20T13:36:31Z</time>
      </trkpt>
      <trkpt lat="48.60332" lon="2.13325">
        <ele>105.8</ele>
        <time>2026-03-20T13:36:32Z</time>
      </trkpt>
      <trkpt lat="48.60333" lon="2.13334">
        <ele>105.8</ele>
        <time>2026-03-20T13:36:33Z</time>
      </trkpt>
      <trkpt lat="48.60333" lon="2.13343">
        <ele>105.8</ele>
        <time>2026-03-20T13:36:34Z</time>
      </trkpt>
      <trkpt lat="48.60334" lon="2.13351">
        <ele>106.2</ele>
        <time>2026-03-20T13:36:35Z</time>
      </trkpt>
      <trkpt lat="48.60334" lon="2.1336">
        <ele>106.2</ele>
        <time>2026-03-20T13:36:36Z</time>
      </trkpt>
      <trkpt lat="48.60335" lon="2.13368">
        <ele>106.2</ele>
        <time>2026-03-20T13:36:37Z</time>
      </trkpt>
      <trkpt lat="48.60336" lon="2.13377">
        <ele>106.2</ele>
        <time>2026-03-20T13:36:38Z</time>
      </trkpt>
      <trkpt lat="48.60337" lon="2.13386">
        <ele>106.2</ele>
        <time>2026-03-20T13:36:39Z</time>
      </trkpt>
      <trkpt lat="48.60338" lon="2.13395">
        <ele>106.6</ele>
        <time>2026-03-20T13:36:40Z</time>
      </trkpt>
      <trkpt lat="48.60339" lon="2.13404">
        <ele>106.6</ele>
        <time>2026-03-20T13:36:41Z</time>
      </trkpt>
      <trkpt lat="48.6034" lon="2.13412">
        <ele>106.6</ele>
        <time>2026-03-20T13:36:42Z</time>
      </trkpt>
      <trkpt lat="48.60341" lon="2.13421">
        <ele>106.6</ele>
        <time>2026-03-20T13:36:43Z</time>
      </trkpt>
      <trkpt lat="48.60342" lon="2.1343">
        <ele>106</ele>
        <time>2026-03-20T13:36:44Z</time>
      </trkpt>
      <trkpt lat="48.60343" lon="2.13439">
        <ele>106</ele>
        <time>2026-03-20T13:36:45Z</time>
      </trkpt>
      <trkpt lat="48.60344" lon="2.13448">
        <ele>106</ele>
        <time>2026-03-20T13:36:46Z</time>
      </trkpt>
      <trkpt lat="48.60344" lon="2.13457">
        <ele>106</ele>
        <time>2026-03-20T13:36:47Z</time>
      </trkpt>
      <trkpt lat="48.60345" lon="2.13466">
        <ele>106.8</ele>
        <time>2026-03-20T13:36:48Z</time>
      </trkpt>
      <trkpt lat="48.60346" lon="2.13475">
        <ele>106.8</ele>
        <time>2026-03-20T13:36:49Z</time>
      </trkpt>
      <trkpt lat="48.60346" lon="2.13484">
        <ele>106.8</ele>
        <time>2026-03-20T13:36:50Z</time>
      </trkpt>
      <trkpt lat="48.60347" lon="2.13493">
        <ele>106.8</ele>
        <time>2026-03-20T13:36:51Z</time>
      </trkpt>
      <trkpt lat="48.60348" lon="2.13502">
        <ele>106.6</ele>
        <time>2026-03-20T13:36:52Z</time>
      </trkpt>
      <trkpt lat="48.60349" lon="2.13511">
        <ele>106.6</ele>
        <time>2026-03-20T13:36:53Z</time>
      </trkpt>
      <trkpt lat="48.60349" lon="2.13521">
        <ele>106.6</ele>
        <time>2026-03-20T13:36:54Z</time>
      </trkpt>
      <trkpt lat="48.6035" lon="2.1353">
        <ele>106.6</ele>
        <time>2026-03-20T13:36:55Z</time>
      </trkpt>
      <trkpt lat="48.6035" lon="2.13539">
        <ele>106.4</ele>
        <time>2026-03-20T13:36:56Z</time>
      </trkpt>
      <trkpt lat="48.60351" lon="2.13549">
        <ele>106.4</ele>
        <time>2026-03-20T13:36:57Z</time>
      </trkpt>
      <trkpt lat="48.60352" lon="2.13558">
        <ele>106.4</ele>
        <time>2026-03-20T13:36:58Z</time>
      </trkpt>
      <trkpt lat="48.60353" lon="2.13567">
        <ele>105.4</ele>
        <time>2026-03-20T13:36:59Z</time>
      </trkpt>
      <trkpt lat="48.60354" lon="2.13577">
        <ele>105.8</ele>
        <time>2026-03-20T13:37:00Z</time>
      </trkpt>
      <trkpt lat="48.60355" lon="2.13586">
        <ele>105.8</ele>
        <time>2026-03-20T13:37:01Z</time>
      </trkpt>
      <trkpt lat="48.60356" lon="2.13596">
        <ele>105.8</ele>
        <time>2026-03-20T13:37:02Z</time>
      </trkpt>
      <trkpt lat="48.60357" lon="2.13605">
        <ele>105.8</ele>
        <time>2026-03-20T13:37:03Z</time>
      </trkpt>
      <trkpt lat="48.60358" lon="2.13615">
        <ele>105.2</ele>
        <time>2026-03-20T13:37:04Z</time>
      </trkpt>
      <trkpt lat="48.60359" lon="2.13624">
        <ele>105.2</ele>
        <time>2026-03-20T13:37:05Z</time>
      </trkpt>
      <trkpt lat="48.60361" lon="2.13634">
        <ele>105.2</ele>
        <time>2026-03-20T13:37:06Z</time>
      </trkpt>
      <trkpt lat="48.60362" lon="2.13643">
        <ele>105.2</ele>
        <time>2026-03-20T13:37:07Z</time>
      </trkpt>
      <trkpt lat="48.60363" lon="2.13653">
        <ele>104.8</ele>
        <time>2026-03-20T13:37:08Z</time>
      </trkpt>
      <trkpt lat="48.60364" lon="2.13662">
        <ele>104.8</ele>
        <time>2026-03-20T13:37:09Z</time>
      </trkpt>
      <trkpt lat="48.60365" lon="2.13672">
        <ele>104.8</ele>
        <time>2026-03-20T13:37:10Z</time>
      </trkpt>
      <trkpt lat="48.60366" lon="2.13681">
        <ele>104.8</ele>
        <time>2026-03-20T13:37:11Z</time>
      </trkpt>
      <trkpt lat="48.60366" lon="2.13691">
        <ele>105.8</ele>
        <time>2026-03-20T13:37:12Z</time>
      </trkpt>
      <trkpt lat="48.60368" lon="2.137">
        <ele>105.8</ele>
        <time>2026-03-20T13:37:13Z</time>
      </trkpt>
      <trkpt lat="48.60369" lon="2.1371">
        <ele>105.8</ele>
        <time>2026-03-20T13:37:14Z</time>
      </trkpt>
      <trkpt lat="48.60369" lon="2.1372">
        <ele>106.2</ele>
        <time>2026-03-20T13:37:15Z</time>
      </trkpt>
      <trkpt lat="48.6037" lon="2.1373">
        <ele>106.2</ele>
        <time>2026-03-20T13:37:16Z</time>
      </trkpt>
      <trkpt lat="48.60371" lon="2.1374">
        <ele>106.2</ele>
        <time>2026-03-20T13:37:17Z</time>
      </trkpt>
      <trkpt lat="48.60373" lon="2.1375">
        <ele>106.2</ele>
        <time>2026-03-20T13:37:18Z</time>
      </trkpt>
      <trkpt lat="48.60374" lon="2.1376">
        <ele>106.2</ele>
        <time>2026-03-20T13:37:19Z</time>
      </trkpt>
      <trkpt lat="48.60375" lon="2.1377">
        <ele>103.6</ele>
        <time>2026-03-20T13:37:20Z</time>
      </trkpt>
      <trkpt lat="48.60376" lon="2.1378">
        <ele>103.6</ele>
        <time>2026-03-20T13:37:21Z</time>
      </trkpt>
      <trkpt lat="48.60377" lon="2.1379">
        <ele>103.6</ele>
        <time>2026-03-20T13:37:22Z</time>
      </trkpt>
      <trkpt lat="48.60379" lon="2.138">
        <ele>104.6</ele>
        <time>2026-03-20T13:37:23Z</time>
      </trkpt>
      <trkpt lat="48.60381" lon="2.1381">
        <ele>105.8</ele>
        <time>2026-03-20T13:37:24Z</time>
      </trkpt>
      <trkpt lat="48.60382" lon="2.1382">
        <ele>105.8</ele>
        <time>2026-03-20T13:37:25Z</time>
      </trkpt>
      <trkpt lat="48.60383" lon="2.1383">
        <ele>105.8</ele>
        <time>2026-03-20T13:37:26Z</time>
      </trkpt>
      <trkpt lat="48.60384" lon="2.1384">
        <ele>105</ele>
        <time>2026-03-20T13:37:27Z</time>
      </trkpt>
      <trkpt lat="48.60385" lon="2.1385">
        <ele>105.6</ele>
        <time>2026-03-20T13:37:28Z</time>
      </trkpt>
      <trkpt lat="48.60386" lon="2.1386">
        <ele>105.6</ele>
        <time>2026-03-20T13:37:29Z</time>
      </trkpt>
      <trkpt lat="48.60387" lon="2.1387">
        <ele>105.6</ele>
        <time>2026-03-20T13:37:30Z</time>
      </trkpt>
      <trkpt lat="48.60389" lon="2.1388">
        <ele>105.4</ele>
        <time>2026-03-20T13:37:31Z</time>
      </trkpt>
      <trkpt lat="48.6039" lon="2.1389">
        <ele>106</ele>
        <time>2026-03-20T13:37:32Z</time>
      </trkpt>
      <trkpt lat="48.60392" lon="2.139">
        <ele>106</ele>
        <time>2026-03-20T13:37:33Z</time>
      </trkpt>
      <trkpt lat="48.60394" lon="2.1391">
        <ele>106</ele>
        <time>2026-03-20T13:37:34Z</time>
      </trkpt>
      <trkpt lat="48.60396" lon="2.1392">
        <ele>106</ele>
        <time>2026-03-20T13:37:35Z</time>
      </trkpt>
      <trkpt lat="48.60397" lon="2.13931">
        <ele>104.6</ele>
        <time>2026-03-20T13:37:36Z</time>
      </trkpt>
      <trkpt lat="48.60399" lon="2.13941">
        <ele>104.6</ele>
        <time>2026-03-20T13:37:37Z</time>
      </trkpt>
      <trkpt lat="48.604" lon="2.13951">
        <ele>104.6</ele>
        <time>2026-03-20T13:37:38Z</time>
      </trkpt>
      <trkpt lat="48.60401" lon="2.13961">
        <ele>104.6</ele>
        <time>2026-03-20T13:37:39Z</time>
      </trkpt>
      <trkpt lat="48.60402" lon="2.13972">
        <ele>104.6</ele>
        <time>2026-03-20T13:37:40Z</time>
      </trkpt>
      <trkpt lat="48.60403" lon="2.13982">
        <ele>104.6</ele>
        <time>2026-03-20T13:37:41Z</time>
      </trkpt>
      <trkpt lat="48.60403" lon="2.13992">
        <ele>104.6</ele>
        <time>2026-03-20T13:37:42Z</time>
      </trkpt>
      <trkpt lat="48.60403" lon="2.14002">
        <ele>104.4</ele>
        <time>2026-03-20T13:37:43Z</time>
      </trkpt>
      <trkpt lat="48.60403" lon="2.14012">
        <ele>103.8</ele>
        <time>2026-03-20T13:37:44Z</time>
      </trkpt>
      <trkpt lat="48.60402" lon="2.14021">
        <ele>103.8</ele>
        <time>2026-03-20T13:37:45Z</time>
      </trkpt>
      <trkpt lat="48.60402" lon="2.14031">
        <ele>103.8</ele>
        <time>2026-03-20T13:37:46Z</time>
      </trkpt>
      <trkpt lat="48.60402" lon="2.1404">
        <ele>104.6</ele>
        <time>2026-03-20T13:37:47Z</time>
      </trkpt>
      <trkpt lat="48.60402" lon="2.1405">
        <ele>104.2</ele>
        <time>2026-03-20T13:37:48Z</time>
      </trkpt>
      <trkpt lat="48.60402" lon="2.1406">
        <ele>104.2</ele>
        <time>2026-03-20T13:37:49Z</time>
      </trkpt>
      <trkpt lat="48.60403" lon="2.1407">
        <ele>104.2</ele>
        <time>2026-03-20T13:37:50Z</time>
      </trkpt>
      <trkpt lat="48.60403" lon="2.1408">
        <ele>104.2</ele>
        <time>2026-03-20T13:37:51Z</time>
      </trkpt>
      <trkpt lat="48.60403" lon="2.1409">
        <ele>103.6</ele>
        <time>2026-03-20T13:37:52Z</time>
      </trkpt>
      <trkpt lat="48.60403" lon="2.14099">
        <ele>103.6</ele>
        <time>2026-03-20T13:37:53Z</time>
      </trkpt>
      <trkpt lat="48.60403" lon="2.14109">
        <ele>103.6</ele>
        <time>2026-03-20T13:37:54Z</time>
      </trkpt>
      <trkpt lat="48.60404" lon="2.14119">
        <ele>103.6</ele>
        <time>2026-03-20T13:37:55Z</time>
      </trkpt>
      <trkpt lat="48.60404" lon="2.14128">
        <ele>103.6</ele>
        <time>2026-03-20T13:37:56Z</time>
      </trkpt>
      <trkpt lat="48.60404" lon="2.14138">
        <ele>103.6</ele>
        <time>2026-03-20T13:37:57Z</time>
      </trkpt>
      <trkpt lat="48.60404" lon="2.14148">
        <ele>103.6</ele>
        <time>2026-03-20T13:37:58Z</time>
      </trkpt>
      <trkpt lat="48.60404" lon="2.14157">
        <ele>104.4</ele>
        <time>2026-03-20T13:37:59Z</time>
      </trkpt>
      <trkpt lat="48.60404" lon="2.14167">
        <ele>104.6</ele>
        <time>2026-03-20T13:38:00Z</time>
      </trkpt>
      <trkpt lat="48.60404" lon="2.14176">
        <ele>104.6</ele>
        <time>2026-03-20T13:38:01Z</time>
      </trkpt>
      <trkpt lat="48.60405" lon="2.14186">
        <ele>104.6</ele>
        <time>2026-03-20T13:38:02Z</time>
      </trkpt>
      <trkpt lat="48.60405" lon="2.14195">
        <ele>104.6</ele>
        <time>2026-03-20T13:38:03Z</time>
      </trkpt>
      <trkpt lat="48.60405" lon="2.14205">
        <ele>105.8</ele>
        <time>2026-03-20T13:38:04Z</time>
      </trkpt>
      <trkpt lat="48.60405" lon="2.14215">
        <ele>105.8</ele>
        <time>2026-03-20T13:38:05Z</time>
      </trkpt>
      <trkpt lat="48.60405" lon="2.14224">
        <ele>105.8</ele>
        <time>2026-03-20T13:38:06Z</time>
      </trkpt>
      <trkpt lat="48.60405" lon="2.14234">
        <ele>105.8</ele>
        <time>2026-03-20T13:38:07Z</time>
      </trkpt>
      <trkpt lat="48.60405" lon="2.14244">
        <ele>105.2</ele>
        <time>2026-03-20T13:38:08Z</time>
      </trkpt>
      <trkpt lat="48.60406" lon="2.14254">
        <ele>105.2</ele>
        <time>2026-03-20T13:38:09Z</time>
      </trkpt>
      <trkpt lat="48.60406" lon="2.14264">
        <ele>105.2</ele>
        <time>2026-03-20T13:38:10Z</time>
      </trkpt>
      <trkpt lat="48.60406" lon="2.14273">
        <ele>104.2</ele>
        <time>2026-03-20T13:38:11Z</time>
      </trkpt>
      <trkpt lat="48.60406" lon="2.14283">
        <ele>102.6</ele>
        <time>2026-03-20T13:38:12Z</time>
      </trkpt>
      <trkpt lat="48.60406" lon="2.14293">
        <ele>102.6</ele>
        <time>2026-03-20T13:38:13Z</time>
      </trkpt>
      <trkpt lat="48.60406" lon="2.14302">
        <ele>102.6</ele>
        <time>2026-03-20T13:38:14Z</time>
      </trkpt>
      <trkpt lat="48.60406" lon="2.14312">
        <ele>102.6</ele>
        <time>2026-03-20T13:38:15Z</time>
      </trkpt>
      <trkpt lat="48.60406" lon="2.14322">
        <ele>101.8</ele>
        <time>2026-03-20T13:38:16Z</time>
      </trkpt>
      <trkpt lat="48.60406" lon="2.14331">
        <ele>101.8</ele>
        <time>2026-03-20T13:38:17Z</time>
      </trkpt>
      <trkpt lat="48.60406" lon="2.14341">
        <ele>101.8</ele>
        <time>2026-03-20T13:38:18Z</time>
      </trkpt>
      <trkpt lat="48.60407" lon="2.14351">
        <ele>101.8</ele>
        <time>2026-03-20T13:38:19Z</time>
      </trkpt>
      <trkpt lat="48.60407" lon="2.14361">
        <ele>103</ele>
        <time>2026-03-20T13:38:20Z</time>
      </trkpt>
      <trkpt lat="48.60407" lon="2.1437">
        <ele>103</ele>
        <time>2026-03-20T13:38:21Z</time>
      </trkpt>
      <trkpt lat="48.60407" lon="2.1438">
        <ele>103</ele>
        <time>2026-03-20T13:38:22Z</time>
      </trkpt>
      <trkpt lat="48.60407" lon="2.1439">
        <ele>103</ele>
        <time>2026-03-20T13:38:23Z</time>
      </trkpt>
      <trkpt lat="48.60407" lon="2.14399">
        <ele>103.4</ele>
        <time>2026-03-20T13:38:24Z</time>
      </trkpt>
      <trkpt lat="48.60407" lon="2.14409">
        <ele>103.4</ele>
        <time>2026-03-20T13:38:25Z</time>
      </trkpt>
      <trkpt lat="48.60407" lon="2.14419">
        <ele>103.4</ele>
        <time>2026-03-20T13:38:26Z</time>
      </trkpt>
      <trkpt lat="48.60408" lon="2.14428">
        <ele>103.4</ele>
        <time>2026-03-20T13:38:27Z</time>
      </trkpt>
      <trkpt lat="48.60408" lon="2.14438">
        <ele>103.8</ele>
        <time>2026-03-20T13:38:28Z</time>
      </trkpt>
      <trkpt lat="48.60408" lon="2.14448">
        <ele>103.8</ele>
        <time>2026-03-20T13:38:29Z</time>
      </trkpt>
      <trkpt lat="48.60408" lon="2.14458">
        <ele>103.8</ele>
        <time>2026-03-20T13:38:30Z</time>
      </trkpt>
      <trkpt lat="48.60408" lon="2.14467">
        <ele>103.2</ele>
        <time>2026-03-20T13:38:31Z</time>
      </trkpt>
      <trkpt lat="48.60408" lon="2.14477">
        <ele>103.6</ele>
        <time>2026-03-20T13:38:32Z</time>
      </trkpt>
      <trkpt lat="48.60408" lon="2.14488">
        <ele>103.6</ele>
        <time>2026-03-20T13:38:33Z</time>
      </trkpt>
      <trkpt lat="48.60408" lon="2.14498">
        <ele>103.6</ele>
        <time>2026-03-20T13:38:34Z</time>
      </trkpt>
      <trkpt lat="48.60408" lon="2.14508">
        <ele>104.4</ele>
        <time>2026-03-20T13:38:35Z</time>
      </trkpt>
      <trkpt lat="48.60407" lon="2.14518">
        <ele>104</ele>
        <time>2026-03-20T13:38:36Z</time>
      </trkpt>
      <trkpt lat="48.60407" lon="2.14528">
        <ele>104</ele>
        <time>2026-03-20T13:38:37Z</time>
      </trkpt>
      <trkpt lat="48.60407" lon="2.14539">
        <ele>104</ele>
        <time>2026-03-20T13:38:38Z</time>
      </trkpt>
      <trkpt lat="48.60406" lon="2.14549">
        <ele>103</ele>
        <time>2026-03-20T13:38:39Z</time>
      </trkpt>
      <trkpt lat="48.60404" lon="2.14559">
        <ele>103.2</ele>
        <time>2026-03-20T13:38:40Z</time>
      </trkpt>
      <trkpt lat="48.60403" lon="2.14569">
        <ele>103.2</ele>
        <time>2026-03-20T13:38:41Z</time>
      </trkpt>
      <trkpt lat="48.60401" lon="2.14579">
        <ele>103.2</ele>
        <time>2026-03-20T13:38:42Z</time>
      </trkpt>
      <trkpt lat="48.60399" lon="2.14589">
        <ele>104</ele>
        <time>2026-03-20T13:38:43Z</time>
      </trkpt>
      <trkpt lat="48.60397" lon="2.14599">
        <ele>103.4</ele>
        <time>2026-03-20T13:38:44Z</time>
      </trkpt>
      <trkpt lat="48.60394" lon="2.14609">
        <ele>103.4</ele>
        <time>2026-03-20T13:38:45Z</time>
      </trkpt>
      <trkpt lat="48.60391" lon="2.14619">
        <ele>103.4</ele>
        <time>2026-03-20T13:38:46Z</time>
      </trkpt>
      <trkpt lat="48.60388" lon="2.14629">
        <ele>102.4</ele>
        <time>2026-03-20T13:38:47Z</time>
      </trkpt>
      <trkpt lat="48.60386" lon="2.14638">
        <ele>102.6</ele>
        <time>2026-03-20T13:38:48Z</time>
      </trkpt>
      <trkpt lat="48.60382" lon="2.14648">
        <ele>102.6</ele>
        <time>2026-03-20T13:38:49Z</time>
      </trkpt>
      <trkpt lat="48.60379" lon="2.14657">
        <ele>102.6</ele>
        <time>2026-03-20T13:38:50Z</time>
      </trkpt>
      <trkpt lat="48.60376" lon="2.14666">
        <ele>102.6</ele>
        <time>2026-03-20T13:38:51Z</time>
      </trkpt>
      <trkpt lat="48.60373" lon="2.14675">
        <ele>102</ele>
        <time>2026-03-20T13:38:52Z</time>
      </trkpt>
      <trkpt lat="48.6037" lon="2.14685">
        <ele>102</ele>
        <time>2026-03-20T13:38:53Z</time>
      </trkpt>
      <trkpt lat="48.60367" lon="2.14694">
        <ele>102</ele>
        <time>2026-03-20T13:38:54Z</time>
      </trkpt>
      <trkpt lat="48.60364" lon="2.14703">
        <ele>102</ele>
        <time>2026-03-20T13:38:55Z</time>
      </trkpt>
      <trkpt lat="48.60361" lon="2.14712">
        <ele>100.2</ele>
        <time>2026-03-20T13:38:56Z</time>
      </trkpt>
      <trkpt lat="48.60357" lon="2.14721">
        <ele>100.2</ele>
        <time>2026-03-20T13:38:57Z</time>
      </trkpt>
      <trkpt lat="48.60354" lon="2.1473">
        <ele>100.2</ele>
        <time>2026-03-20T13:38:58Z</time>
      </trkpt>
      <trkpt lat="48.60351" lon="2.1474">
        <ele>101.2</ele>
        <time>2026-03-20T13:38:59Z</time>
      </trkpt>
      <trkpt lat="48.60347" lon="2.14749">
        <ele>101.8</ele>
        <time>2026-03-20T13:39:00Z</time>
      </trkpt>
      <trkpt lat="48.60344" lon="2.14758">
        <ele>101.8</ele>
        <time>2026-03-20T13:39:01Z</time>
      </trkpt>
      <trkpt lat="48.60341" lon="2.14768">
        <ele>101.8</ele>
        <time>2026-03-20T13:39:02Z</time>
      </trkpt>
      <trkpt lat="48.60338" lon="2.14777">
        <ele>101.8</ele>
        <time>2026-03-20T13:39:03Z</time>
      </trkpt>
      <trkpt lat="48.60334" lon="2.14787">
        <ele>101.8</ele>
        <time>2026-03-20T13:39:04Z</time>
      </trkpt>
      <trkpt lat="48.60331" lon="2.14797">
        <ele>101.8</ele>
        <time>2026-03-20T13:39:05Z</time>
      </trkpt>
      <trkpt lat="48.60328" lon="2.14807">
        <ele>101.8</ele>
        <time>2026-03-20T13:39:06Z</time>
      </trkpt>
      <trkpt lat="48.60324" lon="2.14816">
        <ele>101.6</ele>
        <time>2026-03-20T13:39:07Z</time>
      </trkpt>
      <trkpt lat="48.60321" lon="2.14826">
        <ele>101.4</ele>
        <time>2026-03-20T13:39:08Z</time>
      </trkpt>
      <trkpt lat="48.60318" lon="2.14836">
        <ele>101.4</ele>
        <time>2026-03-20T13:39:09Z</time>
      </trkpt>
      <trkpt lat="48.60314" lon="2.14846">
        <ele>101.4</ele>
        <time>2026-03-20T13:39:10Z</time>
      </trkpt>
      <trkpt lat="48.60311" lon="2.14856">
        <ele>101.4</ele>
        <time>2026-03-20T13:39:11Z</time>
      </trkpt>
      <trkpt lat="48.60307" lon="2.14866">
        <ele>100.8</ele>
        <time>2026-03-20T13:39:12Z</time>
      </trkpt>
      <trkpt lat="48.60304" lon="2.14876">
        <ele>100.8</ele>
        <time>2026-03-20T13:39:13Z</time>
      </trkpt>
      <trkpt lat="48.60301" lon="2.14886">
        <ele>100.8</ele>
        <time>2026-03-20T13:39:14Z</time>
      </trkpt>
      <trkpt lat="48.60297" lon="2.14896">
        <ele>100.8</ele>
        <time>2026-03-20T13:39:15Z</time>
      </trkpt>
      <trkpt lat="48.60294" lon="2.14906">
        <ele>101.2</ele>
        <time>2026-03-20T13:39:16Z</time>
      </trkpt>
      <trkpt lat="48.6029" lon="2.14916">
        <ele>101.2</ele>
        <time>2026-03-20T13:39:17Z</time>
      </trkpt>
      <trkpt lat="48.60287" lon="2.14925">
        <ele>101.2</ele>
        <time>2026-03-20T13:39:18Z</time>
      </trkpt>
      <trkpt lat="48.60284" lon="2.14935">
        <ele>100.2</ele>
        <time>2026-03-20T13:39:19Z</time>
      </trkpt>
      <trkpt lat="48.6028" lon="2.14945">
        <ele>100.4</ele>
        <time>2026-03-20T13:39:20Z</time>
      </trkpt>
      <trkpt lat="48.60277" lon="2.14955">
        <ele>100.4</ele>
        <time>2026-03-20T13:39:21Z</time>
      </trkpt>
      <trkpt lat="48.60274" lon="2.14965">
        <ele>100.4</ele>
        <time>2026-03-20T13:39:22Z</time>
      </trkpt>
      <trkpt lat="48.6027" lon="2.14975">
        <ele>99.8</ele>
        <time>2026-03-20T13:39:23Z</time>
      </trkpt>
      <trkpt lat="48.60267" lon="2.14985">
        <ele>99.4</ele>
        <time>2026-03-20T13:39:24Z</time>
      </trkpt>
      <trkpt lat="48.60263" lon="2.14994">
        <ele>99.4</ele>
        <time>2026-03-20T13:39:25Z</time>
      </trkpt>
      <trkpt lat="48.6026" lon="2.15004">
        <ele>99.4</ele>
        <time>2026-03-20T13:39:26Z</time>
      </trkpt>
      <trkpt lat="48.60257" lon="2.15013">
        <ele>100.4</ele>
        <time>2026-03-20T13:39:27Z</time>
      </trkpt>
      <trkpt lat="48.60253" lon="2.15023">
        <ele>100</ele>
        <time>2026-03-20T13:39:28Z</time>
      </trkpt>
      <trkpt lat="48.6025" lon="2.15032">
        <ele>100</ele>
        <time>2026-03-20T13:39:29Z</time>
      </trkpt>
      <trkpt lat="48.60247" lon="2.15042">
        <ele>100</ele>
        <time>2026-03-20T13:39:30Z</time>
      </trkpt>
      <trkpt lat="48.60244" lon="2.15051">
        <ele>100</ele>
        <time>2026-03-20T13:39:31Z</time>
      </trkpt>
      <trkpt lat="48.60241" lon="2.1506">
        <ele>99</ele>
        <time>2026-03-20T13:39:32Z</time>
      </trkpt>
      <trkpt lat="48.60238" lon="2.15069">
        <ele>99</ele>
        <time>2026-03-20T13:39:33Z</time>
      </trkpt>
      <trkpt lat="48.60235" lon="2.15079">
        <ele>99</ele>
        <time>2026-03-20T13:39:34Z</time>
      </trkpt>
      <trkpt lat="48.60232" lon="2.15088">
        <ele>98.4</ele>
        <time>2026-03-20T13:39:35Z</time>
      </trkpt>
      <trkpt lat="48.60229" lon="2.15097">
        <ele>98.8</ele>
        <time>2026-03-20T13:39:36Z</time>
      </trkpt>
      <trkpt lat="48.60227" lon="2.15107">
        <ele>98.8</ele>
        <time>2026-03-20T13:39:37Z</time>
      </trkpt>
      <trkpt lat="48.60224" lon="2.15117">
        <ele>98.8</ele>
        <time>2026-03-20T13:39:38Z</time>
      </trkpt>
      <trkpt lat="48.60221" lon="2.15127">
        <ele>98.8</ele>
        <time>2026-03-20T13:39:39Z</time>
      </trkpt>
      <trkpt lat="48.60218" lon="2.15137">
        <ele>98.6</ele>
        <time>2026-03-20T13:39:40Z</time>
      </trkpt>
      <trkpt lat="48.60216" lon="2.15147">
        <ele>98.6</ele>
        <time>2026-03-20T13:39:41Z</time>
      </trkpt>
      <trkpt lat="48.60213" lon="2.15157">
        <ele>98.6</ele>
        <time>2026-03-20T13:39:42Z</time>
      </trkpt>
      <trkpt lat="48.6021" lon="2.15168">
        <ele>97.6</ele>
        <time>2026-03-20T13:39:43Z</time>
      </trkpt>
      <trkpt lat="48.60208" lon="2.15178">
        <ele>97.2</ele>
        <time>2026-03-20T13:39:44Z</time>
      </trkpt>
      <trkpt lat="48.60205" lon="2.15188">
        <ele>97.2</ele>
        <time>2026-03-20T13:39:45Z</time>
      </trkpt>
      <trkpt lat="48.60203" lon="2.15198">
        <ele>97.2</ele>
        <time>2026-03-20T13:39:46Z</time>
      </trkpt>
      <trkpt lat="48.602" lon="2.15208">
        <ele>96.2</ele>
        <time>2026-03-20T13:39:47Z</time>
      </trkpt>
      <trkpt lat="48.60197" lon="2.15218">
        <ele>95.8</ele>
        <time>2026-03-20T13:39:48Z</time>
      </trkpt>
      <trkpt lat="48.60195" lon="2.15227">
        <ele>95.8</ele>
        <time>2026-03-20T13:39:49Z</time>
      </trkpt>
      <trkpt lat="48.60193" lon="2.15237">
        <ele>95.8</ele>
        <time>2026-03-20T13:39:50Z</time>
      </trkpt>
      <trkpt lat="48.6019" lon="2.15246">
        <ele>96.6</ele>
        <time>2026-03-20T13:39:51Z</time>
      </trkpt>
      <trkpt lat="48.60188" lon="2.15256">
        <ele>96.6</ele>
        <time>2026-03-20T13:39:52Z</time>
      </trkpt>
      <trkpt lat="48.60186" lon="2.15265">
        <ele>96.6</ele>
        <time>2026-03-20T13:39:53Z</time>
      </trkpt>
      <trkpt lat="48.60183" lon="2.15275">
        <ele>96.6</ele>
        <time>2026-03-20T13:39:54Z</time>
      </trkpt>
      <trkpt lat="48.6018" lon="2.15284">
        <ele>97.6</ele>
        <time>2026-03-20T13:39:55Z</time>
      </trkpt>
      <trkpt lat="48.60178" lon="2.15294">
        <ele>98</ele>
        <time>2026-03-20T13:39:56Z</time>
      </trkpt>
      <trkpt lat="48.60176" lon="2.15304">
        <ele>98</ele>
        <time>2026-03-20T13:39:57Z</time>
      </trkpt>
      <trkpt lat="48.60173" lon="2.15314">
        <ele>98</ele>
        <time>2026-03-20T13:39:58Z</time>
      </trkpt>
      <trkpt lat="48.60171" lon="2.15324">
        <ele>98</ele>
        <time>2026-03-20T13:39:59Z</time>
      </trkpt>
      <trkpt lat="48.60169" lon="2.15334">
        <ele>96.4</ele>
        <time>2026-03-20T13:40:00Z</time>
      </trkpt>
      <trkpt lat="48.60166" lon="2.15344">
        <ele>96.4</ele>
        <time>2026-03-20T13:40:01Z</time>
      </trkpt>
      <trkpt lat="48.60164" lon="2.15354">
        <ele>96.4</ele>
        <time>2026-03-20T13:40:02Z</time>
      </trkpt>
      <trkpt lat="48.60161" lon="2.15363">
        <ele>96.4</ele>
        <time>2026-03-20T13:40:03Z</time>
      </trkpt>
      <trkpt lat="48.60158" lon="2.15373">
        <ele>97</ele>
        <time>2026-03-20T13:40:04Z</time>
      </trkpt>
      <trkpt lat="48.60156" lon="2.15383">
        <ele>97</ele>
        <time>2026-03-20T13:40:05Z</time>
      </trkpt>
      <trkpt lat="48.60153" lon="2.15393">
        <ele>97</ele>
        <time>2026-03-20T13:40:06Z</time>
      </trkpt>
      <trkpt lat="48.60151" lon="2.15402">
        <ele>97</ele>
        <time>2026-03-20T13:40:07Z</time>
      </trkpt>
      <trkpt lat="48.60149" lon="2.15412">
        <ele>96.4</ele>
        <time>2026-03-20T13:40:08Z</time>
      </trkpt>
      <trkpt lat="48.60146" lon="2.15422">
        <ele>96.4</ele>
        <time>2026-03-20T13:40:09Z</time>
      </trkpt>
      <trkpt lat="48.60143" lon="2.15431">
        <ele>96.4</ele>
        <time>2026-03-20T13:40:10Z</time>
      </trkpt>
      <trkpt lat="48.60141" lon="2.15441">
        <ele>96.2</ele>
        <time>2026-03-20T13:40:11Z</time>
      </trkpt>
      <trkpt lat="48.60138" lon="2.1545">
        <ele>95.2</ele>
        <time>2026-03-20T13:40:12Z</time>
      </trkpt>
      <trkpt lat="48.60136" lon="2.1546">
        <ele>95.2</ele>
        <time>2026-03-20T13:40:13Z</time>
      </trkpt>
      <trkpt lat="48.60134" lon="2.1547">
        <ele>95.2</ele>
        <time>2026-03-20T13:40:14Z</time>
      </trkpt>
      <trkpt lat="48.60131" lon="2.1548">
        <ele>95.2</ele>
        <time>2026-03-20T13:40:15Z</time>
      </trkpt>
      <trkpt lat="48.60129" lon="2.1549">
        <ele>96</ele>
        <time>2026-03-20T13:40:16Z</time>
      </trkpt>
      <trkpt lat="48.60126" lon="2.155">
        <ele>96</ele>
        <time>2026-03-20T13:40:17Z</time>
      </trkpt>
      <trkpt lat="48.60124" lon="2.1551">
        <ele>96</ele>
        <time>2026-03-20T13:40:18Z</time>
      </trkpt>
      <trkpt lat="48.60121" lon="2.15519">
        <ele>95.6</ele>
        <time>2026-03-20T13:40:19Z</time>
      </trkpt>
      <trkpt lat="48.60118" lon="2.1553">
        <ele>96</ele>
        <time>2026-03-20T13:40:20Z</time>
      </trkpt>
      <trkpt lat="48.60116" lon="2.1554">
        <ele>96</ele>
        <time>2026-03-20T13:40:21Z</time>
      </trkpt>
      <trkpt lat="48.60114" lon="2.1555">
        <ele>96</ele>
        <time>2026-03-20T13:40:22Z</time>
      </trkpt>
      <trkpt lat="48.60112" lon="2.1556">
        <ele>96</ele>
        <time>2026-03-20T13:40:23Z</time>
      </trkpt>
      <trkpt lat="48.6011" lon="2.1557">
        <ele>95.6</ele>
        <time>2026-03-20T13:40:24Z</time>
      </trkpt>
      <trkpt lat="48.60107" lon="2.1558">
        <ele>95.6</ele>
        <time>2026-03-20T13:40:25Z</time>
      </trkpt>
      <trkpt lat="48.60103" lon="2.1559">
        <ele>95.6</ele>
        <time>2026-03-20T13:40:26Z</time>
      </trkpt>
      <trkpt lat="48.60101" lon="2.156">
        <ele>95.4</ele>
        <time>2026-03-20T13:40:27Z</time>
      </trkpt>
      <trkpt lat="48.60098" lon="2.1561">
        <ele>94.4</ele>
        <time>2026-03-20T13:40:28Z</time>
      </trkpt>
      <trkpt lat="48.60095" lon="2.1562">
        <ele>94.4</ele>
        <time>2026-03-20T13:40:29Z</time>
      </trkpt>
      <trkpt lat="48.60093" lon="2.15631">
        <ele>94.4</ele>
        <time>2026-03-20T13:40:30Z</time>
      </trkpt>
      <trkpt lat="48.6009" lon="2.15641">
        <ele>93.4</ele>
        <time>2026-03-20T13:40:31Z</time>
      </trkpt>
      <trkpt lat="48.60087" lon="2.15652">
        <ele>92.4</ele>
        <time>2026-03-20T13:40:32Z</time>
      </trkpt>
      <trkpt lat="48.60084" lon="2.15663">
        <ele>92.4</ele>
        <time>2026-03-20T13:40:33Z</time>
      </trkpt>
      <trkpt lat="48.60082" lon="2.15674">
        <ele>92.4</ele>
        <time>2026-03-20T13:40:34Z</time>
      </trkpt>
      <trkpt lat="48.60079" lon="2.15685">
        <ele>92.4</ele>
        <time>2026-03-20T13:40:35Z</time>
      </trkpt>
      <trkpt lat="48.60077" lon="2.15696">
        <ele>91.6</ele>
        <time>2026-03-20T13:40:36Z</time>
      </trkpt>
      <trkpt lat="48.60074" lon="2.15707">
        <ele>91.6</ele>
        <time>2026-03-20T13:40:37Z</time>
      </trkpt>
      <trkpt lat="48.6007" lon="2.15718">
        <ele>91.6</ele>
        <time>2026-03-20T13:40:38Z</time>
      </trkpt>
      <trkpt lat="48.60067" lon="2.15728">
        <ele>90.8</ele>
        <time>2026-03-20T13:40:39Z</time>
      </trkpt>
      <trkpt lat="48.60064" lon="2.15739">
        <ele>90.4</ele>
        <time>2026-03-20T13:40:40Z</time>
      </trkpt>
      <trkpt lat="48.60061" lon="2.15749">
        <ele>90.4</ele>
        <time>2026-03-20T13:40:41Z</time>
      </trkpt>
      <trkpt lat="48.60057" lon="2.1576">
        <ele>90.4</ele>
        <time>2026-03-20T13:40:42Z</time>
      </trkpt>
      <trkpt lat="48.60053" lon="2.1577">
        <ele>90.4</ele>
        <time>2026-03-20T13:40:43Z</time>
      </trkpt>
      <trkpt lat="48.60049" lon="2.15779">
        <ele>91.6</ele>
        <time>2026-03-20T13:40:44Z</time>
      </trkpt>
      <trkpt lat="48.60044" lon="2.15789">
        <ele>91.6</ele>
        <time>2026-03-20T13:40:45Z</time>
      </trkpt>
      <trkpt lat="48.60039" lon="2.15798">
        <ele>91.6</ele>
        <time>2026-03-20T13:40:46Z</time>
      </trkpt>
      <trkpt lat="48.60034" lon="2.15806">
        <ele>90.6</ele>
        <time>2026-03-20T13:40:47Z</time>
      </trkpt>
      <trkpt lat="48.60029" lon="2.15814">
        <ele>90.4</ele>
        <time>2026-03-20T13:40:48Z</time>
      </trkpt>
      <trkpt lat="48.60024" lon="2.15822">
        <ele>90.4</ele>
        <time>2026-03-20T13:40:49Z</time>
      </trkpt>
      <trkpt lat="48.60018" lon="2.15829">
        <ele>90.4</ele>
        <time>2026-03-20T13:40:50Z</time>
      </trkpt>
      <trkpt lat="48.60014" lon="2.15837">
        <ele>90.6</ele>
        <time>2026-03-20T13:40:51Z</time>
      </trkpt>
      <trkpt lat="48.60009" lon="2.15845">
        <ele>90</ele>
        <time>2026-03-20T13:40:52Z</time>
      </trkpt>
      <trkpt lat="48.60004" lon="2.15852">
        <ele>90</ele>
        <time>2026-03-20T13:40:53Z</time>
      </trkpt>
      <trkpt lat="48.59999" lon="2.1586">
        <ele>90</ele>
        <time>2026-03-20T13:40:54Z</time>
      </trkpt>
      <trkpt lat="48.59995" lon="2.15867">
        <ele>90.6</ele>
        <time>2026-03-20T13:40:55Z</time>
      </trkpt>
      <trkpt lat="48.5999" lon="2.15874">
        <ele>90.2</ele>
        <time>2026-03-20T13:40:56Z</time>
      </trkpt>
      <trkpt lat="48.59985" lon="2.1588">
        <ele>90.2</ele>
        <time>2026-03-20T13:40:57Z</time>
      </trkpt>
      <trkpt lat="48.5998" lon="2.15885">
        <ele>90.2</ele>
        <time>2026-03-20T13:40:58Z</time>
      </trkpt>
      <trkpt lat="48.59976" lon="2.15891">
        <ele>89.6</ele>
        <time>2026-03-20T13:40:59Z</time>
      </trkpt>
      <trkpt lat="48.59973" lon="2.15899">
        <ele>89.6</ele>
        <time>2026-03-20T13:41:00Z</time>
      </trkpt>
      <trkpt lat="48.59972" lon="2.15907">
        <ele>89.6</ele>
        <time>2026-03-20T13:41:01Z</time>
      </trkpt>
      <trkpt lat="48.59971" lon="2.15916">
        <ele>89.6</ele>
        <time>2026-03-20T13:41:02Z</time>
      </trkpt>
      <trkpt lat="48.59969" lon="2.15923">
        <ele>89.6</ele>
        <time>2026-03-20T13:41:03Z</time>
      </trkpt>
      <trkpt lat="48.59967" lon="2.15931">
        <ele>89.4</ele>
        <time>2026-03-20T13:41:04Z</time>
      </trkpt>
      <trkpt lat="48.59965" lon="2.15939">
        <ele>89.4</ele>
        <time>2026-03-20T13:41:05Z</time>
      </trkpt>
      <trkpt lat="48.59962" lon="2.15946">
        <ele>89.4</ele>
        <time>2026-03-20T13:41:06Z</time>
      </trkpt>
      <trkpt lat="48.59959" lon="2.15952">
        <ele>89.4</ele>
        <time>2026-03-20T13:41:07Z</time>
      </trkpt>
      <trkpt lat="48.59957" lon="2.15959">
        <ele>89</ele>
        <time>2026-03-20T13:41:08Z</time>
      </trkpt>
      <trkpt lat="48.59954" lon="2.15965">
        <ele>89</ele>
        <time>2026-03-20T13:41:09Z</time>
      </trkpt>
      <trkpt lat="48.59951" lon="2.15971">
        <ele>89</ele>
        <time>2026-03-20T13:41:10Z</time>
      </trkpt>
      <trkpt lat="48.59948" lon="2.15977">
        <ele>89.8</ele>
        <time>2026-03-20T13:41:11Z</time>
      </trkpt>
      <trkpt lat="48.59946" lon="2.15983">
        <ele>90.6</ele>
        <time>2026-03-20T13:41:12Z</time>
      </trkpt>
      <trkpt lat="48.59943" lon="2.15989">
        <ele>90.6</ele>
        <time>2026-03-20T13:41:13Z</time>
      </trkpt>
      <trkpt lat="48.5994" lon="2.15996">
        <ele>90.6</ele>
        <time>2026-03-20T13:41:14Z</time>
      </trkpt>
      <trkpt lat="48.59938" lon="2.16002">
        <ele>90.6</ele>
        <time>2026-03-20T13:41:15Z</time>
      </trkpt>
      <trkpt lat="48.59935" lon="2.16008">
        <ele>89.2</ele>
        <time>2026-03-20T13:41:16Z</time>
      </trkpt>
      <trkpt lat="48.59932" lon="2.16015">
        <ele>89.2</ele>
        <time>2026-03-20T13:41:17Z</time>
      </trkpt>
      <trkpt lat="48.59929" lon="2.16021">
        <ele>89.2</ele>
        <time>2026-03-20T13:41:18Z</time>
      </trkpt>
      <trkpt lat="48.59926" lon="2.16027">
        <ele>89.2</ele>
        <time>2026-03-20T13:41:19Z</time>
      </trkpt>
      <trkpt lat="48.59924" lon="2.16032">
        <ele>90.2</ele>
        <time>2026-03-20T13:41:20Z</time>
      </trkpt>
      <trkpt lat="48.59921" lon="2.16038">
        <ele>90.2</ele>
        <time>2026-03-20T13:41:21Z</time>
      </trkpt>
      <trkpt lat="48.59919" lon="2.16044">
        <ele>90.2</ele>
        <time>2026-03-20T13:41:22Z</time>
      </trkpt>
      <trkpt lat="48.59917" lon="2.1605">
        <ele>90.8</ele>
        <time>2026-03-20T13:41:23Z</time>
      </trkpt>
      <trkpt lat="48.59914" lon="2.16056">
        <ele>90.6</ele>
        <time>2026-03-20T13:41:24Z</time>
      </trkpt>
      <trkpt lat="48.59912" lon="2.16063">
        <ele>90.6</ele>
        <time>2026-03-20T13:41:25Z</time>
      </trkpt>
      <trkpt lat="48.59909" lon="2.16068">
        <ele>90.6</ele>
        <time>2026-03-20T13:41:26Z</time>
      </trkpt>
      <trkpt lat="48.59907" lon="2.16075">
        <ele>90.6</ele>
        <time>2026-03-20T13:41:27Z</time>
      </trkpt>
      <trkpt lat="48.59904" lon="2.16081">
        <ele>89.6</ele>
        <time>2026-03-20T13:41:28Z</time>
      </trkpt>
      <trkpt lat="48.59902" lon="2.16087">
        <ele>89.6</ele>
        <time>2026-03-20T13:41:29Z</time>
      </trkpt>
      <trkpt lat="48.59899" lon="2.16093">
        <ele>89.6</ele>
        <time>2026-03-20T13:41:30Z</time>
      </trkpt>
      <trkpt lat="48.59897" lon="2.16099">
        <ele>90.6</ele>
        <time>2026-03-20T13:41:31Z</time>
      </trkpt>
      <trkpt lat="48.59894" lon="2.16105">
        <ele>90.8</ele>
        <time>2026-03-20T13:41:32Z</time>
      </trkpt>
      <trkpt lat="48.59892" lon="2.16112">
        <ele>90.8</ele>
        <time>2026-03-20T13:41:33Z</time>
      </trkpt>
      <trkpt lat="48.59889" lon="2.16118">
        <ele>90.8</ele>
        <time>2026-03-20T13:41:34Z</time>
      </trkpt>
      <trkpt lat="48.59887" lon="2.16124">
        <ele>90.8</ele>
        <time>2026-03-20T13:41:35Z</time>
      </trkpt>
      <trkpt lat="48.59884" lon="2.1613">
        <ele>92.2</ele>
        <time>2026-03-20T13:41:36Z</time>
      </trkpt>
      <trkpt lat="48.59881" lon="2.16137">
        <ele>92.2</ele>
        <time>2026-03-20T13:41:37Z</time>
      </trkpt>
      <trkpt lat="48.59879" lon="2.16143">
        <ele>92.2</ele>
        <time>2026-03-20T13:41:38Z</time>
      </trkpt>
      <trkpt lat="48.59877" lon="2.16149">
        <ele>91.4</ele>
        <time>2026-03-20T13:41:39Z</time>
      </trkpt>
      <trkpt lat="48.59874" lon="2.16156">
        <ele>91.6</ele>
        <time>2026-03-20T13:41:40Z</time>
      </trkpt>
      <trkpt lat="48.59871" lon="2.16162">
        <ele>91.6</ele>
        <time>2026-03-20T13:41:41Z</time>
      </trkpt>
      <trkpt lat="48.59869" lon="2.16168">
        <ele>91.6</ele>
        <time>2026-03-20T13:41:42Z</time>
      </trkpt>
      <trkpt lat="48.59866" lon="2.16174">
        <ele>91.6</ele>
        <time>2026-03-20T13:41:43Z</time>
      </trkpt>
      <trkpt lat="48.59864" lon="2.1618">
        <ele>91.2</ele>
        <time>2026-03-20T13:41:44Z</time>
      </trkpt>
      <trkpt lat="48.59861" lon="2.16186">
        <ele>91.2</ele>
        <time>2026-03-20T13:41:45Z</time>
      </trkpt>
      <trkpt lat="48.59858" lon="2.16192">
        <ele>91.2</ele>
        <time>2026-03-20T13:41:46Z</time>
      </trkpt>
      <trkpt lat="48.59856" lon="2.16199">
        <ele>91.6</ele>
        <time>2026-03-20T13:41:47Z</time>
      </trkpt>
      <trkpt lat="48.59853" lon="2.16205">
        <ele>91.6</ele>
        <time>2026-03-20T13:41:48Z</time>
      </trkpt>
      <trkpt lat="48.59851" lon="2.16211">
        <ele>91.6</ele>
        <time>2026-03-20T13:41:49Z</time>
      </trkpt>
      <trkpt lat="48.59848" lon="2.16217">
        <ele>91.6</ele>
        <time>2026-03-20T13:41:50Z</time>
      </trkpt>
      <trkpt lat="48.59846" lon="2.16224">
        <ele>91.6</ele>
        <time>2026-03-20T13:41:51Z</time>
      </trkpt>
      <trkpt lat="48.59843" lon="2.1623">
        <ele>91.6</ele>
        <time>2026-03-20T13:41:52Z</time>
      </trkpt>
      <trkpt lat="48.59841" lon="2.16236">
        <ele>91.6</ele>
        <time>2026-03-20T13:41:53Z</time>
      </trkpt>
      <trkpt lat="48.59838" lon="2.16242">
        <ele>91.6</ele>
        <time>2026-03-20T13:41:54Z</time>
      </trkpt>
      <trkpt lat="48.59835" lon="2.16249">
        <ele>91.6</ele>
        <time>2026-03-20T13:41:55Z</time>
      </trkpt>
      <trkpt lat="48.59833" lon="2.16255">
        <ele>91.6</ele>
        <time>2026-03-20T13:41:56Z</time>
      </trkpt>
      <trkpt lat="48.5983" lon="2.16261">
        <ele>91.6</ele>
        <time>2026-03-20T13:41:57Z</time>
      </trkpt>
      <trkpt lat="48.59828" lon="2.16268">
        <ele>91.6</ele>
        <time>2026-03-20T13:41:58Z</time>
      </trkpt>
      <trkpt lat="48.59825" lon="2.16274">
        <ele>92.2</ele>
        <time>2026-03-20T13:41:59Z</time>
      </trkpt>
      <trkpt lat="48.59823" lon="2.1628">
        <ele>92.6</ele>
        <time>2026-03-20T13:42:00Z</time>
      </trkpt>
      <trkpt lat="48.5982" lon="2.16286">
        <ele>92.6</ele>
        <time>2026-03-20T13:42:01Z</time>
      </trkpt>
      <trkpt lat="48.59817" lon="2.16293">
        <ele>92.6</ele>
        <time>2026-03-20T13:42:02Z</time>
      </trkpt>
      <trkpt lat="48.59815" lon="2.16299">
        <ele>92.2</ele>
        <time>2026-03-20T13:42:03Z</time>
      </trkpt>
      <trkpt lat="48.59812" lon="2.16305">
        <ele>93.2</ele>
        <time>2026-03-20T13:42:04Z</time>
      </trkpt>
      <trkpt lat="48.59809" lon="2.16312">
        <ele>93.2</ele>
        <time>2026-03-20T13:42:05Z</time>
      </trkpt>
      <trkpt lat="48.59807" lon="2.16318">
        <ele>93.2</ele>
        <time>2026-03-20T13:42:06Z</time>
      </trkpt>
      <trkpt lat="48.59804" lon="2.16324">
        <ele>93.2</ele>
        <time>2026-03-20T13:42:07Z</time>
      </trkpt>
      <trkpt lat="48.59801" lon="2.16331">
        <ele>93.4</ele>
        <time>2026-03-20T13:42:08Z</time>
      </trkpt>
      <trkpt lat="48.59799" lon="2.16337">
        <ele>93.4</ele>
        <time>2026-03-20T13:42:09Z</time>
      </trkpt>
      <trkpt lat="48.59796" lon="2.16343">
        <ele>93.4</ele>
        <time>2026-03-20T13:42:10Z</time>
      </trkpt>
      <trkpt lat="48.59794" lon="2.1635">
        <ele>93.4</ele>
        <time>2026-03-20T13:42:11Z</time>
      </trkpt>
      <trkpt lat="48.59791" lon="2.16356">
        <ele>93.4</ele>
        <time>2026-03-20T13:42:12Z</time>
      </trkpt>
      <trkpt lat="48.59788" lon="2.16362">
        <ele>93.4</ele>
        <time>2026-03-20T13:42:13Z</time>
      </trkpt>
      <trkpt lat="48.59786" lon="2.16368">
        <ele>93.4</ele>
        <time>2026-03-20T13:42:14Z</time>
      </trkpt>
      <trkpt lat="48.59782" lon="2.16374">
        <ele>94.4</ele>
        <time>2026-03-20T13:42:15Z</time>
      </trkpt>
      <trkpt lat="48.59779" lon="2.1638">
        <ele>94.6</ele>
        <time>2026-03-20T13:42:16Z</time>
      </trkpt>
      <trkpt lat="48.59776" lon="2.16385">
        <ele>94.6</ele>
        <time>2026-03-20T13:42:17Z</time>
      </trkpt>
      <trkpt lat="48.59772" lon="2.1639">
        <ele>94.6</ele>
        <time>2026-03-20T13:42:18Z</time>
      </trkpt>
      <trkpt lat="48.59769" lon="2.16395">
        <ele>95.2</ele>
        <time>2026-03-20T13:42:19Z</time>
      </trkpt>
      <trkpt lat="48.59765" lon="2.164">
        <ele>95.2</ele>
        <time>2026-03-20T13:42:20Z</time>
      </trkpt>
      <trkpt lat="48.59761" lon="2.16404">
        <ele>95.2</ele>
        <time>2026-03-20T13:42:21Z</time>
      </trkpt>
      <trkpt lat="48.59757" lon="2.16409">
        <ele>95.2</ele>
        <time>2026-03-20T13:42:22Z</time>
      </trkpt>
      <trkpt lat="48.59752" lon="2.16413">
        <ele>95.4</ele>
        <time>2026-03-20T13:42:23Z</time>
      </trkpt>
      <trkpt lat="48.59748" lon="2.16417">
        <ele>95.4</ele>
        <time>2026-03-20T13:42:24Z</time>
      </trkpt>
      <trkpt lat="48.59744" lon="2.16421">
        <ele>95.4</ele>
        <time>2026-03-20T13:42:25Z</time>
      </trkpt>
      <trkpt lat="48.5974" lon="2.16426">
        <ele>95.4</ele>
        <time>2026-03-20T13:42:26Z</time>
      </trkpt>
      <trkpt lat="48.59735" lon="2.1643">
        <ele>95.6</ele>
        <time>2026-03-20T13:42:27Z</time>
      </trkpt>
      <trkpt lat="48.59731" lon="2.16434">
        <ele>96</ele>
        <time>2026-03-20T13:42:28Z</time>
      </trkpt>
      <trkpt lat="48.59727" lon="2.16438">
        <ele>96</ele>
        <time>2026-03-20T13:42:29Z</time>
      </trkpt>
      <trkpt lat="48.59723" lon="2.16442">
        <ele>96</ele>
        <time>2026-03-20T13:42:30Z</time>
      </trkpt>
      <trkpt lat="48.59719" lon="2.16447">
        <ele>97</ele>
        <time>2026-03-20T13:42:31Z</time>
      </trkpt>
      <trkpt lat="48.59715" lon="2.16451">
        <ele>97.4</ele>
        <time>2026-03-20T13:42:32Z</time>
      </trkpt>
      <trkpt lat="48.59711" lon="2.16456">
        <ele>97.4</ele>
        <time>2026-03-20T13:42:33Z</time>
      </trkpt>
      <trkpt lat="48.59707" lon="2.1646">
        <ele>97.4</ele>
        <time>2026-03-20T13:42:34Z</time>
      </trkpt>
      <trkpt lat="48.59703" lon="2.16465">
        <ele>97.4</ele>
        <time>2026-03-20T13:42:35Z</time>
      </trkpt>
      <trkpt lat="48.59699" lon="2.1647">
        <ele>97.8</ele>
        <time>2026-03-20T13:42:36Z</time>
      </trkpt>
      <trkpt lat="48.59696" lon="2.16475">
        <ele>97.8</ele>
        <time>2026-03-20T13:42:37Z</time>
      </trkpt>
      <trkpt lat="48.59692" lon="2.1648">
        <ele>97.8</ele>
        <time>2026-03-20T13:42:38Z</time>
      </trkpt>
      <trkpt lat="48.59689" lon="2.16485">
        <ele>98.8</ele>
        <time>2026-03-20T13:42:39Z</time>
      </trkpt>
      <trkpt lat="48.59686" lon="2.1649">
        <ele>98</ele>
        <time>2026-03-20T13:42:40Z</time>
      </trkpt>
      <trkpt lat="48.59683" lon="2.16495">
        <ele>98</ele>
        <time>2026-03-20T13:42:41Z</time>
      </trkpt>
      <trkpt lat="48.5968" lon="2.165">
        <ele>98</ele>
        <time>2026-03-20T13:42:42Z</time>
      </trkpt>
      <trkpt lat="48.59677" lon="2.16505">
        <ele>99</ele>
        <time>2026-03-20T13:42:43Z</time>
      </trkpt>
      <trkpt lat="48.59674" lon="2.1651">
        <ele>100.2</ele>
        <time>2026-03-20T13:42:44Z</time>
      </trkpt>
      <trkpt lat="48.59671" lon="2.16515">
        <ele>100.2</ele>
        <time>2026-03-20T13:42:45Z</time>
      </trkpt>
      <trkpt lat="48.59668" lon="2.1652">
        <ele>100.2</ele>
        <time>2026-03-20T13:42:46Z</time>
      </trkpt>
      <trkpt lat="48.59665" lon="2.16525">
        <ele>100.2</ele>
        <time>2026-03-20T13:42:47Z</time>
      </trkpt>
      <trkpt lat="48.59662" lon="2.16531">
        <ele>100.6</ele>
        <time>2026-03-20T13:42:48Z</time>
      </trkpt>
      <trkpt lat="48.5966" lon="2.16536">
        <ele>100.6</ele>
        <time>2026-03-20T13:42:49Z</time>
      </trkpt>
      <trkpt lat="48.59657" lon="2.16541">
        <ele>100.6</ele>
        <time>2026-03-20T13:42:50Z</time>
      </trkpt>
      <trkpt lat="48.59654" lon="2.16546">
        <ele>100.6</ele>
        <time>2026-03-20T13:42:51Z</time>
      </trkpt>
      <trkpt lat="48.59652" lon="2.16551">
        <ele>101.2</ele>
        <time>2026-03-20T13:42:52Z</time>
      </trkpt>
      <trkpt lat="48.59649" lon="2.16556">
        <ele>101.2</ele>
        <time>2026-03-20T13:42:53Z</time>
      </trkpt>
      <trkpt lat="48.59647" lon="2.16561">
        <ele>101.2</ele>
        <time>2026-03-20T13:42:54Z</time>
      </trkpt>
      <trkpt lat="48.59644" lon="2.16566">
        <ele>102</ele>
        <time>2026-03-20T13:42:55Z</time>
      </trkpt>
      <trkpt lat="48.59641" lon="2.16571">
        <ele>102.6</ele>
        <time>2026-03-20T13:42:56Z</time>
      </trkpt>
      <trkpt lat="48.59639" lon="2.16576">
        <ele>102.6</ele>
        <time>2026-03-20T13:42:57Z</time>
      </trkpt>
      <trkpt lat="48.59636" lon="2.16581">
        <ele>102.6</ele>
        <time>2026-03-20T13:42:58Z</time>
      </trkpt>
      <trkpt lat="48.59634" lon="2.16587">
        <ele>102.4</ele>
        <time>2026-03-20T13:42:59Z</time>
      </trkpt>
      <trkpt lat="48.59632" lon="2.16592">
        <ele>102.6</ele>
        <time>2026-03-20T13:43:00Z</time>
      </trkpt>
      <trkpt lat="48.59629" lon="2.16597">
        <ele>102.6</ele>
        <time>2026-03-20T13:43:01Z</time>
      </trkpt>
      <trkpt lat="48.59627" lon="2.16603">
        <ele>102.6</ele>
        <time>2026-03-20T13:43:02Z</time>
      </trkpt>
      <trkpt lat="48.59625" lon="2.16609">
        <ele>103.4</ele>
        <time>2026-03-20T13:43:03Z</time>
      </trkpt>
      <trkpt lat="48.59623" lon="2.16615">
        <ele>103.2</ele>
        <time>2026-03-20T13:43:04Z</time>
      </trkpt>
      <trkpt lat="48.5962" lon="2.16621">
        <ele>103.2</ele>
        <time>2026-03-20T13:43:05Z</time>
      </trkpt>
      <trkpt lat="48.59618" lon="2.16627">
        <ele>103.2</ele>
        <time>2026-03-20T13:43:06Z</time>
      </trkpt>
      <trkpt lat="48.59616" lon="2.16633">
        <ele>103.2</ele>
        <time>2026-03-20T13:43:07Z</time>
      </trkpt>
      <trkpt lat="48.59615" lon="2.16639">
        <ele>103.2</ele>
        <time>2026-03-20T13:43:08Z</time>
      </trkpt>
      <trkpt lat="48.59613" lon="2.16645">
        <ele>103.2</ele>
        <time>2026-03-20T13:43:09Z</time>
      </trkpt>
      <trkpt lat="48.59611" lon="2.16651">
        <ele>103.2</ele>
        <time>2026-03-20T13:43:10Z</time>
      </trkpt>
      <trkpt lat="48.59609" lon="2.16657">
        <ele>104.2</ele>
        <time>2026-03-20T13:43:11Z</time>
      </trkpt>
      <trkpt lat="48.59608" lon="2.16664">
        <ele>104.2</ele>
        <time>2026-03-20T13:43:12Z</time>
      </trkpt>
      <trkpt lat="48.59606" lon="2.16669">
        <ele>104.2</ele>
        <time>2026-03-20T13:43:13Z</time>
      </trkpt>
      <trkpt lat="48.59604" lon="2.16676">
        <ele>104.2</ele>
        <time>2026-03-20T13:43:14Z</time>
      </trkpt>
      <trkpt lat="48.59602" lon="2.16682">
        <ele>104.2</ele>
        <time>2026-03-20T13:43:15Z</time>
      </trkpt>
      <trkpt lat="48.59601" lon="2.16688">
        <ele>104</ele>
        <time>2026-03-20T13:43:16Z</time>
      </trkpt>
      <trkpt lat="48.59599" lon="2.16693">
        <ele>104</ele>
        <time>2026-03-20T13:43:17Z</time>
      </trkpt>
      <trkpt lat="48.59597" lon="2.16699">
        <ele>104</ele>
        <time>2026-03-20T13:43:18Z</time>
      </trkpt>
      <trkpt lat="48.59596" lon="2.16705">
        <ele>105</ele>
        <time>2026-03-20T13:43:19Z</time>
      </trkpt>
      <trkpt lat="48.59594" lon="2.16711">
        <ele>105.6</ele>
        <time>2026-03-20T13:43:20Z</time>
      </trkpt>
      <trkpt lat="48.59592" lon="2.16718">
        <ele>105.6</ele>
        <time>2026-03-20T13:43:21Z</time>
      </trkpt>
      <trkpt lat="48.59591" lon="2.16724">
        <ele>105.6</ele>
        <time>2026-03-20T13:43:22Z</time>
      </trkpt>
      <trkpt lat="48.59589" lon="2.1673">
        <ele>105.6</ele>
        <time>2026-03-20T13:43:23Z</time>
      </trkpt>
      <trkpt lat="48.59587" lon="2.16736">
        <ele>106.4</ele>
        <time>2026-03-20T13:43:24Z</time>
      </trkpt>
      <trkpt lat="48.59586" lon="2.16742">
        <ele>106.4</ele>
        <time>2026-03-20T13:43:25Z</time>
      </trkpt>
      <trkpt lat="48.59584" lon="2.16749">
        <ele>106.4</ele>
        <time>2026-03-20T13:43:26Z</time>
      </trkpt>
      <trkpt lat="48.59582" lon="2.16755">
        <ele>106.4</ele>
        <time>2026-03-20T13:43:27Z</time>
      </trkpt>
      <trkpt lat="48.59581" lon="2.16761">
        <ele>106.6</ele>
        <time>2026-03-20T13:43:28Z</time>
      </trkpt>
      <trkpt lat="48.59579" lon="2.16767">
        <ele>106.6</ele>
        <time>2026-03-20T13:43:29Z</time>
      </trkpt>
      <trkpt lat="48.59577" lon="2.16774">
        <ele>106.6</ele>
        <time>2026-03-20T13:43:30Z</time>
      </trkpt>
      <trkpt lat="48.59576" lon="2.1678">
        <ele>107.4</ele>
        <time>2026-03-20T13:43:31Z</time>
      </trkpt>
      <trkpt lat="48.59574" lon="2.16786">
        <ele>107.8</ele>
        <time>2026-03-20T13:43:32Z</time>
      </trkpt>
      <trkpt lat="48.59572" lon="2.16793">
        <ele>107.8</ele>
        <time>2026-03-20T13:43:33Z</time>
      </trkpt>
      <trkpt lat="48.59571" lon="2.16799">
        <ele>107.8</ele>
        <time>2026-03-20T13:43:34Z</time>
      </trkpt>
      <trkpt lat="48.59569" lon="2.16805">
        <ele>107.4</ele>
        <time>2026-03-20T13:43:35Z</time>
      </trkpt>
      <trkpt lat="48.59568" lon="2.16812">
        <ele>108</ele>
        <time>2026-03-20T13:43:36Z</time>
      </trkpt>
      <trkpt lat="48.59567" lon="2.16818">
        <ele>108</ele>
        <time>2026-03-20T13:43:37Z</time>
      </trkpt>
      <trkpt lat="48.59565" lon="2.16824">
        <ele>108</ele>
        <time>2026-03-20T13:43:38Z</time>
      </trkpt>
      <trkpt lat="48.59564" lon="2.16831">
        <ele>108</ele>
        <time>2026-03-20T13:43:39Z</time>
      </trkpt>
      <trkpt lat="48.59563" lon="2.16837">
        <ele>108.2</ele>
        <time>2026-03-20T13:43:40Z</time>
      </trkpt>
      <trkpt lat="48.59561" lon="2.16843">
        <ele>108.2</ele>
        <time>2026-03-20T13:43:41Z</time>
      </trkpt>
      <trkpt lat="48.5956" lon="2.1685">
        <ele>108.2</ele>
        <time>2026-03-20T13:43:42Z</time>
      </trkpt>
      <trkpt lat="48.59559" lon="2.16857">
        <ele>109.2</ele>
        <time>2026-03-20T13:43:43Z</time>
      </trkpt>
      <trkpt lat="48.59558" lon="2.16863">
        <ele>109</ele>
        <time>2026-03-20T13:43:44Z</time>
      </trkpt>
      <trkpt lat="48.59557" lon="2.1687">
        <ele>109</ele>
        <time>2026-03-20T13:43:45Z</time>
      </trkpt>
      <trkpt lat="48.59556" lon="2.16877">
        <ele>109</ele>
        <time>2026-03-20T13:43:46Z</time>
      </trkpt>
      <trkpt lat="48.59556" lon="2.16884">
        <ele>109.6</ele>
        <time>2026-03-20T13:43:47Z</time>
      </trkpt>
      <trkpt lat="48.59556" lon="2.1689">
        <ele>109.8</ele>
        <time>2026-03-20T13:43:48Z</time>
      </trkpt>
      <trkpt lat="48.59555" lon="2.16896">
        <ele>109.8</ele>
        <time>2026-03-20T13:43:49Z</time>
      </trkpt>
      <trkpt lat="48.59555" lon="2.16902">
        <ele>109.8</ele>
        <time>2026-03-20T13:43:50Z</time>
      </trkpt>
      <trkpt lat="48.59555" lon="2.16907">
        <ele>109.8</ele>
        <time>2026-03-20T13:43:51Z</time>
      </trkpt>
      <trkpt lat="48.59555" lon="2.16913">
        <ele>110</ele>
        <time>2026-03-20T13:43:52Z</time>
      </trkpt>
      <trkpt lat="48.59555" lon="2.16918">
        <ele>110</ele>
        <time>2026-03-20T13:43:53Z</time>
      </trkpt>
      <trkpt lat="48.59555" lon="2.16923">
        <ele>110</ele>
        <time>2026-03-20T13:43:54Z</time>
      </trkpt>
      <trkpt lat="48.59555" lon="2.16928">
        <ele>110</ele>
        <time>2026-03-20T13:43:55Z</time>
      </trkpt>
      <trkpt lat="48.59555" lon="2.16933">
        <ele>110.6</ele>
        <time>2026-03-20T13:43:56Z</time>
      </trkpt>
      <trkpt lat="48.59555" lon="2.16938">
        <ele>110.6</ele>
        <time>2026-03-20T13:43:57Z</time>
      </trkpt>
      <trkpt lat="48.59556" lon="2.16943">
        <ele>110.6</ele>
        <time>2026-03-20T13:43:58Z</time>
      </trkpt>
      <trkpt lat="48.59556" lon="2.16948">
        <ele>110.6</ele>
        <time>2026-03-20T13:43:59Z</time>
      </trkpt>
      <trkpt lat="48.59556" lon="2.16953">
        <ele>110.8</ele>
        <time>2026-03-20T13:44:00Z</time>
      </trkpt>
      <trkpt lat="48.59557" lon="2.16957">
        <ele>110.8</ele>
        <time>2026-03-20T13:44:01Z</time>
      </trkpt>
      <trkpt lat="48.59557" lon="2.16962">
        <ele>110.8</ele>
        <time>2026-03-20T13:44:02Z</time>
      </trkpt>
      <trkpt lat="48.59558" lon="2.16967">
        <ele>111</ele>
        <time>2026-03-20T13:44:03Z</time>
      </trkpt>
      <trkpt lat="48.59558" lon="2.16972">
        <ele>111.4</ele>
        <time>2026-03-20T13:44:04Z</time>
      </trkpt>
      <trkpt lat="48.59559" lon="2.16977">
        <ele>111.4</ele>
        <time>2026-03-20T13:44:05Z</time>
      </trkpt>
      <trkpt lat="48.59559" lon="2.16981">
        <ele>111.4</ele>
        <time>2026-03-20T13:44:06Z</time>
      </trkpt>
      <trkpt lat="48.59559" lon="2.16986">
        <ele>111.4</ele>
        <time>2026-03-20T13:44:07Z</time>
      </trkpt>
      <trkpt lat="48.5956" lon="2.16991">
        <ele>112</ele>
        <time>2026-03-20T13:44:08Z</time>
      </trkpt>
      <trkpt lat="48.59561" lon="2.16995">
        <ele>112</ele>
        <time>2026-03-20T13:44:09Z</time>
      </trkpt>
      <trkpt lat="48.59562" lon="2.17">
        <ele>112</ele>
        <time>2026-03-20T13:44:10Z</time>
      </trkpt>
      <trkpt lat="48.59562" lon="2.17004">
        <ele>112</ele>
        <time>2026-03-20T13:44:11Z</time>
      </trkpt>
      <trkpt lat="48.59562" lon="2.17009">
        <ele>112.2</ele>
        <time>2026-03-20T13:44:12Z</time>
      </trkpt>
      <trkpt lat="48.59563" lon="2.17014">
        <ele>112.2</ele>
        <time>2026-03-20T13:44:13Z</time>
      </trkpt>
      <trkpt lat="48.59563" lon="2.17018">
        <ele>112.2</ele>
        <time>2026-03-20T13:44:14Z</time>
      </trkpt>
      <trkpt lat="48.59564" lon="2.17023">
        <ele>112.4</ele>
        <time>2026-03-20T13:44:15Z</time>
      </trkpt>
      <trkpt lat="48.59564" lon="2.17028">
        <ele>112.2</ele>
        <time>2026-03-20T13:44:16Z</time>
      </trkpt>
      <trkpt lat="48.59565" lon="2.17032">
        <ele>112.2</ele>
        <time>2026-03-20T13:44:17Z</time>
      </trkpt>
      <trkpt lat="48.59566" lon="2.17037">
        <ele>112.2</ele>
        <time>2026-03-20T13:44:18Z</time>
      </trkpt>
      <trkpt lat="48.59567" lon="2.17041">
        <ele>112.2</ele>
        <time>2026-03-20T13:44:19Z</time>
      </trkpt>
      <trkpt lat="48.59568" lon="2.17046">
        <ele>112.4</ele>
        <time>2026-03-20T13:44:20Z</time>
      </trkpt>
      <trkpt lat="48.59568" lon="2.1705">
        <ele>112.4</ele>
        <time>2026-03-20T13:44:21Z</time>
      </trkpt>
      <trkpt lat="48.59569" lon="2.17055">
        <ele>112.4</ele>
        <time>2026-03-20T13:44:22Z</time>
      </trkpt>
      <trkpt lat="48.59569" lon="2.17059">
        <ele>112.4</ele>
        <time>2026-03-20T13:44:23Z</time>
      </trkpt>
      <trkpt lat="48.5957" lon="2.17064">
        <ele>112.4</ele>
        <time>2026-03-20T13:44:24Z</time>
      </trkpt>
      <trkpt lat="48.5957" lon="2.17069">
        <ele>112.4</ele>
        <time>2026-03-20T13:44:25Z</time>
      </trkpt>
      <trkpt lat="48.59571" lon="2.17074">
        <ele>112.4</ele>
        <time>2026-03-20T13:44:26Z</time>
      </trkpt>
      <trkpt lat="48.59572" lon="2.17078">
        <ele>112.4</ele>
        <time>2026-03-20T13:44:27Z</time>
      </trkpt>
      <trkpt lat="48.59572" lon="2.17083">
        <ele>112.8</ele>
        <time>2026-03-20T13:44:28Z</time>
      </trkpt>
      <trkpt lat="48.59573" lon="2.17086">
        <ele>112.8</ele>
        <time>2026-03-20T13:44:29Z</time>
      </trkpt>
      <trkpt lat="48.59573" lon="2.17087">
        <ele>112.8</ele>
        <time>2026-03-20T13:44:30Z</time>
      </trkpt>
      <trkpt lat="48.59573" lon="2.17087">
        <ele>113</ele>
        <time>2026-03-20T13:44:31Z</time>
      </trkpt>
      <trkpt lat="48.59573" lon="2.17087">
        <ele>113.2</ele>
        <time>2026-03-20T13:44:32Z</time>
      </trkpt>
      <trkpt lat="48.59573" lon="2.1709">
        <ele>112.4</ele>
        <time>2026-03-20T13:44:45Z</time>
      </trkpt>
      <trkpt lat="48.59574" lon="2.17091">
        <ele>112.4</ele>
        <time>2026-03-20T13:44:46Z</time>
      </trkpt>
      <trkpt lat="48.59574" lon="2.17091">
        <ele>113</ele>
        <time>2026-03-20T13:44:47Z</time>
      </trkpt>
      <trkpt lat="48.59574" lon="2.17096">
        <ele>112.2</ele>
        <time>2026-03-20T13:44:55Z</time>
      </trkpt>
      <trkpt lat="48.59575" lon="2.17099">
        <ele>112.4</ele>
        <time>2026-03-20T13:44:56Z</time>
      </trkpt>
      <trkpt lat="48.59576" lon="2.17102">
        <ele>112.4</ele>
        <time>2026-03-20T13:44:57Z</time>
      </trkpt>
      <trkpt lat="48.59577" lon="2.17106">
        <ele>112.4</ele>
        <time>2026-03-20T13:44:58Z</time>
      </trkpt>
      <trkpt lat="48.59578" lon="2.1711">
        <ele>112</ele>
        <time>2026-03-20T13:44:59Z</time>
      </trkpt>
      <trkpt lat="48.59579" lon="2.17115">
        <ele>111.6</ele>
        <time>2026-03-20T13:45:00Z</time>
      </trkpt>
      <trkpt lat="48.59579" lon="2.1712">
        <ele>111.6</ele>
        <time>2026-03-20T13:45:01Z</time>
      </trkpt>
      <trkpt lat="48.5958" lon="2.17125">
        <ele>111.6</ele>
        <time>2026-03-20T13:45:02Z</time>
      </trkpt>
      <trkpt lat="48.59581" lon="2.1713">
        <ele>111.6</ele>
        <time>2026-03-20T13:45:03Z</time>
      </trkpt>
      <trkpt lat="48.59582" lon="2.17135">
        <ele>110.8</ele>
        <time>2026-03-20T13:45:04Z</time>
      </trkpt>
      <trkpt lat="48.59583" lon="2.17141">
        <ele>110.8</ele>
        <time>2026-03-20T13:45:05Z</time>
      </trkpt>
      <trkpt lat="48.59584" lon="2.17146">
        <ele>110.8</ele>
        <time>2026-03-20T13:45:06Z</time>
      </trkpt>
      <trkpt lat="48.59585" lon="2.17152">
        <ele>110.8</ele>
        <time>2026-03-20T13:45:07Z</time>
      </trkpt>
      <trkpt lat="48.59586" lon="2.17158">
        <ele>111.4</ele>
        <time>2026-03-20T13:45:08Z</time>
      </trkpt>
      <trkpt lat="48.59587" lon="2.17164">
        <ele>111.4</ele>
        <time>2026-03-20T13:45:09Z</time>
      </trkpt>
      <trkpt lat="48.59589" lon="2.1717">
        <ele>111.4</ele>
        <time>2026-03-20T13:45:10Z</time>
      </trkpt>
      <trkpt lat="48.5959" lon="2.17177">
        <ele>111</ele>
        <time>2026-03-20T13:45:11Z</time>
      </trkpt>
      <trkpt lat="48.59591" lon="2.17184">
        <ele>110</ele>
        <time>2026-03-20T13:45:12Z</time>
      </trkpt>
      <trkpt lat="48.59593" lon="2.17191">
        <ele>110</ele>
        <time>2026-03-20T13:45:13Z</time>
      </trkpt>
      <trkpt lat="48.59594" lon="2.17198">
        <ele>110</ele>
        <time>2026-03-20T13:45:14Z</time>
      </trkpt>
      <trkpt lat="48.59596" lon="2.17206">
        <ele>110.2</ele>
        <time>2026-03-20T13:45:15Z</time>
      </trkpt>
      <trkpt lat="48.59597" lon="2.17213">
        <ele>109.6</ele>
        <time>2026-03-20T13:45:16Z</time>
      </trkpt>
      <trkpt lat="48.59599" lon="2.17221">
        <ele>109.6</ele>
        <time>2026-03-20T13:45:17Z</time>
      </trkpt>
      <trkpt lat="48.596" lon="2.17229">
        <ele>109.6</ele>
        <time>2026-03-20T13:45:18Z</time>
      </trkpt>
      <trkpt lat="48.59602" lon="2.17237">
        <ele>109.2</ele>
        <time>2026-03-20T13:45:19Z</time>
      </trkpt>
      <trkpt lat="48.59603" lon="2.17245">
        <ele>108.8</ele>
        <time>2026-03-20T13:45:20Z</time>
      </trkpt>
      <trkpt lat="48.59605" lon="2.17253">
        <ele>108.8</ele>
        <time>2026-03-20T13:45:21Z</time>
      </trkpt>
      <trkpt lat="48.59607" lon="2.17261">
        <ele>108.8</ele>
        <time>2026-03-20T13:45:22Z</time>
      </trkpt>
      <trkpt lat="48.59608" lon="2.17269">
        <ele>108.6</ele>
        <time>2026-03-20T13:45:23Z</time>
      </trkpt>
      <trkpt lat="48.5961" lon="2.17278">
        <ele>107.4</ele>
        <time>2026-03-20T13:45:24Z</time>
      </trkpt>
      <trkpt lat="48.59611" lon="2.17287">
        <ele>107.4</ele>
        <time>2026-03-20T13:45:25Z</time>
      </trkpt>
      <trkpt lat="48.59613" lon="2.17295">
        <ele>107.4</ele>
        <time>2026-03-20T13:45:26Z</time>
      </trkpt>
      <trkpt lat="48.59614" lon="2.17304">
        <ele>107.4</ele>
        <time>2026-03-20T13:45:27Z</time>
      </trkpt>
      <trkpt lat="48.59615" lon="2.17313">
        <ele>106</ele>
        <time>2026-03-20T13:45:28Z</time>
      </trkpt>
      <trkpt lat="48.59616" lon="2.17322">
        <ele>106</ele>
        <time>2026-03-20T13:45:29Z</time>
      </trkpt>
      <trkpt lat="48.59617" lon="2.17331">
        <ele>106</ele>
        <time>2026-03-20T13:45:30Z</time>
      </trkpt>
      <trkpt lat="48.59618" lon="2.1734">
        <ele>106</ele>
        <time>2026-03-20T13:45:31Z</time>
      </trkpt>
      <trkpt lat="48.59618" lon="2.17349">
        <ele>106</ele>
        <time>2026-03-20T13:45:32Z</time>
      </trkpt>
      <trkpt lat="48.59618" lon="2.17358">
        <ele>106</ele>
        <time>2026-03-20T13:45:33Z</time>
      </trkpt>
      <trkpt lat="48.59618" lon="2.17367">
        <ele>106</ele>
        <time>2026-03-20T13:45:34Z</time>
      </trkpt>
      <trkpt lat="48.59617" lon="2.17376">
        <ele>105</ele>
        <time>2026-03-20T13:45:35Z</time>
      </trkpt>
      <trkpt lat="48.59617" lon="2.17386">
        <ele>105</ele>
        <time>2026-03-20T13:45:36Z</time>
      </trkpt>
      <trkpt lat="48.59617" lon="2.17395">
        <ele>105</ele>
        <time>2026-03-20T13:45:37Z</time>
      </trkpt>
      <trkpt lat="48.59617" lon="2.17404">
        <ele>105</ele>
        <time>2026-03-20T13:45:38Z</time>
      </trkpt>
      <trkpt lat="48.59616" lon="2.17413">
        <ele>105</ele>
        <time>2026-03-20T13:45:39Z</time>
      </trkpt>
      <trkpt lat="48.59615" lon="2.17422">
        <ele>105</ele>
        <time>2026-03-20T13:45:40Z</time>
      </trkpt>
      <trkpt lat="48.59615" lon="2.17431">
        <ele>105</ele>
        <time>2026-03-20T13:45:41Z</time>
      </trkpt>
      <trkpt lat="48.59614" lon="2.1744">
        <ele>105</ele>
        <time>2026-03-20T13:45:42Z</time>
      </trkpt>
      <trkpt lat="48.59613" lon="2.17449">
        <ele>105</ele>
        <time>2026-03-20T13:45:43Z</time>
      </trkpt>
      <trkpt lat="48.59612" lon="2.17458">
        <ele>104.6</ele>
        <time>2026-03-20T13:45:44Z</time>
      </trkpt>
      <trkpt lat="48.5961" lon="2.17467">
        <ele>104.6</ele>
        <time>2026-03-20T13:45:45Z</time>
      </trkpt>
      <trkpt lat="48.59608" lon="2.17475">
        <ele>104.6</ele>
        <time>2026-03-20T13:45:46Z</time>
      </trkpt>
      <trkpt lat="48.59606" lon="2.17483">
        <ele>104</ele>
        <time>2026-03-20T13:45:47Z</time>
      </trkpt>
      <trkpt lat="48.59603" lon="2.1749">
        <ele>104</ele>
        <time>2026-03-20T13:45:48Z</time>
      </trkpt>
      <trkpt lat="48.596" lon="2.17497">
        <ele>104</ele>
        <time>2026-03-20T13:45:49Z</time>
      </trkpt>
      <trkpt lat="48.59595" lon="2.17502">
        <ele>104</ele>
        <time>2026-03-20T13:45:50Z</time>
      </trkpt>
      <trkpt lat="48.59591" lon="2.17508">
        <ele>103</ele>
        <time>2026-03-20T13:45:51Z</time>
      </trkpt>
      <trkpt lat="48.59586" lon="2.17514">
        <ele>102.6</ele>
        <time>2026-03-20T13:45:52Z</time>
      </trkpt>
      <trkpt lat="48.5958" lon="2.17519">
        <ele>102.6</ele>
        <time>2026-03-20T13:45:53Z</time>
      </trkpt>
      <trkpt lat="48.59575" lon="2.17525">
        <ele>102.6</ele>
        <time>2026-03-20T13:45:54Z</time>
      </trkpt>
      <trkpt lat="48.59569" lon="2.17531">
        <ele>101.6</ele>
        <time>2026-03-20T13:45:55Z</time>
      </trkpt>
      <trkpt lat="48.59563" lon="2.17536">
        <ele>100.8</ele>
        <time>2026-03-20T13:45:56Z</time>
      </trkpt>
      <trkpt lat="48.59558" lon="2.17542">
        <ele>100.8</ele>
        <time>2026-03-20T13:45:57Z</time>
      </trkpt>
      <trkpt lat="48.59552" lon="2.17547">
        <ele>100.8</ele>
        <time>2026-03-20T13:45:58Z</time>
      </trkpt>
      <trkpt lat="48.59547" lon="2.17553">
        <ele>100.8</ele>
        <time>2026-03-20T13:45:59Z</time>
      </trkpt>
      <trkpt lat="48.59542" lon="2.1756">
        <ele>99.6</ele>
        <time>2026-03-20T13:46:00Z</time>
      </trkpt>
      <trkpt lat="48.59537" lon="2.17568">
        <ele>99.6</ele>
        <time>2026-03-20T13:46:01Z</time>
      </trkpt>
      <trkpt lat="48.59533" lon="2.17576">
        <ele>99.6</ele>
        <time>2026-03-20T13:46:02Z</time>
      </trkpt>
      <trkpt lat="48.59529" lon="2.17584">
        <ele>99.4</ele>
        <time>2026-03-20T13:46:03Z</time>
      </trkpt>
      <trkpt lat="48.59526" lon="2.17594">
        <ele>97.4</ele>
        <time>2026-03-20T13:46:04Z</time>
      </trkpt>
      <trkpt lat="48.59524" lon="2.17603">
        <ele>97.4</ele>
        <time>2026-03-20T13:46:05Z</time>
      </trkpt>
      <trkpt lat="48.59524" lon="2.17613">
        <ele>97.4</ele>
        <time>2026-03-20T13:46:06Z</time>
      </trkpt>
      <trkpt lat="48.59526" lon="2.17623">
        <ele>98.4</ele>
        <time>2026-03-20T13:46:07Z</time>
      </trkpt>
      <trkpt lat="48.59528" lon="2.17631">
        <ele>98.6</ele>
        <time>2026-03-20T13:46:08Z</time>
      </trkpt>
      <trkpt lat="48.59531" lon="2.17638">
        <ele>98.6</ele>
        <time>2026-03-20T13:46:09Z</time>
      </trkpt>
      <trkpt lat="48.59533" lon="2.17646">
        <ele>98.6</ele>
        <time>2026-03-20T13:46:10Z</time>
      </trkpt>
      <trkpt lat="48.59535" lon="2.17653">
        <ele>99.6</ele>
        <time>2026-03-20T13:46:11Z</time>
      </trkpt>
      <trkpt lat="48.59537" lon="2.1766">
        <ele>100.2</ele>
        <time>2026-03-20T13:46:12Z</time>
      </trkpt>
      <trkpt lat="48.59538" lon="2.17667">
        <ele>100.2</ele>
        <time>2026-03-20T13:46:13Z</time>
      </trkpt>
      <trkpt lat="48.5954" lon="2.17673">
        <ele>100.2</ele>
        <time>2026-03-20T13:46:14Z</time>
      </trkpt>
      <trkpt lat="48.59541" lon="2.1768">
        <ele>100.2</ele>
        <time>2026-03-20T13:46:15Z</time>
      </trkpt>
      <trkpt lat="48.59542" lon="2.17687">
        <ele>101</ele>
        <time>2026-03-20T13:46:16Z</time>
      </trkpt>
      <trkpt lat="48.59543" lon="2.17693">
        <ele>101</ele>
        <time>2026-03-20T13:46:17Z</time>
      </trkpt>
      <trkpt lat="48.59544" lon="2.177">
        <ele>101</ele>
        <time>2026-03-20T13:46:18Z</time>
      </trkpt>
      <trkpt lat="48.59544" lon="2.17707">
        <ele>101.2</ele>
        <time>2026-03-20T13:46:19Z</time>
      </trkpt>
      <trkpt lat="48.59544" lon="2.17714">
        <ele>100.6</ele>
        <time>2026-03-20T13:46:20Z</time>
      </trkpt>
      <trkpt lat="48.59543" lon="2.17722">
        <ele>100.6</ele>
        <time>2026-03-20T13:46:21Z</time>
      </trkpt>
      <trkpt lat="48.59543" lon="2.17729">
        <ele>100.6</ele>
        <time>2026-03-20T13:46:22Z</time>
      </trkpt>
      <trkpt lat="48.59542" lon="2.17736">
        <ele>100.6</ele>
        <time>2026-03-20T13:46:23Z</time>
      </trkpt>
      <trkpt lat="48.59541" lon="2.17743">
        <ele>99.2</ele>
        <time>2026-03-20T13:46:24Z</time>
      </trkpt>
      <trkpt lat="48.5954" lon="2.17751">
        <ele>99.2</ele>
        <time>2026-03-20T13:46:25Z</time>
      </trkpt>
      <trkpt lat="48.59539" lon="2.17758">
        <ele>99.2</ele>
        <time>2026-03-20T13:46:26Z</time>
      </trkpt>
      <trkpt lat="48.59539" lon="2.17765">
        <ele>100.2</ele>
        <time>2026-03-20T13:46:27Z</time>
      </trkpt>
      <trkpt lat="48.59538" lon="2.17771">
        <ele>101.4</ele>
        <time>2026-03-20T13:46:28Z</time>
      </trkpt>
      <trkpt lat="48.59537" lon="2.17778">
        <ele>101.4</ele>
        <time>2026-03-20T13:46:29Z</time>
      </trkpt>
      <trkpt lat="48.59537" lon="2.17785">
        <ele>101.4</ele>
        <time>2026-03-20T13:46:30Z</time>
      </trkpt>
      <trkpt lat="48.59536" lon="2.17793">
        <ele>101.4</ele>
        <time>2026-03-20T13:46:31Z</time>
      </trkpt>
      <trkpt lat="48.59535" lon="2.178">
        <ele>101.2</ele>
        <time>2026-03-20T13:46:32Z</time>
      </trkpt>
      <trkpt lat="48.59534" lon="2.17808">
        <ele>101.2</ele>
        <time>2026-03-20T13:46:33Z</time>
      </trkpt>
      <trkpt lat="48.59534" lon="2.17816">
        <ele>101.2</ele>
        <time>2026-03-20T13:46:34Z</time>
      </trkpt>
      <trkpt lat="48.59533" lon="2.17824">
        <ele>101.2</ele>
        <time>2026-03-20T13:46:35Z</time>
      </trkpt>
      <trkpt lat="48.59533" lon="2.17832">
        <ele>101</ele>
        <time>2026-03-20T13:46:36Z</time>
      </trkpt>
      <trkpt lat="48.59533" lon="2.1784">
        <ele>101</ele>
        <time>2026-03-20T13:46:37Z</time>
      </trkpt>
      <trkpt lat="48.59532" lon="2.17848">
        <ele>101</ele>
        <time>2026-03-20T13:46:38Z</time>
      </trkpt>
      <trkpt lat="48.59532" lon="2.17856">
        <ele>101.2</ele>
        <time>2026-03-20T13:46:39Z</time>
      </trkpt>
      <trkpt lat="48.59532" lon="2.17864">
        <ele>101.8</ele>
        <time>2026-03-20T13:46:40Z</time>
      </trkpt>
      <trkpt lat="48.59533" lon="2.17872">
        <ele>101.8</ele>
        <time>2026-03-20T13:46:41Z</time>
      </trkpt>
      <trkpt lat="48.59533" lon="2.17879">
        <ele>101.8</ele>
        <time>2026-03-20T13:46:42Z</time>
      </trkpt>
      <trkpt lat="48.59533" lon="2.17887">
        <ele>102.8</ele>
        <time>2026-03-20T13:46:43Z</time>
      </trkpt>
      <trkpt lat="48.59533" lon="2.17894">
        <ele>102.8</ele>
        <time>2026-03-20T13:46:44Z</time>
      </trkpt>
      <trkpt lat="48.59533" lon="2.17901">
        <ele>102.8</ele>
        <time>2026-03-20T13:46:45Z</time>
      </trkpt>
      <trkpt lat="48.59534" lon="2.17908">
        <ele>102.8</ele>
        <time>2026-03-20T13:46:46Z</time>
      </trkpt>
      <trkpt lat="48.59534" lon="2.17915">
        <ele>103.4</ele>
        <time>2026-03-20T13:46:47Z</time>
      </trkpt>
      <trkpt lat="48.59534" lon="2.17922">
        <ele>104</ele>
        <time>2026-03-20T13:46:48Z</time>
      </trkpt>
      <trkpt lat="48.59534" lon="2.17929">
        <ele>104</ele>
        <time>2026-03-20T13:46:49Z</time>
      </trkpt>
      <trkpt lat="48.59534" lon="2.17935">
        <ele>104</ele>
        <time>2026-03-20T13:46:50Z</time>
      </trkpt>
      <trkpt lat="48.59534" lon="2.17942">
        <ele>104.2</ele>
        <time>2026-03-20T13:46:51Z</time>
      </trkpt>
      <trkpt lat="48.59534" lon="2.17949">
        <ele>104.8</ele>
        <time>2026-03-20T13:46:52Z</time>
      </trkpt>
      <trkpt lat="48.59534" lon="2.17955">
        <ele>104.8</ele>
        <time>2026-03-20T13:46:53Z</time>
      </trkpt>
      <trkpt lat="48.59534" lon="2.17962">
        <ele>104.8</ele>
        <time>2026-03-20T13:46:54Z</time>
      </trkpt>
      <trkpt lat="48.59534" lon="2.17968">
        <ele>104.8</ele>
        <time>2026-03-20T13:46:55Z</time>
      </trkpt>
      <trkpt lat="48.59534" lon="2.17973">
        <ele>105.6</ele>
        <time>2026-03-20T13:46:56Z</time>
      </trkpt>
      <trkpt lat="48.59533" lon="2.17979">
        <ele>105.6</ele>
        <time>2026-03-20T13:46:57Z</time>
      </trkpt>
      <trkpt lat="48.59533" lon="2.17985">
        <ele>105.6</ele>
        <time>2026-03-20T13:46:58Z</time>
      </trkpt>
      <trkpt lat="48.59532" lon="2.17991">
        <ele>105.6</ele>
        <time>2026-03-20T13:46:59Z</time>
      </trkpt>
      <trkpt lat="48.59532" lon="2.17998">
        <ele>106.4</ele>
        <time>2026-03-20T13:47:00Z</time>
      </trkpt>
      <trkpt lat="48.59531" lon="2.18005">
        <ele>106.4</ele>
        <time>2026-03-20T13:47:01Z</time>
      </trkpt>
      <trkpt lat="48.59531" lon="2.18012">
        <ele>106.4</ele>
        <time>2026-03-20T13:47:02Z</time>
      </trkpt>
      <trkpt lat="48.59531" lon="2.18019">
        <ele>107.2</ele>
        <time>2026-03-20T13:47:03Z</time>
      </trkpt>
      <trkpt lat="48.59532" lon="2.18026">
        <ele>107.2</ele>
        <time>2026-03-20T13:47:04Z</time>
      </trkpt>
      <trkpt lat="48.59531" lon="2.18033">
        <ele>107.2</ele>
        <time>2026-03-20T13:47:05Z</time>
      </trkpt>
      <trkpt lat="48.59531" lon="2.18039">
        <ele>107.2</ele>
        <time>2026-03-20T13:47:06Z</time>
      </trkpt>
      <trkpt lat="48.59531" lon="2.18045">
        <ele>108.2</ele>
        <time>2026-03-20T13:47:07Z</time>
      </trkpt>
      <trkpt lat="48.59531" lon="2.18052">
        <ele>108.2</ele>
        <time>2026-03-20T13:47:08Z</time>
      </trkpt>
      <trkpt lat="48.59531" lon="2.18058">
        <ele>108.2</ele>
        <time>2026-03-20T13:47:09Z</time>
      </trkpt>
      <trkpt lat="48.59531" lon="2.18065">
        <ele>108.2</ele>
        <time>2026-03-20T13:47:10Z</time>
      </trkpt>
      <trkpt lat="48.59531" lon="2.18071">
        <ele>108.8</ele>
        <time>2026-03-20T13:47:11Z</time>
      </trkpt>
      <trkpt lat="48.5953" lon="2.18078">
        <ele>109</ele>
        <time>2026-03-20T13:47:12Z</time>
      </trkpt>
      <trkpt lat="48.5953" lon="2.18085">
        <ele>109</ele>
        <time>2026-03-20T13:47:13Z</time>
      </trkpt>
      <trkpt lat="48.59529" lon="2.18092">
        <ele>109</ele>
        <time>2026-03-20T13:47:14Z</time>
      </trkpt>
      <trkpt lat="48.59528" lon="2.18099">
        <ele>110</ele>
        <time>2026-03-20T13:47:15Z</time>
      </trkpt>
      <trkpt lat="48.59526" lon="2.18105">
        <ele>110.2</ele>
        <time>2026-03-20T13:47:16Z</time>
      </trkpt>
      <trkpt lat="48.59524" lon="2.18112">
        <ele>110.2</ele>
        <time>2026-03-20T13:47:17Z</time>
      </trkpt>
      <trkpt lat="48.59523" lon="2.18118">
        <ele>110.2</ele>
        <time>2026-03-20T13:47:18Z</time>
      </trkpt>
      <trkpt lat="48.59522" lon="2.18125">
        <ele>110.2</ele>
        <time>2026-03-20T13:47:19Z</time>
      </trkpt>
      <trkpt lat="48.5952" lon="2.18131">
        <ele>111.2</ele>
        <time>2026-03-20T13:47:20Z</time>
      </trkpt>
      <trkpt lat="48.59519" lon="2.18138">
        <ele>111.2</ele>
        <time>2026-03-20T13:47:21Z</time>
      </trkpt>
      <trkpt lat="48.59518" lon="2.18145">
        <ele>111.2</ele>
        <time>2026-03-20T13:47:22Z</time>
      </trkpt>
      <trkpt lat="48.59516" lon="2.18152">
        <ele>111.2</ele>
        <time>2026-03-20T13:47:23Z</time>
      </trkpt>
      <trkpt lat="48.59515" lon="2.18159">
        <ele>111.8</ele>
        <time>2026-03-20T13:47:24Z</time>
      </trkpt>
      <trkpt lat="48.59514" lon="2.18166">
        <ele>111.8</ele>
        <time>2026-03-20T13:47:25Z</time>
      </trkpt>
      <trkpt lat="48.59512" lon="2.18173">
        <ele>111.8</ele>
        <time>2026-03-20T13:47:26Z</time>
      </trkpt>
      <trkpt lat="48.59511" lon="2.1818">
        <ele>111.8</ele>
        <time>2026-03-20T13:47:27Z</time>
      </trkpt>
      <trkpt lat="48.59509" lon="2.18187">
        <ele>112.4</ele>
        <time>2026-03-20T13:47:28Z</time>
      </trkpt>
      <trkpt lat="48.59507" lon="2.18195">
        <ele>112.4</ele>
        <time>2026-03-20T13:47:29Z</time>
      </trkpt>
      <trkpt lat="48.59506" lon="2.18204">
        <ele>112.4</ele>
        <time>2026-03-20T13:47:30Z</time>
      </trkpt>
      <trkpt lat="48.59504" lon="2.18214">
        <ele>112.4</ele>
        <time>2026-03-20T13:47:31Z</time>
      </trkpt>
      <trkpt lat="48.59503" lon="2.18223">
        <ele>113.2</ele>
        <time>2026-03-20T13:47:32Z</time>
      </trkpt>
      <trkpt lat="48.59502" lon="2.1823">
        <ele>113.2</ele>
        <time>2026-03-20T13:47:33Z</time>
      </trkpt>
      <trkpt lat="48.595" lon="2.18238">
        <ele>113.2</ele>
        <time>2026-03-20T13:47:34Z</time>
      </trkpt>
      <trkpt lat="48.59499" lon="2.18244">
        <ele>113.8</ele>
        <time>2026-03-20T13:47:35Z</time>
      </trkpt>
      <trkpt lat="48.59498" lon="2.18251">
        <ele>113.8</ele>
        <time>2026-03-20T13:47:36Z</time>
      </trkpt>
      <trkpt lat="48.59497" lon="2.18257">
        <ele>113.8</ele>
        <time>2026-03-20T13:47:37Z</time>
      </trkpt>
      <trkpt lat="48.59496" lon="2.18263">
        <ele>113.8</ele>
        <time>2026-03-20T13:47:38Z</time>
      </trkpt>
      <trkpt lat="48.59495" lon="2.18269">
        <ele>113.2</ele>
        <time>2026-03-20T13:47:39Z</time>
      </trkpt>
      <trkpt lat="48.59494" lon="2.18275">
        <ele>113.2</ele>
        <time>2026-03-20T13:47:40Z</time>
      </trkpt>
      <trkpt lat="48.59493" lon="2.1828">
        <ele>113.2</ele>
        <time>2026-03-20T13:47:41Z</time>
      </trkpt>
      <trkpt lat="48.59492" lon="2.18285">
        <ele>113.2</ele>
        <time>2026-03-20T13:47:42Z</time>
      </trkpt>
      <trkpt lat="48.59491" lon="2.18291">
        <ele>112.2</ele>
        <time>2026-03-20T13:47:43Z</time>
      </trkpt>
      <trkpt lat="48.5949" lon="2.18297">
        <ele>113</ele>
        <time>2026-03-20T13:47:44Z</time>
      </trkpt>
      <trkpt lat="48.59488" lon="2.18303">
        <ele>113</ele>
        <time>2026-03-20T13:47:45Z</time>
      </trkpt>
      <trkpt lat="48.59487" lon="2.1831">
        <ele>113</ele>
        <time>2026-03-20T13:47:46Z</time>
      </trkpt>
      <trkpt lat="48.59486" lon="2.18316">
        <ele>113</ele>
        <time>2026-03-20T13:47:47Z</time>
      </trkpt>
      <trkpt lat="48.59485" lon="2.18322">
        <ele>113.2</ele>
        <time>2026-03-20T13:47:48Z</time>
      </trkpt>
      <trkpt lat="48.59484" lon="2.18327">
        <ele>113.2</ele>
        <time>2026-03-20T13:47:49Z</time>
      </trkpt>
      <trkpt lat="48.59482" lon="2.18333">
        <ele>113.2</ele>
        <time>2026-03-20T13:47:50Z</time>
      </trkpt>
      <trkpt lat="48.5948" lon="2.18339">
        <ele>112.8</ele>
        <time>2026-03-20T13:47:51Z</time>
      </trkpt>
      <trkpt lat="48.59478" lon="2.18345">
        <ele>112.6</ele>
        <time>2026-03-20T13:47:52Z</time>
      </trkpt>
      <trkpt lat="48.59476" lon="2.1835">
        <ele>112.6</ele>
        <time>2026-03-20T13:47:53Z</time>
      </trkpt>
      <trkpt lat="48.59474" lon="2.18356">
        <ele>112.6</ele>
        <time>2026-03-20T13:47:54Z</time>
      </trkpt>
      <trkpt lat="48.59473" lon="2.18362">
        <ele>112.6</ele>
        <time>2026-03-20T13:47:55Z</time>
      </trkpt>
      <trkpt lat="48.59472" lon="2.18369">
        <ele>112.2</ele>
        <time>2026-03-20T13:47:56Z</time>
      </trkpt>
      <trkpt lat="48.59473" lon="2.18376">
        <ele>112.2</ele>
        <time>2026-03-20T13:47:57Z</time>
      </trkpt>
      <trkpt lat="48.59472" lon="2.18382">
        <ele>112.2</ele>
        <time>2026-03-20T13:47:58Z</time>
      </trkpt>
      <trkpt lat="48.59471" lon="2.18389">
        <ele>111.4</ele>
        <time>2026-03-20T13:47:59Z</time>
      </trkpt>
      <trkpt lat="48.59469" lon="2.18395">
        <ele>110.8</ele>
        <time>2026-03-20T13:48:00Z</time>
      </trkpt>
      <trkpt lat="48.59468" lon="2.18402">
        <ele>110.8</ele>
        <time>2026-03-20T13:48:01Z</time>
      </trkpt>
      <trkpt lat="48.59467" lon="2.18408">
        <ele>110.8</ele>
        <time>2026-03-20T13:48:02Z</time>
      </trkpt>
      <trkpt lat="48.59465" lon="2.18416">
        <ele>109.8</ele>
        <time>2026-03-20T13:48:03Z</time>
      </trkpt>
      <trkpt lat="48.59464" lon="2.18423">
        <ele>109.6</ele>
        <time>2026-03-20T13:48:04Z</time>
      </trkpt>
      <trkpt lat="48.59462" lon="2.1843">
        <ele>109.6</ele>
        <time>2026-03-20T13:48:05Z</time>
      </trkpt>
      <trkpt lat="48.5946" lon="2.18437">
        <ele>109.6</ele>
        <time>2026-03-20T13:48:06Z</time>
      </trkpt>
      <trkpt lat="48.59459" lon="2.18445">
        <ele>109.6</ele>
        <time>2026-03-20T13:48:07Z</time>
      </trkpt>
      <trkpt lat="48.59457" lon="2.18453">
        <ele>109.2</ele>
        <time>2026-03-20T13:48:08Z</time>
      </trkpt>
      <trkpt lat="48.59455" lon="2.18461">
        <ele>109.2</ele>
        <time>2026-03-20T13:48:09Z</time>
      </trkpt>
      <trkpt lat="48.59453" lon="2.18469">
        <ele>109.2</ele>
        <time>2026-03-20T13:48:10Z</time>
      </trkpt>
      <trkpt lat="48.59452" lon="2.18477">
        <ele>109.2</ele>
        <time>2026-03-20T13:48:11Z</time>
      </trkpt>
      <trkpt lat="48.5945" lon="2.18486">
        <ele>109.2</ele>
        <time>2026-03-20T13:48:12Z</time>
      </trkpt>
      <trkpt lat="48.59448" lon="2.18494">
        <ele>109.2</ele>
        <time>2026-03-20T13:48:13Z</time>
      </trkpt>
      <trkpt lat="48.59446" lon="2.18503">
        <ele>109.2</ele>
        <time>2026-03-20T13:48:14Z</time>
      </trkpt>
      <trkpt lat="48.59444" lon="2.18512">
        <ele>109.2</ele>
        <time>2026-03-20T13:48:15Z</time>
      </trkpt>
      <trkpt lat="48.59442" lon="2.18521">
        <ele>108.4</ele>
        <time>2026-03-20T13:48:16Z</time>
      </trkpt>
      <trkpt lat="48.59439" lon="2.1853">
        <ele>108.4</ele>
        <time>2026-03-20T13:48:17Z</time>
      </trkpt>
      <trkpt lat="48.59437" lon="2.1854">
        <ele>108.4</ele>
        <time>2026-03-20T13:48:18Z</time>
      </trkpt>
      <trkpt lat="48.59435" lon="2.1855">
        <ele>107.4</ele>
        <time>2026-03-20T13:48:19Z</time>
      </trkpt>
      <trkpt lat="48.59432" lon="2.18559">
        <ele>106.6</ele>
        <time>2026-03-20T13:48:20Z</time>
      </trkpt>
      <trkpt lat="48.59429" lon="2.18569">
        <ele>106.6</ele>
        <time>2026-03-20T13:48:21Z</time>
      </trkpt>
      <trkpt lat="48.59426" lon="2.18579">
        <ele>106.6</ele>
        <time>2026-03-20T13:48:22Z</time>
      </trkpt>
      <trkpt lat="48.59423" lon="2.18588">
        <ele>105.8</ele>
        <time>2026-03-20T13:48:23Z</time>
      </trkpt>
      <trkpt lat="48.59418" lon="2.18597">
        <ele>104.8</ele>
        <time>2026-03-20T13:48:24Z</time>
      </trkpt>
      <trkpt lat="48.59414" lon="2.18605">
        <ele>104.8</ele>
        <time>2026-03-20T13:48:25Z</time>
      </trkpt>
      <trkpt lat="48.59408" lon="2.18614">
        <ele>104.8</ele>
        <time>2026-03-20T13:48:26Z</time>
      </trkpt>
      <trkpt lat="48.59403" lon="2.18621">
        <ele>104.8</ele>
        <time>2026-03-20T13:48:27Z</time>
      </trkpt>
      <trkpt lat="48.59396" lon="2.18627">
        <ele>101.6</ele>
        <time>2026-03-20T13:48:28Z</time>
      </trkpt>
      <trkpt lat="48.59389" lon="2.18632">
        <ele>101.6</ele>
        <time>2026-03-20T13:48:29Z</time>
      </trkpt>
      <trkpt lat="48.59382" lon="2.18636">
        <ele>101.6</ele>
        <time>2026-03-20T13:48:30Z</time>
      </trkpt>
      <trkpt lat="48.59375" lon="2.1864">
        <ele>101.4</ele>
        <time>2026-03-20T13:48:31Z</time>
      </trkpt>
      <trkpt lat="48.59368" lon="2.18644">
        <ele>102.2</ele>
        <time>2026-03-20T13:48:32Z</time>
      </trkpt>
      <trkpt lat="48.59362" lon="2.18647">
        <ele>102.2</ele>
        <time>2026-03-20T13:48:33Z</time>
      </trkpt>
      <trkpt lat="48.59355" lon="2.18651">
        <ele>102.2</ele>
        <time>2026-03-20T13:48:34Z</time>
      </trkpt>
      <trkpt lat="48.59349" lon="2.18655">
        <ele>101.6</ele>
        <time>2026-03-20T13:48:35Z</time>
      </trkpt>
      <trkpt lat="48.59342" lon="2.18659">
        <ele>102.2</ele>
        <time>2026-03-20T13:48:36Z</time>
      </trkpt>
      <trkpt lat="48.59336" lon="2.18663">
        <ele>102.2</ele>
        <time>2026-03-20T13:48:37Z</time>
      </trkpt>
      <trkpt lat="48.59329" lon="2.18666">
        <ele>102.2</ele>
        <time>2026-03-20T13:48:38Z</time>
      </trkpt>
      <trkpt lat="48.59323" lon="2.18669">
        <ele>101.2</ele>
        <time>2026-03-20T13:48:39Z</time>
      </trkpt>
      <trkpt lat="48.59317" lon="2.18673">
        <ele>101</ele>
        <time>2026-03-20T13:48:40Z</time>
      </trkpt>
      <trkpt lat="48.59311" lon="2.18676">
        <ele>101</ele>
        <time>2026-03-20T13:48:41Z</time>
      </trkpt>
      <trkpt lat="48.59305" lon="2.18679">
        <ele>101</ele>
        <time>2026-03-20T13:48:42Z</time>
      </trkpt>
      <trkpt lat="48.59299" lon="2.18682">
        <ele>101</ele>
        <time>2026-03-20T13:48:43Z</time>
      </trkpt>
      <trkpt lat="48.59293" lon="2.18686">
        <ele>101.6</ele>
        <time>2026-03-20T13:48:44Z</time>
      </trkpt>
      <trkpt lat="48.59288" lon="2.18689">
        <ele>101.6</ele>
        <time>2026-03-20T13:48:45Z</time>
      </trkpt>
      <trkpt lat="48.59283" lon="2.18692">
        <ele>101.6</ele>
        <time>2026-03-20T13:48:46Z</time>
      </trkpt>
      <trkpt lat="48.59279" lon="2.18693">
        <ele>102.6</ele>
        <time>2026-03-20T13:48:47Z</time>
      </trkpt>
      <trkpt lat="48.59276" lon="2.18695">
        <ele>104</ele>
        <time>2026-03-20T13:48:48Z</time>
      </trkpt>
      <trkpt lat="48.59274" lon="2.18696">
        <ele>104</ele>
        <time>2026-03-20T13:48:49Z</time>
      </trkpt>
      <trkpt lat="48.59273" lon="2.18698">
        <ele>104</ele>
        <time>2026-03-20T13:48:50Z</time>
      </trkpt>
      <trkpt lat="48.59271" lon="2.187">
        <ele>103.6</ele>
        <time>2026-03-20T13:48:51Z</time>
      </trkpt>
      <trkpt lat="48.5927" lon="2.18704">
        <ele>102.6</ele>
        <time>2026-03-20T13:48:52Z</time>
      </trkpt>
      <trkpt lat="48.5927" lon="2.18709">
        <ele>102.6</ele>
        <time>2026-03-20T13:48:53Z</time>
      </trkpt>
      <trkpt lat="48.5927" lon="2.18714">
        <ele>102.6</ele>
        <time>2026-03-20T13:48:54Z</time>
      </trkpt>
      <trkpt lat="48.5927" lon="2.1872">
        <ele>102.6</ele>
        <time>2026-03-20T13:48:55Z</time>
      </trkpt>
      <trkpt lat="48.59271" lon="2.18726">
        <ele>101</ele>
        <time>2026-03-20T13:48:56Z</time>
      </trkpt>
      <trkpt lat="48.59272" lon="2.18733">
        <ele>101</ele>
        <time>2026-03-20T13:48:57Z</time>
      </trkpt>
      <trkpt lat="48.59272" lon="2.1874">
        <ele>101</ele>
        <time>2026-03-20T13:48:58Z</time>
      </trkpt>
      <trkpt lat="48.59273" lon="2.18747">
        <ele>101</ele>
        <time>2026-03-20T13:48:59Z</time>
      </trkpt>
      <trkpt lat="48.59273" lon="2.18753">
        <ele>102</ele>
        <time>2026-03-20T13:49:00Z</time>
      </trkpt>
      <trkpt lat="48.59274" lon="2.18759">
        <ele>102</ele>
        <time>2026-03-20T13:49:01Z</time>
      </trkpt>
      <trkpt lat="48.59274" lon="2.18765">
        <ele>102</ele>
        <time>2026-03-20T13:49:02Z</time>
      </trkpt>
      <trkpt lat="48.59275" lon="2.18771">
        <ele>102</ele>
        <time>2026-03-20T13:49:03Z</time>
      </trkpt>
      <trkpt lat="48.59274" lon="2.18777">
        <ele>102.8</ele>
        <time>2026-03-20T13:49:04Z</time>
      </trkpt>
      <trkpt lat="48.59271" lon="2.18781">
        <ele>102.8</ele>
        <time>2026-03-20T13:49:05Z</time>
      </trkpt>
      <trkpt lat="48.59267" lon="2.18782">
        <ele>102.8</ele>
        <time>2026-03-20T13:49:06Z</time>
      </trkpt>
      <trkpt lat="48.59263" lon="2.18783">
        <ele>101.8</ele>
        <time>2026-03-20T13:49:07Z</time>
      </trkpt>
      <trkpt lat="48.59258" lon="2.18784">
        <ele>99.6</ele>
        <time>2026-03-20T13:49:08Z</time>
      </trkpt>
      <trkpt lat="48.59253" lon="2.18786">
        <ele>99.6</ele>
        <time>2026-03-20T13:49:09Z</time>
      </trkpt>
      <trkpt lat="48.59248" lon="2.18787">
        <ele>99.6</ele>
        <time>2026-03-20T13:49:10Z</time>
      </trkpt>
      <trkpt lat="48.59243" lon="2.18788">
        <ele>99.6</ele>
        <time>2026-03-20T13:49:11Z</time>
      </trkpt>
      <trkpt lat="48.59238" lon="2.18789">
        <ele>99.2</ele>
        <time>2026-03-20T13:49:12Z</time>
      </trkpt>
      <trkpt lat="48.59233" lon="2.18789">
        <ele>99.2</ele>
        <time>2026-03-20T13:49:13Z</time>
      </trkpt>
      <trkpt lat="48.59227" lon="2.18789">
        <ele>99.2</ele>
        <time>2026-03-20T13:49:14Z</time>
      </trkpt>
      <trkpt lat="48.59222" lon="2.18789">
        <ele>99.2</ele>
        <time>2026-03-20T13:49:15Z</time>
      </trkpt>
      <trkpt lat="48.59217" lon="2.1879">
        <ele>99.4</ele>
        <time>2026-03-20T13:49:16Z</time>
      </trkpt>
      <trkpt lat="48.59211" lon="2.1879">
        <ele>99.4</ele>
        <time>2026-03-20T13:49:17Z</time>
      </trkpt>
      <trkpt lat="48.59206" lon="2.18791">
        <ele>99.4</ele>
        <time>2026-03-20T13:49:18Z</time>
      </trkpt>
      <trkpt lat="48.592" lon="2.18791">
        <ele>99.4</ele>
        <time>2026-03-20T13:49:19Z</time>
      </trkpt>
      <trkpt lat="48.59195" lon="2.18791">
        <ele>99.8</ele>
        <time>2026-03-20T13:49:20Z</time>
      </trkpt>
      <trkpt lat="48.59189" lon="2.18791">
        <ele>99.8</ele>
        <time>2026-03-20T13:49:21Z</time>
      </trkpt>
      <trkpt lat="48.59183" lon="2.18792">
        <ele>99.8</ele>
        <time>2026-03-20T13:49:22Z</time>
      </trkpt>
      <trkpt lat="48.59177" lon="2.18792">
        <ele>99</ele>
        <time>2026-03-20T13:49:23Z</time>
      </trkpt>
      <trkpt lat="48.59172" lon="2.18792">
        <ele>98.8</ele>
        <time>2026-03-20T13:49:24Z</time>
      </trkpt>
      <trkpt lat="48.59166" lon="2.18793">
        <ele>98.8</ele>
        <time>2026-03-20T13:49:25Z</time>
      </trkpt>
      <trkpt lat="48.5916" lon="2.18794">
        <ele>98.8</ele>
        <time>2026-03-20T13:49:26Z</time>
      </trkpt>
      <trkpt lat="48.59154" lon="2.18797">
        <ele>98</ele>
        <time>2026-03-20T13:49:27Z</time>
      </trkpt>
      <trkpt lat="48.59148" lon="2.18799">
        <ele>97.4</ele>
        <time>2026-03-20T13:49:28Z</time>
      </trkpt>
      <trkpt lat="48.59141" lon="2.18802">
        <ele>97.4</ele>
        <time>2026-03-20T13:49:29Z</time>
      </trkpt>
      <trkpt lat="48.59136" lon="2.18806">
        <ele>97.4</ele>
        <time>2026-03-20T13:49:30Z</time>
      </trkpt>
      <trkpt lat="48.5913" lon="2.18809">
        <ele>96.4</ele>
        <time>2026-03-20T13:49:31Z</time>
      </trkpt>
      <trkpt lat="48.59124" lon="2.18813">
        <ele>96</ele>
        <time>2026-03-20T13:49:32Z</time>
      </trkpt>
      <trkpt lat="48.59119" lon="2.18817">
        <ele>96</ele>
        <time>2026-03-20T13:49:33Z</time>
      </trkpt>
      <trkpt lat="48.59113" lon="2.18821">
        <ele>96</ele>
        <time>2026-03-20T13:49:34Z</time>
      </trkpt>
      <trkpt lat="48.59108" lon="2.18825">
        <ele>96.4</ele>
        <time>2026-03-20T13:49:35Z</time>
      </trkpt>
      <trkpt lat="48.59103" lon="2.18829">
        <ele>96.4</ele>
        <time>2026-03-20T13:49:36Z</time>
      </trkpt>
      <trkpt lat="48.59098" lon="2.18833">
        <ele>96.4</ele>
        <time>2026-03-20T13:49:37Z</time>
      </trkpt>
      <trkpt lat="48.59093" lon="2.18838">
        <ele>96.4</ele>
        <time>2026-03-20T13:49:38Z</time>
      </trkpt>
      <trkpt lat="48.59088" lon="2.18841">
        <ele>96.4</ele>
        <time>2026-03-20T13:49:39Z</time>
      </trkpt>
      <trkpt lat="48.59082" lon="2.18845">
        <ele>95.4</ele>
        <time>2026-03-20T13:49:40Z</time>
      </trkpt>
      <trkpt lat="48.59077" lon="2.18849">
        <ele>95.4</ele>
        <time>2026-03-20T13:49:41Z</time>
      </trkpt>
      <trkpt lat="48.59071" lon="2.18852">
        <ele>95.4</ele>
        <time>2026-03-20T13:49:42Z</time>
      </trkpt>
      <trkpt lat="48.59065" lon="2.18856">
        <ele>94.6</ele>
        <time>2026-03-20T13:49:43Z</time>
      </trkpt>
      <trkpt lat="48.59059" lon="2.18859">
        <ele>94.2</ele>
        <time>2026-03-20T13:49:44Z</time>
      </trkpt>
      <trkpt lat="48.59054" lon="2.18862">
        <ele>94.2</ele>
        <time>2026-03-20T13:49:45Z</time>
      </trkpt>
      <trkpt lat="48.59048" lon="2.18866">
        <ele>94.2</ele>
        <time>2026-03-20T13:49:46Z</time>
      </trkpt>
      <trkpt lat="48.59042" lon="2.1887">
        <ele>93.2</ele>
        <time>2026-03-20T13:49:47Z</time>
      </trkpt>
      <trkpt lat="48.59036" lon="2.18873">
        <ele>93.2</ele>
        <time>2026-03-20T13:49:48Z</time>
      </trkpt>
      <trkpt lat="48.59029" lon="2.18877">
        <ele>93.2</ele>
        <time>2026-03-20T13:49:49Z</time>
      </trkpt>
      <trkpt lat="48.59023" lon="2.18881">
        <ele>93.2</ele>
        <time>2026-03-20T13:49:50Z</time>
      </trkpt>
      <trkpt lat="48.59016" lon="2.18885">
        <ele>92.2</ele>
        <time>2026-03-20T13:49:51Z</time>
      </trkpt>
      <trkpt lat="48.5901" lon="2.18888">
        <ele>91.6</ele>
        <time>2026-03-20T13:49:52Z</time>
      </trkpt>
      <trkpt lat="48.59003" lon="2.18891">
        <ele>91.6</ele>
        <time>2026-03-20T13:49:53Z</time>
      </trkpt>
      <trkpt lat="48.58997" lon="2.18894">
        <ele>91.6</ele>
        <time>2026-03-20T13:49:54Z</time>
      </trkpt>
      <trkpt lat="48.5899" lon="2.18897">
        <ele>90.8</ele>
        <time>2026-03-20T13:49:55Z</time>
      </trkpt>
      <trkpt lat="48.58984" lon="2.189">
        <ele>91</ele>
        <time>2026-03-20T13:49:56Z</time>
      </trkpt>
      <trkpt lat="48.58977" lon="2.18903">
        <ele>91</ele>
        <time>2026-03-20T13:49:57Z</time>
      </trkpt>
      <trkpt lat="48.58971" lon="2.18906">
        <ele>91</ele>
        <time>2026-03-20T13:49:58Z</time>
      </trkpt>
      <trkpt lat="48.58965" lon="2.18909">
        <ele>91</ele>
        <time>2026-03-20T13:49:59Z</time>
      </trkpt>
      <trkpt lat="48.58958" lon="2.18911">
        <ele>90.8</ele>
        <time>2026-03-20T13:50:00Z</time>
      </trkpt>
      <trkpt lat="48.58951" lon="2.18913">
        <ele>90.8</ele>
        <time>2026-03-20T13:50:01Z</time>
      </trkpt>
      <trkpt lat="48.58945" lon="2.18915">
        <ele>90.8</ele>
        <time>2026-03-20T13:50:02Z</time>
      </trkpt>
      <trkpt lat="48.58938" lon="2.18918">
        <ele>90.8</ele>
        <time>2026-03-20T13:50:03Z</time>
      </trkpt>
      <trkpt lat="48.58931" lon="2.1892">
        <ele>90</ele>
        <time>2026-03-20T13:50:04Z</time>
      </trkpt>
      <trkpt lat="48.58924" lon="2.18922">
        <ele>90</ele>
        <time>2026-03-20T13:50:05Z</time>
      </trkpt>
      <trkpt lat="48.58917" lon="2.18924">
        <ele>90</ele>
        <time>2026-03-20T13:50:06Z</time>
      </trkpt>
      <trkpt lat="48.58911" lon="2.18927">
        <ele>89</ele>
        <time>2026-03-20T13:50:07Z</time>
      </trkpt>
      <trkpt lat="48.58904" lon="2.18929">
        <ele>88.6</ele>
        <time>2026-03-20T13:50:08Z</time>
      </trkpt>
      <trkpt lat="48.58897" lon="2.18931">
        <ele>88.6</ele>
        <time>2026-03-20T13:50:09Z</time>
      </trkpt>
      <trkpt lat="48.58891" lon="2.18934">
        <ele>88.6</ele>
        <time>2026-03-20T13:50:10Z</time>
      </trkpt>
      <trkpt lat="48.58884" lon="2.18936">
        <ele>89</ele>
        <time>2026-03-20T13:50:11Z</time>
      </trkpt>
      <trkpt lat="48.58877" lon="2.18939">
        <ele>89.2</ele>
        <time>2026-03-20T13:50:12Z</time>
      </trkpt>
      <trkpt lat="48.58871" lon="2.18941">
        <ele>89.2</ele>
        <time>2026-03-20T13:50:13Z</time>
      </trkpt>
      <trkpt lat="48.58864" lon="2.18943">
        <ele>89.2</ele>
        <time>2026-03-20T13:50:14Z</time>
      </trkpt>
      <trkpt lat="48.58857" lon="2.18945">
        <ele>89.2</ele>
        <time>2026-03-20T13:50:15Z</time>
      </trkpt>
      <trkpt lat="48.58851" lon="2.18947">
        <ele>87.8</ele>
        <time>2026-03-20T13:50:16Z</time>
      </trkpt>
      <trkpt lat="48.58844" lon="2.1895">
        <ele>87.8</ele>
        <time>2026-03-20T13:50:17Z</time>
      </trkpt>
      <trkpt lat="48.58837" lon="2.18952">
        <ele>87.8</ele>
        <time>2026-03-20T13:50:18Z</time>
      </trkpt>
      <trkpt lat="48.58831" lon="2.18955">
        <ele>88</ele>
        <time>2026-03-20T13:50:19Z</time>
      </trkpt>
      <trkpt lat="48.58824" lon="2.18957">
        <ele>87.8</ele>
        <time>2026-03-20T13:50:20Z</time>
      </trkpt>
      <trkpt lat="48.58817" lon="2.18959">
        <ele>87.8</ele>
        <time>2026-03-20T13:50:21Z</time>
      </trkpt>
      <trkpt lat="48.58811" lon="2.18961">
        <ele>87.8</ele>
        <time>2026-03-20T13:50:22Z</time>
      </trkpt>
      <trkpt lat="48.58804" lon="2.18963">
        <ele>87.8</ele>
        <time>2026-03-20T13:50:23Z</time>
      </trkpt>
      <trkpt lat="48.58798" lon="2.18966">
        <ele>87.8</ele>
        <time>2026-03-20T13:50:24Z</time>
      </trkpt>
      <trkpt lat="48.58791" lon="2.18969">
        <ele>87.8</ele>
        <time>2026-03-20T13:50:25Z</time>
      </trkpt>
      <trkpt lat="48.58785" lon="2.18972">
        <ele>87.8</ele>
        <time>2026-03-20T13:50:26Z</time>
      </trkpt>
      <trkpt lat="48.58779" lon="2.18976">
        <ele>86.8</ele>
        <time>2026-03-20T13:50:27Z</time>
      </trkpt>
      <trkpt lat="48.58772" lon="2.18979">
        <ele>87</ele>
        <time>2026-03-20T13:50:28Z</time>
      </trkpt>
      <trkpt lat="48.58766" lon="2.18982">
        <ele>87</ele>
        <time>2026-03-20T13:50:29Z</time>
      </trkpt>
      <trkpt lat="48.5876" lon="2.18983">
        <ele>87</ele>
        <time>2026-03-20T13:50:30Z</time>
      </trkpt>
      <trkpt lat="48.58753" lon="2.18984">
        <ele>87</ele>
        <time>2026-03-20T13:50:31Z</time>
      </trkpt>
      <trkpt lat="48.58747" lon="2.18983">
        <ele>87.2</ele>
        <time>2026-03-20T13:50:32Z</time>
      </trkpt>
      <trkpt lat="48.58741" lon="2.18983">
        <ele>87.2</ele>
        <time>2026-03-20T13:50:33Z</time>
      </trkpt>
      <trkpt lat="48.58736" lon="2.18983">
        <ele>87.2</ele>
        <time>2026-03-20T13:50:34Z</time>
      </trkpt>
      <trkpt lat="48.58731" lon="2.1898">
        <ele>87.2</ele>
        <time>2026-03-20T13:50:35Z</time>
      </trkpt>
      <trkpt lat="48.58727" lon="2.1898">
        <ele>87.8</ele>
        <time>2026-03-20T13:50:36Z</time>
      </trkpt>
      <trkpt lat="48.58725" lon="2.18984">
        <ele>87.8</ele>
        <time>2026-03-20T13:50:37Z</time>
      </trkpt>
      <trkpt lat="48.58724" lon="2.18989">
        <ele>87.8</ele>
        <time>2026-03-20T13:50:38Z</time>
      </trkpt>
      <trkpt lat="48.58722" lon="2.18994">
        <ele>87.2</ele>
        <time>2026-03-20T13:50:39Z</time>
      </trkpt>
      <trkpt lat="48.5872" lon="2.19">
        <ele>87.2</ele>
        <time>2026-03-20T13:50:40Z</time>
      </trkpt>
      <trkpt lat="48.58717" lon="2.19005">
        <ele>87.2</ele>
        <time>2026-03-20T13:50:41Z</time>
      </trkpt>
      <trkpt lat="48.58714" lon="2.1901">
        <ele>87.2</ele>
        <time>2026-03-20T13:50:42Z</time>
      </trkpt>
      <trkpt lat="48.5871" lon="2.19015">
        <ele>87.2</ele>
        <time>2026-03-20T13:50:43Z</time>
      </trkpt>
      <trkpt lat="48.58706" lon="2.1902">
        <ele>85.8</ele>
        <time>2026-03-20T13:50:44Z</time>
      </trkpt>
      <trkpt lat="48.58702" lon="2.19025">
        <ele>85.8</ele>
        <time>2026-03-20T13:50:45Z</time>
      </trkpt>
      <trkpt lat="48.58697" lon="2.1903">
        <ele>85.8</ele>
        <time>2026-03-20T13:50:46Z</time>
      </trkpt>
      <trkpt lat="48.58693" lon="2.19036">
        <ele>84.8</ele>
        <time>2026-03-20T13:50:47Z</time>
      </trkpt>
      <trkpt lat="48.58688" lon="2.19042">
        <ele>83.2</ele>
        <time>2026-03-20T13:50:48Z</time>
      </trkpt>
      <trkpt lat="48.58683" lon="2.19048">
        <ele>83.2</ele>
        <time>2026-03-20T13:50:49Z</time>
      </trkpt>
      <trkpt lat="48.58679" lon="2.19054">
        <ele>83.2</ele>
        <time>2026-03-20T13:50:50Z</time>
      </trkpt>
      <trkpt lat="48.58674" lon="2.1906">
        <ele>82.2</ele>
        <time>2026-03-20T13:50:51Z</time>
      </trkpt>
      <trkpt lat="48.58669" lon="2.19066">
        <ele>81.4</ele>
        <time>2026-03-20T13:50:52Z</time>
      </trkpt>
      <trkpt lat="48.58663" lon="2.19073">
        <ele>81.4</ele>
        <time>2026-03-20T13:50:53Z</time>
      </trkpt>
      <trkpt lat="48.58657" lon="2.19078">
        <ele>81.4</ele>
        <time>2026-03-20T13:50:54Z</time>
      </trkpt>
      <trkpt lat="48.58651" lon="2.19082">
        <ele>80.4</ele>
        <time>2026-03-20T13:50:55Z</time>
      </trkpt>
      <trkpt lat="48.58644" lon="2.19084">
        <ele>80.2</ele>
        <time>2026-03-20T13:50:56Z</time>
      </trkpt>
      <trkpt lat="48.58637" lon="2.19085">
        <ele>80.2</ele>
        <time>2026-03-20T13:50:57Z</time>
      </trkpt>
      <trkpt lat="48.58631" lon="2.19088">
        <ele>80.2</ele>
        <time>2026-03-20T13:50:58Z</time>
      </trkpt>
      <trkpt lat="48.58627" lon="2.19094">
        <ele>80</ele>
        <time>2026-03-20T13:50:59Z</time>
      </trkpt>
      <trkpt lat="48.58624" lon="2.19104">
        <ele>78.8</ele>
        <time>2026-03-20T13:51:00Z</time>
      </trkpt>
      <trkpt lat="48.58622" lon="2.19113">
        <ele>78.8</ele>
        <time>2026-03-20T13:51:01Z</time>
      </trkpt>
      <trkpt lat="48.58618" lon="2.19123">
        <ele>78.8</ele>
        <time>2026-03-20T13:51:02Z</time>
      </trkpt>
      <trkpt lat="48.58613" lon="2.19131">
        <ele>77.8</ele>
        <time>2026-03-20T13:51:03Z</time>
      </trkpt>
      <trkpt lat="48.58608" lon="2.19139">
        <ele>75.6</ele>
        <time>2026-03-20T13:51:04Z</time>
      </trkpt>
      <trkpt lat="48.58602" lon="2.19146">
        <ele>75.6</ele>
        <time>2026-03-20T13:51:05Z</time>
      </trkpt>
      <trkpt lat="48.58595" lon="2.19154">
        <ele>75.6</ele>
        <time>2026-03-20T13:51:06Z</time>
      </trkpt>
      <trkpt lat="48.58588" lon="2.19161">
        <ele>74.6</ele>
        <time>2026-03-20T13:51:07Z</time>
      </trkpt>
      <trkpt lat="48.5858" lon="2.19169">
        <ele>73.2</ele>
        <time>2026-03-20T13:51:08Z</time>
      </trkpt>
      <trkpt lat="48.58573" lon="2.19177">
        <ele>73.2</ele>
        <time>2026-03-20T13:51:09Z</time>
      </trkpt>
      <trkpt lat="48.58564" lon="2.19184">
        <ele>73.2</ele>
        <time>2026-03-20T13:51:10Z</time>
      </trkpt>
      <trkpt lat="48.58555" lon="2.1919">
        <ele>72.2</ele>
        <time>2026-03-20T13:51:11Z</time>
      </trkpt>
      <trkpt lat="48.58546" lon="2.19195">
        <ele>69</ele>
        <time>2026-03-20T13:51:12Z</time>
      </trkpt>
      <trkpt lat="48.58536" lon="2.192">
        <ele>69</ele>
        <time>2026-03-20T13:51:13Z</time>
      </trkpt>
      <trkpt lat="48.58525" lon="2.19204">
        <ele>69</ele>
        <time>2026-03-20T13:51:14Z</time>
      </trkpt>
      <trkpt lat="48.58515" lon="2.19208">
        <ele>68</ele>
        <time>2026-03-20T13:51:15Z</time>
      </trkpt>
      <trkpt lat="48.58505" lon="2.19212">
        <ele>64</ele>
        <time>2026-03-20T13:51:16Z</time>
      </trkpt>
      <trkpt lat="48.58494" lon="2.19216">
        <ele>64</ele>
        <time>2026-03-20T13:51:17Z</time>
      </trkpt>
      <trkpt lat="48.58483" lon="2.1922">
        <ele>64</ele>
        <time>2026-03-20T13:51:18Z</time>
      </trkpt>
      <trkpt lat="48.58473" lon="2.19224">
        <ele>63.4</ele>
        <time>2026-03-20T13:51:19Z</time>
      </trkpt>
      <trkpt lat="48.58462" lon="2.19227">
        <ele>63.6</ele>
        <time>2026-03-20T13:51:20Z</time>
      </trkpt>
      <trkpt lat="48.58451" lon="2.1923">
        <ele>63.6</ele>
        <time>2026-03-20T13:51:21Z</time>
      </trkpt>
      <trkpt lat="48.58441" lon="2.19233">
        <ele>63.6</ele>
        <time>2026-03-20T13:51:22Z</time>
      </trkpt>
      <trkpt lat="48.58432" lon="2.19234">
        <ele>63.6</ele>
        <time>2026-03-20T13:51:23Z</time>
      </trkpt>
      <trkpt lat="48.58423" lon="2.19236">
        <ele>63.2</ele>
        <time>2026-03-20T13:51:24Z</time>
      </trkpt>
      <trkpt lat="48.58413" lon="2.19238">
        <ele>63.2</ele>
        <time>2026-03-20T13:51:25Z</time>
      </trkpt>
      <trkpt lat="48.58404" lon="2.1924">
        <ele>63.2</ele>
        <time>2026-03-20T13:51:26Z</time>
      </trkpt>
      <trkpt lat="48.58396" lon="2.19243">
        <ele>62.2</ele>
        <time>2026-03-20T13:51:27Z</time>
      </trkpt>
      <trkpt lat="48.5839" lon="2.1925">
        <ele>59.8</ele>
        <time>2026-03-20T13:51:28Z</time>
      </trkpt>
      <trkpt lat="48.58383" lon="2.19255">
        <ele>59.8</ele>
        <time>2026-03-20T13:51:29Z</time>
      </trkpt>
      <trkpt lat="48.58375" lon="2.19259">
        <ele>59.8</ele>
        <time>2026-03-20T13:51:30Z</time>
      </trkpt>
      <trkpt lat="48.58367" lon="2.19263">
        <ele>60.8</ele>
        <time>2026-03-20T13:51:31Z</time>
      </trkpt>
      <trkpt lat="48.5836" lon="2.19267">
        <ele>60.2</ele>
        <time>2026-03-20T13:51:32Z</time>
      </trkpt>
      <trkpt lat="48.58352" lon="2.19271">
        <ele>60.2</ele>
        <time>2026-03-20T13:51:33Z</time>
      </trkpt>
      <trkpt lat="48.58345" lon="2.19277">
        <ele>60.2</ele>
        <time>2026-03-20T13:51:34Z</time>
      </trkpt>
      <trkpt lat="48.58338" lon="2.19282">
        <ele>60.2</ele>
        <time>2026-03-20T13:51:35Z</time>
      </trkpt>
      <trkpt lat="48.58331" lon="2.19287">
        <ele>60</ele>
        <time>2026-03-20T13:51:36Z</time>
      </trkpt>
      <trkpt lat="48.58324" lon="2.19293">
        <ele>60</ele>
        <time>2026-03-20T13:51:37Z</time>
      </trkpt>
      <trkpt lat="48.58318" lon="2.19298">
        <ele>60</ele>
        <time>2026-03-20T13:51:38Z</time>
      </trkpt>
      <trkpt lat="48.58311" lon="2.19304">
        <ele>60</ele>
        <time>2026-03-20T13:51:39Z</time>
      </trkpt>
      <trkpt lat="48.58305" lon="2.1931">
        <ele>60.6</ele>
        <time>2026-03-20T13:51:40Z</time>
      </trkpt>
      <trkpt lat="48.58299" lon="2.19315">
        <ele>60.6</ele>
        <time>2026-03-20T13:51:41Z</time>
      </trkpt>
      <trkpt lat="48.58293" lon="2.1932">
        <ele>60.6</ele>
        <time>2026-03-20T13:51:42Z</time>
      </trkpt>
      <trkpt lat="48.58287" lon="2.19325">
        <ele>59.8</ele>
        <time>2026-03-20T13:51:43Z</time>
      </trkpt>
      <trkpt lat="48.58281" lon="2.1933">
        <ele>60</ele>
        <time>2026-03-20T13:51:44Z</time>
      </trkpt>
      <trkpt lat="48.58275" lon="2.19334">
        <ele>60</ele>
        <time>2026-03-20T13:51:45Z</time>
      </trkpt>
      <trkpt lat="48.58269" lon="2.19337">
        <ele>60</ele>
        <time>2026-03-20T13:51:46Z</time>
      </trkpt>
      <trkpt lat="48.58263" lon="2.19341">
        <ele>60</ele>
        <time>2026-03-20T13:51:47Z</time>
      </trkpt>
      <trkpt lat="48.58257" lon="2.19344">
        <ele>60.6</ele>
        <time>2026-03-20T13:51:48Z</time>
      </trkpt>
      <trkpt lat="48.58251" lon="2.19346">
        <ele>60.6</ele>
        <time>2026-03-20T13:51:49Z</time>
      </trkpt>
      <trkpt lat="48.58246" lon="2.19348">
        <ele>60.6</ele>
        <time>2026-03-20T13:51:50Z</time>
      </trkpt>
      <trkpt lat="48.5824" lon="2.19351">
        <ele>60.6</ele>
        <time>2026-03-20T13:51:51Z</time>
      </trkpt>
      <trkpt lat="48.58234" lon="2.19352">
        <ele>60.4</ele>
        <time>2026-03-20T13:51:52Z</time>
      </trkpt>
      <trkpt lat="48.58229" lon="2.19353">
        <ele>60.4</ele>
        <time>2026-03-20T13:51:53Z</time>
      </trkpt>
      <trkpt lat="48.58224" lon="2.19354">
        <ele>60.4</ele>
        <time>2026-03-20T13:51:54Z</time>
      </trkpt>
      <trkpt lat="48.58218" lon="2.19355">
        <ele>60.4</ele>
        <time>2026-03-20T13:51:55Z</time>
      </trkpt>
      <trkpt lat="48.58212" lon="2.19356">
        <ele>61</ele>
        <time>2026-03-20T13:51:56Z</time>
      </trkpt>
      <trkpt lat="48.58207" lon="2.19357">
        <ele>61</ele>
        <time>2026-03-20T13:51:57Z</time>
      </trkpt>
      <trkpt lat="48.58201" lon="2.19358">
        <ele>61</ele>
        <time>2026-03-20T13:51:58Z</time>
      </trkpt>
      <trkpt lat="48.58195" lon="2.19359">
        <ele>60</ele>
        <time>2026-03-20T13:51:59Z</time>
      </trkpt>
      <trkpt lat="48.5819" lon="2.1936">
        <ele>60</ele>
        <time>2026-03-20T13:52:00Z</time>
      </trkpt>
      <trkpt lat="48.58184" lon="2.19362">
        <ele>60</ele>
        <time>2026-03-20T13:52:01Z</time>
      </trkpt>
      <trkpt lat="48.58178" lon="2.19363">
        <ele>60</ele>
        <time>2026-03-20T13:52:02Z</time>
      </trkpt>
      <trkpt lat="48.58172" lon="2.19364">
        <ele>60</ele>
        <time>2026-03-20T13:52:03Z</time>
      </trkpt>
      <trkpt lat="48.58167" lon="2.19365">
        <ele>60.2</ele>
        <time>2026-03-20T13:52:04Z</time>
      </trkpt>
      <trkpt lat="48.58161" lon="2.19366">
        <ele>60.2</ele>
        <time>2026-03-20T13:52:05Z</time>
      </trkpt>
      <trkpt lat="48.58156" lon="2.19367">
        <ele>60.2</ele>
        <time>2026-03-20T13:52:06Z</time>
      </trkpt>
      <trkpt lat="48.5815" lon="2.19368">
        <ele>60.2</ele>
        <time>2026-03-20T13:52:07Z</time>
      </trkpt>
      <trkpt lat="48.58145" lon="2.19369">
        <ele>60.4</ele>
        <time>2026-03-20T13:52:08Z</time>
      </trkpt>
      <trkpt lat="48.5814" lon="2.1937">
        <ele>60.4</ele>
        <time>2026-03-20T13:52:09Z</time>
      </trkpt>
      <trkpt lat="48.58135" lon="2.19371">
        <ele>60.4</ele>
        <time>2026-03-20T13:52:10Z</time>
      </trkpt>
      <trkpt lat="48.5813" lon="2.19372">
        <ele>60</ele>
        <time>2026-03-20T13:52:11Z</time>
      </trkpt>
      <trkpt lat="48.58125" lon="2.19373">
        <ele>59.6</ele>
        <time>2026-03-20T13:52:12Z</time>
      </trkpt>
      <trkpt lat="48.58119" lon="2.19374">
        <ele>59.6</ele>
        <time>2026-03-20T13:52:13Z</time>
      </trkpt>
      <trkpt lat="48.58114" lon="2.19376">
        <ele>59.6</ele>
        <time>2026-03-20T13:52:14Z</time>
      </trkpt>
      <trkpt lat="48.58108" lon="2.19376">
        <ele>59.6</ele>
        <time>2026-03-20T13:52:15Z</time>
      </trkpt>
      <trkpt lat="48.58103" lon="2.19377">
        <ele>59.2</ele>
        <time>2026-03-20T13:52:16Z</time>
      </trkpt>
      <trkpt lat="48.58097" lon="2.19378">
        <ele>59.2</ele>
        <time>2026-03-20T13:52:17Z</time>
      </trkpt>
      <trkpt lat="48.58092" lon="2.19379">
        <ele>59.2</ele>
        <time>2026-03-20T13:52:18Z</time>
      </trkpt>
      <trkpt lat="48.58086" lon="2.19379">
        <ele>59.6</ele>
        <time>2026-03-20T13:52:19Z</time>
      </trkpt>
      <trkpt lat="48.58081" lon="2.1938">
        <ele>59.6</ele>
        <time>2026-03-20T13:52:20Z</time>
      </trkpt>
      <trkpt lat="48.58075" lon="2.1938">
        <ele>59.6</ele>
        <time>2026-03-20T13:52:21Z</time>
      </trkpt>
      <trkpt lat="48.5807" lon="2.1938">
        <ele>59.6</ele>
        <time>2026-03-20T13:52:22Z</time>
      </trkpt>
      <trkpt lat="48.58064" lon="2.1938">
        <ele>59</ele>
        <time>2026-03-20T13:52:23Z</time>
      </trkpt>
      <trkpt lat="48.58059" lon="2.1938">
        <ele>59.6</ele>
        <time>2026-03-20T13:52:24Z</time>
      </trkpt>
      <trkpt lat="48.58054" lon="2.1938">
        <ele>59.6</ele>
        <time>2026-03-20T13:52:25Z</time>
      </trkpt>
      <trkpt lat="48.58048" lon="2.1938">
        <ele>59.6</ele>
        <time>2026-03-20T13:52:26Z</time>
      </trkpt>
      <trkpt lat="48.58043" lon="2.1938">
        <ele>59.6</ele>
        <time>2026-03-20T13:52:27Z</time>
      </trkpt>
      <trkpt lat="48.58038" lon="2.19379">
        <ele>59.6</ele>
        <time>2026-03-20T13:52:28Z</time>
      </trkpt>
      <trkpt lat="48.58033" lon="2.19378">
        <ele>59.6</ele>
        <time>2026-03-20T13:52:29Z</time>
      </trkpt>
      <trkpt lat="48.58027" lon="2.19377">
        <ele>59.6</ele>
        <time>2026-03-20T13:52:30Z</time>
      </trkpt>
      <trkpt lat="48.58022" lon="2.19376">
        <ele>59.6</ele>
        <time>2026-03-20T13:52:31Z</time>
      </trkpt>
      <trkpt lat="48.58017" lon="2.19376">
        <ele>59.8</ele>
        <time>2026-03-20T13:52:32Z</time>
      </trkpt>
      <trkpt lat="48.58012" lon="2.19374">
        <ele>59.8</ele>
        <time>2026-03-20T13:52:33Z</time>
      </trkpt>
      <trkpt lat="48.58007" lon="2.19373">
        <ele>59.8</ele>
        <time>2026-03-20T13:52:34Z</time>
      </trkpt>
      <trkpt lat="48.58002" lon="2.19372">
        <ele>59.8</ele>
        <time>2026-03-20T13:52:35Z</time>
      </trkpt>
      <trkpt lat="48.57996" lon="2.19371">
        <ele>60</ele>
        <time>2026-03-20T13:52:36Z</time>
      </trkpt>
      <trkpt lat="48.57991" lon="2.19369">
        <ele>60</ele>
        <time>2026-03-20T13:52:37Z</time>
      </trkpt>
      <trkpt lat="48.57986" lon="2.19367">
        <ele>60</ele>
        <time>2026-03-20T13:52:38Z</time>
      </trkpt>
      <trkpt lat="48.57982" lon="2.19364">
        <ele>60</ele>
        <time>2026-03-20T13:52:39Z</time>
      </trkpt>
      <trkpt lat="48.57977" lon="2.19362">
        <ele>59.6</ele>
        <time>2026-03-20T13:52:40Z</time>
      </trkpt>
      <trkpt lat="48.57972" lon="2.19359">
        <ele>59.6</ele>
        <time>2026-03-20T13:52:41Z</time>
      </trkpt>
      <trkpt lat="48.57967" lon="2.19357">
        <ele>59.6</ele>
        <time>2026-03-20T13:52:42Z</time>
      </trkpt>
      <trkpt lat="48.57963" lon="2.19354">
        <ele>59.6</ele>
        <time>2026-03-20T13:52:43Z</time>
      </trkpt>
      <trkpt lat="48.57958" lon="2.19353">
        <ele>60</ele>
        <time>2026-03-20T13:52:44Z</time>
      </trkpt>
      <trkpt lat="48.57953" lon="2.19352">
        <ele>60</ele>
        <time>2026-03-20T13:52:45Z</time>
      </trkpt>
      <trkpt lat="48.57948" lon="2.1935">
        <ele>60</ele>
        <time>2026-03-20T13:52:46Z</time>
      </trkpt>
      <trkpt lat="48.57943" lon="2.19348">
        <ele>59.6</ele>
        <time>2026-03-20T13:52:47Z</time>
      </trkpt>
      <trkpt lat="48.57939" lon="2.19346">
        <ele>59.6</ele>
        <time>2026-03-20T13:52:48Z</time>
      </trkpt>
      <trkpt lat="48.57934" lon="2.19343">
        <ele>59.6</ele>
        <time>2026-03-20T13:52:49Z</time>
      </trkpt>
      <trkpt lat="48.57929" lon="2.19341">
        <ele>59.6</ele>
        <time>2026-03-20T13:52:50Z</time>
      </trkpt>
      <trkpt lat="48.57924" lon="2.1934">
        <ele>59.6</ele>
        <time>2026-03-20T13:52:51Z</time>
      </trkpt>
      <trkpt lat="48.5792" lon="2.19338">
        <ele>59.4</ele>
        <time>2026-03-20T13:52:52Z</time>
      </trkpt>
      <trkpt lat="48.57915" lon="2.19337">
        <ele>59.4</ele>
        <time>2026-03-20T13:52:53Z</time>
      </trkpt>
      <trkpt lat="48.5791" lon="2.19336">
        <ele>59.4</ele>
        <time>2026-03-20T13:52:54Z</time>
      </trkpt>
      <trkpt lat="48.57905" lon="2.19335">
        <ele>59.4</ele>
        <time>2026-03-20T13:52:55Z</time>
      </trkpt>
      <trkpt lat="48.579" lon="2.19335">
        <ele>60.6</ele>
        <time>2026-03-20T13:52:56Z</time>
      </trkpt>
      <trkpt lat="48.57896" lon="2.19336">
        <ele>60.6</ele>
        <time>2026-03-20T13:52:57Z</time>
      </trkpt>
      <trkpt lat="48.57891" lon="2.19336">
        <ele>60.6</ele>
        <time>2026-03-20T13:52:58Z</time>
      </trkpt>
      <trkpt lat="48.57887" lon="2.19338">
        <ele>61.2</ele>
        <time>2026-03-20T13:52:59Z</time>
      </trkpt>
      <trkpt lat="48.57882" lon="2.1934">
        <ele>60.8</ele>
        <time>2026-03-20T13:53:00Z</time>
      </trkpt>
      <trkpt lat="48.57878" lon="2.19342">
        <ele>60.8</ele>
        <time>2026-03-20T13:53:01Z</time>
      </trkpt>
      <trkpt lat="48.57874" lon="2.19345">
        <ele>60.8</ele>
        <time>2026-03-20T13:53:02Z</time>
      </trkpt>
      <trkpt lat="48.5787" lon="2.19349">
        <ele>61.6</ele>
        <time>2026-03-20T13:53:03Z</time>
      </trkpt>
      <trkpt lat="48.57866" lon="2.19353">
        <ele>61.2</ele>
        <time>2026-03-20T13:53:04Z</time>
      </trkpt>
      <trkpt lat="48.57863" lon="2.19357">
        <ele>61.2</ele>
        <time>2026-03-20T13:53:05Z</time>
      </trkpt>
      <trkpt lat="48.5786" lon="2.19361">
        <ele>61.2</ele>
        <time>2026-03-20T13:53:06Z</time>
      </trkpt>
      <trkpt lat="48.57857" lon="2.19364">
        <ele>62</ele>
        <time>2026-03-20T13:53:07Z</time>
      </trkpt>
      <trkpt lat="48.57854" lon="2.19367">
        <ele>62.6</ele>
        <time>2026-03-20T13:53:08Z</time>
      </trkpt>
      <trkpt lat="48.57852" lon="2.1937">
        <ele>62.6</ele>
        <time>2026-03-20T13:53:09Z</time>
      </trkpt>
      <trkpt lat="48.5785" lon="2.19372">
        <ele>62.6</ele>
        <time>2026-03-20T13:53:10Z</time>
      </trkpt>
      <trkpt lat="48.57849" lon="2.19373">
        <ele>63.4</ele>
        <time>2026-03-20T13:53:11Z</time>
      </trkpt>
      <trkpt lat="48.57848" lon="2.19373">
        <ele>63.2</ele>
        <time>2026-03-20T13:53:12Z</time>
      </trkpt>
      <trkpt lat="48.57843" lon="2.19382">
        <ele>63.4</ele>
        <time>2026-03-20T13:54:36Z</time>
      </trkpt>
      <trkpt lat="48.57841" lon="2.19384">
        <ele>63.4</ele>
        <time>2026-03-20T13:54:37Z</time>
      </trkpt>
      <trkpt lat="48.57839" lon="2.19387">
        <ele>63.4</ele>
        <time>2026-03-20T13:54:38Z</time>
      </trkpt>
      <trkpt lat="48.57836" lon="2.1939">
        <ele>63.4</ele>
        <time>2026-03-20T13:54:39Z</time>
      </trkpt>
      <trkpt lat="48.57833" lon="2.19393">
        <ele>62.6</ele>
        <time>2026-03-20T13:54:40Z</time>
      </trkpt>
      <trkpt lat="48.5783" lon="2.19397">
        <ele>62.6</ele>
        <time>2026-03-20T13:54:41Z</time>
      </trkpt>
      <trkpt lat="48.57826" lon="2.19401">
        <ele>62.6</ele>
        <time>2026-03-20T13:54:42Z</time>
      </trkpt>
      <trkpt lat="48.57823" lon="2.19406">
        <ele>61.6</ele>
        <time>2026-03-20T13:54:43Z</time>
      </trkpt>
      <trkpt lat="48.57819" lon="2.19411">
        <ele>61.6</ele>
        <time>2026-03-20T13:54:44Z</time>
      </trkpt>
      <trkpt lat="48.57815" lon="2.19416">
        <ele>61.6</ele>
        <time>2026-03-20T13:54:45Z</time>
      </trkpt>
      <trkpt lat="48.57811" lon="2.19421">
        <ele>61.6</ele>
        <time>2026-03-20T13:54:46Z</time>
      </trkpt>
      <trkpt lat="48.57806" lon="2.19427">
        <ele>61.4</ele>
        <time>2026-03-20T13:54:47Z</time>
      </trkpt>
      <trkpt lat="48.57802" lon="2.19432">
        <ele>60.8</ele>
        <time>2026-03-20T13:54:48Z</time>
      </trkpt>
      <trkpt lat="48.57798" lon="2.19437">
        <ele>60.8</ele>
        <time>2026-03-20T13:54:49Z</time>
      </trkpt>
      <trkpt lat="48.57794" lon="2.19442">
        <ele>60.8</ele>
        <time>2026-03-20T13:54:50Z</time>
      </trkpt>
      <trkpt lat="48.5779" lon="2.19447">
        <ele>59.8</ele>
        <time>2026-03-20T13:54:51Z</time>
      </trkpt>
      <trkpt lat="48.57786" lon="2.19453">
        <ele>60</ele>
        <time>2026-03-20T13:54:52Z</time>
      </trkpt>
      <trkpt lat="48.57782" lon="2.19458">
        <ele>60</ele>
        <time>2026-03-20T13:54:53Z</time>
      </trkpt>
      <trkpt lat="48.57778" lon="2.19462">
        <ele>60</ele>
        <time>2026-03-20T13:54:54Z</time>
      </trkpt>
      <trkpt lat="48.57774" lon="2.19467">
        <ele>59.6</ele>
        <time>2026-03-20T13:54:55Z</time>
      </trkpt>
      <trkpt lat="48.57771" lon="2.19471">
        <ele>59</ele>
        <time>2026-03-20T13:54:56Z</time>
      </trkpt>
      <trkpt lat="48.57767" lon="2.19476">
        <ele>59</ele>
        <time>2026-03-20T13:54:57Z</time>
      </trkpt>
      <trkpt lat="48.57763" lon="2.19482">
        <ele>59</ele>
        <time>2026-03-20T13:54:58Z</time>
      </trkpt>
      <trkpt lat="48.57759" lon="2.19487">
        <ele>59</ele>
        <time>2026-03-20T13:54:59Z</time>
      </trkpt>
      <trkpt lat="48.57755" lon="2.19493">
        <ele>58.4</ele>
        <time>2026-03-20T13:55:00Z</time>
      </trkpt>
      <trkpt lat="48.5775" lon="2.19498">
        <ele>58.4</ele>
        <time>2026-03-20T13:55:01Z</time>
      </trkpt>
      <trkpt lat="48.57746" lon="2.19503">
        <ele>58.4</ele>
        <time>2026-03-20T13:55:02Z</time>
      </trkpt>
      <trkpt lat="48.57742" lon="2.19509">
        <ele>59</ele>
        <time>2026-03-20T13:55:03Z</time>
      </trkpt>
      <trkpt lat="48.57737" lon="2.19514">
        <ele>59</ele>
        <time>2026-03-20T13:55:04Z</time>
      </trkpt>
      <trkpt lat="48.57733" lon="2.1952">
        <ele>59</ele>
        <time>2026-03-20T13:55:05Z</time>
      </trkpt>
      <trkpt lat="48.57729" lon="2.19526">
        <ele>59</ele>
        <time>2026-03-20T13:55:06Z</time>
      </trkpt>
      <trkpt lat="48.57724" lon="2.19531">
        <ele>59</ele>
        <time>2026-03-20T13:55:07Z</time>
      </trkpt>
      <trkpt lat="48.5772" lon="2.19536">
        <ele>59</ele>
        <time>2026-03-20T13:55:08Z</time>
      </trkpt>
      <trkpt lat="48.57716" lon="2.19541">
        <ele>59</ele>
        <time>2026-03-20T13:55:09Z</time>
      </trkpt>
      <trkpt lat="48.57711" lon="2.19546">
        <ele>59</ele>
        <time>2026-03-20T13:55:10Z</time>
      </trkpt>
      <trkpt lat="48.57707" lon="2.19552">
        <ele>59</ele>
        <time>2026-03-20T13:55:11Z</time>
      </trkpt>
      <trkpt lat="48.57702" lon="2.19557">
        <ele>59</ele>
        <time>2026-03-20T13:55:12Z</time>
      </trkpt>
      <trkpt lat="48.57698" lon="2.19563">
        <ele>59</ele>
        <time>2026-03-20T13:55:13Z</time>
      </trkpt>
      <trkpt lat="48.57693" lon="2.1957">
        <ele>59</ele>
        <time>2026-03-20T13:55:14Z</time>
      </trkpt>
      <trkpt lat="48.57689" lon="2.19576">
        <ele>59</ele>
        <time>2026-03-20T13:55:15Z</time>
      </trkpt>
      <trkpt lat="48.57684" lon="2.19582">
        <ele>59.4</ele>
        <time>2026-03-20T13:55:16Z</time>
      </trkpt>
      <trkpt lat="48.57679" lon="2.19588">
        <ele>59.4</ele>
        <time>2026-03-20T13:55:17Z</time>
      </trkpt>
      <trkpt lat="48.57674" lon="2.19594">
        <ele>59.4</ele>
        <time>2026-03-20T13:55:18Z</time>
      </trkpt>
      <trkpt lat="48.57669" lon="2.196">
        <ele>58.4</ele>
        <time>2026-03-20T13:55:19Z</time>
      </trkpt>
      <trkpt lat="48.57665" lon="2.19605">
        <ele>57</ele>
        <time>2026-03-20T13:55:20Z</time>
      </trkpt>
      <trkpt lat="48.5766" lon="2.19611">
        <ele>57</ele>
        <time>2026-03-20T13:55:21Z</time>
      </trkpt>
      <trkpt lat="48.57655" lon="2.19617">
        <ele>57</ele>
        <time>2026-03-20T13:55:22Z</time>
      </trkpt>
      <trkpt lat="48.57651" lon="2.19623">
        <ele>58</ele>
        <time>2026-03-20T13:55:23Z</time>
      </trkpt>
      <trkpt lat="48.57646" lon="2.19629">
        <ele>59</ele>
        <time>2026-03-20T13:55:24Z</time>
      </trkpt>
      <trkpt lat="48.57642" lon="2.19634">
        <ele>59</ele>
        <time>2026-03-20T13:55:25Z</time>
      </trkpt>
      <trkpt lat="48.57637" lon="2.1964">
        <ele>59</ele>
        <time>2026-03-20T13:55:26Z</time>
      </trkpt>
      <trkpt lat="48.57633" lon="2.19646">
        <ele>59</ele>
        <time>2026-03-20T13:55:27Z</time>
      </trkpt>
      <trkpt lat="48.57629" lon="2.19651">
        <ele>59</ele>
        <time>2026-03-20T13:55:28Z</time>
      </trkpt>
      <trkpt lat="48.57624" lon="2.19657">
        <ele>59</ele>
        <time>2026-03-20T13:55:29Z</time>
      </trkpt>
      <trkpt lat="48.5762" lon="2.19662">
        <ele>59</ele>
        <time>2026-03-20T13:55:30Z</time>
      </trkpt>
      <trkpt lat="48.57616" lon="2.19667">
        <ele>59.8</ele>
        <time>2026-03-20T13:55:31Z</time>
      </trkpt>
      <trkpt lat="48.57612" lon="2.19672">
        <ele>59</ele>
        <time>2026-03-20T13:55:32Z</time>
      </trkpt>
      <trkpt lat="48.57608" lon="2.19677">
        <ele>59</ele>
        <time>2026-03-20T13:55:33Z</time>
      </trkpt>
      <trkpt lat="48.57604" lon="2.19683">
        <ele>59</ele>
        <time>2026-03-20T13:55:34Z</time>
      </trkpt>
      <trkpt lat="48.576" lon="2.19688">
        <ele>60</ele>
        <time>2026-03-20T13:55:35Z</time>
      </trkpt>
      <trkpt lat="48.57596" lon="2.19692">
        <ele>61</ele>
        <time>2026-03-20T13:55:36Z</time>
      </trkpt>
      <trkpt lat="48.57593" lon="2.19697">
        <ele>61</ele>
        <time>2026-03-20T13:55:37Z</time>
      </trkpt>
      <trkpt lat="48.57589" lon="2.19701">
        <ele>61</ele>
        <time>2026-03-20T13:55:38Z</time>
      </trkpt>
      <trkpt lat="48.57586" lon="2.19705">
        <ele>61.6</ele>
        <time>2026-03-20T13:55:39Z</time>
      </trkpt>
      <trkpt lat="48.57582" lon="2.19709">
        <ele>61.8</ele>
        <time>2026-03-20T13:55:40Z</time>
      </trkpt>
      <trkpt lat="48.57579" lon="2.19714">
        <ele>61.8</ele>
        <time>2026-03-20T13:55:41Z</time>
      </trkpt>
      <trkpt lat="48.57575" lon="2.19718">
        <ele>61.8</ele>
        <time>2026-03-20T13:55:42Z</time>
      </trkpt>
      <trkpt lat="48.57572" lon="2.19722">
        <ele>61.8</ele>
        <time>2026-03-20T13:55:43Z</time>
      </trkpt>
      <trkpt lat="48.57569" lon="2.19727">
        <ele>62.4</ele>
        <time>2026-03-20T13:55:44Z</time>
      </trkpt>
      <trkpt lat="48.57565" lon="2.19731">
        <ele>62.4</ele>
        <time>2026-03-20T13:55:45Z</time>
      </trkpt>
      <trkpt lat="48.57562" lon="2.19736">
        <ele>62.4</ele>
        <time>2026-03-20T13:55:46Z</time>
      </trkpt>
      <trkpt lat="48.57559" lon="2.1974">
        <ele>62.4</ele>
        <time>2026-03-20T13:55:47Z</time>
      </trkpt>
      <trkpt lat="48.57555" lon="2.19744">
        <ele>63.2</ele>
        <time>2026-03-20T13:55:48Z</time>
      </trkpt>
      <trkpt lat="48.57552" lon="2.19748">
        <ele>63.2</ele>
        <time>2026-03-20T13:55:49Z</time>
      </trkpt>
      <trkpt lat="48.57549" lon="2.19752">
        <ele>63.2</ele>
        <time>2026-03-20T13:55:50Z</time>
      </trkpt>
      <trkpt lat="48.57546" lon="2.19756">
        <ele>64</ele>
        <time>2026-03-20T13:55:51Z</time>
      </trkpt>
      <trkpt lat="48.57542" lon="2.19761">
        <ele>63.6</ele>
        <time>2026-03-20T13:55:52Z</time>
      </trkpt>
      <trkpt lat="48.57539" lon="2.19765">
        <ele>63.6</ele>
        <time>2026-03-20T13:55:53Z</time>
      </trkpt>
      <trkpt lat="48.57536" lon="2.19769">
        <ele>63.6</ele>
        <time>2026-03-20T13:55:54Z</time>
      </trkpt>
      <trkpt lat="48.57533" lon="2.19773">
        <ele>63.2</ele>
        <time>2026-03-20T13:55:55Z</time>
      </trkpt>
      <trkpt lat="48.5753" lon="2.19776">
        <ele>63.6</ele>
        <time>2026-03-20T13:55:56Z</time>
      </trkpt>
      <trkpt lat="48.57527" lon="2.1978">
        <ele>63.6</ele>
        <time>2026-03-20T13:55:57Z</time>
      </trkpt>
      <trkpt lat="48.57523" lon="2.19784">
        <ele>63.6</ele>
        <time>2026-03-20T13:55:58Z</time>
      </trkpt>
      <trkpt lat="48.5752" lon="2.19788">
        <ele>64.2</ele>
        <time>2026-03-20T13:55:59Z</time>
      </trkpt>
      <trkpt lat="48.57517" lon="2.19792">
        <ele>64</ele>
        <time>2026-03-20T13:56:00Z</time>
      </trkpt>
      <trkpt lat="48.57514" lon="2.19796">
        <ele>64</ele>
        <time>2026-03-20T13:56:01Z</time>
      </trkpt>
      <trkpt lat="48.57511" lon="2.198">
        <ele>64</ele>
        <time>2026-03-20T13:56:02Z</time>
      </trkpt>
      <trkpt lat="48.57507" lon="2.19805">
        <ele>65</ele>
        <time>2026-03-20T13:56:03Z</time>
      </trkpt>
      <trkpt lat="48.57504" lon="2.19809">
        <ele>64</ele>
        <time>2026-03-20T13:56:04Z</time>
      </trkpt>
      <trkpt lat="48.57501" lon="2.19813">
        <ele>64</ele>
        <time>2026-03-20T13:56:05Z</time>
      </trkpt>
      <trkpt lat="48.57498" lon="2.19817">
        <ele>64</ele>
        <time>2026-03-20T13:56:06Z</time>
      </trkpt>
      <trkpt lat="48.57494" lon="2.19821">
        <ele>64</ele>
        <time>2026-03-20T13:56:07Z</time>
      </trkpt>
      <trkpt lat="48.57491" lon="2.19825">
        <ele>65.4</ele>
        <time>2026-03-20T13:56:08Z</time>
      </trkpt>
      <trkpt lat="48.57488" lon="2.19828">
        <ele>65.4</ele>
        <time>2026-03-20T13:56:09Z</time>
      </trkpt>
      <trkpt lat="48.57484" lon="2.19832">
        <ele>65.4</ele>
        <time>2026-03-20T13:56:10Z</time>
      </trkpt>
      <trkpt lat="48.5748" lon="2.19835">
        <ele>65.4</ele>
        <time>2026-03-20T13:56:11Z</time>
      </trkpt>
      <trkpt lat="48.57476" lon="2.19838">
        <ele>65.4</ele>
        <time>2026-03-20T13:56:12Z</time>
      </trkpt>
      <trkpt lat="48.57472" lon="2.1984">
        <ele>65.4</ele>
        <time>2026-03-20T13:56:13Z</time>
      </trkpt>
      <trkpt lat="48.57469" lon="2.19841">
        <ele>65.4</ele>
        <time>2026-03-20T13:56:14Z</time>
      </trkpt>
      <trkpt lat="48.57464" lon="2.19843">
        <ele>66.4</ele>
        <time>2026-03-20T13:56:15Z</time>
      </trkpt>
      <trkpt lat="48.5746" lon="2.19844">
        <ele>67.8</ele>
        <time>2026-03-20T13:56:16Z</time>
      </trkpt>
      <trkpt lat="48.57456" lon="2.19844">
        <ele>67.8</ele>
        <time>2026-03-20T13:56:17Z</time>
      </trkpt>
      <trkpt lat="48.57452" lon="2.19845">
        <ele>67.8</ele>
        <time>2026-03-20T13:56:18Z</time>
      </trkpt>
      <trkpt lat="48.57447" lon="2.19845">
        <ele>67.8</ele>
        <time>2026-03-20T13:56:19Z</time>
      </trkpt>
      <trkpt lat="48.57443" lon="2.19844">
        <ele>68.8</ele>
        <time>2026-03-20T13:56:20Z</time>
      </trkpt>
      <trkpt lat="48.57439" lon="2.1984">
        <ele>68.8</ele>
        <time>2026-03-20T13:56:21Z</time>
      </trkpt>
      <trkpt lat="48.57436" lon="2.19837">
        <ele>68.8</ele>
        <time>2026-03-20T13:56:22Z</time>
      </trkpt>
      <trkpt lat="48.57433" lon="2.19833">
        <ele>68.8</ele>
        <time>2026-03-20T13:56:23Z</time>
      </trkpt>
      <trkpt lat="48.57431" lon="2.19828">
        <ele>69.2</ele>
        <time>2026-03-20T13:56:24Z</time>
      </trkpt>
      <trkpt lat="48.57429" lon="2.19823">
        <ele>69.2</ele>
        <time>2026-03-20T13:56:25Z</time>
      </trkpt>
      <trkpt lat="48.57428" lon="2.19817">
        <ele>69.2</ele>
        <time>2026-03-20T13:56:26Z</time>
      </trkpt>
      <trkpt lat="48.57426" lon="2.19812">
        <ele>69.4</ele>
        <time>2026-03-20T13:56:27Z</time>
      </trkpt>
      <trkpt lat="48.57425" lon="2.19807">
        <ele>69</ele>
        <time>2026-03-20T13:56:28Z</time>
      </trkpt>
      <trkpt lat="48.57424" lon="2.19801">
        <ele>69</ele>
        <time>2026-03-20T13:56:29Z</time>
      </trkpt>
      <trkpt lat="48.57422" lon="2.19795">
        <ele>69</ele>
        <time>2026-03-20T13:56:30Z</time>
      </trkpt>
      <trkpt lat="48.5742" lon="2.19789">
        <ele>69.6</ele>
        <time>2026-03-20T13:56:31Z</time>
      </trkpt>
      <trkpt lat="48.57419" lon="2.19783">
        <ele>69.6</ele>
        <time>2026-03-20T13:56:32Z</time>
      </trkpt>
      <trkpt lat="48.57417" lon="2.19777">
        <ele>69.6</ele>
        <time>2026-03-20T13:56:33Z</time>
      </trkpt>
      <trkpt lat="48.57415" lon="2.1977">
        <ele>69.6</ele>
        <time>2026-03-20T13:56:34Z</time>
      </trkpt>
      <trkpt lat="48.57413" lon="2.19764">
        <ele>69.6</ele>
        <time>2026-03-20T13:56:35Z</time>
      </trkpt>
      <trkpt lat="48.57411" lon="2.19757">
        <ele>68.8</ele>
        <time>2026-03-20T13:56:36Z</time>
      </trkpt>
      <trkpt lat="48.5741" lon="2.19751">
        <ele>68.8</ele>
        <time>2026-03-20T13:56:37Z</time>
      </trkpt>
      <trkpt lat="48.57408" lon="2.19744">
        <ele>68.8</ele>
        <time>2026-03-20T13:56:38Z</time>
      </trkpt>
      <trkpt lat="48.57406" lon="2.19737">
        <ele>69.8</ele>
        <time>2026-03-20T13:56:39Z</time>
      </trkpt>
      <trkpt lat="48.57404" lon="2.1973">
        <ele>69.4</ele>
        <time>2026-03-20T13:56:40Z</time>
      </trkpt>
      <trkpt lat="48.57402" lon="2.19722">
        <ele>69.4</ele>
        <time>2026-03-20T13:56:41Z</time>
      </trkpt>
      <trkpt lat="48.574" lon="2.19715">
        <ele>69.4</ele>
        <time>2026-03-20T13:56:42Z</time>
      </trkpt>
      <trkpt lat="48.57398" lon="2.19708">
        <ele>69.4</ele>
        <time>2026-03-20T13:56:43Z</time>
      </trkpt>
      <trkpt lat="48.57396" lon="2.19701">
        <ele>69.8</ele>
        <time>2026-03-20T13:56:44Z</time>
      </trkpt>
      <trkpt lat="48.57394" lon="2.19693">
        <ele>69.8</ele>
        <time>2026-03-20T13:56:45Z</time>
      </trkpt>
      <trkpt lat="48.57391" lon="2.19686">
        <ele>69.8</ele>
        <time>2026-03-20T13:56:46Z</time>
      </trkpt>
      <trkpt lat="48.57389" lon="2.19678">
        <ele>69</ele>
        <time>2026-03-20T13:56:47Z</time>
      </trkpt>
      <trkpt lat="48.57387" lon="2.19671">
        <ele>69</ele>
        <time>2026-03-20T13:56:48Z</time>
      </trkpt>
      <trkpt lat="48.57384" lon="2.19664">
        <ele>69</ele>
        <time>2026-03-20T13:56:49Z</time>
      </trkpt>
      <trkpt lat="48.57382" lon="2.19656">
        <ele>69</ele>
        <time>2026-03-20T13:56:50Z</time>
      </trkpt>
      <trkpt lat="48.57379" lon="2.19649">
        <ele>70</ele>
        <time>2026-03-20T13:56:51Z</time>
      </trkpt>
      <trkpt lat="48.57377" lon="2.19642">
        <ele>70</ele>
        <time>2026-03-20T13:56:52Z</time>
      </trkpt>
      <trkpt lat="48.57374" lon="2.19634">
        <ele>70</ele>
        <time>2026-03-20T13:56:53Z</time>
      </trkpt>
      <trkpt lat="48.57371" lon="2.19627">
        <ele>70</ele>
        <time>2026-03-20T13:56:54Z</time>
      </trkpt>
      <trkpt lat="48.57369" lon="2.1962">
        <ele>70</ele>
        <time>2026-03-20T13:56:55Z</time>
      </trkpt>
      <trkpt lat="48.57366" lon="2.19612">
        <ele>69.8</ele>
        <time>2026-03-20T13:56:56Z</time>
      </trkpt>
      <trkpt lat="48.57363" lon="2.19605">
        <ele>69.8</ele>
        <time>2026-03-20T13:56:57Z</time>
      </trkpt>
      <trkpt lat="48.5736" lon="2.19597">
        <ele>69.8</ele>
        <time>2026-03-20T13:56:58Z</time>
      </trkpt>
      <trkpt lat="48.57357" lon="2.1959">
        <ele>69.8</ele>
        <time>2026-03-20T13:56:59Z</time>
      </trkpt>
      <trkpt lat="48.57354" lon="2.19583">
        <ele>69.2</ele>
        <time>2026-03-20T13:57:00Z</time>
      </trkpt>
      <trkpt lat="48.57351" lon="2.19575">
        <ele>69.2</ele>
        <time>2026-03-20T13:57:01Z</time>
      </trkpt>
      <trkpt lat="48.57348" lon="2.19568">
        <ele>69.2</ele>
        <time>2026-03-20T13:57:02Z</time>
      </trkpt>
      <trkpt lat="48.57346" lon="2.1956">
        <ele>69.2</ele>
        <time>2026-03-20T13:57:03Z</time>
      </trkpt>
      <trkpt lat="48.57343" lon="2.19553">
        <ele>69.2</ele>
        <time>2026-03-20T13:57:04Z</time>
      </trkpt>
      <trkpt lat="48.5734" lon="2.19545">
        <ele>69.2</ele>
        <time>2026-03-20T13:57:05Z</time>
      </trkpt>
      <trkpt lat="48.57337" lon="2.19538">
        <ele>69.2</ele>
        <time>2026-03-20T13:57:06Z</time>
      </trkpt>
      <trkpt lat="48.57334" lon="2.1953">
        <ele>70</ele>
        <time>2026-03-20T13:57:07Z</time>
      </trkpt>
      <trkpt lat="48.57332" lon="2.19522">
        <ele>69.8</ele>
        <time>2026-03-20T13:57:08Z</time>
      </trkpt>
      <trkpt lat="48.57329" lon="2.19515">
        <ele>69.8</ele>
        <time>2026-03-20T13:57:09Z</time>
      </trkpt>
      <trkpt lat="48.57326" lon="2.19507">
        <ele>69.8</ele>
        <time>2026-03-20T13:57:10Z</time>
      </trkpt>
      <trkpt lat="48.57323" lon="2.19499">
        <ele>70</ele>
        <time>2026-03-20T13:57:11Z</time>
      </trkpt>
      <trkpt lat="48.5732" lon="2.19492">
        <ele>69.8</ele>
        <time>2026-03-20T13:57:12Z</time>
      </trkpt>
      <trkpt lat="48.57317" lon="2.19484">
        <ele>69.8</ele>
        <time>2026-03-20T13:57:13Z</time>
      </trkpt>
      <trkpt lat="48.57314" lon="2.19476">
        <ele>69.8</ele>
        <time>2026-03-20T13:57:14Z</time>
      </trkpt>
      <trkpt lat="48.57311" lon="2.19468">
        <ele>69.8</ele>
        <time>2026-03-20T13:57:15Z</time>
      </trkpt>
      <trkpt lat="48.57308" lon="2.1946">
        <ele>69.8</ele>
        <time>2026-03-20T13:57:16Z</time>
      </trkpt>
      <trkpt lat="48.57305" lon="2.19452">
        <ele>69.8</ele>
        <time>2026-03-20T13:57:17Z</time>
      </trkpt>
      <trkpt lat="48.57301" lon="2.19444">
        <ele>69.8</ele>
        <time>2026-03-20T13:57:18Z</time>
      </trkpt>
      <trkpt lat="48.57298" lon="2.19436">
        <ele>70.8</ele>
        <time>2026-03-20T13:57:19Z</time>
      </trkpt>
      <trkpt lat="48.57295" lon="2.19428">
        <ele>70.8</ele>
        <time>2026-03-20T13:57:20Z</time>
      </trkpt>
      <trkpt lat="48.57292" lon="2.1942">
        <ele>70.8</ele>
        <time>2026-03-20T13:57:21Z</time>
      </trkpt>
      <trkpt lat="48.57289" lon="2.19411">
        <ele>70.8</ele>
        <time>2026-03-20T13:57:22Z</time>
      </trkpt>
      <trkpt lat="48.57286" lon="2.19403">
        <ele>71</ele>
        <time>2026-03-20T13:57:23Z</time>
      </trkpt>
      <trkpt lat="48.57283" lon="2.19395">
        <ele>71</ele>
        <time>2026-03-20T13:57:24Z</time>
      </trkpt>
      <trkpt lat="48.57279" lon="2.19387">
        <ele>71</ele>
        <time>2026-03-20T13:57:25Z</time>
      </trkpt>
      <trkpt lat="48.57276" lon="2.19379">
        <ele>71</ele>
        <time>2026-03-20T13:57:26Z</time>
      </trkpt>
      <trkpt lat="48.57272" lon="2.19372">
        <ele>71</ele>
        <time>2026-03-20T13:57:27Z</time>
      </trkpt>
      <trkpt lat="48.57268" lon="2.19364">
        <ele>71</ele>
        <time>2026-03-20T13:57:28Z</time>
      </trkpt>
      <trkpt lat="48.57264" lon="2.19356">
        <ele>71</ele>
        <time>2026-03-20T13:57:29Z</time>
      </trkpt>
      <trkpt lat="48.5726" lon="2.19349">
        <ele>71</ele>
        <time>2026-03-20T13:57:30Z</time>
      </trkpt>
      <trkpt lat="48.57256" lon="2.19342">
        <ele>71</ele>
        <time>2026-03-20T13:57:31Z</time>
      </trkpt>
      <trkpt lat="48.57252" lon="2.19335">
        <ele>70</ele>
        <time>2026-03-20T13:57:32Z</time>
      </trkpt>
      <trkpt lat="48.57248" lon="2.19327">
        <ele>70</ele>
        <time>2026-03-20T13:57:33Z</time>
      </trkpt>
      <trkpt lat="48.57244" lon="2.19321">
        <ele>70</ele>
        <time>2026-03-20T13:57:34Z</time>
      </trkpt>
      <trkpt lat="48.5724" lon="2.19314">
        <ele>71</ele>
        <time>2026-03-20T13:57:35Z</time>
      </trkpt>
      <trkpt lat="48.57235" lon="2.19307">
        <ele>70.6</ele>
        <time>2026-03-20T13:57:36Z</time>
      </trkpt>
      <trkpt lat="48.57231" lon="2.19301">
        <ele>70.6</ele>
        <time>2026-03-20T13:57:37Z</time>
      </trkpt>
      <trkpt lat="48.57226" lon="2.19295">
        <ele>70.6</ele>
        <time>2026-03-20T13:57:38Z</time>
      </trkpt>
      <trkpt lat="48.5722" lon="2.19289">
        <ele>70.6</ele>
        <time>2026-03-20T13:57:39Z</time>
      </trkpt>
      <trkpt lat="48.57215" lon="2.19283">
        <ele>70.8</ele>
        <time>2026-03-20T13:57:40Z</time>
      </trkpt>
      <trkpt lat="48.5721" lon="2.19277">
        <ele>70.8</ele>
        <time>2026-03-20T13:57:41Z</time>
      </trkpt>
      <trkpt lat="48.57204" lon="2.19271">
        <ele>70.8</ele>
        <time>2026-03-20T13:57:42Z</time>
      </trkpt>
      <trkpt lat="48.57199" lon="2.19265">
        <ele>70.6</ele>
        <time>2026-03-20T13:57:43Z</time>
      </trkpt>
      <trkpt lat="48.57193" lon="2.19259">
        <ele>70.8</ele>
        <time>2026-03-20T13:57:44Z</time>
      </trkpt>
      <trkpt lat="48.57187" lon="2.19253">
        <ele>70.8</ele>
        <time>2026-03-20T13:57:45Z</time>
      </trkpt>
      <trkpt lat="48.57182" lon="2.19246">
        <ele>70.8</ele>
        <time>2026-03-20T13:57:46Z</time>
      </trkpt>
      <trkpt lat="48.57176" lon="2.1924">
        <ele>69.8</ele>
        <time>2026-03-20T13:57:47Z</time>
      </trkpt>
      <trkpt lat="48.5717" lon="2.19233">
        <ele>70.4</ele>
        <time>2026-03-20T13:57:48Z</time>
      </trkpt>
      <trkpt lat="48.57164" lon="2.19226">
        <ele>70.4</ele>
        <time>2026-03-20T13:57:49Z</time>
      </trkpt>
      <trkpt lat="48.57158" lon="2.1922">
        <ele>70.4</ele>
        <time>2026-03-20T13:57:50Z</time>
      </trkpt>
      <trkpt lat="48.57152" lon="2.19213">
        <ele>70.4</ele>
        <time>2026-03-20T13:57:51Z</time>
      </trkpt>
      <trkpt lat="48.57146" lon="2.19207">
        <ele>68.4</ele>
        <time>2026-03-20T13:57:52Z</time>
      </trkpt>
      <trkpt lat="48.5714" lon="2.19201">
        <ele>68.4</ele>
        <time>2026-03-20T13:57:53Z</time>
      </trkpt>
      <trkpt lat="48.57134" lon="2.19195">
        <ele>68.4</ele>
        <time>2026-03-20T13:57:54Z</time>
      </trkpt>
      <trkpt lat="48.57128" lon="2.19189">
        <ele>69.4</ele>
        <time>2026-03-20T13:57:55Z</time>
      </trkpt>
      <trkpt lat="48.57122" lon="2.19183">
        <ele>69.8</ele>
        <time>2026-03-20T13:57:56Z</time>
      </trkpt>
      <trkpt lat="48.57116" lon="2.19177">
        <ele>69.8</ele>
        <time>2026-03-20T13:57:57Z</time>
      </trkpt>
      <trkpt lat="48.57111" lon="2.1917">
        <ele>69.8</ele>
        <time>2026-03-20T13:57:58Z</time>
      </trkpt>
      <trkpt lat="48.57104" lon="2.19164">
        <ele>69.8</ele>
        <time>2026-03-20T13:57:59Z</time>
      </trkpt>
      <trkpt lat="48.57098" lon="2.19158">
        <ele>69.8</ele>
        <time>2026-03-20T13:58:00Z</time>
      </trkpt>
      <trkpt lat="48.57092" lon="2.19152">
        <ele>69.8</ele>
        <time>2026-03-20T13:58:01Z</time>
      </trkpt>
      <trkpt lat="48.57086" lon="2.19145">
        <ele>69.8</ele>
        <time>2026-03-20T13:58:02Z</time>
      </trkpt>
      <trkpt lat="48.5708" lon="2.19139">
        <ele>69.4</ele>
        <time>2026-03-20T13:58:03Z</time>
      </trkpt>
      <trkpt lat="48.57073" lon="2.19134">
        <ele>68.8</ele>
        <time>2026-03-20T13:58:04Z</time>
      </trkpt>
      <trkpt lat="48.57067" lon="2.19128">
        <ele>68.8</ele>
        <time>2026-03-20T13:58:05Z</time>
      </trkpt>
      <trkpt lat="48.57061" lon="2.19122">
        <ele>68.8</ele>
        <time>2026-03-20T13:58:06Z</time>
      </trkpt>
      <trkpt lat="48.57055" lon="2.19116">
        <ele>68.8</ele>
        <time>2026-03-20T13:58:07Z</time>
      </trkpt>
      <trkpt lat="48.57049" lon="2.1911">
        <ele>68.4</ele>
        <time>2026-03-20T13:58:08Z</time>
      </trkpt>
      <trkpt lat="48.57042" lon="2.19105">
        <ele>68.4</ele>
        <time>2026-03-20T13:58:09Z</time>
      </trkpt>
      <trkpt lat="48.57036" lon="2.19099">
        <ele>68.4</ele>
        <time>2026-03-20T13:58:10Z</time>
      </trkpt>
      <trkpt lat="48.5703" lon="2.19093">
        <ele>69.4</ele>
        <time>2026-03-20T13:58:11Z</time>
      </trkpt>
      <trkpt lat="48.57024" lon="2.19087">
        <ele>69.2</ele>
        <time>2026-03-20T13:58:12Z</time>
      </trkpt>
      <trkpt lat="48.57017" lon="2.19082">
        <ele>69.2</ele>
        <time>2026-03-20T13:58:13Z</time>
      </trkpt>
      <trkpt lat="48.57011" lon="2.19076">
        <ele>69.2</ele>
        <time>2026-03-20T13:58:14Z</time>
      </trkpt>
      <trkpt lat="48.57005" lon="2.1907">
        <ele>68.4</ele>
        <time>2026-03-20T13:58:15Z</time>
      </trkpt>
      <trkpt lat="48.56999" lon="2.19064">
        <ele>69.2</ele>
        <time>2026-03-20T13:58:16Z</time>
      </trkpt>
      <trkpt lat="48.56993" lon="2.19057">
        <ele>69.2</ele>
        <time>2026-03-20T13:58:17Z</time>
      </trkpt>
      <trkpt lat="48.56988" lon="2.19051">
        <ele>69.2</ele>
        <time>2026-03-20T13:58:18Z</time>
      </trkpt>
      <trkpt lat="48.56982" lon="2.19044">
        <ele>68.6</ele>
        <time>2026-03-20T13:58:19Z</time>
      </trkpt>
      <trkpt lat="48.56976" lon="2.19037">
        <ele>68.6</ele>
        <time>2026-03-20T13:58:20Z</time>
      </trkpt>
      <trkpt lat="48.56971" lon="2.19029">
        <ele>68.6</ele>
        <time>2026-03-20T13:58:21Z</time>
      </trkpt>
      <trkpt lat="48.56965" lon="2.19021">
        <ele>68.6</ele>
        <time>2026-03-20T13:58:22Z</time>
      </trkpt>
      <trkpt lat="48.5696" lon="2.19014">
        <ele>68.6</ele>
        <time>2026-03-20T13:58:23Z</time>
      </trkpt>
      <trkpt lat="48.56955" lon="2.19005">
        <ele>68.8</ele>
        <time>2026-03-20T13:58:24Z</time>
      </trkpt>
      <trkpt lat="48.5695" lon="2.18997">
        <ele>68.8</ele>
        <time>2026-03-20T13:58:25Z</time>
      </trkpt>
      <trkpt lat="48.56945" lon="2.18988">
        <ele>68.8</ele>
        <time>2026-03-20T13:58:26Z</time>
      </trkpt>
      <trkpt lat="48.5694" lon="2.18979">
        <ele>68</ele>
        <time>2026-03-20T13:58:27Z</time>
      </trkpt>
      <trkpt lat="48.56935" lon="2.1897">
        <ele>66.6</ele>
        <time>2026-03-20T13:58:28Z</time>
      </trkpt>
      <trkpt lat="48.5693" lon="2.18961">
        <ele>66.6</ele>
        <time>2026-03-20T13:58:29Z</time>
      </trkpt>
      <trkpt lat="48.56925" lon="2.18953">
        <ele>66.6</ele>
        <time>2026-03-20T13:58:30Z</time>
      </trkpt>
      <trkpt lat="48.5692" lon="2.18943">
        <ele>65.8</ele>
        <time>2026-03-20T13:58:31Z</time>
      </trkpt>
      <trkpt lat="48.56915" lon="2.18934">
        <ele>66.4</ele>
        <time>2026-03-20T13:58:32Z</time>
      </trkpt>
      <trkpt lat="48.56911" lon="2.18925">
        <ele>66.4</ele>
        <time>2026-03-20T13:58:33Z</time>
      </trkpt>
      <trkpt lat="48.56906" lon="2.18916">
        <ele>66.4</ele>
        <time>2026-03-20T13:58:34Z</time>
      </trkpt>
      <trkpt lat="48.56901" lon="2.18907">
        <ele>67.4</ele>
        <time>2026-03-20T13:58:35Z</time>
      </trkpt>
      <trkpt lat="48.56897" lon="2.18898">
        <ele>67.2</ele>
        <time>2026-03-20T13:58:36Z</time>
      </trkpt>
      <trkpt lat="48.56892" lon="2.18889">
        <ele>67.2</ele>
        <time>2026-03-20T13:58:37Z</time>
      </trkpt>
      <trkpt lat="48.56887" lon="2.1888">
        <ele>67.2</ele>
        <time>2026-03-20T13:58:38Z</time>
      </trkpt>
      <trkpt lat="48.56883" lon="2.18871">
        <ele>67</ele>
        <time>2026-03-20T13:58:39Z</time>
      </trkpt>
      <trkpt lat="48.56879" lon="2.18862">
        <ele>67.4</ele>
        <time>2026-03-20T13:58:40Z</time>
      </trkpt>
      <trkpt lat="48.56874" lon="2.18854">
        <ele>67.4</ele>
        <time>2026-03-20T13:58:41Z</time>
      </trkpt>
      <trkpt lat="48.5687" lon="2.18845">
        <ele>67.4</ele>
        <time>2026-03-20T13:58:42Z</time>
      </trkpt>
      <trkpt lat="48.56866" lon="2.18836">
        <ele>67.4</ele>
        <time>2026-03-20T13:58:43Z</time>
      </trkpt>
      <trkpt lat="48.56862" lon="2.18827">
        <ele>68.4</ele>
        <time>2026-03-20T13:58:44Z</time>
      </trkpt>
      <trkpt lat="48.56858" lon="2.18819">
        <ele>68.4</ele>
        <time>2026-03-20T13:58:45Z</time>
      </trkpt>
      <trkpt lat="48.56854" lon="2.1881">
        <ele>68.4</ele>
        <time>2026-03-20T13:58:46Z</time>
      </trkpt>
      <trkpt lat="48.5685" lon="2.18801">
        <ele>68.4</ele>
        <time>2026-03-20T13:58:47Z</time>
      </trkpt>
      <trkpt lat="48.56847" lon="2.18792">
        <ele>68.4</ele>
        <time>2026-03-20T13:58:48Z</time>
      </trkpt>
      <trkpt lat="48.56844" lon="2.18783">
        <ele>68.4</ele>
        <time>2026-03-20T13:58:49Z</time>
      </trkpt>
      <trkpt lat="48.5684" lon="2.18774">
        <ele>68.4</ele>
        <time>2026-03-20T13:58:50Z</time>
      </trkpt>
      <trkpt lat="48.56837" lon="2.18765">
        <ele>68.4</ele>
        <time>2026-03-20T13:58:51Z</time>
      </trkpt>
      <trkpt lat="48.56834" lon="2.18755">
        <ele>68.4</ele>
        <time>2026-03-20T13:58:52Z</time>
      </trkpt>
      <trkpt lat="48.56831" lon="2.18746">
        <ele>68.4</ele>
        <time>2026-03-20T13:58:53Z</time>
      </trkpt>
      <trkpt lat="48.56827" lon="2.18736">
        <ele>68.4</ele>
        <time>2026-03-20T13:58:54Z</time>
      </trkpt>
      <trkpt lat="48.56824" lon="2.18726">
        <ele>68.4</ele>
        <time>2026-03-20T13:58:55Z</time>
      </trkpt>
      <trkpt lat="48.56821" lon="2.18716">
        <ele>68.4</ele>
        <time>2026-03-20T13:58:56Z</time>
      </trkpt>
      <trkpt lat="48.56817" lon="2.18705">
        <ele>68.4</ele>
        <time>2026-03-20T13:58:57Z</time>
      </trkpt>
      <trkpt lat="48.56814" lon="2.18695">
        <ele>68.4</ele>
        <time>2026-03-20T13:58:58Z</time>
      </trkpt>
      <trkpt lat="48.5681" lon="2.18685">
        <ele>68</ele>
        <time>2026-03-20T13:58:59Z</time>
      </trkpt>
      <trkpt lat="48.56807" lon="2.18674">
        <ele>67.4</ele>
        <time>2026-03-20T13:59:00Z</time>
      </trkpt>
      <trkpt lat="48.56804" lon="2.18663">
        <ele>67.4</ele>
        <time>2026-03-20T13:59:01Z</time>
      </trkpt>
      <trkpt lat="48.56801" lon="2.18653">
        <ele>67.4</ele>
        <time>2026-03-20T13:59:02Z</time>
      </trkpt>
      <trkpt lat="48.56797" lon="2.18643">
        <ele>67.4</ele>
        <time>2026-03-20T13:59:03Z</time>
      </trkpt>
      <trkpt lat="48.56794" lon="2.18633">
        <ele>68.6</ele>
        <time>2026-03-20T13:59:04Z</time>
      </trkpt>
      <trkpt lat="48.56791" lon="2.18623">
        <ele>68.6</ele>
        <time>2026-03-20T13:59:05Z</time>
      </trkpt>
      <trkpt lat="48.56788" lon="2.18613">
        <ele>68.6</ele>
        <time>2026-03-20T13:59:06Z</time>
      </trkpt>
      <trkpt lat="48.56785" lon="2.18603">
        <ele>68.2</ele>
        <time>2026-03-20T13:59:07Z</time>
      </trkpt>
      <trkpt lat="48.56782" lon="2.18593">
        <ele>68.4</ele>
        <time>2026-03-20T13:59:08Z</time>
      </trkpt>
      <trkpt lat="48.56779" lon="2.18584">
        <ele>68.4</ele>
        <time>2026-03-20T13:59:09Z</time>
      </trkpt>
      <trkpt lat="48.56776" lon="2.18574">
        <ele>68.4</ele>
        <time>2026-03-20T13:59:10Z</time>
      </trkpt>
      <trkpt lat="48.56773" lon="2.18566">
        <ele>68.4</ele>
        <time>2026-03-20T13:59:11Z</time>
      </trkpt>
      <trkpt lat="48.5677" lon="2.18557">
        <ele>67.8</ele>
        <time>2026-03-20T13:59:12Z</time>
      </trkpt>
      <trkpt lat="48.56767" lon="2.18548">
        <ele>67.8</ele>
        <time>2026-03-20T13:59:13Z</time>
      </trkpt>
      <trkpt lat="48.56764" lon="2.18539">
        <ele>67.8</ele>
        <time>2026-03-20T13:59:14Z</time>
      </trkpt>
      <trkpt lat="48.56761" lon="2.1853">
        <ele>67.8</ele>
        <time>2026-03-20T13:59:15Z</time>
      </trkpt>
      <trkpt lat="48.56759" lon="2.18522">
        <ele>66.6</ele>
        <time>2026-03-20T13:59:16Z</time>
      </trkpt>
      <trkpt lat="48.56756" lon="2.18514">
        <ele>66.6</ele>
        <time>2026-03-20T13:59:17Z</time>
      </trkpt>
      <trkpt lat="48.56753" lon="2.18505">
        <ele>66.6</ele>
        <time>2026-03-20T13:59:18Z</time>
      </trkpt>
      <trkpt lat="48.5675" lon="2.18496">
        <ele>66.4</ele>
        <time>2026-03-20T13:59:19Z</time>
      </trkpt>
      <trkpt lat="48.56746" lon="2.18488">
        <ele>66.4</ele>
        <time>2026-03-20T13:59:20Z</time>
      </trkpt>
      <trkpt lat="48.56742" lon="2.18479">
        <ele>66.4</ele>
        <time>2026-03-20T13:59:21Z</time>
      </trkpt>
      <trkpt lat="48.56738" lon="2.18472">
        <ele>66.4</ele>
        <time>2026-03-20T13:59:22Z</time>
      </trkpt>
      <trkpt lat="48.56734" lon="2.18464">
        <ele>66.4</ele>
        <time>2026-03-20T13:59:23Z</time>
      </trkpt>
      <trkpt lat="48.56729" lon="2.18458">
        <ele>67.4</ele>
        <time>2026-03-20T13:59:24Z</time>
      </trkpt>
      <trkpt lat="48.56725" lon="2.18452">
        <ele>67.4</ele>
        <time>2026-03-20T13:59:25Z</time>
      </trkpt>
      <trkpt lat="48.5672" lon="2.18447">
        <ele>67.4</ele>
        <time>2026-03-20T13:59:26Z</time>
      </trkpt>
      <trkpt lat="48.56715" lon="2.18442">
        <ele>67.4</ele>
        <time>2026-03-20T13:59:27Z</time>
      </trkpt>
      <trkpt lat="48.56709" lon="2.18437">
        <ele>67.8</ele>
        <time>2026-03-20T13:59:28Z</time>
      </trkpt>
      <trkpt lat="48.56704" lon="2.18433">
        <ele>67.8</ele>
        <time>2026-03-20T13:59:29Z</time>
      </trkpt>
      <trkpt lat="48.56699" lon="2.18429">
        <ele>67.8</ele>
        <time>2026-03-20T13:59:30Z</time>
      </trkpt>
      <trkpt lat="48.56694" lon="2.18425">
        <ele>67.6</ele>
        <time>2026-03-20T13:59:31Z</time>
      </trkpt>
      <trkpt lat="48.56689" lon="2.18421">
        <ele>68</ele>
        <time>2026-03-20T13:59:32Z</time>
      </trkpt>
      <trkpt lat="48.56684" lon="2.18417">
        <ele>68</ele>
        <time>2026-03-20T13:59:33Z</time>
      </trkpt>
      <trkpt lat="48.56679" lon="2.18414">
        <ele>68</ele>
        <time>2026-03-20T13:59:34Z</time>
      </trkpt>
      <trkpt lat="48.56674" lon="2.1841">
        <ele>68.8</ele>
        <time>2026-03-20T13:59:35Z</time>
      </trkpt>
      <trkpt lat="48.5667" lon="2.18407">
        <ele>68.2</ele>
        <time>2026-03-20T13:59:36Z</time>
      </trkpt>
      <trkpt lat="48.56665" lon="2.18404">
        <ele>68.2</ele>
        <time>2026-03-20T13:59:37Z</time>
      </trkpt>
      <trkpt lat="48.5666" lon="2.184">
        <ele>68.2</ele>
        <time>2026-03-20T13:59:38Z</time>
      </trkpt>
      <trkpt lat="48.56656" lon="2.18397">
        <ele>68.8</ele>
        <time>2026-03-20T13:59:39Z</time>
      </trkpt>
      <trkpt lat="48.56651" lon="2.18394">
        <ele>69</ele>
        <time>2026-03-20T13:59:40Z</time>
      </trkpt>
      <trkpt lat="48.56647" lon="2.18391">
        <ele>69</ele>
        <time>2026-03-20T13:59:41Z</time>
      </trkpt>
      <trkpt lat="48.56642" lon="2.18388">
        <ele>69</ele>
        <time>2026-03-20T13:59:42Z</time>
      </trkpt>
      <trkpt lat="48.56638" lon="2.18384">
        <ele>69</ele>
        <time>2026-03-20T13:59:43Z</time>
      </trkpt>
      <trkpt lat="48.56633" lon="2.18381">
        <ele>69.4</ele>
        <time>2026-03-20T13:59:44Z</time>
      </trkpt>
      <trkpt lat="48.56629" lon="2.18377">
        <ele>69.4</ele>
        <time>2026-03-20T13:59:45Z</time>
      </trkpt>
      <trkpt lat="48.56625" lon="2.18374">
        <ele>69.4</ele>
        <time>2026-03-20T13:59:46Z</time>
      </trkpt>
      <trkpt lat="48.5662" lon="2.18371">
        <ele>69.8</ele>
        <time>2026-03-20T13:59:47Z</time>
      </trkpt>
      <trkpt lat="48.56616" lon="2.18367">
        <ele>70.2</ele>
        <time>2026-03-20T13:59:48Z</time>
      </trkpt>
      <trkpt lat="48.56612" lon="2.18364">
        <ele>70.2</ele>
        <time>2026-03-20T13:59:49Z</time>
      </trkpt>
      <trkpt lat="48.56607" lon="2.1836">
        <ele>70.2</ele>
        <time>2026-03-20T13:59:50Z</time>
      </trkpt>
      <trkpt lat="48.56603" lon="2.18356">
        <ele>70.4</ele>
        <time>2026-03-20T13:59:51Z</time>
      </trkpt>
      <trkpt lat="48.56599" lon="2.18353">
        <ele>71</ele>
        <time>2026-03-20T13:59:52Z</time>
      </trkpt>
      <trkpt lat="48.56595" lon="2.1835">
        <ele>71</ele>
        <time>2026-03-20T13:59:53Z</time>
      </trkpt>
      <trkpt lat="48.56591" lon="2.18346">
        <ele>71</ele>
        <time>2026-03-20T13:59:54Z</time>
      </trkpt>
      <trkpt lat="48.56587" lon="2.18343">
        <ele>71</ele>
        <time>2026-03-20T13:59:55Z</time>
      </trkpt>
      <trkpt lat="48.56582" lon="2.18339">
        <ele>71.2</ele>
        <time>2026-03-20T13:59:56Z</time>
      </trkpt>
      <trkpt lat="48.56578" lon="2.18336">
        <ele>71.2</ele>
        <time>2026-03-20T13:59:57Z</time>
      </trkpt>
      <trkpt lat="48.56574" lon="2.18333">
        <ele>71.2</ele>
        <time>2026-03-20T13:59:58Z</time>
      </trkpt>
      <trkpt lat="48.56569" lon="2.18329">
        <ele>71.2</ele>
        <time>2026-03-20T13:59:59Z</time>
      </trkpt>
      <trkpt lat="48.56565" lon="2.18326">
        <ele>70.4</ele>
        <time>2026-03-20T14:00:00Z</time>
      </trkpt>
      <trkpt lat="48.5656" lon="2.18322">
        <ele>70.4</ele>
        <time>2026-03-20T14:00:01Z</time>
      </trkpt>
      <trkpt lat="48.56556" lon="2.18318">
        <ele>70.4</ele>
        <time>2026-03-20T14:00:02Z</time>
      </trkpt>
      <trkpt lat="48.56551" lon="2.18315">
        <ele>70.6</ele>
        <time>2026-03-20T14:00:03Z</time>
      </trkpt>
      <trkpt lat="48.56546" lon="2.18311">
        <ele>71</ele>
        <time>2026-03-20T14:00:04Z</time>
      </trkpt>
      <trkpt lat="48.56542" lon="2.18308">
        <ele>71</ele>
        <time>2026-03-20T14:00:05Z</time>
      </trkpt>
      <trkpt lat="48.56537" lon="2.18305">
        <ele>71</ele>
        <time>2026-03-20T14:00:06Z</time>
      </trkpt>
      <trkpt lat="48.56532" lon="2.18302">
        <ele>71</ele>
        <time>2026-03-20T14:00:07Z</time>
      </trkpt>
      <trkpt lat="48.56527" lon="2.18299">
        <ele>70.6</ele>
        <time>2026-03-20T14:00:08Z</time>
      </trkpt>
      <trkpt lat="48.56523" lon="2.18297">
        <ele>70.6</ele>
        <time>2026-03-20T14:00:09Z</time>
      </trkpt>
      <trkpt lat="48.56518" lon="2.18294">
        <ele>70.6</ele>
        <time>2026-03-20T14:00:10Z</time>
      </trkpt>
      <trkpt lat="48.56513" lon="2.18292">
        <ele>70.6</ele>
        <time>2026-03-20T14:00:11Z</time>
      </trkpt>
      <trkpt lat="48.56508" lon="2.1829">
        <ele>70.8</ele>
        <time>2026-03-20T14:00:12Z</time>
      </trkpt>
      <trkpt lat="48.56503" lon="2.18288">
        <ele>70.8</ele>
        <time>2026-03-20T14:00:13Z</time>
      </trkpt>
      <trkpt lat="48.56498" lon="2.18287">
        <ele>70.8</ele>
        <time>2026-03-20T14:00:14Z</time>
      </trkpt>
      <trkpt lat="48.56494" lon="2.18285">
        <ele>70.6</ele>
        <time>2026-03-20T14:00:15Z</time>
      </trkpt>
      <trkpt lat="48.56489" lon="2.18284">
        <ele>71.6</ele>
        <time>2026-03-20T14:00:16Z</time>
      </trkpt>
      <trkpt lat="48.56485" lon="2.18282">
        <ele>71.6</ele>
        <time>2026-03-20T14:00:17Z</time>
      </trkpt>
      <trkpt lat="48.56481" lon="2.18281">
        <ele>71.6</ele>
        <time>2026-03-20T14:00:18Z</time>
      </trkpt>
      <trkpt lat="48.56477" lon="2.1828">
        <ele>71.6</ele>
        <time>2026-03-20T14:00:19Z</time>
      </trkpt>
      <trkpt lat="48.56473" lon="2.18279">
        <ele>72.2</ele>
        <time>2026-03-20T14:00:20Z</time>
      </trkpt>
      <trkpt lat="48.56469" lon="2.18278">
        <ele>72.2</ele>
        <time>2026-03-20T14:00:21Z</time>
      </trkpt>
      <trkpt lat="48.56465" lon="2.18277">
        <ele>72.2</ele>
        <time>2026-03-20T14:00:22Z</time>
      </trkpt>
      <trkpt lat="48.56461" lon="2.18276">
        <ele>72.2</ele>
        <time>2026-03-20T14:00:23Z</time>
      </trkpt>
      <trkpt lat="48.56458" lon="2.18275">
        <ele>72.2</ele>
        <time>2026-03-20T14:00:24Z</time>
      </trkpt>
      <trkpt lat="48.56455" lon="2.18275">
        <ele>72.2</ele>
        <time>2026-03-20T14:00:25Z</time>
      </trkpt>
      <trkpt lat="48.56452" lon="2.18274">
        <ele>72.2</ele>
        <time>2026-03-20T14:00:26Z</time>
      </trkpt>
      <trkpt lat="48.56449" lon="2.18273">
        <ele>72.4</ele>
        <time>2026-03-20T14:00:27Z</time>
      </trkpt>
      <trkpt lat="48.56446" lon="2.18272">
        <ele>72.8</ele>
        <time>2026-03-20T14:00:28Z</time>
      </trkpt>
      <trkpt lat="48.56444" lon="2.18271">
        <ele>72.8</ele>
        <time>2026-03-20T14:00:29Z</time>
      </trkpt>
      <trkpt lat="48.56442" lon="2.18271">
        <ele>72.8</ele>
        <time>2026-03-20T14:00:30Z</time>
      </trkpt>
      <trkpt lat="48.5644" lon="2.1827">
        <ele>73.2</ele>
        <time>2026-03-20T14:00:31Z</time>
      </trkpt>
      <trkpt lat="48.56438" lon="2.1827">
        <ele>72.6</ele>
        <time>2026-03-20T14:00:32Z</time>
      </trkpt>
      <trkpt lat="48.56437" lon="2.1827">
        <ele>72.6</ele>
        <time>2026-03-20T14:00:33Z</time>
      </trkpt>
      <trkpt lat="48.56436" lon="2.1827">
        <ele>72.6</ele>
        <time>2026-03-20T14:00:34Z</time>
      </trkpt>
      <trkpt lat="48.56434" lon="2.1827">
        <ele>73</ele>
        <time>2026-03-20T14:00:35Z</time>
      </trkpt>
      <trkpt lat="48.56433" lon="2.1827">
        <ele>73.2</ele>
        <time>2026-03-20T14:00:36Z</time>
      </trkpt>
      <trkpt lat="48.56431" lon="2.18269">
        <ele>73.2</ele>
        <time>2026-03-20T14:00:37Z</time>
      </trkpt>
      <trkpt lat="48.56429" lon="2.18267">
        <ele>73.2</ele>
        <time>2026-03-20T14:00:38Z</time>
      </trkpt>
      <trkpt lat="48.56426" lon="2.18265">
        <ele>73.2</ele>
        <time>2026-03-20T14:00:39Z</time>
      </trkpt>
      <trkpt lat="48.56423" lon="2.18263">
        <ele>72.8</ele>
        <time>2026-03-20T14:00:40Z</time>
      </trkpt>
      <trkpt lat="48.56419" lon="2.18261">
        <ele>72.8</ele>
        <time>2026-03-20T14:00:41Z</time>
      </trkpt>
      <trkpt lat="48.56415" lon="2.1826">
        <ele>72.8</ele>
        <time>2026-03-20T14:00:42Z</time>
      </trkpt>
      <trkpt lat="48.56411" lon="2.18259">
        <ele>72.8</ele>
        <time>2026-03-20T14:00:43Z</time>
      </trkpt>
      <trkpt lat="48.56406" lon="2.18259">
        <ele>72.4</ele>
        <time>2026-03-20T14:00:44Z</time>
      </trkpt>
      <trkpt lat="48.56401" lon="2.18258">
        <ele>72.4</ele>
        <time>2026-03-20T14:00:45Z</time>
      </trkpt>
      <trkpt lat="48.56397" lon="2.18258">
        <ele>72.4</ele>
        <time>2026-03-20T14:00:46Z</time>
      </trkpt>
      <trkpt lat="48.56392" lon="2.18256">
        <ele>73.4</ele>
        <time>2026-03-20T14:00:47Z</time>
      </trkpt>
      <trkpt lat="48.56388" lon="2.18254">
        <ele>73.4</ele>
        <time>2026-03-20T14:00:48Z</time>
      </trkpt>
      <trkpt lat="48.56384" lon="2.18252">
        <ele>73.4</ele>
        <time>2026-03-20T14:00:49Z</time>
      </trkpt>
      <trkpt lat="48.5638" lon="2.18251">
        <ele>73.4</ele>
        <time>2026-03-20T14:00:50Z</time>
      </trkpt>
      <trkpt lat="48.56376" lon="2.18249">
        <ele>73.6</ele>
        <time>2026-03-20T14:00:51Z</time>
      </trkpt>
      <trkpt lat="48.56372" lon="2.18247">
        <ele>73.4</ele>
        <time>2026-03-20T14:00:52Z</time>
      </trkpt>
      <trkpt lat="48.56368" lon="2.18246">
        <ele>73.4</ele>
        <time>2026-03-20T14:00:53Z</time>
      </trkpt>
      <trkpt lat="48.56364" lon="2.18244">
        <ele>73.4</ele>
        <time>2026-03-20T14:00:54Z</time>
      </trkpt>
      <trkpt lat="48.5636" lon="2.18242">
        <ele>74</ele>
        <time>2026-03-20T14:00:55Z</time>
      </trkpt>
      <trkpt lat="48.56356" lon="2.1824">
        <ele>73.8</ele>
        <time>2026-03-20T14:00:56Z</time>
      </trkpt>
      <trkpt lat="48.56352" lon="2.18237">
        <ele>73.8</ele>
        <time>2026-03-20T14:00:57Z</time>
      </trkpt>
      <trkpt lat="48.56348" lon="2.18235">
        <ele>73.8</ele>
        <time>2026-03-20T14:00:58Z</time>
      </trkpt>
      <trkpt lat="48.56344" lon="2.18233">
        <ele>73.8</ele>
        <time>2026-03-20T14:00:59Z</time>
      </trkpt>
      <trkpt lat="48.5634" lon="2.18231">
        <ele>74.2</ele>
        <time>2026-03-20T14:01:00Z</time>
      </trkpt>
      <trkpt lat="48.56336" lon="2.18229">
        <ele>74.2</ele>
        <time>2026-03-20T14:01:01Z</time>
      </trkpt>
      <trkpt lat="48.56332" lon="2.18227">
        <ele>74.2</ele>
        <time>2026-03-20T14:01:02Z</time>
      </trkpt>
      <trkpt lat="48.56328" lon="2.18225">
        <ele>74.2</ele>
        <time>2026-03-20T14:01:03Z</time>
      </trkpt>
      <trkpt lat="48.56324" lon="2.18223">
        <ele>74.4</ele>
        <time>2026-03-20T14:01:04Z</time>
      </trkpt>
      <trkpt lat="48.5632" lon="2.18222">
        <ele>74.4</ele>
        <time>2026-03-20T14:01:05Z</time>
      </trkpt>
      <trkpt lat="48.56315" lon="2.1822">
        <ele>74.4</ele>
        <time>2026-03-20T14:01:06Z</time>
      </trkpt>
      <trkpt lat="48.56311" lon="2.18219">
        <ele>75.4</ele>
        <time>2026-03-20T14:01:07Z</time>
      </trkpt>
      <trkpt lat="48.56307" lon="2.18218">
        <ele>75.4</ele>
        <time>2026-03-20T14:01:08Z</time>
      </trkpt>
      <trkpt lat="48.56303" lon="2.18217">
        <ele>75.4</ele>
        <time>2026-03-20T14:01:09Z</time>
      </trkpt>
      <trkpt lat="48.56298" lon="2.18216">
        <ele>75.4</ele>
        <time>2026-03-20T14:01:10Z</time>
      </trkpt>
      <trkpt lat="48.56294" lon="2.18216">
        <ele>75.8</ele>
        <time>2026-03-20T14:01:11Z</time>
      </trkpt>
      <trkpt lat="48.56289" lon="2.18215">
        <ele>75.2</ele>
        <time>2026-03-20T14:01:12Z</time>
      </trkpt>
      <trkpt lat="48.56285" lon="2.18215">
        <ele>75.2</ele>
        <time>2026-03-20T14:01:13Z</time>
      </trkpt>
      <trkpt lat="48.56281" lon="2.18215">
        <ele>75.2</ele>
        <time>2026-03-20T14:01:14Z</time>
      </trkpt>
      <trkpt lat="48.56276" lon="2.18214">
        <ele>76.2</ele>
        <time>2026-03-20T14:01:15Z</time>
      </trkpt>
      <trkpt lat="48.56272" lon="2.18214">
        <ele>76.6</ele>
        <time>2026-03-20T14:01:16Z</time>
      </trkpt>
      <trkpt lat="48.56268" lon="2.18214">
        <ele>76.6</ele>
        <time>2026-03-20T14:01:17Z</time>
      </trkpt>
      <trkpt lat="48.56264" lon="2.18214">
        <ele>76.6</ele>
        <time>2026-03-20T14:01:18Z</time>
      </trkpt>
      <trkpt lat="48.56259" lon="2.18213">
        <ele>76.8</ele>
        <time>2026-03-20T14:01:19Z</time>
      </trkpt>
      <trkpt lat="48.56255" lon="2.18213">
        <ele>77.4</ele>
        <time>2026-03-20T14:01:20Z</time>
      </trkpt>
      <trkpt lat="48.56251" lon="2.18212">
        <ele>77.4</ele>
        <time>2026-03-20T14:01:21Z</time>
      </trkpt>
      <trkpt lat="48.56247" lon="2.18212">
        <ele>77.4</ele>
        <time>2026-03-20T14:01:22Z</time>
      </trkpt>
      <trkpt lat="48.56243" lon="2.18211">
        <ele>77.4</ele>
        <time>2026-03-20T14:01:23Z</time>
      </trkpt>
      <trkpt lat="48.56239" lon="2.18211">
        <ele>77.6</ele>
        <time>2026-03-20T14:01:24Z</time>
      </trkpt>
      <trkpt lat="48.56235" lon="2.1821">
        <ele>77.6</ele>
        <time>2026-03-20T14:01:25Z</time>
      </trkpt>
      <trkpt lat="48.56231" lon="2.18209">
        <ele>77.6</ele>
        <time>2026-03-20T14:01:26Z</time>
      </trkpt>
      <trkpt lat="48.56228" lon="2.18206">
        <ele>77.6</ele>
        <time>2026-03-20T14:01:27Z</time>
      </trkpt>
      <trkpt lat="48.56225" lon="2.18203">
        <ele>77.8</ele>
        <time>2026-03-20T14:01:28Z</time>
      </trkpt>
      <trkpt lat="48.56221" lon="2.18201">
        <ele>77.8</ele>
        <time>2026-03-20T14:01:29Z</time>
      </trkpt>
      <trkpt lat="48.56218" lon="2.182">
        <ele>77.8</ele>
        <time>2026-03-20T14:01:30Z</time>
      </trkpt>
      <trkpt lat="48.56214" lon="2.18199">
        <ele>77.8</ele>
        <time>2026-03-20T14:01:31Z</time>
      </trkpt>
      <trkpt lat="48.5621" lon="2.18199">
        <ele>78.2</ele>
        <time>2026-03-20T14:01:32Z</time>
      </trkpt>
      <trkpt lat="48.56206" lon="2.18199">
        <ele>78.2</ele>
        <time>2026-03-20T14:01:33Z</time>
      </trkpt>
      <trkpt lat="48.56203" lon="2.18199">
        <ele>78.2</ele>
        <time>2026-03-20T14:01:34Z</time>
      </trkpt>
      <trkpt lat="48.56199" lon="2.18199">
        <ele>78.2</ele>
        <time>2026-03-20T14:01:35Z</time>
      </trkpt>
      <trkpt lat="48.56195" lon="2.18198">
        <ele>78.4</ele>
        <time>2026-03-20T14:01:36Z</time>
      </trkpt>
      <trkpt lat="48.56191" lon="2.18198">
        <ele>78.4</ele>
        <time>2026-03-20T14:01:37Z</time>
      </trkpt>
      <trkpt lat="48.56187" lon="2.18197">
        <ele>78.4</ele>
        <time>2026-03-20T14:01:38Z</time>
      </trkpt>
      <trkpt lat="48.56183" lon="2.18197">
        <ele>78.4</ele>
        <time>2026-03-20T14:01:39Z</time>
      </trkpt>
      <trkpt lat="48.56179" lon="2.18196">
        <ele>78.6</ele>
        <time>2026-03-20T14:01:40Z</time>
      </trkpt>
      <trkpt lat="48.56175" lon="2.18196">
        <ele>78.6</ele>
        <time>2026-03-20T14:01:41Z</time>
      </trkpt>
      <trkpt lat="48.56171" lon="2.18195">
        <ele>78.6</ele>
        <time>2026-03-20T14:01:42Z</time>
      </trkpt>
      <trkpt lat="48.56168" lon="2.18195">
        <ele>78.6</ele>
        <time>2026-03-20T14:01:43Z</time>
      </trkpt>
      <trkpt lat="48.56164" lon="2.18194">
        <ele>78.8</ele>
        <time>2026-03-20T14:01:44Z</time>
      </trkpt>
      <trkpt lat="48.5616" lon="2.18194">
        <ele>78.8</ele>
        <time>2026-03-20T14:01:45Z</time>
      </trkpt>
      <trkpt lat="48.56156" lon="2.18193">
        <ele>78.8</ele>
        <time>2026-03-20T14:01:46Z</time>
      </trkpt>
      <trkpt lat="48.56153" lon="2.18193">
        <ele>79.2</ele>
        <time>2026-03-20T14:01:47Z</time>
      </trkpt>
      <trkpt lat="48.56149" lon="2.18193">
        <ele>79.2</ele>
        <time>2026-03-20T14:01:48Z</time>
      </trkpt>
      <trkpt lat="48.56145" lon="2.18192">
        <ele>79.2</ele>
        <time>2026-03-20T14:01:49Z</time>
      </trkpt>
      <trkpt lat="48.56141" lon="2.18192">
        <ele>79.2</ele>
        <time>2026-03-20T14:01:50Z</time>
      </trkpt>
      <trkpt lat="48.56137" lon="2.18191">
        <ele>80</ele>
        <time>2026-03-20T14:01:51Z</time>
      </trkpt>
      <trkpt lat="48.56133" lon="2.18191">
        <ele>79.8</ele>
        <time>2026-03-20T14:01:52Z</time>
      </trkpt>
      <trkpt lat="48.56129" lon="2.1819">
        <ele>79.8</ele>
        <time>2026-03-20T14:01:53Z</time>
      </trkpt>
      <trkpt lat="48.56125" lon="2.18189">
        <ele>79.8</ele>
        <time>2026-03-20T14:01:54Z</time>
      </trkpt>
      <trkpt lat="48.56121" lon="2.18189">
        <ele>79.8</ele>
        <time>2026-03-20T14:01:55Z</time>
      </trkpt>
      <trkpt lat="48.56117" lon="2.18188">
        <ele>80.6</ele>
        <time>2026-03-20T14:01:56Z</time>
      </trkpt>
      <trkpt lat="48.56113" lon="2.18188">
        <ele>80.6</ele>
        <time>2026-03-20T14:01:57Z</time>
      </trkpt>
      <trkpt lat="48.56109" lon="2.18187">
        <ele>80.6</ele>
        <time>2026-03-20T14:01:58Z</time>
      </trkpt>
      <trkpt lat="48.56105" lon="2.18186">
        <ele>80.6</ele>
        <time>2026-03-20T14:01:59Z</time>
      </trkpt>
      <trkpt lat="48.56101" lon="2.18185">
        <ele>80.8</ele>
        <time>2026-03-20T14:02:00Z</time>
      </trkpt>
      <trkpt lat="48.56097" lon="2.18184">
        <ele>80.8</ele>
        <time>2026-03-20T14:02:01Z</time>
      </trkpt>
      <trkpt lat="48.56093" lon="2.18183">
        <ele>80.8</ele>
        <time>2026-03-20T14:02:02Z</time>
      </trkpt>
      <trkpt lat="48.56089" lon="2.18182">
        <ele>80.8</ele>
        <time>2026-03-20T14:02:03Z</time>
      </trkpt>
      <trkpt lat="48.56085" lon="2.18181">
        <ele>81.2</ele>
        <time>2026-03-20T14:02:04Z</time>
      </trkpt>
      <trkpt lat="48.56081" lon="2.18179">
        <ele>81.2</ele>
        <time>2026-03-20T14:02:05Z</time>
      </trkpt>
      <trkpt lat="48.56077" lon="2.18178">
        <ele>81.2</ele>
        <time>2026-03-20T14:02:06Z</time>
      </trkpt>
      <trkpt lat="48.56073" lon="2.18176">
        <ele>81</ele>
        <time>2026-03-20T14:02:07Z</time>
      </trkpt>
      <trkpt lat="48.56069" lon="2.18174">
        <ele>81.6</ele>
        <time>2026-03-20T14:02:08Z</time>
      </trkpt>
      <trkpt lat="48.56065" lon="2.18172">
        <ele>81.6</ele>
        <time>2026-03-20T14:02:09Z</time>
      </trkpt>
      <trkpt lat="48.56061" lon="2.1817">
        <ele>81.6</ele>
        <time>2026-03-20T14:02:10Z</time>
      </trkpt>
      <trkpt lat="48.56057" lon="2.18168">
        <ele>81.6</ele>
        <time>2026-03-20T14:02:11Z</time>
      </trkpt>
      <trkpt lat="48.56053" lon="2.18166">
        <ele>81.6</ele>
        <time>2026-03-20T14:02:12Z</time>
      </trkpt>
      <trkpt lat="48.5605" lon="2.18165">
        <ele>81.6</ele>
        <time>2026-03-20T14:02:13Z</time>
      </trkpt>
      <trkpt lat="48.56046" lon="2.18163">
        <ele>81.6</ele>
        <time>2026-03-20T14:02:14Z</time>
      </trkpt>
      <trkpt lat="48.56042" lon="2.18161">
        <ele>82</ele>
        <time>2026-03-20T14:02:15Z</time>
      </trkpt>
      <trkpt lat="48.56038" lon="2.18159">
        <ele>82.2</ele>
        <time>2026-03-20T14:02:16Z</time>
      </trkpt>
      <trkpt lat="48.56034" lon="2.18156">
        <ele>82.2</ele>
        <time>2026-03-20T14:02:17Z</time>
      </trkpt>
      <trkpt lat="48.5603" lon="2.18154">
        <ele>82.2</ele>
        <time>2026-03-20T14:02:18Z</time>
      </trkpt>
      <trkpt lat="48.56026" lon="2.18152">
        <ele>83.2</ele>
        <time>2026-03-20T14:02:19Z</time>
      </trkpt>
      <trkpt lat="48.56022" lon="2.1815">
        <ele>83.2</ele>
        <time>2026-03-20T14:02:20Z</time>
      </trkpt>
      <trkpt lat="48.56018" lon="2.18148">
        <ele>83.2</ele>
        <time>2026-03-20T14:02:21Z</time>
      </trkpt>
      <trkpt lat="48.56014" lon="2.18146">
        <ele>83.2</ele>
        <time>2026-03-20T14:02:22Z</time>
      </trkpt>
      <trkpt lat="48.5601" lon="2.18145">
        <ele>83.2</ele>
        <time>2026-03-20T14:02:23Z</time>
      </trkpt>
      <trkpt lat="48.56006" lon="2.18143">
        <ele>83.8</ele>
        <time>2026-03-20T14:02:24Z</time>
      </trkpt>
      <trkpt lat="48.56002" lon="2.18142">
        <ele>83.8</ele>
        <time>2026-03-20T14:02:25Z</time>
      </trkpt>
      <trkpt lat="48.55998" lon="2.18141">
        <ele>83.8</ele>
        <time>2026-03-20T14:02:26Z</time>
      </trkpt>
      <trkpt lat="48.55994" lon="2.1814">
        <ele>83.8</ele>
        <time>2026-03-20T14:02:27Z</time>
      </trkpt>
      <trkpt lat="48.5599" lon="2.18139">
        <ele>84.8</ele>
        <time>2026-03-20T14:02:28Z</time>
      </trkpt>
      <trkpt lat="48.55986" lon="2.18139">
        <ele>84.8</ele>
        <time>2026-03-20T14:02:29Z</time>
      </trkpt>
      <trkpt lat="48.55982" lon="2.18137">
        <ele>84.8</ele>
        <time>2026-03-20T14:02:30Z</time>
      </trkpt>
      <trkpt lat="48.55978" lon="2.18136">
        <ele>84.8</ele>
        <time>2026-03-20T14:02:31Z</time>
      </trkpt>
      <trkpt lat="48.55974" lon="2.18134">
        <ele>84.6</ele>
        <time>2026-03-20T14:02:32Z</time>
      </trkpt>
      <trkpt lat="48.5597" lon="2.18132">
        <ele>84.6</ele>
        <time>2026-03-20T14:02:33Z</time>
      </trkpt>
      <trkpt lat="48.55966" lon="2.1813">
        <ele>84.6</ele>
        <time>2026-03-20T14:02:34Z</time>
      </trkpt>
      <trkpt lat="48.55962" lon="2.18128">
        <ele>84.6</ele>
        <time>2026-03-20T14:02:35Z</time>
      </trkpt>
      <trkpt lat="48.55958" lon="2.18126">
        <ele>84.6</ele>
        <time>2026-03-20T14:02:36Z</time>
      </trkpt>
      <trkpt lat="48.55954" lon="2.18124">
        <ele>84.6</ele>
        <time>2026-03-20T14:02:37Z</time>
      </trkpt>
      <trkpt lat="48.55949" lon="2.18122">
        <ele>84.6</ele>
        <time>2026-03-20T14:02:38Z</time>
      </trkpt>
      <trkpt lat="48.55945" lon="2.1812">
        <ele>84.8</ele>
        <time>2026-03-20T14:02:39Z</time>
      </trkpt>
      <trkpt lat="48.55941" lon="2.18118">
        <ele>85.6</ele>
        <time>2026-03-20T14:02:40Z</time>
      </trkpt>
      <trkpt lat="48.55937" lon="2.18117">
        <ele>85.6</ele>
        <time>2026-03-20T14:02:41Z</time>
      </trkpt>
      <trkpt lat="48.55932" lon="2.18115">
        <ele>85.6</ele>
        <time>2026-03-20T14:02:42Z</time>
      </trkpt>
      <trkpt lat="48.55928" lon="2.18114">
        <ele>84.8</ele>
        <time>2026-03-20T14:02:43Z</time>
      </trkpt>
      <trkpt lat="48.55924" lon="2.18112">
        <ele>85</ele>
        <time>2026-03-20T14:02:44Z</time>
      </trkpt>
      <trkpt lat="48.5592" lon="2.18111">
        <ele>85</ele>
        <time>2026-03-20T14:02:45Z</time>
      </trkpt>
      <trkpt lat="48.55916" lon="2.18109">
        <ele>85</ele>
        <time>2026-03-20T14:02:46Z</time>
      </trkpt>
      <trkpt lat="48.55911" lon="2.18107">
        <ele>84.4</ele>
        <time>2026-03-20T14:02:47Z</time>
      </trkpt>
      <trkpt lat="48.55907" lon="2.18106">
        <ele>84.8</ele>
        <time>2026-03-20T14:02:48Z</time>
      </trkpt>
      <trkpt lat="48.55903" lon="2.18105">
        <ele>84.8</ele>
        <time>2026-03-20T14:02:49Z</time>
      </trkpt>
      <trkpt lat="48.55898" lon="2.18103">
        <ele>84.8</ele>
        <time>2026-03-20T14:02:50Z</time>
      </trkpt>
      <trkpt lat="48.55894" lon="2.18102">
        <ele>85.2</ele>
        <time>2026-03-20T14:02:51Z</time>
      </trkpt>
      <trkpt lat="48.5589" lon="2.18101">
        <ele>85.2</ele>
        <time>2026-03-20T14:02:52Z</time>
      </trkpt>
      <trkpt lat="48.55885" lon="2.18099">
        <ele>85.2</ele>
        <time>2026-03-20T14:02:53Z</time>
      </trkpt>
      <trkpt lat="48.55881" lon="2.18098">
        <ele>85.2</ele>
        <time>2026-03-20T14:02:54Z</time>
      </trkpt>
      <trkpt lat="48.55876" lon="2.18096">
        <ele>85.2</ele>
        <time>2026-03-20T14:02:55Z</time>
      </trkpt>
      <trkpt lat="48.55872" lon="2.18095">
        <ele>85.4</ele>
        <time>2026-03-20T14:02:56Z</time>
      </trkpt>
      <trkpt lat="48.55867" lon="2.18094">
        <ele>85.4</ele>
        <time>2026-03-20T14:02:57Z</time>
      </trkpt>
      <trkpt lat="48.55862" lon="2.18092">
        <ele>85.4</ele>
        <time>2026-03-20T14:02:58Z</time>
      </trkpt>
      <trkpt lat="48.55858" lon="2.18091">
        <ele>84.4</ele>
        <time>2026-03-20T14:02:59Z</time>
      </trkpt>
      <trkpt lat="48.55853" lon="2.18089">
        <ele>84.4</ele>
        <time>2026-03-20T14:03:00Z</time>
      </trkpt>
      <trkpt lat="48.55848" lon="2.18088">
        <ele>84.4</ele>
        <time>2026-03-20T14:03:01Z</time>
      </trkpt>
      <trkpt lat="48.55844" lon="2.18086">
        <ele>84.4</ele>
        <time>2026-03-20T14:03:02Z</time>
      </trkpt>
      <trkpt lat="48.55839" lon="2.18085">
        <ele>84.8</ele>
        <time>2026-03-20T14:03:03Z</time>
      </trkpt>
      <trkpt lat="48.55835" lon="2.18083">
        <ele>85</ele>
        <time>2026-03-20T14:03:04Z</time>
      </trkpt>
      <trkpt lat="48.5583" lon="2.18082">
        <ele>85</ele>
        <time>2026-03-20T14:03:05Z</time>
      </trkpt>
      <trkpt lat="48.55825" lon="2.18081">
        <ele>85</ele>
        <time>2026-03-20T14:03:06Z</time>
      </trkpt>
      <trkpt lat="48.55821" lon="2.18079">
        <ele>85</ele>
        <time>2026-03-20T14:03:07Z</time>
      </trkpt>
      <trkpt lat="48.55816" lon="2.18078">
        <ele>85.6</ele>
        <time>2026-03-20T14:03:08Z</time>
      </trkpt>
      <trkpt lat="48.55812" lon="2.18076">
        <ele>85.6</ele>
        <time>2026-03-20T14:03:09Z</time>
      </trkpt>
      <trkpt lat="48.55807" lon="2.18075">
        <ele>85.6</ele>
        <time>2026-03-20T14:03:10Z</time>
      </trkpt>
      <trkpt lat="48.55802" lon="2.18074">
        <ele>86.2</ele>
        <time>2026-03-20T14:03:11Z</time>
      </trkpt>
      <trkpt lat="48.55798" lon="2.18072">
        <ele>86.2</ele>
        <time>2026-03-20T14:03:12Z</time>
      </trkpt>
      <trkpt lat="48.55793" lon="2.18071">
        <ele>86.2</ele>
        <time>2026-03-20T14:03:13Z</time>
      </trkpt>
      <trkpt lat="48.55789" lon="2.18069">
        <ele>86.2</ele>
        <time>2026-03-20T14:03:14Z</time>
      </trkpt>
      <trkpt lat="48.55784" lon="2.18068">
        <ele>86</ele>
        <time>2026-03-20T14:03:15Z</time>
      </trkpt>
      <trkpt lat="48.55779" lon="2.18066">
        <ele>86.4</ele>
        <time>2026-03-20T14:03:16Z</time>
      </trkpt>
      <trkpt lat="48.55775" lon="2.18065">
        <ele>86.4</ele>
        <time>2026-03-20T14:03:17Z</time>
      </trkpt>
      <trkpt lat="48.5577" lon="2.18063">
        <ele>86.4</ele>
        <time>2026-03-20T14:03:18Z</time>
      </trkpt>
      <trkpt lat="48.55765" lon="2.18062">
        <ele>85.8</ele>
        <time>2026-03-20T14:03:19Z</time>
      </trkpt>
      <trkpt lat="48.55761" lon="2.1806">
        <ele>86.4</ele>
        <time>2026-03-20T14:03:20Z</time>
      </trkpt>
      <trkpt lat="48.55756" lon="2.18059">
        <ele>86.4</ele>
        <time>2026-03-20T14:03:21Z</time>
      </trkpt>
      <trkpt lat="48.55751" lon="2.18057">
        <ele>86.4</ele>
        <time>2026-03-20T14:03:22Z</time>
      </trkpt>
      <trkpt lat="48.55747" lon="2.18056">
        <ele>86.4</ele>
        <time>2026-03-20T14:03:23Z</time>
      </trkpt>
      <trkpt lat="48.55743" lon="2.18055">
        <ele>87.4</ele>
        <time>2026-03-20T14:03:24Z</time>
      </trkpt>
      <trkpt lat="48.55738" lon="2.18053">
        <ele>87.4</ele>
        <time>2026-03-20T14:03:25Z</time>
      </trkpt>
      <trkpt lat="48.55734" lon="2.18052">
        <ele>87.4</ele>
        <time>2026-03-20T14:03:26Z</time>
      </trkpt>
      <trkpt lat="48.55729" lon="2.18051">
        <ele>87.4</ele>
        <time>2026-03-20T14:03:27Z</time>
      </trkpt>
      <trkpt lat="48.55725" lon="2.18049">
        <ele>87.8</ele>
        <time>2026-03-20T14:03:28Z</time>
      </trkpt>
      <trkpt lat="48.55721" lon="2.18048">
        <ele>87.8</ele>
        <time>2026-03-20T14:03:29Z</time>
      </trkpt>
      <trkpt lat="48.55716" lon="2.18047">
        <ele>87.8</ele>
        <time>2026-03-20T14:03:30Z</time>
      </trkpt>
      <trkpt lat="48.55712" lon="2.18045">
        <ele>87.8</ele>
        <time>2026-03-20T14:03:31Z</time>
      </trkpt>
      <trkpt lat="48.55708" lon="2.18044">
        <ele>88</ele>
        <time>2026-03-20T14:03:32Z</time>
      </trkpt>
      <trkpt lat="48.55704" lon="2.18043">
        <ele>88</ele>
        <time>2026-03-20T14:03:33Z</time>
      </trkpt>
      <trkpt lat="48.557" lon="2.18041">
        <ele>88</ele>
        <time>2026-03-20T14:03:34Z</time>
      </trkpt>
      <trkpt lat="48.55696" lon="2.1804">
        <ele>88.4</ele>
        <time>2026-03-20T14:03:35Z</time>
      </trkpt>
      <trkpt lat="48.55691" lon="2.18039">
        <ele>88.6</ele>
        <time>2026-03-20T14:03:36Z</time>
      </trkpt>
      <trkpt lat="48.55687" lon="2.18037">
        <ele>88.6</ele>
        <time>2026-03-20T14:03:37Z</time>
      </trkpt>
      <trkpt lat="48.55683" lon="2.18036">
        <ele>88.6</ele>
        <time>2026-03-20T14:03:38Z</time>
      </trkpt>
      <trkpt lat="48.55679" lon="2.18035">
        <ele>88.6</ele>
        <time>2026-03-20T14:03:39Z</time>
      </trkpt>
      <trkpt lat="48.55675" lon="2.18033">
        <ele>88.6</ele>
        <time>2026-03-20T14:03:40Z</time>
      </trkpt>
      <trkpt lat="48.55671" lon="2.18032">
        <ele>88.6</ele>
        <time>2026-03-20T14:03:41Z</time>
      </trkpt>
      <trkpt lat="48.55667" lon="2.18031">
        <ele>88.6</ele>
        <time>2026-03-20T14:03:42Z</time>
      </trkpt>
      <trkpt lat="48.55663" lon="2.1803">
        <ele>89.4</ele>
        <time>2026-03-20T14:03:43Z</time>
      </trkpt>
      <trkpt lat="48.55659" lon="2.18029">
        <ele>89.4</ele>
        <time>2026-03-20T14:03:44Z</time>
      </trkpt>
      <trkpt lat="48.55655" lon="2.18027">
        <ele>89.4</ele>
        <time>2026-03-20T14:03:45Z</time>
      </trkpt>
      <trkpt lat="48.55651" lon="2.18026">
        <ele>89.4</ele>
        <time>2026-03-20T14:03:46Z</time>
      </trkpt>
      <trkpt lat="48.55648" lon="2.18025">
        <ele>90.2</ele>
        <time>2026-03-20T14:03:47Z</time>
      </trkpt>
      <trkpt lat="48.55644" lon="2.18024">
        <ele>90.2</ele>
        <time>2026-03-20T14:03:48Z</time>
      </trkpt>
      <trkpt lat="48.55641" lon="2.18023">
        <ele>90.2</ele>
        <time>2026-03-20T14:03:49Z</time>
      </trkpt>
      <trkpt lat="48.55637" lon="2.18022">
        <ele>90.2</ele>
        <time>2026-03-20T14:03:50Z</time>
      </trkpt>
      <trkpt lat="48.55633" lon="2.18021">
        <ele>90.6</ele>
        <time>2026-03-20T14:03:51Z</time>
      </trkpt>
      <trkpt lat="48.5563" lon="2.1802">
        <ele>91</ele>
        <time>2026-03-20T14:03:52Z</time>
      </trkpt>
      <trkpt lat="48.55626" lon="2.18018">
        <ele>91</ele>
        <time>2026-03-20T14:03:53Z</time>
      </trkpt>
      <trkpt lat="48.55622" lon="2.18017">
        <ele>91</ele>
        <time>2026-03-20T14:03:54Z</time>
      </trkpt>
      <trkpt lat="48.55618" lon="2.18016">
        <ele>91</ele>
        <time>2026-03-20T14:03:55Z</time>
      </trkpt>
      <trkpt lat="48.55614" lon="2.18015">
        <ele>91.6</ele>
        <time>2026-03-20T14:03:56Z</time>
      </trkpt>
      <trkpt lat="48.5561" lon="2.18013">
        <ele>91.6</ele>
        <time>2026-03-20T14:03:57Z</time>
      </trkpt>
      <trkpt lat="48.55607" lon="2.18012">
        <ele>91.6</ele>
        <time>2026-03-20T14:03:58Z</time>
      </trkpt>
      <trkpt lat="48.55603" lon="2.18011">
        <ele>92.6</ele>
        <time>2026-03-20T14:03:59Z</time>
      </trkpt>
      <trkpt lat="48.55599" lon="2.1801">
        <ele>93</ele>
        <time>2026-03-20T14:04:00Z</time>
      </trkpt>
      <trkpt lat="48.55595" lon="2.18008">
        <ele>93</ele>
        <time>2026-03-20T14:04:01Z</time>
      </trkpt>
      <trkpt lat="48.55592" lon="2.18007">
        <ele>93</ele>
        <time>2026-03-20T14:04:02Z</time>
      </trkpt>
      <trkpt lat="48.55588" lon="2.18006">
        <ele>93.2</ele>
        <time>2026-03-20T14:04:03Z</time>
      </trkpt>
      <trkpt lat="48.55584" lon="2.18005">
        <ele>93.8</ele>
        <time>2026-03-20T14:04:04Z</time>
      </trkpt>
      <trkpt lat="48.5558" lon="2.18003">
        <ele>93.8</ele>
        <time>2026-03-20T14:04:05Z</time>
      </trkpt>
      <trkpt lat="48.55577" lon="2.18002">
        <ele>93.8</ele>
        <time>2026-03-20T14:04:06Z</time>
      </trkpt>
      <trkpt lat="48.55573" lon="2.18001">
        <ele>93.8</ele>
        <time>2026-03-20T14:04:07Z</time>
      </trkpt>
      <trkpt lat="48.55569" lon="2.18">
        <ele>94.2</ele>
        <time>2026-03-20T14:04:08Z</time>
      </trkpt>
      <trkpt lat="48.55565" lon="2.17999">
        <ele>94.2</ele>
        <time>2026-03-20T14:04:09Z</time>
      </trkpt>
      <trkpt lat="48.55561" lon="2.17998">
        <ele>94.2</ele>
        <time>2026-03-20T14:04:10Z</time>
      </trkpt>
      <trkpt lat="48.55558" lon="2.17996">
        <ele>95.2</ele>
        <time>2026-03-20T14:04:11Z</time>
      </trkpt>
      <trkpt lat="48.55554" lon="2.17995">
        <ele>95.2</ele>
        <time>2026-03-20T14:04:12Z</time>
      </trkpt>
      <trkpt lat="48.5555" lon="2.17994">
        <ele>95.2</ele>
        <time>2026-03-20T14:04:13Z</time>
      </trkpt>
      <trkpt lat="48.55546" lon="2.17993">
        <ele>95.2</ele>
        <time>2026-03-20T14:04:14Z</time>
      </trkpt>
      <trkpt lat="48.55542" lon="2.17993">
        <ele>95.2</ele>
        <time>2026-03-20T14:04:15Z</time>
      </trkpt>
      <trkpt lat="48.55539" lon="2.17994">
        <ele>95.8</ele>
        <time>2026-03-20T14:04:16Z</time>
      </trkpt>
      <trkpt lat="48.55535" lon="2.17996">
        <ele>95.8</ele>
        <time>2026-03-20T14:04:17Z</time>
      </trkpt>
      <trkpt lat="48.55532" lon="2.17997">
        <ele>95.8</ele>
        <time>2026-03-20T14:04:18Z</time>
      </trkpt>
      <trkpt lat="48.55529" lon="2.17998">
        <ele>95.8</ele>
        <time>2026-03-20T14:04:19Z</time>
      </trkpt>
      <trkpt lat="48.55527" lon="2.17999">
        <ele>97.2</ele>
        <time>2026-03-20T14:04:20Z</time>
      </trkpt>
      <trkpt lat="48.55525" lon="2.17999">
        <ele>97.2</ele>
        <time>2026-03-20T14:04:21Z</time>
      </trkpt>
      <trkpt lat="48.55523" lon="2.17998">
        <ele>97.2</ele>
        <time>2026-03-20T14:04:22Z</time>
      </trkpt>
      <trkpt lat="48.55523" lon="2.17998">
        <ele>96.8</ele>
        <time>2026-03-20T14:04:23Z</time>
      </trkpt>
      <trkpt lat="48.55523" lon="2.17998">
        <ele>97</ele>
        <time>2026-03-20T14:04:24Z</time>
      </trkpt>
      <trkpt lat="48.55523" lon="2.17998">
        <ele>97</ele>
        <time>2026-03-20T14:04:25Z</time>
      </trkpt>
      <trkpt lat="48.5552" lon="2.17996">
        <ele>96.2</ele>
        <time>2026-03-20T14:05:00Z</time>
      </trkpt>
      <trkpt lat="48.55518" lon="2.17994">
        <ele>96.2</ele>
        <time>2026-03-20T14:05:01Z</time>
      </trkpt>
      <trkpt lat="48.55516" lon="2.17992">
        <ele>96.2</ele>
        <time>2026-03-20T14:05:02Z</time>
      </trkpt>
      <trkpt lat="48.55513" lon="2.1799">
        <ele>95.8</ele>
        <time>2026-03-20T14:05:03Z</time>
      </trkpt>
      <trkpt lat="48.5551" lon="2.17988">
        <ele>95.6</ele>
        <time>2026-03-20T14:05:04Z</time>
      </trkpt>
      <trkpt lat="48.55507" lon="2.17987">
        <ele>95.6</ele>
        <time>2026-03-20T14:05:05Z</time>
      </trkpt>
      <trkpt lat="48.55503" lon="2.17985">
        <ele>95.6</ele>
        <time>2026-03-20T14:05:06Z</time>
      </trkpt>
      <trkpt lat="48.55499" lon="2.17983">
        <ele>95.4</ele>
        <time>2026-03-20T14:05:07Z</time>
      </trkpt>
      <trkpt lat="48.55494" lon="2.1798">
        <ele>95</ele>
        <time>2026-03-20T14:05:08Z</time>
      </trkpt>
      <trkpt lat="48.5549" lon="2.17978">
        <ele>95</ele>
        <time>2026-03-20T14:05:09Z</time>
      </trkpt>
      <trkpt lat="48.55485" lon="2.17976">
        <ele>95</ele>
        <time>2026-03-20T14:05:10Z</time>
      </trkpt>
      <trkpt lat="48.55481" lon="2.17974">
        <ele>94.2</ele>
        <time>2026-03-20T14:05:11Z</time>
      </trkpt>
      <trkpt lat="48.55476" lon="2.17972">
        <ele>94.6</ele>
        <time>2026-03-20T14:05:12Z</time>
      </trkpt>
      <trkpt lat="48.55472" lon="2.17969">
        <ele>94.6</ele>
        <time>2026-03-20T14:05:13Z</time>
      </trkpt>
      <trkpt lat="48.55467" lon="2.17966">
        <ele>94.6</ele>
        <time>2026-03-20T14:05:14Z</time>
      </trkpt>
      <trkpt lat="48.55462" lon="2.17964">
        <ele>94.6</ele>
        <time>2026-03-20T14:05:15Z</time>
      </trkpt>
      <trkpt lat="48.55458" lon="2.17962">
        <ele>93.8</ele>
        <time>2026-03-20T14:05:16Z</time>
      </trkpt>
      <trkpt lat="48.55453" lon="2.17959">
        <ele>93.8</ele>
        <time>2026-03-20T14:05:17Z</time>
      </trkpt>
      <trkpt lat="48.55448" lon="2.17957">
        <ele>93.8</ele>
        <time>2026-03-20T14:05:18Z</time>
      </trkpt>
      <trkpt lat="48.55443" lon="2.17954">
        <ele>93.8</ele>
        <time>2026-03-20T14:05:19Z</time>
      </trkpt>
      <trkpt lat="48.55439" lon="2.17952">
        <ele>93.2</ele>
        <time>2026-03-20T14:05:20Z</time>
      </trkpt>
      <trkpt lat="48.55434" lon="2.17949">
        <ele>93.2</ele>
        <time>2026-03-20T14:05:21Z</time>
      </trkpt>
      <trkpt lat="48.5543" lon="2.17947">
        <ele>93.2</ele>
        <time>2026-03-20T14:05:22Z</time>
      </trkpt>
      <trkpt lat="48.55425" lon="2.17944">
        <ele>93.2</ele>
        <time>2026-03-20T14:05:23Z</time>
      </trkpt>
      <trkpt lat="48.55421" lon="2.17942">
        <ele>93.6</ele>
        <time>2026-03-20T14:05:24Z</time>
      </trkpt>
      <trkpt lat="48.55417" lon="2.17939">
        <ele>93.6</ele>
        <time>2026-03-20T14:05:25Z</time>
      </trkpt>
      <trkpt lat="48.55413" lon="2.17937">
        <ele>93.6</ele>
        <time>2026-03-20T14:05:26Z</time>
      </trkpt>
      <trkpt lat="48.55409" lon="2.17935">
        <ele>94.4</ele>
        <time>2026-03-20T14:05:27Z</time>
      </trkpt>
      <trkpt lat="48.55406" lon="2.17934">
        <ele>94.2</ele>
        <time>2026-03-20T14:05:28Z</time>
      </trkpt>
      <trkpt lat="48.55403" lon="2.17933">
        <ele>94.2</ele>
        <time>2026-03-20T14:05:29Z</time>
      </trkpt>
      <trkpt lat="48.55401" lon="2.17931">
        <ele>94.2</ele>
        <time>2026-03-20T14:05:30Z</time>
      </trkpt>
      <trkpt lat="48.554" lon="2.17928">
        <ele>94.6</ele>
        <time>2026-03-20T14:05:31Z</time>
      </trkpt>
      <trkpt lat="48.55399" lon="2.17926">
        <ele>95.2</ele>
        <time>2026-03-20T14:05:32Z</time>
      </trkpt>
      <trkpt lat="48.55397" lon="2.17923">
        <ele>95.2</ele>
        <time>2026-03-20T14:05:33Z</time>
      </trkpt>
      <trkpt lat="48.55396" lon="2.1792">
        <ele>95.2</ele>
        <time>2026-03-20T14:05:34Z</time>
      </trkpt>
      <trkpt lat="48.55394" lon="2.17916">
        <ele>94.6</ele>
        <time>2026-03-20T14:05:35Z</time>
      </trkpt>
      <trkpt lat="48.55392" lon="2.17913">
        <ele>94.8</ele>
        <time>2026-03-20T14:05:36Z</time>
      </trkpt>
      <trkpt lat="48.55389" lon="2.1791">
        <ele>94.8</ele>
        <time>2026-03-20T14:05:37Z</time>
      </trkpt>
      <trkpt lat="48.55386" lon="2.17908">
        <ele>94.8</ele>
        <time>2026-03-20T14:05:38Z</time>
      </trkpt>
      <trkpt lat="48.55382" lon="2.17905">
        <ele>93.8</ele>
        <time>2026-03-20T14:05:39Z</time>
      </trkpt>
      <trkpt lat="48.55378" lon="2.17902">
        <ele>94.2</ele>
        <time>2026-03-20T14:05:40Z</time>
      </trkpt>
      <trkpt lat="48.55375" lon="2.17899">
        <ele>94.2</ele>
        <time>2026-03-20T14:05:41Z</time>
      </trkpt>
      <trkpt lat="48.55371" lon="2.17895">
        <ele>94.2</ele>
        <time>2026-03-20T14:05:42Z</time>
      </trkpt>
      <trkpt lat="48.55367" lon="2.17892">
        <ele>94.8</ele>
        <time>2026-03-20T14:05:43Z</time>
      </trkpt>
      <trkpt lat="48.55364" lon="2.17889">
        <ele>94.6</ele>
        <time>2026-03-20T14:05:44Z</time>
      </trkpt>
      <trkpt lat="48.5536" lon="2.17885">
        <ele>94.6</ele>
        <time>2026-03-20T14:05:45Z</time>
      </trkpt>
      <trkpt lat="48.55356" lon="2.17883">
        <ele>94.6</ele>
        <time>2026-03-20T14:05:46Z</time>
      </trkpt>
      <trkpt lat="48.55352" lon="2.1788">
        <ele>95.2</ele>
        <time>2026-03-20T14:05:47Z</time>
      </trkpt>
      <trkpt lat="48.55349" lon="2.17876">
        <ele>95.4</ele>
        <time>2026-03-20T14:05:48Z</time>
      </trkpt>
      <trkpt lat="48.55345" lon="2.17874">
        <ele>95.4</ele>
        <time>2026-03-20T14:05:49Z</time>
      </trkpt>
      <trkpt lat="48.55342" lon="2.17871">
        <ele>95.4</ele>
        <time>2026-03-20T14:05:50Z</time>
      </trkpt>
      <trkpt lat="48.55338" lon="2.17869">
        <ele>95.4</ele>
        <time>2026-03-20T14:05:51Z</time>
      </trkpt>
      <trkpt lat="48.55334" lon="2.17866">
        <ele>95.6</ele>
        <time>2026-03-20T14:05:52Z</time>
      </trkpt>
      <trkpt lat="48.5533" lon="2.17863">
        <ele>95.6</ele>
        <time>2026-03-20T14:05:53Z</time>
      </trkpt>
      <trkpt lat="48.55326" lon="2.1786">
        <ele>95.6</ele>
        <time>2026-03-20T14:05:54Z</time>
      </trkpt>
      <trkpt lat="48.55323" lon="2.17857">
        <ele>96.6</ele>
        <time>2026-03-20T14:05:55Z</time>
      </trkpt>
      <trkpt lat="48.55319" lon="2.17854">
        <ele>96.8</ele>
        <time>2026-03-20T14:05:56Z</time>
      </trkpt>
      <trkpt lat="48.55315" lon="2.1785">
        <ele>96.8</ele>
        <time>2026-03-20T14:05:57Z</time>
      </trkpt>
      <trkpt lat="48.55311" lon="2.17847">
        <ele>96.8</ele>
        <time>2026-03-20T14:05:58Z</time>
      </trkpt>
      <trkpt lat="48.55308" lon="2.17844">
        <ele>97.8</ele>
        <time>2026-03-20T14:05:59Z</time>
      </trkpt>
      <trkpt lat="48.55304" lon="2.17841">
        <ele>99</ele>
        <time>2026-03-20T14:06:00Z</time>
      </trkpt>
      <trkpt lat="48.553" lon="2.17838">
        <ele>99</ele>
        <time>2026-03-20T14:06:01Z</time>
      </trkpt>
      <trkpt lat="48.55296" lon="2.17836">
        <ele>99</ele>
        <time>2026-03-20T14:06:02Z</time>
      </trkpt>
      <trkpt lat="48.55292" lon="2.17833">
        <ele>99</ele>
        <time>2026-03-20T14:06:03Z</time>
      </trkpt>
      <trkpt lat="48.55288" lon="2.1783">
        <ele>99.4</ele>
        <time>2026-03-20T14:06:04Z</time>
      </trkpt>
      <trkpt lat="48.55285" lon="2.17827">
        <ele>99.4</ele>
        <time>2026-03-20T14:06:05Z</time>
      </trkpt>
      <trkpt lat="48.5528" lon="2.17824">
        <ele>99.4</ele>
        <time>2026-03-20T14:06:06Z</time>
      </trkpt>
      <trkpt lat="48.55277" lon="2.1782">
        <ele>99.4</ele>
        <time>2026-03-20T14:06:07Z</time>
      </trkpt>
      <trkpt lat="48.55273" lon="2.17817">
        <ele>100</ele>
        <time>2026-03-20T14:06:08Z</time>
      </trkpt>
      <trkpt lat="48.55269" lon="2.17815">
        <ele>100</ele>
        <time>2026-03-20T14:06:09Z</time>
      </trkpt>
      <trkpt lat="48.55265" lon="2.17812">
        <ele>100</ele>
        <time>2026-03-20T14:06:10Z</time>
      </trkpt>
      <trkpt lat="48.55261" lon="2.17809">
        <ele>100</ele>
        <time>2026-03-20T14:06:11Z</time>
      </trkpt>
      <trkpt lat="48.55257" lon="2.17806">
        <ele>100.4</ele>
        <time>2026-03-20T14:06:12Z</time>
      </trkpt>
      <trkpt lat="48.55253" lon="2.17803">
        <ele>100.4</ele>
        <time>2026-03-20T14:06:13Z</time>
      </trkpt>
      <trkpt lat="48.55249" lon="2.17801">
        <ele>100.4</ele>
        <time>2026-03-20T14:06:14Z</time>
      </trkpt>
      <trkpt lat="48.55245" lon="2.17799">
        <ele>101.4</ele>
        <time>2026-03-20T14:06:15Z</time>
      </trkpt>
      <trkpt lat="48.55241" lon="2.17798">
        <ele>101.2</ele>
        <time>2026-03-20T14:06:16Z</time>
      </trkpt>
      <trkpt lat="48.55237" lon="2.17796">
        <ele>101.2</ele>
        <time>2026-03-20T14:06:17Z</time>
      </trkpt>
      <trkpt lat="48.55232" lon="2.17794">
        <ele>101.2</ele>
        <time>2026-03-20T14:06:18Z</time>
      </trkpt>
      <trkpt lat="48.55228" lon="2.17792">
        <ele>101.2</ele>
        <time>2026-03-20T14:06:19Z</time>
      </trkpt>
      <trkpt lat="48.55224" lon="2.1779">
        <ele>101.6</ele>
        <time>2026-03-20T14:06:20Z</time>
      </trkpt>
      <trkpt lat="48.5522" lon="2.17788">
        <ele>101.6</ele>
        <time>2026-03-20T14:06:21Z</time>
      </trkpt>
      <trkpt lat="48.55216" lon="2.17787">
        <ele>101.6</ele>
        <time>2026-03-20T14:06:22Z</time>
      </trkpt>
      <trkpt lat="48.55212" lon="2.17785">
        <ele>101.6</ele>
        <time>2026-03-20T14:06:23Z</time>
      </trkpt>
      <trkpt lat="48.55209" lon="2.17783">
        <ele>101.8</ele>
        <time>2026-03-20T14:06:24Z</time>
      </trkpt>
      <trkpt lat="48.55205" lon="2.17782">
        <ele>101.8</ele>
        <time>2026-03-20T14:06:25Z</time>
      </trkpt>
      <trkpt lat="48.55202" lon="2.17782">
        <ele>101.8</ele>
        <time>2026-03-20T14:06:26Z</time>
      </trkpt>
      <trkpt lat="48.55199" lon="2.1778">
        <ele>101.8</ele>
        <time>2026-03-20T14:06:27Z</time>
      </trkpt>
      <trkpt lat="48.55196" lon="2.17779">
        <ele>102.2</ele>
        <time>2026-03-20T14:06:28Z</time>
      </trkpt>
      <trkpt lat="48.55192" lon="2.17777">
        <ele>102.2</ele>
        <time>2026-03-20T14:06:29Z</time>
      </trkpt>
      <trkpt lat="48.55189" lon="2.17775">
        <ele>102.2</ele>
        <time>2026-03-20T14:06:30Z</time>
      </trkpt>
      <trkpt lat="48.55185" lon="2.17773">
        <ele>102.2</ele>
        <time>2026-03-20T14:06:31Z</time>
      </trkpt>
      <trkpt lat="48.55181" lon="2.17771">
        <ele>101.4</ele>
        <time>2026-03-20T14:06:32Z</time>
      </trkpt>
      <trkpt lat="48.55177" lon="2.17769">
        <ele>101.4</ele>
        <time>2026-03-20T14:06:33Z</time>
      </trkpt>
      <trkpt lat="48.55173" lon="2.17767">
        <ele>101.4</ele>
        <time>2026-03-20T14:06:34Z</time>
      </trkpt>
      <trkpt lat="48.55169" lon="2.17765">
        <ele>100.6</ele>
        <time>2026-03-20T14:06:35Z</time>
      </trkpt>
      <trkpt lat="48.55164" lon="2.17762">
        <ele>100.4</ele>
        <time>2026-03-20T14:06:36Z</time>
      </trkpt>
      <trkpt lat="48.5516" lon="2.1776">
        <ele>100.4</ele>
        <time>2026-03-20T14:06:37Z</time>
      </trkpt>
      <trkpt lat="48.55155" lon="2.17757">
        <ele>100.4</ele>
        <time>2026-03-20T14:06:38Z</time>
      </trkpt>
      <trkpt lat="48.5515" lon="2.17754">
        <ele>100</ele>
        <time>2026-03-20T14:06:39Z</time>
      </trkpt>
      <trkpt lat="48.55145" lon="2.17752">
        <ele>99.4</ele>
        <time>2026-03-20T14:06:40Z</time>
      </trkpt>
      <trkpt lat="48.5514" lon="2.17749">
        <ele>99.4</ele>
        <time>2026-03-20T14:06:41Z</time>
      </trkpt>
      <trkpt lat="48.55135" lon="2.17745">
        <ele>99.4</ele>
        <time>2026-03-20T14:06:42Z</time>
      </trkpt>
      <trkpt lat="48.55129" lon="2.17741">
        <ele>98.4</ele>
        <time>2026-03-20T14:06:43Z</time>
      </trkpt>
      <trkpt lat="48.55124" lon="2.17737">
        <ele>98.6</ele>
        <time>2026-03-20T14:06:44Z</time>
      </trkpt>
      <trkpt lat="48.55117" lon="2.17733">
        <ele>98.6</ele>
        <time>2026-03-20T14:06:45Z</time>
      </trkpt>
      <trkpt lat="48.55111" lon="2.17729">
        <ele>98.6</ele>
        <time>2026-03-20T14:06:46Z</time>
      </trkpt>
      <trkpt lat="48.55104" lon="2.17724">
        <ele>98.6</ele>
        <time>2026-03-20T14:06:47Z</time>
      </trkpt>
      <trkpt lat="48.55098" lon="2.17719">
        <ele>96</ele>
        <time>2026-03-20T14:06:48Z</time>
      </trkpt>
      <trkpt lat="48.55092" lon="2.17712">
        <ele>96</ele>
        <time>2026-03-20T14:06:49Z</time>
      </trkpt>
      <trkpt lat="48.55085" lon="2.17705">
        <ele>96</ele>
        <time>2026-03-20T14:06:50Z</time>
      </trkpt>
      <trkpt lat="48.55079" lon="2.17697">
        <ele>95</ele>
        <time>2026-03-20T14:06:51Z</time>
      </trkpt>
      <trkpt lat="48.55073" lon="2.17689">
        <ele>92.6</ele>
        <time>2026-03-20T14:06:52Z</time>
      </trkpt>
      <trkpt lat="48.55067" lon="2.17679">
        <ele>92.6</ele>
        <time>2026-03-20T14:06:53Z</time>
      </trkpt>
      <trkpt lat="48.5506" lon="2.17669">
        <ele>92.6</ele>
        <time>2026-03-20T14:06:54Z</time>
      </trkpt>
      <trkpt lat="48.55054" lon="2.17658">
        <ele>91.6</ele>
        <time>2026-03-20T14:06:55Z</time>
      </trkpt>
      <trkpt lat="48.55047" lon="2.17648">
        <ele>90.6</ele>
        <time>2026-03-20T14:06:56Z</time>
      </trkpt>
      <trkpt lat="48.5504" lon="2.17638">
        <ele>90.6</ele>
        <time>2026-03-20T14:06:57Z</time>
      </trkpt>
      <trkpt lat="48.55033" lon="2.17628">
        <ele>90.6</ele>
        <time>2026-03-20T14:06:58Z</time>
      </trkpt>
      <trkpt lat="48.55025" lon="2.1762">
        <ele>89.6</ele>
        <time>2026-03-20T14:06:59Z</time>
      </trkpt>
      <trkpt lat="48.55016" lon="2.17612">
        <ele>88.6</ele>
        <time>2026-03-20T14:07:00Z</time>
      </trkpt>
      <trkpt lat="48.55007" lon="2.17607">
        <ele>88.6</ele>
        <time>2026-03-20T14:07:01Z</time>
      </trkpt>
      <trkpt lat="48.54998" lon="2.17603">
        <ele>88.6</ele>
        <time>2026-03-20T14:07:02Z</time>
      </trkpt>
      <trkpt lat="48.54989" lon="2.17599">
        <ele>88.6</ele>
        <time>2026-03-20T14:07:03Z</time>
      </trkpt>
      <trkpt lat="48.54979" lon="2.17596">
        <ele>87.8</ele>
        <time>2026-03-20T14:07:04Z</time>
      </trkpt>
      <trkpt lat="48.5497" lon="2.17593">
        <ele>87.8</ele>
        <time>2026-03-20T14:07:05Z</time>
      </trkpt>
      <trkpt lat="48.5496" lon="2.1759">
        <ele>87.8</ele>
        <time>2026-03-20T14:07:06Z</time>
      </trkpt>
      <trkpt lat="48.54951" lon="2.17587">
        <ele>87.8</ele>
        <time>2026-03-20T14:07:07Z</time>
      </trkpt>
      <trkpt lat="48.54942" lon="2.17583">
        <ele>85.2</ele>
        <time>2026-03-20T14:07:08Z</time>
      </trkpt>
      <trkpt lat="48.54933" lon="2.1758">
        <ele>85.2</ele>
        <time>2026-03-20T14:07:09Z</time>
      </trkpt>
      <trkpt lat="48.54924" lon="2.17577">
        <ele>85.2</ele>
        <time>2026-03-20T14:07:10Z</time>
      </trkpt>
      <trkpt lat="48.54915" lon="2.17573">
        <ele>84.2</ele>
        <time>2026-03-20T14:07:11Z</time>
      </trkpt>
      <trkpt lat="48.54906" lon="2.1757">
        <ele>84.2</ele>
        <time>2026-03-20T14:07:12Z</time>
      </trkpt>
      <trkpt lat="48.54898" lon="2.17567">
        <ele>84.2</ele>
        <time>2026-03-20T14:07:13Z</time>
      </trkpt>
      <trkpt lat="48.5489" lon="2.17563">
        <ele>84.2</ele>
        <time>2026-03-20T14:07:14Z</time>
      </trkpt>
      <trkpt lat="48.54882" lon="2.1756">
        <ele>83.4</ele>
        <time>2026-03-20T14:07:15Z</time>
      </trkpt>
      <trkpt lat="48.54874" lon="2.17556">
        <ele>83.8</ele>
        <time>2026-03-20T14:07:16Z</time>
      </trkpt>
      <trkpt lat="48.54866" lon="2.17551">
        <ele>83.8</ele>
        <time>2026-03-20T14:07:17Z</time>
      </trkpt>
      <trkpt lat="48.54858" lon="2.17547">
        <ele>83.8</ele>
        <time>2026-03-20T14:07:18Z</time>
      </trkpt>
      <trkpt lat="48.5485" lon="2.17542">
        <ele>83.2</ele>
        <time>2026-03-20T14:07:19Z</time>
      </trkpt>
      <trkpt lat="48.54842" lon="2.17538">
        <ele>81.2</ele>
        <time>2026-03-20T14:07:20Z</time>
      </trkpt>
      <trkpt lat="48.54834" lon="2.17533">
        <ele>81.2</ele>
        <time>2026-03-20T14:07:21Z</time>
      </trkpt>
      <trkpt lat="48.54826" lon="2.17529">
        <ele>81.2</ele>
        <time>2026-03-20T14:07:22Z</time>
      </trkpt>
      <trkpt lat="48.54817" lon="2.17524">
        <ele>81.2</ele>
        <time>2026-03-20T14:07:23Z</time>
      </trkpt>
      <trkpt lat="48.54808" lon="2.17519">
        <ele>80</ele>
        <time>2026-03-20T14:07:24Z</time>
      </trkpt>
      <trkpt lat="48.54799" lon="2.17515">
        <ele>80</ele>
        <time>2026-03-20T14:07:25Z</time>
      </trkpt>
      <trkpt lat="48.5479" lon="2.1751">
        <ele>80</ele>
        <time>2026-03-20T14:07:26Z</time>
      </trkpt>
      <trkpt lat="48.54781" lon="2.17505">
        <ele>79</ele>
        <time>2026-03-20T14:07:27Z</time>
      </trkpt>
      <trkpt lat="48.54771" lon="2.175">
        <ele>76</ele>
        <time>2026-03-20T14:07:28Z</time>
      </trkpt>
      <trkpt lat="48.54762" lon="2.17495">
        <ele>76</ele>
        <time>2026-03-20T14:07:29Z</time>
      </trkpt>
      <trkpt lat="48.54752" lon="2.1749">
        <ele>76</ele>
        <time>2026-03-20T14:07:30Z</time>
      </trkpt>
      <trkpt lat="48.54743" lon="2.17484">
        <ele>75</ele>
        <time>2026-03-20T14:07:31Z</time>
      </trkpt>
      <trkpt lat="48.54734" lon="2.17479">
        <ele>74.6</ele>
        <time>2026-03-20T14:07:32Z</time>
      </trkpt>
      <trkpt lat="48.54724" lon="2.17473">
        <ele>74.6</ele>
        <time>2026-03-20T14:07:33Z</time>
      </trkpt>
      <trkpt lat="48.54715" lon="2.17467">
        <ele>74.6</ele>
        <time>2026-03-20T14:07:34Z</time>
      </trkpt>
      <trkpt lat="48.54706" lon="2.17462">
        <ele>74.6</ele>
        <time>2026-03-20T14:07:35Z</time>
      </trkpt>
      <trkpt lat="48.54696" lon="2.17456">
        <ele>74.8</ele>
        <time>2026-03-20T14:07:36Z</time>
      </trkpt>
      <trkpt lat="48.54687" lon="2.17451">
        <ele>74.8</ele>
        <time>2026-03-20T14:07:37Z</time>
      </trkpt>
      <trkpt lat="48.54678" lon="2.17446">
        <ele>74.8</ele>
        <time>2026-03-20T14:07:38Z</time>
      </trkpt>
      <trkpt lat="48.5467" lon="2.17441">
        <ele>74.4</ele>
        <time>2026-03-20T14:07:39Z</time>
      </trkpt>
      <trkpt lat="48.54661" lon="2.17435">
        <ele>75.2</ele>
        <time>2026-03-20T14:07:40Z</time>
      </trkpt>
      <trkpt lat="48.54653" lon="2.1743">
        <ele>75.2</ele>
        <time>2026-03-20T14:07:41Z</time>
      </trkpt>
      <trkpt lat="48.54644" lon="2.17425">
        <ele>75.2</ele>
        <time>2026-03-20T14:07:42Z</time>
      </trkpt>
      <trkpt lat="48.54636" lon="2.1742">
        <ele>75.8</ele>
        <time>2026-03-20T14:07:43Z</time>
      </trkpt>
      <trkpt lat="48.54628" lon="2.17415">
        <ele>76.8</ele>
        <time>2026-03-20T14:07:44Z</time>
      </trkpt>
      <trkpt lat="48.54618" lon="2.17412">
        <ele>76.8</ele>
        <time>2026-03-20T14:07:45Z</time>
      </trkpt>
      <trkpt lat="48.54611" lon="2.17409">
        <ele>76.8</ele>
        <time>2026-03-20T14:07:46Z</time>
      </trkpt>
      <trkpt lat="48.54604" lon="2.17405">
        <ele>76.8</ele>
        <time>2026-03-20T14:07:47Z</time>
      </trkpt>
      <trkpt lat="48.54596" lon="2.17403">
        <ele>77.6</ele>
        <time>2026-03-20T14:07:48Z</time>
      </trkpt>
      <trkpt lat="48.54589" lon="2.17399">
        <ele>77.6</ele>
        <time>2026-03-20T14:07:49Z</time>
      </trkpt>
      <trkpt lat="48.54583" lon="2.17397">
        <ele>77.6</ele>
        <time>2026-03-20T14:07:50Z</time>
      </trkpt>
      <trkpt lat="48.54577" lon="2.17394">
        <ele>77.6</ele>
        <time>2026-03-20T14:07:51Z</time>
      </trkpt>
      <trkpt lat="48.54571" lon="2.17392">
        <ele>78.8</ele>
        <time>2026-03-20T14:07:52Z</time>
      </trkpt>
      <trkpt lat="48.54565" lon="2.1739">
        <ele>78.8</ele>
        <time>2026-03-20T14:07:53Z</time>
      </trkpt>
      <trkpt lat="48.5456" lon="2.17388">
        <ele>78.8</ele>
        <time>2026-03-20T14:07:54Z</time>
      </trkpt>
      <trkpt lat="48.54555" lon="2.17387">
        <ele>79.8</ele>
        <time>2026-03-20T14:07:55Z</time>
      </trkpt>
      <trkpt lat="48.5455" lon="2.17385">
        <ele>80.8</ele>
        <time>2026-03-20T14:07:56Z</time>
      </trkpt>
      <trkpt lat="48.54546" lon="2.17383">
        <ele>80.8</ele>
        <time>2026-03-20T14:07:57Z</time>
      </trkpt>
      <trkpt lat="48.54542" lon="2.17381">
        <ele>80.8</ele>
        <time>2026-03-20T14:07:58Z</time>
      </trkpt>
      <trkpt lat="48.54538" lon="2.17381">
        <ele>81.8</ele>
        <time>2026-03-20T14:07:59Z</time>
      </trkpt>
      <trkpt lat="48.54534" lon="2.1738">
        <ele>82.4</ele>
        <time>2026-03-20T14:08:00Z</time>
      </trkpt>
      <trkpt lat="48.5453" lon="2.17381">
        <ele>82.4</ele>
        <time>2026-03-20T14:08:01Z</time>
      </trkpt>
      <trkpt lat="48.54528" lon="2.17383">
        <ele>82.4</ele>
        <time>2026-03-20T14:08:02Z</time>
      </trkpt>
      <trkpt lat="48.54527" lon="2.17387">
        <ele>82.4</ele>
        <time>2026-03-20T14:08:03Z</time>
      </trkpt>
      <trkpt lat="48.54525" lon="2.1739">
        <ele>82.4</ele>
        <time>2026-03-20T14:08:04Z</time>
      </trkpt>
      <trkpt lat="48.54523" lon="2.17394">
        <ele>82.4</ele>
        <time>2026-03-20T14:08:05Z</time>
      </trkpt>
      <trkpt lat="48.54522" lon="2.17398">
        <ele>82.4</ele>
        <time>2026-03-20T14:08:06Z</time>
      </trkpt>
      <trkpt lat="48.5452" lon="2.17402">
        <ele>83.4</ele>
        <time>2026-03-20T14:08:07Z</time>
      </trkpt>
      <trkpt lat="48.54519" lon="2.17405">
        <ele>83.4</ele>
        <time>2026-03-20T14:08:08Z</time>
      </trkpt>
      <trkpt lat="48.54517" lon="2.17408">
        <ele>83.4</ele>
        <time>2026-03-20T14:08:09Z</time>
      </trkpt>
      <trkpt lat="48.54514" lon="2.17412">
        <ele>83.4</ele>
        <time>2026-03-20T14:08:10Z</time>
      </trkpt>
      <trkpt lat="48.54511" lon="2.17418">
        <ele>83.4</ele>
        <time>2026-03-20T14:08:11Z</time>
      </trkpt>
      <trkpt lat="48.54509" lon="2.17425">
        <ele>84.2</ele>
        <time>2026-03-20T14:08:12Z</time>
      </trkpt>
      <trkpt lat="48.54506" lon="2.1743">
        <ele>84.2</ele>
        <time>2026-03-20T14:08:13Z</time>
      </trkpt>
      <trkpt lat="48.54503" lon="2.17436">
        <ele>84.2</ele>
        <time>2026-03-20T14:08:14Z</time>
      </trkpt>
      <trkpt lat="48.54501" lon="2.17441">
        <ele>84.2</ele>
        <time>2026-03-20T14:08:15Z</time>
      </trkpt>
      <trkpt lat="48.54498" lon="2.17446">
        <ele>84.4</ele>
        <time>2026-03-20T14:08:16Z</time>
      </trkpt>
      <trkpt lat="48.54496" lon="2.17451">
        <ele>84.4</ele>
        <time>2026-03-20T14:08:17Z</time>
      </trkpt>
      <trkpt lat="48.54494" lon="2.17455">
        <ele>84.4</ele>
        <time>2026-03-20T14:08:18Z</time>
      </trkpt>
      <trkpt lat="48.54491" lon="2.1746">
        <ele>85.4</ele>
        <time>2026-03-20T14:08:19Z</time>
      </trkpt>
      <trkpt lat="48.54488" lon="2.17464">
        <ele>86.6</ele>
        <time>2026-03-20T14:08:20Z</time>
      </trkpt>
      <trkpt lat="48.54486" lon="2.17468">
        <ele>86.6</ele>
        <time>2026-03-20T14:08:21Z</time>
      </trkpt>
      <trkpt lat="48.54484" lon="2.17471">
        <ele>86.6</ele>
        <time>2026-03-20T14:08:22Z</time>
      </trkpt>
      <trkpt lat="48.54481" lon="2.17475">
        <ele>86.6</ele>
        <time>2026-03-20T14:08:23Z</time>
      </trkpt>
      <trkpt lat="48.54479" lon="2.17479">
        <ele>86.8</ele>
        <time>2026-03-20T14:08:24Z</time>
      </trkpt>
      <trkpt lat="48.54476" lon="2.17484">
        <ele>86.8</ele>
        <time>2026-03-20T14:08:25Z</time>
      </trkpt>
      <trkpt lat="48.54473" lon="2.17488">
        <ele>86.8</ele>
        <time>2026-03-20T14:08:26Z</time>
      </trkpt>
      <trkpt lat="48.54471" lon="2.17492">
        <ele>87.4</ele>
        <time>2026-03-20T14:08:27Z</time>
      </trkpt>
      <trkpt lat="48.54468" lon="2.17496">
        <ele>87.2</ele>
        <time>2026-03-20T14:08:28Z</time>
      </trkpt>
      <trkpt lat="48.54465" lon="2.175">
        <ele>87.2</ele>
        <time>2026-03-20T14:08:29Z</time>
      </trkpt>
      <trkpt lat="48.54461" lon="2.17506">
        <ele>87.2</ele>
        <time>2026-03-20T14:08:30Z</time>
      </trkpt>
      <trkpt lat="48.54459" lon="2.17509">
        <ele>87.8</ele>
        <time>2026-03-20T14:08:31Z</time>
      </trkpt>
      <trkpt lat="48.54456" lon="2.17512">
        <ele>88.4</ele>
        <time>2026-03-20T14:08:32Z</time>
      </trkpt>
      <trkpt lat="48.54454" lon="2.17516">
        <ele>88.4</ele>
        <time>2026-03-20T14:08:33Z</time>
      </trkpt>
      <trkpt lat="48.54451" lon="2.1752">
        <ele>88.4</ele>
        <time>2026-03-20T14:08:34Z</time>
      </trkpt>
      <trkpt lat="48.54448" lon="2.17523">
        <ele>88.4</ele>
        <time>2026-03-20T14:08:35Z</time>
      </trkpt>
      <trkpt lat="48.54446" lon="2.17526">
        <ele>89.4</ele>
        <time>2026-03-20T14:08:36Z</time>
      </trkpt>
      <trkpt lat="48.54443" lon="2.1753">
        <ele>89.4</ele>
        <time>2026-03-20T14:08:37Z</time>
      </trkpt>
      <trkpt lat="48.5444" lon="2.17534">
        <ele>89.4</ele>
        <time>2026-03-20T14:08:38Z</time>
      </trkpt>
      <trkpt lat="48.54438" lon="2.17539">
        <ele>89.4</ele>
        <time>2026-03-20T14:08:39Z</time>
      </trkpt>
      <trkpt lat="48.54435" lon="2.17542">
        <ele>89.2</ele>
        <time>2026-03-20T14:08:40Z</time>
      </trkpt>
      <trkpt lat="48.54432" lon="2.17546">
        <ele>89.2</ele>
        <time>2026-03-20T14:08:41Z</time>
      </trkpt>
      <trkpt lat="48.54429" lon="2.17551">
        <ele>89.2</ele>
        <time>2026-03-20T14:08:42Z</time>
      </trkpt>
      <trkpt lat="48.54426" lon="2.17555">
        <ele>90.2</ele>
        <time>2026-03-20T14:08:43Z</time>
      </trkpt>
      <trkpt lat="48.54423" lon="2.17559">
        <ele>90.6</ele>
        <time>2026-03-20T14:08:44Z</time>
      </trkpt>
      <trkpt lat="48.5442" lon="2.17563">
        <ele>90.6</ele>
        <time>2026-03-20T14:08:45Z</time>
      </trkpt>
      <trkpt lat="48.54417" lon="2.17566">
        <ele>90.6</ele>
        <time>2026-03-20T14:08:46Z</time>
      </trkpt>
      <trkpt lat="48.54414" lon="2.1757">
        <ele>90.6</ele>
        <time>2026-03-20T14:08:47Z</time>
      </trkpt>
      <trkpt lat="48.5441" lon="2.17575">
        <ele>90.6</ele>
        <time>2026-03-20T14:08:48Z</time>
      </trkpt>
      <trkpt lat="48.54407" lon="2.17578">
        <ele>90.6</ele>
        <time>2026-03-20T14:08:49Z</time>
      </trkpt>
      <trkpt lat="48.54404" lon="2.17582">
        <ele>90.6</ele>
        <time>2026-03-20T14:08:50Z</time>
      </trkpt>
      <trkpt lat="48.54401" lon="2.17585">
        <ele>90.6</ele>
        <time>2026-03-20T14:08:51Z</time>
      </trkpt>
      <trkpt lat="48.54397" lon="2.1759">
        <ele>91.4</ele>
        <time>2026-03-20T14:08:52Z</time>
      </trkpt>
      <trkpt lat="48.54394" lon="2.17593">
        <ele>91.4</ele>
        <time>2026-03-20T14:08:53Z</time>
      </trkpt>
      <trkpt lat="48.54391" lon="2.17597">
        <ele>91.4</ele>
        <time>2026-03-20T14:08:54Z</time>
      </trkpt>
      <trkpt lat="48.54388" lon="2.17602">
        <ele>91.8</ele>
        <time>2026-03-20T14:08:55Z</time>
      </trkpt>
      <trkpt lat="48.54384" lon="2.17605">
        <ele>92</ele>
        <time>2026-03-20T14:08:56Z</time>
      </trkpt>
      <trkpt lat="48.54381" lon="2.17609">
        <ele>92</ele>
        <time>2026-03-20T14:08:57Z</time>
      </trkpt>
      <trkpt lat="48.54378" lon="2.17614">
        <ele>92</ele>
        <time>2026-03-20T14:08:58Z</time>
      </trkpt>
      <trkpt lat="48.54375" lon="2.17617">
        <ele>92</ele>
        <time>2026-03-20T14:08:59Z</time>
      </trkpt>
      <trkpt lat="48.54372" lon="2.1762">
        <ele>92.6</ele>
        <time>2026-03-20T14:09:00Z</time>
      </trkpt>
      <trkpt lat="48.54368" lon="2.17625">
        <ele>92.6</ele>
        <time>2026-03-20T14:09:01Z</time>
      </trkpt>
      <trkpt lat="48.54364" lon="2.17629">
        <ele>92.6</ele>
        <time>2026-03-20T14:09:02Z</time>
      </trkpt>
      <trkpt lat="48.5436" lon="2.17633">
        <ele>92.6</ele>
        <time>2026-03-20T14:09:03Z</time>
      </trkpt>
      <trkpt lat="48.54357" lon="2.17637">
        <ele>93.4</ele>
        <time>2026-03-20T14:09:04Z</time>
      </trkpt>
      <trkpt lat="48.54353" lon="2.1764">
        <ele>93.4</ele>
        <time>2026-03-20T14:09:05Z</time>
      </trkpt>
      <trkpt lat="48.5435" lon="2.17644">
        <ele>93.4</ele>
        <time>2026-03-20T14:09:06Z</time>
      </trkpt>
      <trkpt lat="48.54346" lon="2.17649">
        <ele>93.4</ele>
        <time>2026-03-20T14:09:07Z</time>
      </trkpt>
      <trkpt lat="48.54342" lon="2.17654">
        <ele>94</ele>
        <time>2026-03-20T14:09:08Z</time>
      </trkpt>
      <trkpt lat="48.54338" lon="2.17658">
        <ele>94</ele>
        <time>2026-03-20T14:09:09Z</time>
      </trkpt>
      <trkpt lat="48.54334" lon="2.17663">
        <ele>94</ele>
        <time>2026-03-20T14:09:10Z</time>
      </trkpt>
      <trkpt lat="48.54331" lon="2.17667">
        <ele>93.4</ele>
        <time>2026-03-20T14:09:11Z</time>
      </trkpt>
      <trkpt lat="48.54327" lon="2.17671">
        <ele>94</ele>
        <time>2026-03-20T14:09:12Z</time>
      </trkpt>
      <trkpt lat="48.54323" lon="2.17675">
        <ele>94</ele>
        <time>2026-03-20T14:09:13Z</time>
      </trkpt>
      <trkpt lat="48.54319" lon="2.1768">
        <ele>94</ele>
        <time>2026-03-20T14:09:14Z</time>
      </trkpt>
      <trkpt lat="48.54315" lon="2.17684">
        <ele>94.6</ele>
        <time>2026-03-20T14:09:15Z</time>
      </trkpt>
      <trkpt lat="48.54311" lon="2.17689">
        <ele>94</ele>
        <time>2026-03-20T14:09:16Z</time>
      </trkpt>
      <trkpt lat="48.54308" lon="2.17693">
        <ele>94</ele>
        <time>2026-03-20T14:09:17Z</time>
      </trkpt>
      <trkpt lat="48.54304" lon="2.17697">
        <ele>94</ele>
        <time>2026-03-20T14:09:18Z</time>
      </trkpt>
      <trkpt lat="48.543" lon="2.17702">
        <ele>94</ele>
        <time>2026-03-20T14:09:19Z</time>
      </trkpt>
      <trkpt lat="48.54296" lon="2.17706">
        <ele>95</ele>
        <time>2026-03-20T14:09:20Z</time>
      </trkpt>
      <trkpt lat="48.54292" lon="2.1771">
        <ele>95</ele>
        <time>2026-03-20T14:09:21Z</time>
      </trkpt>
      <trkpt lat="48.54288" lon="2.17715">
        <ele>95</ele>
        <time>2026-03-20T14:09:22Z</time>
      </trkpt>
      <trkpt lat="48.54283" lon="2.1772">
        <ele>95</ele>
        <time>2026-03-20T14:09:23Z</time>
      </trkpt>
      <trkpt lat="48.54279" lon="2.17726">
        <ele>94.2</ele>
        <time>2026-03-20T14:09:24Z</time>
      </trkpt>
      <trkpt lat="48.54276" lon="2.1773">
        <ele>94.2</ele>
        <time>2026-03-20T14:09:25Z</time>
      </trkpt>
      <trkpt lat="48.54272" lon="2.17735">
        <ele>94.2</ele>
        <time>2026-03-20T14:09:26Z</time>
      </trkpt>
      <trkpt lat="48.54268" lon="2.17739">
        <ele>93.8</ele>
        <time>2026-03-20T14:09:27Z</time>
      </trkpt>
      <trkpt lat="48.54265" lon="2.17744">
        <ele>95.6</ele>
        <time>2026-03-20T14:09:28Z</time>
      </trkpt>
      <trkpt lat="48.54261" lon="2.17749">
        <ele>95.6</ele>
        <time>2026-03-20T14:09:29Z</time>
      </trkpt>
      <trkpt lat="48.54257" lon="2.17754">
        <ele>95.6</ele>
        <time>2026-03-20T14:09:30Z</time>
      </trkpt>
      <trkpt lat="48.54252" lon="2.17759">
        <ele>94.6</ele>
        <time>2026-03-20T14:09:31Z</time>
      </trkpt>
      <trkpt lat="48.54248" lon="2.17765">
        <ele>95.6</ele>
        <time>2026-03-20T14:09:32Z</time>
      </trkpt>
      <trkpt lat="48.54244" lon="2.1777">
        <ele>95.6</ele>
        <time>2026-03-20T14:09:33Z</time>
      </trkpt>
      <trkpt lat="48.54241" lon="2.17776">
        <ele>95.6</ele>
        <time>2026-03-20T14:09:34Z</time>
      </trkpt>
      <trkpt lat="48.54237" lon="2.17782">
        <ele>95.6</ele>
        <time>2026-03-20T14:09:35Z</time>
      </trkpt>
      <trkpt lat="48.54234" lon="2.17788">
        <ele>96.6</ele>
        <time>2026-03-20T14:09:36Z</time>
      </trkpt>
      <trkpt lat="48.5423" lon="2.17794">
        <ele>96.6</ele>
        <time>2026-03-20T14:09:37Z</time>
      </trkpt>
      <trkpt lat="48.54226" lon="2.17799">
        <ele>96.6</ele>
        <time>2026-03-20T14:09:38Z</time>
      </trkpt>
      <trkpt lat="48.54223" lon="2.17804">
        <ele>96.6</ele>
        <time>2026-03-20T14:09:39Z</time>
      </trkpt>
      <trkpt lat="48.54219" lon="2.17809">
        <ele>96.6</ele>
        <time>2026-03-20T14:09:40Z</time>
      </trkpt>
      <trkpt lat="48.54215" lon="2.17814">
        <ele>96.6</ele>
        <time>2026-03-20T14:09:41Z</time>
      </trkpt>
      <trkpt lat="48.54211" lon="2.17819">
        <ele>96.6</ele>
        <time>2026-03-20T14:09:42Z</time>
      </trkpt>
      <trkpt lat="48.54207" lon="2.17823">
        <ele>96.2</ele>
        <time>2026-03-20T14:09:43Z</time>
      </trkpt>
      <trkpt lat="48.54203" lon="2.17825">
        <ele>96</ele>
        <time>2026-03-20T14:09:44Z</time>
      </trkpt>
      <trkpt lat="48.542" lon="2.17829">
        <ele>96</ele>
        <time>2026-03-20T14:09:45Z</time>
      </trkpt>
      <trkpt lat="48.54196" lon="2.17834">
        <ele>96</ele>
        <time>2026-03-20T14:09:46Z</time>
      </trkpt>
      <trkpt lat="48.54193" lon="2.17838">
        <ele>96</ele>
        <time>2026-03-20T14:09:47Z</time>
      </trkpt>
      <trkpt lat="48.5419" lon="2.17842">
        <ele>96.2</ele>
        <time>2026-03-20T14:09:48Z</time>
      </trkpt>
      <trkpt lat="48.54187" lon="2.17847">
        <ele>96.2</ele>
        <time>2026-03-20T14:09:49Z</time>
      </trkpt>
      <trkpt lat="48.54184" lon="2.17851">
        <ele>96.2</ele>
        <time>2026-03-20T14:09:50Z</time>
      </trkpt>
      <trkpt lat="48.54182" lon="2.17855">
        <ele>96.6</ele>
        <time>2026-03-20T14:09:51Z</time>
      </trkpt>
      <trkpt lat="48.5418" lon="2.17858">
        <ele>97.2</ele>
        <time>2026-03-20T14:09:52Z</time>
      </trkpt>
      <trkpt lat="48.54178" lon="2.17862">
        <ele>97.2</ele>
        <time>2026-03-20T14:09:53Z</time>
      </trkpt>
      <trkpt lat="48.54176" lon="2.17867">
        <ele>97.2</ele>
        <time>2026-03-20T14:09:54Z</time>
      </trkpt>
      <trkpt lat="48.54175" lon="2.17872">
        <ele>96.2</ele>
        <time>2026-03-20T14:09:55Z</time>
      </trkpt>
      <trkpt lat="48.54173" lon="2.17877">
        <ele>97</ele>
        <time>2026-03-20T14:09:56Z</time>
      </trkpt>
      <trkpt lat="48.54171" lon="2.17881">
        <ele>97</ele>
        <time>2026-03-20T14:09:57Z</time>
      </trkpt>
      <trkpt lat="48.54169" lon="2.17886">
        <ele>97</ele>
        <time>2026-03-20T14:09:58Z</time>
      </trkpt>
      <trkpt lat="48.54167" lon="2.1789">
        <ele>97.8</ele>
        <time>2026-03-20T14:09:59Z</time>
      </trkpt>
      <trkpt lat="48.54165" lon="2.17894">
        <ele>97.6</ele>
        <time>2026-03-20T14:10:00Z</time>
      </trkpt>
      <trkpt lat="48.54163" lon="2.17898">
        <ele>97.6</ele>
        <time>2026-03-20T14:10:01Z</time>
      </trkpt>
      <trkpt lat="48.54161" lon="2.17903">
        <ele>97.6</ele>
        <time>2026-03-20T14:10:02Z</time>
      </trkpt>
      <trkpt lat="48.54159" lon="2.17907">
        <ele>97.8</ele>
        <time>2026-03-20T14:10:03Z</time>
      </trkpt>
      <trkpt lat="48.54157" lon="2.17911">
        <ele>98.6</ele>
        <time>2026-03-20T14:10:04Z</time>
      </trkpt>
      <trkpt lat="48.54155" lon="2.17916">
        <ele>98.6</ele>
        <time>2026-03-20T14:10:05Z</time>
      </trkpt>
      <trkpt lat="48.54154" lon="2.17921">
        <ele>98.6</ele>
        <time>2026-03-20T14:10:06Z</time>
      </trkpt>
      <trkpt lat="48.54153" lon="2.17926">
        <ele>99.2</ele>
        <time>2026-03-20T14:10:07Z</time>
      </trkpt>
      <trkpt lat="48.54152" lon="2.17931">
        <ele>98.6</ele>
        <time>2026-03-20T14:10:08Z</time>
      </trkpt>
      <trkpt lat="48.54152" lon="2.17936">
        <ele>98.6</ele>
        <time>2026-03-20T14:10:09Z</time>
      </trkpt>
      <trkpt lat="48.54151" lon="2.17941">
        <ele>98.6</ele>
        <time>2026-03-20T14:10:10Z</time>
      </trkpt>
      <trkpt lat="48.5415" lon="2.17947">
        <ele>98.6</ele>
        <time>2026-03-20T14:10:11Z</time>
      </trkpt>
      <trkpt lat="48.54149" lon="2.17953">
        <ele>98.6</ele>
        <time>2026-03-20T14:10:12Z</time>
      </trkpt>
      <trkpt lat="48.54147" lon="2.17958">
        <ele>98.6</ele>
        <time>2026-03-20T14:10:13Z</time>
      </trkpt>
      <trkpt lat="48.54146" lon="2.17964">
        <ele>98.6</ele>
        <time>2026-03-20T14:10:14Z</time>
      </trkpt>
      <trkpt lat="48.54145" lon="2.1797">
        <ele>98.6</ele>
        <time>2026-03-20T14:10:15Z</time>
      </trkpt>
      <trkpt lat="48.54144" lon="2.17977">
        <ele>98.2</ele>
        <time>2026-03-20T14:10:16Z</time>
      </trkpt>
      <trkpt lat="48.54143" lon="2.17983">
        <ele>98.2</ele>
        <time>2026-03-20T14:10:17Z</time>
      </trkpt>
      <trkpt lat="48.54141" lon="2.1799">
        <ele>98.2</ele>
        <time>2026-03-20T14:10:18Z</time>
      </trkpt>
      <trkpt lat="48.5414" lon="2.17997">
        <ele>98.2</ele>
        <time>2026-03-20T14:10:19Z</time>
      </trkpt>
      <trkpt lat="48.54138" lon="2.18003">
        <ele>98.6</ele>
        <time>2026-03-20T14:10:20Z</time>
      </trkpt>
      <trkpt lat="48.54136" lon="2.18009">
        <ele>98.6</ele>
        <time>2026-03-20T14:10:21Z</time>
      </trkpt>
      <trkpt lat="48.54134" lon="2.18016">
        <ele>98.6</ele>
        <time>2026-03-20T14:10:22Z</time>
      </trkpt>
      <trkpt lat="48.54132" lon="2.18022">
        <ele>97.6</ele>
        <time>2026-03-20T14:10:23Z</time>
      </trkpt>
      <trkpt lat="48.5413" lon="2.18029">
        <ele>97.4</ele>
        <time>2026-03-20T14:10:24Z</time>
      </trkpt>
      <trkpt lat="48.54128" lon="2.18035">
        <ele>97.4</ele>
        <time>2026-03-20T14:10:25Z</time>
      </trkpt>
      <trkpt lat="48.54126" lon="2.18041">
        <ele>97.4</ele>
        <time>2026-03-20T14:10:26Z</time>
      </trkpt>
      <trkpt lat="48.54124" lon="2.18048">
        <ele>97.6</ele>
        <time>2026-03-20T14:10:27Z</time>
      </trkpt>
      <trkpt lat="48.54122" lon="2.18054">
        <ele>98.2</ele>
        <time>2026-03-20T14:10:28Z</time>
      </trkpt>
      <trkpt lat="48.54119" lon="2.1806">
        <ele>98.2</ele>
        <time>2026-03-20T14:10:29Z</time>
      </trkpt>
      <trkpt lat="48.54117" lon="2.18067">
        <ele>98.2</ele>
        <time>2026-03-20T14:10:30Z</time>
      </trkpt>
      <trkpt lat="48.54114" lon="2.18073">
        <ele>97.6</ele>
        <time>2026-03-20T14:10:31Z</time>
      </trkpt>
      <trkpt lat="48.54112" lon="2.18079">
        <ele>98</ele>
        <time>2026-03-20T14:10:32Z</time>
      </trkpt>
      <trkpt lat="48.54109" lon="2.18086">
        <ele>98</ele>
        <time>2026-03-20T14:10:33Z</time>
      </trkpt>
      <trkpt lat="48.54107" lon="2.18092">
        <ele>98</ele>
        <time>2026-03-20T14:10:34Z</time>
      </trkpt>
      <trkpt lat="48.54104" lon="2.18098">
        <ele>98</ele>
        <time>2026-03-20T14:10:35Z</time>
      </trkpt>
      <trkpt lat="48.54101" lon="2.18103">
        <ele>98.8</ele>
        <time>2026-03-20T14:10:36Z</time>
      </trkpt>
      <trkpt lat="48.54099" lon="2.18109">
        <ele>98.8</ele>
        <time>2026-03-20T14:10:37Z</time>
      </trkpt>
      <trkpt lat="48.54096" lon="2.18114">
        <ele>98.8</ele>
        <time>2026-03-20T14:10:38Z</time>
      </trkpt>
      <trkpt lat="48.54093" lon="2.18119">
        <ele>98.4</ele>
        <time>2026-03-20T14:10:39Z</time>
      </trkpt>
      <trkpt lat="48.5409" lon="2.18123">
        <ele>99.2</ele>
        <time>2026-03-20T14:10:40Z</time>
      </trkpt>
      <trkpt lat="48.54087" lon="2.18126">
        <ele>99.2</ele>
        <time>2026-03-20T14:10:41Z</time>
      </trkpt>
      <trkpt lat="48.54083" lon="2.18129">
        <ele>99.2</ele>
        <time>2026-03-20T14:10:42Z</time>
      </trkpt>
      <trkpt lat="48.5408" lon="2.18132">
        <ele>99.2</ele>
        <time>2026-03-20T14:10:43Z</time>
      </trkpt>
      <trkpt lat="48.54076" lon="2.18134">
        <ele>99</ele>
        <time>2026-03-20T14:10:44Z</time>
      </trkpt>
      <trkpt lat="48.54072" lon="2.18136">
        <ele>99</ele>
        <time>2026-03-20T14:10:45Z</time>
      </trkpt>
      <trkpt lat="48.54069" lon="2.18139">
        <ele>99</ele>
        <time>2026-03-20T14:10:46Z</time>
      </trkpt>
      <trkpt lat="48.54065" lon="2.18142">
        <ele>99</ele>
        <time>2026-03-20T14:10:47Z</time>
      </trkpt>
      <trkpt lat="48.54061" lon="2.18145">
        <ele>98.6</ele>
        <time>2026-03-20T14:10:48Z</time>
      </trkpt>
      <trkpt lat="48.54057" lon="2.18148">
        <ele>98.6</ele>
        <time>2026-03-20T14:10:49Z</time>
      </trkpt>
      <trkpt lat="48.54054" lon="2.18151">
        <ele>98.6</ele>
        <time>2026-03-20T14:10:50Z</time>
      </trkpt>
      <trkpt lat="48.5405" lon="2.18154">
        <ele>98.6</ele>
        <time>2026-03-20T14:10:51Z</time>
      </trkpt>
      <trkpt lat="48.54047" lon="2.18158">
        <ele>99.4</ele>
        <time>2026-03-20T14:10:52Z</time>
      </trkpt>
      <trkpt lat="48.54044" lon="2.18161">
        <ele>99.4</ele>
        <time>2026-03-20T14:10:53Z</time>
      </trkpt>
      <trkpt lat="48.5404" lon="2.18163">
        <ele>99.4</ele>
        <time>2026-03-20T14:10:54Z</time>
      </trkpt>
      <trkpt lat="48.54037" lon="2.18165">
        <ele>100.4</ele>
        <time>2026-03-20T14:10:55Z</time>
      </trkpt>
      <trkpt lat="48.54034" lon="2.18168">
        <ele>101</ele>
        <time>2026-03-20T14:10:56Z</time>
      </trkpt>
      <trkpt lat="48.5403" lon="2.1817">
        <ele>101</ele>
        <time>2026-03-20T14:10:57Z</time>
      </trkpt>
      <trkpt lat="48.54027" lon="2.18173">
        <ele>101</ele>
        <time>2026-03-20T14:10:58Z</time>
      </trkpt>
      <trkpt lat="48.54024" lon="2.18176">
        <ele>101</ele>
        <time>2026-03-20T14:10:59Z</time>
      </trkpt>
      <trkpt lat="48.5402" lon="2.18178">
        <ele>100.6</ele>
        <time>2026-03-20T14:11:00Z</time>
      </trkpt>
      <trkpt lat="48.54017" lon="2.18181">
        <ele>100.6</ele>
        <time>2026-03-20T14:11:01Z</time>
      </trkpt>
      <trkpt lat="48.54013" lon="2.18183">
        <ele>100.6</ele>
        <time>2026-03-20T14:11:02Z</time>
      </trkpt>
      <trkpt lat="48.5401" lon="2.18186">
        <ele>100.6</ele>
        <time>2026-03-20T14:11:03Z</time>
      </trkpt>
      <trkpt lat="48.54007" lon="2.18189">
        <ele>101.8</ele>
        <time>2026-03-20T14:11:04Z</time>
      </trkpt>
      <trkpt lat="48.54004" lon="2.18193">
        <ele>101.8</ele>
        <time>2026-03-20T14:11:05Z</time>
      </trkpt>
      <trkpt lat="48.54001" lon="2.18196">
        <ele>101.8</ele>
        <time>2026-03-20T14:11:06Z</time>
      </trkpt>
      <trkpt lat="48.53998" lon="2.18199">
        <ele>101.8</ele>
        <time>2026-03-20T14:11:07Z</time>
      </trkpt>
      <trkpt lat="48.53995" lon="2.18202">
        <ele>101.8</ele>
        <time>2026-03-20T14:11:08Z</time>
      </trkpt>
      <trkpt lat="48.53992" lon="2.18205">
        <ele>101.8</ele>
        <time>2026-03-20T14:11:09Z</time>
      </trkpt>
      <trkpt lat="48.53989" lon="2.18209">
        <ele>101.8</ele>
        <time>2026-03-20T14:11:10Z</time>
      </trkpt>
      <trkpt lat="48.53986" lon="2.18212">
        <ele>102.8</ele>
        <time>2026-03-20T14:11:11Z</time>
      </trkpt>
      <trkpt lat="48.53983" lon="2.18215">
        <ele>103.6</ele>
        <time>2026-03-20T14:11:12Z</time>
      </trkpt>
      <trkpt lat="48.5398" lon="2.18218">
        <ele>103.6</ele>
        <time>2026-03-20T14:11:13Z</time>
      </trkpt>
      <trkpt lat="48.53977" lon="2.18221">
        <ele>103.6</ele>
        <time>2026-03-20T14:11:14Z</time>
      </trkpt>
      <trkpt lat="48.53974" lon="2.18224">
        <ele>103.4</ele>
        <time>2026-03-20T14:11:15Z</time>
      </trkpt>
      <trkpt lat="48.53971" lon="2.18227">
        <ele>103.8</ele>
        <time>2026-03-20T14:11:16Z</time>
      </trkpt>
      <trkpt lat="48.53969" lon="2.18229">
        <ele>103.8</ele>
        <time>2026-03-20T14:11:17Z</time>
      </trkpt>
      <trkpt lat="48.53965" lon="2.18233">
        <ele>103.8</ele>
        <time>2026-03-20T14:11:18Z</time>
      </trkpt>
      <trkpt lat="48.53963" lon="2.18235">
        <ele>104.6</ele>
        <time>2026-03-20T14:11:19Z</time>
      </trkpt>
      <trkpt lat="48.5396" lon="2.18239">
        <ele>105.4</ele>
        <time>2026-03-20T14:11:20Z</time>
      </trkpt>
      <trkpt lat="48.53957" lon="2.18242">
        <ele>105.4</ele>
        <time>2026-03-20T14:11:21Z</time>
      </trkpt>
      <trkpt lat="48.53954" lon="2.18245">
        <ele>105.4</ele>
        <time>2026-03-20T14:11:22Z</time>
      </trkpt>
      <trkpt lat="48.53951" lon="2.18249">
        <ele>105.2</ele>
        <time>2026-03-20T14:11:23Z</time>
      </trkpt>
      <trkpt lat="48.53948" lon="2.18252">
        <ele>104.8</ele>
        <time>2026-03-20T14:11:24Z</time>
      </trkpt>
      <trkpt lat="48.53945" lon="2.18255">
        <ele>104.8</ele>
        <time>2026-03-20T14:11:25Z</time>
      </trkpt>
      <trkpt lat="48.53942" lon="2.18258">
        <ele>104.8</ele>
        <time>2026-03-20T14:11:26Z</time>
      </trkpt>
      <trkpt lat="48.53939" lon="2.18261">
        <ele>104.6</ele>
        <time>2026-03-20T14:11:27Z</time>
      </trkpt>
      <trkpt lat="48.53935" lon="2.18264">
        <ele>106</ele>
        <time>2026-03-20T14:11:28Z</time>
      </trkpt>
      <trkpt lat="48.53932" lon="2.18268">
        <ele>106</ele>
        <time>2026-03-20T14:11:29Z</time>
      </trkpt>
      <trkpt lat="48.53929" lon="2.18271">
        <ele>106</ele>
        <time>2026-03-20T14:11:30Z</time>
      </trkpt>
      <trkpt lat="48.53926" lon="2.18274">
        <ele>106.8</ele>
        <time>2026-03-20T14:11:31Z</time>
      </trkpt>
      <trkpt lat="48.53923" lon="2.18277">
        <ele>106.8</ele>
        <time>2026-03-20T14:11:32Z</time>
      </trkpt>
      <trkpt lat="48.5392" lon="2.1828">
        <ele>106.8</ele>
        <time>2026-03-20T14:11:33Z</time>
      </trkpt>
      <trkpt lat="48.53917" lon="2.18283">
        <ele>106.8</ele>
        <time>2026-03-20T14:11:34Z</time>
      </trkpt>
      <trkpt lat="48.53914" lon="2.18286">
        <ele>106.8</ele>
        <time>2026-03-20T14:11:35Z</time>
      </trkpt>
      <trkpt lat="48.53911" lon="2.1829">
        <ele>106</ele>
        <time>2026-03-20T14:11:36Z</time>
      </trkpt>
      <trkpt lat="48.53908" lon="2.18294">
        <ele>106</ele>
        <time>2026-03-20T14:11:37Z</time>
      </trkpt>
      <trkpt lat="48.53905" lon="2.18297">
        <ele>106</ele>
        <time>2026-03-20T14:11:38Z</time>
      </trkpt>
      <trkpt lat="48.53902" lon="2.18301">
        <ele>107</ele>
        <time>2026-03-20T14:11:39Z</time>
      </trkpt>
      <trkpt lat="48.53899" lon="2.18304">
        <ele>107.2</ele>
        <time>2026-03-20T14:11:40Z</time>
      </trkpt>
      <trkpt lat="48.53896" lon="2.18308">
        <ele>107.2</ele>
        <time>2026-03-20T14:11:41Z</time>
      </trkpt>
      <trkpt lat="48.53894" lon="2.18312">
        <ele>107.2</ele>
        <time>2026-03-20T14:11:42Z</time>
      </trkpt>
      <trkpt lat="48.53891" lon="2.18315">
        <ele>107</ele>
        <time>2026-03-20T14:11:43Z</time>
      </trkpt>
      <trkpt lat="48.53889" lon="2.18319">
        <ele>107.2</ele>
        <time>2026-03-20T14:11:44Z</time>
      </trkpt>
      <trkpt lat="48.53886" lon="2.18323">
        <ele>107.2</ele>
        <time>2026-03-20T14:11:45Z</time>
      </trkpt>
      <trkpt lat="48.53884" lon="2.18327">
        <ele>107.2</ele>
        <time>2026-03-20T14:11:46Z</time>
      </trkpt>
      <trkpt lat="48.53882" lon="2.1833">
        <ele>108.2</ele>
        <time>2026-03-20T14:11:47Z</time>
      </trkpt>
      <trkpt lat="48.53879" lon="2.18334">
        <ele>108</ele>
        <time>2026-03-20T14:11:48Z</time>
      </trkpt>
      <trkpt lat="48.53877" lon="2.18338">
        <ele>108</ele>
        <time>2026-03-20T14:11:49Z</time>
      </trkpt>
      <trkpt lat="48.53874" lon="2.18341">
        <ele>108</ele>
        <time>2026-03-20T14:11:50Z</time>
      </trkpt>
      <trkpt lat="48.53872" lon="2.18345">
        <ele>108</ele>
        <time>2026-03-20T14:11:51Z</time>
      </trkpt>
      <trkpt lat="48.5387" lon="2.18349">
        <ele>107.6</ele>
        <time>2026-03-20T14:11:52Z</time>
      </trkpt>
      <trkpt lat="48.53868" lon="2.18353">
        <ele>107.6</ele>
        <time>2026-03-20T14:11:53Z</time>
      </trkpt>
      <trkpt lat="48.53866" lon="2.18358">
        <ele>107.6</ele>
        <time>2026-03-20T14:11:54Z</time>
      </trkpt>
      <trkpt lat="48.53864" lon="2.18361">
        <ele>108.6</ele>
        <time>2026-03-20T14:11:55Z</time>
      </trkpt>
      <trkpt lat="48.53861" lon="2.18365">
        <ele>108.8</ele>
        <time>2026-03-20T14:11:56Z</time>
      </trkpt>
      <trkpt lat="48.53859" lon="2.18369">
        <ele>108.8</ele>
        <time>2026-03-20T14:11:57Z</time>
      </trkpt>
      <trkpt lat="48.53857" lon="2.18374">
        <ele>108.8</ele>
        <time>2026-03-20T14:11:58Z</time>
      </trkpt>
      <trkpt lat="48.53856" lon="2.18378">
        <ele>108.8</ele>
        <time>2026-03-20T14:11:59Z</time>
      </trkpt>
      <trkpt lat="48.53854" lon="2.18382">
        <ele>109.4</ele>
        <time>2026-03-20T14:12:00Z</time>
      </trkpt>
      <trkpt lat="48.53852" lon="2.18386">
        <ele>109.4</ele>
        <time>2026-03-20T14:12:01Z</time>
      </trkpt>
      <trkpt lat="48.5385" lon="2.18389">
        <ele>109.4</ele>
        <time>2026-03-20T14:12:02Z</time>
      </trkpt>
      <trkpt lat="48.53848" lon="2.18393">
        <ele>109.4</ele>
        <time>2026-03-20T14:12:03Z</time>
      </trkpt>
      <trkpt lat="48.53847" lon="2.18397">
        <ele>109.4</ele>
        <time>2026-03-20T14:12:04Z</time>
      </trkpt>
      <trkpt lat="48.53845" lon="2.18402">
        <ele>109.4</ele>
        <time>2026-03-20T14:12:05Z</time>
      </trkpt>
      <trkpt lat="48.53844" lon="2.18406">
        <ele>109.4</ele>
        <time>2026-03-20T14:12:06Z</time>
      </trkpt>
      <trkpt lat="48.53842" lon="2.18411">
        <ele>109.4</ele>
        <time>2026-03-20T14:12:07Z</time>
      </trkpt>
      <trkpt lat="48.5384" lon="2.18415">
        <ele>109.6</ele>
        <time>2026-03-20T14:12:08Z</time>
      </trkpt>
      <trkpt lat="48.53839" lon="2.1842">
        <ele>109.6</ele>
        <time>2026-03-20T14:12:09Z</time>
      </trkpt>
      <trkpt lat="48.53837" lon="2.18425">
        <ele>109.6</ele>
        <time>2026-03-20T14:12:10Z</time>
      </trkpt>
      <trkpt lat="48.53835" lon="2.1843">
        <ele>110.2</ele>
        <time>2026-03-20T14:12:11Z</time>
      </trkpt>
      <trkpt lat="48.53834" lon="2.18435">
        <ele>110</ele>
        <time>2026-03-20T14:12:12Z</time>
      </trkpt>
      <trkpt lat="48.53832" lon="2.1844">
        <ele>110</ele>
        <time>2026-03-20T14:12:13Z</time>
      </trkpt>
      <trkpt lat="48.53831" lon="2.18446">
        <ele>110</ele>
        <time>2026-03-20T14:12:14Z</time>
      </trkpt>
      <trkpt lat="48.53829" lon="2.18451">
        <ele>110.6</ele>
        <time>2026-03-20T14:12:15Z</time>
      </trkpt>
      <trkpt lat="48.53828" lon="2.18456">
        <ele>110.6</ele>
        <time>2026-03-20T14:12:16Z</time>
      </trkpt>
      <trkpt lat="48.53826" lon="2.18461">
        <ele>110.6</ele>
        <time>2026-03-20T14:12:17Z</time>
      </trkpt>
      <trkpt lat="48.53824" lon="2.18466">
        <ele>110.6</ele>
        <time>2026-03-20T14:12:18Z</time>
      </trkpt>
      <trkpt lat="48.53823" lon="2.18472">
        <ele>110.6</ele>
        <time>2026-03-20T14:12:19Z</time>
      </trkpt>
      <trkpt lat="48.53821" lon="2.18477">
        <ele>110.6</ele>
        <time>2026-03-20T14:12:20Z</time>
      </trkpt>
      <trkpt lat="48.5382" lon="2.18482">
        <ele>110.6</ele>
        <time>2026-03-20T14:12:21Z</time>
      </trkpt>
      <trkpt lat="48.53818" lon="2.18487">
        <ele>110.6</ele>
        <time>2026-03-20T14:12:22Z</time>
      </trkpt>
      <trkpt lat="48.53816" lon="2.18492">
        <ele>109.6</ele>
        <time>2026-03-20T14:12:23Z</time>
      </trkpt>
      <trkpt lat="48.53814" lon="2.18497">
        <ele>109.6</ele>
        <time>2026-03-20T14:12:24Z</time>
      </trkpt>
      <trkpt lat="48.53813" lon="2.18502">
        <ele>109.6</ele>
        <time>2026-03-20T14:12:25Z</time>
      </trkpt>
      <trkpt lat="48.53811" lon="2.18507">
        <ele>109.6</ele>
        <time>2026-03-20T14:12:26Z</time>
      </trkpt>
      <trkpt lat="48.53809" lon="2.18512">
        <ele>109.6</ele>
        <time>2026-03-20T14:12:27Z</time>
      </trkpt>
      <trkpt lat="48.53807" lon="2.18516">
        <ele>110.4</ele>
        <time>2026-03-20T14:12:28Z</time>
      </trkpt>
      <trkpt lat="48.53805" lon="2.18521">
        <ele>110.4</ele>
        <time>2026-03-20T14:12:29Z</time>
      </trkpt>
      <trkpt lat="48.53803" lon="2.18526">
        <ele>110.4</ele>
        <time>2026-03-20T14:12:30Z</time>
      </trkpt>
      <trkpt lat="48.538" lon="2.1853">
        <ele>111.2</ele>
        <time>2026-03-20T14:12:31Z</time>
      </trkpt>
      <trkpt lat="48.53798" lon="2.18535">
        <ele>112</ele>
        <time>2026-03-20T14:12:32Z</time>
      </trkpt>
      <trkpt lat="48.53796" lon="2.1854">
        <ele>112</ele>
        <time>2026-03-20T14:12:33Z</time>
      </trkpt>
      <trkpt lat="48.53794" lon="2.18545">
        <ele>112</ele>
        <time>2026-03-20T14:12:34Z</time>
      </trkpt>
      <trkpt lat="48.53791" lon="2.18549">
        <ele>112</ele>
        <time>2026-03-20T14:12:35Z</time>
      </trkpt>
      <trkpt lat="48.53789" lon="2.18554">
        <ele>112.2</ele>
        <time>2026-03-20T14:12:36Z</time>
      </trkpt>
      <trkpt lat="48.53786" lon="2.18559">
        <ele>112.2</ele>
        <time>2026-03-20T14:12:37Z</time>
      </trkpt>
      <trkpt lat="48.53784" lon="2.18564">
        <ele>112.2</ele>
        <time>2026-03-20T14:12:38Z</time>
      </trkpt>
      <trkpt lat="48.53781" lon="2.18568">
        <ele>112.2</ele>
        <time>2026-03-20T14:12:39Z</time>
      </trkpt>
      <trkpt lat="48.53778" lon="2.18573">
        <ele>111.2</ele>
        <time>2026-03-20T14:12:40Z</time>
      </trkpt>
      <trkpt lat="48.53776" lon="2.18578">
        <ele>111.2</ele>
        <time>2026-03-20T14:12:41Z</time>
      </trkpt>
      <trkpt lat="48.53773" lon="2.18583">
        <ele>111.2</ele>
        <time>2026-03-20T14:12:42Z</time>
      </trkpt>
      <trkpt lat="48.5377" lon="2.18588">
        <ele>112.2</ele>
        <time>2026-03-20T14:12:43Z</time>
      </trkpt>
      <trkpt lat="48.53768" lon="2.18593">
        <ele>112.2</ele>
        <time>2026-03-20T14:12:44Z</time>
      </trkpt>
      <trkpt lat="48.53766" lon="2.18598">
        <ele>112.2</ele>
        <time>2026-03-20T14:12:45Z</time>
      </trkpt>
      <trkpt lat="48.53763" lon="2.18603">
        <ele>112.2</ele>
        <time>2026-03-20T14:12:46Z</time>
      </trkpt>
      <trkpt lat="48.5376" lon="2.18607">
        <ele>113.2</ele>
        <time>2026-03-20T14:12:47Z</time>
      </trkpt>
      <trkpt lat="48.53758" lon="2.18611">
        <ele>113.6</ele>
        <time>2026-03-20T14:12:48Z</time>
      </trkpt>
      <trkpt lat="48.53756" lon="2.18616">
        <ele>113.6</ele>
        <time>2026-03-20T14:12:49Z</time>
      </trkpt>
      <trkpt lat="48.53754" lon="2.1862">
        <ele>113.6</ele>
        <time>2026-03-20T14:12:50Z</time>
      </trkpt>
      <trkpt lat="48.53752" lon="2.18623">
        <ele>112.6</ele>
        <time>2026-03-20T14:12:51Z</time>
      </trkpt>
      <trkpt lat="48.53749" lon="2.18627">
        <ele>113.4</ele>
        <time>2026-03-20T14:12:52Z</time>
      </trkpt>
      <trkpt lat="48.53747" lon="2.18632">
        <ele>113.4</ele>
        <time>2026-03-20T14:12:53Z</time>
      </trkpt>
      <trkpt lat="48.53745" lon="2.18636">
        <ele>113.4</ele>
        <time>2026-03-20T14:12:54Z</time>
      </trkpt>
      <trkpt lat="48.53743" lon="2.1864">
        <ele>113.4</ele>
        <time>2026-03-20T14:12:55Z</time>
      </trkpt>
      <trkpt lat="48.53741" lon="2.18645">
        <ele>113.4</ele>
        <time>2026-03-20T14:12:56Z</time>
      </trkpt>
      <trkpt lat="48.53739" lon="2.1865">
        <ele>113.4</ele>
        <time>2026-03-20T14:12:57Z</time>
      </trkpt>
      <trkpt lat="48.53738" lon="2.18656">
        <ele>113.4</ele>
        <time>2026-03-20T14:12:58Z</time>
      </trkpt>
      <trkpt lat="48.53737" lon="2.1866">
        <ele>113.4</ele>
        <time>2026-03-20T14:12:59Z</time>
      </trkpt>
      <trkpt lat="48.53736" lon="2.18664">
        <ele>113.2</ele>
        <time>2026-03-20T14:13:00Z</time>
      </trkpt>
      <trkpt lat="48.53734" lon="2.18669">
        <ele>113.2</ele>
        <time>2026-03-20T14:13:01Z</time>
      </trkpt>
      <trkpt lat="48.53733" lon="2.18673">
        <ele>113.2</ele>
        <time>2026-03-20T14:13:02Z</time>
      </trkpt>
      <trkpt lat="48.53732" lon="2.18678">
        <ele>114</ele>
        <time>2026-03-20T14:13:03Z</time>
      </trkpt>
      <trkpt lat="48.5373" lon="2.18683">
        <ele>114.8</ele>
        <time>2026-03-20T14:13:04Z</time>
      </trkpt>
      <trkpt lat="48.53729" lon="2.18689">
        <ele>114.8</ele>
        <time>2026-03-20T14:13:05Z</time>
      </trkpt>
      <trkpt lat="48.53728" lon="2.18692">
        <ele>114.8</ele>
        <time>2026-03-20T14:13:06Z</time>
      </trkpt>
      <trkpt lat="48.53727" lon="2.18697">
        <ele>114.8</ele>
        <time>2026-03-20T14:13:07Z</time>
      </trkpt>
      <trkpt lat="48.53725" lon="2.18702">
        <ele>115.8</ele>
        <time>2026-03-20T14:13:08Z</time>
      </trkpt>
      <trkpt lat="48.53724" lon="2.18707">
        <ele>115.8</ele>
        <time>2026-03-20T14:13:09Z</time>
      </trkpt>
      <trkpt lat="48.53723" lon="2.18712">
        <ele>115.8</ele>
        <time>2026-03-20T14:13:10Z</time>
      </trkpt>
      <trkpt lat="48.53722" lon="2.18717">
        <ele>115.8</ele>
        <time>2026-03-20T14:13:11Z</time>
      </trkpt>
      <trkpt lat="48.53721" lon="2.1872">
        <ele>116</ele>
        <time>2026-03-20T14:13:12Z</time>
      </trkpt>
      <trkpt lat="48.5372" lon="2.18725">
        <ele>116</ele>
        <time>2026-03-20T14:13:13Z</time>
      </trkpt>
      <trkpt lat="48.53719" lon="2.1873">
        <ele>116</ele>
        <time>2026-03-20T14:13:14Z</time>
      </trkpt>
      <trkpt lat="48.53717" lon="2.18736">
        <ele>116.6</ele>
        <time>2026-03-20T14:13:15Z</time>
      </trkpt>
      <trkpt lat="48.53716" lon="2.18741">
        <ele>116.8</ele>
        <time>2026-03-20T14:13:16Z</time>
      </trkpt>
      <trkpt lat="48.53715" lon="2.18746">
        <ele>116.8</ele>
        <time>2026-03-20T14:13:17Z</time>
      </trkpt>
      <trkpt lat="48.53715" lon="2.18752">
        <ele>116.8</ele>
        <time>2026-03-20T14:13:18Z</time>
      </trkpt>
      <trkpt lat="48.53714" lon="2.18758">
        <ele>117.4</ele>
        <time>2026-03-20T14:13:19Z</time>
      </trkpt>
      <trkpt lat="48.53714" lon="2.18765">
        <ele>117</ele>
        <time>2026-03-20T14:13:20Z</time>
      </trkpt>
      <trkpt lat="48.53713" lon="2.18772">
        <ele>117</ele>
        <time>2026-03-20T14:13:21Z</time>
      </trkpt>
      <trkpt lat="48.53712" lon="2.18778">
        <ele>117</ele>
        <time>2026-03-20T14:13:22Z</time>
      </trkpt>
      <trkpt lat="48.53712" lon="2.18786">
        <ele>118</ele>
        <time>2026-03-20T14:13:23Z</time>
      </trkpt>
      <trkpt lat="48.53711" lon="2.18791">
        <ele>118</ele>
        <time>2026-03-20T14:13:24Z</time>
      </trkpt>
      <trkpt lat="48.53712" lon="2.18798">
        <ele>118</ele>
        <time>2026-03-20T14:13:25Z</time>
      </trkpt>
      <trkpt lat="48.5371" lon="2.18805">
        <ele>118</ele>
        <time>2026-03-20T14:13:26Z</time>
      </trkpt>
      <trkpt lat="48.5371" lon="2.18812">
        <ele>118.8</ele>
        <time>2026-03-20T14:13:27Z</time>
      </trkpt>
      <trkpt lat="48.5371" lon="2.18818">
        <ele>119.2</ele>
        <time>2026-03-20T14:13:28Z</time>
      </trkpt>
      <trkpt lat="48.53709" lon="2.18824">
        <ele>119.2</ele>
        <time>2026-03-20T14:13:29Z</time>
      </trkpt>
      <trkpt lat="48.53709" lon="2.1883">
        <ele>119.2</ele>
        <time>2026-03-20T14:13:30Z</time>
      </trkpt>
      <trkpt lat="48.53708" lon="2.18836">
        <ele>119.2</ele>
        <time>2026-03-20T14:13:31Z</time>
      </trkpt>
      <trkpt lat="48.53708" lon="2.1884">
        <ele>119.6</ele>
        <time>2026-03-20T14:13:32Z</time>
      </trkpt>
      <trkpt lat="48.53707" lon="2.18845">
        <ele>119.6</ele>
        <time>2026-03-20T14:13:33Z</time>
      </trkpt>
      <trkpt lat="48.53706" lon="2.18849">
        <ele>119.6</ele>
        <time>2026-03-20T14:13:34Z</time>
      </trkpt>
      <trkpt lat="48.53706" lon="2.18854">
        <ele>119.6</ele>
        <time>2026-03-20T14:13:35Z</time>
      </trkpt>
      <trkpt lat="48.53705" lon="2.18859">
        <ele>120.2</ele>
        <time>2026-03-20T14:13:36Z</time>
      </trkpt>
      <trkpt lat="48.53704" lon="2.18863">
        <ele>120.2</ele>
        <time>2026-03-20T14:13:37Z</time>
      </trkpt>
      <trkpt lat="48.53704" lon="2.18867">
        <ele>120.2</ele>
        <time>2026-03-20T14:13:38Z</time>
      </trkpt>
      <trkpt lat="48.53703" lon="2.18871">
        <ele>121.2</ele>
        <time>2026-03-20T14:13:39Z</time>
      </trkpt>
      <trkpt lat="48.53702" lon="2.18875">
        <ele>121.4</ele>
        <time>2026-03-20T14:13:40Z</time>
      </trkpt>
      <trkpt lat="48.53702" lon="2.18881">
        <ele>121.4</ele>
        <time>2026-03-20T14:13:41Z</time>
      </trkpt>
      <trkpt lat="48.53701" lon="2.18885">
        <ele>121.4</ele>
        <time>2026-03-20T14:13:42Z</time>
      </trkpt>
      <trkpt lat="48.537" lon="2.18889">
        <ele>122.2</ele>
        <time>2026-03-20T14:13:43Z</time>
      </trkpt>
      <trkpt lat="48.53699" lon="2.18892">
        <ele>122.4</ele>
        <time>2026-03-20T14:13:44Z</time>
      </trkpt>
      <trkpt lat="48.53698" lon="2.18896">
        <ele>122.4</ele>
        <time>2026-03-20T14:13:45Z</time>
      </trkpt>
      <trkpt lat="48.53697" lon="2.189">
        <ele>122.4</ele>
        <time>2026-03-20T14:13:46Z</time>
      </trkpt>
      <trkpt lat="48.53697" lon="2.18904">
        <ele>123</ele>
        <time>2026-03-20T14:13:47Z</time>
      </trkpt>
      <trkpt lat="48.53696" lon="2.18908">
        <ele>122.8</ele>
        <time>2026-03-20T14:13:48Z</time>
      </trkpt>
      <trkpt lat="48.53694" lon="2.18912">
        <ele>122.8</ele>
        <time>2026-03-20T14:13:49Z</time>
      </trkpt>
      <trkpt lat="48.53694" lon="2.18916">
        <ele>122.8</ele>
        <time>2026-03-20T14:13:50Z</time>
      </trkpt>
      <trkpt lat="48.53693" lon="2.18922">
        <ele>123.4</ele>
        <time>2026-03-20T14:13:51Z</time>
      </trkpt>
      <trkpt lat="48.53692" lon="2.18925">
        <ele>123.8</ele>
        <time>2026-03-20T14:13:52Z</time>
      </trkpt>
      <trkpt lat="48.53692" lon="2.1893">
        <ele>123.8</ele>
        <time>2026-03-20T14:13:53Z</time>
      </trkpt>
      <trkpt lat="48.53691" lon="2.18933">
        <ele>123.8</ele>
        <time>2026-03-20T14:13:54Z</time>
      </trkpt>
      <trkpt lat="48.53689" lon="2.18936">
        <ele>124.2</ele>
        <time>2026-03-20T14:13:55Z</time>
      </trkpt>
      <trkpt lat="48.53688" lon="2.1894">
        <ele>124.2</ele>
        <time>2026-03-20T14:13:56Z</time>
      </trkpt>
      <trkpt lat="48.53687" lon="2.18944">
        <ele>124.2</ele>
        <time>2026-03-20T14:13:57Z</time>
      </trkpt>
      <trkpt lat="48.53686" lon="2.18948">
        <ele>124.2</ele>
        <time>2026-03-20T14:13:58Z</time>
      </trkpt>
      <trkpt lat="48.53685" lon="2.18952">
        <ele>125.2</ele>
        <time>2026-03-20T14:13:59Z</time>
      </trkpt>
      <trkpt lat="48.53685" lon="2.18956">
        <ele>125.4</ele>
        <time>2026-03-20T14:14:00Z</time>
      </trkpt>
      <trkpt lat="48.53684" lon="2.1896">
        <ele>125.4</ele>
        <time>2026-03-20T14:14:01Z</time>
      </trkpt>
      <trkpt lat="48.53683" lon="2.18963">
        <ele>125.4</ele>
        <time>2026-03-20T14:14:02Z</time>
      </trkpt>
      <trkpt lat="48.53682" lon="2.18967">
        <ele>125.8</ele>
        <time>2026-03-20T14:14:03Z</time>
      </trkpt>
      <trkpt lat="48.53681" lon="2.1897">
        <ele>125.8</ele>
        <time>2026-03-20T14:14:04Z</time>
      </trkpt>
      <trkpt lat="48.5368" lon="2.18974">
        <ele>125.8</ele>
        <time>2026-03-20T14:14:05Z</time>
      </trkpt>
      <trkpt lat="48.53679" lon="2.18978">
        <ele>125.8</ele>
        <time>2026-03-20T14:14:06Z</time>
      </trkpt>
      <trkpt lat="48.53678" lon="2.18981">
        <ele>126</ele>
        <time>2026-03-20T14:14:07Z</time>
      </trkpt>
      <trkpt lat="48.53677" lon="2.18984">
        <ele>126.6</ele>
        <time>2026-03-20T14:14:08Z</time>
      </trkpt>
      <trkpt lat="48.53676" lon="2.18987">
        <ele>126.6</ele>
        <time>2026-03-20T14:14:09Z</time>
      </trkpt>
      <trkpt lat="48.53675" lon="2.18991">
        <ele>126.6</ele>
        <time>2026-03-20T14:14:10Z</time>
      </trkpt>
      <trkpt lat="48.53674" lon="2.18995">
        <ele>126.6</ele>
        <time>2026-03-20T14:14:11Z</time>
      </trkpt>
      <trkpt lat="48.53673" lon="2.18998">
        <ele>127.2</ele>
        <time>2026-03-20T14:14:12Z</time>
      </trkpt>
      <trkpt lat="48.53672" lon="2.19002">
        <ele>127.2</ele>
        <time>2026-03-20T14:14:13Z</time>
      </trkpt>
      <trkpt lat="48.53671" lon="2.19007">
        <ele>127.2</ele>
        <time>2026-03-20T14:14:14Z</time>
      </trkpt>
      <trkpt lat="48.53671" lon="2.19011">
        <ele>127.4</ele>
        <time>2026-03-20T14:14:15Z</time>
      </trkpt>
      <trkpt lat="48.5367" lon="2.19015">
        <ele>127.6</ele>
        <time>2026-03-20T14:14:16Z</time>
      </trkpt>
      <trkpt lat="48.53668" lon="2.19019">
        <ele>127.6</ele>
        <time>2026-03-20T14:14:17Z</time>
      </trkpt>
      <trkpt lat="48.53666" lon="2.19023">
        <ele>127.6</ele>
        <time>2026-03-20T14:14:18Z</time>
      </trkpt>
      <trkpt lat="48.53665" lon="2.19026">
        <ele>127.6</ele>
        <time>2026-03-20T14:14:19Z</time>
      </trkpt>
      <trkpt lat="48.53664" lon="2.1903">
        <ele>127.6</ele>
        <time>2026-03-20T14:14:20Z</time>
      </trkpt>
      <trkpt lat="48.53663" lon="2.19034">
        <ele>127.6</ele>
        <time>2026-03-20T14:14:21Z</time>
      </trkpt>
      <trkpt lat="48.53662" lon="2.19038">
        <ele>127.6</ele>
        <time>2026-03-20T14:14:22Z</time>
      </trkpt>
      <trkpt lat="48.53661" lon="2.19041">
        <ele>128.2</ele>
        <time>2026-03-20T14:14:23Z</time>
      </trkpt>
      <trkpt lat="48.5366" lon="2.19045">
        <ele>128.8</ele>
        <time>2026-03-20T14:14:24Z</time>
      </trkpt>
      <trkpt lat="48.5366" lon="2.19048">
        <ele>128.8</ele>
        <time>2026-03-20T14:14:25Z</time>
      </trkpt>
      <trkpt lat="48.53659" lon="2.19052">
        <ele>128.8</ele>
        <time>2026-03-20T14:14:26Z</time>
      </trkpt>
      <trkpt lat="48.53658" lon="2.19057">
        <ele>128.8</ele>
        <time>2026-03-20T14:14:27Z</time>
      </trkpt>
      <trkpt lat="48.53657" lon="2.1906">
        <ele>129.4</ele>
        <time>2026-03-20T14:14:28Z</time>
      </trkpt>
      <trkpt lat="48.53656" lon="2.19065">
        <ele>129.4</ele>
        <time>2026-03-20T14:14:29Z</time>
      </trkpt>
      <trkpt lat="48.53655" lon="2.19067">
        <ele>129.4</ele>
        <time>2026-03-20T14:14:30Z</time>
      </trkpt>
      <trkpt lat="48.53654" lon="2.19071">
        <ele>129.4</ele>
        <time>2026-03-20T14:14:31Z</time>
      </trkpt>
      <trkpt lat="48.53653" lon="2.19074">
        <ele>130</ele>
        <time>2026-03-20T14:14:32Z</time>
      </trkpt>
      <trkpt lat="48.53652" lon="2.19077">
        <ele>130</ele>
        <time>2026-03-20T14:14:33Z</time>
      </trkpt>
      <trkpt lat="48.53651" lon="2.1908">
        <ele>130</ele>
        <time>2026-03-20T14:14:34Z</time>
      </trkpt>
      <trkpt lat="48.53649" lon="2.19083">
        <ele>130</ele>
        <time>2026-03-20T14:14:35Z</time>
      </trkpt>
      <trkpt lat="48.53649" lon="2.19087">
        <ele>130</ele>
        <time>2026-03-20T14:14:36Z</time>
      </trkpt>
      <trkpt lat="48.53647" lon="2.19091">
        <ele>130</ele>
        <time>2026-03-20T14:14:37Z</time>
      </trkpt>
      <trkpt lat="48.53646" lon="2.19095">
        <ele>130</ele>
        <time>2026-03-20T14:14:38Z</time>
      </trkpt>
      <trkpt lat="48.53645" lon="2.19097">
        <ele>130.8</ele>
        <time>2026-03-20T14:14:39Z</time>
      </trkpt>
      <trkpt lat="48.53643" lon="2.19101">
        <ele>131</ele>
        <time>2026-03-20T14:14:40Z</time>
      </trkpt>
      <trkpt lat="48.53642" lon="2.19104">
        <ele>131</ele>
        <time>2026-03-20T14:14:41Z</time>
      </trkpt>
      <trkpt lat="48.5364" lon="2.19107">
        <ele>131</ele>
        <time>2026-03-20T14:14:42Z</time>
      </trkpt>
      <trkpt lat="48.53639" lon="2.1911">
        <ele>131</ele>
        <time>2026-03-20T14:14:43Z</time>
      </trkpt>
      <trkpt lat="48.53638" lon="2.19113">
        <ele>131.4</ele>
        <time>2026-03-20T14:14:44Z</time>
      </trkpt>
      <trkpt lat="48.53636" lon="2.19117">
        <ele>131.4</ele>
        <time>2026-03-20T14:14:45Z</time>
      </trkpt>
      <trkpt lat="48.53635" lon="2.1912">
        <ele>131.4</ele>
        <time>2026-03-20T14:14:46Z</time>
      </trkpt>
      <trkpt lat="48.53634" lon="2.19124">
        <ele>132</ele>
        <time>2026-03-20T14:14:47Z</time>
      </trkpt>
      <trkpt lat="48.53632" lon="2.19127">
        <ele>132.4</ele>
        <time>2026-03-20T14:14:48Z</time>
      </trkpt>
      <trkpt lat="48.53631" lon="2.1913">
        <ele>132.4</ele>
        <time>2026-03-20T14:14:49Z</time>
      </trkpt>
      <trkpt lat="48.53629" lon="2.19134">
        <ele>132.4</ele>
        <time>2026-03-20T14:14:50Z</time>
      </trkpt>
      <trkpt lat="48.53629" lon="2.19138">
        <ele>132.4</ele>
        <time>2026-03-20T14:14:51Z</time>
      </trkpt>
      <trkpt lat="48.53628" lon="2.19142">
        <ele>132.8</ele>
        <time>2026-03-20T14:14:52Z</time>
      </trkpt>
      <trkpt lat="48.53627" lon="2.19147">
        <ele>132.8</ele>
        <time>2026-03-20T14:14:53Z</time>
      </trkpt>
      <trkpt lat="48.53626" lon="2.19152">
        <ele>132.8</ele>
        <time>2026-03-20T14:14:54Z</time>
      </trkpt>
      <trkpt lat="48.53625" lon="2.19157">
        <ele>133.8</ele>
        <time>2026-03-20T14:14:55Z</time>
      </trkpt>
      <trkpt lat="48.53624" lon="2.19161">
        <ele>134</ele>
        <time>2026-03-20T14:14:56Z</time>
      </trkpt>
      <trkpt lat="48.53623" lon="2.19166">
        <ele>134</ele>
        <time>2026-03-20T14:14:57Z</time>
      </trkpt>
      <trkpt lat="48.53622" lon="2.1917">
        <ele>134</ele>
        <time>2026-03-20T14:14:58Z</time>
      </trkpt>
      <trkpt lat="48.53621" lon="2.19174">
        <ele>134.6</ele>
        <time>2026-03-20T14:14:59Z</time>
      </trkpt>
      <trkpt lat="48.53621" lon="2.19179">
        <ele>134.6</ele>
        <time>2026-03-20T14:15:00Z</time>
      </trkpt>
      <trkpt lat="48.5362" lon="2.19183">
        <ele>134.6</ele>
        <time>2026-03-20T14:15:01Z</time>
      </trkpt>
      <trkpt lat="48.53619" lon="2.19188">
        <ele>134.6</ele>
        <time>2026-03-20T14:15:02Z</time>
      </trkpt>
      <trkpt lat="48.53619" lon="2.19192">
        <ele>135.4</ele>
        <time>2026-03-20T14:15:03Z</time>
      </trkpt>
      <trkpt lat="48.53618" lon="2.19197">
        <ele>135</ele>
        <time>2026-03-20T14:15:04Z</time>
      </trkpt>
      <trkpt lat="48.53617" lon="2.192">
        <ele>135</ele>
        <time>2026-03-20T14:15:05Z</time>
      </trkpt>
      <trkpt lat="48.53617" lon="2.19205">
        <ele>135</ele>
        <time>2026-03-20T14:15:06Z</time>
      </trkpt>
      <trkpt lat="48.53616" lon="2.19208">
        <ele>135.8</ele>
        <time>2026-03-20T14:15:07Z</time>
      </trkpt>
      <trkpt lat="48.53615" lon="2.19212">
        <ele>136.2</ele>
        <time>2026-03-20T14:15:08Z</time>
      </trkpt>
      <trkpt lat="48.53614" lon="2.19216">
        <ele>136.2</ele>
        <time>2026-03-20T14:15:09Z</time>
      </trkpt>
      <trkpt lat="48.53614" lon="2.19219">
        <ele>136.2</ele>
        <time>2026-03-20T14:15:10Z</time>
      </trkpt>
      <trkpt lat="48.53613" lon="2.19223">
        <ele>136.2</ele>
        <time>2026-03-20T14:15:11Z</time>
      </trkpt>
      <trkpt lat="48.53612" lon="2.19226">
        <ele>136.8</ele>
        <time>2026-03-20T14:15:12Z</time>
      </trkpt>
      <trkpt lat="48.53612" lon="2.19231">
        <ele>136.8</ele>
        <time>2026-03-20T14:15:13Z</time>
      </trkpt>
      <trkpt lat="48.53611" lon="2.19235">
        <ele>136.8</ele>
        <time>2026-03-20T14:15:14Z</time>
      </trkpt>
      <trkpt lat="48.5361" lon="2.1924">
        <ele>136.8</ele>
        <time>2026-03-20T14:15:15Z</time>
      </trkpt>
      <trkpt lat="48.5361" lon="2.19244">
        <ele>137.2</ele>
        <time>2026-03-20T14:15:16Z</time>
      </trkpt>
      <trkpt lat="48.53609" lon="2.19248">
        <ele>137.2</ele>
        <time>2026-03-20T14:15:17Z</time>
      </trkpt>
      <trkpt lat="48.53608" lon="2.19252">
        <ele>137.2</ele>
        <time>2026-03-20T14:15:18Z</time>
      </trkpt>
      <trkpt lat="48.53606" lon="2.19255">
        <ele>138</ele>
        <time>2026-03-20T14:15:19Z</time>
      </trkpt>
      <trkpt lat="48.53606" lon="2.19257">
        <ele>138.4</ele>
        <time>2026-03-20T14:15:20Z</time>
      </trkpt>
      <trkpt lat="48.53604" lon="2.19261">
        <ele>138.4</ele>
        <time>2026-03-20T14:15:21Z</time>
      </trkpt>
      <trkpt lat="48.53603" lon="2.19264">
        <ele>138.4</ele>
        <time>2026-03-20T14:15:22Z</time>
      </trkpt>
      <trkpt lat="48.53602" lon="2.19266">
        <ele>138.4</ele>
        <time>2026-03-20T14:15:23Z</time>
      </trkpt>
      <trkpt lat="48.536" lon="2.19269">
        <ele>139.6</ele>
        <time>2026-03-20T14:15:24Z</time>
      </trkpt>
      <trkpt lat="48.53598" lon="2.19272">
        <ele>139.6</ele>
        <time>2026-03-20T14:15:25Z</time>
      </trkpt>
      <trkpt lat="48.53597" lon="2.19275">
        <ele>139.6</ele>
        <time>2026-03-20T14:15:26Z</time>
      </trkpt>
      <trkpt lat="48.53595" lon="2.19278">
        <ele>140</ele>
        <time>2026-03-20T14:15:27Z</time>
      </trkpt>
      <trkpt lat="48.53594" lon="2.1928">
        <ele>140.6</ele>
        <time>2026-03-20T14:15:28Z</time>
      </trkpt>
      <trkpt lat="48.53592" lon="2.19282">
        <ele>140.6</ele>
        <time>2026-03-20T14:15:29Z</time>
      </trkpt>
      <trkpt lat="48.5359" lon="2.19284">
        <ele>140.6</ele>
        <time>2026-03-20T14:15:30Z</time>
      </trkpt>
      <trkpt lat="48.53587" lon="2.19286">
        <ele>140.6</ele>
        <time>2026-03-20T14:15:31Z</time>
      </trkpt>
      <trkpt lat="48.53585" lon="2.19288">
        <ele>141</ele>
        <time>2026-03-20T14:15:32Z</time>
      </trkpt>
      <trkpt lat="48.53583" lon="2.1929">
        <ele>141</ele>
        <time>2026-03-20T14:15:33Z</time>
      </trkpt>
      <trkpt lat="48.53581" lon="2.19291">
        <ele>141</ele>
        <time>2026-03-20T14:15:34Z</time>
      </trkpt>
      <trkpt lat="48.53578" lon="2.19292">
        <ele>141</ele>
        <time>2026-03-20T14:15:35Z</time>
      </trkpt>
      <trkpt lat="48.53576" lon="2.19295">
        <ele>142</ele>
        <time>2026-03-20T14:15:36Z</time>
      </trkpt>
      <trkpt lat="48.53573" lon="2.19295">
        <ele>142</ele>
        <time>2026-03-20T14:15:37Z</time>
      </trkpt>
      <trkpt lat="48.5357" lon="2.19296">
        <ele>142</ele>
        <time>2026-03-20T14:15:38Z</time>
      </trkpt>
      <trkpt lat="48.53567" lon="2.19297">
        <ele>142</ele>
        <time>2026-03-20T14:15:39Z</time>
      </trkpt>
      <trkpt lat="48.53565" lon="2.19297">
        <ele>142.4</ele>
        <time>2026-03-20T14:15:40Z</time>
      </trkpt>
      <trkpt lat="48.53562" lon="2.19298">
        <ele>142.4</ele>
        <time>2026-03-20T14:15:41Z</time>
      </trkpt>
      <trkpt lat="48.53559" lon="2.19298">
        <ele>142.4</ele>
        <time>2026-03-20T14:15:42Z</time>
      </trkpt>
      <trkpt lat="48.53557" lon="2.19298">
        <ele>142.4</ele>
        <time>2026-03-20T14:15:43Z</time>
      </trkpt>
      <trkpt lat="48.53555" lon="2.19297">
        <ele>143</ele>
        <time>2026-03-20T14:15:44Z</time>
      </trkpt>
      <trkpt lat="48.53552" lon="2.19297">
        <ele>143</ele>
        <time>2026-03-20T14:15:45Z</time>
      </trkpt>
      <trkpt lat="48.53549" lon="2.19297">
        <ele>143</ele>
        <time>2026-03-20T14:15:46Z</time>
      </trkpt>
      <trkpt lat="48.53546" lon="2.19296">
        <ele>143</ele>
        <time>2026-03-20T14:15:47Z</time>
      </trkpt>
      <trkpt lat="48.53543" lon="2.19296">
        <ele>143.6</ele>
        <time>2026-03-20T14:15:48Z</time>
      </trkpt>
      <trkpt lat="48.53541" lon="2.19295">
        <ele>143.6</ele>
        <time>2026-03-20T14:15:49Z</time>
      </trkpt>
      <trkpt lat="48.53539" lon="2.19294">
        <ele>143.6</ele>
        <time>2026-03-20T14:15:50Z</time>
      </trkpt>
      <trkpt lat="48.53536" lon="2.19293">
        <ele>144.4</ele>
        <time>2026-03-20T14:15:51Z</time>
      </trkpt>
      <trkpt lat="48.53534" lon="2.19292">
        <ele>144.2</ele>
        <time>2026-03-20T14:15:52Z</time>
      </trkpt>
      <trkpt lat="48.5353" lon="2.19292">
        <ele>144.2</ele>
        <time>2026-03-20T14:15:53Z</time>
      </trkpt>
      <trkpt lat="48.53528" lon="2.1929">
        <ele>144.2</ele>
        <time>2026-03-20T14:15:54Z</time>
      </trkpt>
      <trkpt lat="48.53525" lon="2.1929">
        <ele>144.8</ele>
        <time>2026-03-20T14:15:55Z</time>
      </trkpt>
      <trkpt lat="48.53522" lon="2.19289">
        <ele>145.2</ele>
        <time>2026-03-20T14:15:56Z</time>
      </trkpt>
      <trkpt lat="48.53519" lon="2.19287">
        <ele>145.2</ele>
        <time>2026-03-20T14:15:57Z</time>
      </trkpt>
      <trkpt lat="48.53517" lon="2.19287">
        <ele>145.2</ele>
        <time>2026-03-20T14:15:58Z</time>
      </trkpt>
      <trkpt lat="48.53514" lon="2.19287">
        <ele>145.2</ele>
        <time>2026-03-20T14:15:59Z</time>
      </trkpt>
      <trkpt lat="48.53511" lon="2.19287">
        <ele>145.4</ele>
        <time>2026-03-20T14:16:00Z</time>
      </trkpt>
      <trkpt lat="48.53508" lon="2.19287">
        <ele>145.4</ele>
        <time>2026-03-20T14:16:01Z</time>
      </trkpt>
      <trkpt lat="48.53505" lon="2.19287">
        <ele>145.4</ele>
        <time>2026-03-20T14:16:02Z</time>
      </trkpt>
      <trkpt lat="48.53503" lon="2.19287">
        <ele>146.4</ele>
        <time>2026-03-20T14:16:03Z</time>
      </trkpt>
      <trkpt lat="48.535" lon="2.19287">
        <ele>146.2</ele>
        <time>2026-03-20T14:16:04Z</time>
      </trkpt>
      <trkpt lat="48.53497" lon="2.19289">
        <ele>146.2</ele>
        <time>2026-03-20T14:16:05Z</time>
      </trkpt>
      <trkpt lat="48.53494" lon="2.1929">
        <ele>146.2</ele>
        <time>2026-03-20T14:16:06Z</time>
      </trkpt>
      <trkpt lat="48.53491" lon="2.19291">
        <ele>147</ele>
        <time>2026-03-20T14:16:07Z</time>
      </trkpt>
      <trkpt lat="48.53488" lon="2.19293">
        <ele>147</ele>
        <time>2026-03-20T14:16:08Z</time>
      </trkpt>
      <trkpt lat="48.53486" lon="2.19295">
        <ele>147</ele>
        <time>2026-03-20T14:16:09Z</time>
      </trkpt>
      <trkpt lat="48.53483" lon="2.19296">
        <ele>147</ele>
        <time>2026-03-20T14:16:10Z</time>
      </trkpt>
      <trkpt lat="48.5348" lon="2.19298">
        <ele>147</ele>
        <time>2026-03-20T14:16:11Z</time>
      </trkpt>
      <trkpt lat="48.53478" lon="2.193">
        <ele>148</ele>
        <time>2026-03-20T14:16:12Z</time>
      </trkpt>
      <trkpt lat="48.53475" lon="2.19302">
        <ele>148</ele>
        <time>2026-03-20T14:16:13Z</time>
      </trkpt>
      <trkpt lat="48.53473" lon="2.19304">
        <ele>148</ele>
        <time>2026-03-20T14:16:14Z</time>
      </trkpt>
      <trkpt lat="48.5347" lon="2.19306">
        <ele>148</ele>
        <time>2026-03-20T14:16:15Z</time>
      </trkpt>
      <trkpt lat="48.53467" lon="2.19309">
        <ele>148</ele>
        <time>2026-03-20T14:16:16Z</time>
      </trkpt>
      <trkpt lat="48.53465" lon="2.19312">
        <ele>148</ele>
        <time>2026-03-20T14:16:17Z</time>
      </trkpt>
      <trkpt lat="48.53462" lon="2.19314">
        <ele>148</ele>
        <time>2026-03-20T14:16:18Z</time>
      </trkpt>
      <trkpt lat="48.5346" lon="2.19317">
        <ele>148.6</ele>
        <time>2026-03-20T14:16:19Z</time>
      </trkpt>
      <trkpt lat="48.53458" lon="2.19319">
        <ele>149</ele>
        <time>2026-03-20T14:16:20Z</time>
      </trkpt>
      <trkpt lat="48.53456" lon="2.19322">
        <ele>149</ele>
        <time>2026-03-20T14:16:21Z</time>
      </trkpt>
      <trkpt lat="48.53453" lon="2.19324">
        <ele>149</ele>
        <time>2026-03-20T14:16:22Z</time>
      </trkpt>
      <trkpt lat="48.53451" lon="2.19326">
        <ele>149</ele>
        <time>2026-03-20T14:16:23Z</time>
      </trkpt>
      <trkpt lat="48.53449" lon="2.19328">
        <ele>150</ele>
        <time>2026-03-20T14:16:24Z</time>
      </trkpt>
      <trkpt lat="48.53446" lon="2.1933">
        <ele>150</ele>
        <time>2026-03-20T14:16:25Z</time>
      </trkpt>
      <trkpt lat="48.53444" lon="2.19332">
        <ele>150</ele>
        <time>2026-03-20T14:16:26Z</time>
      </trkpt>
      <trkpt lat="48.53441" lon="2.19334">
        <ele>151</ele>
        <time>2026-03-20T14:16:27Z</time>
      </trkpt>
      <trkpt lat="48.53439" lon="2.19336">
        <ele>151.2</ele>
        <time>2026-03-20T14:16:28Z</time>
      </trkpt>
      <trkpt lat="48.53437" lon="2.19339">
        <ele>151.2</ele>
        <time>2026-03-20T14:16:29Z</time>
      </trkpt>
      <trkpt lat="48.53435" lon="2.19341">
        <ele>151.2</ele>
        <time>2026-03-20T14:16:30Z</time>
      </trkpt>
      <trkpt lat="48.53432" lon="2.19344">
        <ele>151.2</ele>
        <time>2026-03-20T14:16:31Z</time>
      </trkpt>
      <trkpt lat="48.5343" lon="2.19345">
        <ele>151.8</ele>
        <time>2026-03-20T14:16:32Z</time>
      </trkpt>
      <trkpt lat="48.53428" lon="2.19347">
        <ele>151.8</ele>
        <time>2026-03-20T14:16:33Z</time>
      </trkpt>
      <trkpt lat="48.53425" lon="2.19349">
        <ele>151.8</ele>
        <time>2026-03-20T14:16:34Z</time>
      </trkpt>
      <trkpt lat="48.53423" lon="2.19352">
        <ele>152.2</ele>
        <time>2026-03-20T14:16:35Z</time>
      </trkpt>
      <trkpt lat="48.53421" lon="2.19354">
        <ele>152.6</ele>
        <time>2026-03-20T14:16:36Z</time>
      </trkpt>
      <trkpt lat="48.53418" lon="2.19356">
        <ele>152.6</ele>
        <time>2026-03-20T14:16:37Z</time>
      </trkpt>
      <trkpt lat="48.53416" lon="2.19359">
        <ele>152.6</ele>
        <time>2026-03-20T14:16:38Z</time>
      </trkpt>
      <trkpt lat="48.53414" lon="2.19361">
        <ele>152.6</ele>
        <time>2026-03-20T14:16:39Z</time>
      </trkpt>
      <trkpt lat="48.53412" lon="2.19363">
        <ele>153.6</ele>
        <time>2026-03-20T14:16:40Z</time>
      </trkpt>
      <trkpt lat="48.5341" lon="2.19365">
        <ele>153.6</ele>
        <time>2026-03-20T14:16:41Z</time>
      </trkpt>
      <trkpt lat="48.53408" lon="2.19367">
        <ele>153.6</ele>
        <time>2026-03-20T14:16:42Z</time>
      </trkpt>
      <trkpt lat="48.53405" lon="2.19369">
        <ele>153.6</ele>
        <time>2026-03-20T14:16:43Z</time>
      </trkpt>
      <trkpt lat="48.53403" lon="2.19372">
        <ele>154.4</ele>
        <time>2026-03-20T14:16:44Z</time>
      </trkpt>
      <trkpt lat="48.53401" lon="2.19374">
        <ele>154.4</ele>
        <time>2026-03-20T14:16:45Z</time>
      </trkpt>
      <trkpt lat="48.53399" lon="2.19376">
        <ele>154.4</ele>
        <time>2026-03-20T14:16:46Z</time>
      </trkpt>
      <trkpt lat="48.53396" lon="2.19379">
        <ele>154.4</ele>
        <time>2026-03-20T14:16:47Z</time>
      </trkpt>
      <trkpt lat="48.53394" lon="2.1938">
        <ele>154.8</ele>
        <time>2026-03-20T14:16:48Z</time>
      </trkpt>
      <trkpt lat="48.53392" lon="2.19382">
        <ele>154.8</ele>
        <time>2026-03-20T14:16:49Z</time>
      </trkpt>
      <trkpt lat="48.53389" lon="2.19384">
        <ele>154.8</ele>
        <time>2026-03-20T14:16:50Z</time>
      </trkpt>
      <trkpt lat="48.53387" lon="2.19387">
        <ele>155.2</ele>
        <time>2026-03-20T14:16:51Z</time>
      </trkpt>
      <trkpt lat="48.53384" lon="2.19388">
        <ele>155.8</ele>
        <time>2026-03-20T14:16:52Z</time>
      </trkpt>
      <trkpt lat="48.53382" lon="2.19389">
        <ele>155.8</ele>
        <time>2026-03-20T14:16:53Z</time>
      </trkpt>
      <trkpt lat="48.53379" lon="2.19391">
        <ele>155.8</ele>
        <time>2026-03-20T14:16:54Z</time>
      </trkpt>
      <trkpt lat="48.53376" lon="2.19393">
        <ele>155.8</ele>
        <time>2026-03-20T14:16:55Z</time>
      </trkpt>
      <trkpt lat="48.53374" lon="2.19395">
        <ele>156.4</ele>
        <time>2026-03-20T14:16:56Z</time>
      </trkpt>
      <trkpt lat="48.53371" lon="2.19397">
        <ele>156.4</ele>
        <time>2026-03-20T14:16:57Z</time>
      </trkpt>
      <trkpt lat="48.53369" lon="2.19399">
        <ele>156.4</ele>
        <time>2026-03-20T14:16:58Z</time>
      </trkpt>
      <trkpt lat="48.53366" lon="2.194">
        <ele>156.4</ele>
        <time>2026-03-20T14:16:59Z</time>
      </trkpt>
      <trkpt lat="48.53364" lon="2.19401">
        <ele>157</ele>
        <time>2026-03-20T14:17:00Z</time>
      </trkpt>
      <trkpt lat="48.53361" lon="2.19403">
        <ele>157</ele>
        <time>2026-03-20T14:17:01Z</time>
      </trkpt>
      <trkpt lat="48.53359" lon="2.19403">
        <ele>157</ele>
        <time>2026-03-20T14:17:02Z</time>
      </trkpt>
      <trkpt lat="48.53356" lon="2.19403">
        <ele>157.4</ele>
        <time>2026-03-20T14:17:03Z</time>
      </trkpt>
      <trkpt lat="48.53354" lon="2.19403">
        <ele>157.4</ele>
        <time>2026-03-20T14:17:04Z</time>
      </trkpt>
      <trkpt lat="48.53351" lon="2.19403">
        <ele>157.4</ele>
        <time>2026-03-20T14:17:05Z</time>
      </trkpt>
      <trkpt lat="48.53348" lon="2.19403">
        <ele>157.4</ele>
        <time>2026-03-20T14:17:06Z</time>
      </trkpt>
      <trkpt lat="48.53345" lon="2.19403">
        <ele>157.4</ele>
        <time>2026-03-20T14:17:07Z</time>
      </trkpt>
      <trkpt lat="48.53343" lon="2.19402">
        <ele>157</ele>
        <time>2026-03-20T14:17:08Z</time>
      </trkpt>
      <trkpt lat="48.5334" lon="2.19402">
        <ele>157</ele>
        <time>2026-03-20T14:17:09Z</time>
      </trkpt>
      <trkpt lat="48.53337" lon="2.19402">
        <ele>157</ele>
        <time>2026-03-20T14:17:10Z</time>
      </trkpt>
      <trkpt lat="48.53334" lon="2.19401">
        <ele>157.6</ele>
        <time>2026-03-20T14:17:11Z</time>
      </trkpt>
      <trkpt lat="48.53331" lon="2.194">
        <ele>157.8</ele>
        <time>2026-03-20T14:17:12Z</time>
      </trkpt>
      <trkpt lat="48.53327" lon="2.194">
        <ele>157.8</ele>
        <time>2026-03-20T14:17:13Z</time>
      </trkpt>
      <trkpt lat="48.53324" lon="2.194">
        <ele>157.8</ele>
        <time>2026-03-20T14:17:14Z</time>
      </trkpt>
      <trkpt lat="48.53321" lon="2.19401">
        <ele>158</ele>
        <time>2026-03-20T14:17:15Z</time>
      </trkpt>
      <trkpt lat="48.53317" lon="2.194">
        <ele>158.2</ele>
        <time>2026-03-20T14:17:16Z</time>
      </trkpt>
      <trkpt lat="48.53314" lon="2.194">
        <ele>158.2</ele>
        <time>2026-03-20T14:17:17Z</time>
      </trkpt>
      <trkpt lat="48.5331" lon="2.19399">
        <ele>158.2</ele>
        <time>2026-03-20T14:17:18Z</time>
      </trkpt>
      <trkpt lat="48.53307" lon="2.19398">
        <ele>157.8</ele>
        <time>2026-03-20T14:17:19Z</time>
      </trkpt>
      <trkpt lat="48.53303" lon="2.19397">
        <ele>158.2</ele>
        <time>2026-03-20T14:17:20Z</time>
      </trkpt>
      <trkpt lat="48.53299" lon="2.19397">
        <ele>158.2</ele>
        <time>2026-03-20T14:17:21Z</time>
      </trkpt>
      <trkpt lat="48.53295" lon="2.19396">
        <ele>158.2</ele>
        <time>2026-03-20T14:17:22Z</time>
      </trkpt>
      <trkpt lat="48.53291" lon="2.19395">
        <ele>158.2</ele>
        <time>2026-03-20T14:17:23Z</time>
      </trkpt>
      <trkpt lat="48.53287" lon="2.19394">
        <ele>158.2</ele>
        <time>2026-03-20T14:17:24Z</time>
      </trkpt>
      <trkpt lat="48.53283" lon="2.19394">
        <ele>158.2</ele>
        <time>2026-03-20T14:17:25Z</time>
      </trkpt>
      <trkpt lat="48.53278" lon="2.19393">
        <ele>158.2</ele>
        <time>2026-03-20T14:17:26Z</time>
      </trkpt>
      <trkpt lat="48.53274" lon="2.19393">
        <ele>158</ele>
        <time>2026-03-20T14:17:27Z</time>
      </trkpt>
      <trkpt lat="48.53269" lon="2.19394">
        <ele>158.2</ele>
        <time>2026-03-20T14:17:28Z</time>
      </trkpt>
      <trkpt lat="48.53264" lon="2.19394">
        <ele>158.2</ele>
        <time>2026-03-20T14:17:29Z</time>
      </trkpt>
      <trkpt lat="48.5326" lon="2.19394">
        <ele>158.2</ele>
        <time>2026-03-20T14:17:30Z</time>
      </trkpt>
      <trkpt lat="48.53255" lon="2.19393">
        <ele>158.2</ele>
        <time>2026-03-20T14:17:31Z</time>
      </trkpt>
      <trkpt lat="48.5325" lon="2.19393">
        <ele>157.8</ele>
        <time>2026-03-20T14:17:32Z</time>
      </trkpt>
      <trkpt lat="48.53245" lon="2.19393">
        <ele>157.8</ele>
        <time>2026-03-20T14:17:33Z</time>
      </trkpt>
      <trkpt lat="48.5324" lon="2.19393">
        <ele>157.8</ele>
        <time>2026-03-20T14:17:34Z</time>
      </trkpt>
      <trkpt lat="48.53235" lon="2.19392">
        <ele>157.8</ele>
        <time>2026-03-20T14:17:35Z</time>
      </trkpt>
      <trkpt lat="48.5323" lon="2.19392">
        <ele>157.2</ele>
        <time>2026-03-20T14:17:36Z</time>
      </trkpt>
      <trkpt lat="48.53225" lon="2.19391">
        <ele>157.2</ele>
        <time>2026-03-20T14:17:37Z</time>
      </trkpt>
      <trkpt lat="48.53219" lon="2.1939">
        <ele>157.2</ele>
        <time>2026-03-20T14:17:38Z</time>
      </trkpt>
      <trkpt lat="48.53214" lon="2.19389">
        <ele>157.2</ele>
        <time>2026-03-20T14:17:39Z</time>
      </trkpt>
      <trkpt lat="48.53209" lon="2.19388">
        <ele>156.8</ele>
        <time>2026-03-20T14:17:40Z</time>
      </trkpt>
      <trkpt lat="48.53203" lon="2.19387">
        <ele>156.8</ele>
        <time>2026-03-20T14:17:41Z</time>
      </trkpt>
      <trkpt lat="48.53198" lon="2.19386">
        <ele>156.8</ele>
        <time>2026-03-20T14:17:42Z</time>
      </trkpt>
      <trkpt lat="48.53193" lon="2.19385">
        <ele>157</ele>
        <time>2026-03-20T14:17:43Z</time>
      </trkpt>
      <trkpt lat="48.53188" lon="2.19384">
        <ele>156.8</ele>
        <time>2026-03-20T14:17:44Z</time>
      </trkpt>
      <trkpt lat="48.53183" lon="2.19383">
        <ele>156.8</ele>
        <time>2026-03-20T14:17:45Z</time>
      </trkpt>
      <trkpt lat="48.53177" lon="2.19382">
        <ele>156.8</ele>
        <time>2026-03-20T14:17:46Z</time>
      </trkpt>
      <trkpt lat="48.53172" lon="2.1938">
        <ele>156.8</ele>
        <time>2026-03-20T14:17:47Z</time>
      </trkpt>
      <trkpt lat="48.53166" lon="2.19378">
        <ele>156.6</ele>
        <time>2026-03-20T14:17:48Z</time>
      </trkpt>
      <trkpt lat="48.53161" lon="2.19375">
        <ele>156.6</ele>
        <time>2026-03-20T14:17:49Z</time>
      </trkpt>
      <trkpt lat="48.53156" lon="2.19372">
        <ele>156.6</ele>
        <time>2026-03-20T14:17:50Z</time>
      </trkpt>
      <trkpt lat="48.5315" lon="2.19367">
        <ele>156.6</ele>
        <time>2026-03-20T14:17:51Z</time>
      </trkpt>
      <trkpt lat="48.53145" lon="2.19363">
        <ele>156.8</ele>
        <time>2026-03-20T14:17:52Z</time>
      </trkpt>
      <trkpt lat="48.53141" lon="2.19358">
        <ele>156.8</ele>
        <time>2026-03-20T14:17:53Z</time>
      </trkpt>
      <trkpt lat="48.53136" lon="2.19352">
        <ele>156.8</ele>
        <time>2026-03-20T14:17:54Z</time>
      </trkpt>
      <trkpt lat="48.53131" lon="2.19347">
        <ele>156.8</ele>
        <time>2026-03-20T14:17:55Z</time>
      </trkpt>
      <trkpt lat="48.53126" lon="2.19342">
        <ele>156</ele>
        <time>2026-03-20T14:17:56Z</time>
      </trkpt>
      <trkpt lat="48.53122" lon="2.19336">
        <ele>156</ele>
        <time>2026-03-20T14:17:57Z</time>
      </trkpt>
      <trkpt lat="48.53117" lon="2.19331">
        <ele>156</ele>
        <time>2026-03-20T14:17:58Z</time>
      </trkpt>
      <trkpt lat="48.53113" lon="2.19326">
        <ele>156</ele>
        <time>2026-03-20T14:17:59Z</time>
      </trkpt>
      <trkpt lat="48.53109" lon="2.19321">
        <ele>156</ele>
        <time>2026-03-20T14:18:00Z</time>
      </trkpt>
      <trkpt lat="48.53105" lon="2.19315">
        <ele>156</ele>
        <time>2026-03-20T14:18:01Z</time>
      </trkpt>
      <trkpt lat="48.53101" lon="2.19309">
        <ele>156</ele>
        <time>2026-03-20T14:18:02Z</time>
      </trkpt>
      <trkpt lat="48.53098" lon="2.19303">
        <ele>156.2</ele>
        <time>2026-03-20T14:18:03Z</time>
      </trkpt>
      <trkpt lat="48.53096" lon="2.19296">
        <ele>156.4</ele>
        <time>2026-03-20T14:18:04Z</time>
      </trkpt>
      <trkpt lat="48.53093" lon="2.1929">
        <ele>156.4</ele>
        <time>2026-03-20T14:18:05Z</time>
      </trkpt>
      <trkpt lat="48.53089" lon="2.19286">
        <ele>156.4</ele>
        <time>2026-03-20T14:18:06Z</time>
      </trkpt>
      <trkpt lat="48.53084" lon="2.19284">
        <ele>156.8</ele>
        <time>2026-03-20T14:18:07Z</time>
      </trkpt>
      <trkpt lat="48.53079" lon="2.19285">
        <ele>156.8</ele>
        <time>2026-03-20T14:18:08Z</time>
      </trkpt>
      <trkpt lat="48.53074" lon="2.19289">
        <ele>156.8</ele>
        <time>2026-03-20T14:18:09Z</time>
      </trkpt>
      <trkpt lat="48.53071" lon="2.19294">
        <ele>156.8</ele>
        <time>2026-03-20T14:18:10Z</time>
      </trkpt>
      <trkpt lat="48.53068" lon="2.193">
        <ele>156.6</ele>
        <time>2026-03-20T14:18:11Z</time>
      </trkpt>
      <trkpt lat="48.53065" lon="2.19306">
        <ele>157</ele>
        <time>2026-03-20T14:18:12Z</time>
      </trkpt>
      <trkpt lat="48.53062" lon="2.19313">
        <ele>157</ele>
        <time>2026-03-20T14:18:13Z</time>
      </trkpt>
      <trkpt lat="48.53059" lon="2.19319">
        <ele>157</ele>
        <time>2026-03-20T14:18:14Z</time>
      </trkpt>
      <trkpt lat="48.53056" lon="2.19325">
        <ele>157.4</ele>
        <time>2026-03-20T14:18:15Z</time>
      </trkpt>
      <trkpt lat="48.53052" lon="2.1933">
        <ele>157.2</ele>
        <time>2026-03-20T14:18:16Z</time>
      </trkpt>
      <trkpt lat="48.53049" lon="2.19336">
        <ele>157.2</ele>
        <time>2026-03-20T14:18:17Z</time>
      </trkpt>
      <trkpt lat="48.53046" lon="2.19342">
        <ele>157.2</ele>
        <time>2026-03-20T14:18:18Z</time>
      </trkpt>
      <trkpt lat="48.53042" lon="2.19348">
        <ele>157.2</ele>
        <time>2026-03-20T14:18:19Z</time>
      </trkpt>
      <trkpt lat="48.53039" lon="2.19354">
        <ele>157.6</ele>
        <time>2026-03-20T14:18:20Z</time>
      </trkpt>
      <trkpt lat="48.53036" lon="2.1936">
        <ele>157.6</ele>
        <time>2026-03-20T14:18:21Z</time>
      </trkpt>
      <trkpt lat="48.53033" lon="2.19365">
        <ele>157.6</ele>
        <time>2026-03-20T14:18:22Z</time>
      </trkpt>
      <trkpt lat="48.53029" lon="2.19371">
        <ele>157.6</ele>
        <time>2026-03-20T14:18:23Z</time>
      </trkpt>
      <trkpt lat="48.53026" lon="2.19375">
        <ele>158</ele>
        <time>2026-03-20T14:18:24Z</time>
      </trkpt>
      <trkpt lat="48.53022" lon="2.1938">
        <ele>158</ele>
        <time>2026-03-20T14:18:25Z</time>
      </trkpt>
      <trkpt lat="48.53017" lon="2.19382">
        <ele>158</ele>
        <time>2026-03-20T14:18:26Z</time>
      </trkpt>
      <trkpt lat="48.53012" lon="2.19384">
        <ele>158</ele>
        <time>2026-03-20T14:18:27Z</time>
      </trkpt>
      <trkpt lat="48.53007" lon="2.19385">
        <ele>157.6</ele>
        <time>2026-03-20T14:18:28Z</time>
      </trkpt>
      <trkpt lat="48.53002" lon="2.19386">
        <ele>157.6</ele>
        <time>2026-03-20T14:18:29Z</time>
      </trkpt>
      <trkpt lat="48.52997" lon="2.19386">
        <ele>157.6</ele>
        <time>2026-03-20T14:18:30Z</time>
      </trkpt>
      <trkpt lat="48.52992" lon="2.19385">
        <ele>158.2</ele>
        <time>2026-03-20T14:18:31Z</time>
      </trkpt>
      <trkpt lat="48.52987" lon="2.19384">
        <ele>157.6</ele>
        <time>2026-03-20T14:18:32Z</time>
      </trkpt>
      <trkpt lat="48.52982" lon="2.19383">
        <ele>157.6</ele>
        <time>2026-03-20T14:18:33Z</time>
      </trkpt>
      <trkpt lat="48.52977" lon="2.19382">
        <ele>157.6</ele>
        <time>2026-03-20T14:18:34Z</time>
      </trkpt>
      <trkpt lat="48.52973" lon="2.19382">
        <ele>157.6</ele>
        <time>2026-03-20T14:18:35Z</time>
      </trkpt>
      <trkpt lat="48.52968" lon="2.19383">
        <ele>158.2</ele>
        <time>2026-03-20T14:18:36Z</time>
      </trkpt>
      <trkpt lat="48.52965" lon="2.19386">
        <ele>158.2</ele>
        <time>2026-03-20T14:18:37Z</time>
      </trkpt>
      <trkpt lat="48.52961" lon="2.19391">
        <ele>158.2</ele>
        <time>2026-03-20T14:18:38Z</time>
      </trkpt>
      <trkpt lat="48.52958" lon="2.19396">
        <ele>158.2</ele>
        <time>2026-03-20T14:18:39Z</time>
      </trkpt>
      <trkpt lat="48.52955" lon="2.19401">
        <ele>158</ele>
        <time>2026-03-20T14:18:40Z</time>
      </trkpt>
      <trkpt lat="48.52952" lon="2.19407">
        <ele>158</ele>
        <time>2026-03-20T14:18:41Z</time>
      </trkpt>
      <trkpt lat="48.52949" lon="2.19412">
        <ele>158</ele>
        <time>2026-03-20T14:18:42Z</time>
      </trkpt>
      <trkpt lat="48.52947" lon="2.19418">
        <ele>158.6</ele>
        <time>2026-03-20T14:18:43Z</time>
      </trkpt>
      <trkpt lat="48.52944" lon="2.19423">
        <ele>158.4</ele>
        <time>2026-03-20T14:18:44Z</time>
      </trkpt>
      <trkpt lat="48.52941" lon="2.19428">
        <ele>158.4</ele>
        <time>2026-03-20T14:18:45Z</time>
      </trkpt>
      <trkpt lat="48.52939" lon="2.19434">
        <ele>158.4</ele>
        <time>2026-03-20T14:18:46Z</time>
      </trkpt>
      <trkpt lat="48.52938" lon="2.1944">
        <ele>159.2</ele>
        <time>2026-03-20T14:18:47Z</time>
      </trkpt>
      <trkpt lat="48.52936" lon="2.19447">
        <ele>158.6</ele>
        <time>2026-03-20T14:18:48Z</time>
      </trkpt>
      <trkpt lat="48.52935" lon="2.19454">
        <ele>158.6</ele>
        <time>2026-03-20T14:18:49Z</time>
      </trkpt>
      <trkpt lat="48.52934" lon="2.19462">
        <ele>158.6</ele>
        <time>2026-03-20T14:18:50Z</time>
      </trkpt>
      <trkpt lat="48.52933" lon="2.19469">
        <ele>159.6</ele>
        <time>2026-03-20T14:18:51Z</time>
      </trkpt>
      <trkpt lat="48.52934" lon="2.19476">
        <ele>159.4</ele>
        <time>2026-03-20T14:18:52Z</time>
      </trkpt>
      <trkpt lat="48.52934" lon="2.19483">
        <ele>159.4</ele>
        <time>2026-03-20T14:18:53Z</time>
      </trkpt>
      <trkpt lat="48.52934" lon="2.1949">
        <ele>159.4</ele>
        <time>2026-03-20T14:18:54Z</time>
      </trkpt>
      <trkpt lat="48.52935" lon="2.19497">
        <ele>159.4</ele>
        <time>2026-03-20T14:18:55Z</time>
      </trkpt>
      <trkpt lat="48.52935" lon="2.19505">
        <ele>160.4</ele>
        <time>2026-03-20T14:18:56Z</time>
      </trkpt>
      <trkpt lat="48.52936" lon="2.19512">
        <ele>160.4</ele>
        <time>2026-03-20T14:18:57Z</time>
      </trkpt>
      <trkpt lat="48.52937" lon="2.19519">
        <ele>160.4</ele>
        <time>2026-03-20T14:18:58Z</time>
      </trkpt>
      <trkpt lat="48.52938" lon="2.19526">
        <ele>160.4</ele>
        <time>2026-03-20T14:18:59Z</time>
      </trkpt>
      <trkpt lat="48.5294" lon="2.19533">
        <ele>159.8</ele>
        <time>2026-03-20T14:19:00Z</time>
      </trkpt>
      <trkpt lat="48.52941" lon="2.1954">
        <ele>159.8</ele>
        <time>2026-03-20T14:19:01Z</time>
      </trkpt>
      <trkpt lat="48.52942" lon="2.19548">
        <ele>159.8</ele>
        <time>2026-03-20T14:19:02Z</time>
      </trkpt>
      <trkpt lat="48.52944" lon="2.19555">
        <ele>159.2</ele>
        <time>2026-03-20T14:19:03Z</time>
      </trkpt>
      <trkpt lat="48.52946" lon="2.19562">
        <ele>159.2</ele>
        <time>2026-03-20T14:19:04Z</time>
      </trkpt>
      <trkpt lat="48.52948" lon="2.19569">
        <ele>159.2</ele>
        <time>2026-03-20T14:19:05Z</time>
      </trkpt>
      <trkpt lat="48.52949" lon="2.19576">
        <ele>159.2</ele>
        <time>2026-03-20T14:19:06Z</time>
      </trkpt>
      <trkpt lat="48.52951" lon="2.19583">
        <ele>159.2</ele>
        <time>2026-03-20T14:19:07Z</time>
      </trkpt>
      <trkpt lat="48.52953" lon="2.1959">
        <ele>159.2</ele>
        <time>2026-03-20T14:19:08Z</time>
      </trkpt>
      <trkpt lat="48.52954" lon="2.19597">
        <ele>159.2</ele>
        <time>2026-03-20T14:19:09Z</time>
      </trkpt>
      <trkpt lat="48.52956" lon="2.19604">
        <ele>159.2</ele>
        <time>2026-03-20T14:19:10Z</time>
      </trkpt>
      <trkpt lat="48.52958" lon="2.19611">
        <ele>159.2</ele>
        <time>2026-03-20T14:19:11Z</time>
      </trkpt>
      <trkpt lat="48.52959" lon="2.19618">
        <ele>159.4</ele>
        <time>2026-03-20T14:19:12Z</time>
      </trkpt>
      <trkpt lat="48.52961" lon="2.19625">
        <ele>159.4</ele>
        <time>2026-03-20T14:19:13Z</time>
      </trkpt>
      <trkpt lat="48.52963" lon="2.19632">
        <ele>159.4</ele>
        <time>2026-03-20T14:19:14Z</time>
      </trkpt>
      <trkpt lat="48.52964" lon="2.19639">
        <ele>159.8</ele>
        <time>2026-03-20T14:19:15Z</time>
      </trkpt>
      <trkpt lat="48.52966" lon="2.19645">
        <ele>160</ele>
        <time>2026-03-20T14:19:16Z</time>
      </trkpt>
      <trkpt lat="48.52967" lon="2.19651">
        <ele>160</ele>
        <time>2026-03-20T14:19:17Z</time>
      </trkpt>
      <trkpt lat="48.52969" lon="2.19658">
        <ele>160</ele>
        <time>2026-03-20T14:19:18Z</time>
      </trkpt>
      <trkpt lat="48.52971" lon="2.19664">
        <ele>160.4</ele>
        <time>2026-03-20T14:19:19Z</time>
      </trkpt>
      <trkpt lat="48.52972" lon="2.19671">
        <ele>160.4</ele>
        <time>2026-03-20T14:19:20Z</time>
      </trkpt>
      <trkpt lat="48.52974" lon="2.19678">
        <ele>160.4</ele>
        <time>2026-03-20T14:19:21Z</time>
      </trkpt>
      <trkpt lat="48.52976" lon="2.19685">
        <ele>160.4</ele>
        <time>2026-03-20T14:19:22Z</time>
      </trkpt>
      <trkpt lat="48.52978" lon="2.19691">
        <ele>161.4</ele>
        <time>2026-03-20T14:19:23Z</time>
      </trkpt>
      <trkpt lat="48.52979" lon="2.19697">
        <ele>160.4</ele>
        <time>2026-03-20T14:19:24Z</time>
      </trkpt>
      <trkpt lat="48.5298" lon="2.19703">
        <ele>160.4</ele>
        <time>2026-03-20T14:19:25Z</time>
      </trkpt>
      <trkpt lat="48.52982" lon="2.19709">
        <ele>160.4</ele>
        <time>2026-03-20T14:19:26Z</time>
      </trkpt>
      <trkpt lat="48.52983" lon="2.19716">
        <ele>160.4</ele>
        <time>2026-03-20T14:19:27Z</time>
      </trkpt>
      <trkpt lat="48.52985" lon="2.19722">
        <ele>160.6</ele>
        <time>2026-03-20T14:19:28Z</time>
      </trkpt>
      <trkpt lat="48.52986" lon="2.19729">
        <ele>160.6</ele>
        <time>2026-03-20T14:19:29Z</time>
      </trkpt>
      <trkpt lat="48.52988" lon="2.19735">
        <ele>160.6</ele>
        <time>2026-03-20T14:19:30Z</time>
      </trkpt>
      <trkpt lat="48.52989" lon="2.19742">
        <ele>160.6</ele>
        <time>2026-03-20T14:19:31Z</time>
      </trkpt>
      <trkpt lat="48.52991" lon="2.19749">
        <ele>161.4</ele>
        <time>2026-03-20T14:19:32Z</time>
      </trkpt>
      <trkpt lat="48.52993" lon="2.19756">
        <ele>161.4</ele>
        <time>2026-03-20T14:19:33Z</time>
      </trkpt>
      <trkpt lat="48.52994" lon="2.19764">
        <ele>161.4</ele>
        <time>2026-03-20T14:19:34Z</time>
      </trkpt>
      <trkpt lat="48.52996" lon="2.19771">
        <ele>161.8</ele>
        <time>2026-03-20T14:19:35Z</time>
      </trkpt>
      <trkpt lat="48.52998" lon="2.19779">
        <ele>161.4</ele>
        <time>2026-03-20T14:19:36Z</time>
      </trkpt>
      <trkpt lat="48.52999" lon="2.19786">
        <ele>161.4</ele>
        <time>2026-03-20T14:19:37Z</time>
      </trkpt>
      <trkpt lat="48.53001" lon="2.19794">
        <ele>161.4</ele>
        <time>2026-03-20T14:19:38Z</time>
      </trkpt>
      <trkpt lat="48.53003" lon="2.19801">
        <ele>161.8</ele>
        <time>2026-03-20T14:19:39Z</time>
      </trkpt>
      <trkpt lat="48.53005" lon="2.19809">
        <ele>161.4</ele>
        <time>2026-03-20T14:19:40Z</time>
      </trkpt>
      <trkpt lat="48.53007" lon="2.19817">
        <ele>161.4</ele>
        <time>2026-03-20T14:19:41Z</time>
      </trkpt>
      <trkpt lat="48.53009" lon="2.19824">
        <ele>161.4</ele>
        <time>2026-03-20T14:19:42Z</time>
      </trkpt>
      <trkpt lat="48.53011" lon="2.19831">
        <ele>160.4</ele>
        <time>2026-03-20T14:19:43Z</time>
      </trkpt>
      <trkpt lat="48.53013" lon="2.19839">
        <ele>160.2</ele>
        <time>2026-03-20T14:19:44Z</time>
      </trkpt>
      <trkpt lat="48.53015" lon="2.19846">
        <ele>160.2</ele>
        <time>2026-03-20T14:19:45Z</time>
      </trkpt>
      <trkpt lat="48.53017" lon="2.19854">
        <ele>160.2</ele>
        <time>2026-03-20T14:19:46Z</time>
      </trkpt>
      <trkpt lat="48.53019" lon="2.19862">
        <ele>160.4</ele>
        <time>2026-03-20T14:19:47Z</time>
      </trkpt>
      <trkpt lat="48.5302" lon="2.19869">
        <ele>160.2</ele>
        <time>2026-03-20T14:19:48Z</time>
      </trkpt>
      <trkpt lat="48.53022" lon="2.19877">
        <ele>160.2</ele>
        <time>2026-03-20T14:19:49Z</time>
      </trkpt>
      <trkpt lat="48.53023" lon="2.19885">
        <ele>160.2</ele>
        <time>2026-03-20T14:19:50Z</time>
      </trkpt>
      <trkpt lat="48.53025" lon="2.19893">
        <ele>160.2</ele>
        <time>2026-03-20T14:19:51Z</time>
      </trkpt>
      <trkpt lat="48.53026" lon="2.199">
        <ele>160.8</ele>
        <time>2026-03-20T14:19:52Z</time>
      </trkpt>
      <trkpt lat="48.53027" lon="2.19907">
        <ele>160.8</ele>
        <time>2026-03-20T14:19:53Z</time>
      </trkpt>
      <trkpt lat="48.53028" lon="2.19915">
        <ele>160.8</ele>
        <time>2026-03-20T14:19:54Z</time>
      </trkpt>
      <trkpt lat="48.53029" lon="2.19922">
        <ele>160.8</ele>
        <time>2026-03-20T14:19:55Z</time>
      </trkpt>
      <trkpt lat="48.5303" lon="2.1993">
        <ele>161.2</ele>
        <time>2026-03-20T14:19:56Z</time>
      </trkpt>
      <trkpt lat="48.53031" lon="2.19937">
        <ele>161.2</ele>
        <time>2026-03-20T14:19:57Z</time>
      </trkpt>
      <trkpt lat="48.53032" lon="2.19945">
        <ele>161.2</ele>
        <time>2026-03-20T14:19:58Z</time>
      </trkpt>
      <trkpt lat="48.53033" lon="2.19953">
        <ele>160.6</ele>
        <time>2026-03-20T14:19:59Z</time>
      </trkpt>
      <trkpt lat="48.53034" lon="2.19961">
        <ele>160.4</ele>
        <time>2026-03-20T14:20:00Z</time>
      </trkpt>
      <trkpt lat="48.53035" lon="2.19968">
        <ele>160.4</ele>
        <time>2026-03-20T14:20:01Z</time>
      </trkpt>
      <trkpt lat="48.53036" lon="2.19976">
        <ele>160.4</ele>
        <time>2026-03-20T14:20:02Z</time>
      </trkpt>
      <trkpt lat="48.53037" lon="2.19984">
        <ele>160.4</ele>
        <time>2026-03-20T14:20:03Z</time>
      </trkpt>
      <trkpt lat="48.53038" lon="2.19992">
        <ele>161</ele>
        <time>2026-03-20T14:20:04Z</time>
      </trkpt>
      <trkpt lat="48.53039" lon="2.2">
        <ele>161</ele>
        <time>2026-03-20T14:20:05Z</time>
      </trkpt>
      <trkpt lat="48.5304" lon="2.20008">
        <ele>161</ele>
        <time>2026-03-20T14:20:06Z</time>
      </trkpt>
      <trkpt lat="48.53041" lon="2.20016">
        <ele>160.2</ele>
        <time>2026-03-20T14:20:07Z</time>
      </trkpt>
      <trkpt lat="48.53042" lon="2.20024">
        <ele>160.2</ele>
        <time>2026-03-20T14:20:08Z</time>
      </trkpt>
      <trkpt lat="48.53043" lon="2.20032">
        <ele>160.2</ele>
        <time>2026-03-20T14:20:09Z</time>
      </trkpt>
      <trkpt lat="48.53044" lon="2.2004">
        <ele>160.2</ele>
        <time>2026-03-20T14:20:10Z</time>
      </trkpt>
      <trkpt lat="48.53044" lon="2.20048">
        <ele>160.4</ele>
        <time>2026-03-20T14:20:11Z</time>
      </trkpt>
      <trkpt lat="48.53045" lon="2.20056">
        <ele>159.8</ele>
        <time>2026-03-20T14:20:12Z</time>
      </trkpt>
      <trkpt lat="48.53046" lon="2.20064">
        <ele>159.8</ele>
        <time>2026-03-20T14:20:13Z</time>
      </trkpt>
      <trkpt lat="48.53047" lon="2.20073">
        <ele>159.8</ele>
        <time>2026-03-20T14:20:14Z</time>
      </trkpt>
      <trkpt lat="48.53048" lon="2.20081">
        <ele>159.2</ele>
        <time>2026-03-20T14:20:15Z</time>
      </trkpt>
      <trkpt lat="48.53049" lon="2.20089">
        <ele>159</ele>
        <time>2026-03-20T14:20:16Z</time>
      </trkpt>
      <trkpt lat="48.53049" lon="2.20097">
        <ele>159</ele>
        <time>2026-03-20T14:20:17Z</time>
      </trkpt>
      <trkpt lat="48.5305" lon="2.20105">
        <ele>159</ele>
        <time>2026-03-20T14:20:18Z</time>
      </trkpt>
      <trkpt lat="48.53051" lon="2.20114">
        <ele>158.8</ele>
        <time>2026-03-20T14:20:19Z</time>
      </trkpt>
      <trkpt lat="48.53052" lon="2.20122">
        <ele>158.4</ele>
        <time>2026-03-20T14:20:20Z</time>
      </trkpt>
      <trkpt lat="48.53053" lon="2.2013">
        <ele>158.4</ele>
        <time>2026-03-20T14:20:21Z</time>
      </trkpt>
      <trkpt lat="48.53054" lon="2.20139">
        <ele>158.4</ele>
        <time>2026-03-20T14:20:22Z</time>
      </trkpt>
      <trkpt lat="48.53054" lon="2.20147">
        <ele>158.4</ele>
        <time>2026-03-20T14:20:23Z</time>
      </trkpt>
      <trkpt lat="48.53055" lon="2.20156">
        <ele>159.2</ele>
        <time>2026-03-20T14:20:24Z</time>
      </trkpt>
      <trkpt lat="48.53056" lon="2.20164">
        <ele>159.2</ele>
        <time>2026-03-20T14:20:25Z</time>
      </trkpt>
      <trkpt lat="48.53057" lon="2.20172">
        <ele>159.2</ele>
        <time>2026-03-20T14:20:26Z</time>
      </trkpt>
      <trkpt lat="48.53058" lon="2.20181">
        <ele>158.8</ele>
        <time>2026-03-20T14:20:27Z</time>
      </trkpt>
      <trkpt lat="48.53059" lon="2.2019">
        <ele>158.6</ele>
        <time>2026-03-20T14:20:28Z</time>
      </trkpt>
      <trkpt lat="48.53059" lon="2.20198">
        <ele>158.6</ele>
        <time>2026-03-20T14:20:29Z</time>
      </trkpt>
      <trkpt lat="48.5306" lon="2.20207">
        <ele>158.6</ele>
        <time>2026-03-20T14:20:30Z</time>
      </trkpt>
      <trkpt lat="48.5306" lon="2.20216">
        <ele>158.6</ele>
        <time>2026-03-20T14:20:31Z</time>
      </trkpt>
      <trkpt lat="48.53061" lon="2.20224">
        <ele>158.6</ele>
        <time>2026-03-20T14:20:32Z</time>
      </trkpt>
      <trkpt lat="48.53061" lon="2.20233">
        <ele>158.6</ele>
        <time>2026-03-20T14:20:33Z</time>
      </trkpt>
      <trkpt lat="48.53062" lon="2.20242">
        <ele>158.6</ele>
        <time>2026-03-20T14:20:34Z</time>
      </trkpt>
      <trkpt lat="48.53062" lon="2.2025">
        <ele>157.6</ele>
        <time>2026-03-20T14:20:35Z</time>
      </trkpt>
      <trkpt lat="48.53063" lon="2.20259">
        <ele>157.8</ele>
        <time>2026-03-20T14:20:36Z</time>
      </trkpt>
      <trkpt lat="48.53063" lon="2.20268">
        <ele>157.8</ele>
        <time>2026-03-20T14:20:37Z</time>
      </trkpt>
      <trkpt lat="48.53063" lon="2.20276">
        <ele>157.8</ele>
        <time>2026-03-20T14:20:38Z</time>
      </trkpt>
      <trkpt lat="48.53064" lon="2.20285">
        <ele>157.2</ele>
        <time>2026-03-20T14:20:39Z</time>
      </trkpt>
      <trkpt lat="48.53064" lon="2.20293">
        <ele>158</ele>
        <time>2026-03-20T14:20:40Z</time>
      </trkpt>
      <trkpt lat="48.53064" lon="2.20302">
        <ele>158</ele>
        <time>2026-03-20T14:20:41Z</time>
      </trkpt>
      <trkpt lat="48.53065" lon="2.2031">
        <ele>158</ele>
        <time>2026-03-20T14:20:42Z</time>
      </trkpt>
      <trkpt lat="48.53065" lon="2.20319">
        <ele>157.6</ele>
        <time>2026-03-20T14:20:43Z</time>
      </trkpt>
      <trkpt lat="48.53065" lon="2.20327">
        <ele>158</ele>
        <time>2026-03-20T14:20:44Z</time>
      </trkpt>
      <trkpt lat="48.53066" lon="2.20336">
        <ele>158</ele>
        <time>2026-03-20T14:20:45Z</time>
      </trkpt>
      <trkpt lat="48.53066" lon="2.20344">
        <ele>158</ele>
        <time>2026-03-20T14:20:46Z</time>
      </trkpt>
      <trkpt lat="48.53066" lon="2.20353">
        <ele>158</ele>
        <time>2026-03-20T14:20:47Z</time>
      </trkpt>
      <trkpt lat="48.53067" lon="2.20362">
        <ele>157.8</ele>
        <time>2026-03-20T14:20:48Z</time>
      </trkpt>
      <trkpt lat="48.53067" lon="2.2037">
        <ele>157.8</ele>
        <time>2026-03-20T14:20:49Z</time>
      </trkpt>
      <trkpt lat="48.53067" lon="2.20379">
        <ele>157.8</ele>
        <time>2026-03-20T14:20:50Z</time>
      </trkpt>
      <trkpt lat="48.53067" lon="2.20387">
        <ele>157.8</ele>
        <time>2026-03-20T14:20:51Z</time>
      </trkpt>
      <trkpt lat="48.53067" lon="2.20396">
        <ele>157.8</ele>
        <time>2026-03-20T14:20:52Z</time>
      </trkpt>
      <trkpt lat="48.53067" lon="2.20404">
        <ele>157.8</ele>
        <time>2026-03-20T14:20:53Z</time>
      </trkpt>
      <trkpt lat="48.53067" lon="2.20412">
        <ele>157.8</ele>
        <time>2026-03-20T14:20:54Z</time>
      </trkpt>
      <trkpt lat="48.53066" lon="2.20421">
        <ele>157.8</ele>
        <time>2026-03-20T14:20:55Z</time>
      </trkpt>
      <trkpt lat="48.53066" lon="2.20429">
        <ele>157</ele>
        <time>2026-03-20T14:20:56Z</time>
      </trkpt>
      <trkpt lat="48.53065" lon="2.20438">
        <ele>157</ele>
        <time>2026-03-20T14:20:57Z</time>
      </trkpt>
      <trkpt lat="48.53065" lon="2.20446">
        <ele>157</ele>
        <time>2026-03-20T14:20:58Z</time>
      </trkpt>
      <trkpt lat="48.53064" lon="2.20455">
        <ele>157.2</ele>
        <time>2026-03-20T14:20:59Z</time>
      </trkpt>
      <trkpt lat="48.53063" lon="2.20463">
        <ele>157.2</ele>
        <time>2026-03-20T14:21:00Z</time>
      </trkpt>
      <trkpt lat="48.53062" lon="2.20472">
        <ele>157.2</ele>
        <time>2026-03-20T14:21:01Z</time>
      </trkpt>
      <trkpt lat="48.53062" lon="2.20481">
        <ele>157.2</ele>
        <time>2026-03-20T14:21:02Z</time>
      </trkpt>
      <trkpt lat="48.53061" lon="2.20489">
        <ele>157.2</ele>
        <time>2026-03-20T14:21:03Z</time>
      </trkpt>
      <trkpt lat="48.5306" lon="2.20498">
        <ele>157.6</ele>
        <time>2026-03-20T14:21:04Z</time>
      </trkpt>
      <trkpt lat="48.5306" lon="2.20506">
        <ele>157.6</ele>
        <time>2026-03-20T14:21:05Z</time>
      </trkpt>
      <trkpt lat="48.53059" lon="2.20515">
        <ele>157.6</ele>
        <time>2026-03-20T14:21:06Z</time>
      </trkpt>
      <trkpt lat="48.53058" lon="2.20524">
        <ele>157.6</ele>
        <time>2026-03-20T14:21:07Z</time>
      </trkpt>
      <trkpt lat="48.53057" lon="2.20532">
        <ele>157</ele>
        <time>2026-03-20T14:21:08Z</time>
      </trkpt>
      <trkpt lat="48.53056" lon="2.20541">
        <ele>157</ele>
        <time>2026-03-20T14:21:09Z</time>
      </trkpt>
      <trkpt lat="48.53055" lon="2.20549">
        <ele>157</ele>
        <time>2026-03-20T14:21:10Z</time>
      </trkpt>
      <trkpt lat="48.53054" lon="2.20557">
        <ele>157.8</ele>
        <time>2026-03-20T14:21:11Z</time>
      </trkpt>
      <trkpt lat="48.53053" lon="2.20565">
        <ele>157.8</ele>
        <time>2026-03-20T14:21:12Z</time>
      </trkpt>
      <trkpt lat="48.53052" lon="2.20573">
        <ele>157.8</ele>
        <time>2026-03-20T14:21:13Z</time>
      </trkpt>
      <trkpt lat="48.53051" lon="2.20581">
        <ele>157.8</ele>
        <time>2026-03-20T14:21:14Z</time>
      </trkpt>
      <trkpt lat="48.5305" lon="2.20589">
        <ele>158.2</ele>
        <time>2026-03-20T14:21:15Z</time>
      </trkpt>
      <trkpt lat="48.53049" lon="2.20597">
        <ele>159.4</ele>
        <time>2026-03-20T14:21:16Z</time>
      </trkpt>
      <trkpt lat="48.53048" lon="2.20605">
        <ele>159.4</ele>
        <time>2026-03-20T14:21:17Z</time>
      </trkpt>
      <trkpt lat="48.53047" lon="2.20613">
        <ele>159.4</ele>
        <time>2026-03-20T14:21:18Z</time>
      </trkpt>
      <trkpt lat="48.53046" lon="2.20621">
        <ele>160.4</ele>
        <time>2026-03-20T14:21:19Z</time>
      </trkpt>
      <trkpt lat="48.53045" lon="2.20629">
        <ele>161.2</ele>
        <time>2026-03-20T14:21:20Z</time>
      </trkpt>
      <trkpt lat="48.53044" lon="2.20637">
        <ele>161.2</ele>
        <time>2026-03-20T14:21:21Z</time>
      </trkpt>
      <trkpt lat="48.53043" lon="2.20645">
        <ele>161.2</ele>
        <time>2026-03-20T14:21:22Z</time>
      </trkpt>
      <trkpt lat="48.53042" lon="2.20653">
        <ele>161.2</ele>
        <time>2026-03-20T14:21:23Z</time>
      </trkpt>
      <trkpt lat="48.53041" lon="2.20662">
        <ele>161.2</ele>
        <time>2026-03-20T14:21:24Z</time>
      </trkpt>
      <trkpt lat="48.5304" lon="2.2067">
        <ele>161.2</ele>
        <time>2026-03-20T14:21:25Z</time>
      </trkpt>
      <trkpt lat="48.53039" lon="2.20678">
        <ele>161.2</ele>
        <time>2026-03-20T14:21:26Z</time>
      </trkpt>
      <trkpt lat="48.53037" lon="2.20687">
        <ele>161.2</ele>
        <time>2026-03-20T14:21:27Z</time>
      </trkpt>
      <trkpt lat="48.53036" lon="2.20695">
        <ele>161.4</ele>
        <time>2026-03-20T14:21:28Z</time>
      </trkpt>
      <trkpt lat="48.53036" lon="2.20703">
        <ele>161.4</ele>
        <time>2026-03-20T14:21:29Z</time>
      </trkpt>
      <trkpt lat="48.53035" lon="2.2071">
        <ele>161.4</ele>
        <time>2026-03-20T14:21:30Z</time>
      </trkpt>
      <trkpt lat="48.53034" lon="2.20718">
        <ele>161.4</ele>
        <time>2026-03-20T14:21:31Z</time>
      </trkpt>
      <trkpt lat="48.53033" lon="2.20725">
        <ele>161.6</ele>
        <time>2026-03-20T14:21:32Z</time>
      </trkpt>
      <trkpt lat="48.53032" lon="2.20732">
        <ele>161.6</ele>
        <time>2026-03-20T14:21:33Z</time>
      </trkpt>
      <trkpt lat="48.53031" lon="2.2074">
        <ele>161.6</ele>
        <time>2026-03-20T14:21:34Z</time>
      </trkpt>
      <trkpt lat="48.5303" lon="2.20747">
        <ele>160.8</ele>
        <time>2026-03-20T14:21:35Z</time>
      </trkpt>
      <trkpt lat="48.5303" lon="2.20755">
        <ele>162.8</ele>
        <time>2026-03-20T14:21:36Z</time>
      </trkpt>
      <trkpt lat="48.53029" lon="2.20762">
        <ele>162.8</ele>
        <time>2026-03-20T14:21:37Z</time>
      </trkpt>
      <trkpt lat="48.53028" lon="2.2077">
        <ele>162.8</ele>
        <time>2026-03-20T14:21:38Z</time>
      </trkpt>
      <trkpt lat="48.53027" lon="2.20777">
        <ele>162.6</ele>
        <time>2026-03-20T14:21:39Z</time>
      </trkpt>
      <trkpt lat="48.53026" lon="2.20785">
        <ele>160.8</ele>
        <time>2026-03-20T14:21:40Z</time>
      </trkpt>
      <trkpt lat="48.53025" lon="2.20793">
        <ele>160.8</ele>
        <time>2026-03-20T14:21:41Z</time>
      </trkpt>
      <trkpt lat="48.53024" lon="2.20801">
        <ele>160.8</ele>
        <time>2026-03-20T14:21:42Z</time>
      </trkpt>
      <trkpt lat="48.53023" lon="2.20808">
        <ele>161.6</ele>
        <time>2026-03-20T14:21:43Z</time>
      </trkpt>
      <trkpt lat="48.53023" lon="2.20816">
        <ele>162</ele>
        <time>2026-03-20T14:21:44Z</time>
      </trkpt>
      <trkpt lat="48.53024" lon="2.20823">
        <ele>162</ele>
        <time>2026-03-20T14:21:45Z</time>
      </trkpt>
      <trkpt lat="48.53025" lon="2.20831">
        <ele>162</ele>
        <time>2026-03-20T14:21:46Z</time>
      </trkpt>
      <trkpt lat="48.53026" lon="2.20837">
        <ele>162</ele>
        <time>2026-03-20T14:21:47Z</time>
      </trkpt>
      <trkpt lat="48.53029" lon="2.20843">
        <ele>162.8</ele>
        <time>2026-03-20T14:21:48Z</time>
      </trkpt>
      <trkpt lat="48.53032" lon="2.20848">
        <ele>162.8</ele>
        <time>2026-03-20T14:21:49Z</time>
      </trkpt>
      <trkpt lat="48.53035" lon="2.20853">
        <ele>162.8</ele>
        <time>2026-03-20T14:21:50Z</time>
      </trkpt>
      <trkpt lat="48.53039" lon="2.20858">
        <ele>162.8</ele>
        <time>2026-03-20T14:21:51Z</time>
      </trkpt>
      <trkpt lat="48.53043" lon="2.20861">
        <ele>162.6</ele>
        <time>2026-03-20T14:21:52Z</time>
      </trkpt>
      <trkpt lat="48.53047" lon="2.20864">
        <ele>162.6</ele>
        <time>2026-03-20T14:21:53Z</time>
      </trkpt>
      <trkpt lat="48.53052" lon="2.20866">
        <ele>162.6</ele>
        <time>2026-03-20T14:21:54Z</time>
      </trkpt>
      <trkpt lat="48.53057" lon="2.20868">
        <ele>162.6</ele>
        <time>2026-03-20T14:21:55Z</time>
      </trkpt>
      <trkpt lat="48.53062" lon="2.20869">
        <ele>161.8</ele>
        <time>2026-03-20T14:21:56Z</time>
      </trkpt>
      <trkpt lat="48.53067" lon="2.20869">
        <ele>161.8</ele>
        <time>2026-03-20T14:21:57Z</time>
      </trkpt>
      <trkpt lat="48.53073" lon="2.2087">
        <ele>161.8</ele>
        <time>2026-03-20T14:21:58Z</time>
      </trkpt>
      <trkpt lat="48.53079" lon="2.20869">
        <ele>160.8</ele>
        <time>2026-03-20T14:21:59Z</time>
      </trkpt>
      <trkpt lat="48.53084" lon="2.20868">
        <ele>160.2</ele>
        <time>2026-03-20T14:22:00Z</time>
      </trkpt>
      <trkpt lat="48.5309" lon="2.20866">
        <ele>160.2</ele>
        <time>2026-03-20T14:22:01Z</time>
      </trkpt>
      <trkpt lat="48.53096" lon="2.20862">
        <ele>160.2</ele>
        <time>2026-03-20T14:22:02Z</time>
      </trkpt>
      <trkpt lat="48.53101" lon="2.20856">
        <ele>159.2</ele>
        <time>2026-03-20T14:22:03Z</time>
      </trkpt>
      <trkpt lat="48.53106" lon="2.20849">
        <ele>158.8</ele>
        <time>2026-03-20T14:22:04Z</time>
      </trkpt>
      <trkpt lat="48.53111" lon="2.20842">
        <ele>158.8</ele>
        <time>2026-03-20T14:22:05Z</time>
      </trkpt>
      <trkpt lat="48.53116" lon="2.20835">
        <ele>158.8</ele>
        <time>2026-03-20T14:22:06Z</time>
      </trkpt>
      <trkpt lat="48.53123" lon="2.20828">
        <ele>157.8</ele>
        <time>2026-03-20T14:22:07Z</time>
      </trkpt>
      <trkpt lat="48.5313" lon="2.20823">
        <ele>156.8</ele>
        <time>2026-03-20T14:22:08Z</time>
      </trkpt>
      <trkpt lat="48.53137" lon="2.2082">
        <ele>156.8</ele>
        <time>2026-03-20T14:22:09Z</time>
      </trkpt>
      <trkpt lat="48.53145" lon="2.20818">
        <ele>156.8</ele>
        <time>2026-03-20T14:22:10Z</time>
      </trkpt>
      <trkpt lat="48.53153" lon="2.20818">
        <ele>156</ele>
        <time>2026-03-20T14:22:11Z</time>
      </trkpt>
      <trkpt lat="48.53161" lon="2.20819">
        <ele>156.8</ele>
        <time>2026-03-20T14:22:12Z</time>
      </trkpt>
      <trkpt lat="48.53168" lon="2.20821">
        <ele>156.8</ele>
        <time>2026-03-20T14:22:13Z</time>
      </trkpt>
      <trkpt lat="48.53176" lon="2.20823">
        <ele>156.8</ele>
        <time>2026-03-20T14:22:14Z</time>
      </trkpt>
      <trkpt lat="48.53183" lon="2.20825">
        <ele>157.8</ele>
        <time>2026-03-20T14:22:15Z</time>
      </trkpt>
      <trkpt lat="48.5319" lon="2.20827">
        <ele>156.8</ele>
        <time>2026-03-20T14:22:16Z</time>
      </trkpt>
      <trkpt lat="48.53197" lon="2.20828">
        <ele>156.8</ele>
        <time>2026-03-20T14:22:17Z</time>
      </trkpt>
      <trkpt lat="48.53203" lon="2.2083">
        <ele>156.8</ele>
        <time>2026-03-20T14:22:18Z</time>
      </trkpt>
      <trkpt lat="48.5321" lon="2.20832">
        <ele>157.6</ele>
        <time>2026-03-20T14:22:19Z</time>
      </trkpt>
      <trkpt lat="48.53216" lon="2.20833">
        <ele>157</ele>
        <time>2026-03-20T14:22:20Z</time>
      </trkpt>
      <trkpt lat="48.53223" lon="2.20835">
        <ele>157</ele>
        <time>2026-03-20T14:22:21Z</time>
      </trkpt>
      <trkpt lat="48.53229" lon="2.20837">
        <ele>157</ele>
        <time>2026-03-20T14:22:22Z</time>
      </trkpt>
      <trkpt lat="48.53235" lon="2.20838">
        <ele>158</ele>
        <time>2026-03-20T14:22:23Z</time>
      </trkpt>
      <trkpt lat="48.53241" lon="2.2084">
        <ele>157.8</ele>
        <time>2026-03-20T14:22:24Z</time>
      </trkpt>
      <trkpt lat="48.53247" lon="2.20842">
        <ele>157.8</ele>
        <time>2026-03-20T14:22:25Z</time>
      </trkpt>
      <trkpt lat="48.53253" lon="2.20843">
        <ele>157.8</ele>
        <time>2026-03-20T14:22:26Z</time>
      </trkpt>
      <trkpt lat="48.53259" lon="2.20844">
        <ele>157.8</ele>
        <time>2026-03-20T14:22:27Z</time>
      </trkpt>
      <trkpt lat="48.53264" lon="2.20846">
        <ele>157.8</ele>
        <time>2026-03-20T14:22:28Z</time>
      </trkpt>
      <trkpt lat="48.5327" lon="2.20848">
        <ele>157.8</ele>
        <time>2026-03-20T14:22:29Z</time>
      </trkpt>
      <trkpt lat="48.53276" lon="2.20849">
        <ele>157.8</ele>
        <time>2026-03-20T14:22:30Z</time>
      </trkpt>
      <trkpt lat="48.53282" lon="2.2085">
        <ele>157.6</ele>
        <time>2026-03-20T14:22:31Z</time>
      </trkpt>
      <trkpt lat="48.53287" lon="2.20851">
        <ele>158.2</ele>
        <time>2026-03-20T14:22:32Z</time>
      </trkpt>
      <trkpt lat="48.53293" lon="2.20853">
        <ele>158.2</ele>
        <time>2026-03-20T14:22:33Z</time>
      </trkpt>
      <trkpt lat="48.53299" lon="2.20854">
        <ele>158.2</ele>
        <time>2026-03-20T14:22:34Z</time>
      </trkpt>
      <trkpt lat="48.53304" lon="2.20855">
        <ele>158.8</ele>
        <time>2026-03-20T14:22:35Z</time>
      </trkpt>
      <trkpt lat="48.5331" lon="2.20856">
        <ele>158.8</ele>
        <time>2026-03-20T14:22:36Z</time>
      </trkpt>
      <trkpt lat="48.53315" lon="2.20858">
        <ele>158.8</ele>
        <time>2026-03-20T14:22:37Z</time>
      </trkpt>
      <trkpt lat="48.5332" lon="2.20859">
        <ele>158.8</ele>
        <time>2026-03-20T14:22:38Z</time>
      </trkpt>
      <trkpt lat="48.53326" lon="2.2086">
        <ele>158.8</ele>
        <time>2026-03-20T14:22:39Z</time>
      </trkpt>
      <trkpt lat="48.53331" lon="2.20862">
        <ele>159.4</ele>
        <time>2026-03-20T14:22:40Z</time>
      </trkpt>
      <trkpt lat="48.53337" lon="2.20864">
        <ele>159.4</ele>
        <time>2026-03-20T14:22:41Z</time>
      </trkpt>
      <trkpt lat="48.53342" lon="2.20865">
        <ele>159.4</ele>
        <time>2026-03-20T14:22:42Z</time>
      </trkpt>
      <trkpt lat="48.53348" lon="2.20867">
        <ele>159.4</ele>
        <time>2026-03-20T14:22:43Z</time>
      </trkpt>
      <trkpt lat="48.53353" lon="2.20869">
        <ele>159.4</ele>
        <time>2026-03-20T14:22:44Z</time>
      </trkpt>
      <trkpt lat="48.53358" lon="2.20873">
        <ele>159.4</ele>
        <time>2026-03-20T14:22:45Z</time>
      </trkpt>
      <trkpt lat="48.53362" lon="2.2088">
        <ele>159.4</ele>
        <time>2026-03-20T14:22:46Z</time>
      </trkpt>
      <trkpt lat="48.53364" lon="2.20888">
        <ele>159.4</ele>
        <time>2026-03-20T14:22:47Z</time>
      </trkpt>
      <trkpt lat="48.53364" lon="2.20895">
        <ele>159.6</ele>
        <time>2026-03-20T14:22:48Z</time>
      </trkpt>
      <trkpt lat="48.53363" lon="2.20903">
        <ele>159.6</ele>
        <time>2026-03-20T14:22:49Z</time>
      </trkpt>
      <trkpt lat="48.53363" lon="2.20911">
        <ele>159.6</ele>
        <time>2026-03-20T14:22:50Z</time>
      </trkpt>
      <trkpt lat="48.53362" lon="2.20918">
        <ele>159.6</ele>
        <time>2026-03-20T14:22:51Z</time>
      </trkpt>
      <trkpt lat="48.53362" lon="2.20924">
        <ele>159.6</ele>
        <time>2026-03-20T14:22:52Z</time>
      </trkpt>
      <trkpt lat="48.53361" lon="2.20931">
        <ele>159.6</ele>
        <time>2026-03-20T14:22:53Z</time>
      </trkpt>
      <trkpt lat="48.53361" lon="2.20938">
        <ele>159.6</ele>
        <time>2026-03-20T14:22:54Z</time>
      </trkpt>
      <trkpt lat="48.53361" lon="2.20945">
        <ele>160.6</ele>
        <time>2026-03-20T14:22:55Z</time>
      </trkpt>
      <trkpt lat="48.53361" lon="2.20952">
        <ele>162</ele>
        <time>2026-03-20T14:22:56Z</time>
      </trkpt>
      <trkpt lat="48.53361" lon="2.20959">
        <ele>162</ele>
        <time>2026-03-20T14:22:57Z</time>
      </trkpt>
      <trkpt lat="48.53361" lon="2.20967">
        <ele>162</ele>
        <time>2026-03-20T14:22:58Z</time>
      </trkpt>
      <trkpt lat="48.53361" lon="2.20975">
        <ele>161</ele>
        <time>2026-03-20T14:22:59Z</time>
      </trkpt>
      <trkpt lat="48.53361" lon="2.20983">
        <ele>160.8</ele>
        <time>2026-03-20T14:23:00Z</time>
      </trkpt>
      <trkpt lat="48.5336" lon="2.20991">
        <ele>160.8</ele>
        <time>2026-03-20T14:23:01Z</time>
      </trkpt>
      <trkpt lat="48.5336" lon="2.20999">
        <ele>160.8</ele>
        <time>2026-03-20T14:23:02Z</time>
      </trkpt>
      <trkpt lat="48.5336" lon="2.21007">
        <ele>160.8</ele>
        <time>2026-03-20T14:23:03Z</time>
      </trkpt>
      <trkpt lat="48.5336" lon="2.21014">
        <ele>161</ele>
        <time>2026-03-20T14:23:04Z</time>
      </trkpt>
      <trkpt lat="48.53359" lon="2.21022">
        <ele>161</ele>
        <time>2026-03-20T14:23:05Z</time>
      </trkpt>
      <trkpt lat="48.53359" lon="2.2103">
        <ele>161</ele>
        <time>2026-03-20T14:23:06Z</time>
      </trkpt>
      <trkpt lat="48.53359" lon="2.21038">
        <ele>161</ele>
        <time>2026-03-20T14:23:07Z</time>
      </trkpt>
      <trkpt lat="48.53359" lon="2.21047">
        <ele>161.2</ele>
        <time>2026-03-20T14:23:08Z</time>
      </trkpt>
      <trkpt lat="48.53359" lon="2.21054">
        <ele>161.2</ele>
        <time>2026-03-20T14:23:09Z</time>
      </trkpt>
      <trkpt lat="48.53358" lon="2.21062">
        <ele>161.2</ele>
        <time>2026-03-20T14:23:10Z</time>
      </trkpt>
      <trkpt lat="48.53358" lon="2.2107">
        <ele>161.2</ele>
        <time>2026-03-20T14:23:11Z</time>
      </trkpt>
      <trkpt lat="48.53357" lon="2.21078">
        <ele>161</ele>
        <time>2026-03-20T14:23:12Z</time>
      </trkpt>
      <trkpt lat="48.53357" lon="2.21086">
        <ele>161</ele>
        <time>2026-03-20T14:23:13Z</time>
      </trkpt>
      <trkpt lat="48.53357" lon="2.21094">
        <ele>161</ele>
        <time>2026-03-20T14:23:14Z</time>
      </trkpt>
      <trkpt lat="48.53356" lon="2.21101">
        <ele>161</ele>
        <time>2026-03-20T14:23:15Z</time>
      </trkpt>
      <trkpt lat="48.53356" lon="2.21109">
        <ele>162</ele>
        <time>2026-03-20T14:23:16Z</time>
      </trkpt>
      <trkpt lat="48.53355" lon="2.21116">
        <ele>162</ele>
        <time>2026-03-20T14:23:17Z</time>
      </trkpt>
      <trkpt lat="48.53354" lon="2.21123">
        <ele>162</ele>
        <time>2026-03-20T14:23:18Z</time>
      </trkpt>
      <trkpt lat="48.53353" lon="2.2113">
        <ele>162</ele>
        <time>2026-03-20T14:23:19Z</time>
      </trkpt>
      <trkpt lat="48.53353" lon="2.21137">
        <ele>163.4</ele>
        <time>2026-03-20T14:23:20Z</time>
      </trkpt>
      <trkpt lat="48.53352" lon="2.21145">
        <ele>163.4</ele>
        <time>2026-03-20T14:23:21Z</time>
      </trkpt>
      <trkpt lat="48.53351" lon="2.21153">
        <ele>163.4</ele>
        <time>2026-03-20T14:23:22Z</time>
      </trkpt>
      <trkpt lat="48.53351" lon="2.21161">
        <ele>162.4</ele>
        <time>2026-03-20T14:23:23Z</time>
      </trkpt>
      <trkpt lat="48.53351" lon="2.21169">
        <ele>161.4</ele>
        <time>2026-03-20T14:23:24Z</time>
      </trkpt>
      <trkpt lat="48.5335" lon="2.21177">
        <ele>161.4</ele>
        <time>2026-03-20T14:23:25Z</time>
      </trkpt>
      <trkpt lat="48.53349" lon="2.21184">
        <ele>161.4</ele>
        <time>2026-03-20T14:23:26Z</time>
      </trkpt>
      <trkpt lat="48.53348" lon="2.21192">
        <ele>162.4</ele>
        <time>2026-03-20T14:23:27Z</time>
      </trkpt>
      <trkpt lat="48.53348" lon="2.212">
        <ele>162.8</ele>
        <time>2026-03-20T14:23:28Z</time>
      </trkpt>
      <trkpt lat="48.53347" lon="2.21208">
        <ele>162.8</ele>
        <time>2026-03-20T14:23:29Z</time>
      </trkpt>
      <trkpt lat="48.53346" lon="2.21216">
        <ele>162.8</ele>
        <time>2026-03-20T14:23:30Z</time>
      </trkpt>
      <trkpt lat="48.53345" lon="2.21224">
        <ele>162.8</ele>
        <time>2026-03-20T14:23:31Z</time>
      </trkpt>
      <trkpt lat="48.53345" lon="2.21233">
        <ele>162.4</ele>
        <time>2026-03-20T14:23:32Z</time>
      </trkpt>
      <trkpt lat="48.53344" lon="2.21241">
        <ele>162.4</ele>
        <time>2026-03-20T14:23:33Z</time>
      </trkpt>
      <trkpt lat="48.53343" lon="2.21249">
        <ele>162.4</ele>
        <time>2026-03-20T14:23:34Z</time>
      </trkpt>
      <trkpt lat="48.53342" lon="2.21257">
        <ele>162.4</ele>
        <time>2026-03-20T14:23:35Z</time>
      </trkpt>
      <trkpt lat="48.53341" lon="2.21265">
        <ele>163</ele>
        <time>2026-03-20T14:23:36Z</time>
      </trkpt>
      <trkpt lat="48.5334" lon="2.21273">
        <ele>163</ele>
        <time>2026-03-20T14:23:37Z</time>
      </trkpt>
      <trkpt lat="48.53339" lon="2.21281">
        <ele>163</ele>
        <time>2026-03-20T14:23:38Z</time>
      </trkpt>
      <trkpt lat="48.53337" lon="2.2129">
        <ele>162.4</ele>
        <time>2026-03-20T14:23:39Z</time>
      </trkpt>
      <trkpt lat="48.53336" lon="2.21298">
        <ele>162.6</ele>
        <time>2026-03-20T14:23:40Z</time>
      </trkpt>
      <trkpt lat="48.53335" lon="2.21306">
        <ele>162.6</ele>
        <time>2026-03-20T14:23:41Z</time>
      </trkpt>
      <trkpt lat="48.53333" lon="2.21315">
        <ele>162.6</ele>
        <time>2026-03-20T14:23:42Z</time>
      </trkpt>
      <trkpt lat="48.53332" lon="2.21323">
        <ele>161.6</ele>
        <time>2026-03-20T14:23:43Z</time>
      </trkpt>
      <trkpt lat="48.53331" lon="2.21332">
        <ele>160.8</ele>
        <time>2026-03-20T14:23:44Z</time>
      </trkpt>
      <trkpt lat="48.53329" lon="2.21341">
        <ele>160.8</ele>
        <time>2026-03-20T14:23:45Z</time>
      </trkpt>
      <trkpt lat="48.53328" lon="2.21349">
        <ele>160.8</ele>
        <time>2026-03-20T14:23:46Z</time>
      </trkpt>
      <trkpt lat="48.53326" lon="2.21358">
        <ele>160.8</ele>
        <time>2026-03-20T14:23:47Z</time>
      </trkpt>
      <trkpt lat="48.53325" lon="2.21367">
        <ele>160</ele>
        <time>2026-03-20T14:23:48Z</time>
      </trkpt>
      <trkpt lat="48.53323" lon="2.21376">
        <ele>160</ele>
        <time>2026-03-20T14:23:49Z</time>
      </trkpt>
      <trkpt lat="48.53321" lon="2.21385">
        <ele>160</ele>
        <time>2026-03-20T14:23:50Z</time>
      </trkpt>
      <trkpt lat="48.5332" lon="2.21393">
        <ele>160</ele>
        <time>2026-03-20T14:23:51Z</time>
      </trkpt>
      <trkpt lat="48.53318" lon="2.21402">
        <ele>159.6</ele>
        <time>2026-03-20T14:23:52Z</time>
      </trkpt>
      <trkpt lat="48.53316" lon="2.21411">
        <ele>159.6</ele>
        <time>2026-03-20T14:23:53Z</time>
      </trkpt>
      <trkpt lat="48.53314" lon="2.21419">
        <ele>159.6</ele>
        <time>2026-03-20T14:23:54Z</time>
      </trkpt>
      <trkpt lat="48.53312" lon="2.21427">
        <ele>159.6</ele>
        <time>2026-03-20T14:23:55Z</time>
      </trkpt>
      <trkpt lat="48.5331" lon="2.21436">
        <ele>159.2</ele>
        <time>2026-03-20T14:23:56Z</time>
      </trkpt>
      <trkpt lat="48.53308" lon="2.21444">
        <ele>159.2</ele>
        <time>2026-03-20T14:23:57Z</time>
      </trkpt>
      <trkpt lat="48.53306" lon="2.21452">
        <ele>159.2</ele>
        <time>2026-03-20T14:23:58Z</time>
      </trkpt>
      <trkpt lat="48.53304" lon="2.21461">
        <ele>159.2</ele>
        <time>2026-03-20T14:23:59Z</time>
      </trkpt>
      <trkpt lat="48.53302" lon="2.21469">
        <ele>159.2</ele>
        <time>2026-03-20T14:24:00Z</time>
      </trkpt>
      <trkpt lat="48.533" lon="2.21477">
        <ele>159.2</ele>
        <time>2026-03-20T14:24:01Z</time>
      </trkpt>
      <trkpt lat="48.53297" lon="2.21486">
        <ele>159.2</ele>
        <time>2026-03-20T14:24:02Z</time>
      </trkpt>
      <trkpt lat="48.53295" lon="2.21494">
        <ele>160.2</ele>
        <time>2026-03-20T14:24:03Z</time>
      </trkpt>
      <trkpt lat="48.53293" lon="2.21503">
        <ele>160.2</ele>
        <time>2026-03-20T14:24:04Z</time>
      </trkpt>
      <trkpt lat="48.53291" lon="2.21511">
        <ele>160.2</ele>
        <time>2026-03-20T14:24:05Z</time>
      </trkpt>
      <trkpt lat="48.53289" lon="2.2152">
        <ele>160.2</ele>
        <time>2026-03-20T14:24:06Z</time>
      </trkpt>
      <trkpt lat="48.53287" lon="2.21529">
        <ele>159.6</ele>
        <time>2026-03-20T14:24:07Z</time>
      </trkpt>
      <trkpt lat="48.53285" lon="2.21537">
        <ele>159.4</ele>
        <time>2026-03-20T14:24:08Z</time>
      </trkpt>
      <trkpt lat="48.53282" lon="2.21546">
        <ele>159.4</ele>
        <time>2026-03-20T14:24:09Z</time>
      </trkpt>
      <trkpt lat="48.5328" lon="2.21555">
        <ele>159.4</ele>
        <time>2026-03-20T14:24:10Z</time>
      </trkpt>
      <trkpt lat="48.53278" lon="2.21564">
        <ele>158.4</ele>
        <time>2026-03-20T14:24:11Z</time>
      </trkpt>
      <trkpt lat="48.53276" lon="2.21573">
        <ele>157.8</ele>
        <time>2026-03-20T14:24:12Z</time>
      </trkpt>
      <trkpt lat="48.53274" lon="2.21582">
        <ele>157.8</ele>
        <time>2026-03-20T14:24:13Z</time>
      </trkpt>
      <trkpt lat="48.53272" lon="2.21591">
        <ele>157.8</ele>
        <time>2026-03-20T14:24:14Z</time>
      </trkpt>
      <trkpt lat="48.5327" lon="2.216">
        <ele>157.2</ele>
        <time>2026-03-20T14:24:15Z</time>
      </trkpt>
      <trkpt lat="48.53267" lon="2.21609">
        <ele>156.8</ele>
        <time>2026-03-20T14:24:16Z</time>
      </trkpt>
      <trkpt lat="48.53265" lon="2.21617">
        <ele>156.8</ele>
        <time>2026-03-20T14:24:17Z</time>
      </trkpt>
      <trkpt lat="48.53263" lon="2.21626">
        <ele>156.8</ele>
        <time>2026-03-20T14:24:18Z</time>
      </trkpt>
      <trkpt lat="48.53261" lon="2.21634">
        <ele>156.8</ele>
        <time>2026-03-20T14:24:19Z</time>
      </trkpt>
      <trkpt lat="48.53259" lon="2.21642">
        <ele>157.4</ele>
        <time>2026-03-20T14:24:20Z</time>
      </trkpt>
      <trkpt lat="48.53257" lon="2.2165">
        <ele>157.4</ele>
        <time>2026-03-20T14:24:21Z</time>
      </trkpt>
      <trkpt lat="48.53255" lon="2.21658">
        <ele>157.4</ele>
        <time>2026-03-20T14:24:22Z</time>
      </trkpt>
      <trkpt lat="48.53254" lon="2.21666">
        <ele>156.4</ele>
        <time>2026-03-20T14:24:23Z</time>
      </trkpt>
      <trkpt lat="48.53252" lon="2.21674">
        <ele>155.2</ele>
        <time>2026-03-20T14:24:24Z</time>
      </trkpt>
      <trkpt lat="48.5325" lon="2.21682">
        <ele>155.2</ele>
        <time>2026-03-20T14:24:25Z</time>
      </trkpt>
      <trkpt lat="48.53248" lon="2.2169">
        <ele>155.2</ele>
        <time>2026-03-20T14:24:26Z</time>
      </trkpt>
      <trkpt lat="48.53247" lon="2.21697">
        <ele>156.2</ele>
        <time>2026-03-20T14:24:27Z</time>
      </trkpt>
      <trkpt lat="48.53245" lon="2.21705">
        <ele>157</ele>
        <time>2026-03-20T14:24:28Z</time>
      </trkpt>
      <trkpt lat="48.53244" lon="2.21712">
        <ele>157</ele>
        <time>2026-03-20T14:24:29Z</time>
      </trkpt>
      <trkpt lat="48.53242" lon="2.21719">
        <ele>157</ele>
        <time>2026-03-20T14:24:30Z</time>
      </trkpt>
      <trkpt lat="48.5324" lon="2.21726">
        <ele>156.4</ele>
        <time>2026-03-20T14:24:31Z</time>
      </trkpt>
      <trkpt lat="48.53239" lon="2.21734">
        <ele>156.8</ele>
        <time>2026-03-20T14:24:32Z</time>
      </trkpt>
      <trkpt lat="48.53237" lon="2.21741">
        <ele>156.8</ele>
        <time>2026-03-20T14:24:33Z</time>
      </trkpt>
      <trkpt lat="48.53235" lon="2.21748">
        <ele>156.8</ele>
        <time>2026-03-20T14:24:34Z</time>
      </trkpt>
      <trkpt lat="48.53234" lon="2.21755">
        <ele>155.8</ele>
        <time>2026-03-20T14:24:35Z</time>
      </trkpt>
      <trkpt lat="48.53232" lon="2.21762">
        <ele>155</ele>
        <time>2026-03-20T14:24:36Z</time>
      </trkpt>
      <trkpt lat="48.53231" lon="2.21769">
        <ele>155</ele>
        <time>2026-03-20T14:24:37Z</time>
      </trkpt>
      <trkpt lat="48.53229" lon="2.21776">
        <ele>155</ele>
        <time>2026-03-20T14:24:38Z</time>
      </trkpt>
      <trkpt lat="48.53228" lon="2.21782">
        <ele>155</ele>
        <time>2026-03-20T14:24:39Z</time>
      </trkpt>
      <trkpt lat="48.53226" lon="2.21789">
        <ele>155.4</ele>
        <time>2026-03-20T14:24:40Z</time>
      </trkpt>
      <trkpt lat="48.53225" lon="2.21795">
        <ele>155.4</ele>
        <time>2026-03-20T14:24:41Z</time>
      </trkpt>
      <trkpt lat="48.53223" lon="2.21802">
        <ele>155.4</ele>
        <time>2026-03-20T14:24:42Z</time>
      </trkpt>
      <trkpt lat="48.53222" lon="2.21808">
        <ele>155.4</ele>
        <time>2026-03-20T14:24:43Z</time>
      </trkpt>
      <trkpt lat="48.53221" lon="2.21815">
        <ele>155.6</ele>
        <time>2026-03-20T14:24:44Z</time>
      </trkpt>
      <trkpt lat="48.53219" lon="2.21821">
        <ele>155.6</ele>
        <time>2026-03-20T14:24:45Z</time>
      </trkpt>
      <trkpt lat="48.53218" lon="2.21828">
        <ele>155.6</ele>
        <time>2026-03-20T14:24:46Z</time>
      </trkpt>
      <trkpt lat="48.53216" lon="2.21834">
        <ele>155.6</ele>
        <time>2026-03-20T14:24:47Z</time>
      </trkpt>
      <trkpt lat="48.53216" lon="2.21841">
        <ele>156</ele>
        <time>2026-03-20T14:24:48Z</time>
      </trkpt>
      <trkpt lat="48.53214" lon="2.21847">
        <ele>156</ele>
        <time>2026-03-20T14:24:49Z</time>
      </trkpt>
      <trkpt lat="48.53213" lon="2.21854">
        <ele>156</ele>
        <time>2026-03-20T14:24:50Z</time>
      </trkpt>
      <trkpt lat="48.53211" lon="2.21861">
        <ele>156.2</ele>
        <time>2026-03-20T14:24:51Z</time>
      </trkpt>
      <trkpt lat="48.53209" lon="2.21867">
        <ele>156.4</ele>
        <time>2026-03-20T14:24:52Z</time>
      </trkpt>
      <trkpt lat="48.53208" lon="2.21874">
        <ele>156.4</ele>
        <time>2026-03-20T14:24:53Z</time>
      </trkpt>
      <trkpt lat="48.53206" lon="2.21881">
        <ele>156.4</ele>
        <time>2026-03-20T14:24:54Z</time>
      </trkpt>
      <trkpt lat="48.53205" lon="2.21888">
        <ele>156.4</ele>
        <time>2026-03-20T14:24:55Z</time>
      </trkpt>
      <trkpt lat="48.53203" lon="2.21895">
        <ele>156.2</ele>
        <time>2026-03-20T14:24:56Z</time>
      </trkpt>
      <trkpt lat="48.53201" lon="2.21902">
        <ele>156.2</ele>
        <time>2026-03-20T14:24:57Z</time>
      </trkpt>
      <trkpt lat="48.532" lon="2.21909">
        <ele>156.2</ele>
        <time>2026-03-20T14:24:58Z</time>
      </trkpt>
      <trkpt lat="48.53198" lon="2.21916">
        <ele>156.2</ele>
        <time>2026-03-20T14:24:59Z</time>
      </trkpt>
      <trkpt lat="48.53197" lon="2.21923">
        <ele>155</ele>
        <time>2026-03-20T14:25:00Z</time>
      </trkpt>
      <trkpt lat="48.53196" lon="2.2193">
        <ele>155</ele>
        <time>2026-03-20T14:25:01Z</time>
      </trkpt>
      <trkpt lat="48.53194" lon="2.21937">
        <ele>155</ele>
        <time>2026-03-20T14:25:02Z</time>
      </trkpt>
      <trkpt lat="48.53193" lon="2.21944">
        <ele>155</ele>
        <time>2026-03-20T14:25:03Z</time>
      </trkpt>
      <trkpt lat="48.53191" lon="2.2195">
        <ele>154.2</ele>
        <time>2026-03-20T14:25:04Z</time>
      </trkpt>
      <trkpt lat="48.53189" lon="2.21957">
        <ele>154.2</ele>
        <time>2026-03-20T14:25:05Z</time>
      </trkpt>
      <trkpt lat="48.53187" lon="2.21964">
        <ele>154.2</ele>
        <time>2026-03-20T14:25:06Z</time>
      </trkpt>
      <trkpt lat="48.53186" lon="2.21971">
        <ele>154.2</ele>
        <time>2026-03-20T14:25:07Z</time>
      </trkpt>
      <trkpt lat="48.53184" lon="2.21978">
        <ele>154.4</ele>
        <time>2026-03-20T14:25:08Z</time>
      </trkpt>
      <trkpt lat="48.53183" lon="2.21986">
        <ele>154.4</ele>
        <time>2026-03-20T14:25:09Z</time>
      </trkpt>
      <trkpt lat="48.53181" lon="2.21993">
        <ele>154.4</ele>
        <time>2026-03-20T14:25:10Z</time>
      </trkpt>
      <trkpt lat="48.5318" lon="2.22">
        <ele>154.8</ele>
        <time>2026-03-20T14:25:11Z</time>
      </trkpt>
      <trkpt lat="48.53178" lon="2.22007">
        <ele>154.8</ele>
        <time>2026-03-20T14:25:12Z</time>
      </trkpt>
      <trkpt lat="48.53176" lon="2.22014">
        <ele>154.8</ele>
        <time>2026-03-20T14:25:13Z</time>
      </trkpt>
      <trkpt lat="48.53175" lon="2.22021">
        <ele>154.8</ele>
        <time>2026-03-20T14:25:14Z</time>
      </trkpt>
      <trkpt lat="48.53173" lon="2.22029">
        <ele>154.8</ele>
        <time>2026-03-20T14:25:15Z</time>
      </trkpt>
      <trkpt lat="48.53172" lon="2.22036">
        <ele>155.2</ele>
        <time>2026-03-20T14:25:16Z</time>
      </trkpt>
      <trkpt lat="48.5317" lon="2.22043">
        <ele>155.2</ele>
        <time>2026-03-20T14:25:17Z</time>
      </trkpt>
      <trkpt lat="48.53169" lon="2.22051">
        <ele>155.2</ele>
        <time>2026-03-20T14:25:18Z</time>
      </trkpt>
      <trkpt lat="48.53167" lon="2.22058">
        <ele>155.2</ele>
        <time>2026-03-20T14:25:19Z</time>
      </trkpt>
      <trkpt lat="48.53166" lon="2.22066">
        <ele>155.6</ele>
        <time>2026-03-20T14:25:20Z</time>
      </trkpt>
      <trkpt lat="48.53164" lon="2.22073">
        <ele>155.6</ele>
        <time>2026-03-20T14:25:21Z</time>
      </trkpt>
      <trkpt lat="48.53163" lon="2.2208">
        <ele>155.6</ele>
        <time>2026-03-20T14:25:22Z</time>
      </trkpt>
      <trkpt lat="48.53161" lon="2.22088">
        <ele>155.2</ele>
        <time>2026-03-20T14:25:23Z</time>
      </trkpt>
      <trkpt lat="48.53159" lon="2.22095">
        <ele>154.6</ele>
        <time>2026-03-20T14:25:24Z</time>
      </trkpt>
      <trkpt lat="48.53158" lon="2.22103">
        <ele>154.6</ele>
        <time>2026-03-20T14:25:25Z</time>
      </trkpt>
      <trkpt lat="48.53156" lon="2.2211">
        <ele>154.6</ele>
        <time>2026-03-20T14:25:26Z</time>
      </trkpt>
      <trkpt lat="48.53155" lon="2.22118">
        <ele>155.4</ele>
        <time>2026-03-20T14:25:27Z</time>
      </trkpt>
      <trkpt lat="48.53153" lon="2.22125">
        <ele>154.4</ele>
        <time>2026-03-20T14:25:28Z</time>
      </trkpt>
      <trkpt lat="48.53152" lon="2.22133">
        <ele>154.4</ele>
        <time>2026-03-20T14:25:29Z</time>
      </trkpt>
      <trkpt lat="48.5315" lon="2.2214">
        <ele>154.4</ele>
        <time>2026-03-20T14:25:30Z</time>
      </trkpt>
      <trkpt lat="48.53148" lon="2.22147">
        <ele>154.4</ele>
        <time>2026-03-20T14:25:31Z</time>
      </trkpt>
      <trkpt lat="48.53146" lon="2.22155">
        <ele>155.6</ele>
        <time>2026-03-20T14:25:32Z</time>
      </trkpt>
      <trkpt lat="48.53143" lon="2.22162">
        <ele>155.6</ele>
        <time>2026-03-20T14:25:33Z</time>
      </trkpt>
      <trkpt lat="48.53141" lon="2.2217">
        <ele>155.6</ele>
        <time>2026-03-20T14:25:34Z</time>
      </trkpt>
      <trkpt lat="48.53139" lon="2.22177">
        <ele>156.2</ele>
        <time>2026-03-20T14:25:35Z</time>
      </trkpt>
      <trkpt lat="48.53137" lon="2.22185">
        <ele>156.8</ele>
        <time>2026-03-20T14:25:36Z</time>
      </trkpt>
      <trkpt lat="48.53135" lon="2.22192">
        <ele>156.8</ele>
        <time>2026-03-20T14:25:37Z</time>
      </trkpt>
      <trkpt lat="48.53132" lon="2.22199">
        <ele>156.8</ele>
        <time>2026-03-20T14:25:38Z</time>
      </trkpt>
      <trkpt lat="48.5313" lon="2.22205">
        <ele>156</ele>
        <time>2026-03-20T14:25:39Z</time>
      </trkpt>
      <trkpt lat="48.53127" lon="2.22212">
        <ele>155.4</ele>
        <time>2026-03-20T14:25:40Z</time>
      </trkpt>
      <trkpt lat="48.53124" lon="2.22218">
        <ele>155.4</ele>
        <time>2026-03-20T14:25:41Z</time>
      </trkpt>
      <trkpt lat="48.53122" lon="2.22225">
        <ele>155.4</ele>
        <time>2026-03-20T14:25:42Z</time>
      </trkpt>
      <trkpt lat="48.53119" lon="2.22231">
        <ele>155.8</ele>
        <time>2026-03-20T14:25:43Z</time>
      </trkpt>
      <trkpt lat="48.53116" lon="2.22237">
        <ele>156.2</ele>
        <time>2026-03-20T14:25:44Z</time>
      </trkpt>
      <trkpt lat="48.53113" lon="2.22243">
        <ele>156.2</ele>
        <time>2026-03-20T14:25:45Z</time>
      </trkpt>
      <trkpt lat="48.5311" lon="2.2225">
        <ele>156.2</ele>
        <time>2026-03-20T14:25:46Z</time>
      </trkpt>
      <trkpt lat="48.53107" lon="2.22256">
        <ele>156.6</ele>
        <time>2026-03-20T14:25:47Z</time>
      </trkpt>
      <trkpt lat="48.53104" lon="2.22263">
        <ele>156.2</ele>
        <time>2026-03-20T14:25:48Z</time>
      </trkpt>
      <trkpt lat="48.53101" lon="2.22269">
        <ele>156.2</ele>
        <time>2026-03-20T14:25:49Z</time>
      </trkpt>
      <trkpt lat="48.53098" lon="2.22276">
        <ele>156.2</ele>
        <time>2026-03-20T14:25:50Z</time>
      </trkpt>
      <trkpt lat="48.53095" lon="2.22283">
        <ele>157.2</ele>
        <time>2026-03-20T14:25:51Z</time>
      </trkpt>
      <trkpt lat="48.53092" lon="2.22289">
        <ele>156.8</ele>
        <time>2026-03-20T14:25:52Z</time>
      </trkpt>
      <trkpt lat="48.53089" lon="2.22296">
        <ele>156.8</ele>
        <time>2026-03-20T14:25:53Z</time>
      </trkpt>
      <trkpt lat="48.53086" lon="2.22303">
        <ele>156.8</ele>
        <time>2026-03-20T14:25:54Z</time>
      </trkpt>
      <trkpt lat="48.53084" lon="2.2231">
        <ele>156.8</ele>
        <time>2026-03-20T14:25:55Z</time>
      </trkpt>
      <trkpt lat="48.53081" lon="2.22317">
        <ele>157</ele>
        <time>2026-03-20T14:25:56Z</time>
      </trkpt>
      <trkpt lat="48.53078" lon="2.22323">
        <ele>157</ele>
        <time>2026-03-20T14:25:57Z</time>
      </trkpt>
      <trkpt lat="48.53075" lon="2.2233">
        <ele>157</ele>
        <time>2026-03-20T14:25:58Z</time>
      </trkpt>
      <trkpt lat="48.53073" lon="2.22337">
        <ele>157.6</ele>
        <time>2026-03-20T14:25:59Z</time>
      </trkpt>
      <trkpt lat="48.5307" lon="2.22344">
        <ele>157.2</ele>
        <time>2026-03-20T14:26:00Z</time>
      </trkpt>
      <trkpt lat="48.53068" lon="2.22351">
        <ele>157.2</ele>
        <time>2026-03-20T14:26:01Z</time>
      </trkpt>
      <trkpt lat="48.53065" lon="2.22358">
        <ele>157.2</ele>
        <time>2026-03-20T14:26:02Z</time>
      </trkpt>
      <trkpt lat="48.53063" lon="2.22365">
        <ele>157.2</ele>
        <time>2026-03-20T14:26:03Z</time>
      </trkpt>
      <trkpt lat="48.5306" lon="2.22372">
        <ele>156.4</ele>
        <time>2026-03-20T14:26:04Z</time>
      </trkpt>
      <trkpt lat="48.53058" lon="2.2238">
        <ele>156.4</ele>
        <time>2026-03-20T14:26:05Z</time>
      </trkpt>
      <trkpt lat="48.53055" lon="2.22387">
        <ele>156.4</ele>
        <time>2026-03-20T14:26:06Z</time>
      </trkpt>
      <trkpt lat="48.53053" lon="2.22395">
        <ele>156.6</ele>
        <time>2026-03-20T14:26:07Z</time>
      </trkpt>
      <trkpt lat="48.5305" lon="2.22402">
        <ele>156.2</ele>
        <time>2026-03-20T14:26:08Z</time>
      </trkpt>
      <trkpt lat="48.53048" lon="2.22409">
        <ele>156.2</ele>
        <time>2026-03-20T14:26:09Z</time>
      </trkpt>
      <trkpt lat="48.53045" lon="2.22416">
        <ele>156.2</ele>
        <time>2026-03-20T14:26:10Z</time>
      </trkpt>
      <trkpt lat="48.53043" lon="2.22423">
        <ele>156.2</ele>
        <time>2026-03-20T14:26:11Z</time>
      </trkpt>
      <trkpt lat="48.5304" lon="2.22431">
        <ele>156.6</ele>
        <time>2026-03-20T14:26:12Z</time>
      </trkpt>
      <trkpt lat="48.53038" lon="2.22439">
        <ele>156.6</ele>
        <time>2026-03-20T14:26:13Z</time>
      </trkpt>
      <trkpt lat="48.53035" lon="2.22446">
        <ele>156.6</ele>
        <time>2026-03-20T14:26:14Z</time>
      </trkpt>
      <trkpt lat="48.53033" lon="2.22453">
        <ele>156.2</ele>
        <time>2026-03-20T14:26:15Z</time>
      </trkpt>
      <trkpt lat="48.5303" lon="2.2246">
        <ele>156</ele>
        <time>2026-03-20T14:26:16Z</time>
      </trkpt>
      <trkpt lat="48.53027" lon="2.22467">
        <ele>156</ele>
        <time>2026-03-20T14:26:17Z</time>
      </trkpt>
      <trkpt lat="48.53025" lon="2.22474">
        <ele>156</ele>
        <time>2026-03-20T14:26:18Z</time>
      </trkpt>
      <trkpt lat="48.53023" lon="2.2248">
        <ele>156</ele>
        <time>2026-03-20T14:26:19Z</time>
      </trkpt>
      <trkpt lat="48.5302" lon="2.22487">
        <ele>155</ele>
        <time>2026-03-20T14:26:20Z</time>
      </trkpt>
      <trkpt lat="48.53018" lon="2.22494">
        <ele>155</ele>
        <time>2026-03-20T14:26:21Z</time>
      </trkpt>
      <trkpt lat="48.53016" lon="2.225">
        <ele>155</ele>
        <time>2026-03-20T14:26:22Z</time>
      </trkpt>
      <trkpt lat="48.53014" lon="2.22507">
        <ele>155</ele>
        <time>2026-03-20T14:26:23Z</time>
      </trkpt>
      <trkpt lat="48.53011" lon="2.22514">
        <ele>154</ele>
        <time>2026-03-20T14:26:24Z</time>
      </trkpt>
      <trkpt lat="48.53009" lon="2.22521">
        <ele>154</ele>
        <time>2026-03-20T14:26:25Z</time>
      </trkpt>
      <trkpt lat="48.53007" lon="2.22528">
        <ele>154</ele>
        <time>2026-03-20T14:26:26Z</time>
      </trkpt>
      <trkpt lat="48.53005" lon="2.22535">
        <ele>154.8</ele>
        <time>2026-03-20T14:26:27Z</time>
      </trkpt>
      <trkpt lat="48.53003" lon="2.22542">
        <ele>155.4</ele>
        <time>2026-03-20T14:26:28Z</time>
      </trkpt>
      <trkpt lat="48.53001" lon="2.22547">
        <ele>155.4</ele>
        <time>2026-03-20T14:26:29Z</time>
      </trkpt>
      <trkpt lat="48.52999" lon="2.2255">
        <ele>155.4</ele>
        <time>2026-03-20T14:26:30Z</time>
      </trkpt>
      <trkpt lat="48.52997" lon="2.22552">
        <ele>155.4</ele>
        <time>2026-03-20T14:26:31Z</time>
      </trkpt>
      <trkpt lat="48.52994" lon="2.22552">
        <ele>156.2</ele>
        <time>2026-03-20T14:26:32Z</time>
      </trkpt>
      <trkpt lat="48.5299" lon="2.22552">
        <ele>156.2</ele>
        <time>2026-03-20T14:26:33Z</time>
      </trkpt>
      <trkpt lat="48.52987" lon="2.22551">
        <ele>156.2</ele>
        <time>2026-03-20T14:26:34Z</time>
      </trkpt>
      <trkpt lat="48.52983" lon="2.22549">
        <ele>156.2</ele>
        <time>2026-03-20T14:26:35Z</time>
      </trkpt>
      <trkpt lat="48.52979" lon="2.22546">
        <ele>156.2</ele>
        <time>2026-03-20T14:26:36Z</time>
      </trkpt>
      <trkpt lat="48.52975" lon="2.22544">
        <ele>156.2</ele>
        <time>2026-03-20T14:26:37Z</time>
      </trkpt>
      <trkpt lat="48.5297" lon="2.22541">
        <ele>156.2</ele>
        <time>2026-03-20T14:26:38Z</time>
      </trkpt>
      <trkpt lat="48.52966" lon="2.22538">
        <ele>155.8</ele>
        <time>2026-03-20T14:26:39Z</time>
      </trkpt>
      <trkpt lat="48.52961" lon="2.22535">
        <ele>156.2</ele>
        <time>2026-03-20T14:26:40Z</time>
      </trkpt>
      <trkpt lat="48.52957" lon="2.22532">
        <ele>156.2</ele>
        <time>2026-03-20T14:26:41Z</time>
      </trkpt>
      <trkpt lat="48.52952" lon="2.2253">
        <ele>156.2</ele>
        <time>2026-03-20T14:26:42Z</time>
      </trkpt>
      <trkpt lat="48.52947" lon="2.22527">
        <ele>156.2</ele>
        <time>2026-03-20T14:26:43Z</time>
      </trkpt>
      <trkpt lat="48.52943" lon="2.22524">
        <ele>156.6</ele>
        <time>2026-03-20T14:26:44Z</time>
      </trkpt>
      <trkpt lat="48.52938" lon="2.22521">
        <ele>156.6</ele>
        <time>2026-03-20T14:26:45Z</time>
      </trkpt>
      <trkpt lat="48.52933" lon="2.22518">
        <ele>156.6</ele>
        <time>2026-03-20T14:26:46Z</time>
      </trkpt>
      <trkpt lat="48.52929" lon="2.22515">
        <ele>156.6</ele>
        <time>2026-03-20T14:26:47Z</time>
      </trkpt>
      <trkpt lat="48.52924" lon="2.22512">
        <ele>156.4</ele>
        <time>2026-03-20T14:26:48Z</time>
      </trkpt>
      <trkpt lat="48.52919" lon="2.22509">
        <ele>156.4</ele>
        <time>2026-03-20T14:26:49Z</time>
      </trkpt>
      <trkpt lat="48.52914" lon="2.22505">
        <ele>156.4</ele>
        <time>2026-03-20T14:26:50Z</time>
      </trkpt>
      <trkpt lat="48.5291" lon="2.22502">
        <ele>156.2</ele>
        <time>2026-03-20T14:26:51Z</time>
      </trkpt>
      <trkpt lat="48.52905" lon="2.22498">
        <ele>155.4</ele>
        <time>2026-03-20T14:26:52Z</time>
      </trkpt>
      <trkpt lat="48.529" lon="2.22495">
        <ele>155.4</ele>
        <time>2026-03-20T14:26:53Z</time>
      </trkpt>
      <trkpt lat="48.52896" lon="2.22491">
        <ele>155.4</ele>
        <time>2026-03-20T14:26:54Z</time>
      </trkpt>
      <trkpt lat="48.52891" lon="2.22488">
        <ele>156.4</ele>
        <time>2026-03-20T14:26:55Z</time>
      </trkpt>
      <trkpt lat="48.52887" lon="2.22485">
        <ele>157</ele>
        <time>2026-03-20T14:26:56Z</time>
      </trkpt>
      <trkpt lat="48.52882" lon="2.22481">
        <ele>157</ele>
        <time>2026-03-20T14:26:57Z</time>
      </trkpt>
      <trkpt lat="48.52877" lon="2.22477">
        <ele>157</ele>
        <time>2026-03-20T14:26:58Z</time>
      </trkpt>
      <trkpt lat="48.52872" lon="2.22474">
        <ele>157</ele>
        <time>2026-03-20T14:26:59Z</time>
      </trkpt>
      <trkpt lat="48.52867" lon="2.2247">
        <ele>157</ele>
        <time>2026-03-20T14:27:00Z</time>
      </trkpt>
      <trkpt lat="48.52862" lon="2.22466">
        <ele>157</ele>
        <time>2026-03-20T14:27:01Z</time>
      </trkpt>
      <trkpt lat="48.52857" lon="2.22463">
        <ele>157</ele>
        <time>2026-03-20T14:27:02Z</time>
      </trkpt>
      <trkpt lat="48.52852" lon="2.22459">
        <ele>156.8</ele>
        <time>2026-03-20T14:27:03Z</time>
      </trkpt>
      <trkpt lat="48.52847" lon="2.22456">
        <ele>157</ele>
        <time>2026-03-20T14:27:04Z</time>
      </trkpt>
      <trkpt lat="48.52842" lon="2.22452">
        <ele>157</ele>
        <time>2026-03-20T14:27:05Z</time>
      </trkpt>
      <trkpt lat="48.52837" lon="2.22448">
        <ele>157</ele>
        <time>2026-03-20T14:27:06Z</time>
      </trkpt>
      <trkpt lat="48.52832" lon="2.22445">
        <ele>157</ele>
        <time>2026-03-20T14:27:07Z</time>
      </trkpt>
      <trkpt lat="48.52827" lon="2.22441">
        <ele>155.4</ele>
        <time>2026-03-20T14:27:08Z</time>
      </trkpt>
      <trkpt lat="48.52822" lon="2.22438">
        <ele>155.4</ele>
        <time>2026-03-20T14:27:09Z</time>
      </trkpt>
      <trkpt lat="48.52817" lon="2.22434">
        <ele>155.4</ele>
        <time>2026-03-20T14:27:10Z</time>
      </trkpt>
      <trkpt lat="48.52812" lon="2.22431">
        <ele>156.2</ele>
        <time>2026-03-20T14:27:11Z</time>
      </trkpt>
      <trkpt lat="48.52807" lon="2.22427">
        <ele>156.6</ele>
        <time>2026-03-20T14:27:12Z</time>
      </trkpt>
      <trkpt lat="48.52802" lon="2.22424">
        <ele>156.6</ele>
        <time>2026-03-20T14:27:13Z</time>
      </trkpt>
      <trkpt lat="48.52798" lon="2.2242">
        <ele>156.6</ele>
        <time>2026-03-20T14:27:14Z</time>
      </trkpt>
      <trkpt lat="48.52793" lon="2.22416">
        <ele>156.6</ele>
        <time>2026-03-20T14:27:15Z</time>
      </trkpt>
      <trkpt lat="48.52788" lon="2.22412">
        <ele>156</ele>
        <time>2026-03-20T14:27:16Z</time>
      </trkpt>
      <trkpt lat="48.52783" lon="2.22408">
        <ele>156</ele>
        <time>2026-03-20T14:27:17Z</time>
      </trkpt>
      <trkpt lat="48.52779" lon="2.22404">
        <ele>156</ele>
        <time>2026-03-20T14:27:18Z</time>
      </trkpt>
      <trkpt lat="48.52774" lon="2.22399">
        <ele>157</ele>
        <time>2026-03-20T14:27:19Z</time>
      </trkpt>
      <trkpt lat="48.52769" lon="2.22395">
        <ele>156.8</ele>
        <time>2026-03-20T14:27:20Z</time>
      </trkpt>
      <trkpt lat="48.52764" lon="2.22391">
        <ele>156.8</ele>
        <time>2026-03-20T14:27:21Z</time>
      </trkpt>
      <trkpt lat="48.52759" lon="2.22386">
        <ele>156.8</ele>
        <time>2026-03-20T14:27:22Z</time>
      </trkpt>
      <trkpt lat="48.52755" lon="2.22381">
        <ele>157</ele>
        <time>2026-03-20T14:27:23Z</time>
      </trkpt>
      <trkpt lat="48.5275" lon="2.22377">
        <ele>157</ele>
        <time>2026-03-20T14:27:24Z</time>
      </trkpt>
      <trkpt lat="48.52745" lon="2.22372">
        <ele>157</ele>
        <time>2026-03-20T14:27:25Z</time>
      </trkpt>
      <trkpt lat="48.5274" lon="2.22367">
        <ele>157</ele>
        <time>2026-03-20T14:27:26Z</time>
      </trkpt>
      <trkpt lat="48.52736" lon="2.22363">
        <ele>157</ele>
        <time>2026-03-20T14:27:27Z</time>
      </trkpt>
      <trkpt lat="48.52731" lon="2.22358">
        <ele>157.2</ele>
        <time>2026-03-20T14:27:28Z</time>
      </trkpt>
      <trkpt lat="48.52726" lon="2.22353">
        <ele>157.2</ele>
        <time>2026-03-20T14:27:29Z</time>
      </trkpt>
      <trkpt lat="48.52721" lon="2.22348">
        <ele>157.2</ele>
        <time>2026-03-20T14:27:30Z</time>
      </trkpt>
      <trkpt lat="48.52717" lon="2.22343">
        <ele>157.2</ele>
        <time>2026-03-20T14:27:31Z</time>
      </trkpt>
      <trkpt lat="48.52712" lon="2.22338">
        <ele>157.8</ele>
        <time>2026-03-20T14:27:32Z</time>
      </trkpt>
      <trkpt lat="48.52707" lon="2.22333">
        <ele>157.8</ele>
        <time>2026-03-20T14:27:33Z</time>
      </trkpt>
      <trkpt lat="48.52702" lon="2.22327">
        <ele>157.8</ele>
        <time>2026-03-20T14:27:34Z</time>
      </trkpt>
      <trkpt lat="48.52698" lon="2.22322">
        <ele>157.4</ele>
        <time>2026-03-20T14:27:35Z</time>
      </trkpt>
      <trkpt lat="48.52693" lon="2.22317">
        <ele>155.6</ele>
        <time>2026-03-20T14:27:36Z</time>
      </trkpt>
      <trkpt lat="48.52688" lon="2.22312">
        <ele>155.6</ele>
        <time>2026-03-20T14:27:37Z</time>
      </trkpt>
      <trkpt lat="48.52683" lon="2.22306">
        <ele>155.6</ele>
        <time>2026-03-20T14:27:38Z</time>
      </trkpt>
      <trkpt lat="48.52678" lon="2.22301">
        <ele>155.6</ele>
        <time>2026-03-20T14:27:39Z</time>
      </trkpt>
      <trkpt lat="48.52673" lon="2.22295">
        <ele>155.6</ele>
        <time>2026-03-20T14:27:40Z</time>
      </trkpt>
      <trkpt lat="48.52668" lon="2.2229">
        <ele>155.6</ele>
        <time>2026-03-20T14:27:41Z</time>
      </trkpt>
      <trkpt lat="48.52662" lon="2.22284">
        <ele>155.6</ele>
        <time>2026-03-20T14:27:42Z</time>
      </trkpt>
      <trkpt lat="48.52657" lon="2.22278">
        <ele>154.6</ele>
        <time>2026-03-20T14:27:43Z</time>
      </trkpt>
      <trkpt lat="48.52651" lon="2.22272">
        <ele>154.2</ele>
        <time>2026-03-20T14:27:44Z</time>
      </trkpt>
      <trkpt lat="48.52646" lon="2.22267">
        <ele>154.2</ele>
        <time>2026-03-20T14:27:45Z</time>
      </trkpt>
      <trkpt lat="48.5264" lon="2.22261">
        <ele>154.2</ele>
        <time>2026-03-20T14:27:46Z</time>
      </trkpt>
      <trkpt lat="48.52635" lon="2.22256">
        <ele>154.2</ele>
        <time>2026-03-20T14:27:47Z</time>
      </trkpt>
      <trkpt lat="48.52629" lon="2.22251">
        <ele>154.4</ele>
        <time>2026-03-20T14:27:48Z</time>
      </trkpt>
      <trkpt lat="48.52624" lon="2.22246">
        <ele>154.4</ele>
        <time>2026-03-20T14:27:49Z</time>
      </trkpt>
      <trkpt lat="48.52618" lon="2.22241">
        <ele>154.4</ele>
        <time>2026-03-20T14:27:50Z</time>
      </trkpt>
      <trkpt lat="48.52612" lon="2.22237">
        <ele>154</ele>
        <time>2026-03-20T14:27:51Z</time>
      </trkpt>
      <trkpt lat="48.52606" lon="2.22232">
        <ele>153.8</ele>
        <time>2026-03-20T14:27:52Z</time>
      </trkpt>
      <trkpt lat="48.526" lon="2.22227">
        <ele>153.8</ele>
        <time>2026-03-20T14:27:53Z</time>
      </trkpt>
      <trkpt lat="48.52593" lon="2.22223">
        <ele>153.8</ele>
        <time>2026-03-20T14:27:54Z</time>
      </trkpt>
      <trkpt lat="48.52587" lon="2.22218">
        <ele>154.2</ele>
        <time>2026-03-20T14:27:55Z</time>
      </trkpt>
      <trkpt lat="48.5258" lon="2.22213">
        <ele>153.8</ele>
        <time>2026-03-20T14:27:56Z</time>
      </trkpt>
      <trkpt lat="48.52573" lon="2.22208">
        <ele>153.8</ele>
        <time>2026-03-20T14:27:57Z</time>
      </trkpt>
      <trkpt lat="48.52566" lon="2.22203">
        <ele>153.8</ele>
        <time>2026-03-20T14:27:58Z</time>
      </trkpt>
      <trkpt lat="48.52559" lon="2.22196">
        <ele>153.8</ele>
        <time>2026-03-20T14:27:59Z</time>
      </trkpt>
      <trkpt lat="48.52553" lon="2.22189">
        <ele>152.8</ele>
        <time>2026-03-20T14:28:00Z</time>
      </trkpt>
      <trkpt lat="48.52547" lon="2.22181">
        <ele>152.8</ele>
        <time>2026-03-20T14:28:01Z</time>
      </trkpt>
      <trkpt lat="48.52542" lon="2.22173">
        <ele>152.8</ele>
        <time>2026-03-20T14:28:02Z</time>
      </trkpt>
      <trkpt lat="48.52536" lon="2.22164">
        <ele>151.8</ele>
        <time>2026-03-20T14:28:03Z</time>
      </trkpt>
      <trkpt lat="48.52532" lon="2.22155">
        <ele>152</ele>
        <time>2026-03-20T14:28:04Z</time>
      </trkpt>
      <trkpt lat="48.52527" lon="2.22145">
        <ele>152</ele>
        <time>2026-03-20T14:28:05Z</time>
      </trkpt>
      <trkpt lat="48.52523" lon="2.22135">
        <ele>152</ele>
        <time>2026-03-20T14:28:06Z</time>
      </trkpt>
      <trkpt lat="48.52518" lon="2.22125">
        <ele>151.8</ele>
        <time>2026-03-20T14:28:07Z</time>
      </trkpt>
      <trkpt lat="48.52515" lon="2.22114">
        <ele>150.6</ele>
        <time>2026-03-20T14:28:08Z</time>
      </trkpt>
      <trkpt lat="48.52511" lon="2.22103">
        <ele>150.6</ele>
        <time>2026-03-20T14:28:09Z</time>
      </trkpt>
      <trkpt lat="48.52507" lon="2.22092">
        <ele>150.6</ele>
        <time>2026-03-20T14:28:10Z</time>
      </trkpt>
      <trkpt lat="48.52503" lon="2.22081">
        <ele>149.6</ele>
        <time>2026-03-20T14:28:11Z</time>
      </trkpt>
      <trkpt lat="48.525" lon="2.2207">
        <ele>148.6</ele>
        <time>2026-03-20T14:28:12Z</time>
      </trkpt>
      <trkpt lat="48.52496" lon="2.22059">
        <ele>148.6</ele>
        <time>2026-03-20T14:28:13Z</time>
      </trkpt>
      <trkpt lat="48.52492" lon="2.22047">
        <ele>148.6</ele>
        <time>2026-03-20T14:28:14Z</time>
      </trkpt>
      <trkpt lat="48.52488" lon="2.22036">
        <ele>148.6</ele>
        <time>2026-03-20T14:28:15Z</time>
      </trkpt>
      <trkpt lat="48.52484" lon="2.22025">
        <ele>148.4</ele>
        <time>2026-03-20T14:28:16Z</time>
      </trkpt>
      <trkpt lat="48.52481" lon="2.22014">
        <ele>148.4</ele>
        <time>2026-03-20T14:28:17Z</time>
      </trkpt>
      <trkpt lat="48.52477" lon="2.22004">
        <ele>148.4</ele>
        <time>2026-03-20T14:28:18Z</time>
      </trkpt>
      <trkpt lat="48.52473" lon="2.21993">
        <ele>148.4</ele>
        <time>2026-03-20T14:28:19Z</time>
      </trkpt>
      <trkpt lat="48.52469" lon="2.21983">
        <ele>149.4</ele>
        <time>2026-03-20T14:28:20Z</time>
      </trkpt>
      <trkpt lat="48.52465" lon="2.21972">
        <ele>149.4</ele>
        <time>2026-03-20T14:28:21Z</time>
      </trkpt>
      <trkpt lat="48.52461" lon="2.21962">
        <ele>149.4</ele>
        <time>2026-03-20T14:28:22Z</time>
      </trkpt>
      <trkpt lat="48.52457" lon="2.21953">
        <ele>149.4</ele>
        <time>2026-03-20T14:28:23Z</time>
      </trkpt>
      <trkpt lat="48.52453" lon="2.21943">
        <ele>150.2</ele>
        <time>2026-03-20T14:28:24Z</time>
      </trkpt>
      <trkpt lat="48.52448" lon="2.21935">
        <ele>150.2</ele>
        <time>2026-03-20T14:28:25Z</time>
      </trkpt>
      <trkpt lat="48.52444" lon="2.21926">
        <ele>150.2</ele>
        <time>2026-03-20T14:28:26Z</time>
      </trkpt>
      <trkpt lat="48.52439" lon="2.21918">
        <ele>150.2</ele>
        <time>2026-03-20T14:28:27Z</time>
      </trkpt>
      <trkpt lat="48.52434" lon="2.21911">
        <ele>150.6</ele>
        <time>2026-03-20T14:28:28Z</time>
      </trkpt>
      <trkpt lat="48.52429" lon="2.21903">
        <ele>150.6</ele>
        <time>2026-03-20T14:28:29Z</time>
      </trkpt>
      <trkpt lat="48.52424" lon="2.21896">
        <ele>150.6</ele>
        <time>2026-03-20T14:28:30Z</time>
      </trkpt>
      <trkpt lat="48.52419" lon="2.2189">
        <ele>150.6</ele>
        <time>2026-03-20T14:28:31Z</time>
      </trkpt>
      <trkpt lat="48.52414" lon="2.21883">
        <ele>151.4</ele>
        <time>2026-03-20T14:28:32Z</time>
      </trkpt>
      <trkpt lat="48.52409" lon="2.21877">
        <ele>151.4</ele>
        <time>2026-03-20T14:28:33Z</time>
      </trkpt>
      <trkpt lat="48.52403" lon="2.21871">
        <ele>151.4</ele>
        <time>2026-03-20T14:28:34Z</time>
      </trkpt>
      <trkpt lat="48.52399" lon="2.21865">
        <ele>152.4</ele>
        <time>2026-03-20T14:28:35Z</time>
      </trkpt>
      <trkpt lat="48.52394" lon="2.21858">
        <ele>151.8</ele>
        <time>2026-03-20T14:28:36Z</time>
      </trkpt>
      <trkpt lat="48.52389" lon="2.21852">
        <ele>151.8</ele>
        <time>2026-03-20T14:28:37Z</time>
      </trkpt>
      <trkpt lat="48.52384" lon="2.21846">
        <ele>151.8</ele>
        <time>2026-03-20T14:28:38Z</time>
      </trkpt>
      <trkpt lat="48.52379" lon="2.2184">
        <ele>151.8</ele>
        <time>2026-03-20T14:28:39Z</time>
      </trkpt>
      <trkpt lat="48.52375" lon="2.21834">
        <ele>152.2</ele>
        <time>2026-03-20T14:28:40Z</time>
      </trkpt>
      <trkpt lat="48.5237" lon="2.21828">
        <ele>152.2</ele>
        <time>2026-03-20T14:28:41Z</time>
      </trkpt>
      <trkpt lat="48.52365" lon="2.21823">
        <ele>152.2</ele>
        <time>2026-03-20T14:28:42Z</time>
      </trkpt>
      <trkpt lat="48.52361" lon="2.21817">
        <ele>152.6</ele>
        <time>2026-03-20T14:28:43Z</time>
      </trkpt>
      <trkpt lat="48.52356" lon="2.21811">
        <ele>152.6</ele>
        <time>2026-03-20T14:28:44Z</time>
      </trkpt>
      <trkpt lat="48.52352" lon="2.21805">
        <ele>152.6</ele>
        <time>2026-03-20T14:28:45Z</time>
      </trkpt>
      <trkpt lat="48.52347" lon="2.218">
        <ele>152.6</ele>
        <time>2026-03-20T14:28:46Z</time>
      </trkpt>
      <trkpt lat="48.52343" lon="2.21794">
        <ele>153.4</ele>
        <time>2026-03-20T14:28:47Z</time>
      </trkpt>
      <trkpt lat="48.52338" lon="2.21788">
        <ele>153</ele>
        <time>2026-03-20T14:28:48Z</time>
      </trkpt>
      <trkpt lat="48.52333" lon="2.21782">
        <ele>153</ele>
        <time>2026-03-20T14:28:49Z</time>
      </trkpt>
      <trkpt lat="48.52329" lon="2.21776">
        <ele>153</ele>
        <time>2026-03-20T14:28:50Z</time>
      </trkpt>
      <trkpt lat="48.52325" lon="2.21771">
        <ele>153.2</ele>
        <time>2026-03-20T14:28:51Z</time>
      </trkpt>
      <trkpt lat="48.5232" lon="2.21764">
        <ele>153.4</ele>
        <time>2026-03-20T14:28:52Z</time>
      </trkpt>
      <trkpt lat="48.52316" lon="2.21759">
        <ele>153.4</ele>
        <time>2026-03-20T14:28:53Z</time>
      </trkpt>
      <trkpt lat="48.52312" lon="2.21752">
        <ele>153.4</ele>
        <time>2026-03-20T14:28:54Z</time>
      </trkpt>
      <trkpt lat="48.52308" lon="2.21746">
        <ele>153.4</ele>
        <time>2026-03-20T14:28:55Z</time>
      </trkpt>
      <trkpt lat="48.52304" lon="2.2174">
        <ele>154.6</ele>
        <time>2026-03-20T14:28:56Z</time>
      </trkpt>
      <trkpt lat="48.523" lon="2.21733">
        <ele>154.6</ele>
        <time>2026-03-20T14:28:57Z</time>
      </trkpt>
      <trkpt lat="48.52297" lon="2.21726">
        <ele>154.6</ele>
        <time>2026-03-20T14:28:58Z</time>
      </trkpt>
      <trkpt lat="48.52293" lon="2.21719">
        <ele>153.6</ele>
        <time>2026-03-20T14:28:59Z</time>
      </trkpt>
      <trkpt lat="48.52289" lon="2.21713">
        <ele>153.6</ele>
        <time>2026-03-20T14:29:00Z</time>
      </trkpt>
      <trkpt lat="48.52286" lon="2.21706">
        <ele>153.6</ele>
        <time>2026-03-20T14:29:01Z</time>
      </trkpt>
      <trkpt lat="48.52282" lon="2.21699">
        <ele>153.6</ele>
        <time>2026-03-20T14:29:02Z</time>
      </trkpt>
      <trkpt lat="48.52279" lon="2.21692">
        <ele>153.6</ele>
        <time>2026-03-20T14:29:03Z</time>
      </trkpt>
      <trkpt lat="48.52276" lon="2.21685">
        <ele>154.6</ele>
        <time>2026-03-20T14:29:04Z</time>
      </trkpt>
      <trkpt lat="48.52273" lon="2.21678">
        <ele>154.6</ele>
        <time>2026-03-20T14:29:05Z</time>
      </trkpt>
      <trkpt lat="48.52269" lon="2.21671">
        <ele>154.6</ele>
        <time>2026-03-20T14:29:06Z</time>
      </trkpt>
      <trkpt lat="48.52266" lon="2.21664">
        <ele>154.6</ele>
        <time>2026-03-20T14:29:07Z</time>
      </trkpt>
      <trkpt lat="48.52263" lon="2.21657">
        <ele>155</ele>
        <time>2026-03-20T14:29:08Z</time>
      </trkpt>
      <trkpt lat="48.5226" lon="2.21649">
        <ele>155</ele>
        <time>2026-03-20T14:29:09Z</time>
      </trkpt>
      <trkpt lat="48.52257" lon="2.21642">
        <ele>155</ele>
        <time>2026-03-20T14:29:10Z</time>
      </trkpt>
      <trkpt lat="48.52254" lon="2.21635">
        <ele>155</ele>
        <time>2026-03-20T14:29:11Z</time>
      </trkpt>
      <trkpt lat="48.52251" lon="2.21628">
        <ele>155.4</ele>
        <time>2026-03-20T14:29:12Z</time>
      </trkpt>
      <trkpt lat="48.52248" lon="2.21621">
        <ele>155.4</ele>
        <time>2026-03-20T14:29:13Z</time>
      </trkpt>
      <trkpt lat="48.52245" lon="2.21613">
        <ele>155.4</ele>
        <time>2026-03-20T14:29:14Z</time>
      </trkpt>
      <trkpt lat="48.52242" lon="2.21606">
        <ele>155.4</ele>
        <time>2026-03-20T14:29:15Z</time>
      </trkpt>
      <trkpt lat="48.52239" lon="2.21598">
        <ele>154.8</ele>
        <time>2026-03-20T14:29:16Z</time>
      </trkpt>
      <trkpt lat="48.52236" lon="2.21591">
        <ele>154.8</ele>
        <time>2026-03-20T14:29:17Z</time>
      </trkpt>
      <trkpt lat="48.52233" lon="2.21584">
        <ele>154.8</ele>
        <time>2026-03-20T14:29:18Z</time>
      </trkpt>
      <trkpt lat="48.5223" lon="2.21577">
        <ele>155.2</ele>
        <time>2026-03-20T14:29:19Z</time>
      </trkpt>
      <trkpt lat="48.52227" lon="2.2157">
        <ele>155.4</ele>
        <time>2026-03-20T14:29:20Z</time>
      </trkpt>
      <trkpt lat="48.52223" lon="2.21562">
        <ele>155.4</ele>
        <time>2026-03-20T14:29:21Z</time>
      </trkpt>
      <trkpt lat="48.5222" lon="2.21555">
        <ele>155.4</ele>
        <time>2026-03-20T14:29:22Z</time>
      </trkpt>
      <trkpt lat="48.52217" lon="2.21548">
        <ele>155.6</ele>
        <time>2026-03-20T14:29:23Z</time>
      </trkpt>
      <trkpt lat="48.52215" lon="2.2154">
        <ele>155.6</ele>
        <time>2026-03-20T14:29:24Z</time>
      </trkpt>
      <trkpt lat="48.52212" lon="2.21532">
        <ele>155.6</ele>
        <time>2026-03-20T14:29:25Z</time>
      </trkpt>
      <trkpt lat="48.52209" lon="2.21524">
        <ele>155.6</ele>
        <time>2026-03-20T14:29:26Z</time>
      </trkpt>
      <trkpt lat="48.52205" lon="2.21516">
        <ele>155.6</ele>
        <time>2026-03-20T14:29:27Z</time>
      </trkpt>
      <trkpt lat="48.52203" lon="2.21508">
        <ele>155.2</ele>
        <time>2026-03-20T14:29:28Z</time>
      </trkpt>
      <trkpt lat="48.522" lon="2.215">
        <ele>155.2</ele>
        <time>2026-03-20T14:29:29Z</time>
      </trkpt>
      <trkpt lat="48.52197" lon="2.21491">
        <ele>155.2</ele>
        <time>2026-03-20T14:29:30Z</time>
      </trkpt>
      <trkpt lat="48.52194" lon="2.21483">
        <ele>155</ele>
        <time>2026-03-20T14:29:31Z</time>
      </trkpt>
      <trkpt lat="48.52192" lon="2.21474">
        <ele>154.6</ele>
        <time>2026-03-20T14:29:32Z</time>
      </trkpt>
      <trkpt lat="48.5219" lon="2.21465">
        <ele>154.6</ele>
        <time>2026-03-20T14:29:33Z</time>
      </trkpt>
      <trkpt lat="48.52188" lon="2.21457">
        <ele>154.6</ele>
        <time>2026-03-20T14:29:34Z</time>
      </trkpt>
      <trkpt lat="48.52186" lon="2.21448">
        <ele>155.2</ele>
        <time>2026-03-20T14:29:35Z</time>
      </trkpt>
      <trkpt lat="48.52184" lon="2.21439">
        <ele>154.6</ele>
        <time>2026-03-20T14:29:36Z</time>
      </trkpt>
      <trkpt lat="48.52182" lon="2.21431">
        <ele>154.6</ele>
        <time>2026-03-20T14:29:37Z</time>
      </trkpt>
      <trkpt lat="48.5218" lon="2.21423">
        <ele>154.6</ele>
        <time>2026-03-20T14:29:38Z</time>
      </trkpt>
      <trkpt lat="48.52178" lon="2.21415">
        <ele>154.6</ele>
        <time>2026-03-20T14:29:39Z</time>
      </trkpt>
      <trkpt lat="48.52177" lon="2.21407">
        <ele>155</ele>
        <time>2026-03-20T14:29:40Z</time>
      </trkpt>
      <trkpt lat="48.52175" lon="2.214">
        <ele>155</ele>
        <time>2026-03-20T14:29:41Z</time>
      </trkpt>
      <trkpt lat="48.52173" lon="2.21392">
        <ele>155</ele>
        <time>2026-03-20T14:29:42Z</time>
      </trkpt>
      <trkpt lat="48.52172" lon="2.21384">
        <ele>155</ele>
        <time>2026-03-20T14:29:43Z</time>
      </trkpt>
      <trkpt lat="48.5217" lon="2.21376">
        <ele>155</ele>
        <time>2026-03-20T14:29:44Z</time>
      </trkpt>
      <trkpt lat="48.52168" lon="2.21368">
        <ele>155</ele>
        <time>2026-03-20T14:29:45Z</time>
      </trkpt>
      <trkpt lat="48.52166" lon="2.2136">
        <ele>155</ele>
        <time>2026-03-20T14:29:46Z</time>
      </trkpt>
      <trkpt lat="48.52164" lon="2.21351">
        <ele>155.2</ele>
        <time>2026-03-20T14:29:47Z</time>
      </trkpt>
      <trkpt lat="48.52162" lon="2.21342">
        <ele>155</ele>
        <time>2026-03-20T14:29:48Z</time>
      </trkpt>
      <trkpt lat="48.5216" lon="2.21334">
        <ele>155</ele>
        <time>2026-03-20T14:29:49Z</time>
      </trkpt>
      <trkpt lat="48.52157" lon="2.21326">
        <ele>155</ele>
        <time>2026-03-20T14:29:50Z</time>
      </trkpt>
      <trkpt lat="48.52154" lon="2.21318">
        <ele>155</ele>
        <time>2026-03-20T14:29:51Z</time>
      </trkpt>
      <trkpt lat="48.5215" lon="2.2131">
        <ele>155.8</ele>
        <time>2026-03-20T14:29:52Z</time>
      </trkpt>
      <trkpt lat="48.52147" lon="2.21303">
        <ele>155.8</ele>
        <time>2026-03-20T14:29:53Z</time>
      </trkpt>
      <trkpt lat="48.52143" lon="2.21296">
        <ele>155.8</ele>
        <time>2026-03-20T14:29:54Z</time>
      </trkpt>
      <trkpt lat="48.52138" lon="2.2129">
        <ele>154.8</ele>
        <time>2026-03-20T14:29:55Z</time>
      </trkpt>
      <trkpt lat="48.52134" lon="2.21284">
        <ele>154.4</ele>
        <time>2026-03-20T14:29:56Z</time>
      </trkpt>
      <trkpt lat="48.52129" lon="2.21279">
        <ele>154.4</ele>
        <time>2026-03-20T14:29:57Z</time>
      </trkpt>
      <trkpt lat="48.52124" lon="2.21274">
        <ele>154.4</ele>
        <time>2026-03-20T14:29:58Z</time>
      </trkpt>
      <trkpt lat="48.52119" lon="2.2127">
        <ele>154.2</ele>
        <time>2026-03-20T14:29:59Z</time>
      </trkpt>
      <trkpt lat="48.52114" lon="2.21266">
        <ele>153.8</ele>
        <time>2026-03-20T14:30:00Z</time>
      </trkpt>
      <trkpt lat="48.52109" lon="2.21262">
        <ele>153.8</ele>
        <time>2026-03-20T14:30:01Z</time>
      </trkpt>
      <trkpt lat="48.52104" lon="2.21257">
        <ele>153.8</ele>
        <time>2026-03-20T14:30:02Z</time>
      </trkpt>
      <trkpt lat="48.52098" lon="2.21253">
        <ele>153.2</ele>
        <time>2026-03-20T14:30:03Z</time>
      </trkpt>
      <trkpt lat="48.52093" lon="2.21249">
        <ele>153.2</ele>
        <time>2026-03-20T14:30:04Z</time>
      </trkpt>
      <trkpt lat="48.52087" lon="2.21245">
        <ele>153.2</ele>
        <time>2026-03-20T14:30:05Z</time>
      </trkpt>
      <trkpt lat="48.52082" lon="2.2124">
        <ele>153.2</ele>
        <time>2026-03-20T14:30:06Z</time>
      </trkpt>
      <trkpt lat="48.52076" lon="2.21236">
        <ele>153.2</ele>
        <time>2026-03-20T14:30:07Z</time>
      </trkpt>
      <trkpt lat="48.52071" lon="2.21231">
        <ele>153</ele>
        <time>2026-03-20T14:30:08Z</time>
      </trkpt>
      <trkpt lat="48.52065" lon="2.21227">
        <ele>153</ele>
        <time>2026-03-20T14:30:09Z</time>
      </trkpt>
      <trkpt lat="48.5206" lon="2.21223">
        <ele>153</ele>
        <time>2026-03-20T14:30:10Z</time>
      </trkpt>
      <trkpt lat="48.52054" lon="2.21219">
        <ele>152.4</ele>
        <time>2026-03-20T14:30:11Z</time>
      </trkpt>
      <trkpt lat="48.52049" lon="2.21215">
        <ele>152.6</ele>
        <time>2026-03-20T14:30:12Z</time>
      </trkpt>
      <trkpt lat="48.52043" lon="2.21211">
        <ele>152.6</ele>
        <time>2026-03-20T14:30:13Z</time>
      </trkpt>
      <trkpt lat="48.52038" lon="2.21207">
        <ele>152.6</ele>
        <time>2026-03-20T14:30:14Z</time>
      </trkpt>
      <trkpt lat="48.52032" lon="2.21202">
        <ele>151.6</ele>
        <time>2026-03-20T14:30:15Z</time>
      </trkpt>
      <trkpt lat="48.52027" lon="2.21198">
        <ele>152.6</ele>
        <time>2026-03-20T14:30:16Z</time>
      </trkpt>
      <trkpt lat="48.52022" lon="2.21193">
        <ele>152.6</ele>
        <time>2026-03-20T14:30:17Z</time>
      </trkpt>
      <trkpt lat="48.52016" lon="2.21189">
        <ele>152.6</ele>
        <time>2026-03-20T14:30:18Z</time>
      </trkpt>
      <trkpt lat="48.52011" lon="2.21185">
        <ele>151.6</ele>
        <time>2026-03-20T14:30:19Z</time>
      </trkpt>
      <trkpt lat="48.52006" lon="2.2118">
        <ele>152.6</ele>
        <time>2026-03-20T14:30:20Z</time>
      </trkpt>
      <trkpt lat="48.52001" lon="2.21177">
        <ele>152.6</ele>
        <time>2026-03-20T14:30:21Z</time>
      </trkpt>
      <trkpt lat="48.51996" lon="2.21172">
        <ele>152.6</ele>
        <time>2026-03-20T14:30:22Z</time>
      </trkpt>
      <trkpt lat="48.5199" lon="2.21168">
        <ele>152.6</ele>
        <time>2026-03-20T14:30:23Z</time>
      </trkpt>
      <trkpt lat="48.51985" lon="2.21164">
        <ele>151.4</ele>
        <time>2026-03-20T14:30:24Z</time>
      </trkpt>
      <trkpt lat="48.5198" lon="2.2116">
        <ele>151.4</ele>
        <time>2026-03-20T14:30:25Z</time>
      </trkpt>
      <trkpt lat="48.51975" lon="2.21157">
        <ele>151.4</ele>
        <time>2026-03-20T14:30:26Z</time>
      </trkpt>
      <trkpt lat="48.5197" lon="2.21157">
        <ele>151.4</ele>
        <time>2026-03-20T14:30:27Z</time>
      </trkpt>
      <trkpt lat="48.51966" lon="2.2116">
        <ele>149.6</ele>
        <time>2026-03-20T14:30:28Z</time>
      </trkpt>
      <trkpt lat="48.51963" lon="2.21166">
        <ele>149.6</ele>
        <time>2026-03-20T14:30:29Z</time>
      </trkpt>
      <trkpt lat="48.51961" lon="2.21174">
        <ele>149.6</ele>
        <time>2026-03-20T14:30:30Z</time>
      </trkpt>
      <trkpt lat="48.51961" lon="2.21183">
        <ele>148.6</ele>
        <time>2026-03-20T14:30:31Z</time>
      </trkpt>
      <trkpt lat="48.51962" lon="2.2119">
        <ele>147.6</ele>
        <time>2026-03-20T14:30:32Z</time>
      </trkpt>
      <trkpt lat="48.51961" lon="2.21198">
        <ele>147.6</ele>
        <time>2026-03-20T14:30:33Z</time>
      </trkpt>
      <trkpt lat="48.51961" lon="2.21206">
        <ele>147.6</ele>
        <time>2026-03-20T14:30:34Z</time>
      </trkpt>
      <trkpt lat="48.51961" lon="2.21213">
        <ele>147.6</ele>
        <time>2026-03-20T14:30:35Z</time>
      </trkpt>
      <trkpt lat="48.51961" lon="2.21221">
        <ele>147.8</ele>
        <time>2026-03-20T14:30:36Z</time>
      </trkpt>
      <trkpt lat="48.51961" lon="2.21229">
        <ele>147.8</ele>
        <time>2026-03-20T14:30:37Z</time>
      </trkpt>
      <trkpt lat="48.51961" lon="2.21238">
        <ele>147.8</ele>
        <time>2026-03-20T14:30:38Z</time>
      </trkpt>
      <trkpt lat="48.51961" lon="2.21247">
        <ele>146.8</ele>
        <time>2026-03-20T14:30:39Z</time>
      </trkpt>
      <trkpt lat="48.51961" lon="2.21255">
        <ele>145</ele>
        <time>2026-03-20T14:30:40Z</time>
      </trkpt>
      <trkpt lat="48.51961" lon="2.21265">
        <ele>145</ele>
        <time>2026-03-20T14:30:41Z</time>
      </trkpt>
      <trkpt lat="48.51961" lon="2.21274">
        <ele>145</ele>
        <time>2026-03-20T14:30:42Z</time>
      </trkpt>
      <trkpt lat="48.51961" lon="2.21284">
        <ele>145</ele>
        <time>2026-03-20T14:30:43Z</time>
      </trkpt>
      <trkpt lat="48.51961" lon="2.21294">
        <ele>145.4</ele>
        <time>2026-03-20T14:30:44Z</time>
      </trkpt>
      <trkpt lat="48.51961" lon="2.21305">
        <ele>145.4</ele>
        <time>2026-03-20T14:30:45Z</time>
      </trkpt>
      <trkpt lat="48.51961" lon="2.21315">
        <ele>145.4</ele>
        <time>2026-03-20T14:30:46Z</time>
      </trkpt>
      <trkpt lat="48.51961" lon="2.21326">
        <ele>144.4</ele>
        <time>2026-03-20T14:30:47Z</time>
      </trkpt>
      <trkpt lat="48.5196" lon="2.21337">
        <ele>140.2</ele>
        <time>2026-03-20T14:30:48Z</time>
      </trkpt>
      <trkpt lat="48.5196" lon="2.21349">
        <ele>140.2</ele>
        <time>2026-03-20T14:30:49Z</time>
      </trkpt>
      <trkpt lat="48.5196" lon="2.21361">
        <ele>140.2</ele>
        <time>2026-03-20T14:30:50Z</time>
      </trkpt>
      <trkpt lat="48.5196" lon="2.21372">
        <ele>140.2</ele>
        <time>2026-03-20T14:30:51Z</time>
      </trkpt>
      <trkpt lat="48.5196" lon="2.21385">
        <ele>139.4</ele>
        <time>2026-03-20T14:30:52Z</time>
      </trkpt>
      <trkpt lat="48.5196" lon="2.21397">
        <ele>139.4</ele>
        <time>2026-03-20T14:30:53Z</time>
      </trkpt>
      <trkpt lat="48.5196" lon="2.21409">
        <ele>139.4</ele>
        <time>2026-03-20T14:30:54Z</time>
      </trkpt>
      <trkpt lat="48.5196" lon="2.21422">
        <ele>138.4</ele>
        <time>2026-03-20T14:30:55Z</time>
      </trkpt>
      <trkpt lat="48.51959" lon="2.21436">
        <ele>136.6</ele>
        <time>2026-03-20T14:30:56Z</time>
      </trkpt>
      <trkpt lat="48.51959" lon="2.2145">
        <ele>136.6</ele>
        <time>2026-03-20T14:30:57Z</time>
      </trkpt>
      <trkpt lat="48.51958" lon="2.21464">
        <ele>136.6</ele>
        <time>2026-03-20T14:30:58Z</time>
      </trkpt>
      <trkpt lat="48.51959" lon="2.21479">
        <ele>135.6</ele>
        <time>2026-03-20T14:30:59Z</time>
      </trkpt>
      <trkpt lat="48.51959" lon="2.21494">
        <ele>135.6</ele>
        <time>2026-03-20T14:31:00Z</time>
      </trkpt>
      <trkpt lat="48.5196" lon="2.21509">
        <ele>135.6</ele>
        <time>2026-03-20T14:31:01Z</time>
      </trkpt>
      <trkpt lat="48.51959" lon="2.21523">
        <ele>135.6</ele>
        <time>2026-03-20T14:31:02Z</time>
      </trkpt>
      <trkpt lat="48.51959" lon="2.21538">
        <ele>134.6</ele>
        <time>2026-03-20T14:31:03Z</time>
      </trkpt>
      <trkpt lat="48.5196" lon="2.21554">
        <ele>132</ele>
        <time>2026-03-20T14:31:04Z</time>
      </trkpt>
      <trkpt lat="48.5196" lon="2.21569">
        <ele>132</ele>
        <time>2026-03-20T14:31:05Z</time>
      </trkpt>
      <trkpt lat="48.5196" lon="2.21583">
        <ele>132</ele>
        <time>2026-03-20T14:31:06Z</time>
      </trkpt>
      <trkpt lat="48.51958" lon="2.21596">
        <ele>132</ele>
        <time>2026-03-20T14:31:07Z</time>
      </trkpt>
      <trkpt lat="48.51955" lon="2.21609">
        <ele>129.8</ele>
        <time>2026-03-20T14:31:08Z</time>
      </trkpt>
      <trkpt lat="48.51949" lon="2.21619">
        <ele>129.8</ele>
        <time>2026-03-20T14:31:09Z</time>
      </trkpt>
      <trkpt lat="48.51943" lon="2.21628">
        <ele>129.8</ele>
        <time>2026-03-20T14:31:10Z</time>
      </trkpt>
      <trkpt lat="48.51936" lon="2.21635">
        <ele>128.8</ele>
        <time>2026-03-20T14:31:11Z</time>
      </trkpt>
      <trkpt lat="48.51928" lon="2.2164">
        <ele>124.2</ele>
        <time>2026-03-20T14:31:12Z</time>
      </trkpt>
      <trkpt lat="48.51919" lon="2.21643">
        <ele>124.2</ele>
        <time>2026-03-20T14:31:13Z</time>
      </trkpt>
      <trkpt lat="48.51909" lon="2.21643">
        <ele>124.2</ele>
        <time>2026-03-20T14:31:14Z</time>
      </trkpt>
      <trkpt lat="48.51899" lon="2.2164">
        <ele>123.2</ele>
        <time>2026-03-20T14:31:15Z</time>
      </trkpt>
      <trkpt lat="48.51889" lon="2.21636">
        <ele>120</ele>
        <time>2026-03-20T14:31:16Z</time>
      </trkpt>
      <trkpt lat="48.51879" lon="2.21635">
        <ele>120</ele>
        <time>2026-03-20T14:31:17Z</time>
      </trkpt>
      <trkpt lat="48.51869" lon="2.21634">
        <ele>120</ele>
        <time>2026-03-20T14:31:18Z</time>
      </trkpt>
      <trkpt lat="48.51861" lon="2.21636">
        <ele>119.8</ele>
        <time>2026-03-20T14:31:19Z</time>
      </trkpt>
      <trkpt lat="48.51851" lon="2.21639">
        <ele>120</ele>
        <time>2026-03-20T14:31:20Z</time>
      </trkpt>
      <trkpt lat="48.51842" lon="2.21643">
        <ele>120</ele>
        <time>2026-03-20T14:31:21Z</time>
      </trkpt>
      <trkpt lat="48.51834" lon="2.21648">
        <ele>120</ele>
        <time>2026-03-20T14:31:22Z</time>
      </trkpt>
      <trkpt lat="48.51827" lon="2.21653">
        <ele>120</ele>
        <time>2026-03-20T14:31:23Z</time>
      </trkpt>
      <trkpt lat="48.51818" lon="2.21658">
        <ele>118.4</ele>
        <time>2026-03-20T14:31:24Z</time>
      </trkpt>
      <trkpt lat="48.5181" lon="2.21663">
        <ele>118.4</ele>
        <time>2026-03-20T14:31:25Z</time>
      </trkpt>
      <trkpt lat="48.518" lon="2.21668">
        <ele>118.4</ele>
        <time>2026-03-20T14:31:26Z</time>
      </trkpt>
      <trkpt lat="48.51791" lon="2.21673">
        <ele>117.4</ele>
        <time>2026-03-20T14:31:27Z</time>
      </trkpt>
      <trkpt lat="48.51781" lon="2.21678">
        <ele>113.2</ele>
        <time>2026-03-20T14:31:28Z</time>
      </trkpt>
      <trkpt lat="48.5177" lon="2.2168">
        <ele>113.2</ele>
        <time>2026-03-20T14:31:29Z</time>
      </trkpt>
      <trkpt lat="48.5176" lon="2.21681">
        <ele>113.2</ele>
        <time>2026-03-20T14:31:30Z</time>
      </trkpt>
      <trkpt lat="48.51751" lon="2.2168">
        <ele>112.2</ele>
        <time>2026-03-20T14:31:31Z</time>
      </trkpt>
      <trkpt lat="48.51742" lon="2.21677">
        <ele>111.8</ele>
        <time>2026-03-20T14:31:32Z</time>
      </trkpt>
      <trkpt lat="48.51734" lon="2.21673">
        <ele>111.8</ele>
        <time>2026-03-20T14:31:33Z</time>
      </trkpt>
      <trkpt lat="48.51727" lon="2.21667">
        <ele>111.8</ele>
        <time>2026-03-20T14:31:34Z</time>
      </trkpt>
      <trkpt lat="48.51719" lon="2.21659">
        <ele>110.8</ele>
        <time>2026-03-20T14:31:35Z</time>
      </trkpt>
      <trkpt lat="48.51712" lon="2.21651">
        <ele>109.4</ele>
        <time>2026-03-20T14:31:36Z</time>
      </trkpt>
      <trkpt lat="48.51705" lon="2.21642">
        <ele>109.4</ele>
        <time>2026-03-20T14:31:37Z</time>
      </trkpt>
      <trkpt lat="48.51698" lon="2.21633">
        <ele>109.4</ele>
        <time>2026-03-20T14:31:38Z</time>
      </trkpt>
      <trkpt lat="48.51691" lon="2.21623">
        <ele>108.4</ele>
        <time>2026-03-20T14:31:39Z</time>
      </trkpt>
      <trkpt lat="48.51684" lon="2.21613">
        <ele>106.6</ele>
        <time>2026-03-20T14:31:40Z</time>
      </trkpt>
      <trkpt lat="48.51677" lon="2.21604">
        <ele>106.6</ele>
        <time>2026-03-20T14:31:41Z</time>
      </trkpt>
      <trkpt lat="48.5167" lon="2.21595">
        <ele>106.6</ele>
        <time>2026-03-20T14:31:42Z</time>
      </trkpt>
      <trkpt lat="48.51663" lon="2.21587">
        <ele>105.6</ele>
        <time>2026-03-20T14:31:43Z</time>
      </trkpt>
      <trkpt lat="48.51657" lon="2.21579">
        <ele>104</ele>
        <time>2026-03-20T14:31:44Z</time>
      </trkpt>
      <trkpt lat="48.5165" lon="2.21572">
        <ele>104</ele>
        <time>2026-03-20T14:31:45Z</time>
      </trkpt>
      <trkpt lat="48.51643" lon="2.21567">
        <ele>104</ele>
        <time>2026-03-20T14:31:46Z</time>
      </trkpt>
      <trkpt lat="48.51636" lon="2.21564">
        <ele>104</ele>
        <time>2026-03-20T14:31:47Z</time>
      </trkpt>
      <trkpt lat="48.51629" lon="2.21563">
        <ele>102.6</ele>
        <time>2026-03-20T14:31:48Z</time>
      </trkpt>
      <trkpt lat="48.51622" lon="2.21564">
        <ele>102.6</ele>
        <time>2026-03-20T14:31:49Z</time>
      </trkpt>
      <trkpt lat="48.51615" lon="2.21567">
        <ele>102.6</ele>
        <time>2026-03-20T14:31:50Z</time>
      </trkpt>
      <trkpt lat="48.51608" lon="2.21573">
        <ele>101.6</ele>
        <time>2026-03-20T14:31:51Z</time>
      </trkpt>
      <trkpt lat="48.516" lon="2.21578">
        <ele>98.6</ele>
        <time>2026-03-20T14:31:52Z</time>
      </trkpt>
      <trkpt lat="48.51592" lon="2.21583">
        <ele>98.6</ele>
        <time>2026-03-20T14:31:53Z</time>
      </trkpt>
      <trkpt lat="48.51584" lon="2.21588">
        <ele>98.6</ele>
        <time>2026-03-20T14:31:54Z</time>
      </trkpt>
      <trkpt lat="48.51577" lon="2.21593">
        <ele>97.6</ele>
        <time>2026-03-20T14:31:55Z</time>
      </trkpt>
      <trkpt lat="48.51569" lon="2.21598">
        <ele>95.6</ele>
        <time>2026-03-20T14:31:56Z</time>
      </trkpt>
      <trkpt lat="48.51561" lon="2.21604">
        <ele>95.6</ele>
        <time>2026-03-20T14:31:57Z</time>
      </trkpt>
      <trkpt lat="48.51553" lon="2.2161">
        <ele>95.6</ele>
        <time>2026-03-20T14:31:58Z</time>
      </trkpt>
      <trkpt lat="48.51546" lon="2.21615">
        <ele>95.6</ele>
        <time>2026-03-20T14:31:59Z</time>
      </trkpt>
      <trkpt lat="48.51539" lon="2.21619">
        <ele>95.2</ele>
        <time>2026-03-20T14:32:00Z</time>
      </trkpt>
      <trkpt lat="48.51533" lon="2.21622">
        <ele>95.2</ele>
        <time>2026-03-20T14:32:01Z</time>
      </trkpt>
      <trkpt lat="48.51527" lon="2.21625">
        <ele>95.2</ele>
        <time>2026-03-20T14:32:02Z</time>
      </trkpt>
      <trkpt lat="48.51522" lon="2.21628">
        <ele>95.2</ele>
        <time>2026-03-20T14:32:03Z</time>
      </trkpt>
      <trkpt lat="48.51516" lon="2.2163">
        <ele>94.6</ele>
        <time>2026-03-20T14:32:04Z</time>
      </trkpt>
      <trkpt lat="48.5151" lon="2.21632">
        <ele>94.6</ele>
        <time>2026-03-20T14:32:05Z</time>
      </trkpt>
      <trkpt lat="48.51504" lon="2.21633">
        <ele>94.6</ele>
        <time>2026-03-20T14:32:06Z</time>
      </trkpt>
      <trkpt lat="48.51499" lon="2.21634">
        <ele>93.6</ele>
        <time>2026-03-20T14:32:07Z</time>
      </trkpt>
      <trkpt lat="48.51493" lon="2.21633">
        <ele>94.2</ele>
        <time>2026-03-20T14:32:08Z</time>
      </trkpt>
      <trkpt lat="48.51488" lon="2.21629">
        <ele>94.2</ele>
        <time>2026-03-20T14:32:09Z</time>
      </trkpt>
      <trkpt lat="48.51485" lon="2.21625">
        <ele>94.2</ele>
        <time>2026-03-20T14:32:10Z</time>
      </trkpt>
      <trkpt lat="48.51482" lon="2.21619">
        <ele>94.2</ele>
        <time>2026-03-20T14:32:11Z</time>
      </trkpt>
      <trkpt lat="48.51479" lon="2.21612">
        <ele>94.6</ele>
        <time>2026-03-20T14:32:12Z</time>
      </trkpt>
      <trkpt lat="48.51477" lon="2.21606">
        <ele>94.6</ele>
        <time>2026-03-20T14:32:13Z</time>
      </trkpt>
      <trkpt lat="48.51474" lon="2.216">
        <ele>94.6</ele>
        <time>2026-03-20T14:32:14Z</time>
      </trkpt>
      <trkpt lat="48.51472" lon="2.21594">
        <ele>94.6</ele>
        <time>2026-03-20T14:32:15Z</time>
      </trkpt>
      <trkpt lat="48.51469" lon="2.21588">
        <ele>94.8</ele>
        <time>2026-03-20T14:32:16Z</time>
      </trkpt>
      <trkpt lat="48.51467" lon="2.21582">
        <ele>94.8</ele>
        <time>2026-03-20T14:32:17Z</time>
      </trkpt>
      <trkpt lat="48.51464" lon="2.21576">
        <ele>94.8</ele>
        <time>2026-03-20T14:32:18Z</time>
      </trkpt>
      <trkpt lat="48.51461" lon="2.2157">
        <ele>95.8</ele>
        <time>2026-03-20T14:32:19Z</time>
      </trkpt>
      <trkpt lat="48.51458" lon="2.21565">
        <ele>96.6</ele>
        <time>2026-03-20T14:32:20Z</time>
      </trkpt>
      <trkpt lat="48.51456" lon="2.2156">
        <ele>96.6</ele>
        <time>2026-03-20T14:32:21Z</time>
      </trkpt>
      <trkpt lat="48.51453" lon="2.21554">
        <ele>96.6</ele>
        <time>2026-03-20T14:32:22Z</time>
      </trkpt>
      <trkpt lat="48.5145" lon="2.21549">
        <ele>96.6</ele>
        <time>2026-03-20T14:32:23Z</time>
      </trkpt>
      <trkpt lat="48.51447" lon="2.21543">
        <ele>96.8</ele>
        <time>2026-03-20T14:32:24Z</time>
      </trkpt>
      <trkpt lat="48.51444" lon="2.21538">
        <ele>96.8</ele>
        <time>2026-03-20T14:32:25Z</time>
      </trkpt>
      <trkpt lat="48.51441" lon="2.21533">
        <ele>96.8</ele>
        <time>2026-03-20T14:32:26Z</time>
      </trkpt>
      <trkpt lat="48.51438" lon="2.21528">
        <ele>96.8</ele>
        <time>2026-03-20T14:32:27Z</time>
      </trkpt>
      <trkpt lat="48.51435" lon="2.21523">
        <ele>97.4</ele>
        <time>2026-03-20T14:32:28Z</time>
      </trkpt>
      <trkpt lat="48.51432" lon="2.21518">
        <ele>97.4</ele>
        <time>2026-03-20T14:32:29Z</time>
      </trkpt>
      <trkpt lat="48.5143" lon="2.21512">
        <ele>97.4</ele>
        <time>2026-03-20T14:32:30Z</time>
      </trkpt>
      <trkpt lat="48.51427" lon="2.21507">
        <ele>97.4</ele>
        <time>2026-03-20T14:32:31Z</time>
      </trkpt>
      <trkpt lat="48.51424" lon="2.21503">
        <ele>97.8</ele>
        <time>2026-03-20T14:32:32Z</time>
      </trkpt>
      <trkpt lat="48.51421" lon="2.21499">
        <ele>97.8</ele>
        <time>2026-03-20T14:32:33Z</time>
      </trkpt>
      <trkpt lat="48.51418" lon="2.21494">
        <ele>97.8</ele>
        <time>2026-03-20T14:32:34Z</time>
      </trkpt>
      <trkpt lat="48.51416" lon="2.2149">
        <ele>98.4</ele>
        <time>2026-03-20T14:32:35Z</time>
      </trkpt>
      <trkpt lat="48.51413" lon="2.21486">
        <ele>98.6</ele>
        <time>2026-03-20T14:32:36Z</time>
      </trkpt>
      <trkpt lat="48.5141" lon="2.21482">
        <ele>98.6</ele>
        <time>2026-03-20T14:32:37Z</time>
      </trkpt>
      <trkpt lat="48.51408" lon="2.21478">
        <ele>98.6</ele>
        <time>2026-03-20T14:32:38Z</time>
      </trkpt>
      <trkpt lat="48.51405" lon="2.21474">
        <ele>98.6</ele>
        <time>2026-03-20T14:32:39Z</time>
      </trkpt>
      <trkpt lat="48.51403" lon="2.2147">
        <ele>99.2</ele>
        <time>2026-03-20T14:32:40Z</time>
      </trkpt>
      <trkpt lat="48.51401" lon="2.21466">
        <ele>99.2</ele>
        <time>2026-03-20T14:32:41Z</time>
      </trkpt>
      <trkpt lat="48.51399" lon="2.21463">
        <ele>99.2</ele>
        <time>2026-03-20T14:32:42Z</time>
      </trkpt>
      <trkpt lat="48.51397" lon="2.21459">
        <ele>99.2</ele>
        <time>2026-03-20T14:32:43Z</time>
      </trkpt>
      <trkpt lat="48.51395" lon="2.21455">
        <ele>99.4</ele>
        <time>2026-03-20T14:32:44Z</time>
      </trkpt>
      <trkpt lat="48.51392" lon="2.21451">
        <ele>99.4</ele>
        <time>2026-03-20T14:32:45Z</time>
      </trkpt>
      <trkpt lat="48.51389" lon="2.21446">
        <ele>99.4</ele>
        <time>2026-03-20T14:32:46Z</time>
      </trkpt>
      <trkpt lat="48.51386" lon="2.21442">
        <ele>99.4</ele>
        <time>2026-03-20T14:32:47Z</time>
      </trkpt>
      <trkpt lat="48.51383" lon="2.21438">
        <ele>100</ele>
        <time>2026-03-20T14:32:48Z</time>
      </trkpt>
      <trkpt lat="48.5138" lon="2.21434">
        <ele>100</ele>
        <time>2026-03-20T14:32:49Z</time>
      </trkpt>
      <trkpt lat="48.51377" lon="2.21429">
        <ele>100</ele>
        <time>2026-03-20T14:32:50Z</time>
      </trkpt>
      <trkpt lat="48.51374" lon="2.21425">
        <ele>100</ele>
        <time>2026-03-20T14:32:51Z</time>
      </trkpt>
      <trkpt lat="48.51371" lon="2.2142">
        <ele>100.4</ele>
        <time>2026-03-20T14:32:52Z</time>
      </trkpt>
      <trkpt lat="48.51367" lon="2.21416">
        <ele>100.4</ele>
        <time>2026-03-20T14:32:53Z</time>
      </trkpt>
      <trkpt lat="48.51364" lon="2.21412">
        <ele>100.4</ele>
        <time>2026-03-20T14:32:54Z</time>
      </trkpt>
      <trkpt lat="48.5136" lon="2.21407">
        <ele>100.4</ele>
        <time>2026-03-20T14:32:55Z</time>
      </trkpt>
      <trkpt lat="48.51357" lon="2.21403">
        <ele>100.6</ele>
        <time>2026-03-20T14:32:56Z</time>
      </trkpt>
      <trkpt lat="48.51353" lon="2.21399">
        <ele>100.6</ele>
        <time>2026-03-20T14:32:57Z</time>
      </trkpt>
      <trkpt lat="48.5135" lon="2.21394">
        <ele>100.6</ele>
        <time>2026-03-20T14:32:58Z</time>
      </trkpt>
      <trkpt lat="48.51346" lon="2.2139">
        <ele>101.2</ele>
        <time>2026-03-20T14:32:59Z</time>
      </trkpt>
      <trkpt lat="48.51343" lon="2.21385">
        <ele>101.2</ele>
        <time>2026-03-20T14:33:00Z</time>
      </trkpt>
      <trkpt lat="48.51339" lon="2.21381">
        <ele>101.2</ele>
        <time>2026-03-20T14:33:01Z</time>
      </trkpt>
      <trkpt lat="48.51335" lon="2.21377">
        <ele>101.2</ele>
        <time>2026-03-20T14:33:02Z</time>
      </trkpt>
      <trkpt lat="48.51332" lon="2.21373">
        <ele>101.2</ele>
        <time>2026-03-20T14:33:03Z</time>
      </trkpt>
      <trkpt lat="48.51328" lon="2.21369">
        <ele>102</ele>
        <time>2026-03-20T14:33:04Z</time>
      </trkpt>
      <trkpt lat="48.51325" lon="2.21365">
        <ele>102</ele>
        <time>2026-03-20T14:33:05Z</time>
      </trkpt>
      <trkpt lat="48.51322" lon="2.21361">
        <ele>102</ele>
        <time>2026-03-20T14:33:06Z</time>
      </trkpt>
      <trkpt lat="48.51318" lon="2.21358">
        <ele>102</ele>
        <time>2026-03-20T14:33:07Z</time>
      </trkpt>
      <trkpt lat="48.51314" lon="2.21354">
        <ele>102</ele>
        <time>2026-03-20T14:33:08Z</time>
      </trkpt>
      <trkpt lat="48.5131" lon="2.2135">
        <ele>102</ele>
        <time>2026-03-20T14:33:09Z</time>
      </trkpt>
      <trkpt lat="48.51307" lon="2.21346">
        <ele>102</ele>
        <time>2026-03-20T14:33:10Z</time>
      </trkpt>
      <trkpt lat="48.51303" lon="2.21343">
        <ele>102</ele>
        <time>2026-03-20T14:33:11Z</time>
      </trkpt>
      <trkpt lat="48.51299" lon="2.21339">
        <ele>102.2</ele>
        <time>2026-03-20T14:33:12Z</time>
      </trkpt>
      <trkpt lat="48.51296" lon="2.21335">
        <ele>102.2</ele>
        <time>2026-03-20T14:33:13Z</time>
      </trkpt>
      <trkpt lat="48.51292" lon="2.21331">
        <ele>102.2</ele>
        <time>2026-03-20T14:33:14Z</time>
      </trkpt>
      <trkpt lat="48.51287" lon="2.21331">
        <ele>102.6</ele>
        <time>2026-03-20T14:33:15Z</time>
      </trkpt>
      <trkpt lat="48.51283" lon="2.21333">
        <ele>102.6</ele>
        <time>2026-03-20T14:33:16Z</time>
      </trkpt>
      <trkpt lat="48.51281" lon="2.21338">
        <ele>102.6</ele>
        <time>2026-03-20T14:33:17Z</time>
      </trkpt>
      <trkpt lat="48.5128" lon="2.21344">
        <ele>102.6</ele>
        <time>2026-03-20T14:33:18Z</time>
      </trkpt>
      <trkpt lat="48.51278" lon="2.2135">
        <ele>101.6</ele>
        <time>2026-03-20T14:33:19Z</time>
      </trkpt>
      <trkpt lat="48.51277" lon="2.21357">
        <ele>99.4</ele>
        <time>2026-03-20T14:33:20Z</time>
      </trkpt>
      <trkpt lat="48.51276" lon="2.21364">
        <ele>99.4</ele>
        <time>2026-03-20T14:33:21Z</time>
      </trkpt>
      <trkpt lat="48.51275" lon="2.21371">
        <ele>99.4</ele>
        <time>2026-03-20T14:33:22Z</time>
      </trkpt>
      <trkpt lat="48.51275" lon="2.21378">
        <ele>98.4</ele>
        <time>2026-03-20T14:33:23Z</time>
      </trkpt>
      <trkpt lat="48.51275" lon="2.21386">
        <ele>97</ele>
        <time>2026-03-20T14:33:24Z</time>
      </trkpt>
      <trkpt lat="48.51277" lon="2.21394">
        <ele>97</ele>
        <time>2026-03-20T14:33:25Z</time>
      </trkpt>
      <trkpt lat="48.51279" lon="2.21402">
        <ele>97</ele>
        <time>2026-03-20T14:33:26Z</time>
      </trkpt>
      <trkpt lat="48.51281" lon="2.21408">
        <ele>97.2</ele>
        <time>2026-03-20T14:33:27Z</time>
      </trkpt>
      <trkpt lat="48.51283" lon="2.21413">
        <ele>97.4</ele>
        <time>2026-03-20T14:33:28Z</time>
      </trkpt>
      <trkpt lat="48.51286" lon="2.21419">
        <ele>97.4</ele>
        <time>2026-03-20T14:33:29Z</time>
      </trkpt>
      <trkpt lat="48.51288" lon="2.21425">
        <ele>97.4</ele>
        <time>2026-03-20T14:33:30Z</time>
      </trkpt>
      <trkpt lat="48.51291" lon="2.21431">
        <ele>96.4</ele>
        <time>2026-03-20T14:33:31Z</time>
      </trkpt>
      <trkpt lat="48.51294" lon="2.21438">
        <ele>94.6</ele>
        <time>2026-03-20T14:33:32Z</time>
      </trkpt>
      <trkpt lat="48.51296" lon="2.21445">
        <ele>94.6</ele>
        <time>2026-03-20T14:33:33Z</time>
      </trkpt>
      <trkpt lat="48.51298" lon="2.2145">
        <ele>94.6</ele>
        <time>2026-03-20T14:33:34Z</time>
      </trkpt>
      <trkpt lat="48.51299" lon="2.21455">
        <ele>95.6</ele>
        <time>2026-03-20T14:33:35Z</time>
      </trkpt>
      <trkpt lat="48.51297" lon="2.21459">
        <ele>96.6</ele>
        <time>2026-03-20T14:33:36Z</time>
      </trkpt>
      <trkpt lat="48.51296" lon="2.21462">
        <ele>96.6</ele>
        <time>2026-03-20T14:33:37Z</time>
      </trkpt>
      <trkpt lat="48.51293" lon="2.21464">
        <ele>96.6</ele>
        <time>2026-03-20T14:33:38Z</time>
      </trkpt>
      <trkpt lat="48.5129" lon="2.21467">
        <ele>96.6</ele>
        <time>2026-03-20T14:33:39Z</time>
      </trkpt>
      <trkpt lat="48.51287" lon="2.2147">
        <ele>96.6</ele>
        <time>2026-03-20T14:33:40Z</time>
      </trkpt>
      <trkpt lat="48.51283" lon="2.21474">
        <ele>96.6</ele>
        <time>2026-03-20T14:33:41Z</time>
      </trkpt>
      <trkpt lat="48.51281" lon="2.21477">
        <ele>96.6</ele>
        <time>2026-03-20T14:33:42Z</time>
      </trkpt>
      <trkpt lat="48.51278" lon="2.2148">
        <ele>96.8</ele>
        <time>2026-03-20T14:33:43Z</time>
      </trkpt>
      <trkpt lat="48.51274" lon="2.21483">
        <ele>96.8</ele>
        <time>2026-03-20T14:33:44Z</time>
      </trkpt>
      <trkpt lat="48.51271" lon="2.21486">
        <ele>96.8</ele>
        <time>2026-03-20T14:33:45Z</time>
      </trkpt>
      <trkpt lat="48.51267" lon="2.2149">
        <ele>96.8</ele>
        <time>2026-03-20T14:33:46Z</time>
      </trkpt>
      <trkpt lat="48.51265" lon="2.21494">
        <ele>96.8</ele>
        <time>2026-03-20T14:33:47Z</time>
      </trkpt>
      <trkpt lat="48.51264" lon="2.21499">
        <ele>96.4</ele>
        <time>2026-03-20T14:33:48Z</time>
      </trkpt>
      <trkpt lat="48.51262" lon="2.21506">
        <ele>96.4</ele>
        <time>2026-03-20T14:33:49Z</time>
      </trkpt>
      <trkpt lat="48.51261" lon="2.21514">
        <ele>96.4</ele>
        <time>2026-03-20T14:33:50Z</time>
      </trkpt>
      <trkpt lat="48.5126" lon="2.21522">
        <ele>95.4</ele>
        <time>2026-03-20T14:33:51Z</time>
      </trkpt>
      <trkpt lat="48.51259" lon="2.2153">
        <ele>93.6</ele>
        <time>2026-03-20T14:33:52Z</time>
      </trkpt>
      <trkpt lat="48.51257" lon="2.21539">
        <ele>93.6</ele>
        <time>2026-03-20T14:33:53Z</time>
      </trkpt>
      <trkpt lat="48.51255" lon="2.21549">
        <ele>93.6</ele>
        <time>2026-03-20T14:33:54Z</time>
      </trkpt>
      <trkpt lat="48.51253" lon="2.21559">
        <ele>92.6</ele>
        <time>2026-03-20T14:33:55Z</time>
      </trkpt>
      <trkpt lat="48.51252" lon="2.2157">
        <ele>90.4</ele>
        <time>2026-03-20T14:33:56Z</time>
      </trkpt>
      <trkpt lat="48.5125" lon="2.21579">
        <ele>90.4</ele>
        <time>2026-03-20T14:33:57Z</time>
      </trkpt>
      <trkpt lat="48.5125" lon="2.21587">
        <ele>90.4</ele>
        <time>2026-03-20T14:33:58Z</time>
      </trkpt>
      <trkpt lat="48.51249" lon="2.21596">
        <ele>89.4</ele>
        <time>2026-03-20T14:33:59Z</time>
      </trkpt>
      <trkpt lat="48.51251" lon="2.21604">
        <ele>88.4</ele>
        <time>2026-03-20T14:34:00Z</time>
      </trkpt>
      <trkpt lat="48.51254" lon="2.21613">
        <ele>88.4</ele>
        <time>2026-03-20T14:34:01Z</time>
      </trkpt>
      <trkpt lat="48.51256" lon="2.21622">
        <ele>88.4</ele>
        <time>2026-03-20T14:34:02Z</time>
      </trkpt>
      <trkpt lat="48.5126" lon="2.21631">
        <ele>88.4</ele>
        <time>2026-03-20T14:34:03Z</time>
      </trkpt>
      <trkpt lat="48.51264" lon="2.21641">
        <ele>87.4</ele>
        <time>2026-03-20T14:34:04Z</time>
      </trkpt>
      <trkpt lat="48.51267" lon="2.2165">
        <ele>87.4</ele>
        <time>2026-03-20T14:34:05Z</time>
      </trkpt>
      <trkpt lat="48.51271" lon="2.2166">
        <ele>87.4</ele>
        <time>2026-03-20T14:34:06Z</time>
      </trkpt>
      <trkpt lat="48.51275" lon="2.21669">
        <ele>86.4</ele>
        <time>2026-03-20T14:34:07Z</time>
      </trkpt>
      <trkpt lat="48.51278" lon="2.21677">
        <ele>85.2</ele>
        <time>2026-03-20T14:34:08Z</time>
      </trkpt>
      <trkpt lat="48.51281" lon="2.21684">
        <ele>85.2</ele>
        <time>2026-03-20T14:34:09Z</time>
      </trkpt>
      <trkpt lat="48.51284" lon="2.21691">
        <ele>85.2</ele>
        <time>2026-03-20T14:34:10Z</time>
      </trkpt>
      <trkpt lat="48.51287" lon="2.21697">
        <ele>85.2</ele>
        <time>2026-03-20T14:34:11Z</time>
      </trkpt>
      <trkpt lat="48.51289" lon="2.21703">
        <ele>85.2</ele>
        <time>2026-03-20T14:34:12Z</time>
      </trkpt>
      <trkpt lat="48.51292" lon="2.21708">
        <ele>85.2</ele>
        <time>2026-03-20T14:34:13Z</time>
      </trkpt>
      <trkpt lat="48.51293" lon="2.21712">
        <ele>85.2</ele>
        <time>2026-03-20T14:34:14Z</time>
      </trkpt>
      <trkpt lat="48.51296" lon="2.21714">
        <ele>85.8</ele>
        <time>2026-03-20T14:34:15Z</time>
      </trkpt>
      <trkpt lat="48.51299" lon="2.21716">
        <ele>85.2</ele>
        <time>2026-03-20T14:34:16Z</time>
      </trkpt>
      <trkpt lat="48.51302" lon="2.21716">
        <ele>85.2</ele>
        <time>2026-03-20T14:34:17Z</time>
      </trkpt>
      <trkpt lat="48.51305" lon="2.21716">
        <ele>85.2</ele>
        <time>2026-03-20T14:34:18Z</time>
      </trkpt>
      <trkpt lat="48.51308" lon="2.21716">
        <ele>85.2</ele>
        <time>2026-03-20T14:34:19Z</time>
      </trkpt>
      <trkpt lat="48.51311" lon="2.21717">
        <ele>85.8</ele>
        <time>2026-03-20T14:34:20Z</time>
      </trkpt>
      <trkpt lat="48.51314" lon="2.21716">
        <ele>85.8</ele>
        <time>2026-03-20T14:34:21Z</time>
      </trkpt>
      <trkpt lat="48.51317" lon="2.21716">
        <ele>85.8</ele>
        <time>2026-03-20T14:34:22Z</time>
      </trkpt>
      <trkpt lat="48.51319" lon="2.21717">
        <ele>86.8</ele>
        <time>2026-03-20T14:34:23Z</time>
      </trkpt>
      <trkpt lat="48.51321" lon="2.21717">
        <ele>87</ele>
        <time>2026-03-20T14:34:24Z</time>
      </trkpt>
      <trkpt lat="48.51323" lon="2.21718">
        <ele>87</ele>
        <time>2026-03-20T14:34:25Z</time>
      </trkpt>
      <trkpt lat="48.51326" lon="2.21719">
        <ele>87</ele>
        <time>2026-03-20T14:34:26Z</time>
      </trkpt>
      <trkpt lat="48.51328" lon="2.2172">
        <ele>86.8</ele>
        <time>2026-03-20T14:34:27Z</time>
      </trkpt>
      <trkpt lat="48.5133" lon="2.21722">
        <ele>86.8</ele>
        <time>2026-03-20T14:34:28Z</time>
      </trkpt>
      <trkpt lat="48.51332" lon="2.21723">
        <ele>86.8</ele>
        <time>2026-03-20T14:34:29Z</time>
      </trkpt>
      <trkpt lat="48.51334" lon="2.21724">
        <ele>86.8</ele>
        <time>2026-03-20T14:34:30Z</time>
      </trkpt>
      <trkpt lat="48.51336" lon="2.21725">
        <ele>86.8</ele>
        <time>2026-03-20T14:34:31Z</time>
      </trkpt>
      <trkpt lat="48.51338" lon="2.21727">
        <ele>86.2</ele>
        <time>2026-03-20T14:34:32Z</time>
      </trkpt>
      <trkpt lat="48.51339" lon="2.21729">
        <ele>86.2</ele>
        <time>2026-03-20T14:34:33Z</time>
      </trkpt>
      <trkpt lat="48.51341" lon="2.21731">
        <ele>86.2</ele>
        <time>2026-03-20T14:34:34Z</time>
      </trkpt>
      <trkpt lat="48.51342" lon="2.21734">
        <ele>86.2</ele>
        <time>2026-03-20T14:34:35Z</time>
      </trkpt>
      <trkpt lat="48.51342" lon="2.21737">
        <ele>86.2</ele>
        <time>2026-03-20T14:34:36Z</time>
      </trkpt>
      <trkpt lat="48.51343" lon="2.21739">
        <ele>86.2</ele>
        <time>2026-03-20T14:34:37Z</time>
      </trkpt>
      <trkpt lat="48.51342" lon="2.21741">
        <ele>86.2</ele>
        <time>2026-03-20T14:34:38Z</time>
      </trkpt>
      <trkpt lat="48.51341" lon="2.21742">
        <ele>86.2</ele>
        <time>2026-03-20T14:34:39Z</time>
      </trkpt>
      <trkpt lat="48.51339" lon="2.21744">
        <ele>86</ele>
        <time>2026-03-20T14:34:40Z</time>
      </trkpt>
      <trkpt lat="48.51337" lon="2.21745">
        <ele>86</ele>
        <time>2026-03-20T14:34:41Z</time>
      </trkpt>
      <trkpt lat="48.51335" lon="2.21747">
        <ele>86</ele>
        <time>2026-03-20T14:34:42Z</time>
      </trkpt>
      <trkpt lat="48.51334" lon="2.21748">
        <ele>86</ele>
        <time>2026-03-20T14:34:43Z</time>
      </trkpt>
      <trkpt lat="48.51332" lon="2.21749">
        <ele>84.4</ele>
        <time>2026-03-20T14:34:44Z</time>
      </trkpt>
      <trkpt lat="48.51331" lon="2.2175">
        <ele>84.4</ele>
        <time>2026-03-20T14:34:45Z</time>
      </trkpt>
      <trkpt lat="48.51328" lon="2.21751">
        <ele>84.4</ele>
        <time>2026-03-20T14:34:46Z</time>
      </trkpt>
      <trkpt lat="48.51325" lon="2.21751">
        <ele>84.4</ele>
        <time>2026-03-20T14:34:47Z</time>
      </trkpt>
      <trkpt lat="48.51322" lon="2.21751">
        <ele>85.2</ele>
        <time>2026-03-20T14:34:48Z</time>
      </trkpt>
      <trkpt lat="48.51319" lon="2.21752">
        <ele>85.2</ele>
        <time>2026-03-20T14:34:49Z</time>
      </trkpt>
      <trkpt lat="48.51317" lon="2.21754">
        <ele>85.2</ele>
        <time>2026-03-20T14:34:50Z</time>
      </trkpt>
      <trkpt lat="48.51314" lon="2.21756">
        <ele>85.2</ele>
        <time>2026-03-20T14:34:51Z</time>
      </trkpt>
      <trkpt lat="48.51312" lon="2.21757">
        <ele>84.4</ele>
        <time>2026-03-20T14:34:52Z</time>
      </trkpt>
      <trkpt lat="48.51309" lon="2.2176">
        <ele>84.4</ele>
        <time>2026-03-20T14:34:53Z</time>
      </trkpt>
      <trkpt lat="48.51307" lon="2.21763">
        <ele>84.4</ele>
        <time>2026-03-20T14:34:54Z</time>
      </trkpt>
      <trkpt lat="48.51304" lon="2.21766">
        <ele>83.4</ele>
        <time>2026-03-20T14:34:55Z</time>
      </trkpt>
      <trkpt lat="48.51301" lon="2.2177">
        <ele>83.6</ele>
        <time>2026-03-20T14:34:56Z</time>
      </trkpt>
      <trkpt lat="48.513" lon="2.21774">
        <ele>83.6</ele>
        <time>2026-03-20T14:34:57Z</time>
      </trkpt>
      <trkpt lat="48.51299" lon="2.21778">
        <ele>83.6</ele>
        <time>2026-03-20T14:34:58Z</time>
      </trkpt>
      <trkpt lat="48.51298" lon="2.21783">
        <ele>83.6</ele>
        <time>2026-03-20T14:34:59Z</time>
      </trkpt>
      <trkpt lat="48.51298" lon="2.21787">
        <ele>83.2</ele>
        <time>2026-03-20T14:35:00Z</time>
      </trkpt>
      <trkpt lat="48.51298" lon="2.21791">
        <ele>83.2</ele>
        <time>2026-03-20T14:35:01Z</time>
      </trkpt>
      <trkpt lat="48.513" lon="2.21793">
        <ele>83.2</ele>
        <time>2026-03-20T14:35:02Z</time>
      </trkpt>
      <trkpt lat="48.51302" lon="2.21795">
        <ele>83.2</ele>
        <time>2026-03-20T14:35:03Z</time>
      </trkpt>
      <trkpt lat="48.51303" lon="2.21797">
        <ele>83.4</ele>
        <time>2026-03-20T14:35:04Z</time>
      </trkpt>
      <trkpt lat="48.51305" lon="2.21798">
        <ele>83.4</ele>
        <time>2026-03-20T14:35:05Z</time>
      </trkpt>
      <trkpt lat="48.51306" lon="2.21799">
        <ele>83.4</ele>
        <time>2026-03-20T14:35:06Z</time>
      </trkpt>
      <trkpt lat="48.51308" lon="2.21799">
        <ele>83.4</ele>
        <time>2026-03-20T14:35:07Z</time>
      </trkpt>
      <trkpt lat="48.51309" lon="2.218">
        <ele>84</ele>
        <time>2026-03-20T14:35:08Z</time>
      </trkpt>
      <trkpt lat="48.51311" lon="2.218">
        <ele>84</ele>
        <time>2026-03-20T14:35:09Z</time>
      </trkpt>
      <trkpt lat="48.51312" lon="2.218">
        <ele>84</ele>
        <time>2026-03-20T14:35:10Z</time>
      </trkpt>
      <trkpt lat="48.51313" lon="2.21801">
        <ele>85</ele>
        <time>2026-03-20T14:35:11Z</time>
      </trkpt>
      <trkpt lat="48.51314" lon="2.218">
        <ele>85.2</ele>
        <time>2026-03-20T14:35:12Z</time>
      </trkpt>
      <trkpt lat="48.51316" lon="2.21799">
        <ele>85.2</ele>
        <time>2026-03-20T14:35:13Z</time>
      </trkpt>
      <trkpt lat="48.51317" lon="2.21798">
        <ele>85.2</ele>
        <time>2026-03-20T14:35:14Z</time>
      </trkpt>
      <trkpt lat="48.51319" lon="2.21796">
        <ele>84.2</ele>
        <time>2026-03-20T14:35:15Z</time>
      </trkpt>
      <trkpt lat="48.5132" lon="2.21793">
        <ele>84.8</ele>
        <time>2026-03-20T14:35:16Z</time>
      </trkpt>
      <trkpt lat="48.51321" lon="2.21791">
        <ele>84.8</ele>
        <time>2026-03-20T14:35:17Z</time>
      </trkpt>
      <trkpt lat="48.51322" lon="2.21788">
        <ele>84.8</ele>
        <time>2026-03-20T14:35:18Z</time>
      </trkpt>
      <trkpt lat="48.51322" lon="2.21786">
        <ele>84.8</ele>
        <time>2026-03-20T14:35:19Z</time>
      </trkpt>
      <trkpt lat="48.51323" lon="2.21783">
        <ele>84.8</ele>
        <time>2026-03-20T14:35:20Z</time>
      </trkpt>
      <trkpt lat="48.51324" lon="2.2178">
        <ele>84.8</ele>
        <time>2026-03-20T14:35:21Z</time>
      </trkpt>
      <trkpt lat="48.51324" lon="2.21777">
        <ele>84.8</ele>
        <time>2026-03-20T14:35:22Z</time>
      </trkpt>
      <trkpt lat="48.51325" lon="2.21775">
        <ele>85</ele>
        <time>2026-03-20T14:35:23Z</time>
      </trkpt>
      <trkpt lat="48.51325" lon="2.21773">
        <ele>85.4</ele>
        <time>2026-03-20T14:35:24Z</time>
      </trkpt>
      <trkpt lat="48.51325" lon="2.2177">
        <ele>85.4</ele>
        <time>2026-03-20T14:35:25Z</time>
      </trkpt>
      <trkpt lat="48.51324" lon="2.21767">
        <ele>85.4</ele>
        <time>2026-03-20T14:35:26Z</time>
      </trkpt>
      <trkpt lat="48.51324" lon="2.21765">
        <ele>85.4</ele>
        <time>2026-03-20T14:35:27Z</time>
      </trkpt>
      <trkpt lat="48.51324" lon="2.21762">
        <ele>85.2</ele>
        <time>2026-03-20T14:35:28Z</time>
      </trkpt>
      <trkpt lat="48.51325" lon="2.2176">
        <ele>85.2</ele>
        <time>2026-03-20T14:35:29Z</time>
      </trkpt>
      <trkpt lat="48.51326" lon="2.21758">
        <ele>85.2</ele>
        <time>2026-03-20T14:35:30Z</time>
      </trkpt>
      <trkpt lat="48.51327" lon="2.21757">
        <ele>85.4</ele>
        <time>2026-03-20T14:35:31Z</time>
      </trkpt>
      <trkpt lat="48.51328" lon="2.21757">
        <ele>85.6</ele>
        <time>2026-03-20T14:35:32Z</time>
      </trkpt>
      <trkpt lat="48.51329" lon="2.21757">
        <ele>85.6</ele>
        <time>2026-03-20T14:35:33Z</time>
      </trkpt>
      <trkpt lat="48.51331" lon="2.21757">
        <ele>85.6</ele>
        <time>2026-03-20T14:35:34Z</time>
      </trkpt>
      <trkpt lat="48.51332" lon="2.21757">
        <ele>85.6</ele>
        <time>2026-03-20T14:35:35Z</time>
      </trkpt>
      <trkpt lat="48.51334" lon="2.21758">
        <ele>85.6</ele>
        <time>2026-03-20T14:35:36Z</time>
      </trkpt>
      <trkpt lat="48.51335" lon="2.21758">
        <ele>85.6</ele>
        <time>2026-03-20T14:35:37Z</time>
      </trkpt>
      <trkpt lat="48.51337" lon="2.21757">
        <ele>85.6</ele>
        <time>2026-03-20T14:35:38Z</time>
      </trkpt>
      <trkpt lat="48.51338" lon="2.21756">
        <ele>84.6</ele>
        <time>2026-03-20T14:35:39Z</time>
      </trkpt>
      <trkpt lat="48.5134" lon="2.21755">
        <ele>85</ele>
        <time>2026-03-20T14:35:40Z</time>
      </trkpt>
      <trkpt lat="48.51342" lon="2.21754">
        <ele>85</ele>
        <time>2026-03-20T14:35:41Z</time>
      </trkpt>
      <trkpt lat="48.51343" lon="2.21753">
        <ele>85</ele>
        <time>2026-03-20T14:35:42Z</time>
      </trkpt>
      <trkpt lat="48.51345" lon="2.21752">
        <ele>85</ele>
        <time>2026-03-20T14:35:43Z</time>
      </trkpt>
      <trkpt lat="48.51346" lon="2.21751">
        <ele>85.8</ele>
        <time>2026-03-20T14:35:44Z</time>
      </trkpt>
      <trkpt lat="48.51348" lon="2.21751">
        <ele>85.8</ele>
        <time>2026-03-20T14:35:45Z</time>
      </trkpt>
      <trkpt lat="48.5135" lon="2.2175">
        <ele>85.8</ele>
        <time>2026-03-20T14:35:46Z</time>
      </trkpt>
      <trkpt lat="48.51351" lon="2.21749">
        <ele>86</ele>
        <time>2026-03-20T14:35:47Z</time>
      </trkpt>
      <trkpt lat="48.51353" lon="2.21749">
        <ele>85.2</ele>
        <time>2026-03-20T14:35:48Z</time>
      </trkpt>
      <trkpt lat="48.51354" lon="2.2175">
        <ele>85.2</ele>
        <time>2026-03-20T14:35:49Z</time>
      </trkpt>
      <trkpt lat="48.51355" lon="2.2175">
        <ele>85.2</ele>
        <time>2026-03-20T14:35:50Z</time>
      </trkpt>
      <trkpt lat="48.51356" lon="2.21752">
        <ele>85.8</ele>
        <time>2026-03-20T14:35:51Z</time>
      </trkpt>
      <trkpt lat="48.51357" lon="2.21754">
        <ele>86.2</ele>
        <time>2026-03-20T14:35:52Z</time>
      </trkpt>
      <trkpt lat="48.51358" lon="2.21757">
        <ele>86.2</ele>
        <time>2026-03-20T14:35:53Z</time>
      </trkpt>
      <trkpt lat="48.51358" lon="2.21761">
        <ele>86.2</ele>
        <time>2026-03-20T14:35:54Z</time>
      </trkpt>
      <trkpt lat="48.51359" lon="2.21765">
        <ele>85.2</ele>
        <time>2026-03-20T14:35:55Z</time>
      </trkpt>
      <trkpt lat="48.51359" lon="2.21769">
        <ele>84.4</ele>
        <time>2026-03-20T14:35:56Z</time>
      </trkpt>
      <trkpt lat="48.51359" lon="2.21773">
        <ele>84.4</ele>
        <time>2026-03-20T14:35:57Z</time>
      </trkpt>
      <trkpt lat="48.51359" lon="2.21778">
        <ele>84.4</ele>
        <time>2026-03-20T14:35:58Z</time>
      </trkpt>
      <trkpt lat="48.51359" lon="2.21783">
        <ele>83.4</ele>
        <time>2026-03-20T14:35:59Z</time>
      </trkpt>
      <trkpt lat="48.51359" lon="2.21788">
        <ele>83.2</ele>
        <time>2026-03-20T14:36:00Z</time>
      </trkpt>
      <trkpt lat="48.51359" lon="2.21793">
        <ele>83.2</ele>
        <time>2026-03-20T14:36:01Z</time>
      </trkpt>
      <trkpt lat="48.51359" lon="2.21798">
        <ele>83.2</ele>
        <time>2026-03-20T14:36:02Z</time>
      </trkpt>
      <trkpt lat="48.51359" lon="2.21804">
        <ele>83.2</ele>
        <time>2026-03-20T14:36:03Z</time>
      </trkpt>
      <trkpt lat="48.51358" lon="2.2181">
        <ele>83.2</ele>
        <time>2026-03-20T14:36:04Z</time>
      </trkpt>
      <trkpt lat="48.51359" lon="2.21815">
        <ele>83.2</ele>
        <time>2026-03-20T14:36:05Z</time>
      </trkpt>
      <trkpt lat="48.5136" lon="2.21821">
        <ele>83.2</ele>
        <time>2026-03-20T14:36:06Z</time>
      </trkpt>
      <trkpt lat="48.5136" lon="2.21827">
        <ele>83.8</ele>
        <time>2026-03-20T14:36:07Z</time>
      </trkpt>
      <trkpt lat="48.5136" lon="2.21832">
        <ele>84.2</ele>
        <time>2026-03-20T14:36:08Z</time>
      </trkpt>
      <trkpt lat="48.51359" lon="2.21836">
        <ele>84.2</ele>
        <time>2026-03-20T14:36:09Z</time>
      </trkpt>
      <trkpt lat="48.51359" lon="2.2184">
        <ele>84.2</ele>
        <time>2026-03-20T14:36:10Z</time>
      </trkpt>
      <trkpt lat="48.51357" lon="2.21843">
        <ele>83.2</ele>
        <time>2026-03-20T14:36:11Z</time>
      </trkpt>
      <trkpt lat="48.51354" lon="2.21845">
        <ele>84.2</ele>
        <time>2026-03-20T14:36:12Z</time>
      </trkpt>
      <trkpt lat="48.51351" lon="2.21845">
        <ele>84.2</ele>
        <time>2026-03-20T14:36:13Z</time>
      </trkpt>
      <trkpt lat="48.5135" lon="2.21844">
        <ele>84.2</ele>
        <time>2026-03-20T14:36:14Z</time>
      </trkpt>
      <trkpt lat="48.51348" lon="2.21846">
        <ele>83.2</ele>
        <time>2026-03-20T14:36:15Z</time>
      </trkpt>
      <trkpt lat="48.51346" lon="2.21848">
        <ele>82.6</ele>
        <time>2026-03-20T14:36:16Z</time>
      </trkpt>
      <trkpt lat="48.51342" lon="2.21849">
        <ele>82.6</ele>
        <time>2026-03-20T14:36:17Z</time>
      </trkpt>
      <trkpt lat="48.51337" lon="2.2185">
        <ele>82.6</ele>
        <time>2026-03-20T14:36:18Z</time>
      </trkpt>
      <trkpt lat="48.51332" lon="2.21849">
        <ele>81.8</ele>
        <time>2026-03-20T14:36:19Z</time>
      </trkpt>
      <trkpt lat="48.51327" lon="2.21848">
        <ele>80.8</ele>
        <time>2026-03-20T14:36:20Z</time>
      </trkpt>
      <trkpt lat="48.51323" lon="2.21848">
        <ele>80.8</ele>
        <time>2026-03-20T14:36:21Z</time>
      </trkpt>
      <trkpt lat="48.51318" lon="2.21846">
        <ele>80.8</ele>
        <time>2026-03-20T14:36:22Z</time>
      </trkpt>
      <trkpt lat="48.51312" lon="2.21845">
        <ele>79.8</ele>
        <time>2026-03-20T14:36:23Z</time>
      </trkpt>
      <trkpt lat="48.51307" lon="2.21844">
        <ele>79.6</ele>
        <time>2026-03-20T14:36:24Z</time>
      </trkpt>
      <trkpt lat="48.51303" lon="2.21844">
        <ele>79.6</ele>
        <time>2026-03-20T14:36:25Z</time>
      </trkpt>
      <trkpt lat="48.51299" lon="2.21843">
        <ele>79.6</ele>
        <time>2026-03-20T14:36:26Z</time>
      </trkpt>
      <trkpt lat="48.51295" lon="2.21842">
        <ele>80.2</ele>
        <time>2026-03-20T14:36:27Z</time>
      </trkpt>
      <trkpt lat="48.51291" lon="2.21841">
        <ele>81</ele>
        <time>2026-03-20T14:36:28Z</time>
      </trkpt>
      <trkpt lat="48.51288" lon="2.21839">
        <ele>81</ele>
        <time>2026-03-20T14:36:29Z</time>
      </trkpt>
      <trkpt lat="48.51286" lon="2.21838">
        <ele>81</ele>
        <time>2026-03-20T14:36:30Z</time>
      </trkpt>
      <trkpt lat="48.51283" lon="2.2184">
        <ele>80</ele>
        <time>2026-03-20T14:36:31Z</time>
      </trkpt>
      <trkpt lat="48.5128" lon="2.21844">
        <ele>79.6</ele>
        <time>2026-03-20T14:36:32Z</time>
      </trkpt>
      <trkpt lat="48.51279" lon="2.21849">
        <ele>79.6</ele>
        <time>2026-03-20T14:36:33Z</time>
      </trkpt>
      <trkpt lat="48.51279" lon="2.21853">
        <ele>79.6</ele>
        <time>2026-03-20T14:36:34Z</time>
      </trkpt>
      <trkpt lat="48.51279" lon="2.21859">
        <ele>78.6</ele>
        <time>2026-03-20T14:36:35Z</time>
      </trkpt>
      <trkpt lat="48.51278" lon="2.21865">
        <ele>78.8</ele>
        <time>2026-03-20T14:36:36Z</time>
      </trkpt>
      <trkpt lat="48.51279" lon="2.2187">
        <ele>78.8</ele>
        <time>2026-03-20T14:36:37Z</time>
      </trkpt>
      <trkpt lat="48.51278" lon="2.21877">
        <ele>78.8</ele>
        <time>2026-03-20T14:36:38Z</time>
      </trkpt>
      <trkpt lat="48.51278" lon="2.21883">
        <ele>77.8</ele>
        <time>2026-03-20T14:36:39Z</time>
      </trkpt>
      <trkpt lat="48.51278" lon="2.2189">
        <ele>78.2</ele>
        <time>2026-03-20T14:36:40Z</time>
      </trkpt>
      <trkpt lat="48.51278" lon="2.21897">
        <ele>78.2</ele>
        <time>2026-03-20T14:36:41Z</time>
      </trkpt>
      <trkpt lat="48.51279" lon="2.21902">
        <ele>78.2</ele>
        <time>2026-03-20T14:36:42Z</time>
      </trkpt>
      <trkpt lat="48.5128" lon="2.21908">
        <ele>77.2</ele>
        <time>2026-03-20T14:36:43Z</time>
      </trkpt>
      <trkpt lat="48.5128" lon="2.21915">
        <ele>75.8</ele>
        <time>2026-03-20T14:36:44Z</time>
      </trkpt>
      <trkpt lat="48.51281" lon="2.2192">
        <ele>75.8</ele>
        <time>2026-03-20T14:36:45Z</time>
      </trkpt>
      <trkpt lat="48.51281" lon="2.21925">
        <ele>75.8</ele>
        <time>2026-03-20T14:36:46Z</time>
      </trkpt>
      <trkpt lat="48.51281" lon="2.21931">
        <ele>76.8</ele>
        <time>2026-03-20T14:36:47Z</time>
      </trkpt>
      <trkpt lat="48.51281" lon="2.21936">
        <ele>75.6</ele>
        <time>2026-03-20T14:36:48Z</time>
      </trkpt>
      <trkpt lat="48.51281" lon="2.2194">
        <ele>75.6</ele>
        <time>2026-03-20T14:36:49Z</time>
      </trkpt>
      <trkpt lat="48.5128" lon="2.21945">
        <ele>75.6</ele>
        <time>2026-03-20T14:36:50Z</time>
      </trkpt>
      <trkpt lat="48.51279" lon="2.21951">
        <ele>75.2</ele>
        <time>2026-03-20T14:36:51Z</time>
      </trkpt>
      <trkpt lat="48.51279" lon="2.21956">
        <ele>75.4</ele>
        <time>2026-03-20T14:36:52Z</time>
      </trkpt>
      <trkpt lat="48.51278" lon="2.21962">
        <ele>75.4</ele>
        <time>2026-03-20T14:36:53Z</time>
      </trkpt>
      <trkpt lat="48.51276" lon="2.21967">
        <ele>75.4</ele>
        <time>2026-03-20T14:36:54Z</time>
      </trkpt>
      <trkpt lat="48.51275" lon="2.21973">
        <ele>75</ele>
        <time>2026-03-20T14:36:55Z</time>
      </trkpt>
      <trkpt lat="48.51272" lon="2.21979">
        <ele>75.6</ele>
        <time>2026-03-20T14:36:56Z</time>
      </trkpt>
      <trkpt lat="48.5127" lon="2.21984">
        <ele>75.6</ele>
        <time>2026-03-20T14:36:57Z</time>
      </trkpt>
      <trkpt lat="48.51267" lon="2.21989">
        <ele>75.6</ele>
        <time>2026-03-20T14:36:58Z</time>
      </trkpt>
      <trkpt lat="48.51264" lon="2.21995">
        <ele>74.8</ele>
        <time>2026-03-20T14:36:59Z</time>
      </trkpt>
      <trkpt lat="48.51261" lon="2.22">
        <ele>75.2</ele>
        <time>2026-03-20T14:37:00Z</time>
      </trkpt>
      <trkpt lat="48.51258" lon="2.22004">
        <ele>75.2</ele>
        <time>2026-03-20T14:37:01Z</time>
      </trkpt>
      <trkpt lat="48.51254" lon="2.22007">
        <ele>75.2</ele>
        <time>2026-03-20T14:37:02Z</time>
      </trkpt>
      <trkpt lat="48.5125" lon="2.2201">
        <ele>74.6</ele>
        <time>2026-03-20T14:37:03Z</time>
      </trkpt>
      <trkpt lat="48.51247" lon="2.22012">
        <ele>74.8</ele>
        <time>2026-03-20T14:37:04Z</time>
      </trkpt>
      <trkpt lat="48.51245" lon="2.22016">
        <ele>74.8</ele>
        <time>2026-03-20T14:37:05Z</time>
      </trkpt>
      <trkpt lat="48.51242" lon="2.22019">
        <ele>74.8</ele>
        <time>2026-03-20T14:37:06Z</time>
      </trkpt>
      <trkpt lat="48.51241" lon="2.22022">
        <ele>74.6</ele>
        <time>2026-03-20T14:37:07Z</time>
      </trkpt>
      <trkpt lat="48.5124" lon="2.22026">
        <ele>74</ele>
        <time>2026-03-20T14:37:08Z</time>
      </trkpt>
      <trkpt lat="48.5124" lon="2.22029">
        <ele>74</ele>
        <time>2026-03-20T14:37:09Z</time>
      </trkpt>
      <trkpt lat="48.51239" lon="2.22033">
        <ele>74</ele>
        <time>2026-03-20T14:37:10Z</time>
      </trkpt>
      <trkpt lat="48.51238" lon="2.22037">
        <ele>74</ele>
        <time>2026-03-20T14:37:11Z</time>
      </trkpt>
      <trkpt lat="48.51237" lon="2.22041">
        <ele>73.8</ele>
        <time>2026-03-20T14:37:12Z</time>
      </trkpt>
      <trkpt lat="48.51236" lon="2.22045">
        <ele>73.8</ele>
        <time>2026-03-20T14:37:13Z</time>
      </trkpt>
      <trkpt lat="48.51234" lon="2.2205">
        <ele>73.8</ele>
        <time>2026-03-20T14:37:14Z</time>
      </trkpt>
      <trkpt lat="48.51232" lon="2.22056">
        <ele>73.2</ele>
        <time>2026-03-20T14:37:15Z</time>
      </trkpt>
      <trkpt lat="48.5123" lon="2.2206">
        <ele>73</ele>
        <time>2026-03-20T14:37:16Z</time>
      </trkpt>
      <trkpt lat="48.51228" lon="2.22065">
        <ele>73</ele>
        <time>2026-03-20T14:37:17Z</time>
      </trkpt>
      <trkpt lat="48.51225" lon="2.22068">
        <ele>73</ele>
        <time>2026-03-20T14:37:18Z</time>
      </trkpt>
      <trkpt lat="48.51223" lon="2.22072">
        <ele>73.8</ele>
        <time>2026-03-20T14:37:19Z</time>
      </trkpt>
      <trkpt lat="48.5122" lon="2.22077">
        <ele>73.8</ele>
        <time>2026-03-20T14:37:20Z</time>
      </trkpt>
      <trkpt lat="48.51219" lon="2.22081">
        <ele>73.8</ele>
        <time>2026-03-20T14:37:21Z</time>
      </trkpt>
      <trkpt lat="48.51217" lon="2.22085">
        <ele>73.8</ele>
        <time>2026-03-20T14:37:22Z</time>
      </trkpt>
      <trkpt lat="48.51215" lon="2.2209">
        <ele>73</ele>
        <time>2026-03-20T14:37:23Z</time>
      </trkpt>
      <trkpt lat="48.51212" lon="2.22093">
        <ele>72.2</ele>
        <time>2026-03-20T14:37:24Z</time>
      </trkpt>
      <trkpt lat="48.51208" lon="2.22096">
        <ele>72.2</ele>
        <time>2026-03-20T14:37:25Z</time>
      </trkpt>
      <trkpt lat="48.51205" lon="2.22098">
        <ele>72.2</ele>
        <time>2026-03-20T14:37:26Z</time>
      </trkpt>
      <trkpt lat="48.512" lon="2.22098">
        <ele>72.2</ele>
        <time>2026-03-20T14:37:27Z</time>
      </trkpt>
      <trkpt lat="48.51196" lon="2.22099">
        <ele>70.2</ele>
        <time>2026-03-20T14:37:28Z</time>
      </trkpt>
      <trkpt lat="48.51192" lon="2.22099">
        <ele>70.2</ele>
        <time>2026-03-20T14:37:29Z</time>
      </trkpt>
      <trkpt lat="48.51186" lon="2.22099">
        <ele>70.2</ele>
        <time>2026-03-20T14:37:30Z</time>
      </trkpt>
      <trkpt lat="48.51181" lon="2.221">
        <ele>71.2</ele>
        <time>2026-03-20T14:37:31Z</time>
      </trkpt>
      <trkpt lat="48.51177" lon="2.22104">
        <ele>70.8</ele>
        <time>2026-03-20T14:37:32Z</time>
      </trkpt>
      <trkpt lat="48.51173" lon="2.22108">
        <ele>70.8</ele>
        <time>2026-03-20T14:37:33Z</time>
      </trkpt>
      <trkpt lat="48.5117" lon="2.22112">
        <ele>70.8</ele>
        <time>2026-03-20T14:37:34Z</time>
      </trkpt>
      <trkpt lat="48.51168" lon="2.22115">
        <ele>71.6</ele>
        <time>2026-03-20T14:37:35Z</time>
      </trkpt>
      <trkpt lat="48.51166" lon="2.22117">
        <ele>71.2</ele>
        <time>2026-03-20T14:37:36Z</time>
      </trkpt>
      <trkpt lat="48.51164" lon="2.2212">
        <ele>71.2</ele>
        <time>2026-03-20T14:37:37Z</time>
      </trkpt>
      <trkpt lat="48.51161" lon="2.22123">
        <ele>71.2</ele>
        <time>2026-03-20T14:37:38Z</time>
      </trkpt>
      <trkpt lat="48.51158" lon="2.22123">
        <ele>71</ele>
        <time>2026-03-20T14:37:39Z</time>
      </trkpt>
      <trkpt lat="48.51156" lon="2.2212">
        <ele>70.6</ele>
        <time>2026-03-20T14:37:40Z</time>
      </trkpt>
      <trkpt lat="48.51155" lon="2.22117">
        <ele>70.6</ele>
        <time>2026-03-20T14:37:41Z</time>
      </trkpt>
      <trkpt lat="48.51152" lon="2.22115">
        <ele>70.6</ele>
        <time>2026-03-20T14:37:42Z</time>
      </trkpt>
      <trkpt lat="48.5115" lon="2.22114">
        <ele>70.6</ele>
        <time>2026-03-20T14:37:43Z</time>
      </trkpt>
      <trkpt lat="48.51148" lon="2.22113">
        <ele>71.2</ele>
        <time>2026-03-20T14:37:44Z</time>
      </trkpt>
      <trkpt lat="48.51145" lon="2.22113">
        <ele>71.2</ele>
        <time>2026-03-20T14:37:45Z</time>
      </trkpt>
      <trkpt lat="48.51142" lon="2.22112">
        <ele>71.2</ele>
        <time>2026-03-20T14:37:46Z</time>
      </trkpt>
      <trkpt lat="48.5114" lon="2.2211">
        <ele>71.2</ele>
        <time>2026-03-20T14:37:47Z</time>
      </trkpt>
      <trkpt lat="48.51137" lon="2.22109">
        <ele>71.2</ele>
        <time>2026-03-20T14:37:48Z</time>
      </trkpt>
      <trkpt lat="48.51135" lon="2.22107">
        <ele>71.2</ele>
        <time>2026-03-20T14:37:49Z</time>
      </trkpt>
      <trkpt lat="48.51132" lon="2.22107">
        <ele>71.2</ele>
        <time>2026-03-20T14:37:50Z</time>
      </trkpt>
      <trkpt lat="48.5113" lon="2.22106">
        <ele>71.2</ele>
        <time>2026-03-20T14:37:51Z</time>
      </trkpt>
      <trkpt lat="48.51127" lon="2.22107">
        <ele>70.8</ele>
        <time>2026-03-20T14:37:52Z</time>
      </trkpt>
      <trkpt lat="48.51123" lon="2.22108">
        <ele>70.8</ele>
        <time>2026-03-20T14:37:53Z</time>
      </trkpt>
      <trkpt lat="48.5112" lon="2.22109">
        <ele>70.8</ele>
        <time>2026-03-20T14:37:54Z</time>
      </trkpt>
      <trkpt lat="48.51116" lon="2.22109">
        <ele>70.8</ele>
        <time>2026-03-20T14:37:55Z</time>
      </trkpt>
      <trkpt lat="48.51113" lon="2.22109">
        <ele>70.2</ele>
        <time>2026-03-20T14:37:56Z</time>
      </trkpt>
      <trkpt lat="48.5111" lon="2.22109">
        <ele>70.2</ele>
        <time>2026-03-20T14:37:57Z</time>
      </trkpt>
      <trkpt lat="48.51107" lon="2.22111">
        <ele>70.2</ele>
        <time>2026-03-20T14:37:58Z</time>
      </trkpt>
      <trkpt lat="48.51104" lon="2.22112">
        <ele>71</ele>
        <time>2026-03-20T14:37:59Z</time>
      </trkpt>
      <trkpt lat="48.511" lon="2.22112">
        <ele>70.6</ele>
        <time>2026-03-20T14:38:00Z</time>
      </trkpt>
      <trkpt lat="48.51098" lon="2.22112">
        <ele>70.6</ele>
        <time>2026-03-20T14:38:01Z</time>
      </trkpt>
      <trkpt lat="48.51094" lon="2.22113">
        <ele>70.6</ele>
        <time>2026-03-20T14:38:02Z</time>
      </trkpt>
      <trkpt lat="48.51091" lon="2.22113">
        <ele>70.6</ele>
        <time>2026-03-20T14:38:03Z</time>
      </trkpt>
      <trkpt lat="48.51088" lon="2.22112">
        <ele>70</ele>
        <time>2026-03-20T14:38:04Z</time>
      </trkpt>
      <trkpt lat="48.51084" lon="2.22112">
        <ele>70</ele>
        <time>2026-03-20T14:38:05Z</time>
      </trkpt>
      <trkpt lat="48.51083" lon="2.2211">
        <ele>70</ele>
        <time>2026-03-20T14:38:06Z</time>
      </trkpt>
      <trkpt lat="48.5108" lon="2.2211">
        <ele>70.6</ele>
        <time>2026-03-20T14:38:07Z</time>
      </trkpt>
      <trkpt lat="48.51076" lon="2.22109">
        <ele>70.4</ele>
        <time>2026-03-20T14:38:08Z</time>
      </trkpt>
      <trkpt lat="48.51073" lon="2.22108">
        <ele>70.4</ele>
        <time>2026-03-20T14:38:09Z</time>
      </trkpt>
      <trkpt lat="48.51069" lon="2.22107">
        <ele>70.4</ele>
        <time>2026-03-20T14:38:10Z</time>
      </trkpt>
      <trkpt lat="48.51066" lon="2.22105">
        <ele>70.4</ele>
        <time>2026-03-20T14:38:11Z</time>
      </trkpt>
      <trkpt lat="48.51063" lon="2.22105">
        <ele>70.2</ele>
        <time>2026-03-20T14:38:12Z</time>
      </trkpt>
      <trkpt lat="48.51059" lon="2.22105">
        <ele>70.2</ele>
        <time>2026-03-20T14:38:13Z</time>
      </trkpt>
      <trkpt lat="48.51056" lon="2.22104">
        <ele>70.2</ele>
        <time>2026-03-20T14:38:14Z</time>
      </trkpt>
      <trkpt lat="48.51053" lon="2.22105">
        <ele>70.2</ele>
        <time>2026-03-20T14:38:15Z</time>
      </trkpt>
      <trkpt lat="48.5105" lon="2.22105">
        <ele>71</ele>
        <time>2026-03-20T14:38:16Z</time>
      </trkpt>
      <trkpt lat="48.51046" lon="2.22105">
        <ele>71</ele>
        <time>2026-03-20T14:38:17Z</time>
      </trkpt>
      <trkpt lat="48.51043" lon="2.22106">
        <ele>71</ele>
        <time>2026-03-20T14:38:18Z</time>
      </trkpt>
      <trkpt lat="48.51038" lon="2.22107">
        <ele>70.2</ele>
        <time>2026-03-20T14:38:19Z</time>
      </trkpt>
      <trkpt lat="48.51035" lon="2.22109">
        <ele>70.4</ele>
        <time>2026-03-20T14:38:20Z</time>
      </trkpt>
      <trkpt lat="48.51031" lon="2.2211">
        <ele>70.4</ele>
        <time>2026-03-20T14:38:21Z</time>
      </trkpt>
      <trkpt lat="48.51027" lon="2.22112">
        <ele>70.4</ele>
        <time>2026-03-20T14:38:22Z</time>
      </trkpt>
      <trkpt lat="48.51024" lon="2.22113">
        <ele>70.2</ele>
        <time>2026-03-20T14:38:23Z</time>
      </trkpt>
      <trkpt lat="48.5102" lon="2.22115">
        <ele>70.4</ele>
        <time>2026-03-20T14:38:24Z</time>
      </trkpt>
      <trkpt lat="48.51017" lon="2.22115">
        <ele>70.4</ele>
        <time>2026-03-20T14:38:25Z</time>
      </trkpt>
      <trkpt lat="48.51014" lon="2.22116">
        <ele>70.4</ele>
        <time>2026-03-20T14:38:26Z</time>
      </trkpt>
      <trkpt lat="48.5101" lon="2.22117">
        <ele>70.4</ele>
        <time>2026-03-20T14:38:27Z</time>
      </trkpt>
      <trkpt lat="48.51006" lon="2.22118">
        <ele>70</ele>
        <time>2026-03-20T14:38:28Z</time>
      </trkpt>
      <trkpt lat="48.51004" lon="2.22118">
        <ele>70</ele>
        <time>2026-03-20T14:38:29Z</time>
      </trkpt>
      <trkpt lat="48.51001" lon="2.22118">
        <ele>70</ele>
        <time>2026-03-20T14:38:30Z</time>
      </trkpt>
      <trkpt lat="48.50998" lon="2.22118">
        <ele>71</ele>
        <time>2026-03-20T14:38:31Z</time>
      </trkpt>
      <trkpt lat="48.50995" lon="2.22118">
        <ele>70.4</ele>
        <time>2026-03-20T14:38:32Z</time>
      </trkpt>
      <trkpt lat="48.50993" lon="2.22118">
        <ele>70.4</ele>
        <time>2026-03-20T14:38:33Z</time>
      </trkpt>
      <trkpt lat="48.50991" lon="2.22118">
        <ele>70.4</ele>
        <time>2026-03-20T14:38:34Z</time>
      </trkpt>
      <trkpt lat="48.50987" lon="2.22118">
        <ele>70.4</ele>
        <time>2026-03-20T14:38:35Z</time>
      </trkpt>
      <trkpt lat="48.50985" lon="2.22118">
        <ele>69.6</ele>
        <time>2026-03-20T14:38:36Z</time>
      </trkpt>
      <trkpt lat="48.50982" lon="2.22118">
        <ele>69.6</ele>
        <time>2026-03-20T14:38:37Z</time>
      </trkpt>
      <trkpt lat="48.5098" lon="2.22118">
        <ele>69.6</ele>
        <time>2026-03-20T14:38:38Z</time>
      </trkpt>
      <trkpt lat="48.50978" lon="2.22118">
        <ele>70.6</ele>
        <time>2026-03-20T14:38:39Z</time>
      </trkpt>
      <trkpt lat="48.50959" lon="2.22133">
        <ele>72.6</ele>
        <time>2026-03-20T14:50:04Z</time>
      </trkpt>
      <trkpt lat="48.50957" lon="2.22133">
        <ele>72.6</ele>
        <time>2026-03-20T14:50:05Z</time>
      </trkpt>
      <trkpt lat="48.50955" lon="2.22134">
        <ele>72.6</ele>
        <time>2026-03-20T14:50:06Z</time>
      </trkpt>
      <trkpt lat="48.50954" lon="2.22136">
        <ele>72</ele>
        <time>2026-03-20T14:50:07Z</time>
      </trkpt>
      <trkpt lat="48.50952" lon="2.22138">
        <ele>73</ele>
        <time>2026-03-20T14:50:08Z</time>
      </trkpt>
      <trkpt lat="48.50951" lon="2.22141">
        <ele>73</ele>
        <time>2026-03-20T14:50:09Z</time>
      </trkpt>
      <trkpt lat="48.50949" lon="2.22144">
        <ele>73</ele>
        <time>2026-03-20T14:50:10Z</time>
      </trkpt>
      <trkpt lat="48.50946" lon="2.22146">
        <ele>72.4</ele>
        <time>2026-03-20T14:50:11Z</time>
      </trkpt>
      <trkpt lat="48.50944" lon="2.22148">
        <ele>72.8</ele>
        <time>2026-03-20T14:50:12Z</time>
      </trkpt>
      <trkpt lat="48.50942" lon="2.22151">
        <ele>72.8</ele>
        <time>2026-03-20T14:50:13Z</time>
      </trkpt>
      <trkpt lat="48.5094" lon="2.22153">
        <ele>72.8</ele>
        <time>2026-03-20T14:50:14Z</time>
      </trkpt>
      <trkpt lat="48.50938" lon="2.22155">
        <ele>72.8</ele>
        <time>2026-03-20T14:50:15Z</time>
      </trkpt>
      <trkpt lat="48.50936" lon="2.22156">
        <ele>73</ele>
        <time>2026-03-20T14:50:16Z</time>
      </trkpt>
      <trkpt lat="48.50934" lon="2.22157">
        <ele>73</ele>
        <time>2026-03-20T14:50:17Z</time>
      </trkpt>
      <trkpt lat="48.50932" lon="2.22158">
        <ele>73</ele>
        <time>2026-03-20T14:50:18Z</time>
      </trkpt>
      <trkpt lat="48.50929" lon="2.22159">
        <ele>72.6</ele>
        <time>2026-03-20T14:50:19Z</time>
      </trkpt>
      <trkpt lat="48.50927" lon="2.2216">
        <ele>72.6</ele>
        <time>2026-03-20T14:50:20Z</time>
      </trkpt>
      <trkpt lat="48.50925" lon="2.22162">
        <ele>72.6</ele>
        <time>2026-03-20T14:50:21Z</time>
      </trkpt>
      <trkpt lat="48.50923" lon="2.22163">
        <ele>72.6</ele>
        <time>2026-03-20T14:50:22Z</time>
      </trkpt>
      <trkpt lat="48.50921" lon="2.22164">
        <ele>72.6</ele>
        <time>2026-03-20T14:50:23Z</time>
      </trkpt>
      <trkpt lat="48.50919" lon="2.22165">
        <ele>72.8</ele>
        <time>2026-03-20T14:50:24Z</time>
      </trkpt>
      <trkpt lat="48.50917" lon="2.22167">
        <ele>72.8</ele>
        <time>2026-03-20T14:50:25Z</time>
      </trkpt>
      <trkpt lat="48.50915" lon="2.22168">
        <ele>72.8</ele>
        <time>2026-03-20T14:50:26Z</time>
      </trkpt>
      <trkpt lat="48.50914" lon="2.22169">
        <ele>72.4</ele>
        <time>2026-03-20T14:50:27Z</time>
      </trkpt>
      <trkpt lat="48.50913" lon="2.22171">
        <ele>72.4</ele>
        <time>2026-03-20T14:50:28Z</time>
      </trkpt>
      <trkpt lat="48.50911" lon="2.22172">
        <ele>71.8</ele>
        <time>2026-03-20T14:50:29Z</time>
      </trkpt>
      <trkpt lat="48.5091" lon="2.22174">
        <ele>71.8</ele>
        <time>2026-03-20T14:50:30Z</time>
      </trkpt>
      <trkpt lat="48.50909" lon="2.22177">
        <ele>72.2</ele>
        <time>2026-03-20T14:50:31Z</time>
      </trkpt>
      <trkpt lat="48.50907" lon="2.2218">
        <ele>71.8</ele>
        <time>2026-03-20T14:50:32Z</time>
      </trkpt>
      <trkpt lat="48.50906" lon="2.22183">
        <ele>71.8</ele>
        <time>2026-03-20T14:50:33Z</time>
      </trkpt>
      <trkpt lat="48.50904" lon="2.22186">
        <ele>71.8</ele>
        <time>2026-03-20T14:50:34Z</time>
      </trkpt>
      <trkpt lat="48.50902" lon="2.22189">
        <ele>72.4</ele>
        <time>2026-03-20T14:50:35Z</time>
      </trkpt>
      <trkpt lat="48.509" lon="2.22191">
        <ele>71.8</ele>
        <time>2026-03-20T14:50:36Z</time>
      </trkpt>
      <trkpt lat="48.50898" lon="2.22192">
        <ele>71.8</ele>
        <time>2026-03-20T14:50:37Z</time>
      </trkpt>
      <trkpt lat="48.50896" lon="2.22193">
        <ele>71.8</ele>
        <time>2026-03-20T14:50:38Z</time>
      </trkpt>
      <trkpt lat="48.50894" lon="2.22193">
        <ele>72.8</ele>
        <time>2026-03-20T14:50:39Z</time>
      </trkpt>
      <trkpt lat="48.50891" lon="2.22194">
        <ele>72.6</ele>
        <time>2026-03-20T14:50:40Z</time>
      </trkpt>
      <trkpt lat="48.50889" lon="2.22194">
        <ele>72.6</ele>
        <time>2026-03-20T14:50:41Z</time>
      </trkpt>
      <trkpt lat="48.50887" lon="2.22194">
        <ele>72.6</ele>
        <time>2026-03-20T14:50:42Z</time>
      </trkpt>
      <trkpt lat="48.50885" lon="2.22194">
        <ele>72.8</ele>
        <time>2026-03-20T14:50:43Z</time>
      </trkpt>
      <trkpt lat="48.50883" lon="2.22192">
        <ele>72.4</ele>
        <time>2026-03-20T14:50:44Z</time>
      </trkpt>
      <trkpt lat="48.50882" lon="2.22191">
        <ele>72.4</ele>
        <time>2026-03-20T14:50:45Z</time>
      </trkpt>
      <trkpt lat="48.50881" lon="2.2219">
        <ele>72.4</ele>
        <time>2026-03-20T14:50:46Z</time>
      </trkpt>
      <trkpt lat="48.5088" lon="2.22188">
        <ele>72.4</ele>
        <time>2026-03-20T14:50:47Z</time>
      </trkpt>
      <trkpt lat="48.50879" lon="2.22187">
        <ele>72.6</ele>
        <time>2026-03-20T14:50:48Z</time>
      </trkpt>
      <trkpt lat="48.50878" lon="2.22184">
        <ele>72.6</ele>
        <time>2026-03-20T14:50:49Z</time>
      </trkpt>
      <trkpt lat="48.50878" lon="2.22182">
        <ele>72.6</ele>
        <time>2026-03-20T14:50:50Z</time>
      </trkpt>
      <trkpt lat="48.50877" lon="2.2218">
        <ele>72.6</ele>
        <time>2026-03-20T14:50:51Z</time>
      </trkpt>
      <trkpt lat="48.50876" lon="2.22178">
        <ele>72.8</ele>
        <time>2026-03-20T14:50:52Z</time>
      </trkpt>
      <trkpt lat="48.50874" lon="2.22175">
        <ele>72.8</ele>
        <time>2026-03-20T14:50:53Z</time>
      </trkpt>
      <trkpt lat="48.50874" lon="2.22173">
        <ele>72.8</ele>
        <time>2026-03-20T14:50:54Z</time>
      </trkpt>
      <trkpt lat="48.50873" lon="2.2217">
        <ele>72.8</ele>
        <time>2026-03-20T14:50:55Z</time>
      </trkpt>
      <trkpt lat="48.50872" lon="2.22168">
        <ele>71.6</ele>
        <time>2026-03-20T14:50:56Z</time>
      </trkpt>
      <trkpt lat="48.50871" lon="2.22166">
        <ele>71.6</ele>
        <time>2026-03-20T14:50:57Z</time>
      </trkpt>
      <trkpt lat="48.5087" lon="2.22163">
        <ele>71.6</ele>
        <time>2026-03-20T14:50:58Z</time>
      </trkpt>
      <trkpt lat="48.50868" lon="2.22161">
        <ele>72.4</ele>
        <time>2026-03-20T14:50:59Z</time>
      </trkpt>
      <trkpt lat="48.50868" lon="2.22158">
        <ele>72.4</ele>
        <time>2026-03-20T14:51:00Z</time>
      </trkpt>
      <trkpt lat="48.50867" lon="2.22156">
        <ele>72.4</ele>
        <time>2026-03-20T14:51:01Z</time>
      </trkpt>
      <trkpt lat="48.50866" lon="2.22153">
        <ele>72.4</ele>
        <time>2026-03-20T14:51:02Z</time>
      </trkpt>
      <trkpt lat="48.50864" lon="2.22152">
        <ele>72.8</ele>
        <time>2026-03-20T14:51:03Z</time>
      </trkpt>
      <trkpt lat="48.50863" lon="2.2215">
        <ele>72.8</ele>
        <time>2026-03-20T14:51:04Z</time>
      </trkpt>
      <trkpt lat="48.50861" lon="2.22149">
        <ele>72.8</ele>
        <time>2026-03-20T14:51:05Z</time>
      </trkpt>
      <trkpt lat="48.50859" lon="2.22149">
        <ele>72.8</ele>
        <time>2026-03-20T14:51:06Z</time>
      </trkpt>
      <trkpt lat="48.50857" lon="2.22149">
        <ele>72.8</ele>
        <time>2026-03-20T14:51:07Z</time>
      </trkpt>
      <trkpt lat="48.50855" lon="2.22149">
        <ele>72.2</ele>
        <time>2026-03-20T14:51:08Z</time>
      </trkpt>
      <trkpt lat="48.50853" lon="2.22149">
        <ele>72.2</ele>
        <time>2026-03-20T14:51:09Z</time>
      </trkpt>
      <trkpt lat="48.50851" lon="2.22148">
        <ele>72.2</ele>
        <time>2026-03-20T14:51:10Z</time>
      </trkpt>
      <trkpt lat="48.50848" lon="2.22146">
        <ele>72.2</ele>
        <time>2026-03-20T14:51:11Z</time>
      </trkpt>
      <trkpt lat="48.50844" lon="2.22146">
        <ele>72.4</ele>
        <time>2026-03-20T14:51:12Z</time>
      </trkpt>
      <trkpt lat="48.50842" lon="2.22145">
        <ele>72.4</ele>
        <time>2026-03-20T14:51:13Z</time>
      </trkpt>
      <trkpt lat="48.50839" lon="2.22143">
        <ele>72.4</ele>
        <time>2026-03-20T14:51:14Z</time>
      </trkpt>
      <trkpt lat="48.50836" lon="2.22142">
        <ele>72.4</ele>
        <time>2026-03-20T14:51:15Z</time>
      </trkpt>
      <trkpt lat="48.50834" lon="2.22142">
        <ele>72.4</ele>
        <time>2026-03-20T14:51:16Z</time>
      </trkpt>
      <trkpt lat="48.50831" lon="2.22141">
        <ele>72.4</ele>
        <time>2026-03-20T14:51:17Z</time>
      </trkpt>
      <trkpt lat="48.50829" lon="2.2214">
        <ele>72.4</ele>
        <time>2026-03-20T14:51:18Z</time>
      </trkpt>
      <trkpt lat="48.50826" lon="2.22141">
        <ele>72.4</ele>
        <time>2026-03-20T14:51:19Z</time>
      </trkpt>
      <trkpt lat="48.50823" lon="2.22141">
        <ele>72.2</ele>
        <time>2026-03-20T14:51:20Z</time>
      </trkpt>
      <trkpt lat="48.50821" lon="2.2214">
        <ele>72.2</ele>
        <time>2026-03-20T14:51:21Z</time>
      </trkpt>
      <trkpt lat="48.50818" lon="2.2214">
        <ele>72.2</ele>
        <time>2026-03-20T14:51:22Z</time>
      </trkpt>
      <trkpt lat="48.50815" lon="2.22139">
        <ele>72.2</ele>
        <time>2026-03-20T14:51:23Z</time>
      </trkpt>
      <trkpt lat="48.50812" lon="2.22138">
        <ele>72.6</ele>
        <time>2026-03-20T14:51:24Z</time>
      </trkpt>
      <trkpt lat="48.5081" lon="2.22138">
        <ele>72.6</ele>
        <time>2026-03-20T14:51:25Z</time>
      </trkpt>
      <trkpt lat="48.50807" lon="2.22137">
        <ele>72.6</ele>
        <time>2026-03-20T14:51:26Z</time>
      </trkpt>
      <trkpt lat="48.50804" lon="2.22136">
        <ele>72.4</ele>
        <time>2026-03-20T14:51:27Z</time>
      </trkpt>
      <trkpt lat="48.50802" lon="2.22135">
        <ele>72</ele>
        <time>2026-03-20T14:51:28Z</time>
      </trkpt>
      <trkpt lat="48.508" lon="2.22131">
        <ele>72</ele>
        <time>2026-03-20T14:51:29Z</time>
      </trkpt>
      <trkpt lat="48.50798" lon="2.22127">
        <ele>72</ele>
        <time>2026-03-20T14:51:30Z</time>
      </trkpt>
      <trkpt lat="48.50798" lon="2.22123">
        <ele>72</ele>
        <time>2026-03-20T14:51:31Z</time>
      </trkpt>
      <trkpt lat="48.50797" lon="2.22119">
        <ele>73.2</ele>
        <time>2026-03-20T14:51:32Z</time>
      </trkpt>
      <trkpt lat="48.50797" lon="2.22115">
        <ele>73.2</ele>
        <time>2026-03-20T14:51:33Z</time>
      </trkpt>
      <trkpt lat="48.50797" lon="2.22112">
        <ele>73.2</ele>
        <time>2026-03-20T14:51:34Z</time>
      </trkpt>
      <trkpt lat="48.50796" lon="2.2211">
        <ele>73.2</ele>
        <time>2026-03-20T14:51:35Z</time>
      </trkpt>
      <trkpt lat="48.50796" lon="2.22108">
        <ele>72.8</ele>
        <time>2026-03-20T14:51:36Z</time>
      </trkpt>
      <trkpt lat="48.50796" lon="2.22107">
        <ele>72.8</ele>
        <time>2026-03-20T14:51:37Z</time>
      </trkpt>
      <trkpt lat="48.50796" lon="2.22107">
        <ele>72.8</ele>
        <time>2026-03-20T14:51:38Z</time>
      </trkpt>
      <trkpt lat="48.50796" lon="2.22107">
        <ele>72.8</ele>
        <time>2026-03-20T14:51:39Z</time>
      </trkpt>
      <trkpt lat="48.50796" lon="2.22106">
        <ele>73</ele>
        <time>2026-03-20T14:51:40Z</time>
      </trkpt>
      <trkpt lat="48.50797" lon="2.22103">
        <ele>73</ele>
        <time>2026-03-20T14:51:41Z</time>
      </trkpt>
      <trkpt lat="48.50797" lon="2.221">
        <ele>73</ele>
        <time>2026-03-20T14:51:42Z</time>
      </trkpt>
      <trkpt lat="48.50798" lon="2.22097">
        <ele>72.6</ele>
        <time>2026-03-20T14:51:43Z</time>
      </trkpt>
      <trkpt lat="48.50799" lon="2.22094">
        <ele>73.2</ele>
        <time>2026-03-20T14:51:44Z</time>
      </trkpt>
      <trkpt lat="48.50801" lon="2.22092">
        <ele>73.2</ele>
        <time>2026-03-20T14:51:45Z</time>
      </trkpt>
      <trkpt lat="48.50802" lon="2.22089">
        <ele>73.2</ele>
        <time>2026-03-20T14:51:46Z</time>
      </trkpt>
      <trkpt lat="48.50804" lon="2.22086">
        <ele>72.4</ele>
        <time>2026-03-20T14:51:47Z</time>
      </trkpt>
      <trkpt lat="48.50806" lon="2.22084">
        <ele>72.6</ele>
        <time>2026-03-20T14:51:48Z</time>
      </trkpt>
      <trkpt lat="48.50808" lon="2.22081">
        <ele>72.6</ele>
        <time>2026-03-20T14:51:49Z</time>
      </trkpt>
      <trkpt lat="48.5081" lon="2.22079">
        <ele>72.6</ele>
        <time>2026-03-20T14:51:50Z</time>
      </trkpt>
      <trkpt lat="48.50813" lon="2.22078">
        <ele>72.4</ele>
        <time>2026-03-20T14:51:51Z</time>
      </trkpt>
      <trkpt lat="48.50815" lon="2.22078">
        <ele>72.8</ele>
        <time>2026-03-20T14:51:52Z</time>
      </trkpt>
      <trkpt lat="48.50817" lon="2.22075">
        <ele>72.8</ele>
        <time>2026-03-20T14:51:53Z</time>
      </trkpt>
      <trkpt lat="48.5082" lon="2.22073">
        <ele>72.8</ele>
        <time>2026-03-20T14:51:54Z</time>
      </trkpt>
      <trkpt lat="48.50822" lon="2.2207">
        <ele>71.8</ele>
        <time>2026-03-20T14:51:55Z</time>
      </trkpt>
      <trkpt lat="48.50825" lon="2.22068">
        <ele>72.4</ele>
        <time>2026-03-20T14:51:56Z</time>
      </trkpt>
      <trkpt lat="48.50827" lon="2.22066">
        <ele>72.4</ele>
        <time>2026-03-20T14:51:57Z</time>
      </trkpt>
      <trkpt lat="48.50829" lon="2.22064">
        <ele>72.4</ele>
        <time>2026-03-20T14:51:58Z</time>
      </trkpt>
      <trkpt lat="48.50832" lon="2.22063">
        <ele>72.4</ele>
        <time>2026-03-20T14:51:59Z</time>
      </trkpt>
      <trkpt lat="48.50834" lon="2.22062">
        <ele>72.2</ele>
        <time>2026-03-20T14:52:00Z</time>
      </trkpt>
      <trkpt lat="48.50836" lon="2.2206">
        <ele>72.2</ele>
        <time>2026-03-20T14:52:01Z</time>
      </trkpt>
      <trkpt lat="48.50838" lon="2.22058">
        <ele>72.2</ele>
        <time>2026-03-20T14:52:02Z</time>
      </trkpt>
      <trkpt lat="48.50841" lon="2.22056">
        <ele>72.2</ele>
        <time>2026-03-20T14:52:03Z</time>
      </trkpt>
      <trkpt lat="48.50843" lon="2.22053">
        <ele>72.4</ele>
        <time>2026-03-20T14:52:04Z</time>
      </trkpt>
      <trkpt lat="48.50845" lon="2.22051">
        <ele>72.4</ele>
        <time>2026-03-20T14:52:05Z</time>
      </trkpt>
      <trkpt lat="48.50846" lon="2.22048">
        <ele>72.4</ele>
        <time>2026-03-20T14:52:06Z</time>
      </trkpt>
      <trkpt lat="48.50847" lon="2.22044">
        <ele>72.8</ele>
        <time>2026-03-20T14:52:07Z</time>
      </trkpt>
      <trkpt lat="48.50849" lon="2.22041">
        <ele>72.6</ele>
        <time>2026-03-20T14:52:08Z</time>
      </trkpt>
      <trkpt lat="48.50851" lon="2.22038">
        <ele>72.6</ele>
        <time>2026-03-20T14:52:09Z</time>
      </trkpt>
      <trkpt lat="48.50852" lon="2.22035">
        <ele>72.6</ele>
        <time>2026-03-20T14:52:10Z</time>
      </trkpt>
      <trkpt lat="48.50854" lon="2.22032">
        <ele>72.4</ele>
        <time>2026-03-20T14:52:11Z</time>
      </trkpt>
      <trkpt lat="48.50856" lon="2.22029">
        <ele>72.2</ele>
        <time>2026-03-20T14:52:12Z</time>
      </trkpt>
      <trkpt lat="48.50857" lon="2.22026">
        <ele>72.2</ele>
        <time>2026-03-20T14:52:13Z</time>
      </trkpt>
      <trkpt lat="48.5086" lon="2.22023">
        <ele>72.2</ele>
        <time>2026-03-20T14:52:14Z</time>
      </trkpt>
      <trkpt lat="48.50862" lon="2.22021">
        <ele>72.2</ele>
        <time>2026-03-20T14:52:15Z</time>
      </trkpt>
      <trkpt lat="48.50863" lon="2.22018">
        <ele>73.2</ele>
        <time>2026-03-20T14:52:16Z</time>
      </trkpt>
      <trkpt lat="48.50866" lon="2.22016">
        <ele>73.2</ele>
        <time>2026-03-20T14:52:17Z</time>
      </trkpt>
      <trkpt lat="48.50868" lon="2.22014">
        <ele>73.2</ele>
        <time>2026-03-20T14:52:18Z</time>
      </trkpt>
      <trkpt lat="48.5087" lon="2.22012">
        <ele>72.4</ele>
        <time>2026-03-20T14:52:19Z</time>
      </trkpt>
      <trkpt lat="48.50872" lon="2.22009">
        <ele>72.8</ele>
        <time>2026-03-20T14:52:20Z</time>
      </trkpt>
      <trkpt lat="48.50874" lon="2.22006">
        <ele>72.8</ele>
        <time>2026-03-20T14:52:21Z</time>
      </trkpt>
      <trkpt lat="48.50876" lon="2.22003">
        <ele>72.8</ele>
        <time>2026-03-20T14:52:22Z</time>
      </trkpt>
      <trkpt lat="48.50878" lon="2.22">
        <ele>72.8</ele>
        <time>2026-03-20T14:52:23Z</time>
      </trkpt>
      <trkpt lat="48.50879" lon="2.21997">
        <ele>73</ele>
        <time>2026-03-20T14:52:24Z</time>
      </trkpt>
      <trkpt lat="48.50881" lon="2.21994">
        <ele>73</ele>
        <time>2026-03-20T14:52:25Z</time>
      </trkpt>
      <trkpt lat="48.50883" lon="2.21992">
        <ele>73</ele>
        <time>2026-03-20T14:52:26Z</time>
      </trkpt>
      <trkpt lat="48.50884" lon="2.2199">
        <ele>73</ele>
        <time>2026-03-20T14:52:27Z</time>
      </trkpt>
      <trkpt lat="48.50886" lon="2.21987">
        <ele>73.2</ele>
        <time>2026-03-20T14:52:28Z</time>
      </trkpt>
      <trkpt lat="48.50887" lon="2.21984">
        <ele>73.2</ele>
        <time>2026-03-20T14:52:29Z</time>
      </trkpt>
      <trkpt lat="48.50889" lon="2.21982">
        <ele>73.2</ele>
        <time>2026-03-20T14:52:30Z</time>
      </trkpt>
      <trkpt lat="48.5089" lon="2.2198">
        <ele>73.2</ele>
        <time>2026-03-20T14:52:31Z</time>
      </trkpt>
      <trkpt lat="48.50892" lon="2.21979">
        <ele>73</ele>
        <time>2026-03-20T14:52:32Z</time>
      </trkpt>
      <trkpt lat="48.50892" lon="2.21979">
        <ele>73</ele>
        <time>2026-03-20T14:52:33Z</time>
      </trkpt>
      <trkpt lat="48.50892" lon="2.21978">
        <ele>73</ele>
        <time>2026-03-20T14:52:34Z</time>
      </trkpt>
      <trkpt lat="48.50899" lon="2.21956">
        <ele>74.6</ele>
        <time>2026-03-20T14:54:50Z</time>
      </trkpt>
      <trkpt lat="48.509" lon="2.21955">
        <ele>74.4</ele>
        <time>2026-03-20T14:54:51Z</time>
      </trkpt>
      <trkpt lat="48.50901" lon="2.21952">
        <ele>74.6</ele>
        <time>2026-03-20T14:54:52Z</time>
      </trkpt>
      <trkpt lat="48.50901" lon="2.21949">
        <ele>74.6</ele>
        <time>2026-03-20T14:54:53Z</time>
      </trkpt>
      <trkpt lat="48.50903" lon="2.21947">
        <ele>74.6</ele>
        <time>2026-03-20T14:54:54Z</time>
      </trkpt>
      <trkpt lat="48.50904" lon="2.21944">
        <ele>74.6</ele>
        <time>2026-03-20T14:54:55Z</time>
      </trkpt>
      <trkpt lat="48.50906" lon="2.21941">
        <ele>74.8</ele>
        <time>2026-03-20T14:54:56Z</time>
      </trkpt>
      <trkpt lat="48.50907" lon="2.21938">
        <ele>74.8</ele>
        <time>2026-03-20T14:54:57Z</time>
      </trkpt>
      <trkpt lat="48.50909" lon="2.21935">
        <ele>74.8</ele>
        <time>2026-03-20T14:54:58Z</time>
      </trkpt>
      <trkpt lat="48.5091" lon="2.21933">
        <ele>74.2</ele>
        <time>2026-03-20T14:54:59Z</time>
      </trkpt>
      <trkpt lat="48.50912" lon="2.2193">
        <ele>74</ele>
        <time>2026-03-20T14:55:00Z</time>
      </trkpt>
      <trkpt lat="48.50915" lon="2.21928">
        <ele>74</ele>
        <time>2026-03-20T14:55:01Z</time>
      </trkpt>
      <trkpt lat="48.50917" lon="2.21926">
        <ele>74</ele>
        <time>2026-03-20T14:55:02Z</time>
      </trkpt>
      <trkpt lat="48.5092" lon="2.21924">
        <ele>74</ele>
        <time>2026-03-20T14:55:03Z</time>
      </trkpt>
      <trkpt lat="48.50922" lon="2.21922">
        <ele>74.4</ele>
        <time>2026-03-20T14:55:04Z</time>
      </trkpt>
      <trkpt lat="48.50924" lon="2.21919">
        <ele>74.4</ele>
        <time>2026-03-20T14:55:05Z</time>
      </trkpt>
      <trkpt lat="48.50927" lon="2.21916">
        <ele>74.4</ele>
        <time>2026-03-20T14:55:06Z</time>
      </trkpt>
      <trkpt lat="48.50929" lon="2.21914">
        <ele>73.8</ele>
        <time>2026-03-20T14:55:07Z</time>
      </trkpt>
      <trkpt lat="48.50931" lon="2.21912">
        <ele>73.8</ele>
        <time>2026-03-20T14:55:08Z</time>
      </trkpt>
      <trkpt lat="48.50934" lon="2.21911">
        <ele>73.8</ele>
        <time>2026-03-20T14:55:09Z</time>
      </trkpt>
      <trkpt lat="48.50936" lon="2.21911">
        <ele>73.8</ele>
        <time>2026-03-20T14:55:10Z</time>
      </trkpt>
      <trkpt lat="48.50939" lon="2.21911">
        <ele>74</ele>
        <time>2026-03-20T14:55:11Z</time>
      </trkpt>
      <trkpt lat="48.50942" lon="2.21911">
        <ele>74</ele>
        <time>2026-03-20T14:55:12Z</time>
      </trkpt>
      <trkpt lat="48.50944" lon="2.2191">
        <ele>74</ele>
        <time>2026-03-20T14:55:13Z</time>
      </trkpt>
      <trkpt lat="48.50947" lon="2.21909">
        <ele>74</ele>
        <time>2026-03-20T14:55:14Z</time>
      </trkpt>
      <trkpt lat="48.5095" lon="2.21909">
        <ele>74</ele>
        <time>2026-03-20T14:55:15Z</time>
      </trkpt>
      <trkpt lat="48.50953" lon="2.21909">
        <ele>74.2</ele>
        <time>2026-03-20T14:55:16Z</time>
      </trkpt>
      <trkpt lat="48.50956" lon="2.21908">
        <ele>74.2</ele>
        <time>2026-03-20T14:55:17Z</time>
      </trkpt>
      <trkpt lat="48.5096" lon="2.21908">
        <ele>74.2</ele>
        <time>2026-03-20T14:55:18Z</time>
      </trkpt>
      <trkpt lat="48.50963" lon="2.21907">
        <ele>74.2</ele>
        <time>2026-03-20T14:55:19Z</time>
      </trkpt>
      <trkpt lat="48.50966" lon="2.21907">
        <ele>74.6</ele>
        <time>2026-03-20T14:55:20Z</time>
      </trkpt>
      <trkpt lat="48.50969" lon="2.21907">
        <ele>74.6</ele>
        <time>2026-03-20T14:55:21Z</time>
      </trkpt>
      <trkpt lat="48.50972" lon="2.21906">
        <ele>74.6</ele>
        <time>2026-03-20T14:55:22Z</time>
      </trkpt>
      <trkpt lat="48.50975" lon="2.21906">
        <ele>74.6</ele>
        <time>2026-03-20T14:55:23Z</time>
      </trkpt>
      <trkpt lat="48.50978" lon="2.21905">
        <ele>74.8</ele>
        <time>2026-03-20T14:55:24Z</time>
      </trkpt>
      <trkpt lat="48.50981" lon="2.21904">
        <ele>74.8</ele>
        <time>2026-03-20T14:55:25Z</time>
      </trkpt>
      <trkpt lat="48.50984" lon="2.21904">
        <ele>74.8</ele>
        <time>2026-03-20T14:55:26Z</time>
      </trkpt>
      <trkpt lat="48.50987" lon="2.21903">
        <ele>74.8</ele>
        <time>2026-03-20T14:55:27Z</time>
      </trkpt>
      <trkpt lat="48.5099" lon="2.21902">
        <ele>74.6</ele>
        <time>2026-03-20T14:55:28Z</time>
      </trkpt>
      <trkpt lat="48.50993" lon="2.21901">
        <ele>74.6</ele>
        <time>2026-03-20T14:55:29Z</time>
      </trkpt>
      <trkpt lat="48.50996" lon="2.219">
        <ele>74.6</ele>
        <time>2026-03-20T14:55:30Z</time>
      </trkpt>
      <trkpt lat="48.50999" lon="2.21899">
        <ele>75</ele>
        <time>2026-03-20T14:55:31Z</time>
      </trkpt>
      <trkpt lat="48.51002" lon="2.21899">
        <ele>74.8</ele>
        <time>2026-03-20T14:55:32Z</time>
      </trkpt>
      <trkpt lat="48.51005" lon="2.21898">
        <ele>74.8</ele>
        <time>2026-03-20T14:55:33Z</time>
      </trkpt>
      <trkpt lat="48.51008" lon="2.21898">
        <ele>74.8</ele>
        <time>2026-03-20T14:55:34Z</time>
      </trkpt>
      <trkpt lat="48.5101" lon="2.21897">
        <ele>75.2</ele>
        <time>2026-03-20T14:55:35Z</time>
      </trkpt>
      <trkpt lat="48.51013" lon="2.21896">
        <ele>75.2</ele>
        <time>2026-03-20T14:55:36Z</time>
      </trkpt>
      <trkpt lat="48.51015" lon="2.21896">
        <ele>75.2</ele>
        <time>2026-03-20T14:55:37Z</time>
      </trkpt>
      <trkpt lat="48.51018" lon="2.21895">
        <ele>75.2</ele>
        <time>2026-03-20T14:55:38Z</time>
      </trkpt>
      <trkpt lat="48.5102" lon="2.21894">
        <ele>75.2</ele>
        <time>2026-03-20T14:55:39Z</time>
      </trkpt>
      <trkpt lat="48.51023" lon="2.21892">
        <ele>75.4</ele>
        <time>2026-03-20T14:55:40Z</time>
      </trkpt>
      <trkpt lat="48.51025" lon="2.21891">
        <ele>75.4</ele>
        <time>2026-03-20T14:55:41Z</time>
      </trkpt>
      <trkpt lat="48.51027" lon="2.2189">
        <ele>75.4</ele>
        <time>2026-03-20T14:55:42Z</time>
      </trkpt>
      <trkpt lat="48.5103" lon="2.21887">
        <ele>75.4</ele>
        <time>2026-03-20T14:55:43Z</time>
      </trkpt>
      <trkpt lat="48.51031" lon="2.21886">
        <ele>76</ele>
        <time>2026-03-20T14:55:44Z</time>
      </trkpt>
      <trkpt lat="48.51034" lon="2.21884">
        <ele>76</ele>
        <time>2026-03-20T14:55:45Z</time>
      </trkpt>
      <trkpt lat="48.51036" lon="2.21883">
        <ele>76</ele>
        <time>2026-03-20T14:55:46Z</time>
      </trkpt>
      <trkpt lat="48.51038" lon="2.21882">
        <ele>76</ele>
        <time>2026-03-20T14:55:47Z</time>
      </trkpt>
      <trkpt lat="48.51041" lon="2.2188">
        <ele>76.4</ele>
        <time>2026-03-20T14:55:48Z</time>
      </trkpt>
      <trkpt lat="48.51042" lon="2.21879">
        <ele>76.4</ele>
        <time>2026-03-20T14:55:49Z</time>
      </trkpt>
      <trkpt lat="48.51044" lon="2.21877">
        <ele>76.4</ele>
        <time>2026-03-20T14:55:50Z</time>
      </trkpt>
      <trkpt lat="48.51046" lon="2.21875">
        <ele>76.8</ele>
        <time>2026-03-20T14:55:51Z</time>
      </trkpt>
      <trkpt lat="48.51048" lon="2.21872">
        <ele>77.2</ele>
        <time>2026-03-20T14:55:52Z</time>
      </trkpt>
      <trkpt lat="48.5105" lon="2.21871">
        <ele>77.2</ele>
        <time>2026-03-20T14:55:53Z</time>
      </trkpt>
      <trkpt lat="48.51051" lon="2.2187">
        <ele>77.2</ele>
        <time>2026-03-20T14:55:54Z</time>
      </trkpt>
      <trkpt lat="48.51053" lon="2.21868">
        <ele>77</ele>
        <time>2026-03-20T14:55:55Z</time>
      </trkpt>
      <trkpt lat="48.51055" lon="2.21867">
        <ele>76.8</ele>
        <time>2026-03-20T14:55:56Z</time>
      </trkpt>
      <trkpt lat="48.51056" lon="2.21865">
        <ele>76.8</ele>
        <time>2026-03-20T14:55:57Z</time>
      </trkpt>
      <trkpt lat="48.51058" lon="2.21864">
        <ele>76.8</ele>
        <time>2026-03-20T14:55:58Z</time>
      </trkpt>
      <trkpt lat="48.5106" lon="2.21862">
        <ele>77.2</ele>
        <time>2026-03-20T14:55:59Z</time>
      </trkpt>
      <trkpt lat="48.51062" lon="2.21861">
        <ele>77.4</ele>
        <time>2026-03-20T14:56:00Z</time>
      </trkpt>
      <trkpt lat="48.51064" lon="2.21859">
        <ele>77.4</ele>
        <time>2026-03-20T14:56:01Z</time>
      </trkpt>
      <trkpt lat="48.51066" lon="2.21858">
        <ele>77.4</ele>
        <time>2026-03-20T14:56:02Z</time>
      </trkpt>
      <trkpt lat="48.51067" lon="2.21857">
        <ele>77.8</ele>
        <time>2026-03-20T14:56:03Z</time>
      </trkpt>
      <trkpt lat="48.51069" lon="2.21856">
        <ele>77.8</ele>
        <time>2026-03-20T14:56:04Z</time>
      </trkpt>
      <trkpt lat="48.51071" lon="2.21854">
        <ele>77.8</ele>
        <time>2026-03-20T14:56:05Z</time>
      </trkpt>
      <trkpt lat="48.51073" lon="2.21853">
        <ele>77.8</ele>
        <time>2026-03-20T14:56:06Z</time>
      </trkpt>
      <trkpt lat="48.51074" lon="2.21851">
        <ele>77.8</ele>
        <time>2026-03-20T14:56:07Z</time>
      </trkpt>
      <trkpt lat="48.51076" lon="2.2185">
        <ele>78</ele>
        <time>2026-03-20T14:56:08Z</time>
      </trkpt>
      <trkpt lat="48.51077" lon="2.21849">
        <ele>78</ele>
        <time>2026-03-20T14:56:09Z</time>
      </trkpt>
      <trkpt lat="48.51079" lon="2.21847">
        <ele>78</ele>
        <time>2026-03-20T14:56:10Z</time>
      </trkpt>
      <trkpt lat="48.51081" lon="2.21846">
        <ele>78</ele>
        <time>2026-03-20T14:56:11Z</time>
      </trkpt>
      <trkpt lat="48.51082" lon="2.21844">
        <ele>78.2</ele>
        <time>2026-03-20T14:56:12Z</time>
      </trkpt>
      <trkpt lat="48.51084" lon="2.21843">
        <ele>78.2</ele>
        <time>2026-03-20T14:56:13Z</time>
      </trkpt>
      <trkpt lat="48.51086" lon="2.21841">
        <ele>78.2</ele>
        <time>2026-03-20T14:56:14Z</time>
      </trkpt>
      <trkpt lat="48.51088" lon="2.2184">
        <ele>78.4</ele>
        <time>2026-03-20T14:56:15Z</time>
      </trkpt>
      <trkpt lat="48.5109" lon="2.21838">
        <ele>78.6</ele>
        <time>2026-03-20T14:56:16Z</time>
      </trkpt>
      <trkpt lat="48.51092" lon="2.21836">
        <ele>78.6</ele>
        <time>2026-03-20T14:56:17Z</time>
      </trkpt>
      <trkpt lat="48.51093" lon="2.21834">
        <ele>78.6</ele>
        <time>2026-03-20T14:56:18Z</time>
      </trkpt>
      <trkpt lat="48.51095" lon="2.21833">
        <ele>78.6</ele>
        <time>2026-03-20T14:56:19Z</time>
      </trkpt>
      <trkpt lat="48.51097" lon="2.21831">
        <ele>79</ele>
        <time>2026-03-20T14:56:20Z</time>
      </trkpt>
      <trkpt lat="48.51099" lon="2.21829">
        <ele>79</ele>
        <time>2026-03-20T14:56:21Z</time>
      </trkpt>
      <trkpt lat="48.511" lon="2.21827">
        <ele>79</ele>
        <time>2026-03-20T14:56:22Z</time>
      </trkpt>
      <trkpt lat="48.51102" lon="2.21825">
        <ele>79.4</ele>
        <time>2026-03-20T14:56:23Z</time>
      </trkpt>
      <trkpt lat="48.51104" lon="2.21823">
        <ele>79.4</ele>
        <time>2026-03-20T14:56:24Z</time>
      </trkpt>
      <trkpt lat="48.51106" lon="2.21821">
        <ele>79.4</ele>
        <time>2026-03-20T14:56:25Z</time>
      </trkpt>
      <trkpt lat="48.51107" lon="2.2182">
        <ele>79.4</ele>
        <time>2026-03-20T14:56:26Z</time>
      </trkpt>
      <trkpt lat="48.51108" lon="2.21818">
        <ele>79.4</ele>
        <time>2026-03-20T14:56:27Z</time>
      </trkpt>
      <trkpt lat="48.5111" lon="2.21816">
        <ele>80</ele>
        <time>2026-03-20T14:56:28Z</time>
      </trkpt>
      <trkpt lat="48.51111" lon="2.21814">
        <ele>80</ele>
        <time>2026-03-20T14:56:29Z</time>
      </trkpt>
      <trkpt lat="48.51113" lon="2.21811">
        <ele>80</ele>
        <time>2026-03-20T14:56:30Z</time>
      </trkpt>
      <trkpt lat="48.51115" lon="2.21809">
        <ele>80</ele>
        <time>2026-03-20T14:56:31Z</time>
      </trkpt>
      <trkpt lat="48.51116" lon="2.21807">
        <ele>80.4</ele>
        <time>2026-03-20T14:56:32Z</time>
      </trkpt>
      <trkpt lat="48.51118" lon="2.21805">
        <ele>80.4</ele>
        <time>2026-03-20T14:56:33Z</time>
      </trkpt>
      <trkpt lat="48.51119" lon="2.21802">
        <ele>80.4</ele>
        <time>2026-03-20T14:56:34Z</time>
      </trkpt>
      <trkpt lat="48.51121" lon="2.21799">
        <ele>81.4</ele>
        <time>2026-03-20T14:56:35Z</time>
      </trkpt>
      <trkpt lat="48.51122" lon="2.21797">
        <ele>81.4</ele>
        <time>2026-03-20T14:56:36Z</time>
      </trkpt>
      <trkpt lat="48.51123" lon="2.21795">
        <ele>81.4</ele>
        <time>2026-03-20T14:56:37Z</time>
      </trkpt>
      <trkpt lat="48.51125" lon="2.21793">
        <ele>81.4</ele>
        <time>2026-03-20T14:56:38Z</time>
      </trkpt>
      <trkpt lat="48.51126" lon="2.2179">
        <ele>81.4</ele>
        <time>2026-03-20T14:56:39Z</time>
      </trkpt>
      <trkpt lat="48.51128" lon="2.21788">
        <ele>82</ele>
        <time>2026-03-20T14:56:40Z</time>
      </trkpt>
      <trkpt lat="48.51129" lon="2.21785">
        <ele>82</ele>
        <time>2026-03-20T14:56:41Z</time>
      </trkpt>
      <trkpt lat="48.51131" lon="2.21783">
        <ele>82</ele>
        <time>2026-03-20T14:56:42Z</time>
      </trkpt>
      <trkpt lat="48.51132" lon="2.2178">
        <ele>82</ele>
        <time>2026-03-20T14:56:43Z</time>
      </trkpt>
      <trkpt lat="48.51133" lon="2.21778">
        <ele>82.4</ele>
        <time>2026-03-20T14:56:44Z</time>
      </trkpt>
      <trkpt lat="48.51135" lon="2.21775">
        <ele>82.4</ele>
        <time>2026-03-20T14:56:45Z</time>
      </trkpt>
      <trkpt lat="48.51137" lon="2.21773">
        <ele>82.4</ele>
        <time>2026-03-20T14:56:46Z</time>
      </trkpt>
      <trkpt lat="48.51138" lon="2.21772">
        <ele>83</ele>
        <time>2026-03-20T14:56:47Z</time>
      </trkpt>
      <trkpt lat="48.51139" lon="2.2177">
        <ele>83.2</ele>
        <time>2026-03-20T14:56:48Z</time>
      </trkpt>
      <trkpt lat="48.5114" lon="2.21767">
        <ele>83.2</ele>
        <time>2026-03-20T14:56:49Z</time>
      </trkpt>
      <trkpt lat="48.51142" lon="2.21765">
        <ele>83.2</ele>
        <time>2026-03-20T14:56:50Z</time>
      </trkpt>
      <trkpt lat="48.51143" lon="2.21762">
        <ele>83.6</ele>
        <time>2026-03-20T14:56:51Z</time>
      </trkpt>
      <trkpt lat="48.51144" lon="2.2176">
        <ele>83.6</ele>
        <time>2026-03-20T14:56:52Z</time>
      </trkpt>
      <trkpt lat="48.51145" lon="2.21758">
        <ele>83.6</ele>
        <time>2026-03-20T14:56:53Z</time>
      </trkpt>
      <trkpt lat="48.51146" lon="2.21755">
        <ele>83.6</ele>
        <time>2026-03-20T14:56:54Z</time>
      </trkpt>
      <trkpt lat="48.51148" lon="2.21751">
        <ele>84.4</ele>
        <time>2026-03-20T14:56:55Z</time>
      </trkpt>
      <trkpt lat="48.51149" lon="2.21748">
        <ele>84.6</ele>
        <time>2026-03-20T14:56:56Z</time>
      </trkpt>
      <trkpt lat="48.51151" lon="2.21746">
        <ele>84.6</ele>
        <time>2026-03-20T14:56:57Z</time>
      </trkpt>
      <trkpt lat="48.51153" lon="2.21743">
        <ele>84.6</ele>
        <time>2026-03-20T14:56:58Z</time>
      </trkpt>
      <trkpt lat="48.51154" lon="2.21741">
        <ele>85</ele>
        <time>2026-03-20T14:56:59Z</time>
      </trkpt>
      <trkpt lat="48.51156" lon="2.21739">
        <ele>85.2</ele>
        <time>2026-03-20T14:57:00Z</time>
      </trkpt>
      <trkpt lat="48.51158" lon="2.21738">
        <ele>85.2</ele>
        <time>2026-03-20T14:57:01Z</time>
      </trkpt>
      <trkpt lat="48.51159" lon="2.21737">
        <ele>85.2</ele>
        <time>2026-03-20T14:57:02Z</time>
      </trkpt>
      <trkpt lat="48.51161" lon="2.21735">
        <ele>85.2</ele>
        <time>2026-03-20T14:57:03Z</time>
      </trkpt>
      <trkpt lat="48.51162" lon="2.21733">
        <ele>85.2</ele>
        <time>2026-03-20T14:57:04Z</time>
      </trkpt>
      <trkpt lat="48.51164" lon="2.21732">
        <ele>85.2</ele>
        <time>2026-03-20T14:57:05Z</time>
      </trkpt>
      <trkpt lat="48.51166" lon="2.21731">
        <ele>85.2</ele>
        <time>2026-03-20T14:57:06Z</time>
      </trkpt>
      <trkpt lat="48.51168" lon="2.2173">
        <ele>85.6</ele>
        <time>2026-03-20T14:57:07Z</time>
      </trkpt>
      <trkpt lat="48.5117" lon="2.2173">
        <ele>85.8</ele>
        <time>2026-03-20T14:57:08Z</time>
      </trkpt>
      <trkpt lat="48.51172" lon="2.2173">
        <ele>85.8</ele>
        <time>2026-03-20T14:57:09Z</time>
      </trkpt>
      <trkpt lat="48.51174" lon="2.21729">
        <ele>85.8</ele>
        <time>2026-03-20T14:57:10Z</time>
      </trkpt>
      <trkpt lat="48.51176" lon="2.21728">
        <ele>85.8</ele>
        <time>2026-03-20T14:57:11Z</time>
      </trkpt>
      <trkpt lat="48.51178" lon="2.21729">
        <ele>86.2</ele>
        <time>2026-03-20T14:57:12Z</time>
      </trkpt>
      <trkpt lat="48.5118" lon="2.2173">
        <ele>86.2</ele>
        <time>2026-03-20T14:57:13Z</time>
      </trkpt>
      <trkpt lat="48.51182" lon="2.2173">
        <ele>86.2</ele>
        <time>2026-03-20T14:57:14Z</time>
      </trkpt>
      <trkpt lat="48.51184" lon="2.21731">
        <ele>86.2</ele>
        <time>2026-03-20T14:57:15Z</time>
      </trkpt>
      <trkpt lat="48.51186" lon="2.21732">
        <ele>85.8</ele>
        <time>2026-03-20T14:57:16Z</time>
      </trkpt>
      <trkpt lat="48.51187" lon="2.21732">
        <ele>85.8</ele>
        <time>2026-03-20T14:57:17Z</time>
      </trkpt>
      <trkpt lat="48.51189" lon="2.21734">
        <ele>85.8</ele>
        <time>2026-03-20T14:57:18Z</time>
      </trkpt>
      <trkpt lat="48.5119" lon="2.21735">
        <ele>85.8</ele>
        <time>2026-03-20T14:57:19Z</time>
      </trkpt>
      <trkpt lat="48.51191" lon="2.21737">
        <ele>85.8</ele>
        <time>2026-03-20T14:57:20Z</time>
      </trkpt>
      <trkpt lat="48.51192" lon="2.21739">
        <ele>86</ele>
        <time>2026-03-20T14:57:21Z</time>
      </trkpt>
      <trkpt lat="48.51193" lon="2.21741">
        <ele>86</ele>
        <time>2026-03-20T14:57:22Z</time>
      </trkpt>
      <trkpt lat="48.51195" lon="2.21743">
        <ele>86</ele>
        <time>2026-03-20T14:57:23Z</time>
      </trkpt>
      <trkpt lat="48.51196" lon="2.21744">
        <ele>85.4</ele>
        <time>2026-03-20T14:57:24Z</time>
      </trkpt>
      <trkpt lat="48.51197" lon="2.21747">
        <ele>85.4</ele>
        <time>2026-03-20T14:57:25Z</time>
      </trkpt>
      <trkpt lat="48.51198" lon="2.21748">
        <ele>85.4</ele>
        <time>2026-03-20T14:57:26Z</time>
      </trkpt>
      <trkpt lat="48.512" lon="2.2175">
        <ele>85.4</ele>
        <time>2026-03-20T14:57:27Z</time>
      </trkpt>
      <trkpt lat="48.51201" lon="2.21752">
        <ele>85.2</ele>
        <time>2026-03-20T14:57:28Z</time>
      </trkpt>
      <trkpt lat="48.51203" lon="2.21755">
        <ele>85.2</ele>
        <time>2026-03-20T14:57:29Z</time>
      </trkpt>
      <trkpt lat="48.51204" lon="2.21757">
        <ele>85.2</ele>
        <time>2026-03-20T14:57:30Z</time>
      </trkpt>
      <trkpt lat="48.51206" lon="2.2176">
        <ele>85.2</ele>
        <time>2026-03-20T14:57:31Z</time>
      </trkpt>
      <trkpt lat="48.51208" lon="2.21762">
        <ele>84.4</ele>
        <time>2026-03-20T14:57:32Z</time>
      </trkpt>
      <trkpt lat="48.5121" lon="2.21765">
        <ele>84.4</ele>
        <time>2026-03-20T14:57:33Z</time>
      </trkpt>
      <trkpt lat="48.51211" lon="2.21768">
        <ele>84.4</ele>
        <time>2026-03-20T14:57:34Z</time>
      </trkpt>
      <trkpt lat="48.51213" lon="2.2177">
        <ele>84.4</ele>
        <time>2026-03-20T14:57:35Z</time>
      </trkpt>
      <trkpt lat="48.51215" lon="2.21773">
        <ele>84.2</ele>
        <time>2026-03-20T14:57:36Z</time>
      </trkpt>
      <trkpt lat="48.51217" lon="2.21776">
        <ele>84.2</ele>
        <time>2026-03-20T14:57:37Z</time>
      </trkpt>
      <trkpt lat="48.51219" lon="2.21779">
        <ele>84.2</ele>
        <time>2026-03-20T14:57:38Z</time>
      </trkpt>
      <trkpt lat="48.51221" lon="2.21781">
        <ele>84.2</ele>
        <time>2026-03-20T14:57:39Z</time>
      </trkpt>
      <trkpt lat="48.51223" lon="2.21784">
        <ele>84.2</ele>
        <time>2026-03-20T14:57:40Z</time>
      </trkpt>
      <trkpt lat="48.51225" lon="2.21786">
        <ele>84.2</ele>
        <time>2026-03-20T14:57:41Z</time>
      </trkpt>
      <trkpt lat="48.51226" lon="2.21788">
        <ele>84.2</ele>
        <time>2026-03-20T14:57:42Z</time>
      </trkpt>
      <trkpt lat="48.51228" lon="2.21791">
        <ele>84.2</ele>
        <time>2026-03-20T14:57:43Z</time>
      </trkpt>
      <trkpt lat="48.5123" lon="2.21794">
        <ele>84</ele>
        <time>2026-03-20T14:57:44Z</time>
      </trkpt>
      <trkpt lat="48.51232" lon="2.21796">
        <ele>84</ele>
        <time>2026-03-20T14:57:45Z</time>
      </trkpt>
      <trkpt lat="48.51234" lon="2.21798">
        <ele>84</ele>
        <time>2026-03-20T14:57:46Z</time>
      </trkpt>
      <trkpt lat="48.51236" lon="2.218">
        <ele>84</ele>
        <time>2026-03-20T14:57:47Z</time>
      </trkpt>
      <trkpt lat="48.51239" lon="2.21803">
        <ele>83.4</ele>
        <time>2026-03-20T14:57:48Z</time>
      </trkpt>
      <trkpt lat="48.51241" lon="2.21805">
        <ele>83.4</ele>
        <time>2026-03-20T14:57:49Z</time>
      </trkpt>
      <trkpt lat="48.51243" lon="2.21808">
        <ele>83.4</ele>
        <time>2026-03-20T14:57:50Z</time>
      </trkpt>
      <trkpt lat="48.51244" lon="2.2181">
        <ele>83.4</ele>
        <time>2026-03-20T14:57:51Z</time>
      </trkpt>
      <trkpt lat="48.51245" lon="2.21813">
        <ele>83.2</ele>
        <time>2026-03-20T14:57:52Z</time>
      </trkpt>
      <trkpt lat="48.51246" lon="2.21815">
        <ele>83.2</ele>
        <time>2026-03-20T14:57:53Z</time>
      </trkpt>
      <trkpt lat="48.51248" lon="2.21818">
        <ele>83.2</ele>
        <time>2026-03-20T14:57:54Z</time>
      </trkpt>
      <trkpt lat="48.51251" lon="2.21821">
        <ele>82.6</ele>
        <time>2026-03-20T14:57:55Z</time>
      </trkpt>
      <trkpt lat="48.51252" lon="2.21823">
        <ele>83.2</ele>
        <time>2026-03-20T14:57:56Z</time>
      </trkpt>
      <trkpt lat="48.51255" lon="2.21826">
        <ele>83.2</ele>
        <time>2026-03-20T14:57:57Z</time>
      </trkpt>
      <trkpt lat="48.51257" lon="2.21829">
        <ele>83.2</ele>
        <time>2026-03-20T14:57:58Z</time>
      </trkpt>
      <trkpt lat="48.51258" lon="2.21831">
        <ele>82.4</ele>
        <time>2026-03-20T14:57:59Z</time>
      </trkpt>
      <trkpt lat="48.5126" lon="2.21834">
        <ele>82.4</ele>
        <time>2026-03-20T14:58:00Z</time>
      </trkpt>
      <trkpt lat="48.51262" lon="2.21836">
        <ele>82.4</ele>
        <time>2026-03-20T14:58:01Z</time>
      </trkpt>
      <trkpt lat="48.51263" lon="2.21838">
        <ele>82.4</ele>
        <time>2026-03-20T14:58:02Z</time>
      </trkpt>
      <trkpt lat="48.51265" lon="2.2184">
        <ele>83.2</ele>
        <time>2026-03-20T14:58:03Z</time>
      </trkpt>
      <trkpt lat="48.51268" lon="2.21843">
        <ele>83</ele>
        <time>2026-03-20T14:58:04Z</time>
      </trkpt>
      <trkpt lat="48.51271" lon="2.21846">
        <ele>83</ele>
        <time>2026-03-20T14:58:05Z</time>
      </trkpt>
      <trkpt lat="48.51274" lon="2.21848">
        <ele>83</ele>
        <time>2026-03-20T14:58:06Z</time>
      </trkpt>
      <trkpt lat="48.51277" lon="2.2185">
        <ele>82.8</ele>
        <time>2026-03-20T14:58:07Z</time>
      </trkpt>
      <trkpt lat="48.51278" lon="2.2185">
        <ele>83</ele>
        <time>2026-03-20T14:58:08Z</time>
      </trkpt>
      <trkpt lat="48.5128" lon="2.21851">
        <ele>83</ele>
        <time>2026-03-20T14:58:09Z</time>
      </trkpt>
      <trkpt lat="48.51283" lon="2.21853">
        <ele>83</ele>
        <time>2026-03-20T14:58:10Z</time>
      </trkpt>
      <trkpt lat="48.51285" lon="2.21854">
        <ele>83.4</ele>
        <time>2026-03-20T14:58:11Z</time>
      </trkpt>
      <trkpt lat="48.51287" lon="2.21856">
        <ele>83.4</ele>
        <time>2026-03-20T14:58:12Z</time>
      </trkpt>
      <trkpt lat="48.51291" lon="2.21857">
        <ele>83.4</ele>
        <time>2026-03-20T14:58:13Z</time>
      </trkpt>
      <trkpt lat="48.51294" lon="2.21857">
        <ele>83.4</ele>
        <time>2026-03-20T14:58:14Z</time>
      </trkpt>
      <trkpt lat="48.51296" lon="2.21858">
        <ele>83.6</ele>
        <time>2026-03-20T14:58:15Z</time>
      </trkpt>
      <trkpt lat="48.51299" lon="2.21859">
        <ele>84</ele>
        <time>2026-03-20T14:58:16Z</time>
      </trkpt>
      <trkpt lat="48.51302" lon="2.21858">
        <ele>84</ele>
        <time>2026-03-20T14:58:17Z</time>
      </trkpt>
      <trkpt lat="48.51305" lon="2.21859">
        <ele>84</ele>
        <time>2026-03-20T14:58:18Z</time>
      </trkpt>
      <trkpt lat="48.51308" lon="2.21859">
        <ele>84</ele>
        <time>2026-03-20T14:58:19Z</time>
      </trkpt>
      <trkpt lat="48.51311" lon="2.2186">
        <ele>84.4</ele>
        <time>2026-03-20T14:58:20Z</time>
      </trkpt>
      <trkpt lat="48.51314" lon="2.21859">
        <ele>84.4</ele>
        <time>2026-03-20T14:58:21Z</time>
      </trkpt>
      <trkpt lat="48.51318" lon="2.2186">
        <ele>84.4</ele>
        <time>2026-03-20T14:58:22Z</time>
      </trkpt>
      <trkpt lat="48.51321" lon="2.21861">
        <ele>85.2</ele>
        <time>2026-03-20T14:58:23Z</time>
      </trkpt>
      <trkpt lat="48.51323" lon="2.21861">
        <ele>85.4</ele>
        <time>2026-03-20T14:58:24Z</time>
      </trkpt>
      <trkpt lat="48.51325" lon="2.21861">
        <ele>85.4</ele>
        <time>2026-03-20T14:58:25Z</time>
      </trkpt>
      <trkpt lat="48.51328" lon="2.21862">
        <ele>85.4</ele>
        <time>2026-03-20T14:58:26Z</time>
      </trkpt>
      <trkpt lat="48.5133" lon="2.21863">
        <ele>85.4</ele>
        <time>2026-03-20T14:58:27Z</time>
      </trkpt>
      <trkpt lat="48.51331" lon="2.21866">
        <ele>85.2</ele>
        <time>2026-03-20T14:58:28Z</time>
      </trkpt>
      <trkpt lat="48.51332" lon="2.21869">
        <ele>85.2</ele>
        <time>2026-03-20T14:58:29Z</time>
      </trkpt>
      <trkpt lat="48.51332" lon="2.21872">
        <ele>85.2</ele>
        <time>2026-03-20T14:58:30Z</time>
      </trkpt>
      <trkpt lat="48.51332" lon="2.21876">
        <ele>84.2</ele>
        <time>2026-03-20T14:58:31Z</time>
      </trkpt>
      <trkpt lat="48.51332" lon="2.2188">
        <ele>83.4</ele>
        <time>2026-03-20T14:58:32Z</time>
      </trkpt>
      <trkpt lat="48.51332" lon="2.21883">
        <ele>83.4</ele>
        <time>2026-03-20T14:58:33Z</time>
      </trkpt>
      <trkpt lat="48.51333" lon="2.21888">
        <ele>83.4</ele>
        <time>2026-03-20T14:58:34Z</time>
      </trkpt>
      <trkpt lat="48.51334" lon="2.21893">
        <ele>82.8</ele>
        <time>2026-03-20T14:58:35Z</time>
      </trkpt>
      <trkpt lat="48.51335" lon="2.21899">
        <ele>82.4</ele>
        <time>2026-03-20T14:58:36Z</time>
      </trkpt>
      <trkpt lat="48.51336" lon="2.21906">
        <ele>82.4</ele>
        <time>2026-03-20T14:58:37Z</time>
      </trkpt>
      <trkpt lat="48.51337" lon="2.21912">
        <ele>82.4</ele>
        <time>2026-03-20T14:58:38Z</time>
      </trkpt>
      <trkpt lat="48.51339" lon="2.21918">
        <ele>82.4</ele>
        <time>2026-03-20T14:58:39Z</time>
      </trkpt>
      <trkpt lat="48.5134" lon="2.21924">
        <ele>81.8</ele>
        <time>2026-03-20T14:58:40Z</time>
      </trkpt>
      <trkpt lat="48.51341" lon="2.21931">
        <ele>81.8</ele>
        <time>2026-03-20T14:58:41Z</time>
      </trkpt>
      <trkpt lat="48.51343" lon="2.21937">
        <ele>81.8</ele>
        <time>2026-03-20T14:58:42Z</time>
      </trkpt>
      <trkpt lat="48.51345" lon="2.21943">
        <ele>81.8</ele>
        <time>2026-03-20T14:58:43Z</time>
      </trkpt>
      <trkpt lat="48.51347" lon="2.21949">
        <ele>81.8</ele>
        <time>2026-03-20T14:58:44Z</time>
      </trkpt>
      <trkpt lat="48.51349" lon="2.21955">
        <ele>81.8</ele>
        <time>2026-03-20T14:58:45Z</time>
      </trkpt>
      <trkpt lat="48.5135" lon="2.2196">
        <ele>81.8</ele>
        <time>2026-03-20T14:58:46Z</time>
      </trkpt>
      <trkpt lat="48.51352" lon="2.21964">
        <ele>81.8</ele>
        <time>2026-03-20T14:58:47Z</time>
      </trkpt>
      <trkpt lat="48.51354" lon="2.21968">
        <ele>81.2</ele>
        <time>2026-03-20T14:58:48Z</time>
      </trkpt>
      <trkpt lat="48.51355" lon="2.21972">
        <ele>81.2</ele>
        <time>2026-03-20T14:58:49Z</time>
      </trkpt>
      <trkpt lat="48.51356" lon="2.21976">
        <ele>81.2</ele>
        <time>2026-03-20T14:58:50Z</time>
      </trkpt>
      <trkpt lat="48.51357" lon="2.2198">
        <ele>80.6</ele>
        <time>2026-03-20T14:58:51Z</time>
      </trkpt>
      <trkpt lat="48.51358" lon="2.21985">
        <ele>79.8</ele>
        <time>2026-03-20T14:58:52Z</time>
      </trkpt>
      <trkpt lat="48.51359" lon="2.21989">
        <ele>79.8</ele>
        <time>2026-03-20T14:58:53Z</time>
      </trkpt>
      <trkpt lat="48.5136" lon="2.21992">
        <ele>79.8</ele>
        <time>2026-03-20T14:58:54Z</time>
      </trkpt>
      <trkpt lat="48.5136" lon="2.21997">
        <ele>79.2</ele>
        <time>2026-03-20T14:58:55Z</time>
      </trkpt>
      <trkpt lat="48.51361" lon="2.22001">
        <ele>78.8</ele>
        <time>2026-03-20T14:58:56Z</time>
      </trkpt>
      <trkpt lat="48.51362" lon="2.22005">
        <ele>78.8</ele>
        <time>2026-03-20T14:58:57Z</time>
      </trkpt>
      <trkpt lat="48.51362" lon="2.22009">
        <ele>78.8</ele>
        <time>2026-03-20T14:58:58Z</time>
      </trkpt>
      <trkpt lat="48.51363" lon="2.22014">
        <ele>78.8</ele>
        <time>2026-03-20T14:58:59Z</time>
      </trkpt>
      <trkpt lat="48.51363" lon="2.22018">
        <ele>78.4</ele>
        <time>2026-03-20T14:59:00Z</time>
      </trkpt>
      <trkpt lat="48.51364" lon="2.22022">
        <ele>78.4</ele>
        <time>2026-03-20T14:59:01Z</time>
      </trkpt>
      <trkpt lat="48.51365" lon="2.22027">
        <ele>78.4</ele>
        <time>2026-03-20T14:59:02Z</time>
      </trkpt>
      <trkpt lat="48.51366" lon="2.22033">
        <ele>77.8</ele>
        <time>2026-03-20T14:59:03Z</time>
      </trkpt>
      <trkpt lat="48.51366" lon="2.22039">
        <ele>77.4</ele>
        <time>2026-03-20T14:59:04Z</time>
      </trkpt>
      <trkpt lat="48.51367" lon="2.22045">
        <ele>77.4</ele>
        <time>2026-03-20T14:59:05Z</time>
      </trkpt>
      <trkpt lat="48.51367" lon="2.22051">
        <ele>77.4</ele>
        <time>2026-03-20T14:59:06Z</time>
      </trkpt>
      <trkpt lat="48.51367" lon="2.22057">
        <ele>76.8</ele>
        <time>2026-03-20T14:59:07Z</time>
      </trkpt>
      <trkpt lat="48.51367" lon="2.22063">
        <ele>77.2</ele>
        <time>2026-03-20T14:59:08Z</time>
      </trkpt>
      <trkpt lat="48.51368" lon="2.22069">
        <ele>77.2</ele>
        <time>2026-03-20T14:59:09Z</time>
      </trkpt>
      <trkpt lat="48.51368" lon="2.22075">
        <ele>77.2</ele>
        <time>2026-03-20T14:59:10Z</time>
      </trkpt>
      <trkpt lat="48.51369" lon="2.2208">
        <ele>77.2</ele>
        <time>2026-03-20T14:59:11Z</time>
      </trkpt>
      <trkpt lat="48.51368" lon="2.22086">
        <ele>76.8</ele>
        <time>2026-03-20T14:59:12Z</time>
      </trkpt>
      <trkpt lat="48.51367" lon="2.22092">
        <ele>76.8</ele>
        <time>2026-03-20T14:59:13Z</time>
      </trkpt>
      <trkpt lat="48.51365" lon="2.22097">
        <ele>76.8</ele>
        <time>2026-03-20T14:59:14Z</time>
      </trkpt>
      <trkpt lat="48.51364" lon="2.22103">
        <ele>76.6</ele>
        <time>2026-03-20T14:59:15Z</time>
      </trkpt>
      <trkpt lat="48.51364" lon="2.22111">
        <ele>76.4</ele>
        <time>2026-03-20T14:59:16Z</time>
      </trkpt>
      <trkpt lat="48.51364" lon="2.22119">
        <ele>76.4</ele>
        <time>2026-03-20T14:59:17Z</time>
      </trkpt>
      <trkpt lat="48.51365" lon="2.22126">
        <ele>76.4</ele>
        <time>2026-03-20T14:59:18Z</time>
      </trkpt>
      <trkpt lat="48.51366" lon="2.22129">
        <ele>76.4</ele>
        <time>2026-03-20T14:59:19Z</time>
      </trkpt>
      <trkpt lat="48.51367" lon="2.22133">
        <ele>76.2</ele>
        <time>2026-03-20T14:59:20Z</time>
      </trkpt>
      <trkpt lat="48.51369" lon="2.22135">
        <ele>76.2</ele>
        <time>2026-03-20T14:59:21Z</time>
      </trkpt>
      <trkpt lat="48.51371" lon="2.22139">
        <ele>76.2</ele>
        <time>2026-03-20T14:59:22Z</time>
      </trkpt>
      <trkpt lat="48.51373" lon="2.22142">
        <ele>76.8</ele>
        <time>2026-03-20T14:59:23Z</time>
      </trkpt>
      <trkpt lat="48.51376" lon="2.22146">
        <ele>77.2</ele>
        <time>2026-03-20T14:59:24Z</time>
      </trkpt>
      <trkpt lat="48.51378" lon="2.22149">
        <ele>77.2</ele>
        <time>2026-03-20T14:59:25Z</time>
      </trkpt>
      <trkpt lat="48.51381" lon="2.22152">
        <ele>77.2</ele>
        <time>2026-03-20T14:59:26Z</time>
      </trkpt>
      <trkpt lat="48.51383" lon="2.22157">
        <ele>77.2</ele>
        <time>2026-03-20T14:59:27Z</time>
      </trkpt>
      <trkpt lat="48.51387" lon="2.22161">
        <ele>77.4</ele>
        <time>2026-03-20T14:59:28Z</time>
      </trkpt>
      <trkpt lat="48.51391" lon="2.22166">
        <ele>77.4</ele>
        <time>2026-03-20T14:59:29Z</time>
      </trkpt>
      <trkpt lat="48.51395" lon="2.22172">
        <ele>77.4</ele>
        <time>2026-03-20T14:59:30Z</time>
      </trkpt>
      <trkpt lat="48.51398" lon="2.22177">
        <ele>77.2</ele>
        <time>2026-03-20T14:59:31Z</time>
      </trkpt>
      <trkpt lat="48.51402" lon="2.22182">
        <ele>76.2</ele>
        <time>2026-03-20T14:59:32Z</time>
      </trkpt>
      <trkpt lat="48.51405" lon="2.22186">
        <ele>76.2</ele>
        <time>2026-03-20T14:59:33Z</time>
      </trkpt>
      <trkpt lat="48.51408" lon="2.22189">
        <ele>76.2</ele>
        <time>2026-03-20T14:59:34Z</time>
      </trkpt>
      <trkpt lat="48.5141" lon="2.22194">
        <ele>76.8</ele>
        <time>2026-03-20T14:59:35Z</time>
      </trkpt>
      <trkpt lat="48.51413" lon="2.22199">
        <ele>77.4</ele>
        <time>2026-03-20T14:59:36Z</time>
      </trkpt>
      <trkpt lat="48.51415" lon="2.22203">
        <ele>77.4</ele>
        <time>2026-03-20T14:59:37Z</time>
      </trkpt>
      <trkpt lat="48.51417" lon="2.22207">
        <ele>77.4</ele>
        <time>2026-03-20T14:59:38Z</time>
      </trkpt>
      <trkpt lat="48.5142" lon="2.22211">
        <ele>76.6</ele>
        <time>2026-03-20T14:59:39Z</time>
      </trkpt>
      <trkpt lat="48.51423" lon="2.22216">
        <ele>76.8</ele>
        <time>2026-03-20T14:59:40Z</time>
      </trkpt>
      <trkpt lat="48.51426" lon="2.2222">
        <ele>76.8</ele>
        <time>2026-03-20T14:59:41Z</time>
      </trkpt>
      <trkpt lat="48.51428" lon="2.22225">
        <ele>76.8</ele>
        <time>2026-03-20T14:59:42Z</time>
      </trkpt>
      <trkpt lat="48.51431" lon="2.22229">
        <ele>76.8</ele>
        <time>2026-03-20T14:59:43Z</time>
      </trkpt>
      <trkpt lat="48.51434" lon="2.22234">
        <ele>76.4</ele>
        <time>2026-03-20T14:59:44Z</time>
      </trkpt>
      <trkpt lat="48.51437" lon="2.22239">
        <ele>76.4</ele>
        <time>2026-03-20T14:59:45Z</time>
      </trkpt>
      <trkpt lat="48.5144" lon="2.22242">
        <ele>76.4</ele>
        <time>2026-03-20T14:59:46Z</time>
      </trkpt>
      <trkpt lat="48.51444" lon="2.22246">
        <ele>76.4</ele>
        <time>2026-03-20T14:59:47Z</time>
      </trkpt>
      <trkpt lat="48.51448" lon="2.22248">
        <ele>76.8</ele>
        <time>2026-03-20T14:59:48Z</time>
      </trkpt>
      <trkpt lat="48.51451" lon="2.22247">
        <ele>76.8</ele>
        <time>2026-03-20T14:59:49Z</time>
      </trkpt>
      <trkpt lat="48.51453" lon="2.22245">
        <ele>76.8</ele>
        <time>2026-03-20T14:59:50Z</time>
      </trkpt>
      <trkpt lat="48.51455" lon="2.22242">
        <ele>77.8</ele>
        <time>2026-03-20T14:59:51Z</time>
      </trkpt>
      <trkpt lat="48.51457" lon="2.2224">
        <ele>78</ele>
        <time>2026-03-20T14:59:52Z</time>
      </trkpt>
      <trkpt lat="48.51459" lon="2.22238">
        <ele>78</ele>
        <time>2026-03-20T14:59:53Z</time>
      </trkpt>
      <trkpt lat="48.5146" lon="2.22236">
        <ele>78</ele>
        <time>2026-03-20T14:59:54Z</time>
      </trkpt>
      <trkpt lat="48.51462" lon="2.22234">
        <ele>78.8</ele>
        <time>2026-03-20T14:59:55Z</time>
      </trkpt>
      <trkpt lat="48.51463" lon="2.22232">
        <ele>79</ele>
        <time>2026-03-20T14:59:56Z</time>
      </trkpt>
      <trkpt lat="48.51465" lon="2.2223">
        <ele>79</ele>
        <time>2026-03-20T14:59:57Z</time>
      </trkpt>
      <trkpt lat="48.51467" lon="2.22229">
        <ele>79</ele>
        <time>2026-03-20T14:59:58Z</time>
      </trkpt>
      <trkpt lat="48.51468" lon="2.22227">
        <ele>79.2</ele>
        <time>2026-03-20T14:59:59Z</time>
      </trkpt>
      <trkpt lat="48.5147" lon="2.22227">
        <ele>79.2</ele>
        <time>2026-03-20T15:00:00Z</time>
      </trkpt>
      <trkpt lat="48.51471" lon="2.22226">
        <ele>79.2</ele>
        <time>2026-03-20T15:00:01Z</time>
      </trkpt>
      <trkpt lat="48.51472" lon="2.22225">
        <ele>79.2</ele>
        <time>2026-03-20T15:00:02Z</time>
      </trkpt>
      <trkpt lat="48.51474" lon="2.22224">
        <ele>79.6</ele>
        <time>2026-03-20T15:00:03Z</time>
      </trkpt>
      <trkpt lat="48.51475" lon="2.22224">
        <ele>79.4</ele>
        <time>2026-03-20T15:00:04Z</time>
      </trkpt>
      <trkpt lat="48.51476" lon="2.22223">
        <ele>79.4</ele>
        <time>2026-03-20T15:00:05Z</time>
      </trkpt>
      <trkpt lat="48.51475" lon="2.22221">
        <ele>79.4</ele>
        <time>2026-03-20T15:00:06Z</time>
      </trkpt>
      <trkpt lat="48.51475" lon="2.22221">
        <ele>79.4</ele>
        <time>2026-03-20T15:00:07Z</time>
      </trkpt>
      <trkpt lat="48.51474" lon="2.22223">
        <ele>78.6</ele>
        <time>2026-03-20T15:00:08Z</time>
      </trkpt>
      <trkpt lat="48.51473" lon="2.22225">
        <ele>78.6</ele>
        <time>2026-03-20T15:00:09Z</time>
      </trkpt>
      <trkpt lat="48.51471" lon="2.22228">
        <ele>78.6</ele>
        <time>2026-03-20T15:00:10Z</time>
      </trkpt>
      <trkpt lat="48.5147" lon="2.22231">
        <ele>78</ele>
        <time>2026-03-20T15:00:11Z</time>
      </trkpt>
      <trkpt lat="48.51467" lon="2.22234">
        <ele>78</ele>
        <time>2026-03-20T15:00:12Z</time>
      </trkpt>
      <trkpt lat="48.51465" lon="2.22237">
        <ele>78</ele>
        <time>2026-03-20T15:00:13Z</time>
      </trkpt>
      <trkpt lat="48.51462" lon="2.2224">
        <ele>78</ele>
        <time>2026-03-20T15:00:14Z</time>
      </trkpt>
      <trkpt lat="48.51459" lon="2.22245">
        <ele>77</ele>
        <time>2026-03-20T15:00:15Z</time>
      </trkpt>
      <trkpt lat="48.51455" lon="2.22249">
        <ele>76.2</ele>
        <time>2026-03-20T15:00:16Z</time>
      </trkpt>
      <trkpt lat="48.51451" lon="2.22253">
        <ele>76.2</ele>
        <time>2026-03-20T15:00:17Z</time>
      </trkpt>
      <trkpt lat="48.51448" lon="2.22257">
        <ele>76.2</ele>
        <time>2026-03-20T15:00:18Z</time>
      </trkpt>
      <trkpt lat="48.51444" lon="2.2226">
        <ele>75.8</ele>
        <time>2026-03-20T15:00:19Z</time>
      </trkpt>
      <trkpt lat="48.51441" lon="2.22263">
        <ele>75.2</ele>
        <time>2026-03-20T15:00:20Z</time>
      </trkpt>
      <trkpt lat="48.51438" lon="2.22266">
        <ele>75.2</ele>
        <time>2026-03-20T15:00:21Z</time>
      </trkpt>
      <trkpt lat="48.51434" lon="2.22271">
        <ele>75.2</ele>
        <time>2026-03-20T15:00:22Z</time>
      </trkpt>
      <trkpt lat="48.5143" lon="2.22275">
        <ele>75.2</ele>
        <time>2026-03-20T15:00:23Z</time>
      </trkpt>
      <trkpt lat="48.51426" lon="2.22279">
        <ele>77.8</ele>
        <time>2026-03-20T15:00:24Z</time>
      </trkpt>
      <trkpt lat="48.51423" lon="2.22284">
        <ele>77.8</ele>
        <time>2026-03-20T15:00:25Z</time>
      </trkpt>
      <trkpt lat="48.51423" lon="2.22289">
        <ele>77.8</ele>
        <time>2026-03-20T15:00:26Z</time>
      </trkpt>
      <trkpt lat="48.51425" lon="2.22293">
        <ele>76.8</ele>
        <time>2026-03-20T15:00:27Z</time>
      </trkpt>
      <trkpt lat="48.51427" lon="2.22296">
        <ele>75.2</ele>
        <time>2026-03-20T15:00:28Z</time>
      </trkpt>
      <trkpt lat="48.51429" lon="2.22301">
        <ele>75.2</ele>
        <time>2026-03-20T15:00:29Z</time>
      </trkpt>
      <trkpt lat="48.51431" lon="2.22305">
        <ele>75.2</ele>
        <time>2026-03-20T15:00:30Z</time>
      </trkpt>
      <trkpt lat="48.51433" lon="2.22309">
        <ele>75.8</ele>
        <time>2026-03-20T15:00:31Z</time>
      </trkpt>
      <trkpt lat="48.51435" lon="2.22314">
        <ele>76</ele>
        <time>2026-03-20T15:00:32Z</time>
      </trkpt>
      <trkpt lat="48.51438" lon="2.22317">
        <ele>76</ele>
        <time>2026-03-20T15:00:33Z</time>
      </trkpt>
      <trkpt lat="48.5144" lon="2.22321">
        <ele>76</ele>
        <time>2026-03-20T15:00:34Z</time>
      </trkpt>
      <trkpt lat="48.51442" lon="2.22324">
        <ele>76</ele>
        <time>2026-03-20T15:00:35Z</time>
      </trkpt>
      <trkpt lat="48.51444" lon="2.22327">
        <ele>76.2</ele>
        <time>2026-03-20T15:00:36Z</time>
      </trkpt>
      <trkpt lat="48.51446" lon="2.2233">
        <ele>76.2</ele>
        <time>2026-03-20T15:00:37Z</time>
      </trkpt>
      <trkpt lat="48.51448" lon="2.22334">
        <ele>76.2</ele>
        <time>2026-03-20T15:00:38Z</time>
      </trkpt>
      <trkpt lat="48.5145" lon="2.22337">
        <ele>76.2</ele>
        <time>2026-03-20T15:00:39Z</time>
      </trkpt>
      <trkpt lat="48.51452" lon="2.22341">
        <ele>76</ele>
        <time>2026-03-20T15:00:40Z</time>
      </trkpt>
      <trkpt lat="48.51454" lon="2.22345">
        <ele>76</ele>
        <time>2026-03-20T15:00:41Z</time>
      </trkpt>
      <trkpt lat="48.51456" lon="2.22349">
        <ele>76</ele>
        <time>2026-03-20T15:00:42Z</time>
      </trkpt>
      <trkpt lat="48.51458" lon="2.22353">
        <ele>76.4</ele>
        <time>2026-03-20T15:00:43Z</time>
      </trkpt>
      <trkpt lat="48.51461" lon="2.22357">
        <ele>76.2</ele>
        <time>2026-03-20T15:00:44Z</time>
      </trkpt>
      <trkpt lat="48.51463" lon="2.2236">
        <ele>76.2</ele>
        <time>2026-03-20T15:00:45Z</time>
      </trkpt>
      <trkpt lat="48.51465" lon="2.22364">
        <ele>76.2</ele>
        <time>2026-03-20T15:00:46Z</time>
      </trkpt>
      <trkpt lat="48.51468" lon="2.22368">
        <ele>76.6</ele>
        <time>2026-03-20T15:00:47Z</time>
      </trkpt>
      <trkpt lat="48.5147" lon="2.22371">
        <ele>76.8</ele>
        <time>2026-03-20T15:00:48Z</time>
      </trkpt>
      <trkpt lat="48.51473" lon="2.22374">
        <ele>76.8</ele>
        <time>2026-03-20T15:00:49Z</time>
      </trkpt>
      <trkpt lat="48.51475" lon="2.22377">
        <ele>76.8</ele>
        <time>2026-03-20T15:00:50Z</time>
      </trkpt>
      <trkpt lat="48.51478" lon="2.22381">
        <ele>77.4</ele>
        <time>2026-03-20T15:00:51Z</time>
      </trkpt>
      <trkpt lat="48.5148" lon="2.22384">
        <ele>78.2</ele>
        <time>2026-03-20T15:00:52Z</time>
      </trkpt>
      <trkpt lat="48.51481" lon="2.22388">
        <ele>78.2</ele>
        <time>2026-03-20T15:00:53Z</time>
      </trkpt>
      <trkpt lat="48.51483" lon="2.22391">
        <ele>78.2</ele>
        <time>2026-03-20T15:00:54Z</time>
      </trkpt>
      <trkpt lat="48.51485" lon="2.22395">
        <ele>78.8</ele>
        <time>2026-03-20T15:00:55Z</time>
      </trkpt>
      <trkpt lat="48.51488" lon="2.22398">
        <ele>78.6</ele>
        <time>2026-03-20T15:00:56Z</time>
      </trkpt>
      <trkpt lat="48.5149" lon="2.22401">
        <ele>78.6</ele>
        <time>2026-03-20T15:00:57Z</time>
      </trkpt>
      <trkpt lat="48.51492" lon="2.22405">
        <ele>78.6</ele>
        <time>2026-03-20T15:00:58Z</time>
      </trkpt>
      <trkpt lat="48.51494" lon="2.22408">
        <ele>78.6</ele>
        <time>2026-03-20T15:00:59Z</time>
      </trkpt>
      <trkpt lat="48.51496" lon="2.2241">
        <ele>78.2</ele>
        <time>2026-03-20T15:01:00Z</time>
      </trkpt>
      <trkpt lat="48.51497" lon="2.22411">
        <ele>78.2</ele>
        <time>2026-03-20T15:01:01Z</time>
      </trkpt>
      <trkpt lat="48.51499" lon="2.22413">
        <ele>78.2</ele>
        <time>2026-03-20T15:01:02Z</time>
      </trkpt>
      <trkpt lat="48.51501" lon="2.22415">
        <ele>79</ele>
        <time>2026-03-20T15:01:03Z</time>
      </trkpt>
      <trkpt lat="48.51503" lon="2.22418">
        <ele>79.2</ele>
        <time>2026-03-20T15:01:04Z</time>
      </trkpt>
      <trkpt lat="48.51504" lon="2.2242">
        <ele>79.2</ele>
        <time>2026-03-20T15:01:05Z</time>
      </trkpt>
      <trkpt lat="48.51505" lon="2.22423">
        <ele>79.2</ele>
        <time>2026-03-20T15:01:06Z</time>
      </trkpt>
      <trkpt lat="48.51506" lon="2.22426">
        <ele>79.2</ele>
        <time>2026-03-20T15:01:07Z</time>
      </trkpt>
      <trkpt lat="48.51508" lon="2.22429">
        <ele>79</ele>
        <time>2026-03-20T15:01:08Z</time>
      </trkpt>
      <trkpt lat="48.5151" lon="2.22431">
        <ele>79</ele>
        <time>2026-03-20T15:01:09Z</time>
      </trkpt>
      <trkpt lat="48.51512" lon="2.22433">
        <ele>79</ele>
        <time>2026-03-20T15:01:10Z</time>
      </trkpt>
      <trkpt lat="48.51515" lon="2.22435">
        <ele>79</ele>
        <time>2026-03-20T15:01:11Z</time>
      </trkpt>
      <trkpt lat="48.51517" lon="2.22437">
        <ele>79.4</ele>
        <time>2026-03-20T15:01:12Z</time>
      </trkpt>
      <trkpt lat="48.51519" lon="2.22439">
        <ele>79.4</ele>
        <time>2026-03-20T15:01:13Z</time>
      </trkpt>
      <trkpt lat="48.51521" lon="2.22442">
        <ele>79.4</ele>
        <time>2026-03-20T15:01:14Z</time>
      </trkpt>
      <trkpt lat="48.51523" lon="2.22444">
        <ele>79.8</ele>
        <time>2026-03-20T15:01:15Z</time>
      </trkpt>
      <trkpt lat="48.51525" lon="2.22447">
        <ele>80.6</ele>
        <time>2026-03-20T15:01:16Z</time>
      </trkpt>
      <trkpt lat="48.51526" lon="2.22451">
        <ele>80.6</ele>
        <time>2026-03-20T15:01:17Z</time>
      </trkpt>
      <trkpt lat="48.51527" lon="2.22454">
        <ele>80.6</ele>
        <time>2026-03-20T15:01:18Z</time>
      </trkpt>
      <trkpt lat="48.51529" lon="2.22457">
        <ele>80.6</ele>
        <time>2026-03-20T15:01:19Z</time>
      </trkpt>
      <trkpt lat="48.51531" lon="2.2246">
        <ele>80.8</ele>
        <time>2026-03-20T15:01:20Z</time>
      </trkpt>
      <trkpt lat="48.51533" lon="2.22462">
        <ele>80.8</ele>
        <time>2026-03-20T15:01:21Z</time>
      </trkpt>
      <trkpt lat="48.51535" lon="2.22465">
        <ele>80.8</ele>
        <time>2026-03-20T15:01:22Z</time>
      </trkpt>
      <trkpt lat="48.51538" lon="2.22467">
        <ele>81.8</ele>
        <time>2026-03-20T15:01:23Z</time>
      </trkpt>
      <trkpt lat="48.5154" lon="2.2247">
        <ele>81.8</ele>
        <time>2026-03-20T15:01:24Z</time>
      </trkpt>
      <trkpt lat="48.51541" lon="2.22473">
        <ele>81.8</ele>
        <time>2026-03-20T15:01:25Z</time>
      </trkpt>
      <trkpt lat="48.51543" lon="2.22476">
        <ele>81.8</ele>
        <time>2026-03-20T15:01:26Z</time>
      </trkpt>
      <trkpt lat="48.51545" lon="2.22478">
        <ele>81.8</ele>
        <time>2026-03-20T15:01:27Z</time>
      </trkpt>
      <trkpt lat="48.51547" lon="2.22481">
        <ele>82.4</ele>
        <time>2026-03-20T15:01:28Z</time>
      </trkpt>
      <trkpt lat="48.51548" lon="2.22485">
        <ele>82.4</ele>
        <time>2026-03-20T15:01:29Z</time>
      </trkpt>
      <trkpt lat="48.51549" lon="2.22488">
        <ele>82.4</ele>
        <time>2026-03-20T15:01:30Z</time>
      </trkpt>
      <trkpt lat="48.51551" lon="2.2249">
        <ele>83.4</ele>
        <time>2026-03-20T15:01:31Z</time>
      </trkpt>
      <trkpt lat="48.51553" lon="2.22493">
        <ele>83.4</ele>
        <time>2026-03-20T15:01:32Z</time>
      </trkpt>
      <trkpt lat="48.51555" lon="2.22496">
        <ele>83.4</ele>
        <time>2026-03-20T15:01:33Z</time>
      </trkpt>
      <trkpt lat="48.51557" lon="2.22498">
        <ele>83.4</ele>
        <time>2026-03-20T15:01:34Z</time>
      </trkpt>
      <trkpt lat="48.5156" lon="2.225">
        <ele>83.4</ele>
        <time>2026-03-20T15:01:35Z</time>
      </trkpt>
      <trkpt lat="48.51562" lon="2.22503">
        <ele>84.4</ele>
        <time>2026-03-20T15:01:36Z</time>
      </trkpt>
      <trkpt lat="48.51564" lon="2.22505">
        <ele>84.4</ele>
        <time>2026-03-20T15:01:37Z</time>
      </trkpt>
      <trkpt lat="48.51566" lon="2.22508">
        <ele>84.4</ele>
        <time>2026-03-20T15:01:38Z</time>
      </trkpt>
      <trkpt lat="48.51568" lon="2.22512">
        <ele>85</ele>
        <time>2026-03-20T15:01:39Z</time>
      </trkpt>
      <trkpt lat="48.51569" lon="2.22515">
        <ele>85.2</ele>
        <time>2026-03-20T15:01:40Z</time>
      </trkpt>
      <trkpt lat="48.51571" lon="2.22519">
        <ele>85.2</ele>
        <time>2026-03-20T15:01:41Z</time>
      </trkpt>
      <trkpt lat="48.51572" lon="2.22521">
        <ele>85.2</ele>
        <time>2026-03-20T15:01:42Z</time>
      </trkpt>
      <trkpt lat="48.51574" lon="2.22523">
        <ele>86</ele>
        <time>2026-03-20T15:01:43Z</time>
      </trkpt>
      <trkpt lat="48.51576" lon="2.22526">
        <ele>85.8</ele>
        <time>2026-03-20T15:01:44Z</time>
      </trkpt>
      <trkpt lat="48.51577" lon="2.22528">
        <ele>85.8</ele>
        <time>2026-03-20T15:01:45Z</time>
      </trkpt>
      <trkpt lat="48.51578" lon="2.22531">
        <ele>85.8</ele>
        <time>2026-03-20T15:01:46Z</time>
      </trkpt>
      <trkpt lat="48.51581" lon="2.22533">
        <ele>86.4</ele>
        <time>2026-03-20T15:01:47Z</time>
      </trkpt>
      <trkpt lat="48.51583" lon="2.22535">
        <ele>87</ele>
        <time>2026-03-20T15:01:48Z</time>
      </trkpt>
      <trkpt lat="48.51584" lon="2.22538">
        <ele>87</ele>
        <time>2026-03-20T15:01:49Z</time>
      </trkpt>
      <trkpt lat="48.51585" lon="2.2254">
        <ele>87</ele>
        <time>2026-03-20T15:01:50Z</time>
      </trkpt>
      <trkpt lat="48.51587" lon="2.22542">
        <ele>87</ele>
        <time>2026-03-20T15:01:51Z</time>
      </trkpt>
      <trkpt lat="48.51588" lon="2.22545">
        <ele>87.4</ele>
        <time>2026-03-20T15:01:52Z</time>
      </trkpt>
      <trkpt lat="48.51589" lon="2.22547">
        <ele>87.4</ele>
        <time>2026-03-20T15:01:53Z</time>
      </trkpt>
      <trkpt lat="48.51591" lon="2.2255">
        <ele>87.4</ele>
        <time>2026-03-20T15:01:54Z</time>
      </trkpt>
      <trkpt lat="48.51593" lon="2.22552">
        <ele>87.4</ele>
        <time>2026-03-20T15:01:55Z</time>
      </trkpt>
      <trkpt lat="48.51594" lon="2.22555">
        <ele>88.2</ele>
        <time>2026-03-20T15:01:56Z</time>
      </trkpt>
      <trkpt lat="48.51596" lon="2.22557">
        <ele>88.2</ele>
        <time>2026-03-20T15:01:57Z</time>
      </trkpt>
      <trkpt lat="48.51598" lon="2.2256">
        <ele>88.2</ele>
        <time>2026-03-20T15:01:58Z</time>
      </trkpt>
      <trkpt lat="48.516" lon="2.22564">
        <ele>88.2</ele>
        <time>2026-03-20T15:01:59Z</time>
      </trkpt>
      <trkpt lat="48.51603" lon="2.22567">
        <ele>89.6</ele>
        <time>2026-03-20T15:02:00Z</time>
      </trkpt>
      <trkpt lat="48.51606" lon="2.2257">
        <ele>89.6</ele>
        <time>2026-03-20T15:02:01Z</time>
      </trkpt>
      <trkpt lat="48.51608" lon="2.22572">
        <ele>89.6</ele>
        <time>2026-03-20T15:02:02Z</time>
      </trkpt>
      <trkpt lat="48.5161" lon="2.22575">
        <ele>89.6</ele>
        <time>2026-03-20T15:02:03Z</time>
      </trkpt>
      <trkpt lat="48.51611" lon="2.22576">
        <ele>90.2</ele>
        <time>2026-03-20T15:02:04Z</time>
      </trkpt>
      <trkpt lat="48.51613" lon="2.22577">
        <ele>90.2</ele>
        <time>2026-03-20T15:02:05Z</time>
      </trkpt>
      <trkpt lat="48.51614" lon="2.22577">
        <ele>90.2</ele>
        <time>2026-03-20T15:02:06Z</time>
      </trkpt>
      <trkpt lat="48.51619" lon="2.22581">
        <ele>90.6</ele>
        <time>2026-03-20T15:02:27Z</time>
      </trkpt>
      <trkpt lat="48.51619" lon="2.22584">
        <ele>90.4</ele>
        <time>2026-03-20T15:02:28Z</time>
      </trkpt>
      <trkpt lat="48.51619" lon="2.22587">
        <ele>90.4</ele>
        <time>2026-03-20T15:02:29Z</time>
      </trkpt>
      <trkpt lat="48.51619" lon="2.2259">
        <ele>90.4</ele>
        <time>2026-03-20T15:02:30Z</time>
      </trkpt>
      <trkpt lat="48.51619" lon="2.22594">
        <ele>89.6</ele>
        <time>2026-03-20T15:02:31Z</time>
      </trkpt>
      <trkpt lat="48.51618" lon="2.22598">
        <ele>89.6</ele>
        <time>2026-03-20T15:02:32Z</time>
      </trkpt>
      <trkpt lat="48.51618" lon="2.22603">
        <ele>89.6</ele>
        <time>2026-03-20T15:02:33Z</time>
      </trkpt>
      <trkpt lat="48.51617" lon="2.22607">
        <ele>89.6</ele>
        <time>2026-03-20T15:02:34Z</time>
      </trkpt>
      <trkpt lat="48.51616" lon="2.22612">
        <ele>89.6</ele>
        <time>2026-03-20T15:02:35Z</time>
      </trkpt>
      <trkpt lat="48.51615" lon="2.22617">
        <ele>89</ele>
        <time>2026-03-20T15:02:36Z</time>
      </trkpt>
      <trkpt lat="48.51614" lon="2.2262">
        <ele>89</ele>
        <time>2026-03-20T15:02:37Z</time>
      </trkpt>
      <trkpt lat="48.51612" lon="2.22625">
        <ele>89</ele>
        <time>2026-03-20T15:02:38Z</time>
      </trkpt>
      <trkpt lat="48.51611" lon="2.2263">
        <ele>89</ele>
        <time>2026-03-20T15:02:39Z</time>
      </trkpt>
      <trkpt lat="48.51609" lon="2.22634">
        <ele>88.2</ele>
        <time>2026-03-20T15:02:40Z</time>
      </trkpt>
      <trkpt lat="48.51608" lon="2.22638">
        <ele>88.2</ele>
        <time>2026-03-20T15:02:41Z</time>
      </trkpt>
      <trkpt lat="48.51607" lon="2.22644">
        <ele>88.2</ele>
        <time>2026-03-20T15:02:42Z</time>
      </trkpt>
      <trkpt lat="48.51605" lon="2.2265">
        <ele>87.6</ele>
        <time>2026-03-20T15:02:43Z</time>
      </trkpt>
      <trkpt lat="48.51603" lon="2.22657">
        <ele>87.8</ele>
        <time>2026-03-20T15:02:44Z</time>
      </trkpt>
      <trkpt lat="48.516" lon="2.22663">
        <ele>87.8</ele>
        <time>2026-03-20T15:02:45Z</time>
      </trkpt>
      <trkpt lat="48.51598" lon="2.22669">
        <ele>87.8</ele>
        <time>2026-03-20T15:02:46Z</time>
      </trkpt>
      <trkpt lat="48.51595" lon="2.22674">
        <ele>86.8</ele>
        <time>2026-03-20T15:02:47Z</time>
      </trkpt>
      <trkpt lat="48.51593" lon="2.2268">
        <ele>86.8</ele>
        <time>2026-03-20T15:02:48Z</time>
      </trkpt>
      <trkpt lat="48.5159" lon="2.22686">
        <ele>86.8</ele>
        <time>2026-03-20T15:02:49Z</time>
      </trkpt>
      <trkpt lat="48.51588" lon="2.22693">
        <ele>86.8</ele>
        <time>2026-03-20T15:02:50Z</time>
      </trkpt>
      <trkpt lat="48.51585" lon="2.22699">
        <ele>86.8</ele>
        <time>2026-03-20T15:02:51Z</time>
      </trkpt>
      <trkpt lat="48.51583" lon="2.22706">
        <ele>86.8</ele>
        <time>2026-03-20T15:02:52Z</time>
      </trkpt>
      <trkpt lat="48.5158" lon="2.22712">
        <ele>86.8</ele>
        <time>2026-03-20T15:02:53Z</time>
      </trkpt>
      <trkpt lat="48.51578" lon="2.22718">
        <ele>86.8</ele>
        <time>2026-03-20T15:02:54Z</time>
      </trkpt>
      <trkpt lat="48.51576" lon="2.22725">
        <ele>86.2</ele>
        <time>2026-03-20T15:02:55Z</time>
      </trkpt>
      <trkpt lat="48.51573" lon="2.22731">
        <ele>86</ele>
        <time>2026-03-20T15:02:56Z</time>
      </trkpt>
      <trkpt lat="48.5157" lon="2.22737">
        <ele>86</ele>
        <time>2026-03-20T15:02:57Z</time>
      </trkpt>
      <trkpt lat="48.51567" lon="2.22744">
        <ele>86</ele>
        <time>2026-03-20T15:02:58Z</time>
      </trkpt>
      <trkpt lat="48.51564" lon="2.2275">
        <ele>86</ele>
        <time>2026-03-20T15:02:59Z</time>
      </trkpt>
      <trkpt lat="48.51562" lon="2.22757">
        <ele>85.8</ele>
        <time>2026-03-20T15:03:00Z</time>
      </trkpt>
      <trkpt lat="48.51559" lon="2.22764">
        <ele>85.8</ele>
        <time>2026-03-20T15:03:01Z</time>
      </trkpt>
      <trkpt lat="48.51556" lon="2.22771">
        <ele>85.8</ele>
        <time>2026-03-20T15:03:02Z</time>
      </trkpt>
      <trkpt lat="48.51554" lon="2.22778">
        <ele>85.8</ele>
        <time>2026-03-20T15:03:03Z</time>
      </trkpt>
      <trkpt lat="48.51551" lon="2.22785">
        <ele>85</ele>
        <time>2026-03-20T15:03:04Z</time>
      </trkpt>
      <trkpt lat="48.51549" lon="2.22793">
        <ele>85</ele>
        <time>2026-03-20T15:03:05Z</time>
      </trkpt>
      <trkpt lat="48.51547" lon="2.22801">
        <ele>85</ele>
        <time>2026-03-20T15:03:06Z</time>
      </trkpt>
      <trkpt lat="48.51545" lon="2.22808">
        <ele>84</ele>
        <time>2026-03-20T15:03:07Z</time>
      </trkpt>
      <trkpt lat="48.51543" lon="2.22815">
        <ele>83.8</ele>
        <time>2026-03-20T15:03:08Z</time>
      </trkpt>
      <trkpt lat="48.51542" lon="2.22822">
        <ele>83.8</ele>
        <time>2026-03-20T15:03:09Z</time>
      </trkpt>
      <trkpt lat="48.5154" lon="2.22829">
        <ele>83.8</ele>
        <time>2026-03-20T15:03:10Z</time>
      </trkpt>
      <trkpt lat="48.51539" lon="2.22836">
        <ele>84.8</ele>
        <time>2026-03-20T15:03:11Z</time>
      </trkpt>
      <trkpt lat="48.51538" lon="2.22844">
        <ele>84.4</ele>
        <time>2026-03-20T15:03:12Z</time>
      </trkpt>
      <trkpt lat="48.51536" lon="2.2285">
        <ele>84.4</ele>
        <time>2026-03-20T15:03:13Z</time>
      </trkpt>
      <trkpt lat="48.51534" lon="2.22858">
        <ele>84.4</ele>
        <time>2026-03-20T15:03:14Z</time>
      </trkpt>
      <trkpt lat="48.51531" lon="2.22865">
        <ele>84.4</ele>
        <time>2026-03-20T15:03:15Z</time>
      </trkpt>
      <trkpt lat="48.51528" lon="2.22872">
        <ele>83.8</ele>
        <time>2026-03-20T15:03:16Z</time>
      </trkpt>
      <trkpt lat="48.51525" lon="2.22878">
        <ele>83.8</ele>
        <time>2026-03-20T15:03:17Z</time>
      </trkpt>
      <trkpt lat="48.51522" lon="2.22885">
        <ele>83.8</ele>
        <time>2026-03-20T15:03:18Z</time>
      </trkpt>
      <trkpt lat="48.51518" lon="2.2289">
        <ele>82.8</ele>
        <time>2026-03-20T15:03:19Z</time>
      </trkpt>
      <trkpt lat="48.51513" lon="2.22895">
        <ele>81.2</ele>
        <time>2026-03-20T15:03:20Z</time>
      </trkpt>
      <trkpt lat="48.51509" lon="2.22901">
        <ele>81.2</ele>
        <time>2026-03-20T15:03:21Z</time>
      </trkpt>
      <trkpt lat="48.51504" lon="2.22907">
        <ele>81.2</ele>
        <time>2026-03-20T15:03:22Z</time>
      </trkpt>
      <trkpt lat="48.515" lon="2.22914">
        <ele>80.4</ele>
        <time>2026-03-20T15:03:23Z</time>
      </trkpt>
      <trkpt lat="48.51495" lon="2.22921">
        <ele>81</ele>
        <time>2026-03-20T15:03:24Z</time>
      </trkpt>
      <trkpt lat="48.5149" lon="2.22929">
        <ele>81</ele>
        <time>2026-03-20T15:03:25Z</time>
      </trkpt>
      <trkpt lat="48.51485" lon="2.22938">
        <ele>81</ele>
        <time>2026-03-20T15:03:26Z</time>
      </trkpt>
      <trkpt lat="48.51481" lon="2.22947">
        <ele>80</ele>
        <time>2026-03-20T15:03:27Z</time>
      </trkpt>
      <trkpt lat="48.51476" lon="2.22956">
        <ele>79.6</ele>
        <time>2026-03-20T15:03:28Z</time>
      </trkpt>
      <trkpt lat="48.51472" lon="2.22966">
        <ele>79.6</ele>
        <time>2026-03-20T15:03:29Z</time>
      </trkpt>
      <trkpt lat="48.51468" lon="2.22975">
        <ele>79.6</ele>
        <time>2026-03-20T15:03:30Z</time>
      </trkpt>
      <trkpt lat="48.51465" lon="2.22985">
        <ele>79.6</ele>
        <time>2026-03-20T15:03:31Z</time>
      </trkpt>
      <trkpt lat="48.51462" lon="2.22995">
        <ele>80.4</ele>
        <time>2026-03-20T15:03:32Z</time>
      </trkpt>
      <trkpt lat="48.51458" lon="2.23005">
        <ele>80.4</ele>
        <time>2026-03-20T15:03:33Z</time>
      </trkpt>
      <trkpt lat="48.51456" lon="2.23014">
        <ele>80.4</ele>
        <time>2026-03-20T15:03:34Z</time>
      </trkpt>
      <trkpt lat="48.51453" lon="2.23024">
        <ele>79.4</ele>
        <time>2026-03-20T15:03:35Z</time>
      </trkpt>
      <trkpt lat="48.51451" lon="2.23033">
        <ele>79.2</ele>
        <time>2026-03-20T15:03:36Z</time>
      </trkpt>
      <trkpt lat="48.51449" lon="2.23043">
        <ele>79.2</ele>
        <time>2026-03-20T15:03:37Z</time>
      </trkpt>
      <trkpt lat="48.51446" lon="2.23052">
        <ele>79.2</ele>
        <time>2026-03-20T15:03:38Z</time>
      </trkpt>
      <trkpt lat="48.51444" lon="2.2306">
        <ele>79.6</ele>
        <time>2026-03-20T15:03:39Z</time>
      </trkpt>
      <trkpt lat="48.51442" lon="2.23068">
        <ele>79.8</ele>
        <time>2026-03-20T15:03:40Z</time>
      </trkpt>
      <trkpt lat="48.51439" lon="2.23075">
        <ele>79.8</ele>
        <time>2026-03-20T15:03:41Z</time>
      </trkpt>
      <trkpt lat="48.51435" lon="2.2308">
        <ele>79.8</ele>
        <time>2026-03-20T15:03:42Z</time>
      </trkpt>
      <trkpt lat="48.5143" lon="2.23082">
        <ele>79.8</ele>
        <time>2026-03-20T15:03:43Z</time>
      </trkpt>
      <trkpt lat="48.51425" lon="2.23084">
        <ele>79.4</ele>
        <time>2026-03-20T15:03:44Z</time>
      </trkpt>
      <trkpt lat="48.51419" lon="2.23084">
        <ele>79.4</ele>
        <time>2026-03-20T15:03:45Z</time>
      </trkpt>
      <trkpt lat="48.51412" lon="2.23084">
        <ele>79.4</ele>
        <time>2026-03-20T15:03:46Z</time>
      </trkpt>
      <trkpt lat="48.51405" lon="2.23085">
        <ele>78.4</ele>
        <time>2026-03-20T15:03:47Z</time>
      </trkpt>
      <trkpt lat="48.51398" lon="2.23085">
        <ele>76</ele>
        <time>2026-03-20T15:03:48Z</time>
      </trkpt>
      <trkpt lat="48.51392" lon="2.23085">
        <ele>76</ele>
        <time>2026-03-20T15:03:49Z</time>
      </trkpt>
      <trkpt lat="48.51384" lon="2.23085">
        <ele>76</ele>
        <time>2026-03-20T15:03:50Z</time>
      </trkpt>
      <trkpt lat="48.51376" lon="2.23086">
        <ele>76</ele>
        <time>2026-03-20T15:03:51Z</time>
      </trkpt>
      <trkpt lat="48.51368" lon="2.23087">
        <ele>75.2</ele>
        <time>2026-03-20T15:03:52Z</time>
      </trkpt>
      <trkpt lat="48.51359" lon="2.23087">
        <ele>75.2</ele>
        <time>2026-03-20T15:03:53Z</time>
      </trkpt>
      <trkpt lat="48.5135" lon="2.23088">
        <ele>75.2</ele>
        <time>2026-03-20T15:03:54Z</time>
      </trkpt>
      <trkpt lat="48.51341" lon="2.23087">
        <ele>74.2</ele>
        <time>2026-03-20T15:03:55Z</time>
      </trkpt>
      <trkpt lat="48.51331" lon="2.23086">
        <ele>71.6</ele>
        <time>2026-03-20T15:03:56Z</time>
      </trkpt>
      <trkpt lat="48.51321" lon="2.23085">
        <ele>71.6</ele>
        <time>2026-03-20T15:03:57Z</time>
      </trkpt>
      <trkpt lat="48.51311" lon="2.23084">
        <ele>71.6</ele>
        <time>2026-03-20T15:03:58Z</time>
      </trkpt>
      <trkpt lat="48.51301" lon="2.23083">
        <ele>71.6</ele>
        <time>2026-03-20T15:03:59Z</time>
      </trkpt>
      <trkpt lat="48.51291" lon="2.23082">
        <ele>68.6</ele>
        <time>2026-03-20T15:04:00Z</time>
      </trkpt>
      <trkpt lat="48.51281" lon="2.2308">
        <ele>68.6</ele>
        <time>2026-03-20T15:04:01Z</time>
      </trkpt>
      <trkpt lat="48.51272" lon="2.23079">
        <ele>68.6</ele>
        <time>2026-03-20T15:04:02Z</time>
      </trkpt>
      <trkpt lat="48.51263" lon="2.23077">
        <ele>68.6</ele>
        <time>2026-03-20T15:04:03Z</time>
      </trkpt>
      <trkpt lat="48.51254" lon="2.23076">
        <ele>70</ele>
        <time>2026-03-20T15:04:04Z</time>
      </trkpt>
      <trkpt lat="48.51247" lon="2.23075">
        <ele>70</ele>
        <time>2026-03-20T15:04:05Z</time>
      </trkpt>
      <trkpt lat="48.5124" lon="2.23074">
        <ele>70</ele>
        <time>2026-03-20T15:04:06Z</time>
      </trkpt>
      <trkpt lat="48.51231" lon="2.23072">
        <ele>69.8</ele>
        <time>2026-03-20T15:04:07Z</time>
      </trkpt>
      <trkpt lat="48.51224" lon="2.23071">
        <ele>69.6</ele>
        <time>2026-03-20T15:04:08Z</time>
      </trkpt>
      <trkpt lat="48.51216" lon="2.23071">
        <ele>69.6</ele>
        <time>2026-03-20T15:04:09Z</time>
      </trkpt>
      <trkpt lat="48.51209" lon="2.2307">
        <ele>69.6</ele>
        <time>2026-03-20T15:04:10Z</time>
      </trkpt>
      <trkpt lat="48.51202" lon="2.23069">
        <ele>70.6</ele>
        <time>2026-03-20T15:04:11Z</time>
      </trkpt>
      <trkpt lat="48.51196" lon="2.23068">
        <ele>73.6</ele>
        <time>2026-03-20T15:04:12Z</time>
      </trkpt>
      <trkpt lat="48.5119" lon="2.23068">
        <ele>73.6</ele>
        <time>2026-03-20T15:04:13Z</time>
      </trkpt>
      <trkpt lat="48.51185" lon="2.23068">
        <ele>73.6</ele>
        <time>2026-03-20T15:04:14Z</time>
      </trkpt>
      <trkpt lat="48.51179" lon="2.23068">
        <ele>74.6</ele>
        <time>2026-03-20T15:04:15Z</time>
      </trkpt>
      <trkpt lat="48.51174" lon="2.23067">
        <ele>75.4</ele>
        <time>2026-03-20T15:04:16Z</time>
      </trkpt>
      <trkpt lat="48.51169" lon="2.23065">
        <ele>75.4</ele>
        <time>2026-03-20T15:04:17Z</time>
      </trkpt>
      <trkpt lat="48.51163" lon="2.23064">
        <ele>75.4</ele>
        <time>2026-03-20T15:04:18Z</time>
      </trkpt>
      <trkpt lat="48.51157" lon="2.23064">
        <ele>74.8</ele>
        <time>2026-03-20T15:04:19Z</time>
      </trkpt>
      <trkpt lat="48.51152" lon="2.23064">
        <ele>74.6</ele>
        <time>2026-03-20T15:04:20Z</time>
      </trkpt>
      <trkpt lat="48.51147" lon="2.23066">
        <ele>74.6</ele>
        <time>2026-03-20T15:04:21Z</time>
      </trkpt>
      <trkpt lat="48.51143" lon="2.23067">
        <ele>74.6</ele>
        <time>2026-03-20T15:04:22Z</time>
      </trkpt>
      <trkpt lat="48.51138" lon="2.23068">
        <ele>74.6</ele>
        <time>2026-03-20T15:04:23Z</time>
      </trkpt>
      <trkpt lat="48.51133" lon="2.23069">
        <ele>75.4</ele>
        <time>2026-03-20T15:04:24Z</time>
      </trkpt>
      <trkpt lat="48.51129" lon="2.2307">
        <ele>75.4</ele>
        <time>2026-03-20T15:04:25Z</time>
      </trkpt>
      <trkpt lat="48.51124" lon="2.23071">
        <ele>75.4</ele>
        <time>2026-03-20T15:04:26Z</time>
      </trkpt>
      <trkpt lat="48.5112" lon="2.23072">
        <ele>76.4</ele>
        <time>2026-03-20T15:04:27Z</time>
      </trkpt>
      <trkpt lat="48.51115" lon="2.23074">
        <ele>76.4</ele>
        <time>2026-03-20T15:04:28Z</time>
      </trkpt>
      <trkpt lat="48.51111" lon="2.23076">
        <ele>76.4</ele>
        <time>2026-03-20T15:04:29Z</time>
      </trkpt>
      <trkpt lat="48.51107" lon="2.23077">
        <ele>76.4</ele>
        <time>2026-03-20T15:04:30Z</time>
      </trkpt>
      <trkpt lat="48.51102" lon="2.23079">
        <ele>77.4</ele>
        <time>2026-03-20T15:04:31Z</time>
      </trkpt>
      <trkpt lat="48.51098" lon="2.2308">
        <ele>77.4</ele>
        <time>2026-03-20T15:04:32Z</time>
      </trkpt>
      <trkpt lat="48.51094" lon="2.23081">
        <ele>77.4</ele>
        <time>2026-03-20T15:04:33Z</time>
      </trkpt>
      <trkpt lat="48.51089" lon="2.23082">
        <ele>77.4</ele>
        <time>2026-03-20T15:04:34Z</time>
      </trkpt>
      <trkpt lat="48.51085" lon="2.23083">
        <ele>78.4</ele>
        <time>2026-03-20T15:04:35Z</time>
      </trkpt>
      <trkpt lat="48.51081" lon="2.23085">
        <ele>78.4</ele>
        <time>2026-03-20T15:04:36Z</time>
      </trkpt>
      <trkpt lat="48.51076" lon="2.23086">
        <ele>78.4</ele>
        <time>2026-03-20T15:04:37Z</time>
      </trkpt>
      <trkpt lat="48.51072" lon="2.23086">
        <ele>78.4</ele>
        <time>2026-03-20T15:04:38Z</time>
      </trkpt>
      <trkpt lat="48.51068" lon="2.23087">
        <ele>79</ele>
        <time>2026-03-20T15:04:39Z</time>
      </trkpt>
      <trkpt lat="48.51064" lon="2.23089">
        <ele>79</ele>
        <time>2026-03-20T15:04:40Z</time>
      </trkpt>
      <trkpt lat="48.5106" lon="2.2309">
        <ele>79.8</ele>
        <time>2026-03-20T15:04:41Z</time>
      </trkpt>
      <trkpt lat="48.51057" lon="2.23091">
        <ele>79.8</ele>
        <time>2026-03-20T15:04:42Z</time>
      </trkpt>
      <trkpt lat="48.51053" lon="2.23093">
        <ele>79.8</ele>
        <time>2026-03-20T15:04:43Z</time>
      </trkpt>
      <trkpt lat="48.51049" lon="2.23093">
        <ele>79.8</ele>
        <time>2026-03-20T15:04:44Z</time>
      </trkpt>
      <trkpt lat="48.51045" lon="2.23093">
        <ele>79.8</ele>
        <time>2026-03-20T15:04:45Z</time>
      </trkpt>
      <trkpt lat="48.51042" lon="2.23094">
        <ele>79.8</ele>
        <time>2026-03-20T15:04:46Z</time>
      </trkpt>
      <trkpt lat="48.51038" lon="2.23095">
        <ele>80.8</ele>
        <time>2026-03-20T15:04:47Z</time>
      </trkpt>
      <trkpt lat="48.51034" lon="2.23096">
        <ele>81.2</ele>
        <time>2026-03-20T15:04:48Z</time>
      </trkpt>
      <trkpt lat="48.5103" lon="2.23097">
        <ele>81.2</ele>
        <time>2026-03-20T15:04:49Z</time>
      </trkpt>
      <trkpt lat="48.51027" lon="2.23097">
        <ele>81.2</ele>
        <time>2026-03-20T15:04:50Z</time>
      </trkpt>
      <trkpt lat="48.51023" lon="2.23097">
        <ele>82.2</ele>
        <time>2026-03-20T15:04:51Z</time>
      </trkpt>
      <trkpt lat="48.5102" lon="2.23094">
        <ele>82.2</ele>
        <time>2026-03-20T15:04:52Z</time>
      </trkpt>
      <trkpt lat="48.51017" lon="2.2309">
        <ele>82.2</ele>
        <time>2026-03-20T15:04:53Z</time>
      </trkpt>
      <trkpt lat="48.51016" lon="2.23086">
        <ele>82.2</ele>
        <time>2026-03-20T15:04:54Z</time>
      </trkpt>
      <trkpt lat="48.51014" lon="2.2308">
        <ele>82.2</ele>
        <time>2026-03-20T15:04:55Z</time>
      </trkpt>
      <trkpt lat="48.51013" lon="2.23075">
        <ele>82.4</ele>
        <time>2026-03-20T15:04:56Z</time>
      </trkpt>
      <trkpt lat="48.51011" lon="2.2307">
        <ele>82.4</ele>
        <time>2026-03-20T15:04:57Z</time>
      </trkpt>
      <trkpt lat="48.51009" lon="2.23065">
        <ele>82.4</ele>
        <time>2026-03-20T15:04:58Z</time>
      </trkpt>
      <trkpt lat="48.51008" lon="2.2306">
        <ele>82.4</ele>
        <time>2026-03-20T15:04:59Z</time>
      </trkpt>
      <trkpt lat="48.51007" lon="2.23055">
        <ele>83.2</ele>
        <time>2026-03-20T15:05:00Z</time>
      </trkpt>
      <trkpt lat="48.51006" lon="2.23051">
        <ele>83.2</ele>
        <time>2026-03-20T15:05:01Z</time>
      </trkpt>
      <trkpt lat="48.51005" lon="2.23046">
        <ele>83.2</ele>
        <time>2026-03-20T15:05:02Z</time>
      </trkpt>
      <trkpt lat="48.51003" lon="2.23041">
        <ele>83.2</ele>
        <time>2026-03-20T15:05:03Z</time>
      </trkpt>
      <trkpt lat="48.51002" lon="2.23035">
        <ele>82.8</ele>
        <time>2026-03-20T15:05:04Z</time>
      </trkpt>
      <trkpt lat="48.51001" lon="2.2303">
        <ele>82.8</ele>
        <time>2026-03-20T15:05:05Z</time>
      </trkpt>
      <trkpt lat="48.50999" lon="2.23025">
        <ele>82.8</ele>
        <time>2026-03-20T15:05:06Z</time>
      </trkpt>
      <trkpt lat="48.50998" lon="2.2302">
        <ele>83.2</ele>
        <time>2026-03-20T15:05:07Z</time>
      </trkpt>
      <trkpt lat="48.50996" lon="2.23015">
        <ele>83.4</ele>
        <time>2026-03-20T15:05:08Z</time>
      </trkpt>
      <trkpt lat="48.50994" lon="2.2301">
        <ele>83.4</ele>
        <time>2026-03-20T15:05:09Z</time>
      </trkpt>
      <trkpt lat="48.50992" lon="2.23005">
        <ele>83.4</ele>
        <time>2026-03-20T15:05:10Z</time>
      </trkpt>
      <trkpt lat="48.5099" lon="2.22999">
        <ele>83.6</ele>
        <time>2026-03-20T15:05:11Z</time>
      </trkpt>
      <trkpt lat="48.50989" lon="2.22994">
        <ele>83.6</ele>
        <time>2026-03-20T15:05:12Z</time>
      </trkpt>
      <trkpt lat="48.50987" lon="2.22989">
        <ele>83.6</ele>
        <time>2026-03-20T15:05:13Z</time>
      </trkpt>
      <trkpt lat="48.50985" lon="2.22984">
        <ele>83.6</ele>
        <time>2026-03-20T15:05:14Z</time>
      </trkpt>
      <trkpt lat="48.50984" lon="2.22979">
        <ele>83.6</ele>
        <time>2026-03-20T15:05:15Z</time>
      </trkpt>
      <trkpt lat="48.50982" lon="2.22973">
        <ele>83.6</ele>
        <time>2026-03-20T15:05:16Z</time>
      </trkpt>
      <trkpt lat="48.5098" lon="2.22968">
        <ele>83.6</ele>
        <time>2026-03-20T15:05:17Z</time>
      </trkpt>
      <trkpt lat="48.50978" lon="2.22962">
        <ele>83.6</ele>
        <time>2026-03-20T15:05:18Z</time>
      </trkpt>
      <trkpt lat="48.50976" lon="2.22957">
        <ele>83.6</ele>
        <time>2026-03-20T15:05:19Z</time>
      </trkpt>
      <trkpt lat="48.50974" lon="2.22952">
        <ele>84.2</ele>
        <time>2026-03-20T15:05:20Z</time>
      </trkpt>
      <trkpt lat="48.50972" lon="2.22947">
        <ele>84.2</ele>
        <time>2026-03-20T15:05:21Z</time>
      </trkpt>
      <trkpt lat="48.50971" lon="2.22942">
        <ele>84.2</ele>
        <time>2026-03-20T15:05:22Z</time>
      </trkpt>
      <trkpt lat="48.50969" lon="2.22937">
        <ele>84.2</ele>
        <time>2026-03-20T15:05:23Z</time>
      </trkpt>
      <trkpt lat="48.50968" lon="2.22932">
        <ele>84.2</ele>
        <time>2026-03-20T15:05:24Z</time>
      </trkpt>
      <trkpt lat="48.50966" lon="2.22928">
        <ele>84.2</ele>
        <time>2026-03-20T15:05:25Z</time>
      </trkpt>
      <trkpt lat="48.50964" lon="2.22923">
        <ele>84.2</ele>
        <time>2026-03-20T15:05:26Z</time>
      </trkpt>
      <trkpt lat="48.50963" lon="2.22918">
        <ele>84.2</ele>
        <time>2026-03-20T15:05:27Z</time>
      </trkpt>
      <trkpt lat="48.50961" lon="2.22912">
        <ele>84.2</ele>
        <time>2026-03-20T15:05:28Z</time>
      </trkpt>
      <trkpt lat="48.5096" lon="2.22907">
        <ele>84.2</ele>
        <time>2026-03-20T15:05:29Z</time>
      </trkpt>
      <trkpt lat="48.50958" lon="2.22901">
        <ele>84.2</ele>
        <time>2026-03-20T15:05:30Z</time>
      </trkpt>
      <trkpt lat="48.50956" lon="2.22896">
        <ele>84.2</ele>
        <time>2026-03-20T15:05:31Z</time>
      </trkpt>
      <trkpt lat="48.50954" lon="2.22891">
        <ele>84.4</ele>
        <time>2026-03-20T15:05:32Z</time>
      </trkpt>
      <trkpt lat="48.50952" lon="2.22886">
        <ele>84.4</ele>
        <time>2026-03-20T15:05:33Z</time>
      </trkpt>
      <trkpt lat="48.5095" lon="2.2288">
        <ele>84.4</ele>
        <time>2026-03-20T15:05:34Z</time>
      </trkpt>
      <trkpt lat="48.50948" lon="2.22875">
        <ele>84.4</ele>
        <time>2026-03-20T15:05:35Z</time>
      </trkpt>
      <trkpt lat="48.50947" lon="2.2287">
        <ele>84.6</ele>
        <time>2026-03-20T15:05:36Z</time>
      </trkpt>
      <trkpt lat="48.50945" lon="2.22864">
        <ele>84.6</ele>
        <time>2026-03-20T15:05:37Z</time>
      </trkpt>
      <trkpt lat="48.50943" lon="2.22859">
        <ele>84.6</ele>
        <time>2026-03-20T15:05:38Z</time>
      </trkpt>
      <trkpt lat="48.5094" lon="2.22854">
        <ele>84.6</ele>
        <time>2026-03-20T15:05:39Z</time>
      </trkpt>
      <trkpt lat="48.50938" lon="2.22849">
        <ele>84.6</ele>
        <time>2026-03-20T15:05:40Z</time>
      </trkpt>
      <trkpt lat="48.50936" lon="2.22843">
        <ele>84.6</ele>
        <time>2026-03-20T15:05:41Z</time>
      </trkpt>
      <trkpt lat="48.50933" lon="2.22838">
        <ele>84.6</ele>
        <time>2026-03-20T15:05:42Z</time>
      </trkpt>
      <trkpt lat="48.5093" lon="2.22833">
        <ele>84</ele>
        <time>2026-03-20T15:05:43Z</time>
      </trkpt>
      <trkpt lat="48.50927" lon="2.22828">
        <ele>84.4</ele>
        <time>2026-03-20T15:05:44Z</time>
      </trkpt>
      <trkpt lat="48.50925" lon="2.22823">
        <ele>84.4</ele>
        <time>2026-03-20T15:05:45Z</time>
      </trkpt>
      <trkpt lat="48.50922" lon="2.22818">
        <ele>84.4</ele>
        <time>2026-03-20T15:05:46Z</time>
      </trkpt>
      <trkpt lat="48.50919" lon="2.22814">
        <ele>84.4</ele>
        <time>2026-03-20T15:05:47Z</time>
      </trkpt>
      <trkpt lat="48.50915" lon="2.22809">
        <ele>84.2</ele>
        <time>2026-03-20T15:05:48Z</time>
      </trkpt>
      <trkpt lat="48.50912" lon="2.22804">
        <ele>84.2</ele>
        <time>2026-03-20T15:05:49Z</time>
      </trkpt>
      <trkpt lat="48.50908" lon="2.228">
        <ele>84.2</ele>
        <time>2026-03-20T15:05:50Z</time>
      </trkpt>
      <trkpt lat="48.50904" lon="2.22796">
        <ele>84</ele>
        <time>2026-03-20T15:05:51Z</time>
      </trkpt>
      <trkpt lat="48.50901" lon="2.22792">
        <ele>83.8</ele>
        <time>2026-03-20T15:05:52Z</time>
      </trkpt>
      <trkpt lat="48.50897" lon="2.22787">
        <ele>83.8</ele>
        <time>2026-03-20T15:05:53Z</time>
      </trkpt>
      <trkpt lat="48.50894" lon="2.22782">
        <ele>83.8</ele>
        <time>2026-03-20T15:05:54Z</time>
      </trkpt>
      <trkpt lat="48.50891" lon="2.22777">
        <ele>83.8</ele>
        <time>2026-03-20T15:05:55Z</time>
      </trkpt>
      <trkpt lat="48.50887" lon="2.22773">
        <ele>83.2</ele>
        <time>2026-03-20T15:05:56Z</time>
      </trkpt>
      <trkpt lat="48.50883" lon="2.22769">
        <ele>83.2</ele>
        <time>2026-03-20T15:05:57Z</time>
      </trkpt>
      <trkpt lat="48.5088" lon="2.22765">
        <ele>83.2</ele>
        <time>2026-03-20T15:05:58Z</time>
      </trkpt>
      <trkpt lat="48.50876" lon="2.22761">
        <ele>83.4</ele>
        <time>2026-03-20T15:05:59Z</time>
      </trkpt>
      <trkpt lat="48.50873" lon="2.22757">
        <ele>82.8</ele>
        <time>2026-03-20T15:06:00Z</time>
      </trkpt>
      <trkpt lat="48.50869" lon="2.22753">
        <ele>82.8</ele>
        <time>2026-03-20T15:06:01Z</time>
      </trkpt>
      <trkpt lat="48.50866" lon="2.22749">
        <ele>82.8</ele>
        <time>2026-03-20T15:06:02Z</time>
      </trkpt>
      <trkpt lat="48.50862" lon="2.22745">
        <ele>83.2</ele>
        <time>2026-03-20T15:06:03Z</time>
      </trkpt>
      <trkpt lat="48.50858" lon="2.22741">
        <ele>83</ele>
        <time>2026-03-20T15:06:04Z</time>
      </trkpt>
      <trkpt lat="48.50853" lon="2.22737">
        <ele>83</ele>
        <time>2026-03-20T15:06:05Z</time>
      </trkpt>
      <trkpt lat="48.5085" lon="2.22732">
        <ele>83</ele>
        <time>2026-03-20T15:06:06Z</time>
      </trkpt>
      <trkpt lat="48.50846" lon="2.22728">
        <ele>83</ele>
        <time>2026-03-20T15:06:07Z</time>
      </trkpt>
      <trkpt lat="48.50841" lon="2.22724">
        <ele>82.4</ele>
        <time>2026-03-20T15:06:08Z</time>
      </trkpt>
      <trkpt lat="48.50837" lon="2.2272">
        <ele>82.4</ele>
        <time>2026-03-20T15:06:09Z</time>
      </trkpt>
      <trkpt lat="48.50832" lon="2.22716">
        <ele>82.4</ele>
        <time>2026-03-20T15:06:10Z</time>
      </trkpt>
      <trkpt lat="48.50827" lon="2.22712">
        <ele>82.4</ele>
        <time>2026-03-20T15:06:11Z</time>
      </trkpt>
      <trkpt lat="48.50822" lon="2.22708">
        <ele>82.4</ele>
        <time>2026-03-20T15:06:12Z</time>
      </trkpt>
      <trkpt lat="48.50818" lon="2.22703">
        <ele>82.4</ele>
        <time>2026-03-20T15:06:13Z</time>
      </trkpt>
      <trkpt lat="48.50813" lon="2.227">
        <ele>82.4</ele>
        <time>2026-03-20T15:06:14Z</time>
      </trkpt>
      <trkpt lat="48.50808" lon="2.22697">
        <ele>82.4</ele>
        <time>2026-03-20T15:06:15Z</time>
      </trkpt>
      <trkpt lat="48.50804" lon="2.22693">
        <ele>82.2</ele>
        <time>2026-03-20T15:06:16Z</time>
      </trkpt>
      <trkpt lat="48.50799" lon="2.2269">
        <ele>82.2</ele>
        <time>2026-03-20T15:06:17Z</time>
      </trkpt>
      <trkpt lat="48.50794" lon="2.22687">
        <ele>82.2</ele>
        <time>2026-03-20T15:06:18Z</time>
      </trkpt>
      <trkpt lat="48.50789" lon="2.22683">
        <ele>81.4</ele>
        <time>2026-03-20T15:06:19Z</time>
      </trkpt>
      <trkpt lat="48.50784" lon="2.2268">
        <ele>81.6</ele>
        <time>2026-03-20T15:06:20Z</time>
      </trkpt>
      <trkpt lat="48.5078" lon="2.22676">
        <ele>81.6</ele>
        <time>2026-03-20T15:06:21Z</time>
      </trkpt>
      <trkpt lat="48.50775" lon="2.22672">
        <ele>81.6</ele>
        <time>2026-03-20T15:06:22Z</time>
      </trkpt>
      <trkpt lat="48.5077" lon="2.22669">
        <ele>81.6</ele>
        <time>2026-03-20T15:06:23Z</time>
      </trkpt>
      <trkpt lat="48.50766" lon="2.22665">
        <ele>81.8</ele>
        <time>2026-03-20T15:06:24Z</time>
      </trkpt>
      <trkpt lat="48.50761" lon="2.22662">
        <ele>81.8</ele>
        <time>2026-03-20T15:06:25Z</time>
      </trkpt>
      <trkpt lat="48.50757" lon="2.22659">
        <ele>81.8</ele>
        <time>2026-03-20T15:06:26Z</time>
      </trkpt>
      <trkpt lat="48.50753" lon="2.22656">
        <ele>81.6</ele>
        <time>2026-03-20T15:06:27Z</time>
      </trkpt>
      <trkpt lat="48.50749" lon="2.22653">
        <ele>81.8</ele>
        <time>2026-03-20T15:06:28Z</time>
      </trkpt>
      <trkpt lat="48.50745" lon="2.22649">
        <ele>81.8</ele>
        <time>2026-03-20T15:06:29Z</time>
      </trkpt>
      <trkpt lat="48.50741" lon="2.22646">
        <ele>81.8</ele>
        <time>2026-03-20T15:06:30Z</time>
      </trkpt>
      <trkpt lat="48.50736" lon="2.22643">
        <ele>81.8</ele>
        <time>2026-03-20T15:06:31Z</time>
      </trkpt>
      <trkpt lat="48.50732" lon="2.2264">
        <ele>82.4</ele>
        <time>2026-03-20T15:06:32Z</time>
      </trkpt>
      <trkpt lat="48.50728" lon="2.22636">
        <ele>82.4</ele>
        <time>2026-03-20T15:06:33Z</time>
      </trkpt>
      <trkpt lat="48.50723" lon="2.22633">
        <ele>82.4</ele>
        <time>2026-03-20T15:06:34Z</time>
      </trkpt>
      <trkpt lat="48.50719" lon="2.22629">
        <ele>81.6</ele>
        <time>2026-03-20T15:06:35Z</time>
      </trkpt>
      <trkpt lat="48.50714" lon="2.22626">
        <ele>81.8</ele>
        <time>2026-03-20T15:06:36Z</time>
      </trkpt>
      <trkpt lat="48.50709" lon="2.22622">
        <ele>81.8</ele>
        <time>2026-03-20T15:06:37Z</time>
      </trkpt>
      <trkpt lat="48.50705" lon="2.22618">
        <ele>81.8</ele>
        <time>2026-03-20T15:06:38Z</time>
      </trkpt>
      <trkpt lat="48.507" lon="2.22615">
        <ele>82.2</ele>
        <time>2026-03-20T15:06:39Z</time>
      </trkpt>
      <trkpt lat="48.50695" lon="2.22611">
        <ele>82.4</ele>
        <time>2026-03-20T15:06:40Z</time>
      </trkpt>
      <trkpt lat="48.5069" lon="2.22607">
        <ele>82.4</ele>
        <time>2026-03-20T15:06:41Z</time>
      </trkpt>
      <trkpt lat="48.50685" lon="2.22604">
        <ele>82.4</ele>
        <time>2026-03-20T15:06:42Z</time>
      </trkpt>
      <trkpt lat="48.50679" lon="2.226">
        <ele>82.4</ele>
        <time>2026-03-20T15:06:43Z</time>
      </trkpt>
      <trkpt lat="48.50674" lon="2.22597">
        <ele>82.4</ele>
        <time>2026-03-20T15:06:44Z</time>
      </trkpt>
      <trkpt lat="48.50669" lon="2.22593">
        <ele>82.4</ele>
        <time>2026-03-20T15:06:45Z</time>
      </trkpt>
      <trkpt lat="48.50663" lon="2.22588">
        <ele>82.4</ele>
        <time>2026-03-20T15:06:46Z</time>
      </trkpt>
      <trkpt lat="48.50657" lon="2.22584">
        <ele>82.4</ele>
        <time>2026-03-20T15:06:47Z</time>
      </trkpt>
      <trkpt lat="48.50652" lon="2.22581">
        <ele>82.4</ele>
        <time>2026-03-20T15:06:48Z</time>
      </trkpt>
      <trkpt lat="48.50646" lon="2.22577">
        <ele>82.4</ele>
        <time>2026-03-20T15:06:49Z</time>
      </trkpt>
      <trkpt lat="48.5064" lon="2.22573">
        <ele>82.4</ele>
        <time>2026-03-20T15:06:50Z</time>
      </trkpt>
      <trkpt lat="48.50634" lon="2.22569">
        <ele>81.8</ele>
        <time>2026-03-20T15:06:51Z</time>
      </trkpt>
      <trkpt lat="48.50628" lon="2.22566">
        <ele>81.8</ele>
        <time>2026-03-20T15:06:52Z</time>
      </trkpt>
      <trkpt lat="48.50623" lon="2.22562">
        <ele>81.8</ele>
        <time>2026-03-20T15:06:53Z</time>
      </trkpt>
      <trkpt lat="48.50617" lon="2.22558">
        <ele>81.8</ele>
        <time>2026-03-20T15:06:54Z</time>
      </trkpt>
      <trkpt lat="48.50611" lon="2.22555">
        <ele>81.8</ele>
        <time>2026-03-20T15:06:55Z</time>
      </trkpt>
      <trkpt lat="48.50605" lon="2.22551">
        <ele>81.6</ele>
        <time>2026-03-20T15:06:56Z</time>
      </trkpt>
      <trkpt lat="48.50599" lon="2.22547">
        <ele>81.6</ele>
        <time>2026-03-20T15:06:57Z</time>
      </trkpt>
      <trkpt lat="48.50593" lon="2.22543">
        <ele>81.6</ele>
        <time>2026-03-20T15:06:58Z</time>
      </trkpt>
      <trkpt lat="48.50588" lon="2.22539">
        <ele>82.2</ele>
        <time>2026-03-20T15:06:59Z</time>
      </trkpt>
      <trkpt lat="48.50582" lon="2.22536">
        <ele>82</ele>
        <time>2026-03-20T15:07:00Z</time>
      </trkpt>
      <trkpt lat="48.50576" lon="2.22532">
        <ele>82</ele>
        <time>2026-03-20T15:07:01Z</time>
      </trkpt>
      <trkpt lat="48.5057" lon="2.22529">
        <ele>82</ele>
        <time>2026-03-20T15:07:02Z</time>
      </trkpt>
      <trkpt lat="48.50564" lon="2.22525">
        <ele>81.2</ele>
        <time>2026-03-20T15:07:03Z</time>
      </trkpt>
      <trkpt lat="48.50559" lon="2.22521">
        <ele>81.2</ele>
        <time>2026-03-20T15:07:04Z</time>
      </trkpt>
      <trkpt lat="48.50553" lon="2.22517">
        <ele>81.2</ele>
        <time>2026-03-20T15:07:05Z</time>
      </trkpt>
      <trkpt lat="48.50547" lon="2.22513">
        <ele>81.2</ele>
        <time>2026-03-20T15:07:06Z</time>
      </trkpt>
      <trkpt lat="48.50541" lon="2.2251">
        <ele>81.8</ele>
        <time>2026-03-20T15:07:07Z</time>
      </trkpt>
      <trkpt lat="48.50536" lon="2.22506">
        <ele>82.2</ele>
        <time>2026-03-20T15:07:08Z</time>
      </trkpt>
      <trkpt lat="48.5053" lon="2.22501">
        <ele>82.2</ele>
        <time>2026-03-20T15:07:09Z</time>
      </trkpt>
      <trkpt lat="48.50524" lon="2.22497">
        <ele>82.2</ele>
        <time>2026-03-20T15:07:10Z</time>
      </trkpt>
      <trkpt lat="48.50518" lon="2.22493">
        <ele>82.4</ele>
        <time>2026-03-20T15:07:11Z</time>
      </trkpt>
      <trkpt lat="48.50512" lon="2.22488">
        <ele>81.6</ele>
        <time>2026-03-20T15:07:12Z</time>
      </trkpt>
      <trkpt lat="48.50506" lon="2.22484">
        <ele>81.6</ele>
        <time>2026-03-20T15:07:13Z</time>
      </trkpt>
      <trkpt lat="48.50501" lon="2.2248">
        <ele>81.6</ele>
        <time>2026-03-20T15:07:14Z</time>
      </trkpt>
      <trkpt lat="48.50495" lon="2.22475">
        <ele>81.6</ele>
        <time>2026-03-20T15:07:15Z</time>
      </trkpt>
      <trkpt lat="48.50489" lon="2.2247">
        <ele>81.2</ele>
        <time>2026-03-20T15:07:16Z</time>
      </trkpt>
      <trkpt lat="48.50483" lon="2.22465">
        <ele>81.2</ele>
        <time>2026-03-20T15:07:17Z</time>
      </trkpt>
      <trkpt lat="48.50478" lon="2.2246">
        <ele>81.2</ele>
        <time>2026-03-20T15:07:18Z</time>
      </trkpt>
      <trkpt lat="48.50472" lon="2.22454">
        <ele>81.2</ele>
        <time>2026-03-20T15:07:19Z</time>
      </trkpt>
      <trkpt lat="48.50467" lon="2.22448">
        <ele>81.6</ele>
        <time>2026-03-20T15:07:20Z</time>
      </trkpt>
      <trkpt lat="48.50462" lon="2.22441">
        <ele>81.6</ele>
        <time>2026-03-20T15:07:21Z</time>
      </trkpt>
      <trkpt lat="48.50457" lon="2.22435">
        <ele>81.6</ele>
        <time>2026-03-20T15:07:22Z</time>
      </trkpt>
      <trkpt lat="48.50451" lon="2.22428">
        <ele>80.6</ele>
        <time>2026-03-20T15:07:23Z</time>
      </trkpt>
      <trkpt lat="48.50446" lon="2.22422">
        <ele>80.8</ele>
        <time>2026-03-20T15:07:24Z</time>
      </trkpt>
      <trkpt lat="48.50441" lon="2.22415">
        <ele>80.8</ele>
        <time>2026-03-20T15:07:25Z</time>
      </trkpt>
      <trkpt lat="48.50435" lon="2.22409">
        <ele>80.8</ele>
        <time>2026-03-20T15:07:26Z</time>
      </trkpt>
      <trkpt lat="48.5043" lon="2.22402">
        <ele>79.8</ele>
        <time>2026-03-20T15:07:27Z</time>
      </trkpt>
      <trkpt lat="48.50424" lon="2.22395">
        <ele>78.8</ele>
        <time>2026-03-20T15:07:28Z</time>
      </trkpt>
      <trkpt lat="48.50419" lon="2.22388">
        <ele>78.8</ele>
        <time>2026-03-20T15:07:29Z</time>
      </trkpt>
      <trkpt lat="48.50413" lon="2.22379">
        <ele>78.8</ele>
        <time>2026-03-20T15:07:30Z</time>
      </trkpt>
      <trkpt lat="48.50409" lon="2.22372">
        <ele>78.4</ele>
        <time>2026-03-20T15:07:31Z</time>
      </trkpt>
      <trkpt lat="48.50403" lon="2.22364">
        <ele>77.8</ele>
        <time>2026-03-20T15:07:32Z</time>
      </trkpt>
      <trkpt lat="48.50397" lon="2.22356">
        <ele>77.8</ele>
        <time>2026-03-20T15:07:33Z</time>
      </trkpt>
      <trkpt lat="48.5039" lon="2.22348">
        <ele>77.8</ele>
        <time>2026-03-20T15:07:34Z</time>
      </trkpt>
      <trkpt lat="48.50384" lon="2.2234">
        <ele>76.8</ele>
        <time>2026-03-20T15:07:35Z</time>
      </trkpt>
      <trkpt lat="48.50378" lon="2.22332">
        <ele>75</ele>
        <time>2026-03-20T15:07:36Z</time>
      </trkpt>
      <trkpt lat="48.50372" lon="2.22324">
        <ele>75</ele>
        <time>2026-03-20T15:07:37Z</time>
      </trkpt>
      <trkpt lat="48.50366" lon="2.22316">
        <ele>75</ele>
        <time>2026-03-20T15:07:38Z</time>
      </trkpt>
      <trkpt lat="48.50359" lon="2.22308">
        <ele>75</ele>
        <time>2026-03-20T15:07:39Z</time>
      </trkpt>
      <trkpt lat="48.50352" lon="2.22301">
        <ele>73.2</ele>
        <time>2026-03-20T15:07:40Z</time>
      </trkpt>
      <trkpt lat="48.50345" lon="2.22293">
        <ele>73.2</ele>
        <time>2026-03-20T15:07:41Z</time>
      </trkpt>
      <trkpt lat="48.50339" lon="2.22285">
        <ele>73.2</ele>
        <time>2026-03-20T15:07:42Z</time>
      </trkpt>
      <trkpt lat="48.50332" lon="2.22277">
        <ele>74.2</ele>
        <time>2026-03-20T15:07:43Z</time>
      </trkpt>
      <trkpt lat="48.50326" lon="2.2227">
        <ele>72.8</ele>
        <time>2026-03-20T15:07:44Z</time>
      </trkpt>
      <trkpt lat="48.50319" lon="2.22263">
        <ele>72.8</ele>
        <time>2026-03-20T15:07:45Z</time>
      </trkpt>
      <trkpt lat="48.50313" lon="2.22257">
        <ele>72.8</ele>
        <time>2026-03-20T15:07:46Z</time>
      </trkpt>
      <trkpt lat="48.50309" lon="2.22252">
        <ele>73.8</ele>
        <time>2026-03-20T15:07:47Z</time>
      </trkpt>
      <trkpt lat="48.50306" lon="2.22246">
        <ele>75.4</ele>
        <time>2026-03-20T15:07:48Z</time>
      </trkpt>
      <trkpt lat="48.50305" lon="2.2224">
        <ele>75.4</ele>
        <time>2026-03-20T15:07:49Z</time>
      </trkpt>
      <trkpt lat="48.50306" lon="2.22234">
        <ele>75.4</ele>
        <time>2026-03-20T15:07:50Z</time>
      </trkpt>
      <trkpt lat="48.50308" lon="2.22229">
        <ele>75.4</ele>
        <time>2026-03-20T15:07:51Z</time>
      </trkpt>
      <trkpt lat="48.5031" lon="2.22224">
        <ele>75</ele>
        <time>2026-03-20T15:07:52Z</time>
      </trkpt>
      <trkpt lat="48.50313" lon="2.22219">
        <ele>75</ele>
        <time>2026-03-20T15:07:53Z</time>
      </trkpt>
      <trkpt lat="48.50315" lon="2.22214">
        <ele>75</ele>
        <time>2026-03-20T15:07:54Z</time>
      </trkpt>
      <trkpt lat="48.50318" lon="2.22209">
        <ele>75</ele>
        <time>2026-03-20T15:07:55Z</time>
      </trkpt>
      <trkpt lat="48.5032" lon="2.22204">
        <ele>75.4</ele>
        <time>2026-03-20T15:07:56Z</time>
      </trkpt>
      <trkpt lat="48.50323" lon="2.222">
        <ele>75.4</ele>
        <time>2026-03-20T15:07:57Z</time>
      </trkpt>
      <trkpt lat="48.50326" lon="2.22194">
        <ele>75.4</ele>
        <time>2026-03-20T15:07:58Z</time>
      </trkpt>
      <trkpt lat="48.50328" lon="2.2219">
        <ele>75.2</ele>
        <time>2026-03-20T15:07:59Z</time>
      </trkpt>
      <trkpt lat="48.50331" lon="2.22186">
        <ele>74.2</ele>
        <time>2026-03-20T15:08:00Z</time>
      </trkpt>
      <trkpt lat="48.50334" lon="2.22182">
        <ele>74.2</ele>
        <time>2026-03-20T15:08:01Z</time>
      </trkpt>
      <trkpt lat="48.50337" lon="2.22178">
        <ele>74.2</ele>
        <time>2026-03-20T15:08:02Z</time>
      </trkpt>
      <trkpt lat="48.50341" lon="2.22175">
        <ele>74.2</ele>
        <time>2026-03-20T15:08:03Z</time>
      </trkpt>
      <trkpt lat="48.50344" lon="2.2217">
        <ele>72.4</ele>
        <time>2026-03-20T15:08:04Z</time>
      </trkpt>
      <trkpt lat="48.50347" lon="2.22165">
        <ele>72.4</ele>
        <time>2026-03-20T15:08:05Z</time>
      </trkpt>
      <trkpt lat="48.50352" lon="2.22159">
        <ele>72.4</ele>
        <time>2026-03-20T15:08:06Z</time>
      </trkpt>
      <trkpt lat="48.50356" lon="2.22153">
        <ele>72.4</ele>
        <time>2026-03-20T15:08:07Z</time>
      </trkpt>
      <trkpt lat="48.50361" lon="2.22146">
        <ele>72</ele>
        <time>2026-03-20T15:08:08Z</time>
      </trkpt>
      <trkpt lat="48.50365" lon="2.2214">
        <ele>72</ele>
        <time>2026-03-20T15:08:09Z</time>
      </trkpt>
      <trkpt lat="48.50369" lon="2.22132">
        <ele>72</ele>
        <time>2026-03-20T15:08:10Z</time>
      </trkpt>
      <trkpt lat="48.50373" lon="2.22125">
        <ele>72.6</ele>
        <time>2026-03-20T15:08:11Z</time>
      </trkpt>
      <trkpt lat="48.50378" lon="2.22118">
        <ele>71.8</ele>
        <time>2026-03-20T15:08:12Z</time>
      </trkpt>
      <trkpt lat="48.50382" lon="2.22111">
        <ele>71.8</ele>
        <time>2026-03-20T15:08:13Z</time>
      </trkpt>
      <trkpt lat="48.50386" lon="2.22103">
        <ele>71.8</ele>
        <time>2026-03-20T15:08:14Z</time>
      </trkpt>
      <trkpt lat="48.5039" lon="2.22096">
        <ele>72.4</ele>
        <time>2026-03-20T15:08:15Z</time>
      </trkpt>
      <trkpt lat="48.50394" lon="2.22089">
        <ele>73</ele>
        <time>2026-03-20T15:08:16Z</time>
      </trkpt>
      <trkpt lat="48.50398" lon="2.22082">
        <ele>73</ele>
        <time>2026-03-20T15:08:17Z</time>
      </trkpt>
      <trkpt lat="48.50403" lon="2.22074">
        <ele>73</ele>
        <time>2026-03-20T15:08:18Z</time>
      </trkpt>
      <trkpt lat="48.50407" lon="2.22067">
        <ele>72.4</ele>
        <time>2026-03-20T15:08:19Z</time>
      </trkpt>
      <trkpt lat="48.50411" lon="2.2206">
        <ele>72.4</ele>
        <time>2026-03-20T15:08:20Z</time>
      </trkpt>
      <trkpt lat="48.50416" lon="2.22053">
        <ele>72.4</ele>
        <time>2026-03-20T15:08:21Z</time>
      </trkpt>
      <trkpt lat="48.5042" lon="2.22047">
        <ele>72.4</ele>
        <time>2026-03-20T15:08:22Z</time>
      </trkpt>
      <trkpt lat="48.50424" lon="2.2204">
        <ele>72.4</ele>
        <time>2026-03-20T15:08:23Z</time>
      </trkpt>
      <trkpt lat="48.50428" lon="2.22033">
        <ele>73.2</ele>
        <time>2026-03-20T15:08:24Z</time>
      </trkpt>
      <trkpt lat="48.50431" lon="2.22026">
        <ele>73.2</ele>
        <time>2026-03-20T15:08:25Z</time>
      </trkpt>
      <trkpt lat="48.50435" lon="2.22019">
        <ele>73.2</ele>
        <time>2026-03-20T15:08:26Z</time>
      </trkpt>
      <trkpt lat="48.50439" lon="2.22012">
        <ele>72.2</ele>
        <time>2026-03-20T15:08:27Z</time>
      </trkpt>
      <trkpt lat="48.50444" lon="2.22005">
        <ele>72.4</ele>
        <time>2026-03-20T15:08:28Z</time>
      </trkpt>
      <trkpt lat="48.50448" lon="2.21997">
        <ele>72.4</ele>
        <time>2026-03-20T15:08:29Z</time>
      </trkpt>
      <trkpt lat="48.50452" lon="2.2199">
        <ele>72.4</ele>
        <time>2026-03-20T15:08:30Z</time>
      </trkpt>
      <trkpt lat="48.50456" lon="2.21983">
        <ele>72.6</ele>
        <time>2026-03-20T15:08:31Z</time>
      </trkpt>
      <trkpt lat="48.5046" lon="2.21976">
        <ele>73.2</ele>
        <time>2026-03-20T15:08:32Z</time>
      </trkpt>
      <trkpt lat="48.50464" lon="2.21969">
        <ele>73.2</ele>
        <time>2026-03-20T15:08:33Z</time>
      </trkpt>
      <trkpt lat="48.50468" lon="2.21962">
        <ele>73.2</ele>
        <time>2026-03-20T15:08:34Z</time>
      </trkpt>
      <trkpt lat="48.50472" lon="2.21955">
        <ele>72.8</ele>
        <time>2026-03-20T15:08:35Z</time>
      </trkpt>
      <trkpt lat="48.50476" lon="2.21948">
        <ele>70</ele>
        <time>2026-03-20T15:08:36Z</time>
      </trkpt>
      <trkpt lat="48.5048" lon="2.21941">
        <ele>70</ele>
        <time>2026-03-20T15:08:37Z</time>
      </trkpt>
      <trkpt lat="48.50484" lon="2.21934">
        <ele>70</ele>
        <time>2026-03-20T15:08:38Z</time>
      </trkpt>
      <trkpt lat="48.50488" lon="2.21928">
        <ele>71</ele>
        <time>2026-03-20T15:08:39Z</time>
      </trkpt>
      <trkpt lat="48.50492" lon="2.21922">
        <ele>72.6</ele>
        <time>2026-03-20T15:08:40Z</time>
      </trkpt>
      <trkpt lat="48.50496" lon="2.21915">
        <ele>72.6</ele>
        <time>2026-03-20T15:08:41Z</time>
      </trkpt>
      <trkpt lat="48.505" lon="2.21909">
        <ele>72.6</ele>
        <time>2026-03-20T15:08:42Z</time>
      </trkpt>
      <trkpt lat="48.50504" lon="2.21902">
        <ele>72.6</ele>
        <time>2026-03-20T15:08:43Z</time>
      </trkpt>
      <trkpt lat="48.50508" lon="2.21895">
        <ele>73.2</ele>
        <time>2026-03-20T15:08:44Z</time>
      </trkpt>
      <trkpt lat="48.50512" lon="2.21888">
        <ele>73.2</ele>
        <time>2026-03-20T15:08:45Z</time>
      </trkpt>
      <trkpt lat="48.50516" lon="2.21881">
        <ele>73.2</ele>
        <time>2026-03-20T15:08:46Z</time>
      </trkpt>
      <trkpt lat="48.5052" lon="2.21874">
        <ele>73.2</ele>
        <time>2026-03-20T15:08:47Z</time>
      </trkpt>
      <trkpt lat="48.50524" lon="2.21867">
        <ele>73.8</ele>
        <time>2026-03-20T15:08:48Z</time>
      </trkpt>
      <trkpt lat="48.50528" lon="2.2186">
        <ele>73.8</ele>
        <time>2026-03-20T15:08:49Z</time>
      </trkpt>
      <trkpt lat="48.50531" lon="2.21854">
        <ele>73.8</ele>
        <time>2026-03-20T15:08:50Z</time>
      </trkpt>
      <trkpt lat="48.50534" lon="2.21848">
        <ele>73.2</ele>
        <time>2026-03-20T15:08:51Z</time>
      </trkpt>
      <trkpt lat="48.50537" lon="2.21842">
        <ele>73.4</ele>
        <time>2026-03-20T15:08:52Z</time>
      </trkpt>
      <trkpt lat="48.5054" lon="2.21836">
        <ele>73.4</ele>
        <time>2026-03-20T15:08:53Z</time>
      </trkpt>
      <trkpt lat="48.50543" lon="2.21831">
        <ele>73.4</ele>
        <time>2026-03-20T15:08:54Z</time>
      </trkpt>
      <trkpt lat="48.50545" lon="2.21825">
        <ele>74.2</ele>
        <time>2026-03-20T15:08:55Z</time>
      </trkpt>
      <trkpt lat="48.50548" lon="2.2182">
        <ele>73.8</ele>
        <time>2026-03-20T15:08:56Z</time>
      </trkpt>
      <trkpt lat="48.50552" lon="2.21814">
        <ele>73.8</ele>
        <time>2026-03-20T15:08:57Z</time>
      </trkpt>
      <trkpt lat="48.50555" lon="2.21808">
        <ele>73.8</ele>
        <time>2026-03-20T15:08:58Z</time>
      </trkpt>
      <trkpt lat="48.50558" lon="2.21802">
        <ele>74.4</ele>
        <time>2026-03-20T15:08:59Z</time>
      </trkpt>
      <trkpt lat="48.50561" lon="2.21797">
        <ele>74.6</ele>
        <time>2026-03-20T15:09:00Z</time>
      </trkpt>
      <trkpt lat="48.50564" lon="2.21791">
        <ele>74.6</ele>
        <time>2026-03-20T15:09:01Z</time>
      </trkpt>
      <trkpt lat="48.50566" lon="2.21785">
        <ele>74.6</ele>
        <time>2026-03-20T15:09:02Z</time>
      </trkpt>
      <trkpt lat="48.50569" lon="2.21779">
        <ele>74.6</ele>
        <time>2026-03-20T15:09:03Z</time>
      </trkpt>
      <trkpt lat="48.50571" lon="2.21774">
        <ele>74.4</ele>
        <time>2026-03-20T15:09:04Z</time>
      </trkpt>
      <trkpt lat="48.50574" lon="2.21768">
        <ele>74.4</ele>
        <time>2026-03-20T15:09:05Z</time>
      </trkpt>
      <trkpt lat="48.50576" lon="2.21761">
        <ele>74.4</ele>
        <time>2026-03-20T15:09:06Z</time>
      </trkpt>
      <trkpt lat="48.50579" lon="2.21756">
        <ele>74.4</ele>
        <time>2026-03-20T15:09:07Z</time>
      </trkpt>
      <trkpt lat="48.50582" lon="2.2175">
        <ele>74.8</ele>
        <time>2026-03-20T15:09:08Z</time>
      </trkpt>
      <trkpt lat="48.50585" lon="2.21745">
        <ele>74.8</ele>
        <time>2026-03-20T15:09:09Z</time>
      </trkpt>
      <trkpt lat="48.50587" lon="2.21739">
        <ele>74.8</ele>
        <time>2026-03-20T15:09:10Z</time>
      </trkpt>
      <trkpt lat="48.50589" lon="2.21733">
        <ele>75.6</ele>
        <time>2026-03-20T15:09:11Z</time>
      </trkpt>
      <trkpt lat="48.50591" lon="2.21728">
        <ele>75.8</ele>
        <time>2026-03-20T15:09:12Z</time>
      </trkpt>
      <trkpt lat="48.50593" lon="2.21723">
        <ele>75.8</ele>
        <time>2026-03-20T15:09:13Z</time>
      </trkpt>
      <trkpt lat="48.50596" lon="2.21718">
        <ele>75.8</ele>
        <time>2026-03-20T15:09:14Z</time>
      </trkpt>
      <trkpt lat="48.50598" lon="2.21712">
        <ele>75.8</ele>
        <time>2026-03-20T15:09:15Z</time>
      </trkpt>
      <trkpt lat="48.50601" lon="2.21707">
        <ele>76</ele>
        <time>2026-03-20T15:09:16Z</time>
      </trkpt>
      <trkpt lat="48.50603" lon="2.21701">
        <ele>76</ele>
        <time>2026-03-20T15:09:17Z</time>
      </trkpt>
      <trkpt lat="48.50606" lon="2.21695">
        <ele>76</ele>
        <time>2026-03-20T15:09:18Z</time>
      </trkpt>
      <trkpt lat="48.50608" lon="2.21689">
        <ele>76</ele>
        <time>2026-03-20T15:09:19Z</time>
      </trkpt>
      <trkpt lat="48.50611" lon="2.21682">
        <ele>76.8</ele>
        <time>2026-03-20T15:09:20Z</time>
      </trkpt>
      <trkpt lat="48.50613" lon="2.21676">
        <ele>76.8</ele>
        <time>2026-03-20T15:09:21Z</time>
      </trkpt>
      <trkpt lat="48.50616" lon="2.21671">
        <ele>76.8</ele>
        <time>2026-03-20T15:09:22Z</time>
      </trkpt>
      <trkpt lat="48.50618" lon="2.21665">
        <ele>77.2</ele>
        <time>2026-03-20T15:09:23Z</time>
      </trkpt>
      <trkpt lat="48.50621" lon="2.2166">
        <ele>77.4</ele>
        <time>2026-03-20T15:09:24Z</time>
      </trkpt>
      <trkpt lat="48.50623" lon="2.21655">
        <ele>77.4</ele>
        <time>2026-03-20T15:09:25Z</time>
      </trkpt>
      <trkpt lat="48.50625" lon="2.21651">
        <ele>77.4</ele>
        <time>2026-03-20T15:09:26Z</time>
      </trkpt>
      <trkpt lat="48.50628" lon="2.21647">
        <ele>78.4</ele>
        <time>2026-03-20T15:09:27Z</time>
      </trkpt>
      <trkpt lat="48.5063" lon="2.21643">
        <ele>78.8</ele>
        <time>2026-03-20T15:09:28Z</time>
      </trkpt>
      <trkpt lat="48.50632" lon="2.21638">
        <ele>78.8</ele>
        <time>2026-03-20T15:09:29Z</time>
      </trkpt>
      <trkpt lat="48.50634" lon="2.21634">
        <ele>78.8</ele>
        <time>2026-03-20T15:09:30Z</time>
      </trkpt>
      <trkpt lat="48.50636" lon="2.21629">
        <ele>79.6</ele>
        <time>2026-03-20T15:09:31Z</time>
      </trkpt>
      <trkpt lat="48.50638" lon="2.21624">
        <ele>78.6</ele>
        <time>2026-03-20T15:09:32Z</time>
      </trkpt>
      <trkpt lat="48.5064" lon="2.21617">
        <ele>78.6</ele>
        <time>2026-03-20T15:09:33Z</time>
      </trkpt>
      <trkpt lat="48.50642" lon="2.21611">
        <ele>78.6</ele>
        <time>2026-03-20T15:09:34Z</time>
      </trkpt>
      <trkpt lat="48.50644" lon="2.21605">
        <ele>79.6</ele>
        <time>2026-03-20T15:09:35Z</time>
      </trkpt>
      <trkpt lat="48.50646" lon="2.216">
        <ele>80</ele>
        <time>2026-03-20T15:09:36Z</time>
      </trkpt>
      <trkpt lat="48.50648" lon="2.21595">
        <ele>80</ele>
        <time>2026-03-20T15:09:37Z</time>
      </trkpt>
      <trkpt lat="48.5065" lon="2.21591">
        <ele>80</ele>
        <time>2026-03-20T15:09:38Z</time>
      </trkpt>
      <trkpt lat="48.50652" lon="2.21587">
        <ele>81</ele>
        <time>2026-03-20T15:09:39Z</time>
      </trkpt>
      <trkpt lat="48.50654" lon="2.21583">
        <ele>81.2</ele>
        <time>2026-03-20T15:09:40Z</time>
      </trkpt>
      <trkpt lat="48.50656" lon="2.21578">
        <ele>81.2</ele>
        <time>2026-03-20T15:09:41Z</time>
      </trkpt>
      <trkpt lat="48.50658" lon="2.21572">
        <ele>81.2</ele>
        <time>2026-03-20T15:09:42Z</time>
      </trkpt>
      <trkpt lat="48.5066" lon="2.21567">
        <ele>82</ele>
        <time>2026-03-20T15:09:43Z</time>
      </trkpt>
      <trkpt lat="48.50661" lon="2.21563">
        <ele>81.8</ele>
        <time>2026-03-20T15:09:44Z</time>
      </trkpt>
      <trkpt lat="48.50663" lon="2.21558">
        <ele>81.8</ele>
        <time>2026-03-20T15:09:45Z</time>
      </trkpt>
      <trkpt lat="48.50666" lon="2.21554">
        <ele>81.8</ele>
        <time>2026-03-20T15:09:46Z</time>
      </trkpt>
      <trkpt lat="48.50668" lon="2.21549">
        <ele>82.2</ele>
        <time>2026-03-20T15:09:47Z</time>
      </trkpt>
      <trkpt lat="48.5067" lon="2.21544">
        <ele>82.4</ele>
        <time>2026-03-20T15:09:48Z</time>
      </trkpt>
      <trkpt lat="48.50672" lon="2.2154">
        <ele>82.4</ele>
        <time>2026-03-20T15:09:49Z</time>
      </trkpt>
      <trkpt lat="48.50673" lon="2.21535">
        <ele>82.4</ele>
        <time>2026-03-20T15:09:50Z</time>
      </trkpt>
      <trkpt lat="48.50675" lon="2.21531">
        <ele>82.4</ele>
        <time>2026-03-20T15:09:51Z</time>
      </trkpt>
      <trkpt lat="48.50676" lon="2.21527">
        <ele>82.8</ele>
        <time>2026-03-20T15:09:52Z</time>
      </trkpt>
      <trkpt lat="48.50678" lon="2.21523">
        <ele>82.8</ele>
        <time>2026-03-20T15:09:53Z</time>
      </trkpt>
      <trkpt lat="48.5068" lon="2.21518">
        <ele>82.8</ele>
        <time>2026-03-20T15:09:54Z</time>
      </trkpt>
      <trkpt lat="48.50682" lon="2.21514">
        <ele>83.8</ele>
        <time>2026-03-20T15:09:55Z</time>
      </trkpt>
      <trkpt lat="48.50684" lon="2.2151">
        <ele>83.6</ele>
        <time>2026-03-20T15:09:56Z</time>
      </trkpt>
      <trkpt lat="48.50686" lon="2.21505">
        <ele>83.6</ele>
        <time>2026-03-20T15:09:57Z</time>
      </trkpt>
      <trkpt lat="48.50688" lon="2.21501">
        <ele>83.6</ele>
        <time>2026-03-20T15:09:58Z</time>
      </trkpt>
      <trkpt lat="48.5069" lon="2.21496">
        <ele>84</ele>
        <time>2026-03-20T15:09:59Z</time>
      </trkpt>
      <trkpt lat="48.50692" lon="2.21492">
        <ele>84.4</ele>
        <time>2026-03-20T15:10:00Z</time>
      </trkpt>
      <trkpt lat="48.50693" lon="2.21487">
        <ele>84.4</ele>
        <time>2026-03-20T15:10:01Z</time>
      </trkpt>
      <trkpt lat="48.50696" lon="2.21484">
        <ele>84.4</ele>
        <time>2026-03-20T15:10:02Z</time>
      </trkpt>
      <trkpt lat="48.50698" lon="2.2148">
        <ele>85</ele>
        <time>2026-03-20T15:10:03Z</time>
      </trkpt>
      <trkpt lat="48.507" lon="2.21476">
        <ele>85</ele>
        <time>2026-03-20T15:10:04Z</time>
      </trkpt>
      <trkpt lat="48.50702" lon="2.21471">
        <ele>85</ele>
        <time>2026-03-20T15:10:05Z</time>
      </trkpt>
      <trkpt lat="48.50703" lon="2.21467">
        <ele>85</ele>
        <time>2026-03-20T15:10:06Z</time>
      </trkpt>
      <trkpt lat="48.50705" lon="2.21463">
        <ele>85</ele>
        <time>2026-03-20T15:10:07Z</time>
      </trkpt>
      <trkpt lat="48.50708" lon="2.21458">
        <ele>85.8</ele>
        <time>2026-03-20T15:10:08Z</time>
      </trkpt>
      <trkpt lat="48.50709" lon="2.21454">
        <ele>85.8</ele>
        <time>2026-03-20T15:10:09Z</time>
      </trkpt>
      <trkpt lat="48.50711" lon="2.2145">
        <ele>85.8</ele>
        <time>2026-03-20T15:10:10Z</time>
      </trkpt>
      <trkpt lat="48.50712" lon="2.21446">
        <ele>85.8</ele>
        <time>2026-03-20T15:10:11Z</time>
      </trkpt>
      <trkpt lat="48.50714" lon="2.21442">
        <ele>86</ele>
        <time>2026-03-20T15:10:12Z</time>
      </trkpt>
      <trkpt lat="48.50716" lon="2.21438">
        <ele>86</ele>
        <time>2026-03-20T15:10:13Z</time>
      </trkpt>
      <trkpt lat="48.50717" lon="2.21434">
        <ele>86</ele>
        <time>2026-03-20T15:10:14Z</time>
      </trkpt>
      <trkpt lat="48.50719" lon="2.21431">
        <ele>86.6</ele>
        <time>2026-03-20T15:10:15Z</time>
      </trkpt>
      <trkpt lat="48.5072" lon="2.21427">
        <ele>86.8</ele>
        <time>2026-03-20T15:10:16Z</time>
      </trkpt>
      <trkpt lat="48.50722" lon="2.21423">
        <ele>86.8</ele>
        <time>2026-03-20T15:10:17Z</time>
      </trkpt>
      <trkpt lat="48.50723" lon="2.2142">
        <ele>86.8</ele>
        <time>2026-03-20T15:10:18Z</time>
      </trkpt>
      <trkpt lat="48.50725" lon="2.21416">
        <ele>87.4</ele>
        <time>2026-03-20T15:10:19Z</time>
      </trkpt>
      <trkpt lat="48.50726" lon="2.21412">
        <ele>87.6</ele>
        <time>2026-03-20T15:10:20Z</time>
      </trkpt>
      <trkpt lat="48.50728" lon="2.21408">
        <ele>87.6</ele>
        <time>2026-03-20T15:10:21Z</time>
      </trkpt>
      <trkpt lat="48.5073" lon="2.21404">
        <ele>87.6</ele>
        <time>2026-03-20T15:10:22Z</time>
      </trkpt>
      <trkpt lat="48.50731" lon="2.21401">
        <ele>87.6</ele>
        <time>2026-03-20T15:10:23Z</time>
      </trkpt>
      <trkpt lat="48.50733" lon="2.21397">
        <ele>88.2</ele>
        <time>2026-03-20T15:10:24Z</time>
      </trkpt>
      <trkpt lat="48.50734" lon="2.21393">
        <ele>88.2</ele>
        <time>2026-03-20T15:10:25Z</time>
      </trkpt>
      <trkpt lat="48.50736" lon="2.21389">
        <ele>88.2</ele>
        <time>2026-03-20T15:10:26Z</time>
      </trkpt>
      <trkpt lat="48.50738" lon="2.21385">
        <ele>89</ele>
        <time>2026-03-20T15:10:27Z</time>
      </trkpt>
      <trkpt lat="48.50739" lon="2.21381">
        <ele>88.6</ele>
        <time>2026-03-20T15:10:28Z</time>
      </trkpt>
      <trkpt lat="48.50741" lon="2.21377">
        <ele>88.6</ele>
        <time>2026-03-20T15:10:29Z</time>
      </trkpt>
      <trkpt lat="48.50743" lon="2.21373">
        <ele>88.6</ele>
        <time>2026-03-20T15:10:30Z</time>
      </trkpt>
      <trkpt lat="48.50744" lon="2.21369">
        <ele>88.6</ele>
        <time>2026-03-20T15:10:31Z</time>
      </trkpt>
      <trkpt lat="48.50746" lon="2.21365">
        <ele>89.4</ele>
        <time>2026-03-20T15:10:32Z</time>
      </trkpt>
      <trkpt lat="48.50747" lon="2.21361">
        <ele>89.4</ele>
        <time>2026-03-20T15:10:33Z</time>
      </trkpt>
      <trkpt lat="48.50749" lon="2.21357">
        <ele>89.4</ele>
        <time>2026-03-20T15:10:34Z</time>
      </trkpt>
      <trkpt lat="48.50751" lon="2.21353">
        <ele>89.4</ele>
        <time>2026-03-20T15:10:35Z</time>
      </trkpt>
      <trkpt lat="48.50753" lon="2.21349">
        <ele>90.4</ele>
        <time>2026-03-20T15:10:36Z</time>
      </trkpt>
      <trkpt lat="48.50754" lon="2.21345">
        <ele>90.4</ele>
        <time>2026-03-20T15:10:37Z</time>
      </trkpt>
      <trkpt lat="48.50756" lon="2.21341">
        <ele>90.4</ele>
        <time>2026-03-20T15:10:38Z</time>
      </trkpt>
      <trkpt lat="48.50758" lon="2.21337">
        <ele>90.4</ele>
        <time>2026-03-20T15:10:39Z</time>
      </trkpt>
      <trkpt lat="48.50759" lon="2.21333">
        <ele>91.4</ele>
        <time>2026-03-20T15:10:40Z</time>
      </trkpt>
      <trkpt lat="48.50761" lon="2.2133">
        <ele>91.4</ele>
        <time>2026-03-20T15:10:41Z</time>
      </trkpt>
      <trkpt lat="48.50763" lon="2.21326">
        <ele>91.4</ele>
        <time>2026-03-20T15:10:42Z</time>
      </trkpt>
      <trkpt lat="48.50765" lon="2.21322">
        <ele>91.4</ele>
        <time>2026-03-20T15:10:43Z</time>
      </trkpt>
      <trkpt lat="48.50766" lon="2.21319">
        <ele>91.8</ele>
        <time>2026-03-20T15:10:44Z</time>
      </trkpt>
      <trkpt lat="48.50768" lon="2.21315">
        <ele>91.8</ele>
        <time>2026-03-20T15:10:45Z</time>
      </trkpt>
      <trkpt lat="48.5077" lon="2.21311">
        <ele>91.8</ele>
        <time>2026-03-20T15:10:46Z</time>
      </trkpt>
      <trkpt lat="48.50772" lon="2.21307">
        <ele>92</ele>
        <time>2026-03-20T15:10:47Z</time>
      </trkpt>
      <trkpt lat="48.50773" lon="2.21303">
        <ele>92.4</ele>
        <time>2026-03-20T15:10:48Z</time>
      </trkpt>
      <trkpt lat="48.50775" lon="2.21299">
        <ele>92.4</ele>
        <time>2026-03-20T15:10:49Z</time>
      </trkpt>
      <trkpt lat="48.50777" lon="2.21295">
        <ele>92.4</ele>
        <time>2026-03-20T15:10:50Z</time>
      </trkpt>
      <trkpt lat="48.50778" lon="2.21291">
        <ele>93</ele>
        <time>2026-03-20T15:10:51Z</time>
      </trkpt>
      <trkpt lat="48.5078" lon="2.21287">
        <ele>93.2</ele>
        <time>2026-03-20T15:10:52Z</time>
      </trkpt>
      <trkpt lat="48.50782" lon="2.21284">
        <ele>93.2</ele>
        <time>2026-03-20T15:10:53Z</time>
      </trkpt>
      <trkpt lat="48.50784" lon="2.2128">
        <ele>93.2</ele>
        <time>2026-03-20T15:10:54Z</time>
      </trkpt>
      <trkpt lat="48.50786" lon="2.21276">
        <ele>93.6</ele>
        <time>2026-03-20T15:10:55Z</time>
      </trkpt>
      <trkpt lat="48.50788" lon="2.21272">
        <ele>93.8</ele>
        <time>2026-03-20T15:10:56Z</time>
      </trkpt>
      <trkpt lat="48.50789" lon="2.21267">
        <ele>93.8</ele>
        <time>2026-03-20T15:10:57Z</time>
      </trkpt>
      <trkpt lat="48.50791" lon="2.21263">
        <ele>93.8</ele>
        <time>2026-03-20T15:10:58Z</time>
      </trkpt>
      <trkpt lat="48.50793" lon="2.21259">
        <ele>94.4</ele>
        <time>2026-03-20T15:10:59Z</time>
      </trkpt>
      <trkpt lat="48.50794" lon="2.21255">
        <ele>94.6</ele>
        <time>2026-03-20T15:11:00Z</time>
      </trkpt>
      <trkpt lat="48.50796" lon="2.21251">
        <ele>94.6</ele>
        <time>2026-03-20T15:11:01Z</time>
      </trkpt>
      <trkpt lat="48.50797" lon="2.21247">
        <ele>94.6</ele>
        <time>2026-03-20T15:11:02Z</time>
      </trkpt>
      <trkpt lat="48.50798" lon="2.21244">
        <ele>95.2</ele>
        <time>2026-03-20T15:11:03Z</time>
      </trkpt>
      <trkpt lat="48.508" lon="2.21241">
        <ele>95.4</ele>
        <time>2026-03-20T15:11:04Z</time>
      </trkpt>
      <trkpt lat="48.50801" lon="2.21237">
        <ele>95.4</ele>
        <time>2026-03-20T15:11:05Z</time>
      </trkpt>
      <trkpt lat="48.50803" lon="2.21234">
        <ele>95.4</ele>
        <time>2026-03-20T15:11:06Z</time>
      </trkpt>
      <trkpt lat="48.50804" lon="2.21231">
        <ele>95.4</ele>
        <time>2026-03-20T15:11:07Z</time>
      </trkpt>
      <trkpt lat="48.50805" lon="2.21228">
        <ele>96</ele>
        <time>2026-03-20T15:11:08Z</time>
      </trkpt>
      <trkpt lat="48.50806" lon="2.21224">
        <ele>96</ele>
        <time>2026-03-20T15:11:09Z</time>
      </trkpt>
      <trkpt lat="48.50808" lon="2.2122">
        <ele>96</ele>
        <time>2026-03-20T15:11:10Z</time>
      </trkpt>
      <trkpt lat="48.50809" lon="2.21216">
        <ele>96</ele>
        <time>2026-03-20T15:11:11Z</time>
      </trkpt>
      <trkpt lat="48.5081" lon="2.21212">
        <ele>96.2</ele>
        <time>2026-03-20T15:11:12Z</time>
      </trkpt>
      <trkpt lat="48.50811" lon="2.21208">
        <ele>96.2</ele>
        <time>2026-03-20T15:11:13Z</time>
      </trkpt>
      <trkpt lat="48.50812" lon="2.21204">
        <ele>96.2</ele>
        <time>2026-03-20T15:11:14Z</time>
      </trkpt>
      <trkpt lat="48.50814" lon="2.212">
        <ele>96.2</ele>
        <time>2026-03-20T15:11:15Z</time>
      </trkpt>
      <trkpt lat="48.50816" lon="2.21195">
        <ele>97.2</ele>
        <time>2026-03-20T15:11:16Z</time>
      </trkpt>
      <trkpt lat="48.50817" lon="2.21191">
        <ele>97.2</ele>
        <time>2026-03-20T15:11:17Z</time>
      </trkpt>
      <trkpt lat="48.50819" lon="2.21187">
        <ele>97.2</ele>
        <time>2026-03-20T15:11:18Z</time>
      </trkpt>
      <trkpt lat="48.5082" lon="2.21182">
        <ele>96.6</ele>
        <time>2026-03-20T15:11:19Z</time>
      </trkpt>
      <trkpt lat="48.50821" lon="2.21178">
        <ele>96.6</ele>
        <time>2026-03-20T15:11:20Z</time>
      </trkpt>
      <trkpt lat="48.50823" lon="2.21174">
        <ele>96.6</ele>
        <time>2026-03-20T15:11:21Z</time>
      </trkpt>
      <trkpt lat="48.50825" lon="2.2117">
        <ele>96.6</ele>
        <time>2026-03-20T15:11:22Z</time>
      </trkpt>
      <trkpt lat="48.50827" lon="2.21166">
        <ele>96.6</ele>
        <time>2026-03-20T15:11:23Z</time>
      </trkpt>
      <trkpt lat="48.50829" lon="2.21162">
        <ele>97.8</ele>
        <time>2026-03-20T15:11:24Z</time>
      </trkpt>
      <trkpt lat="48.50832" lon="2.2116">
        <ele>97.8</ele>
        <time>2026-03-20T15:11:25Z</time>
      </trkpt>
      <trkpt lat="48.50834" lon="2.21157">
        <ele>97.8</ele>
        <time>2026-03-20T15:11:26Z</time>
      </trkpt>
      <trkpt lat="48.50837" lon="2.21155">
        <ele>97.8</ele>
        <time>2026-03-20T15:11:27Z</time>
      </trkpt>
      <trkpt lat="48.50839" lon="2.21154">
        <ele>98.4</ele>
        <time>2026-03-20T15:11:28Z</time>
      </trkpt>
      <trkpt lat="48.50842" lon="2.21151">
        <ele>98.4</ele>
        <time>2026-03-20T15:11:29Z</time>
      </trkpt>
      <trkpt lat="48.50845" lon="2.21148">
        <ele>98.4</ele>
        <time>2026-03-20T15:11:30Z</time>
      </trkpt>
      <trkpt lat="48.50847" lon="2.21146">
        <ele>98.6</ele>
        <time>2026-03-20T15:11:31Z</time>
      </trkpt>
      <trkpt lat="48.5085" lon="2.21144">
        <ele>99.2</ele>
        <time>2026-03-20T15:11:32Z</time>
      </trkpt>
      <trkpt lat="48.50853" lon="2.21142">
        <ele>99.2</ele>
        <time>2026-03-20T15:11:33Z</time>
      </trkpt>
      <trkpt lat="48.50856" lon="2.2114">
        <ele>99.2</ele>
        <time>2026-03-20T15:11:34Z</time>
      </trkpt>
      <trkpt lat="48.50859" lon="2.21138">
        <ele>99.2</ele>
        <time>2026-03-20T15:11:35Z</time>
      </trkpt>
      <trkpt lat="48.50861" lon="2.21136">
        <ele>99.6</ele>
        <time>2026-03-20T15:11:36Z</time>
      </trkpt>
      <trkpt lat="48.50864" lon="2.21134">
        <ele>99.6</ele>
        <time>2026-03-20T15:11:37Z</time>
      </trkpt>
      <trkpt lat="48.50866" lon="2.21133">
        <ele>99.6</ele>
        <time>2026-03-20T15:11:38Z</time>
      </trkpt>
      <trkpt lat="48.50868" lon="2.21133">
        <ele>99.6</ele>
        <time>2026-03-20T15:11:39Z</time>
      </trkpt>
      <trkpt lat="48.5087" lon="2.21131">
        <ele>100</ele>
        <time>2026-03-20T15:11:40Z</time>
      </trkpt>
      <trkpt lat="48.50873" lon="2.21128">
        <ele>100</ele>
        <time>2026-03-20T15:11:41Z</time>
      </trkpt>
      <trkpt lat="48.50875" lon="2.21127">
        <ele>100</ele>
        <time>2026-03-20T15:11:42Z</time>
      </trkpt>
      <trkpt lat="48.50878" lon="2.21123">
        <ele>101</ele>
        <time>2026-03-20T15:11:43Z</time>
      </trkpt>
      <trkpt lat="48.50881" lon="2.21121">
        <ele>100.4</ele>
        <time>2026-03-20T15:11:44Z</time>
      </trkpt>
      <trkpt lat="48.50883" lon="2.21119">
        <ele>100.4</ele>
        <time>2026-03-20T15:11:45Z</time>
      </trkpt>
      <trkpt lat="48.50886" lon="2.21116">
        <ele>100.4</ele>
        <time>2026-03-20T15:11:46Z</time>
      </trkpt>
      <trkpt lat="48.50888" lon="2.21113">
        <ele>101.4</ele>
        <time>2026-03-20T15:11:47Z</time>
      </trkpt>
      <trkpt lat="48.50891" lon="2.21111">
        <ele>102</ele>
        <time>2026-03-20T15:11:48Z</time>
      </trkpt>
      <trkpt lat="48.50894" lon="2.2111">
        <ele>102</ele>
        <time>2026-03-20T15:11:49Z</time>
      </trkpt>
      <trkpt lat="48.50897" lon="2.21108">
        <ele>102</ele>
        <time>2026-03-20T15:11:50Z</time>
      </trkpt>
      <trkpt lat="48.50899" lon="2.21106">
        <ele>102</ele>
        <time>2026-03-20T15:11:51Z</time>
      </trkpt>
      <trkpt lat="48.50902" lon="2.21104">
        <ele>102.4</ele>
        <time>2026-03-20T15:11:52Z</time>
      </trkpt>
      <trkpt lat="48.50905" lon="2.21102">
        <ele>102.4</ele>
        <time>2026-03-20T15:11:53Z</time>
      </trkpt>
      <trkpt lat="48.50908" lon="2.21101">
        <ele>102.4</ele>
        <time>2026-03-20T15:11:54Z</time>
      </trkpt>
      <trkpt lat="48.50911" lon="2.21099">
        <ele>103.4</ele>
        <time>2026-03-20T15:11:55Z</time>
      </trkpt>
      <trkpt lat="48.50914" lon="2.21097">
        <ele>103.2</ele>
        <time>2026-03-20T15:11:56Z</time>
      </trkpt>
      <trkpt lat="48.50916" lon="2.21095">
        <ele>103.2</ele>
        <time>2026-03-20T15:11:57Z</time>
      </trkpt>
      <trkpt lat="48.50919" lon="2.21093">
        <ele>103.2</ele>
        <time>2026-03-20T15:11:58Z</time>
      </trkpt>
      <trkpt lat="48.50922" lon="2.21091">
        <ele>103.2</ele>
        <time>2026-03-20T15:11:59Z</time>
      </trkpt>
      <trkpt lat="48.50925" lon="2.2109">
        <ele>104</ele>
        <time>2026-03-20T15:12:00Z</time>
      </trkpt>
      <trkpt lat="48.50928" lon="2.21088">
        <ele>104</ele>
        <time>2026-03-20T15:12:01Z</time>
      </trkpt>
      <trkpt lat="48.50931" lon="2.21086">
        <ele>104</ele>
        <time>2026-03-20T15:12:02Z</time>
      </trkpt>
      <trkpt lat="48.50935" lon="2.21085">
        <ele>104</ele>
        <time>2026-03-20T15:12:03Z</time>
      </trkpt>
      <trkpt lat="48.50938" lon="2.21081">
        <ele>104.4</ele>
        <time>2026-03-20T15:12:04Z</time>
      </trkpt>
      <trkpt lat="48.50941" lon="2.21078">
        <ele>104.4</ele>
        <time>2026-03-20T15:12:05Z</time>
      </trkpt>
      <trkpt lat="48.50945" lon="2.21075">
        <ele>104.4</ele>
        <time>2026-03-20T15:12:06Z</time>
      </trkpt>
      <trkpt lat="48.50948" lon="2.21071">
        <ele>104.4</ele>
        <time>2026-03-20T15:12:07Z</time>
      </trkpt>
      <trkpt lat="48.5095" lon="2.21067">
        <ele>104.8</ele>
        <time>2026-03-20T15:12:08Z</time>
      </trkpt>
      <trkpt lat="48.50953" lon="2.21062">
        <ele>104.8</ele>
        <time>2026-03-20T15:12:09Z</time>
      </trkpt>
      <trkpt lat="48.50955" lon="2.21058">
        <ele>104.8</ele>
        <time>2026-03-20T15:12:10Z</time>
      </trkpt>
      <trkpt lat="48.50957" lon="2.21053">
        <ele>105.2</ele>
        <time>2026-03-20T15:12:11Z</time>
      </trkpt>
      <trkpt lat="48.5096" lon="2.21048">
        <ele>105</ele>
        <time>2026-03-20T15:12:12Z</time>
      </trkpt>
      <trkpt lat="48.50962" lon="2.21044">
        <ele>105</ele>
        <time>2026-03-20T15:12:13Z</time>
      </trkpt>
      <trkpt lat="48.50965" lon="2.21039">
        <ele>105</ele>
        <time>2026-03-20T15:12:14Z</time>
      </trkpt>
      <trkpt lat="48.50967" lon="2.21034">
        <ele>104.6</ele>
        <time>2026-03-20T15:12:15Z</time>
      </trkpt>
      <trkpt lat="48.5097" lon="2.21029">
        <ele>104.6</ele>
        <time>2026-03-20T15:12:16Z</time>
      </trkpt>
      <trkpt lat="48.50973" lon="2.21024">
        <ele>104.6</ele>
        <time>2026-03-20T15:12:17Z</time>
      </trkpt>
      <trkpt lat="48.50976" lon="2.21019">
        <ele>104.6</ele>
        <time>2026-03-20T15:12:18Z</time>
      </trkpt>
      <trkpt lat="48.50977" lon="2.21014">
        <ele>104.6</ele>
        <time>2026-03-20T15:12:19Z</time>
      </trkpt>
      <trkpt lat="48.50977" lon="2.21009">
        <ele>105</ele>
        <time>2026-03-20T15:12:20Z</time>
      </trkpt>
      <trkpt lat="48.50975" lon="2.21004">
        <ele>105</ele>
        <time>2026-03-20T15:12:21Z</time>
      </trkpt>
      <trkpt lat="48.50973" lon="2.20999">
        <ele>105</ele>
        <time>2026-03-20T15:12:22Z</time>
      </trkpt>
      <trkpt lat="48.5097" lon="2.20994">
        <ele>104.6</ele>
        <time>2026-03-20T15:12:23Z</time>
      </trkpt>
      <trkpt lat="48.50967" lon="2.20989">
        <ele>104</ele>
        <time>2026-03-20T15:12:24Z</time>
      </trkpt>
      <trkpt lat="48.50964" lon="2.20984">
        <ele>104</ele>
        <time>2026-03-20T15:12:25Z</time>
      </trkpt>
      <trkpt lat="48.5096" lon="2.20979">
        <ele>104</ele>
        <time>2026-03-20T15:12:26Z</time>
      </trkpt>
      <trkpt lat="48.50957" lon="2.20973">
        <ele>103.4</ele>
        <time>2026-03-20T15:12:27Z</time>
      </trkpt>
      <trkpt lat="48.50953" lon="2.20968">
        <ele>103.4</ele>
        <time>2026-03-20T15:12:28Z</time>
      </trkpt>
      <trkpt lat="48.50949" lon="2.20962">
        <ele>103.4</ele>
        <time>2026-03-20T15:12:29Z</time>
      </trkpt>
      <trkpt lat="48.50945" lon="2.20957">
        <ele>103.4</ele>
        <time>2026-03-20T15:12:30Z</time>
      </trkpt>
      <trkpt lat="48.50941" lon="2.20951">
        <ele>103.4</ele>
        <time>2026-03-20T15:12:31Z</time>
      </trkpt>
      <trkpt lat="48.50937" lon="2.20946">
        <ele>102</ele>
        <time>2026-03-20T15:12:32Z</time>
      </trkpt>
      <trkpt lat="48.50933" lon="2.2094">
        <ele>102</ele>
        <time>2026-03-20T15:12:33Z</time>
      </trkpt>
      <trkpt lat="48.50928" lon="2.20934">
        <ele>102</ele>
        <time>2026-03-20T15:12:34Z</time>
      </trkpt>
      <trkpt lat="48.50924" lon="2.20928">
        <ele>101.6</ele>
        <time>2026-03-20T15:12:35Z</time>
      </trkpt>
      <trkpt lat="48.50919" lon="2.20923">
        <ele>101.2</ele>
        <time>2026-03-20T15:12:36Z</time>
      </trkpt>
      <trkpt lat="48.50914" lon="2.20917">
        <ele>101.2</ele>
        <time>2026-03-20T15:12:37Z</time>
      </trkpt>
      <trkpt lat="48.5091" lon="2.20911">
        <ele>101.2</ele>
        <time>2026-03-20T15:12:38Z</time>
      </trkpt>
      <trkpt lat="48.50905" lon="2.20904">
        <ele>100.2</ele>
        <time>2026-03-20T15:12:39Z</time>
      </trkpt>
      <trkpt lat="48.509" lon="2.20898">
        <ele>99.8</ele>
        <time>2026-03-20T15:12:40Z</time>
      </trkpt>
      <trkpt lat="48.50895" lon="2.20892">
        <ele>99.8</ele>
        <time>2026-03-20T15:12:41Z</time>
      </trkpt>
      <trkpt lat="48.5089" lon="2.20886">
        <ele>99.8</ele>
        <time>2026-03-20T15:12:42Z</time>
      </trkpt>
      <trkpt lat="48.50885" lon="2.2088">
        <ele>100.2</ele>
        <time>2026-03-20T15:12:43Z</time>
      </trkpt>
      <trkpt lat="48.5088" lon="2.20874">
        <ele>101</ele>
        <time>2026-03-20T15:12:44Z</time>
      </trkpt>
      <trkpt lat="48.50875" lon="2.20869">
        <ele>101</ele>
        <time>2026-03-20T15:12:45Z</time>
      </trkpt>
      <trkpt lat="48.5087" lon="2.20863">
        <ele>101</ele>
        <time>2026-03-20T15:12:46Z</time>
      </trkpt>
      <trkpt lat="48.50865" lon="2.20857">
        <ele>100.2</ele>
        <time>2026-03-20T15:12:47Z</time>
      </trkpt>
      <trkpt lat="48.5086" lon="2.20852">
        <ele>100.6</ele>
        <time>2026-03-20T15:12:48Z</time>
      </trkpt>
      <trkpt lat="48.50855" lon="2.20847">
        <ele>100.6</ele>
        <time>2026-03-20T15:12:49Z</time>
      </trkpt>
      <trkpt lat="48.50851" lon="2.20842">
        <ele>100.6</ele>
        <time>2026-03-20T15:12:50Z</time>
      </trkpt>
      <trkpt lat="48.50846" lon="2.20837">
        <ele>100.6</ele>
        <time>2026-03-20T15:12:51Z</time>
      </trkpt>
      <trkpt lat="48.50842" lon="2.20832">
        <ele>101.2</ele>
        <time>2026-03-20T15:12:52Z</time>
      </trkpt>
      <trkpt lat="48.50838" lon="2.20827">
        <ele>101.2</ele>
        <time>2026-03-20T15:12:53Z</time>
      </trkpt>
      <trkpt lat="48.50833" lon="2.20822">
        <ele>101.2</ele>
        <time>2026-03-20T15:12:54Z</time>
      </trkpt>
      <trkpt lat="48.50829" lon="2.20817">
        <ele>100.8</ele>
        <time>2026-03-20T15:12:55Z</time>
      </trkpt>
      <trkpt lat="48.50825" lon="2.20813">
        <ele>100.6</ele>
        <time>2026-03-20T15:12:56Z</time>
      </trkpt>
      <trkpt lat="48.50821" lon="2.20809">
        <ele>100.6</ele>
        <time>2026-03-20T15:12:57Z</time>
      </trkpt>
      <trkpt lat="48.50816" lon="2.20804">
        <ele>100.6</ele>
        <time>2026-03-20T15:12:58Z</time>
      </trkpt>
      <trkpt lat="48.50812" lon="2.208">
        <ele>100.6</ele>
        <time>2026-03-20T15:12:59Z</time>
      </trkpt>
      <trkpt lat="48.50808" lon="2.20795">
        <ele>100.8</ele>
        <time>2026-03-20T15:13:00Z</time>
      </trkpt>
      <trkpt lat="48.50803" lon="2.20791">
        <ele>100.8</ele>
        <time>2026-03-20T15:13:01Z</time>
      </trkpt>
      <trkpt lat="48.50799" lon="2.20786">
        <ele>100.8</ele>
        <time>2026-03-20T15:13:02Z</time>
      </trkpt>
      <trkpt lat="48.50794" lon="2.20782">
        <ele>100.8</ele>
        <time>2026-03-20T15:13:03Z</time>
      </trkpt>
      <trkpt lat="48.5079" lon="2.20777">
        <ele>100.8</ele>
        <time>2026-03-20T15:13:04Z</time>
      </trkpt>
      <trkpt lat="48.50785" lon="2.20773">
        <ele>100.8</ele>
        <time>2026-03-20T15:13:05Z</time>
      </trkpt>
      <trkpt lat="48.5078" lon="2.20768">
        <ele>100.8</ele>
        <time>2026-03-20T15:13:06Z</time>
      </trkpt>
      <trkpt lat="48.50775" lon="2.20763">
        <ele>100.8</ele>
        <time>2026-03-20T15:13:07Z</time>
      </trkpt>
      <trkpt lat="48.5077" lon="2.20758">
        <ele>101.2</ele>
        <time>2026-03-20T15:13:08Z</time>
      </trkpt>
      <trkpt lat="48.50765" lon="2.20753">
        <ele>101.2</ele>
        <time>2026-03-20T15:13:09Z</time>
      </trkpt>
      <trkpt lat="48.5076" lon="2.20748">
        <ele>101.2</ele>
        <time>2026-03-20T15:13:10Z</time>
      </trkpt>
      <trkpt lat="48.50754" lon="2.20743">
        <ele>100.6</ele>
        <time>2026-03-20T15:13:11Z</time>
      </trkpt>
      <trkpt lat="48.50749" lon="2.20738">
        <ele>99.6</ele>
        <time>2026-03-20T15:13:12Z</time>
      </trkpt>
      <trkpt lat="48.50744" lon="2.20733">
        <ele>99.6</ele>
        <time>2026-03-20T15:13:13Z</time>
      </trkpt>
      <trkpt lat="48.50739" lon="2.20728">
        <ele>99.6</ele>
        <time>2026-03-20T15:13:14Z</time>
      </trkpt>
      <trkpt lat="48.50734" lon="2.20722">
        <ele>100.6</ele>
        <time>2026-03-20T15:13:15Z</time>
      </trkpt>
      <trkpt lat="48.50729" lon="2.20716">
        <ele>100.2</ele>
        <time>2026-03-20T15:13:16Z</time>
      </trkpt>
      <trkpt lat="48.50724" lon="2.2071">
        <ele>100.2</ele>
        <time>2026-03-20T15:13:17Z</time>
      </trkpt>
      <trkpt lat="48.5072" lon="2.20704">
        <ele>100.2</ele>
        <time>2026-03-20T15:13:18Z</time>
      </trkpt>
      <trkpt lat="48.50715" lon="2.20698">
        <ele>99.6</ele>
        <time>2026-03-20T15:13:19Z</time>
      </trkpt>
      <trkpt lat="48.5071" lon="2.20692">
        <ele>100.2</ele>
        <time>2026-03-20T15:13:20Z</time>
      </trkpt>
      <trkpt lat="48.50704" lon="2.20686">
        <ele>100.2</ele>
        <time>2026-03-20T15:13:21Z</time>
      </trkpt>
      <trkpt lat="48.50699" lon="2.2068">
        <ele>100.2</ele>
        <time>2026-03-20T15:13:22Z</time>
      </trkpt>
      <trkpt lat="48.50694" lon="2.20674">
        <ele>100.2</ele>
        <time>2026-03-20T15:13:23Z</time>
      </trkpt>
      <trkpt lat="48.50689" lon="2.20668">
        <ele>99.2</ele>
        <time>2026-03-20T15:13:24Z</time>
      </trkpt>
      <trkpt lat="48.50684" lon="2.20663">
        <ele>99.2</ele>
        <time>2026-03-20T15:13:25Z</time>
      </trkpt>
      <trkpt lat="48.50679" lon="2.20657">
        <ele>99.2</ele>
        <time>2026-03-20T15:13:26Z</time>
      </trkpt>
      <trkpt lat="48.50674" lon="2.20651">
        <ele>100.2</ele>
        <time>2026-03-20T15:13:27Z</time>
      </trkpt>
      <trkpt lat="48.50669" lon="2.20645">
        <ele>100</ele>
        <time>2026-03-20T15:13:28Z</time>
      </trkpt>
      <trkpt lat="48.50664" lon="2.20638">
        <ele>100</ele>
        <time>2026-03-20T15:13:29Z</time>
      </trkpt>
      <trkpt lat="48.50659" lon="2.20632">
        <ele>100</ele>
        <time>2026-03-20T15:13:30Z</time>
      </trkpt>
      <trkpt lat="48.50654" lon="2.20626">
        <ele>99</ele>
        <time>2026-03-20T15:13:31Z</time>
      </trkpt>
      <trkpt lat="48.50649" lon="2.2062">
        <ele>99.4</ele>
        <time>2026-03-20T15:13:32Z</time>
      </trkpt>
      <trkpt lat="48.50644" lon="2.20614">
        <ele>99.4</ele>
        <time>2026-03-20T15:13:33Z</time>
      </trkpt>
      <trkpt lat="48.50639" lon="2.20609">
        <ele>99.4</ele>
        <time>2026-03-20T15:13:34Z</time>
      </trkpt>
      <trkpt lat="48.50634" lon="2.20603">
        <ele>99.4</ele>
        <time>2026-03-20T15:13:35Z</time>
      </trkpt>
      <trkpt lat="48.5063" lon="2.20597">
        <ele>100.2</ele>
        <time>2026-03-20T15:13:36Z</time>
      </trkpt>
      <trkpt lat="48.50625" lon="2.20591">
        <ele>100.2</ele>
        <time>2026-03-20T15:13:37Z</time>
      </trkpt>
      <trkpt lat="48.5062" lon="2.20585">
        <ele>100.2</ele>
        <time>2026-03-20T15:13:38Z</time>
      </trkpt>
      <trkpt lat="48.50616" lon="2.2058">
        <ele>100</ele>
        <time>2026-03-20T15:13:39Z</time>
      </trkpt>
      <trkpt lat="48.50611" lon="2.20574">
        <ele>100</ele>
        <time>2026-03-20T15:13:40Z</time>
      </trkpt>
      <trkpt lat="48.50607" lon="2.20568">
        <ele>100</ele>
        <time>2026-03-20T15:13:41Z</time>
      </trkpt>
      <trkpt lat="48.50602" lon="2.20562">
        <ele>100</ele>
        <time>2026-03-20T15:13:42Z</time>
      </trkpt>
      <trkpt lat="48.50597" lon="2.20556">
        <ele>99</ele>
        <time>2026-03-20T15:13:43Z</time>
      </trkpt>
      <trkpt lat="48.50592" lon="2.2055">
        <ele>98.6</ele>
        <time>2026-03-20T15:13:44Z</time>
      </trkpt>
      <trkpt lat="48.50587" lon="2.20543">
        <ele>98.6</ele>
        <time>2026-03-20T15:13:45Z</time>
      </trkpt>
      <trkpt lat="48.50582" lon="2.20537">
        <ele>98.6</ele>
        <time>2026-03-20T15:13:46Z</time>
      </trkpt>
      <trkpt lat="48.50577" lon="2.20531">
        <ele>98.6</ele>
        <time>2026-03-20T15:13:47Z</time>
      </trkpt>
      <trkpt lat="48.50572" lon="2.20524">
        <ele>98.6</ele>
        <time>2026-03-20T15:13:48Z</time>
      </trkpt>
      <trkpt lat="48.50567" lon="2.20518">
        <ele>98.6</ele>
        <time>2026-03-20T15:13:49Z</time>
      </trkpt>
      <trkpt lat="48.50563" lon="2.20512">
        <ele>98.6</ele>
        <time>2026-03-20T15:13:50Z</time>
      </trkpt>
      <trkpt lat="48.50558" lon="2.20506">
        <ele>98.6</ele>
        <time>2026-03-20T15:13:51Z</time>
      </trkpt>
      <trkpt lat="48.50553" lon="2.20499">
        <ele>98.8</ele>
        <time>2026-03-20T15:13:52Z</time>
      </trkpt>
      <trkpt lat="48.50548" lon="2.20493">
        <ele>98.8</ele>
        <time>2026-03-20T15:13:53Z</time>
      </trkpt>
      <trkpt lat="48.50543" lon="2.20486">
        <ele>98.8</ele>
        <time>2026-03-20T15:13:54Z</time>
      </trkpt>
      <trkpt lat="48.50538" lon="2.2048">
        <ele>98.6</ele>
        <time>2026-03-20T15:13:55Z</time>
      </trkpt>
      <trkpt lat="48.50533" lon="2.20473">
        <ele>98.4</ele>
        <time>2026-03-20T15:13:56Z</time>
      </trkpt>
      <trkpt lat="48.50529" lon="2.20467">
        <ele>98.4</ele>
        <time>2026-03-20T15:13:57Z</time>
      </trkpt>
      <trkpt lat="48.50524" lon="2.2046">
        <ele>98.4</ele>
        <time>2026-03-20T15:13:58Z</time>
      </trkpt>
      <trkpt lat="48.50519" lon="2.20454">
        <ele>98.2</ele>
        <time>2026-03-20T15:13:59Z</time>
      </trkpt>
      <trkpt lat="48.50514" lon="2.20448">
        <ele>98</ele>
        <time>2026-03-20T15:14:00Z</time>
      </trkpt>
      <trkpt lat="48.50509" lon="2.20442">
        <ele>98</ele>
        <time>2026-03-20T15:14:01Z</time>
      </trkpt>
      <trkpt lat="48.50504" lon="2.20435">
        <ele>98</ele>
        <time>2026-03-20T15:14:02Z</time>
      </trkpt>
      <trkpt lat="48.50499" lon="2.20429">
        <ele>98</ele>
        <time>2026-03-20T15:14:03Z</time>
      </trkpt>
      <trkpt lat="48.50494" lon="2.20423">
        <ele>99</ele>
        <time>2026-03-20T15:14:04Z</time>
      </trkpt>
      <trkpt lat="48.50489" lon="2.20417">
        <ele>99</ele>
        <time>2026-03-20T15:14:05Z</time>
      </trkpt>
      <trkpt lat="48.50484" lon="2.20411">
        <ele>99</ele>
        <time>2026-03-20T15:14:06Z</time>
      </trkpt>
      <trkpt lat="48.50479" lon="2.20404">
        <ele>98</ele>
        <time>2026-03-20T15:14:07Z</time>
      </trkpt>
      <trkpt lat="48.50475" lon="2.20397">
        <ele>97.8</ele>
        <time>2026-03-20T15:14:08Z</time>
      </trkpt>
      <trkpt lat="48.50471" lon="2.2039">
        <ele>97.8</ele>
        <time>2026-03-20T15:14:09Z</time>
      </trkpt>
      <trkpt lat="48.50466" lon="2.20383">
        <ele>97.8</ele>
        <time>2026-03-20T15:14:10Z</time>
      </trkpt>
      <trkpt lat="48.50461" lon="2.20376">
        <ele>97.8</ele>
        <time>2026-03-20T15:14:11Z</time>
      </trkpt>
      <trkpt lat="48.50456" lon="2.2037">
        <ele>97.2</ele>
        <time>2026-03-20T15:14:12Z</time>
      </trkpt>
      <trkpt lat="48.50452" lon="2.20364">
        <ele>97.2</ele>
        <time>2026-03-20T15:14:13Z</time>
      </trkpt>
      <trkpt lat="48.50447" lon="2.20357">
        <ele>97.2</ele>
        <time>2026-03-20T15:14:14Z</time>
      </trkpt>
      <trkpt lat="48.50443" lon="2.20351">
        <ele>97.2</ele>
        <time>2026-03-20T15:14:15Z</time>
      </trkpt>
      <trkpt lat="48.50439" lon="2.20344">
        <ele>98</ele>
        <time>2026-03-20T15:14:16Z</time>
      </trkpt>
      <trkpt lat="48.50435" lon="2.20337">
        <ele>98</ele>
        <time>2026-03-20T15:14:17Z</time>
      </trkpt>
      <trkpt lat="48.50431" lon="2.2033">
        <ele>98</ele>
        <time>2026-03-20T15:14:18Z</time>
      </trkpt>
      <trkpt lat="48.50426" lon="2.20324">
        <ele>98</ele>
        <time>2026-03-20T15:14:19Z</time>
      </trkpt>
      <trkpt lat="48.50422" lon="2.20317">
        <ele>97.2</ele>
        <time>2026-03-20T15:14:20Z</time>
      </trkpt>
      <trkpt lat="48.50417" lon="2.2031">
        <ele>97.2</ele>
        <time>2026-03-20T15:14:21Z</time>
      </trkpt>
      <trkpt lat="48.50413" lon="2.20304">
        <ele>97.2</ele>
        <time>2026-03-20T15:14:22Z</time>
      </trkpt>
      <trkpt lat="48.50408" lon="2.20298">
        <ele>97.2</ele>
        <time>2026-03-20T15:14:23Z</time>
      </trkpt>
      <trkpt lat="48.50404" lon="2.20291">
        <ele>97.2</ele>
        <time>2026-03-20T15:14:24Z</time>
      </trkpt>
      <trkpt lat="48.50399" lon="2.20285">
        <ele>97.2</ele>
        <time>2026-03-20T15:14:25Z</time>
      </trkpt>
      <trkpt lat="48.50395" lon="2.20278">
        <ele>97.2</ele>
        <time>2026-03-20T15:14:26Z</time>
      </trkpt>
      <trkpt lat="48.5039" lon="2.20271">
        <ele>97.2</ele>
        <time>2026-03-20T15:14:27Z</time>
      </trkpt>
      <trkpt lat="48.50386" lon="2.20265">
        <ele>97.4</ele>
        <time>2026-03-20T15:14:28Z</time>
      </trkpt>
      <trkpt lat="48.50382" lon="2.20259">
        <ele>97.4</ele>
        <time>2026-03-20T15:14:29Z</time>
      </trkpt>
      <trkpt lat="48.50377" lon="2.20252">
        <ele>97.4</ele>
        <time>2026-03-20T15:14:30Z</time>
      </trkpt>
      <trkpt lat="48.50373" lon="2.20246">
        <ele>97.4</ele>
        <time>2026-03-20T15:14:31Z</time>
      </trkpt>
      <trkpt lat="48.50369" lon="2.2024">
        <ele>97.2</ele>
        <time>2026-03-20T15:14:32Z</time>
      </trkpt>
      <trkpt lat="48.50364" lon="2.20234">
        <ele>97.2</ele>
        <time>2026-03-20T15:14:33Z</time>
      </trkpt>
      <trkpt lat="48.50359" lon="2.20227">
        <ele>97.2</ele>
        <time>2026-03-20T15:14:34Z</time>
      </trkpt>
      <trkpt lat="48.50355" lon="2.20221">
        <ele>96.6</ele>
        <time>2026-03-20T15:14:35Z</time>
      </trkpt>
      <trkpt lat="48.50351" lon="2.20214">
        <ele>96.6</ele>
        <time>2026-03-20T15:14:36Z</time>
      </trkpt>
      <trkpt lat="48.50346" lon="2.20208">
        <ele>96.6</ele>
        <time>2026-03-20T15:14:37Z</time>
      </trkpt>
      <trkpt lat="48.50342" lon="2.20201">
        <ele>96.6</ele>
        <time>2026-03-20T15:14:38Z</time>
      </trkpt>
      <trkpt lat="48.50337" lon="2.20195">
        <ele>96.6</ele>
        <time>2026-03-20T15:14:39Z</time>
      </trkpt>
      <trkpt lat="48.50333" lon="2.20189">
        <ele>96.6</ele>
        <time>2026-03-20T15:14:40Z</time>
      </trkpt>
      <trkpt lat="48.50329" lon="2.20183">
        <ele>96.6</ele>
        <time>2026-03-20T15:14:41Z</time>
      </trkpt>
      <trkpt lat="48.50324" lon="2.20177">
        <ele>96.6</ele>
        <time>2026-03-20T15:14:42Z</time>
      </trkpt>
      <trkpt lat="48.5032" lon="2.20171">
        <ele>97.6</ele>
        <time>2026-03-20T15:14:43Z</time>
      </trkpt>
      <trkpt lat="48.50317" lon="2.20164">
        <ele>97.4</ele>
        <time>2026-03-20T15:14:44Z</time>
      </trkpt>
      <trkpt lat="48.50314" lon="2.20157">
        <ele>97.4</ele>
        <time>2026-03-20T15:14:45Z</time>
      </trkpt>
      <trkpt lat="48.50311" lon="2.2015">
        <ele>97.4</ele>
        <time>2026-03-20T15:14:46Z</time>
      </trkpt>
      <trkpt lat="48.50307" lon="2.20144">
        <ele>97.4</ele>
        <time>2026-03-20T15:14:47Z</time>
      </trkpt>
      <trkpt lat="48.50304" lon="2.20139">
        <ele>97.2</ele>
        <time>2026-03-20T15:14:48Z</time>
      </trkpt>
      <trkpt lat="48.50299" lon="2.20133">
        <ele>97.2</ele>
        <time>2026-03-20T15:14:49Z</time>
      </trkpt>
      <trkpt lat="48.50294" lon="2.20128">
        <ele>97.2</ele>
        <time>2026-03-20T15:14:50Z</time>
      </trkpt>
      <trkpt lat="48.50289" lon="2.20123">
        <ele>97.6</ele>
        <time>2026-03-20T15:14:51Z</time>
      </trkpt>
      <trkpt lat="48.50283" lon="2.20117">
        <ele>97</ele>
        <time>2026-03-20T15:14:52Z</time>
      </trkpt>
      <trkpt lat="48.50278" lon="2.2011">
        <ele>97</ele>
        <time>2026-03-20T15:14:53Z</time>
      </trkpt>
      <trkpt lat="48.50273" lon="2.20103">
        <ele>97</ele>
        <time>2026-03-20T15:14:54Z</time>
      </trkpt>
      <trkpt lat="48.50267" lon="2.20095">
        <ele>96</ele>
        <time>2026-03-20T15:14:55Z</time>
      </trkpt>
      <trkpt lat="48.50262" lon="2.20088">
        <ele>96</ele>
        <time>2026-03-20T15:14:56Z</time>
      </trkpt>
      <trkpt lat="48.50257" lon="2.2008">
        <ele>96</ele>
        <time>2026-03-20T15:14:57Z</time>
      </trkpt>
      <trkpt lat="48.50253" lon="2.20071">
        <ele>96</ele>
        <time>2026-03-20T15:14:58Z</time>
      </trkpt>
      <trkpt lat="48.50248" lon="2.20064">
        <ele>96</ele>
        <time>2026-03-20T15:14:59Z</time>
      </trkpt>
      <trkpt lat="48.50242" lon="2.20056">
        <ele>96.4</ele>
        <time>2026-03-20T15:15:00Z</time>
      </trkpt>
      <trkpt lat="48.50237" lon="2.20049">
        <ele>96.4</ele>
        <time>2026-03-20T15:15:01Z</time>
      </trkpt>
      <trkpt lat="48.50232" lon="2.20041">
        <ele>96.4</ele>
        <time>2026-03-20T15:15:02Z</time>
      </trkpt>
      <trkpt lat="48.50228" lon="2.20034">
        <ele>97.4</ele>
        <time>2026-03-20T15:15:03Z</time>
      </trkpt>
      <trkpt lat="48.50223" lon="2.20027">
        <ele>98</ele>
        <time>2026-03-20T15:15:04Z</time>
      </trkpt>
      <trkpt lat="48.50218" lon="2.2002">
        <ele>98</ele>
        <time>2026-03-20T15:15:05Z</time>
      </trkpt>
      <trkpt lat="48.50214" lon="2.20013">
        <ele>98</ele>
        <time>2026-03-20T15:15:06Z</time>
      </trkpt>
      <trkpt lat="48.50209" lon="2.20006">
        <ele>97.4</ele>
        <time>2026-03-20T15:15:07Z</time>
      </trkpt>
      <trkpt lat="48.50205" lon="2.19998">
        <ele>97.6</ele>
        <time>2026-03-20T15:15:08Z</time>
      </trkpt>
      <trkpt lat="48.502" lon="2.1999">
        <ele>97.6</ele>
        <time>2026-03-20T15:15:09Z</time>
      </trkpt>
      <trkpt lat="48.50196" lon="2.19982">
        <ele>97.6</ele>
        <time>2026-03-20T15:15:10Z</time>
      </trkpt>
      <trkpt lat="48.50193" lon="2.19974">
        <ele>98.6</ele>
        <time>2026-03-20T15:15:11Z</time>
      </trkpt>
      <trkpt lat="48.50189" lon="2.19966">
        <ele>98.2</ele>
        <time>2026-03-20T15:15:12Z</time>
      </trkpt>
      <trkpt lat="48.50186" lon="2.19958">
        <ele>98.2</ele>
        <time>2026-03-20T15:15:13Z</time>
      </trkpt>
      <trkpt lat="48.50183" lon="2.19949">
        <ele>98.2</ele>
        <time>2026-03-20T15:15:14Z</time>
      </trkpt>
      <trkpt lat="48.5018" lon="2.19941">
        <ele>97.2</ele>
        <time>2026-03-20T15:15:15Z</time>
      </trkpt>
      <trkpt lat="48.50177" lon="2.19933">
        <ele>98</ele>
        <time>2026-03-20T15:15:16Z</time>
      </trkpt>
      <trkpt lat="48.50174" lon="2.19925">
        <ele>98</ele>
        <time>2026-03-20T15:15:17Z</time>
      </trkpt>
      <trkpt lat="48.50171" lon="2.19917">
        <ele>98</ele>
        <time>2026-03-20T15:15:18Z</time>
      </trkpt>
      <trkpt lat="48.50167" lon="2.1991">
        <ele>98.8</ele>
        <time>2026-03-20T15:15:19Z</time>
      </trkpt>
      <trkpt lat="48.50164" lon="2.19902">
        <ele>98.8</ele>
        <time>2026-03-20T15:15:20Z</time>
      </trkpt>
      <trkpt lat="48.50161" lon="2.19894">
        <ele>98.8</ele>
        <time>2026-03-20T15:15:21Z</time>
      </trkpt>
      <trkpt lat="48.50158" lon="2.19886">
        <ele>98.8</ele>
        <time>2026-03-20T15:15:22Z</time>
      </trkpt>
      <trkpt lat="48.50155" lon="2.19879">
        <ele>99</ele>
        <time>2026-03-20T15:15:23Z</time>
      </trkpt>
      <trkpt lat="48.50152" lon="2.19872">
        <ele>98.4</ele>
        <time>2026-03-20T15:15:24Z</time>
      </trkpt>
      <trkpt lat="48.50148" lon="2.19865">
        <ele>98.4</ele>
        <time>2026-03-20T15:15:25Z</time>
      </trkpt>
      <trkpt lat="48.50144" lon="2.19859">
        <ele>98.4</ele>
        <time>2026-03-20T15:15:26Z</time>
      </trkpt>
      <trkpt lat="48.5014" lon="2.19853">
        <ele>99</ele>
        <time>2026-03-20T15:15:27Z</time>
      </trkpt>
      <trkpt lat="48.50135" lon="2.19848">
        <ele>99.4</ele>
        <time>2026-03-20T15:15:28Z</time>
      </trkpt>
      <trkpt lat="48.5013" lon="2.19843">
        <ele>99.4</ele>
        <time>2026-03-20T15:15:29Z</time>
      </trkpt>
      <trkpt lat="48.50125" lon="2.19838">
        <ele>99.4</ele>
        <time>2026-03-20T15:15:30Z</time>
      </trkpt>
      <trkpt lat="48.5012" lon="2.19834">
        <ele>98.8</ele>
        <time>2026-03-20T15:15:31Z</time>
      </trkpt>
      <trkpt lat="48.50114" lon="2.19829">
        <ele>98.2</ele>
        <time>2026-03-20T15:15:32Z</time>
      </trkpt>
      <trkpt lat="48.50109" lon="2.19825">
        <ele>98.2</ele>
        <time>2026-03-20T15:15:33Z</time>
      </trkpt>
      <trkpt lat="48.50103" lon="2.19821">
        <ele>98.2</ele>
        <time>2026-03-20T15:15:34Z</time>
      </trkpt>
      <trkpt lat="48.50098" lon="2.19817">
        <ele>98.6</ele>
        <time>2026-03-20T15:15:35Z</time>
      </trkpt>
      <trkpt lat="48.50092" lon="2.19813">
        <ele>98.4</ele>
        <time>2026-03-20T15:15:36Z</time>
      </trkpt>
      <trkpt lat="48.50087" lon="2.19809">
        <ele>98.4</ele>
        <time>2026-03-20T15:15:37Z</time>
      </trkpt>
      <trkpt lat="48.50081" lon="2.19804">
        <ele>98.4</ele>
        <time>2026-03-20T15:15:38Z</time>
      </trkpt>
      <trkpt lat="48.50076" lon="2.198">
        <ele>99.2</ele>
        <time>2026-03-20T15:15:39Z</time>
      </trkpt>
      <trkpt lat="48.5007" lon="2.19795">
        <ele>98.8</ele>
        <time>2026-03-20T15:15:40Z</time>
      </trkpt>
      <trkpt lat="48.50065" lon="2.19791">
        <ele>98.8</ele>
        <time>2026-03-20T15:15:41Z</time>
      </trkpt>
      <trkpt lat="48.5006" lon="2.19787">
        <ele>98.8</ele>
        <time>2026-03-20T15:15:42Z</time>
      </trkpt>
      <trkpt lat="48.50055" lon="2.19783">
        <ele>98.8</ele>
        <time>2026-03-20T15:15:43Z</time>
      </trkpt>
      <trkpt lat="48.5005" lon="2.19778">
        <ele>98.6</ele>
        <time>2026-03-20T15:15:44Z</time>
      </trkpt>
      <trkpt lat="48.50045" lon="2.19774">
        <ele>98.6</ele>
        <time>2026-03-20T15:15:45Z</time>
      </trkpt>
      <trkpt lat="48.5004" lon="2.1977">
        <ele>98.6</ele>
        <time>2026-03-20T15:15:46Z</time>
      </trkpt>
      <trkpt lat="48.50035" lon="2.19766">
        <ele>98.6</ele>
        <time>2026-03-20T15:15:47Z</time>
      </trkpt>
      <trkpt lat="48.5003" lon="2.19762">
        <ele>98.6</ele>
        <time>2026-03-20T15:15:48Z</time>
      </trkpt>
      <trkpt lat="48.50025" lon="2.19758">
        <ele>98.6</ele>
        <time>2026-03-20T15:15:49Z</time>
      </trkpt>
      <trkpt lat="48.50021" lon="2.19753">
        <ele>98.6</ele>
        <time>2026-03-20T15:15:50Z</time>
      </trkpt>
      <trkpt lat="48.50016" lon="2.19749">
        <ele>99.6</ele>
        <time>2026-03-20T15:15:51Z</time>
      </trkpt>
      <trkpt lat="48.50011" lon="2.19746">
        <ele>99.6</ele>
        <time>2026-03-20T15:15:52Z</time>
      </trkpt>
      <trkpt lat="48.50007" lon="2.19742">
        <ele>99.6</ele>
        <time>2026-03-20T15:15:53Z</time>
      </trkpt>
      <trkpt lat="48.50002" lon="2.19738">
        <ele>99.6</ele>
        <time>2026-03-20T15:15:54Z</time>
      </trkpt>
      <trkpt lat="48.49998" lon="2.19735">
        <ele>100.2</ele>
        <time>2026-03-20T15:15:55Z</time>
      </trkpt>
      <trkpt lat="48.49993" lon="2.19731">
        <ele>101</ele>
        <time>2026-03-20T15:15:56Z</time>
      </trkpt>
      <trkpt lat="48.49988" lon="2.19728">
        <ele>101</ele>
        <time>2026-03-20T15:15:57Z</time>
      </trkpt>
      <trkpt lat="48.49984" lon="2.19724">
        <ele>101</ele>
        <time>2026-03-20T15:15:58Z</time>
      </trkpt>
      <trkpt lat="48.49979" lon="2.1972">
        <ele>101</ele>
        <time>2026-03-20T15:15:59Z</time>
      </trkpt>
      <trkpt lat="48.49974" lon="2.19716">
        <ele>100.2</ele>
        <time>2026-03-20T15:16:00Z</time>
      </trkpt>
      <trkpt lat="48.49969" lon="2.19713">
        <ele>100.2</ele>
        <time>2026-03-20T15:16:01Z</time>
      </trkpt>
      <trkpt lat="48.49965" lon="2.19709">
        <ele>100.2</ele>
        <time>2026-03-20T15:16:02Z</time>
      </trkpt>
      <trkpt lat="48.4996" lon="2.19705">
        <ele>100.8</ele>
        <time>2026-03-20T15:16:03Z</time>
      </trkpt>
      <trkpt lat="48.49955" lon="2.19702">
        <ele>101.2</ele>
        <time>2026-03-20T15:16:04Z</time>
      </trkpt>
      <trkpt lat="48.49951" lon="2.19698">
        <ele>101.2</ele>
        <time>2026-03-20T15:16:05Z</time>
      </trkpt>
      <trkpt lat="48.49946" lon="2.19694">
        <ele>101.2</ele>
        <time>2026-03-20T15:16:06Z</time>
      </trkpt>
      <trkpt lat="48.49941" lon="2.19691">
        <ele>101.2</ele>
        <time>2026-03-20T15:16:07Z</time>
      </trkpt>
      <trkpt lat="48.49937" lon="2.19687">
        <ele>100.2</ele>
        <time>2026-03-20T15:16:08Z</time>
      </trkpt>
      <trkpt lat="48.49932" lon="2.19683">
        <ele>100.2</ele>
        <time>2026-03-20T15:16:09Z</time>
      </trkpt>
      <trkpt lat="48.49928" lon="2.19679">
        <ele>100.2</ele>
        <time>2026-03-20T15:16:10Z</time>
      </trkpt>
      <trkpt lat="48.49923" lon="2.19676">
        <ele>100.8</ele>
        <time>2026-03-20T15:16:11Z</time>
      </trkpt>
      <trkpt lat="48.49919" lon="2.19672">
        <ele>101.4</ele>
        <time>2026-03-20T15:16:12Z</time>
      </trkpt>
      <trkpt lat="48.49915" lon="2.19668">
        <ele>101.4</ele>
        <time>2026-03-20T15:16:13Z</time>
      </trkpt>
      <trkpt lat="48.4991" lon="2.19664">
        <ele>101.4</ele>
        <time>2026-03-20T15:16:14Z</time>
      </trkpt>
      <trkpt lat="48.49906" lon="2.1966">
        <ele>102.2</ele>
        <time>2026-03-20T15:16:15Z</time>
      </trkpt>
      <trkpt lat="48.49902" lon="2.19657">
        <ele>102.8</ele>
        <time>2026-03-20T15:16:16Z</time>
      </trkpt>
      <trkpt lat="48.49897" lon="2.19654">
        <ele>102.8</ele>
        <time>2026-03-20T15:16:17Z</time>
      </trkpt>
      <trkpt lat="48.49893" lon="2.1965">
        <ele>102.8</ele>
        <time>2026-03-20T15:16:18Z</time>
      </trkpt>
      <trkpt lat="48.49888" lon="2.19646">
        <ele>103.4</ele>
        <time>2026-03-20T15:16:19Z</time>
      </trkpt>
      <trkpt lat="48.49884" lon="2.19642">
        <ele>103.6</ele>
        <time>2026-03-20T15:16:20Z</time>
      </trkpt>
      <trkpt lat="48.49879" lon="2.19638">
        <ele>103.6</ele>
        <time>2026-03-20T15:16:21Z</time>
      </trkpt>
      <trkpt lat="48.49874" lon="2.19634">
        <ele>103.6</ele>
        <time>2026-03-20T15:16:22Z</time>
      </trkpt>
      <trkpt lat="48.4987" lon="2.1963">
        <ele>103.6</ele>
        <time>2026-03-20T15:16:23Z</time>
      </trkpt>
      <trkpt lat="48.49866" lon="2.19627">
        <ele>104.2</ele>
        <time>2026-03-20T15:16:24Z</time>
      </trkpt>
      <trkpt lat="48.49861" lon="2.19623">
        <ele>104.2</ele>
        <time>2026-03-20T15:16:25Z</time>
      </trkpt>
      <trkpt lat="48.49857" lon="2.1962">
        <ele>104.2</ele>
        <time>2026-03-20T15:16:26Z</time>
      </trkpt>
      <trkpt lat="48.49852" lon="2.19616">
        <ele>104.2</ele>
        <time>2026-03-20T15:16:27Z</time>
      </trkpt>
      <trkpt lat="48.49848" lon="2.19612">
        <ele>104.2</ele>
        <time>2026-03-20T15:16:28Z</time>
      </trkpt>
      <trkpt lat="48.49843" lon="2.19608">
        <ele>104.2</ele>
        <time>2026-03-20T15:16:29Z</time>
      </trkpt>
      <trkpt lat="48.49839" lon="2.19604">
        <ele>104.2</ele>
        <time>2026-03-20T15:16:30Z</time>
      </trkpt>
      <trkpt lat="48.49834" lon="2.196">
        <ele>104.6</ele>
        <time>2026-03-20T15:16:31Z</time>
      </trkpt>
      <trkpt lat="48.4983" lon="2.19596">
        <ele>104.8</ele>
        <time>2026-03-20T15:16:32Z</time>
      </trkpt>
      <trkpt lat="48.49825" lon="2.19591">
        <ele>104.8</ele>
        <time>2026-03-20T15:16:33Z</time>
      </trkpt>
      <trkpt lat="48.4982" lon="2.19587">
        <ele>104.8</ele>
        <time>2026-03-20T15:16:34Z</time>
      </trkpt>
      <trkpt lat="48.49816" lon="2.19582">
        <ele>104.8</ele>
        <time>2026-03-20T15:16:35Z</time>
      </trkpt>
      <trkpt lat="48.49812" lon="2.19576">
        <ele>103.6</ele>
        <time>2026-03-20T15:16:36Z</time>
      </trkpt>
      <trkpt lat="48.49808" lon="2.1957">
        <ele>103.6</ele>
        <time>2026-03-20T15:16:37Z</time>
      </trkpt>
      <trkpt lat="48.49803" lon="2.19565">
        <ele>103.6</ele>
        <time>2026-03-20T15:16:38Z</time>
      </trkpt>
      <trkpt lat="48.49799" lon="2.19561">
        <ele>103.6</ele>
        <time>2026-03-20T15:16:39Z</time>
      </trkpt>
      <trkpt lat="48.49793" lon="2.19556">
        <ele>103.6</ele>
        <time>2026-03-20T15:16:40Z</time>
      </trkpt>
      <trkpt lat="48.49789" lon="2.19551">
        <ele>103.6</ele>
        <time>2026-03-20T15:16:41Z</time>
      </trkpt>
      <trkpt lat="48.49784" lon="2.19547">
        <ele>103.6</ele>
        <time>2026-03-20T15:16:42Z</time>
      </trkpt>
      <trkpt lat="48.49779" lon="2.19542">
        <ele>103</ele>
        <time>2026-03-20T15:16:43Z</time>
      </trkpt>
      <trkpt lat="48.49773" lon="2.19539">
        <ele>102.6</ele>
        <time>2026-03-20T15:16:44Z</time>
      </trkpt>
      <trkpt lat="48.49767" lon="2.19536">
        <ele>102.6</ele>
        <time>2026-03-20T15:16:45Z</time>
      </trkpt>
      <trkpt lat="48.49761" lon="2.19532">
        <ele>102.6</ele>
        <time>2026-03-20T15:16:46Z</time>
      </trkpt>
      <trkpt lat="48.49756" lon="2.19527">
        <ele>102.6</ele>
        <time>2026-03-20T15:16:47Z</time>
      </trkpt>
      <trkpt lat="48.4975" lon="2.19522">
        <ele>101.4</ele>
        <time>2026-03-20T15:16:48Z</time>
      </trkpt>
      <trkpt lat="48.49744" lon="2.19516">
        <ele>101.4</ele>
        <time>2026-03-20T15:16:49Z</time>
      </trkpt>
      <trkpt lat="48.49738" lon="2.19511">
        <ele>101.4</ele>
        <time>2026-03-20T15:16:50Z</time>
      </trkpt>
      <trkpt lat="48.49732" lon="2.19506">
        <ele>101.4</ele>
        <time>2026-03-20T15:16:51Z</time>
      </trkpt>
      <trkpt lat="48.49726" lon="2.195">
        <ele>99.4</ele>
        <time>2026-03-20T15:16:52Z</time>
      </trkpt>
      <trkpt lat="48.4972" lon="2.19495">
        <ele>99.4</ele>
        <time>2026-03-20T15:16:53Z</time>
      </trkpt>
      <trkpt lat="48.49714" lon="2.1949">
        <ele>99.4</ele>
        <time>2026-03-20T15:16:54Z</time>
      </trkpt>
      <trkpt lat="48.49708" lon="2.19485">
        <ele>100.2</ele>
        <time>2026-03-20T15:16:55Z</time>
      </trkpt>
      <trkpt lat="48.49702" lon="2.19479">
        <ele>99.2</ele>
        <time>2026-03-20T15:16:56Z</time>
      </trkpt>
      <trkpt lat="48.49695" lon="2.19473">
        <ele>99.2</ele>
        <time>2026-03-20T15:16:57Z</time>
      </trkpt>
      <trkpt lat="48.49689" lon="2.19467">
        <ele>99.2</ele>
        <time>2026-03-20T15:16:58Z</time>
      </trkpt>
      <trkpt lat="48.49682" lon="2.19461">
        <ele>99.2</ele>
        <time>2026-03-20T15:16:59Z</time>
      </trkpt>
      <trkpt lat="48.49675" lon="2.19455">
        <ele>98.8</ele>
        <time>2026-03-20T15:17:00Z</time>
      </trkpt>
      <trkpt lat="48.49668" lon="2.19449">
        <ele>98.8</ele>
        <time>2026-03-20T15:17:01Z</time>
      </trkpt>
      <trkpt lat="48.49662" lon="2.19443">
        <ele>98.8</ele>
        <time>2026-03-20T15:17:02Z</time>
      </trkpt>
      <trkpt lat="48.49655" lon="2.19436">
        <ele>98.8</ele>
        <time>2026-03-20T15:17:03Z</time>
      </trkpt>
      <trkpt lat="48.49648" lon="2.19431">
        <ele>97</ele>
        <time>2026-03-20T15:17:04Z</time>
      </trkpt>
      <trkpt lat="48.49641" lon="2.19425">
        <ele>97</ele>
        <time>2026-03-20T15:17:05Z</time>
      </trkpt>
      <trkpt lat="48.49634" lon="2.19419">
        <ele>97</ele>
        <time>2026-03-20T15:17:06Z</time>
      </trkpt>
      <trkpt lat="48.49627" lon="2.19412">
        <ele>97</ele>
        <time>2026-03-20T15:17:07Z</time>
      </trkpt>
      <trkpt lat="48.49619" lon="2.19405">
        <ele>96.2</ele>
        <time>2026-03-20T15:17:08Z</time>
      </trkpt>
      <trkpt lat="48.49612" lon="2.19399">
        <ele>96.2</ele>
        <time>2026-03-20T15:17:09Z</time>
      </trkpt>
      <trkpt lat="48.49605" lon="2.19393">
        <ele>96.2</ele>
        <time>2026-03-20T15:17:10Z</time>
      </trkpt>
      <trkpt lat="48.49597" lon="2.19387">
        <ele>95.2</ele>
        <time>2026-03-20T15:17:11Z</time>
      </trkpt>
      <trkpt lat="48.4959" lon="2.19381">
        <ele>94.4</ele>
        <time>2026-03-20T15:17:12Z</time>
      </trkpt>
      <trkpt lat="48.49582" lon="2.19375">
        <ele>94.4</ele>
        <time>2026-03-20T15:17:13Z</time>
      </trkpt>
      <trkpt lat="48.49575" lon="2.19368">
        <ele>94.4</ele>
        <time>2026-03-20T15:17:14Z</time>
      </trkpt>
      <trkpt lat="48.49568" lon="2.19362">
        <ele>93.8</ele>
        <time>2026-03-20T15:17:15Z</time>
      </trkpt>
      <trkpt lat="48.49561" lon="2.19355">
        <ele>93.2</ele>
        <time>2026-03-20T15:17:16Z</time>
      </trkpt>
      <trkpt lat="48.49553" lon="2.19349">
        <ele>93.2</ele>
        <time>2026-03-20T15:17:17Z</time>
      </trkpt>
      <trkpt lat="48.49546" lon="2.19343">
        <ele>93.2</ele>
        <time>2026-03-20T15:17:18Z</time>
      </trkpt>
      <trkpt lat="48.49539" lon="2.19337">
        <ele>93.6</ele>
        <time>2026-03-20T15:17:19Z</time>
      </trkpt>
      <trkpt lat="48.49532" lon="2.19331">
        <ele>93.6</ele>
        <time>2026-03-20T15:17:20Z</time>
      </trkpt>
      <trkpt lat="48.49524" lon="2.19326">
        <ele>93.6</ele>
        <time>2026-03-20T15:17:21Z</time>
      </trkpt>
      <trkpt lat="48.49517" lon="2.1932">
        <ele>93.6</ele>
        <time>2026-03-20T15:17:22Z</time>
      </trkpt>
      <trkpt lat="48.4951" lon="2.19314">
        <ele>93.2</ele>
        <time>2026-03-20T15:17:23Z</time>
      </trkpt>
      <trkpt lat="48.49503" lon="2.19309">
        <ele>93.2</ele>
        <time>2026-03-20T15:17:24Z</time>
      </trkpt>
      <trkpt lat="48.49496" lon="2.19303">
        <ele>93.2</ele>
        <time>2026-03-20T15:17:25Z</time>
      </trkpt>
      <trkpt lat="48.49489" lon="2.19298">
        <ele>93.2</ele>
        <time>2026-03-20T15:17:26Z</time>
      </trkpt>
      <trkpt lat="48.49482" lon="2.19292">
        <ele>92.2</ele>
        <time>2026-03-20T15:17:27Z</time>
      </trkpt>
      <trkpt lat="48.49475" lon="2.19286">
        <ele>93</ele>
        <time>2026-03-20T15:17:28Z</time>
      </trkpt>
      <trkpt lat="48.49469" lon="2.19281">
        <ele>93</ele>
        <time>2026-03-20T15:17:29Z</time>
      </trkpt>
      <trkpt lat="48.49463" lon="2.19276">
        <ele>93</ele>
        <time>2026-03-20T15:17:30Z</time>
      </trkpt>
      <trkpt lat="48.49459" lon="2.19272">
        <ele>93</ele>
        <time>2026-03-20T15:17:31Z</time>
      </trkpt>
      <trkpt lat="48.49455" lon="2.19269">
        <ele>93.6</ele>
        <time>2026-03-20T15:17:32Z</time>
      </trkpt>
      <trkpt lat="48.49451" lon="2.19265">
        <ele>93.6</ele>
        <time>2026-03-20T15:17:33Z</time>
      </trkpt>
      <trkpt lat="48.49449" lon="2.19263">
        <ele>93.6</ele>
        <time>2026-03-20T15:17:34Z</time>
      </trkpt>
      <trkpt lat="48.49447" lon="2.19262">
        <ele>93.6</ele>
        <time>2026-03-20T15:17:35Z</time>
      </trkpt>
      <trkpt lat="48.49444" lon="2.1926">
        <ele>93.4</ele>
        <time>2026-03-20T15:17:36Z</time>
      </trkpt>
      <trkpt lat="48.49441" lon="2.19257">
        <ele>93.4</ele>
        <time>2026-03-20T15:17:37Z</time>
      </trkpt>
      <trkpt lat="48.49437" lon="2.19255">
        <ele>93.4</ele>
        <time>2026-03-20T15:17:38Z</time>
      </trkpt>
      <trkpt lat="48.49433" lon="2.19252">
        <ele>93</ele>
        <time>2026-03-20T15:17:39Z</time>
      </trkpt>
      <trkpt lat="48.49429" lon="2.19249">
        <ele>93</ele>
        <time>2026-03-20T15:17:40Z</time>
      </trkpt>
      <trkpt lat="48.49425" lon="2.19246">
        <ele>93</ele>
        <time>2026-03-20T15:17:41Z</time>
      </trkpt>
      <trkpt lat="48.49421" lon="2.19242">
        <ele>93</ele>
        <time>2026-03-20T15:17:42Z</time>
      </trkpt>
      <trkpt lat="48.49416" lon="2.19238">
        <ele>92.6</ele>
        <time>2026-03-20T15:17:43Z</time>
      </trkpt>
      <trkpt lat="48.49412" lon="2.19234">
        <ele>92.6</ele>
        <time>2026-03-20T15:17:44Z</time>
      </trkpt>
      <trkpt lat="48.49407" lon="2.1923">
        <ele>92.6</ele>
        <time>2026-03-20T15:17:45Z</time>
      </trkpt>
      <trkpt lat="48.49402" lon="2.19226">
        <ele>92.6</ele>
        <time>2026-03-20T15:17:46Z</time>
      </trkpt>
      <trkpt lat="48.49397" lon="2.19222">
        <ele>92.6</ele>
        <time>2026-03-20T15:17:47Z</time>
      </trkpt>
      <trkpt lat="48.49392" lon="2.19218">
        <ele>92.2</ele>
        <time>2026-03-20T15:17:48Z</time>
      </trkpt>
      <trkpt lat="48.49386" lon="2.19213">
        <ele>92.2</ele>
        <time>2026-03-20T15:17:49Z</time>
      </trkpt>
      <trkpt lat="48.49381" lon="2.19209">
        <ele>92.2</ele>
        <time>2026-03-20T15:17:50Z</time>
      </trkpt>
      <trkpt lat="48.49376" lon="2.19205">
        <ele>92.2</ele>
        <time>2026-03-20T15:17:51Z</time>
      </trkpt>
      <trkpt lat="48.49371" lon="2.192">
        <ele>92.2</ele>
        <time>2026-03-20T15:17:52Z</time>
      </trkpt>
      <trkpt lat="48.49366" lon="2.19196">
        <ele>92.2</ele>
        <time>2026-03-20T15:17:53Z</time>
      </trkpt>
      <trkpt lat="48.4936" lon="2.19192">
        <ele>92.2</ele>
        <time>2026-03-20T15:17:54Z</time>
      </trkpt>
      <trkpt lat="48.49355" lon="2.19188">
        <ele>92.2</ele>
        <time>2026-03-20T15:17:55Z</time>
      </trkpt>
      <trkpt lat="48.4935" lon="2.19184">
        <ele>91.6</ele>
        <time>2026-03-20T15:17:56Z</time>
      </trkpt>
      <trkpt lat="48.49345" lon="2.1918">
        <ele>91.6</ele>
        <time>2026-03-20T15:17:57Z</time>
      </trkpt>
      <trkpt lat="48.4934" lon="2.19176">
        <ele>91.6</ele>
        <time>2026-03-20T15:17:58Z</time>
      </trkpt>
      <trkpt lat="48.49335" lon="2.19172">
        <ele>91.6</ele>
        <time>2026-03-20T15:17:59Z</time>
      </trkpt>
      <trkpt lat="48.4933" lon="2.19169">
        <ele>91.2</ele>
        <time>2026-03-20T15:18:00Z</time>
      </trkpt>
      <trkpt lat="48.49324" lon="2.19165">
        <ele>91.2</ele>
        <time>2026-03-20T15:18:01Z</time>
      </trkpt>
      <trkpt lat="48.49319" lon="2.19161">
        <ele>91.2</ele>
        <time>2026-03-20T15:18:02Z</time>
      </trkpt>
      <trkpt lat="48.49314" lon="2.19157">
        <ele>91.2</ele>
        <time>2026-03-20T15:18:03Z</time>
      </trkpt>
      <trkpt lat="48.4931" lon="2.19153">
        <ele>90.8</ele>
        <time>2026-03-20T15:18:04Z</time>
      </trkpt>
      <trkpt lat="48.49305" lon="2.1915">
        <ele>90.8</ele>
        <time>2026-03-20T15:18:05Z</time>
      </trkpt>
      <trkpt lat="48.49302" lon="2.19147">
        <ele>90.8</ele>
        <time>2026-03-20T15:18:06Z</time>
      </trkpt>
      <trkpt lat="48.49299" lon="2.19143">
        <ele>91.4</ele>
        <time>2026-03-20T15:18:07Z</time>
      </trkpt>
      <trkpt lat="48.49295" lon="2.1914">
        <ele>91.6</ele>
        <time>2026-03-20T15:18:08Z</time>
      </trkpt>
      <trkpt lat="48.49292" lon="2.19138">
        <ele>91.6</ele>
        <time>2026-03-20T15:18:09Z</time>
      </trkpt>
      <trkpt lat="48.49288" lon="2.19135">
        <ele>91.6</ele>
        <time>2026-03-20T15:18:10Z</time>
      </trkpt>
      <trkpt lat="48.49284" lon="2.19132">
        <ele>90.6</ele>
        <time>2026-03-20T15:18:11Z</time>
      </trkpt>
      <trkpt lat="48.4928" lon="2.1913">
        <ele>90.6</ele>
        <time>2026-03-20T15:18:12Z</time>
      </trkpt>
      <trkpt lat="48.49276" lon="2.19127">
        <ele>90.6</ele>
        <time>2026-03-20T15:18:13Z</time>
      </trkpt>
      <trkpt lat="48.49272" lon="2.19124">
        <ele>90.6</ele>
        <time>2026-03-20T15:18:14Z</time>
      </trkpt>
      <trkpt lat="48.49268" lon="2.19121">
        <ele>90.6</ele>
        <time>2026-03-20T15:18:15Z</time>
      </trkpt>
      <trkpt lat="48.49265" lon="2.19118">
        <ele>90.2</ele>
        <time>2026-03-20T15:18:16Z</time>
      </trkpt>
      <trkpt lat="48.49261" lon="2.19116">
        <ele>90.2</ele>
        <time>2026-03-20T15:18:17Z</time>
      </trkpt>
      <trkpt lat="48.49258" lon="2.19112">
        <ele>90.2</ele>
        <time>2026-03-20T15:18:18Z</time>
      </trkpt>
      <trkpt lat="48.49256" lon="2.19107">
        <ele>89.8</ele>
        <time>2026-03-20T15:18:19Z</time>
      </trkpt>
      <trkpt lat="48.49257" lon="2.19103">
        <ele>89.8</ele>
        <time>2026-03-20T15:18:20Z</time>
      </trkpt>
      <trkpt lat="48.49259" lon="2.19099">
        <ele>89.8</ele>
        <time>2026-03-20T15:18:21Z</time>
      </trkpt>
      <trkpt lat="48.4926" lon="2.19096">
        <ele>89.8</ele>
        <time>2026-03-20T15:18:22Z</time>
      </trkpt>
      <trkpt lat="48.49262" lon="2.19093">
        <ele>90.2</ele>
        <time>2026-03-20T15:18:23Z</time>
      </trkpt>
      <trkpt lat="48.49264" lon="2.1909">
        <ele>90.6</ele>
        <time>2026-03-20T15:18:24Z</time>
      </trkpt>
      <trkpt lat="48.49265" lon="2.19087">
        <ele>90.6</ele>
        <time>2026-03-20T15:18:25Z</time>
      </trkpt>
      <trkpt lat="48.49267" lon="2.19083">
        <ele>90.6</ele>
        <time>2026-03-20T15:18:26Z</time>
      </trkpt>
      <trkpt lat="48.49269" lon="2.1908">
        <ele>90.6</ele>
        <time>2026-03-20T15:18:27Z</time>
      </trkpt>
      <trkpt lat="48.4927" lon="2.19078">
        <ele>90.8</ele>
        <time>2026-03-20T15:18:28Z</time>
      </trkpt>
      <trkpt lat="48.49272" lon="2.19075">
        <ele>90.8</ele>
        <time>2026-03-20T15:18:29Z</time>
      </trkpt>
      <trkpt lat="48.49273" lon="2.19072">
        <ele>90.8</ele>
        <time>2026-03-20T15:18:30Z</time>
      </trkpt>
      <trkpt lat="48.49274" lon="2.19069">
        <ele>90.8</ele>
        <time>2026-03-20T15:18:31Z</time>
      </trkpt>
      <trkpt lat="48.49276" lon="2.19066">
        <ele>91</ele>
        <time>2026-03-20T15:18:32Z</time>
      </trkpt>
      <trkpt lat="48.49277" lon="2.19063">
        <ele>91</ele>
        <time>2026-03-20T15:18:33Z</time>
      </trkpt>
      <trkpt lat="48.49279" lon="2.1906">
        <ele>91</ele>
        <time>2026-03-20T15:18:34Z</time>
      </trkpt>
      <trkpt lat="48.4928" lon="2.19058">
        <ele>91.2</ele>
        <time>2026-03-20T15:18:35Z</time>
      </trkpt>
      <trkpt lat="48.49282" lon="2.19055">
        <ele>91.6</ele>
        <time>2026-03-20T15:18:36Z</time>
      </trkpt>
      <trkpt lat="48.49284" lon="2.19052">
        <ele>91.6</ele>
        <time>2026-03-20T15:18:37Z</time>
      </trkpt>
      <trkpt lat="48.49286" lon="2.19049">
        <ele>91.6</ele>
        <time>2026-03-20T15:18:38Z</time>
      </trkpt>
      <trkpt lat="48.49288" lon="2.19046">
        <ele>91.2</ele>
        <time>2026-03-20T15:18:39Z</time>
      </trkpt>
      <trkpt lat="48.4929" lon="2.19043">
        <ele>91.6</ele>
        <time>2026-03-20T15:18:40Z</time>
      </trkpt>
      <trkpt lat="48.49292" lon="2.1904">
        <ele>91.6</ele>
        <time>2026-03-20T15:18:41Z</time>
      </trkpt>
      <trkpt lat="48.49294" lon="2.19036">
        <ele>91.6</ele>
        <time>2026-03-20T15:18:42Z</time>
      </trkpt>
      <trkpt lat="48.49295" lon="2.19031">
        <ele>92.6</ele>
        <time>2026-03-20T15:18:43Z</time>
      </trkpt>
      <trkpt lat="48.49295" lon="2.19027">
        <ele>93.2</ele>
        <time>2026-03-20T15:18:44Z</time>
      </trkpt>
      <trkpt lat="48.49296" lon="2.19022">
        <ele>93.2</ele>
        <time>2026-03-20T15:18:45Z</time>
      </trkpt>
      <trkpt lat="48.49297" lon="2.19018">
        <ele>93.2</ele>
        <time>2026-03-20T15:18:46Z</time>
      </trkpt>
      <trkpt lat="48.49298" lon="2.19013">
        <ele>93.2</ele>
        <time>2026-03-20T15:18:47Z</time>
      </trkpt>
      <trkpt lat="48.49298" lon="2.19008">
        <ele>93.4</ele>
        <time>2026-03-20T15:18:48Z</time>
      </trkpt>
      <trkpt lat="48.49299" lon="2.19004">
        <ele>93.4</ele>
        <time>2026-03-20T15:18:49Z</time>
      </trkpt>
      <trkpt lat="48.493" lon="2.18999">
        <ele>93.4</ele>
        <time>2026-03-20T15:18:50Z</time>
      </trkpt>
      <trkpt lat="48.49301" lon="2.18995">
        <ele>92.6</ele>
        <time>2026-03-20T15:18:51Z</time>
      </trkpt>
      <trkpt lat="48.49302" lon="2.18991">
        <ele>92</ele>
        <time>2026-03-20T15:18:52Z</time>
      </trkpt>
      <trkpt lat="48.49304" lon="2.18986">
        <ele>92</ele>
        <time>2026-03-20T15:18:53Z</time>
      </trkpt>
      <trkpt lat="48.49305" lon="2.18982">
        <ele>92</ele>
        <time>2026-03-20T15:18:54Z</time>
      </trkpt>
      <trkpt lat="48.49305" lon="2.18977">
        <ele>92</ele>
        <time>2026-03-20T15:18:55Z</time>
      </trkpt>
      <trkpt lat="48.49306" lon="2.18973">
        <ele>92.6</ele>
        <time>2026-03-20T15:18:56Z</time>
      </trkpt>
      <trkpt lat="48.49306" lon="2.18968">
        <ele>92.6</ele>
        <time>2026-03-20T15:18:57Z</time>
      </trkpt>
      <trkpt lat="48.49306" lon="2.18963">
        <ele>92.6</ele>
        <time>2026-03-20T15:18:58Z</time>
      </trkpt>
      <trkpt lat="48.49306" lon="2.1896">
        <ele>93.2</ele>
        <time>2026-03-20T15:18:59Z</time>
      </trkpt>
      <trkpt lat="48.49306" lon="2.18955">
        <ele>93.4</ele>
        <time>2026-03-20T15:19:00Z</time>
      </trkpt>
      <trkpt lat="48.49307" lon="2.18949">
        <ele>93.4</ele>
        <time>2026-03-20T15:19:01Z</time>
      </trkpt>
      <trkpt lat="48.49308" lon="2.18943">
        <ele>93.4</ele>
        <time>2026-03-20T15:19:02Z</time>
      </trkpt>
      <trkpt lat="48.49308" lon="2.18938">
        <ele>92.4</ele>
        <time>2026-03-20T15:19:03Z</time>
      </trkpt>
      <trkpt lat="48.49308" lon="2.18931">
        <ele>91.8</ele>
        <time>2026-03-20T15:19:04Z</time>
      </trkpt>
      <trkpt lat="48.49308" lon="2.18925">
        <ele>91.8</ele>
        <time>2026-03-20T15:19:05Z</time>
      </trkpt>
      <trkpt lat="48.49309" lon="2.18918">
        <ele>91.8</ele>
        <time>2026-03-20T15:19:06Z</time>
      </trkpt>
      <trkpt lat="48.4931" lon="2.18912">
        <ele>91.2</ele>
        <time>2026-03-20T15:19:07Z</time>
      </trkpt>
      <trkpt lat="48.49312" lon="2.18906">
        <ele>91</ele>
        <time>2026-03-20T15:19:08Z</time>
      </trkpt>
      <trkpt lat="48.49313" lon="2.189">
        <ele>91</ele>
        <time>2026-03-20T15:19:09Z</time>
      </trkpt>
      <trkpt lat="48.49315" lon="2.18893">
        <ele>91</ele>
        <time>2026-03-20T15:19:10Z</time>
      </trkpt>
      <trkpt lat="48.49317" lon="2.18887">
        <ele>91.8</ele>
        <time>2026-03-20T15:19:11Z</time>
      </trkpt>
      <trkpt lat="48.49318" lon="2.1888">
        <ele>91.2</ele>
        <time>2026-03-20T15:19:12Z</time>
      </trkpt>
      <trkpt lat="48.49319" lon="2.18874">
        <ele>91.2</ele>
        <time>2026-03-20T15:19:13Z</time>
      </trkpt>
      <trkpt lat="48.4932" lon="2.18867">
        <ele>91.2</ele>
        <time>2026-03-20T15:19:14Z</time>
      </trkpt>
      <trkpt lat="48.49322" lon="2.18861">
        <ele>91.8</ele>
        <time>2026-03-20T15:19:15Z</time>
      </trkpt>
      <trkpt lat="48.49323" lon="2.18855">
        <ele>92</ele>
        <time>2026-03-20T15:19:16Z</time>
      </trkpt>
      <trkpt lat="48.49324" lon="2.18849">
        <ele>92</ele>
        <time>2026-03-20T15:19:17Z</time>
      </trkpt>
      <trkpt lat="48.49326" lon="2.18843">
        <ele>92</ele>
        <time>2026-03-20T15:19:18Z</time>
      </trkpt>
      <trkpt lat="48.49327" lon="2.18837">
        <ele>92</ele>
        <time>2026-03-20T15:19:19Z</time>
      </trkpt>
      <trkpt lat="48.49328" lon="2.18831">
        <ele>92.4</ele>
        <time>2026-03-20T15:19:20Z</time>
      </trkpt>
      <trkpt lat="48.49329" lon="2.18825">
        <ele>92.4</ele>
        <time>2026-03-20T15:19:21Z</time>
      </trkpt>
      <trkpt lat="48.4933" lon="2.1882">
        <ele>92.4</ele>
        <time>2026-03-20T15:19:22Z</time>
      </trkpt>
      <trkpt lat="48.4933" lon="2.18814">
        <ele>92.4</ele>
        <time>2026-03-20T15:19:23Z</time>
      </trkpt>
      <trkpt lat="48.49331" lon="2.18809">
        <ele>93.2</ele>
        <time>2026-03-20T15:19:24Z</time>
      </trkpt>
      <trkpt lat="48.49332" lon="2.18804">
        <ele>93.2</ele>
        <time>2026-03-20T15:19:25Z</time>
      </trkpt>
      <trkpt lat="48.49332" lon="2.18799">
        <ele>93.2</ele>
        <time>2026-03-20T15:19:26Z</time>
      </trkpt>
      <trkpt lat="48.49334" lon="2.18793">
        <ele>93.2</ele>
        <time>2026-03-20T15:19:27Z</time>
      </trkpt>
      <trkpt lat="48.49334" lon="2.18787">
        <ele>93.4</ele>
        <time>2026-03-20T15:19:28Z</time>
      </trkpt>
      <trkpt lat="48.49335" lon="2.18781">
        <ele>93.4</ele>
        <time>2026-03-20T15:19:29Z</time>
      </trkpt>
      <trkpt lat="48.49335" lon="2.18776">
        <ele>93.4</ele>
        <time>2026-03-20T15:19:30Z</time>
      </trkpt>
      <trkpt lat="48.49335" lon="2.18771">
        <ele>93.4</ele>
        <time>2026-03-20T15:19:31Z</time>
      </trkpt>
      <trkpt lat="48.49335" lon="2.18765">
        <ele>93.8</ele>
        <time>2026-03-20T15:19:32Z</time>
      </trkpt>
      <trkpt lat="48.49336" lon="2.18761">
        <ele>93.8</ele>
        <time>2026-03-20T15:19:33Z</time>
      </trkpt>
      <trkpt lat="48.49336" lon="2.18755">
        <ele>93.8</ele>
        <time>2026-03-20T15:19:34Z</time>
      </trkpt>
      <trkpt lat="48.49337" lon="2.18749">
        <ele>93.8</ele>
        <time>2026-03-20T15:19:35Z</time>
      </trkpt>
      <trkpt lat="48.49337" lon="2.18744">
        <ele>94</ele>
        <time>2026-03-20T15:19:36Z</time>
      </trkpt>
      <trkpt lat="48.49338" lon="2.18739">
        <ele>94</ele>
        <time>2026-03-20T15:19:37Z</time>
      </trkpt>
      <trkpt lat="48.49337" lon="2.18734">
        <ele>94</ele>
        <time>2026-03-20T15:19:38Z</time>
      </trkpt>
      <trkpt lat="48.49338" lon="2.18728">
        <ele>94.4</ele>
        <time>2026-03-20T15:19:39Z</time>
      </trkpt>
      <trkpt lat="48.49339" lon="2.18722">
        <ele>94.4</ele>
        <time>2026-03-20T15:19:40Z</time>
      </trkpt>
      <trkpt lat="48.49339" lon="2.18716">
        <ele>94.4</ele>
        <time>2026-03-20T15:19:41Z</time>
      </trkpt>
      <trkpt lat="48.49339" lon="2.1871">
        <ele>94.4</ele>
        <time>2026-03-20T15:19:42Z</time>
      </trkpt>
      <trkpt lat="48.49339" lon="2.18704">
        <ele>95.2</ele>
        <time>2026-03-20T15:19:43Z</time>
      </trkpt>
      <trkpt lat="48.4934" lon="2.18698">
        <ele>95.2</ele>
        <time>2026-03-20T15:19:44Z</time>
      </trkpt>
      <trkpt lat="48.4934" lon="2.18693">
        <ele>95.2</ele>
        <time>2026-03-20T15:19:45Z</time>
      </trkpt>
      <trkpt lat="48.4934" lon="2.18688">
        <ele>95.2</ele>
        <time>2026-03-20T15:19:46Z</time>
      </trkpt>
      <trkpt lat="48.49341" lon="2.18681">
        <ele>95.2</ele>
        <time>2026-03-20T15:19:47Z</time>
      </trkpt>
      <trkpt lat="48.49342" lon="2.18675">
        <ele>95.4</ele>
        <time>2026-03-20T15:19:48Z</time>
      </trkpt>
      <trkpt lat="48.49342" lon="2.1867">
        <ele>95.4</ele>
        <time>2026-03-20T15:19:49Z</time>
      </trkpt>
      <trkpt lat="48.49343" lon="2.18664">
        <ele>95.4</ele>
        <time>2026-03-20T15:19:50Z</time>
      </trkpt>
      <trkpt lat="48.49343" lon="2.18658">
        <ele>95.8</ele>
        <time>2026-03-20T15:19:51Z</time>
      </trkpt>
      <trkpt lat="48.49344" lon="2.18652">
        <ele>96.2</ele>
        <time>2026-03-20T15:19:52Z</time>
      </trkpt>
      <trkpt lat="48.49344" lon="2.18646">
        <ele>96.2</ele>
        <time>2026-03-20T15:19:53Z</time>
      </trkpt>
      <trkpt lat="48.49345" lon="2.18639">
        <ele>96.2</ele>
        <time>2026-03-20T15:19:54Z</time>
      </trkpt>
      <trkpt lat="48.49346" lon="2.18633">
        <ele>96.4</ele>
        <time>2026-03-20T15:19:55Z</time>
      </trkpt>
      <trkpt lat="48.49347" lon="2.18626">
        <ele>97</ele>
        <time>2026-03-20T15:19:56Z</time>
      </trkpt>
      <trkpt lat="48.49347" lon="2.1862">
        <ele>97</ele>
        <time>2026-03-20T15:19:57Z</time>
      </trkpt>
      <trkpt lat="48.49348" lon="2.18614">
        <ele>97</ele>
        <time>2026-03-20T15:19:58Z</time>
      </trkpt>
      <trkpt lat="48.49349" lon="2.18607">
        <ele>97</ele>
        <time>2026-03-20T15:19:59Z</time>
      </trkpt>
      <trkpt lat="48.4935" lon="2.18603">
        <ele>97</ele>
        <time>2026-03-20T15:20:00Z</time>
      </trkpt>
      <trkpt lat="48.49351" lon="2.18601">
        <ele>97</ele>
        <time>2026-03-20T15:20:01Z</time>
      </trkpt>
      <trkpt lat="48.49352" lon="2.18597">
        <ele>97</ele>
        <time>2026-03-20T15:20:02Z</time>
      </trkpt>
      <trkpt lat="48.49352" lon="2.18593">
        <ele>97</ele>
        <time>2026-03-20T15:20:03Z</time>
      </trkpt>
      <trkpt lat="48.49351" lon="2.18588">
        <ele>96.6</ele>
        <time>2026-03-20T15:20:04Z</time>
      </trkpt>
      <trkpt lat="48.49349" lon="2.18584">
        <ele>96.6</ele>
        <time>2026-03-20T15:20:05Z</time>
      </trkpt>
      <trkpt lat="48.49347" lon="2.18579">
        <ele>96.6</ele>
        <time>2026-03-20T15:20:06Z</time>
      </trkpt>
      <trkpt lat="48.49345" lon="2.18573">
        <ele>96.6</ele>
        <time>2026-03-20T15:20:07Z</time>
      </trkpt>
      <trkpt lat="48.49344" lon="2.18566">
        <ele>96</ele>
        <time>2026-03-20T15:20:08Z</time>
      </trkpt>
      <trkpt lat="48.49343" lon="2.18559">
        <ele>96</ele>
        <time>2026-03-20T15:20:09Z</time>
      </trkpt>
      <trkpt lat="48.49342" lon="2.18552">
        <ele>96</ele>
        <time>2026-03-20T15:20:10Z</time>
      </trkpt>
      <trkpt lat="48.49341" lon="2.18545">
        <ele>96</ele>
        <time>2026-03-20T15:20:11Z</time>
      </trkpt>
      <trkpt lat="48.49339" lon="2.18538">
        <ele>96.2</ele>
        <time>2026-03-20T15:20:12Z</time>
      </trkpt>
      <trkpt lat="48.49338" lon="2.1853">
        <ele>96.2</ele>
        <time>2026-03-20T15:20:13Z</time>
      </trkpt>
      <trkpt lat="48.49336" lon="2.18523">
        <ele>96.2</ele>
        <time>2026-03-20T15:20:14Z</time>
      </trkpt>
      <trkpt lat="48.49335" lon="2.18515">
        <ele>96</ele>
        <time>2026-03-20T15:20:15Z</time>
      </trkpt>
      <trkpt lat="48.49334" lon="2.18508">
        <ele>96</ele>
        <time>2026-03-20T15:20:16Z</time>
      </trkpt>
      <trkpt lat="48.49333" lon="2.18501">
        <ele>96</ele>
        <time>2026-03-20T15:20:17Z</time>
      </trkpt>
      <trkpt lat="48.49332" lon="2.18493">
        <ele>96</ele>
        <time>2026-03-20T15:20:18Z</time>
      </trkpt>
      <trkpt lat="48.49331" lon="2.18485">
        <ele>96</ele>
        <time>2026-03-20T15:20:19Z</time>
      </trkpt>
      <trkpt lat="48.4933" lon="2.18477">
        <ele>96.6</ele>
        <time>2026-03-20T15:20:20Z</time>
      </trkpt>
      <trkpt lat="48.49329" lon="2.1847">
        <ele>96.6</ele>
        <time>2026-03-20T15:20:21Z</time>
      </trkpt>
      <trkpt lat="48.49328" lon="2.18462">
        <ele>96.6</ele>
        <time>2026-03-20T15:20:22Z</time>
      </trkpt>
      <trkpt lat="48.49327" lon="2.18454">
        <ele>95.6</ele>
        <time>2026-03-20T15:20:23Z</time>
      </trkpt>
      <trkpt lat="48.49327" lon="2.18446">
        <ele>95.8</ele>
        <time>2026-03-20T15:20:24Z</time>
      </trkpt>
      <trkpt lat="48.49326" lon="2.18438">
        <ele>95.8</ele>
        <time>2026-03-20T15:20:25Z</time>
      </trkpt>
      <trkpt lat="48.49324" lon="2.1843">
        <ele>95.8</ele>
        <time>2026-03-20T15:20:26Z</time>
      </trkpt>
      <trkpt lat="48.49323" lon="2.18422">
        <ele>95.8</ele>
        <time>2026-03-20T15:20:27Z</time>
      </trkpt>
      <trkpt lat="48.49322" lon="2.18414">
        <ele>95.6</ele>
        <time>2026-03-20T15:20:28Z</time>
      </trkpt>
      <trkpt lat="48.49321" lon="2.18405">
        <ele>95.6</ele>
        <time>2026-03-20T15:20:29Z</time>
      </trkpt>
      <trkpt lat="48.4932" lon="2.18396">
        <ele>95.6</ele>
        <time>2026-03-20T15:20:30Z</time>
      </trkpt>
      <trkpt lat="48.49319" lon="2.18387">
        <ele>94.6</ele>
        <time>2026-03-20T15:20:31Z</time>
      </trkpt>
      <trkpt lat="48.49318" lon="2.18378">
        <ele>94.6</ele>
        <time>2026-03-20T15:20:32Z</time>
      </trkpt>
      <trkpt lat="48.49317" lon="2.18369">
        <ele>94.6</ele>
        <time>2026-03-20T15:20:33Z</time>
      </trkpt>
      <trkpt lat="48.49316" lon="2.1836">
        <ele>94.6</ele>
        <time>2026-03-20T15:20:34Z</time>
      </trkpt>
      <trkpt lat="48.49315" lon="2.1835">
        <ele>94.8</ele>
        <time>2026-03-20T15:20:35Z</time>
      </trkpt>
      <trkpt lat="48.49314" lon="2.18341">
        <ele>95.2</ele>
        <time>2026-03-20T15:20:36Z</time>
      </trkpt>
      <trkpt lat="48.49313" lon="2.18332">
        <ele>95.2</ele>
        <time>2026-03-20T15:20:37Z</time>
      </trkpt>
      <trkpt lat="48.49312" lon="2.18323">
        <ele>95.2</ele>
        <time>2026-03-20T15:20:38Z</time>
      </trkpt>
      <trkpt lat="48.49311" lon="2.18313">
        <ele>94.2</ele>
        <time>2026-03-20T15:20:39Z</time>
      </trkpt>
      <trkpt lat="48.49309" lon="2.18304">
        <ele>94.2</ele>
        <time>2026-03-20T15:20:40Z</time>
      </trkpt>
      <trkpt lat="48.49308" lon="2.18295">
        <ele>94.2</ele>
        <time>2026-03-20T15:20:41Z</time>
      </trkpt>
      <trkpt lat="48.49307" lon="2.18285">
        <ele>94.2</ele>
        <time>2026-03-20T15:20:42Z</time>
      </trkpt>
      <trkpt lat="48.49305" lon="2.18277">
        <ele>94.2</ele>
        <time>2026-03-20T15:20:43Z</time>
      </trkpt>
      <trkpt lat="48.49304" lon="2.18267">
        <ele>93.8</ele>
        <time>2026-03-20T15:20:44Z</time>
      </trkpt>
      <trkpt lat="48.49302" lon="2.18258">
        <ele>93.8</ele>
        <time>2026-03-20T15:20:45Z</time>
      </trkpt>
      <trkpt lat="48.49301" lon="2.18249">
        <ele>93.8</ele>
        <time>2026-03-20T15:20:46Z</time>
      </trkpt>
      <trkpt lat="48.493" lon="2.18241">
        <ele>93.8</ele>
        <time>2026-03-20T15:20:47Z</time>
      </trkpt>
      <trkpt lat="48.49298" lon="2.18232">
        <ele>94</ele>
        <time>2026-03-20T15:20:48Z</time>
      </trkpt>
      <trkpt lat="48.49296" lon="2.18223">
        <ele>94</ele>
        <time>2026-03-20T15:20:49Z</time>
      </trkpt>
      <trkpt lat="48.49295" lon="2.18215">
        <ele>94</ele>
        <time>2026-03-20T15:20:50Z</time>
      </trkpt>
      <trkpt lat="48.49293" lon="2.18206">
        <ele>94</ele>
        <time>2026-03-20T15:20:51Z</time>
      </trkpt>
      <trkpt lat="48.49292" lon="2.18198">
        <ele>95</ele>
        <time>2026-03-20T15:20:52Z</time>
      </trkpt>
      <trkpt lat="48.4929" lon="2.1819">
        <ele>95</ele>
        <time>2026-03-20T15:20:53Z</time>
      </trkpt>
      <trkpt lat="48.49289" lon="2.18182">
        <ele>95</ele>
        <time>2026-03-20T15:20:54Z</time>
      </trkpt>
      <trkpt lat="48.49288" lon="2.18173">
        <ele>95</ele>
        <time>2026-03-20T15:20:55Z</time>
      </trkpt>
      <trkpt lat="48.49286" lon="2.18165">
        <ele>95.4</ele>
        <time>2026-03-20T15:20:56Z</time>
      </trkpt>
      <trkpt lat="48.49285" lon="2.18156">
        <ele>95.4</ele>
        <time>2026-03-20T15:20:57Z</time>
      </trkpt>
      <trkpt lat="48.49284" lon="2.18148">
        <ele>95.4</ele>
        <time>2026-03-20T15:20:58Z</time>
      </trkpt>
      <trkpt lat="48.49283" lon="2.1814">
        <ele>96</ele>
        <time>2026-03-20T15:20:59Z</time>
      </trkpt>
      <trkpt lat="48.49281" lon="2.18132">
        <ele>96.4</ele>
        <time>2026-03-20T15:21:00Z</time>
      </trkpt>
      <trkpt lat="48.4928" lon="2.18124">
        <ele>96.4</ele>
        <time>2026-03-20T15:21:01Z</time>
      </trkpt>
      <trkpt lat="48.49279" lon="2.18116">
        <ele>96.4</ele>
        <time>2026-03-20T15:21:02Z</time>
      </trkpt>
      <trkpt lat="48.49278" lon="2.18108">
        <ele>96.4</ele>
        <time>2026-03-20T15:21:03Z</time>
      </trkpt>
      <trkpt lat="48.49276" lon="2.181">
        <ele>96.4</ele>
        <time>2026-03-20T15:21:04Z</time>
      </trkpt>
      <trkpt lat="48.49275" lon="2.18092">
        <ele>96.4</ele>
        <time>2026-03-20T15:21:05Z</time>
      </trkpt>
      <trkpt lat="48.49274" lon="2.18084">
        <ele>96.4</ele>
        <time>2026-03-20T15:21:06Z</time>
      </trkpt>
      <trkpt lat="48.49274" lon="2.18077">
        <ele>96.4</ele>
        <time>2026-03-20T15:21:07Z</time>
      </trkpt>
      <trkpt lat="48.49273" lon="2.18069">
        <ele>96.6</ele>
        <time>2026-03-20T15:21:08Z</time>
      </trkpt>
      <trkpt lat="48.49273" lon="2.18061">
        <ele>96.6</ele>
        <time>2026-03-20T15:21:09Z</time>
      </trkpt>
      <trkpt lat="48.49272" lon="2.18054">
        <ele>96.6</ele>
        <time>2026-03-20T15:21:10Z</time>
      </trkpt>
      <trkpt lat="48.49272" lon="2.18047">
        <ele>97.4</ele>
        <time>2026-03-20T15:21:11Z</time>
      </trkpt>
      <trkpt lat="48.49272" lon="2.1804">
        <ele>97.4</ele>
        <time>2026-03-20T15:21:12Z</time>
      </trkpt>
      <trkpt lat="48.49272" lon="2.18033">
        <ele>97.4</ele>
        <time>2026-03-20T15:21:13Z</time>
      </trkpt>
      <trkpt lat="48.49272" lon="2.18026">
        <ele>97.4</ele>
        <time>2026-03-20T15:21:14Z</time>
      </trkpt>
      <trkpt lat="48.49272" lon="2.18019">
        <ele>97.4</ele>
        <time>2026-03-20T15:21:15Z</time>
      </trkpt>
      <trkpt lat="48.49273" lon="2.18012">
        <ele>97.6</ele>
        <time>2026-03-20T15:21:16Z</time>
      </trkpt>
      <trkpt lat="48.49273" lon="2.18006">
        <ele>97.6</ele>
        <time>2026-03-20T15:21:17Z</time>
      </trkpt>
      <trkpt lat="48.49275" lon="2.17999">
        <ele>97.6</ele>
        <time>2026-03-20T15:21:18Z</time>
      </trkpt>
      <trkpt lat="48.49277" lon="2.17994">
        <ele>97.6</ele>
        <time>2026-03-20T15:21:19Z</time>
      </trkpt>
      <trkpt lat="48.4928" lon="2.17989">
        <ele>97.8</ele>
        <time>2026-03-20T15:21:20Z</time>
      </trkpt>
      <trkpt lat="48.49283" lon="2.17984">
        <ele>97.8</ele>
        <time>2026-03-20T15:21:21Z</time>
      </trkpt>
      <trkpt lat="48.49287" lon="2.17981">
        <ele>97.8</ele>
        <time>2026-03-20T15:21:22Z</time>
      </trkpt>
      <trkpt lat="48.49292" lon="2.17978">
        <ele>97.8</ele>
        <time>2026-03-20T15:21:23Z</time>
      </trkpt>
      <trkpt lat="48.49296" lon="2.17975">
        <ele>96.8</ele>
        <time>2026-03-20T15:21:24Z</time>
      </trkpt>
      <trkpt lat="48.49301" lon="2.17974">
        <ele>96.8</ele>
        <time>2026-03-20T15:21:25Z</time>
      </trkpt>
      <trkpt lat="48.49306" lon="2.17972">
        <ele>96.8</ele>
        <time>2026-03-20T15:21:26Z</time>
      </trkpt>
      <trkpt lat="48.49311" lon="2.17971">
        <ele>95.8</ele>
        <time>2026-03-20T15:21:27Z</time>
      </trkpt>
      <trkpt lat="48.49316" lon="2.17971">
        <ele>95</ele>
        <time>2026-03-20T15:21:28Z</time>
      </trkpt>
      <trkpt lat="48.49321" lon="2.17972">
        <ele>95</ele>
        <time>2026-03-20T15:21:29Z</time>
      </trkpt>
      <trkpt lat="48.49326" lon="2.17975">
        <ele>95</ele>
        <time>2026-03-20T15:21:30Z</time>
      </trkpt>
      <trkpt lat="48.4933" lon="2.17978">
        <ele>95.4</ele>
        <time>2026-03-20T15:21:31Z</time>
      </trkpt>
      <trkpt lat="48.49335" lon="2.17981">
        <ele>95.6</ele>
        <time>2026-03-20T15:21:32Z</time>
      </trkpt>
      <trkpt lat="48.4934" lon="2.17984">
        <ele>95.6</ele>
        <time>2026-03-20T15:21:33Z</time>
      </trkpt>
      <trkpt lat="48.49345" lon="2.17987">
        <ele>95.6</ele>
        <time>2026-03-20T15:21:34Z</time>
      </trkpt>
      <trkpt lat="48.4935" lon="2.1799">
        <ele>95.6</ele>
        <time>2026-03-20T15:21:35Z</time>
      </trkpt>
      <trkpt lat="48.49355" lon="2.17992">
        <ele>95.4</ele>
        <time>2026-03-20T15:21:36Z</time>
      </trkpt>
      <trkpt lat="48.4936" lon="2.17995">
        <ele>95.4</ele>
        <time>2026-03-20T15:21:37Z</time>
      </trkpt>
      <trkpt lat="48.49365" lon="2.17998">
        <ele>95.4</ele>
        <time>2026-03-20T15:21:38Z</time>
      </trkpt>
      <trkpt lat="48.4937" lon="2.18001">
        <ele>94.8</ele>
        <time>2026-03-20T15:21:39Z</time>
      </trkpt>
      <trkpt lat="48.49375" lon="2.18004">
        <ele>95.2</ele>
        <time>2026-03-20T15:21:40Z</time>
      </trkpt>
      <trkpt lat="48.4938" lon="2.18006">
        <ele>95.2</ele>
        <time>2026-03-20T15:21:41Z</time>
      </trkpt>
      <trkpt lat="48.49385" lon="2.18009">
        <ele>95.2</ele>
        <time>2026-03-20T15:21:42Z</time>
      </trkpt>
      <trkpt lat="48.4939" lon="2.18012">
        <ele>95.2</ele>
        <time>2026-03-20T15:21:43Z</time>
      </trkpt>
      <trkpt lat="48.49395" lon="2.18015">
        <ele>94</ele>
        <time>2026-03-20T15:21:44Z</time>
      </trkpt>
      <trkpt lat="48.494" lon="2.18018">
        <ele>94</ele>
        <time>2026-03-20T15:21:45Z</time>
      </trkpt>
      <trkpt lat="48.49405" lon="2.18021">
        <ele>94</ele>
        <time>2026-03-20T15:21:46Z</time>
      </trkpt>
      <trkpt lat="48.4941" lon="2.18023">
        <ele>94.6</ele>
        <time>2026-03-20T15:21:47Z</time>
      </trkpt>
      <trkpt lat="48.49415" lon="2.18026">
        <ele>95</ele>
        <time>2026-03-20T15:21:48Z</time>
      </trkpt>
      <trkpt lat="48.4942" lon="2.18029">
        <ele>95</ele>
        <time>2026-03-20T15:21:49Z</time>
      </trkpt>
      <trkpt lat="48.49425" lon="2.18032">
        <ele>95</ele>
        <time>2026-03-20T15:21:50Z</time>
      </trkpt>
      <trkpt lat="48.4943" lon="2.18034">
        <ele>95.6</ele>
        <time>2026-03-20T15:21:51Z</time>
      </trkpt>
      <trkpt lat="48.49434" lon="2.18036">
        <ele>95</ele>
        <time>2026-03-20T15:21:52Z</time>
      </trkpt>
      <trkpt lat="48.49439" lon="2.18039">
        <ele>95</ele>
        <time>2026-03-20T15:21:53Z</time>
      </trkpt>
      <trkpt lat="48.49443" lon="2.18041">
        <ele>95</ele>
        <time>2026-03-20T15:21:54Z</time>
      </trkpt>
      <trkpt lat="48.49448" lon="2.18043">
        <ele>96</ele>
        <time>2026-03-20T15:21:55Z</time>
      </trkpt>
      <trkpt lat="48.49452" lon="2.18045">
        <ele>96.4</ele>
        <time>2026-03-20T15:21:56Z</time>
      </trkpt>
      <trkpt lat="48.49456" lon="2.18047">
        <ele>96.4</ele>
        <time>2026-03-20T15:21:57Z</time>
      </trkpt>
      <trkpt lat="48.4946" lon="2.18049">
        <ele>96.4</ele>
        <time>2026-03-20T15:21:58Z</time>
      </trkpt>
      <trkpt lat="48.49463" lon="2.18051">
        <ele>97.4</ele>
        <time>2026-03-20T15:21:59Z</time>
      </trkpt>
      <trkpt lat="48.49466" lon="2.18052">
        <ele>98</ele>
        <time>2026-03-20T15:22:00Z</time>
      </trkpt>
      <trkpt lat="48.49469" lon="2.18054">
        <ele>98</ele>
        <time>2026-03-20T15:22:01Z</time>
      </trkpt>
      <trkpt lat="48.49472" lon="2.18056">
        <ele>98</ele>
        <time>2026-03-20T15:22:02Z</time>
      </trkpt>
      <trkpt lat="48.49475" lon="2.18057">
        <ele>98</ele>
        <time>2026-03-20T15:22:03Z</time>
      </trkpt>
      <trkpt lat="48.49478" lon="2.18059">
        <ele>98.6</ele>
        <time>2026-03-20T15:22:04Z</time>
      </trkpt>
      <trkpt lat="48.4948" lon="2.18061">
        <ele>98.6</ele>
        <time>2026-03-20T15:22:05Z</time>
      </trkpt>
      <trkpt lat="48.49482" lon="2.18063">
        <ele>98.6</ele>
        <time>2026-03-20T15:22:06Z</time>
      </trkpt>
      <trkpt lat="48.49485" lon="2.18065">
        <ele>99</ele>
        <time>2026-03-20T15:22:07Z</time>
      </trkpt>
      <trkpt lat="48.49487" lon="2.18067">
        <ele>99.6</ele>
        <time>2026-03-20T15:22:08Z</time>
      </trkpt>
      <trkpt lat="48.49489" lon="2.1807">
        <ele>99.6</ele>
        <time>2026-03-20T15:22:09Z</time>
      </trkpt>
      <trkpt lat="48.49491" lon="2.18072">
        <ele>99.6</ele>
        <time>2026-03-20T15:22:10Z</time>
      </trkpt>
      <trkpt lat="48.49494" lon="2.18075">
        <ele>99.6</ele>
        <time>2026-03-20T15:22:11Z</time>
      </trkpt>
      <trkpt lat="48.49496" lon="2.18077">
        <ele>100.2</ele>
        <time>2026-03-20T15:22:12Z</time>
      </trkpt>
      <trkpt lat="48.49498" lon="2.18079">
        <ele>100.2</ele>
        <time>2026-03-20T15:22:13Z</time>
      </trkpt>
      <trkpt lat="48.495" lon="2.18082">
        <ele>100.2</ele>
        <time>2026-03-20T15:22:14Z</time>
      </trkpt>
      <trkpt lat="48.49502" lon="2.18084">
        <ele>100.8</ele>
        <time>2026-03-20T15:22:15Z</time>
      </trkpt>
      <trkpt lat="48.49505" lon="2.18086">
        <ele>101</ele>
        <time>2026-03-20T15:22:16Z</time>
      </trkpt>
      <trkpt lat="48.49507" lon="2.18088">
        <ele>101</ele>
        <time>2026-03-20T15:22:17Z</time>
      </trkpt>
      <trkpt lat="48.4951" lon="2.1809">
        <ele>101</ele>
        <time>2026-03-20T15:22:18Z</time>
      </trkpt>
      <trkpt lat="48.49512" lon="2.18091">
        <ele>102</ele>
        <time>2026-03-20T15:22:19Z</time>
      </trkpt>
      <trkpt lat="48.49515" lon="2.18093">
        <ele>102</ele>
        <time>2026-03-20T15:22:20Z</time>
      </trkpt>
      <trkpt lat="48.49517" lon="2.18094">
        <ele>102.4</ele>
        <time>2026-03-20T15:22:21Z</time>
      </trkpt>
      <trkpt lat="48.4952" lon="2.18096">
        <ele>102.4</ele>
        <time>2026-03-20T15:22:22Z</time>
      </trkpt>
      <trkpt lat="48.49522" lon="2.18098">
        <ele>102.6</ele>
        <time>2026-03-20T15:22:23Z</time>
      </trkpt>
      <trkpt lat="48.49525" lon="2.18098">
        <ele>103.4</ele>
        <time>2026-03-20T15:22:24Z</time>
      </trkpt>
      <trkpt lat="48.49528" lon="2.18099">
        <ele>103.4</ele>
        <time>2026-03-20T15:22:25Z</time>
      </trkpt>
      <trkpt lat="48.4953" lon="2.18098">
        <ele>103.4</ele>
        <time>2026-03-20T15:22:26Z</time>
      </trkpt>
      <trkpt lat="48.49533" lon="2.18095">
        <ele>103.2</ele>
        <time>2026-03-20T15:22:27Z</time>
      </trkpt>
      <trkpt lat="48.49535" lon="2.18092">
        <ele>103.2</ele>
        <time>2026-03-20T15:22:28Z</time>
      </trkpt>
      <trkpt lat="48.49536" lon="2.18088">
        <ele>103.2</ele>
        <time>2026-03-20T15:22:29Z</time>
      </trkpt>
      <trkpt lat="48.49538" lon="2.18085">
        <ele>103.2</ele>
        <time>2026-03-20T15:22:30Z</time>
      </trkpt>
      <trkpt lat="48.4954" lon="2.18081">
        <ele>103.2</ele>
        <time>2026-03-20T15:22:31Z</time>
      </trkpt>
      <trkpt lat="48.49542" lon="2.18078">
        <ele>103.6</ele>
        <time>2026-03-20T15:22:32Z</time>
      </trkpt>
      <trkpt lat="48.49543" lon="2.18074">
        <ele>103.6</ele>
        <time>2026-03-20T15:22:33Z</time>
      </trkpt>
      <trkpt lat="48.49545" lon="2.1807">
        <ele>103.6</ele>
        <time>2026-03-20T15:22:34Z</time>
      </trkpt>
      <trkpt lat="48.49546" lon="2.18067">
        <ele>103.6</ele>
        <time>2026-03-20T15:22:35Z</time>
      </trkpt>
      <trkpt lat="48.49548" lon="2.18063">
        <ele>104.4</ele>
        <time>2026-03-20T15:22:36Z</time>
      </trkpt>
      <trkpt lat="48.49549" lon="2.18059">
        <ele>104.4</ele>
        <time>2026-03-20T15:22:37Z</time>
      </trkpt>
      <trkpt lat="48.49551" lon="2.18055">
        <ele>104.4</ele>
        <time>2026-03-20T15:22:38Z</time>
      </trkpt>
      <trkpt lat="48.49552" lon="2.18052">
        <ele>104.8</ele>
        <time>2026-03-20T15:22:39Z</time>
      </trkpt>
      <trkpt lat="48.49554" lon="2.18048">
        <ele>105.4</ele>
        <time>2026-03-20T15:22:40Z</time>
      </trkpt>
      <trkpt lat="48.49556" lon="2.18045">
        <ele>105.4</ele>
        <time>2026-03-20T15:22:41Z</time>
      </trkpt>
      <trkpt lat="48.49557" lon="2.18041">
        <ele>105.4</ele>
        <time>2026-03-20T15:22:42Z</time>
      </trkpt>
      <trkpt lat="48.49559" lon="2.18038">
        <ele>105.8</ele>
        <time>2026-03-20T15:22:43Z</time>
      </trkpt>
      <trkpt lat="48.49561" lon="2.18035">
        <ele>106</ele>
        <time>2026-03-20T15:22:44Z</time>
      </trkpt>
      <trkpt lat="48.49562" lon="2.18031">
        <ele>106</ele>
        <time>2026-03-20T15:22:45Z</time>
      </trkpt>
      <trkpt lat="48.49564" lon="2.18028">
        <ele>106</ele>
        <time>2026-03-20T15:22:46Z</time>
      </trkpt>
      <trkpt lat="48.49566" lon="2.18026">
        <ele>106.2</ele>
        <time>2026-03-20T15:22:47Z</time>
      </trkpt>
      <trkpt lat="48.49568" lon="2.18022">
        <ele>106.4</ele>
        <time>2026-03-20T15:22:48Z</time>
      </trkpt>
      <trkpt lat="48.49569" lon="2.18018">
        <ele>106.4</ele>
        <time>2026-03-20T15:22:49Z</time>
      </trkpt>
      <trkpt lat="48.49571" lon="2.18015">
        <ele>106.4</ele>
        <time>2026-03-20T15:22:50Z</time>
      </trkpt>
      <trkpt lat="48.49573" lon="2.18011">
        <ele>106.8</ele>
        <time>2026-03-20T15:22:51Z</time>
      </trkpt>
      <trkpt lat="48.49574" lon="2.18007">
        <ele>107.2</ele>
        <time>2026-03-20T15:22:52Z</time>
      </trkpt>
      <trkpt lat="48.49576" lon="2.18004">
        <ele>107.2</ele>
        <time>2026-03-20T15:22:53Z</time>
      </trkpt>
      <trkpt lat="48.49578" lon="2.18">
        <ele>107.2</ele>
        <time>2026-03-20T15:22:54Z</time>
      </trkpt>
      <trkpt lat="48.49579" lon="2.17996">
        <ele>107.6</ele>
        <time>2026-03-20T15:22:55Z</time>
      </trkpt>
      <trkpt lat="48.49581" lon="2.17992">
        <ele>107.8</ele>
        <time>2026-03-20T15:22:56Z</time>
      </trkpt>
      <trkpt lat="48.49582" lon="2.17988">
        <ele>107.8</ele>
        <time>2026-03-20T15:22:57Z</time>
      </trkpt>
      <trkpt lat="48.49584" lon="2.17984">
        <ele>107.8</ele>
        <time>2026-03-20T15:22:58Z</time>
      </trkpt>
      <trkpt lat="48.49585" lon="2.1798">
        <ele>107.8</ele>
        <time>2026-03-20T15:22:59Z</time>
      </trkpt>
      <trkpt lat="48.49587" lon="2.17976">
        <ele>108.4</ele>
        <time>2026-03-20T15:23:00Z</time>
      </trkpt>
      <trkpt lat="48.49589" lon="2.17973">
        <ele>108.4</ele>
        <time>2026-03-20T15:23:01Z</time>
      </trkpt>
      <trkpt lat="48.4959" lon="2.17969">
        <ele>108.4</ele>
        <time>2026-03-20T15:23:02Z</time>
      </trkpt>
      <trkpt lat="48.49592" lon="2.17965">
        <ele>108.8</ele>
        <time>2026-03-20T15:23:03Z</time>
      </trkpt>
      <trkpt lat="48.49594" lon="2.17962">
        <ele>108.6</ele>
        <time>2026-03-20T15:23:04Z</time>
      </trkpt>
      <trkpt lat="48.49596" lon="2.17958">
        <ele>108.6</ele>
        <time>2026-03-20T15:23:05Z</time>
      </trkpt>
      <trkpt lat="48.49598" lon="2.17955">
        <ele>108.6</ele>
        <time>2026-03-20T15:23:06Z</time>
      </trkpt>
      <trkpt lat="48.496" lon="2.17952">
        <ele>108.6</ele>
        <time>2026-03-20T15:23:07Z</time>
      </trkpt>
      <trkpt lat="48.49601" lon="2.17948">
        <ele>110.2</ele>
        <time>2026-03-20T15:23:08Z</time>
      </trkpt>
      <trkpt lat="48.49603" lon="2.17945">
        <ele>110.2</ele>
        <time>2026-03-20T15:23:09Z</time>
      </trkpt>
      <trkpt lat="48.49605" lon="2.17941">
        <ele>110.2</ele>
        <time>2026-03-20T15:23:10Z</time>
      </trkpt>
      <trkpt lat="48.49607" lon="2.17938">
        <ele>110.2</ele>
        <time>2026-03-20T15:23:11Z</time>
      </trkpt>
      <trkpt lat="48.49608" lon="2.17934">
        <ele>110.6</ele>
        <time>2026-03-20T15:23:12Z</time>
      </trkpt>
      <trkpt lat="48.4961" lon="2.17931">
        <ele>110.6</ele>
        <time>2026-03-20T15:23:13Z</time>
      </trkpt>
      <trkpt lat="48.49612" lon="2.17927">
        <ele>110.6</ele>
        <time>2026-03-20T15:23:14Z</time>
      </trkpt>
      <trkpt lat="48.49614" lon="2.17923">
        <ele>110.6</ele>
        <time>2026-03-20T15:23:15Z</time>
      </trkpt>
      <trkpt lat="48.49615" lon="2.17919">
        <ele>111</ele>
        <time>2026-03-20T15:23:16Z</time>
      </trkpt>
      <trkpt lat="48.49617" lon="2.17916">
        <ele>111</ele>
        <time>2026-03-20T15:23:17Z</time>
      </trkpt>
      <trkpt lat="48.49619" lon="2.17912">
        <ele>111</ele>
        <time>2026-03-20T15:23:18Z</time>
      </trkpt>
      <trkpt lat="48.49621" lon="2.17909">
        <ele>111.8</ele>
        <time>2026-03-20T15:23:19Z</time>
      </trkpt>
      <trkpt lat="48.49622" lon="2.17905">
        <ele>112.2</ele>
        <time>2026-03-20T15:23:20Z</time>
      </trkpt>
      <trkpt lat="48.49624" lon="2.17901">
        <ele>112.2</ele>
        <time>2026-03-20T15:23:21Z</time>
      </trkpt>
      <trkpt lat="48.49626" lon="2.17897">
        <ele>112.2</ele>
        <time>2026-03-20T15:23:22Z</time>
      </trkpt>
      <trkpt lat="48.49628" lon="2.17894">
        <ele>112.8</ele>
        <time>2026-03-20T15:23:23Z</time>
      </trkpt>
      <trkpt lat="48.4963" lon="2.1789">
        <ele>113.2</ele>
        <time>2026-03-20T15:23:24Z</time>
      </trkpt>
      <trkpt lat="48.49632" lon="2.17886">
        <ele>113.2</ele>
        <time>2026-03-20T15:23:25Z</time>
      </trkpt>
      <trkpt lat="48.49634" lon="2.17882">
        <ele>113.2</ele>
        <time>2026-03-20T15:23:26Z</time>
      </trkpt>
      <trkpt lat="48.49635" lon="2.17878">
        <ele>113.2</ele>
        <time>2026-03-20T15:23:27Z</time>
      </trkpt>
      <trkpt lat="48.49637" lon="2.17875">
        <ele>113.4</ele>
        <time>2026-03-20T15:23:28Z</time>
      </trkpt>
      <trkpt lat="48.49639" lon="2.17871">
        <ele>113.4</ele>
        <time>2026-03-20T15:23:29Z</time>
      </trkpt>
      <trkpt lat="48.49641" lon="2.17868">
        <ele>113.4</ele>
        <time>2026-03-20T15:23:30Z</time>
      </trkpt>
      <trkpt lat="48.49643" lon="2.17864">
        <ele>113.8</ele>
        <time>2026-03-20T15:23:31Z</time>
      </trkpt>
      <trkpt lat="48.49645" lon="2.1786">
        <ele>113.8</ele>
        <time>2026-03-20T15:23:32Z</time>
      </trkpt>
      <trkpt lat="48.49647" lon="2.17857">
        <ele>113.8</ele>
        <time>2026-03-20T15:23:33Z</time>
      </trkpt>
      <trkpt lat="48.49649" lon="2.17853">
        <ele>113.8</ele>
        <time>2026-03-20T15:23:34Z</time>
      </trkpt>
      <trkpt lat="48.49651" lon="2.1785">
        <ele>114</ele>
        <time>2026-03-20T15:23:35Z</time>
      </trkpt>
      <trkpt lat="48.49653" lon="2.17847">
        <ele>114.2</ele>
        <time>2026-03-20T15:23:36Z</time>
      </trkpt>
      <trkpt lat="48.49655" lon="2.17844">
        <ele>114.2</ele>
        <time>2026-03-20T15:23:37Z</time>
      </trkpt>
      <trkpt lat="48.49656" lon="2.1784">
        <ele>114.2</ele>
        <time>2026-03-20T15:23:38Z</time>
      </trkpt>
      <trkpt lat="48.49658" lon="2.17837">
        <ele>115</ele>
        <time>2026-03-20T15:23:39Z</time>
      </trkpt>
      <trkpt lat="48.4966" lon="2.17833">
        <ele>115.2</ele>
        <time>2026-03-20T15:23:40Z</time>
      </trkpt>
      <trkpt lat="48.49662" lon="2.17829">
        <ele>115.2</ele>
        <time>2026-03-20T15:23:41Z</time>
      </trkpt>
      <trkpt lat="48.49663" lon="2.17825">
        <ele>115.2</ele>
        <time>2026-03-20T15:23:42Z</time>
      </trkpt>
      <trkpt lat="48.49665" lon="2.17821">
        <ele>116</ele>
        <time>2026-03-20T15:23:43Z</time>
      </trkpt>
      <trkpt lat="48.49667" lon="2.17816">
        <ele>115.4</ele>
        <time>2026-03-20T15:23:44Z</time>
      </trkpt>
      <trkpt lat="48.49669" lon="2.17812">
        <ele>115.4</ele>
        <time>2026-03-20T15:23:45Z</time>
      </trkpt>
      <trkpt lat="48.4967" lon="2.17808">
        <ele>115.4</ele>
        <time>2026-03-20T15:23:46Z</time>
      </trkpt>
      <trkpt lat="48.49672" lon="2.17805">
        <ele>116.4</ele>
        <time>2026-03-20T15:23:47Z</time>
      </trkpt>
      <trkpt lat="48.49674" lon="2.17801">
        <ele>116.4</ele>
        <time>2026-03-20T15:23:48Z</time>
      </trkpt>
      <trkpt lat="48.49676" lon="2.17797">
        <ele>116.4</ele>
        <time>2026-03-20T15:23:49Z</time>
      </trkpt>
      <trkpt lat="48.49677" lon="2.17793">
        <ele>116.4</ele>
        <time>2026-03-20T15:23:50Z</time>
      </trkpt>
      <trkpt lat="48.49679" lon="2.17789">
        <ele>116.4</ele>
        <time>2026-03-20T15:23:51Z</time>
      </trkpt>
      <trkpt lat="48.49681" lon="2.17785">
        <ele>117.6</ele>
        <time>2026-03-20T15:23:52Z</time>
      </trkpt>
      <trkpt lat="48.49683" lon="2.17782">
        <ele>117.6</ele>
        <time>2026-03-20T15:23:53Z</time>
      </trkpt>
      <trkpt lat="48.49684" lon="2.17778">
        <ele>117.6</ele>
        <time>2026-03-20T15:23:54Z</time>
      </trkpt>
      <trkpt lat="48.49686" lon="2.17774">
        <ele>117.6</ele>
        <time>2026-03-20T15:23:55Z</time>
      </trkpt>
      <trkpt lat="48.49687" lon="2.1777">
        <ele>118.4</ele>
        <time>2026-03-20T15:23:56Z</time>
      </trkpt>
      <trkpt lat="48.49689" lon="2.17766">
        <ele>118.4</ele>
        <time>2026-03-20T15:23:57Z</time>
      </trkpt>
      <trkpt lat="48.49691" lon="2.17762">
        <ele>118.4</ele>
        <time>2026-03-20T15:23:58Z</time>
      </trkpt>
      <trkpt lat="48.49692" lon="2.17758">
        <ele>118.4</ele>
        <time>2026-03-20T15:23:59Z</time>
      </trkpt>
      <trkpt lat="48.49694" lon="2.17754">
        <ele>118.8</ele>
        <time>2026-03-20T15:24:00Z</time>
      </trkpt>
      <trkpt lat="48.49695" lon="2.1775">
        <ele>118.8</ele>
        <time>2026-03-20T15:24:01Z</time>
      </trkpt>
      <trkpt lat="48.49697" lon="2.17745">
        <ele>118.8</ele>
        <time>2026-03-20T15:24:02Z</time>
      </trkpt>
      <trkpt lat="48.49698" lon="2.17741">
        <ele>118.8</ele>
        <time>2026-03-20T15:24:03Z</time>
      </trkpt>
      <trkpt lat="48.497" lon="2.17737">
        <ele>119.4</ele>
        <time>2026-03-20T15:24:04Z</time>
      </trkpt>
      <trkpt lat="48.49701" lon="2.17733">
        <ele>119.4</ele>
        <time>2026-03-20T15:24:05Z</time>
      </trkpt>
      <trkpt lat="48.49702" lon="2.1773">
        <ele>119.4</ele>
        <time>2026-03-20T15:24:06Z</time>
      </trkpt>
      <trkpt lat="48.49704" lon="2.17726">
        <ele>119.4</ele>
        <time>2026-03-20T15:24:07Z</time>
      </trkpt>
      <trkpt lat="48.49705" lon="2.17722">
        <ele>119.8</ele>
        <time>2026-03-20T15:24:08Z</time>
      </trkpt>
      <trkpt lat="48.49706" lon="2.17717">
        <ele>119.8</ele>
        <time>2026-03-20T15:24:09Z</time>
      </trkpt>
      <trkpt lat="48.49707" lon="2.17713">
        <ele>119.8</ele>
        <time>2026-03-20T15:24:10Z</time>
      </trkpt>
      <trkpt lat="48.49708" lon="2.1771">
        <ele>120.4</ele>
        <time>2026-03-20T15:24:11Z</time>
      </trkpt>
      <trkpt lat="48.49709" lon="2.17706">
        <ele>120.8</ele>
        <time>2026-03-20T15:24:12Z</time>
      </trkpt>
      <trkpt lat="48.4971" lon="2.17702">
        <ele>120.8</ele>
        <time>2026-03-20T15:24:13Z</time>
      </trkpt>
      <trkpt lat="48.49711" lon="2.17697">
        <ele>120.8</ele>
        <time>2026-03-20T15:24:14Z</time>
      </trkpt>
      <trkpt lat="48.49712" lon="2.17693">
        <ele>120.8</ele>
        <time>2026-03-20T15:24:15Z</time>
      </trkpt>
      <trkpt lat="48.49713" lon="2.17689">
        <ele>121.2</ele>
        <time>2026-03-20T15:24:16Z</time>
      </trkpt>
      <trkpt lat="48.49714" lon="2.17685">
        <ele>121.2</ele>
        <time>2026-03-20T15:24:17Z</time>
      </trkpt>
      <trkpt lat="48.49715" lon="2.1768">
        <ele>121.2</ele>
        <time>2026-03-20T15:24:18Z</time>
      </trkpt>
      <trkpt lat="48.49716" lon="2.17676">
        <ele>121.8</ele>
        <time>2026-03-20T15:24:19Z</time>
      </trkpt>
      <trkpt lat="48.49717" lon="2.17672">
        <ele>122</ele>
        <time>2026-03-20T15:24:20Z</time>
      </trkpt>
      <trkpt lat="48.49718" lon="2.17667">
        <ele>122</ele>
        <time>2026-03-20T15:24:21Z</time>
      </trkpt>
      <trkpt lat="48.49719" lon="2.17663">
        <ele>122</ele>
        <time>2026-03-20T15:24:22Z</time>
      </trkpt>
      <trkpt lat="48.49721" lon="2.17659">
        <ele>122.6</ele>
        <time>2026-03-20T15:24:23Z</time>
      </trkpt>
      <trkpt lat="48.49722" lon="2.17655">
        <ele>122.8</ele>
        <time>2026-03-20T15:24:24Z</time>
      </trkpt>
      <trkpt lat="48.49723" lon="2.17651">
        <ele>122.8</ele>
        <time>2026-03-20T15:24:25Z</time>
      </trkpt>
      <trkpt lat="48.49725" lon="2.17647">
        <ele>122.8</ele>
        <time>2026-03-20T15:24:26Z</time>
      </trkpt>
      <trkpt lat="48.49726" lon="2.17643">
        <ele>122.8</ele>
        <time>2026-03-20T15:24:27Z</time>
      </trkpt>
      <trkpt lat="48.49728" lon="2.17639">
        <ele>123.8</ele>
        <time>2026-03-20T15:24:28Z</time>
      </trkpt>
      <trkpt lat="48.4973" lon="2.17636">
        <ele>123.8</ele>
        <time>2026-03-20T15:24:29Z</time>
      </trkpt>
      <trkpt lat="48.49731" lon="2.17632">
        <ele>123.8</ele>
        <time>2026-03-20T15:24:30Z</time>
      </trkpt>
      <trkpt lat="48.49733" lon="2.17629">
        <ele>123.8</ele>
        <time>2026-03-20T15:24:31Z</time>
      </trkpt>
      <trkpt lat="48.49735" lon="2.17625">
        <ele>124.8</ele>
        <time>2026-03-20T15:24:32Z</time>
      </trkpt>
      <trkpt lat="48.49737" lon="2.17622">
        <ele>124.8</ele>
        <time>2026-03-20T15:24:33Z</time>
      </trkpt>
      <trkpt lat="48.49738" lon="2.17618">
        <ele>124.8</ele>
        <time>2026-03-20T15:24:34Z</time>
      </trkpt>
      <trkpt lat="48.4974" lon="2.17614">
        <ele>124.8</ele>
        <time>2026-03-20T15:24:35Z</time>
      </trkpt>
      <trkpt lat="48.49741" lon="2.1761">
        <ele>125.4</ele>
        <time>2026-03-20T15:24:36Z</time>
      </trkpt>
      <trkpt lat="48.49743" lon="2.17606">
        <ele>125.4</ele>
        <time>2026-03-20T15:24:37Z</time>
      </trkpt>
      <trkpt lat="48.49745" lon="2.17603">
        <ele>125.4</ele>
        <time>2026-03-20T15:24:38Z</time>
      </trkpt>
      <trkpt lat="48.49746" lon="2.176">
        <ele>126.2</ele>
        <time>2026-03-20T15:24:39Z</time>
      </trkpt>
      <trkpt lat="48.49748" lon="2.17596">
        <ele>126.4</ele>
        <time>2026-03-20T15:24:40Z</time>
      </trkpt>
      <trkpt lat="48.4975" lon="2.17593">
        <ele>126.4</ele>
        <time>2026-03-20T15:24:41Z</time>
      </trkpt>
      <trkpt lat="48.49752" lon="2.17589">
        <ele>126.4</ele>
        <time>2026-03-20T15:24:42Z</time>
      </trkpt>
      <trkpt lat="48.49754" lon="2.17586">
        <ele>126.4</ele>
        <time>2026-03-20T15:24:43Z</time>
      </trkpt>
      <trkpt lat="48.49755" lon="2.17582">
        <ele>127.4</ele>
        <time>2026-03-20T15:24:44Z</time>
      </trkpt>
      <trkpt lat="48.49757" lon="2.17579">
        <ele>127.4</ele>
        <time>2026-03-20T15:24:45Z</time>
      </trkpt>
      <trkpt lat="48.49759" lon="2.17575">
        <ele>127.4</ele>
        <time>2026-03-20T15:24:46Z</time>
      </trkpt>
      <trkpt lat="48.49761" lon="2.17571">
        <ele>128</ele>
        <time>2026-03-20T15:24:47Z</time>
      </trkpt>
      <trkpt lat="48.49762" lon="2.17567">
        <ele>128.2</ele>
        <time>2026-03-20T15:24:48Z</time>
      </trkpt>
      <trkpt lat="48.49764" lon="2.17563">
        <ele>128.2</ele>
        <time>2026-03-20T15:24:49Z</time>
      </trkpt>
      <trkpt lat="48.49766" lon="2.1756">
        <ele>128.2</ele>
        <time>2026-03-20T15:24:50Z</time>
      </trkpt>
      <trkpt lat="48.49767" lon="2.17556">
        <ele>128.8</ele>
        <time>2026-03-20T15:24:51Z</time>
      </trkpt>
      <trkpt lat="48.49769" lon="2.17552">
        <ele>128.6</ele>
        <time>2026-03-20T15:24:52Z</time>
      </trkpt>
      <trkpt lat="48.4977" lon="2.17549">
        <ele>128.6</ele>
        <time>2026-03-20T15:24:53Z</time>
      </trkpt>
      <trkpt lat="48.49772" lon="2.17545">
        <ele>128.6</ele>
        <time>2026-03-20T15:24:54Z</time>
      </trkpt>
      <trkpt lat="48.49774" lon="2.17541">
        <ele>129.4</ele>
        <time>2026-03-20T15:24:55Z</time>
      </trkpt>
      <trkpt lat="48.49776" lon="2.17538">
        <ele>130</ele>
        <time>2026-03-20T15:24:56Z</time>
      </trkpt>
      <trkpt lat="48.49777" lon="2.17534">
        <ele>130</ele>
        <time>2026-03-20T15:24:57Z</time>
      </trkpt>
      <trkpt lat="48.49779" lon="2.1753">
        <ele>130</ele>
        <time>2026-03-20T15:24:58Z</time>
      </trkpt>
      <trkpt lat="48.49781" lon="2.17526">
        <ele>130</ele>
        <time>2026-03-20T15:24:59Z</time>
      </trkpt>
      <trkpt lat="48.49782" lon="2.17523">
        <ele>130.2</ele>
        <time>2026-03-20T15:25:00Z</time>
      </trkpt>
      <trkpt lat="48.49784" lon="2.17519">
        <ele>130.2</ele>
        <time>2026-03-20T15:25:01Z</time>
      </trkpt>
      <trkpt lat="48.49786" lon="2.17515">
        <ele>130.2</ele>
        <time>2026-03-20T15:25:02Z</time>
      </trkpt>
      <trkpt lat="48.49787" lon="2.17512">
        <ele>131</ele>
        <time>2026-03-20T15:25:03Z</time>
      </trkpt>
      <trkpt lat="48.49789" lon="2.17508">
        <ele>130.6</ele>
        <time>2026-03-20T15:25:04Z</time>
      </trkpt>
      <trkpt lat="48.49791" lon="2.17504">
        <ele>130.6</ele>
        <time>2026-03-20T15:25:05Z</time>
      </trkpt>
      <trkpt lat="48.49792" lon="2.175">
        <ele>130.6</ele>
        <time>2026-03-20T15:25:06Z</time>
      </trkpt>
      <trkpt lat="48.49794" lon="2.17497">
        <ele>131</ele>
        <time>2026-03-20T15:25:07Z</time>
      </trkpt>
      <trkpt lat="48.49796" lon="2.17493">
        <ele>131.4</ele>
        <time>2026-03-20T15:25:08Z</time>
      </trkpt>
      <trkpt lat="48.49798" lon="2.17489">
        <ele>131.4</ele>
        <time>2026-03-20T15:25:09Z</time>
      </trkpt>
      <trkpt lat="48.49799" lon="2.17485">
        <ele>131.4</ele>
        <time>2026-03-20T15:25:10Z</time>
      </trkpt>
      <trkpt lat="48.49801" lon="2.17481">
        <ele>131.4</ele>
        <time>2026-03-20T15:25:11Z</time>
      </trkpt>
      <trkpt lat="48.49803" lon="2.17478">
        <ele>133</ele>
        <time>2026-03-20T15:25:12Z</time>
      </trkpt>
      <trkpt lat="48.49804" lon="2.17474">
        <ele>133</ele>
        <time>2026-03-20T15:25:13Z</time>
      </trkpt>
      <trkpt lat="48.49806" lon="2.1747">
        <ele>133</ele>
        <time>2026-03-20T15:25:14Z</time>
      </trkpt>
      <trkpt lat="48.49807" lon="2.17467">
        <ele>133.4</ele>
        <time>2026-03-20T15:25:15Z</time>
      </trkpt>
      <trkpt lat="48.49809" lon="2.17463">
        <ele>133.6</ele>
        <time>2026-03-20T15:25:16Z</time>
      </trkpt>
      <trkpt lat="48.49811" lon="2.1746">
        <ele>133.6</ele>
        <time>2026-03-20T15:25:17Z</time>
      </trkpt>
      <trkpt lat="48.49813" lon="2.17457">
        <ele>133.6</ele>
        <time>2026-03-20T15:25:18Z</time>
      </trkpt>
      <trkpt lat="48.49815" lon="2.17453">
        <ele>134.6</ele>
        <time>2026-03-20T15:25:19Z</time>
      </trkpt>
      <trkpt lat="48.49816" lon="2.17449">
        <ele>135</ele>
        <time>2026-03-20T15:25:20Z</time>
      </trkpt>
      <trkpt lat="48.49818" lon="2.17445">
        <ele>135</ele>
        <time>2026-03-20T15:25:21Z</time>
      </trkpt>
      <trkpt lat="48.4982" lon="2.17441">
        <ele>135</ele>
        <time>2026-03-20T15:25:22Z</time>
      </trkpt>
      <trkpt lat="48.49821" lon="2.17438">
        <ele>135.2</ele>
        <time>2026-03-20T15:25:23Z</time>
      </trkpt>
      <trkpt lat="48.49823" lon="2.17434">
        <ele>135.6</ele>
        <time>2026-03-20T15:25:24Z</time>
      </trkpt>
      <trkpt lat="48.49825" lon="2.1743">
        <ele>135.6</ele>
        <time>2026-03-20T15:25:25Z</time>
      </trkpt>
      <trkpt lat="48.49826" lon="2.17427">
        <ele>135.6</ele>
        <time>2026-03-20T15:25:26Z</time>
      </trkpt>
      <trkpt lat="48.49828" lon="2.17423">
        <ele>136.4</ele>
        <time>2026-03-20T15:25:27Z</time>
      </trkpt>
      <trkpt lat="48.4983" lon="2.1742">
        <ele>136.2</ele>
        <time>2026-03-20T15:25:28Z</time>
      </trkpt>
      <trkpt lat="48.49832" lon="2.17416">
        <ele>136.2</ele>
        <time>2026-03-20T15:25:29Z</time>
      </trkpt>
      <trkpt lat="48.49833" lon="2.17413">
        <ele>136.2</ele>
        <time>2026-03-20T15:25:30Z</time>
      </trkpt>
      <trkpt lat="48.49835" lon="2.1741">
        <ele>137.2</ele>
        <time>2026-03-20T15:25:31Z</time>
      </trkpt>
      <trkpt lat="48.49837" lon="2.17406">
        <ele>137.6</ele>
        <time>2026-03-20T15:25:32Z</time>
      </trkpt>
      <trkpt lat="48.49839" lon="2.17403">
        <ele>137.6</ele>
        <time>2026-03-20T15:25:33Z</time>
      </trkpt>
      <trkpt lat="48.49841" lon="2.17401">
        <ele>137.6</ele>
        <time>2026-03-20T15:25:34Z</time>
      </trkpt>
      <trkpt lat="48.49844" lon="2.17398">
        <ele>137.6</ele>
        <time>2026-03-20T15:25:35Z</time>
      </trkpt>
      <trkpt lat="48.49846" lon="2.17396">
        <ele>138</ele>
        <time>2026-03-20T15:25:36Z</time>
      </trkpt>
      <trkpt lat="48.49848" lon="2.17393">
        <ele>138</ele>
        <time>2026-03-20T15:25:37Z</time>
      </trkpt>
      <trkpt lat="48.49851" lon="2.17391">
        <ele>138</ele>
        <time>2026-03-20T15:25:38Z</time>
      </trkpt>
      <trkpt lat="48.49853" lon="2.17389">
        <ele>139</ele>
        <time>2026-03-20T15:25:39Z</time>
      </trkpt>
      <trkpt lat="48.49856" lon="2.17387">
        <ele>138.8</ele>
        <time>2026-03-20T15:25:40Z</time>
      </trkpt>
      <trkpt lat="48.49859" lon="2.17385">
        <ele>138.8</ele>
        <time>2026-03-20T15:25:41Z</time>
      </trkpt>
      <trkpt lat="48.49861" lon="2.17384">
        <ele>138.8</ele>
        <time>2026-03-20T15:25:42Z</time>
      </trkpt>
      <trkpt lat="48.49864" lon="2.17382">
        <ele>139.6</ele>
        <time>2026-03-20T15:25:43Z</time>
      </trkpt>
      <trkpt lat="48.49866" lon="2.1738">
        <ele>140.2</ele>
        <time>2026-03-20T15:25:44Z</time>
      </trkpt>
      <trkpt lat="48.49869" lon="2.17377">
        <ele>140.2</ele>
        <time>2026-03-20T15:25:45Z</time>
      </trkpt>
      <trkpt lat="48.49871" lon="2.17376">
        <ele>140.2</ele>
        <time>2026-03-20T15:25:46Z</time>
      </trkpt>
      <trkpt lat="48.49874" lon="2.17373">
        <ele>140.2</ele>
        <time>2026-03-20T15:25:47Z</time>
      </trkpt>
      <trkpt lat="48.49876" lon="2.17371">
        <ele>140.8</ele>
        <time>2026-03-20T15:25:48Z</time>
      </trkpt>
      <trkpt lat="48.49879" lon="2.17368">
        <ele>140.8</ele>
        <time>2026-03-20T15:25:49Z</time>
      </trkpt>
      <trkpt lat="48.49881" lon="2.17366">
        <ele>140.8</ele>
        <time>2026-03-20T15:25:50Z</time>
      </trkpt>
      <trkpt lat="48.49884" lon="2.17363">
        <ele>141.4</ele>
        <time>2026-03-20T15:25:51Z</time>
      </trkpt>
      <trkpt lat="48.49886" lon="2.1736">
        <ele>141.8</ele>
        <time>2026-03-20T15:25:52Z</time>
      </trkpt>
      <trkpt lat="48.49888" lon="2.17358">
        <ele>141.8</ele>
        <time>2026-03-20T15:25:53Z</time>
      </trkpt>
      <trkpt lat="48.49891" lon="2.17355">
        <ele>141.8</ele>
        <time>2026-03-20T15:25:54Z</time>
      </trkpt>
      <trkpt lat="48.49893" lon="2.17352">
        <ele>142.2</ele>
        <time>2026-03-20T15:25:55Z</time>
      </trkpt>
      <trkpt lat="48.49895" lon="2.17349">
        <ele>142.4</ele>
        <time>2026-03-20T15:25:56Z</time>
      </trkpt>
      <trkpt lat="48.49897" lon="2.17345">
        <ele>142.4</ele>
        <time>2026-03-20T15:25:57Z</time>
      </trkpt>
      <trkpt lat="48.499" lon="2.17342">
        <ele>142.4</ele>
        <time>2026-03-20T15:25:58Z</time>
      </trkpt>
      <trkpt lat="48.49902" lon="2.17339">
        <ele>142.4</ele>
        <time>2026-03-20T15:25:59Z</time>
      </trkpt>
      <trkpt lat="48.49904" lon="2.17336">
        <ele>142.8</ele>
        <time>2026-03-20T15:26:00Z</time>
      </trkpt>
      <trkpt lat="48.49906" lon="2.17333">
        <ele>142.8</ele>
        <time>2026-03-20T15:26:01Z</time>
      </trkpt>
      <trkpt lat="48.49909" lon="2.1733">
        <ele>142.8</ele>
        <time>2026-03-20T15:26:02Z</time>
      </trkpt>
      <trkpt lat="48.49911" lon="2.17326">
        <ele>143.8</ele>
        <time>2026-03-20T15:26:03Z</time>
      </trkpt>
      <trkpt lat="48.49913" lon="2.17323">
        <ele>144.2</ele>
        <time>2026-03-20T15:26:04Z</time>
      </trkpt>
      <trkpt lat="48.49915" lon="2.1732">
        <ele>144.2</ele>
        <time>2026-03-20T15:26:05Z</time>
      </trkpt>
      <trkpt lat="48.49917" lon="2.17316">
        <ele>144.2</ele>
        <time>2026-03-20T15:26:06Z</time>
      </trkpt>
      <trkpt lat="48.49919" lon="2.17313">
        <ele>144.2</ele>
        <time>2026-03-20T15:26:07Z</time>
      </trkpt>
      <trkpt lat="48.49922" lon="2.1731">
        <ele>144.4</ele>
        <time>2026-03-20T15:26:08Z</time>
      </trkpt>
      <trkpt lat="48.49924" lon="2.17307">
        <ele>144.4</ele>
        <time>2026-03-20T15:26:09Z</time>
      </trkpt>
      <trkpt lat="48.49926" lon="2.17305">
        <ele>144.4</ele>
        <time>2026-03-20T15:26:10Z</time>
      </trkpt>
      <trkpt lat="48.49928" lon="2.17302">
        <ele>145.4</ele>
        <time>2026-03-20T15:26:11Z</time>
      </trkpt>
      <trkpt lat="48.4993" lon="2.173">
        <ele>145.6</ele>
        <time>2026-03-20T15:26:12Z</time>
      </trkpt>
      <trkpt lat="48.49932" lon="2.17296">
        <ele>145.6</ele>
        <time>2026-03-20T15:26:13Z</time>
      </trkpt>
      <trkpt lat="48.49934" lon="2.17293">
        <ele>145.6</ele>
        <time>2026-03-20T15:26:14Z</time>
      </trkpt>
      <trkpt lat="48.49936" lon="2.17289">
        <ele>145.8</ele>
        <time>2026-03-20T15:26:15Z</time>
      </trkpt>
      <trkpt lat="48.49938" lon="2.17286">
        <ele>146.4</ele>
        <time>2026-03-20T15:26:16Z</time>
      </trkpt>
      <trkpt lat="48.4994" lon="2.17283">
        <ele>146.4</ele>
        <time>2026-03-20T15:26:17Z</time>
      </trkpt>
      <trkpt lat="48.49943" lon="2.1728">
        <ele>146.4</ele>
        <time>2026-03-20T15:26:18Z</time>
      </trkpt>
      <trkpt lat="48.49945" lon="2.17277">
        <ele>146.4</ele>
        <time>2026-03-20T15:26:19Z</time>
      </trkpt>
      <trkpt lat="48.49947" lon="2.17273">
        <ele>147.2</ele>
        <time>2026-03-20T15:26:20Z</time>
      </trkpt>
      <trkpt lat="48.49948" lon="2.17269">
        <ele>147.2</ele>
        <time>2026-03-20T15:26:21Z</time>
      </trkpt>
      <trkpt lat="48.4995" lon="2.17265">
        <ele>147.2</ele>
        <time>2026-03-20T15:26:22Z</time>
      </trkpt>
      <trkpt lat="48.49952" lon="2.17261">
        <ele>147.4</ele>
        <time>2026-03-20T15:26:23Z</time>
      </trkpt>
      <trkpt lat="48.49953" lon="2.17257">
        <ele>148</ele>
        <time>2026-03-20T15:26:24Z</time>
      </trkpt>
      <trkpt lat="48.49954" lon="2.17253">
        <ele>148</ele>
        <time>2026-03-20T15:26:25Z</time>
      </trkpt>
      <trkpt lat="48.49956" lon="2.17249">
        <ele>148</ele>
        <time>2026-03-20T15:26:26Z</time>
      </trkpt>
      <trkpt lat="48.49957" lon="2.17245">
        <ele>149</ele>
        <time>2026-03-20T15:26:27Z</time>
      </trkpt>
      <trkpt lat="48.49958" lon="2.17241">
        <ele>149</ele>
        <time>2026-03-20T15:26:28Z</time>
      </trkpt>
      <trkpt lat="48.49959" lon="2.17237">
        <ele>149</ele>
        <time>2026-03-20T15:26:29Z</time>
      </trkpt>
      <trkpt lat="48.4996" lon="2.17232">
        <ele>149</ele>
        <time>2026-03-20T15:26:30Z</time>
      </trkpt>
      <trkpt lat="48.49961" lon="2.17227">
        <ele>150</ele>
        <time>2026-03-20T15:26:31Z</time>
      </trkpt>
      <trkpt lat="48.49962" lon="2.17223">
        <ele>150.2</ele>
        <time>2026-03-20T15:26:32Z</time>
      </trkpt>
      <trkpt lat="48.49963" lon="2.17219">
        <ele>150.2</ele>
        <time>2026-03-20T15:26:33Z</time>
      </trkpt>
      <trkpt lat="48.49964" lon="2.17214">
        <ele>150.2</ele>
        <time>2026-03-20T15:26:34Z</time>
      </trkpt>
      <trkpt lat="48.49965" lon="2.17209">
        <ele>150.6</ele>
        <time>2026-03-20T15:26:35Z</time>
      </trkpt>
      <trkpt lat="48.49966" lon="2.17205">
        <ele>151</ele>
        <time>2026-03-20T15:26:36Z</time>
      </trkpt>
      <trkpt lat="48.49967" lon="2.172">
        <ele>151</ele>
        <time>2026-03-20T15:26:37Z</time>
      </trkpt>
      <trkpt lat="48.49968" lon="2.17196">
        <ele>151</ele>
        <time>2026-03-20T15:26:38Z</time>
      </trkpt>
      <trkpt lat="48.49969" lon="2.17192">
        <ele>152</ele>
        <time>2026-03-20T15:26:39Z</time>
      </trkpt>
      <trkpt lat="48.49971" lon="2.17188">
        <ele>151.8</ele>
        <time>2026-03-20T15:26:40Z</time>
      </trkpt>
      <trkpt lat="48.49972" lon="2.17183">
        <ele>151.8</ele>
        <time>2026-03-20T15:26:41Z</time>
      </trkpt>
      <trkpt lat="48.49973" lon="2.17179">
        <ele>151.8</ele>
        <time>2026-03-20T15:26:42Z</time>
      </trkpt>
      <trkpt lat="48.49974" lon="2.17175">
        <ele>152.8</ele>
        <time>2026-03-20T15:26:43Z</time>
      </trkpt>
      <trkpt lat="48.49975" lon="2.17171">
        <ele>152.4</ele>
        <time>2026-03-20T15:26:44Z</time>
      </trkpt>
      <trkpt lat="48.49977" lon="2.17167">
        <ele>152.4</ele>
        <time>2026-03-20T15:26:45Z</time>
      </trkpt>
      <trkpt lat="48.49978" lon="2.17163">
        <ele>152.4</ele>
        <time>2026-03-20T15:26:46Z</time>
      </trkpt>
      <trkpt lat="48.4998" lon="2.1716">
        <ele>153.4</ele>
        <time>2026-03-20T15:26:47Z</time>
      </trkpt>
      <trkpt lat="48.49981" lon="2.17156">
        <ele>153.4</ele>
        <time>2026-03-20T15:26:48Z</time>
      </trkpt>
      <trkpt lat="48.49983" lon="2.17152">
        <ele>153.4</ele>
        <time>2026-03-20T15:26:49Z</time>
      </trkpt>
      <trkpt lat="48.49984" lon="2.17148">
        <ele>153.4</ele>
        <time>2026-03-20T15:26:50Z</time>
      </trkpt>
      <trkpt lat="48.49985" lon="2.17144">
        <ele>154</ele>
        <time>2026-03-20T15:26:51Z</time>
      </trkpt>
      <trkpt lat="48.49987" lon="2.1714">
        <ele>153.8</ele>
        <time>2026-03-20T15:26:52Z</time>
      </trkpt>
      <trkpt lat="48.49988" lon="2.17136">
        <ele>153.8</ele>
        <time>2026-03-20T15:26:53Z</time>
      </trkpt>
      <trkpt lat="48.49989" lon="2.17131">
        <ele>153.8</ele>
        <time>2026-03-20T15:26:54Z</time>
      </trkpt>
      <trkpt lat="48.4999" lon="2.17127">
        <ele>154.8</ele>
        <time>2026-03-20T15:26:55Z</time>
      </trkpt>
      <trkpt lat="48.49991" lon="2.17123">
        <ele>155.2</ele>
        <time>2026-03-20T15:26:56Z</time>
      </trkpt>
      <trkpt lat="48.49993" lon="2.17119">
        <ele>155.2</ele>
        <time>2026-03-20T15:26:57Z</time>
      </trkpt>
      <trkpt lat="48.49994" lon="2.17115">
        <ele>155.2</ele>
        <time>2026-03-20T15:26:58Z</time>
      </trkpt>
      <trkpt lat="48.49995" lon="2.17112">
        <ele>156</ele>
        <time>2026-03-20T15:26:59Z</time>
      </trkpt>
      <trkpt lat="48.49997" lon="2.17108">
        <ele>156.6</ele>
        <time>2026-03-20T15:27:00Z</time>
      </trkpt>
      <trkpt lat="48.49998" lon="2.17104">
        <ele>156.6</ele>
        <time>2026-03-20T15:27:01Z</time>
      </trkpt>
      <trkpt lat="48.5" lon="2.171">
        <ele>156.6</ele>
        <time>2026-03-20T15:27:02Z</time>
      </trkpt>
      <trkpt lat="48.50002" lon="2.17097">
        <ele>157</ele>
        <time>2026-03-20T15:27:03Z</time>
      </trkpt>
      <trkpt lat="48.50004" lon="2.17093">
        <ele>157.4</ele>
        <time>2026-03-20T15:27:04Z</time>
      </trkpt>
      <trkpt lat="48.50006" lon="2.1709">
        <ele>157.4</ele>
        <time>2026-03-20T15:27:05Z</time>
      </trkpt>
      <trkpt lat="48.50008" lon="2.17087">
        <ele>157.4</ele>
        <time>2026-03-20T15:27:06Z</time>
      </trkpt>
      <trkpt lat="48.5001" lon="2.17084">
        <ele>157.8</ele>
        <time>2026-03-20T15:27:07Z</time>
      </trkpt>
      <trkpt lat="48.50012" lon="2.17081">
        <ele>158.2</ele>
        <time>2026-03-20T15:27:08Z</time>
      </trkpt>
      <trkpt lat="48.50015" lon="2.17078">
        <ele>158.2</ele>
        <time>2026-03-20T15:27:09Z</time>
      </trkpt>
      <trkpt lat="48.50017" lon="2.17076">
        <ele>158.2</ele>
        <time>2026-03-20T15:27:10Z</time>
      </trkpt>
      <trkpt lat="48.50019" lon="2.17074">
        <ele>158.2</ele>
        <time>2026-03-20T15:27:11Z</time>
      </trkpt>
      <trkpt lat="48.50022" lon="2.17071">
        <ele>159.2</ele>
        <time>2026-03-20T15:27:12Z</time>
      </trkpt>
      <trkpt lat="48.50024" lon="2.17069">
        <ele>159.2</ele>
        <time>2026-03-20T15:27:13Z</time>
      </trkpt>
      <trkpt lat="48.50026" lon="2.17067">
        <ele>159.2</ele>
        <time>2026-03-20T15:27:14Z</time>
      </trkpt>
      <trkpt lat="48.50029" lon="2.17065">
        <ele>160</ele>
        <time>2026-03-20T15:27:15Z</time>
      </trkpt>
      <trkpt lat="48.50031" lon="2.17063">
        <ele>160.6</ele>
        <time>2026-03-20T15:27:16Z</time>
      </trkpt>
      <trkpt lat="48.50034" lon="2.17061">
        <ele>160.6</ele>
        <time>2026-03-20T15:27:17Z</time>
      </trkpt>
      <trkpt lat="48.50036" lon="2.17059">
        <ele>160.6</ele>
        <time>2026-03-20T15:27:18Z</time>
      </trkpt>
      <trkpt lat="48.50038" lon="2.17057">
        <ele>161.4</ele>
        <time>2026-03-20T15:27:19Z</time>
      </trkpt>
      <trkpt lat="48.5004" lon="2.17054">
        <ele>161</ele>
        <time>2026-03-20T15:27:20Z</time>
      </trkpt>
      <trkpt lat="48.50043" lon="2.17052">
        <ele>161</ele>
        <time>2026-03-20T15:27:21Z</time>
      </trkpt>
      <trkpt lat="48.50045" lon="2.1705">
        <ele>161</ele>
        <time>2026-03-20T15:27:22Z</time>
      </trkpt>
      <trkpt lat="48.50047" lon="2.17047">
        <ele>161</ele>
        <time>2026-03-20T15:27:23Z</time>
      </trkpt>
      <trkpt lat="48.50049" lon="2.17045">
        <ele>162</ele>
        <time>2026-03-20T15:27:24Z</time>
      </trkpt>
      <trkpt lat="48.50052" lon="2.17042">
        <ele>162</ele>
        <time>2026-03-20T15:27:25Z</time>
      </trkpt>
      <trkpt lat="48.50054" lon="2.1704">
        <ele>162</ele>
        <time>2026-03-20T15:27:26Z</time>
      </trkpt>
      <trkpt lat="48.50057" lon="2.17037">
        <ele>163</ele>
        <time>2026-03-20T15:27:27Z</time>
      </trkpt>
      <trkpt lat="48.5006" lon="2.17035">
        <ele>162.4</ele>
        <time>2026-03-20T15:27:28Z</time>
      </trkpt>
      <trkpt lat="48.50063" lon="2.17032">
        <ele>162.4</ele>
        <time>2026-03-20T15:27:29Z</time>
      </trkpt>
      <trkpt lat="48.50066" lon="2.1703">
        <ele>162.4</ele>
        <time>2026-03-20T15:27:30Z</time>
      </trkpt>
      <trkpt lat="48.50069" lon="2.17028">
        <ele>163.4</ele>
        <time>2026-03-20T15:27:31Z</time>
      </trkpt>
      <trkpt lat="48.50072" lon="2.17026">
        <ele>163.2</ele>
        <time>2026-03-20T15:27:32Z</time>
      </trkpt>
      <trkpt lat="48.50075" lon="2.17024">
        <ele>163.2</ele>
        <time>2026-03-20T15:27:33Z</time>
      </trkpt>
      <trkpt lat="48.50078" lon="2.17022">
        <ele>163.2</ele>
        <time>2026-03-20T15:27:34Z</time>
      </trkpt>
      <trkpt lat="48.50081" lon="2.17019">
        <ele>163.2</ele>
        <time>2026-03-20T15:27:35Z</time>
      </trkpt>
      <trkpt lat="48.50084" lon="2.17017">
        <ele>163.2</ele>
        <time>2026-03-20T15:27:36Z</time>
      </trkpt>
      <trkpt lat="48.50087" lon="2.17016">
        <ele>163.2</ele>
        <time>2026-03-20T15:27:37Z</time>
      </trkpt>
      <trkpt lat="48.5009" lon="2.17014">
        <ele>163.2</ele>
        <time>2026-03-20T15:27:38Z</time>
      </trkpt>
      <trkpt lat="48.50092" lon="2.17012">
        <ele>163.2</ele>
        <time>2026-03-20T15:27:39Z</time>
      </trkpt>
      <trkpt lat="48.50095" lon="2.1701">
        <ele>163.4</ele>
        <time>2026-03-20T15:27:40Z</time>
      </trkpt>
      <trkpt lat="48.50098" lon="2.17008">
        <ele>163.4</ele>
        <time>2026-03-20T15:27:41Z</time>
      </trkpt>
      <trkpt lat="48.50101" lon="2.17006">
        <ele>163.4</ele>
        <time>2026-03-20T15:27:42Z</time>
      </trkpt>
      <trkpt lat="48.50104" lon="2.17004">
        <ele>164.4</ele>
        <time>2026-03-20T15:27:43Z</time>
      </trkpt>
      <trkpt lat="48.50107" lon="2.17002">
        <ele>164.4</ele>
        <time>2026-03-20T15:27:44Z</time>
      </trkpt>
      <trkpt lat="48.50109" lon="2.16999">
        <ele>164.4</ele>
        <time>2026-03-20T15:27:45Z</time>
      </trkpt>
      <trkpt lat="48.50111" lon="2.16997">
        <ele>164.4</ele>
        <time>2026-03-20T15:27:46Z</time>
      </trkpt>
      <trkpt lat="48.50114" lon="2.16995">
        <ele>164.8</ele>
        <time>2026-03-20T15:27:47Z</time>
      </trkpt>
      <trkpt lat="48.50117" lon="2.16993">
        <ele>164.6</ele>
        <time>2026-03-20T15:27:48Z</time>
      </trkpt>
      <trkpt lat="48.50119" lon="2.16991">
        <ele>164.6</ele>
        <time>2026-03-20T15:27:49Z</time>
      </trkpt>
      <trkpt lat="48.50123" lon="2.16989">
        <ele>164.6</ele>
        <time>2026-03-20T15:27:50Z</time>
      </trkpt>
      <trkpt lat="48.50124" lon="2.16988">
        <ele>164.6</ele>
        <time>2026-03-20T15:27:51Z</time>
      </trkpt>
      <trkpt lat="48.50125" lon="2.16987">
        <ele>165.2</ele>
        <time>2026-03-20T15:27:52Z</time>
      </trkpt>
      <trkpt lat="48.50126" lon="2.16986">
        <ele>165.2</ele>
        <time>2026-03-20T15:27:53Z</time>
      </trkpt>
      <trkpt lat="48.50127" lon="2.16985">
        <ele>164.4</ele>
        <time>2026-03-20T15:28:40Z</time>
      </trkpt>
      <trkpt lat="48.50128" lon="2.16984">
        <ele>164.4</ele>
        <time>2026-03-20T15:28:41Z</time>
      </trkpt>
      <trkpt lat="48.5013" lon="2.16981">
        <ele>164.4</ele>
        <time>2026-03-20T15:28:42Z</time>
      </trkpt>
      <trkpt lat="48.50133" lon="2.16978">
        <ele>165</ele>
        <time>2026-03-20T15:28:43Z</time>
      </trkpt>
      <trkpt lat="48.50137" lon="2.16975">
        <ele>165.6</ele>
        <time>2026-03-20T15:28:44Z</time>
      </trkpt>
      <trkpt lat="48.50141" lon="2.16973">
        <ele>165.6</ele>
        <time>2026-03-20T15:28:45Z</time>
      </trkpt>
      <trkpt lat="48.50145" lon="2.1697">
        <ele>165.6</ele>
        <time>2026-03-20T15:28:46Z</time>
      </trkpt>
      <trkpt lat="48.5015" lon="2.16968">
        <ele>165.6</ele>
        <time>2026-03-20T15:28:47Z</time>
      </trkpt>
      <trkpt lat="48.50153" lon="2.16964">
        <ele>165.8</ele>
        <time>2026-03-20T15:28:48Z</time>
      </trkpt>
      <trkpt lat="48.50156" lon="2.16959">
        <ele>165.8</ele>
        <time>2026-03-20T15:28:49Z</time>
      </trkpt>
      <trkpt lat="48.50158" lon="2.16954">
        <ele>165.8</ele>
        <time>2026-03-20T15:28:50Z</time>
      </trkpt>
      <trkpt lat="48.50161" lon="2.16949">
        <ele>165.8</ele>
        <time>2026-03-20T15:28:51Z</time>
      </trkpt>
      <trkpt lat="48.50164" lon="2.16944">
        <ele>165.8</ele>
        <time>2026-03-20T15:28:52Z</time>
      </trkpt>
      <trkpt lat="48.50167" lon="2.1694">
        <ele>165.8</ele>
        <time>2026-03-20T15:28:53Z</time>
      </trkpt>
      <trkpt lat="48.50169" lon="2.16936">
        <ele>165.8</ele>
        <time>2026-03-20T15:28:54Z</time>
      </trkpt>
      <trkpt lat="48.50172" lon="2.16931">
        <ele>165.6</ele>
        <time>2026-03-20T15:28:55Z</time>
      </trkpt>
      <trkpt lat="48.50175" lon="2.16927">
        <ele>166.6</ele>
        <time>2026-03-20T15:28:56Z</time>
      </trkpt>
      <trkpt lat="48.50177" lon="2.16923">
        <ele>166.6</ele>
        <time>2026-03-20T15:28:57Z</time>
      </trkpt>
      <trkpt lat="48.5018" lon="2.16919">
        <ele>166.6</ele>
        <time>2026-03-20T15:28:58Z</time>
      </trkpt>
      <trkpt lat="48.50183" lon="2.16915">
        <ele>166.6</ele>
        <time>2026-03-20T15:28:59Z</time>
      </trkpt>
      <trkpt lat="48.50185" lon="2.1691">
        <ele>166</ele>
        <time>2026-03-20T15:29:00Z</time>
      </trkpt>
      <trkpt lat="48.50188" lon="2.16906">
        <ele>166</ele>
        <time>2026-03-20T15:29:01Z</time>
      </trkpt>
      <trkpt lat="48.50191" lon="2.16902">
        <ele>166</ele>
        <time>2026-03-20T15:29:02Z</time>
      </trkpt>
      <trkpt lat="48.50194" lon="2.16898">
        <ele>166</ele>
        <time>2026-03-20T15:29:03Z</time>
      </trkpt>
      <trkpt lat="48.50196" lon="2.16894">
        <ele>166</ele>
        <time>2026-03-20T15:29:04Z</time>
      </trkpt>
      <trkpt lat="48.50199" lon="2.16889">
        <ele>166</ele>
        <time>2026-03-20T15:29:05Z</time>
      </trkpt>
      <trkpt lat="48.50202" lon="2.16885">
        <ele>166</ele>
        <time>2026-03-20T15:29:06Z</time>
      </trkpt>
      <trkpt lat="48.50205" lon="2.16881">
        <ele>166</ele>
        <time>2026-03-20T15:29:07Z</time>
      </trkpt>
      <trkpt lat="48.50207" lon="2.16876">
        <ele>166</ele>
        <time>2026-03-20T15:29:08Z</time>
      </trkpt>
      <trkpt lat="48.5021" lon="2.16871">
        <ele>166</ele>
        <time>2026-03-20T15:29:09Z</time>
      </trkpt>
      <trkpt lat="48.50212" lon="2.16867">
        <ele>166</ele>
        <time>2026-03-20T15:29:10Z</time>
      </trkpt>
      <trkpt lat="48.50215" lon="2.16861">
        <ele>166</ele>
        <time>2026-03-20T15:29:11Z</time>
      </trkpt>
      <trkpt lat="48.50218" lon="2.16857">
        <ele>166.2</ele>
        <time>2026-03-20T15:29:12Z</time>
      </trkpt>
      <trkpt lat="48.5022" lon="2.16852">
        <ele>166.2</ele>
        <time>2026-03-20T15:29:13Z</time>
      </trkpt>
      <trkpt lat="48.50222" lon="2.16846">
        <ele>166.2</ele>
        <time>2026-03-20T15:29:14Z</time>
      </trkpt>
      <trkpt lat="48.50225" lon="2.16841">
        <ele>166.2</ele>
        <time>2026-03-20T15:29:15Z</time>
      </trkpt>
      <trkpt lat="48.50227" lon="2.16836">
        <ele>166.2</ele>
        <time>2026-03-20T15:29:16Z</time>
      </trkpt>
      <trkpt lat="48.5023" lon="2.1683">
        <ele>166.2</ele>
        <time>2026-03-20T15:29:17Z</time>
      </trkpt>
      <trkpt lat="48.50233" lon="2.16825">
        <ele>166.2</ele>
        <time>2026-03-20T15:29:18Z</time>
      </trkpt>
      <trkpt lat="48.50235" lon="2.16819">
        <ele>165.8</ele>
        <time>2026-03-20T15:29:19Z</time>
      </trkpt>
      <trkpt lat="48.50238" lon="2.16813">
        <ele>166.2</ele>
        <time>2026-03-20T15:29:20Z</time>
      </trkpt>
      <trkpt lat="48.50241" lon="2.16808">
        <ele>166.2</ele>
        <time>2026-03-20T15:29:21Z</time>
      </trkpt>
      <trkpt lat="48.50243" lon="2.16802">
        <ele>166.2</ele>
        <time>2026-03-20T15:29:22Z</time>
      </trkpt>
      <trkpt lat="48.50246" lon="2.16796">
        <ele>166.2</ele>
        <time>2026-03-20T15:29:23Z</time>
      </trkpt>
      <trkpt lat="48.50249" lon="2.1679">
        <ele>166</ele>
        <time>2026-03-20T15:29:24Z</time>
      </trkpt>
      <trkpt lat="48.50252" lon="2.16784">
        <ele>166</ele>
        <time>2026-03-20T15:29:25Z</time>
      </trkpt>
      <trkpt lat="48.50254" lon="2.16778">
        <ele>166</ele>
        <time>2026-03-20T15:29:26Z</time>
      </trkpt>
      <trkpt lat="48.50257" lon="2.16772">
        <ele>165.4</ele>
        <time>2026-03-20T15:29:27Z</time>
      </trkpt>
      <trkpt lat="48.5026" lon="2.16766">
        <ele>165.4</ele>
        <time>2026-03-20T15:29:28Z</time>
      </trkpt>
      <trkpt lat="48.50262" lon="2.16759">
        <ele>165.4</ele>
        <time>2026-03-20T15:29:29Z</time>
      </trkpt>
      <trkpt lat="48.50265" lon="2.16753">
        <ele>165.4</ele>
        <time>2026-03-20T15:29:30Z</time>
      </trkpt>
      <trkpt lat="48.50268" lon="2.16747">
        <ele>166.4</ele>
        <time>2026-03-20T15:29:31Z</time>
      </trkpt>
      <trkpt lat="48.50271" lon="2.16742">
        <ele>166.2</ele>
        <time>2026-03-20T15:29:32Z</time>
      </trkpt>
      <trkpt lat="48.50273" lon="2.16736">
        <ele>166.2</ele>
        <time>2026-03-20T15:29:33Z</time>
      </trkpt>
      <trkpt lat="48.50276" lon="2.1673">
        <ele>166.2</ele>
        <time>2026-03-20T15:29:34Z</time>
      </trkpt>
      <trkpt lat="48.50279" lon="2.16724">
        <ele>166.2</ele>
        <time>2026-03-20T15:29:35Z</time>
      </trkpt>
      <trkpt lat="48.50282" lon="2.16719">
        <ele>166</ele>
        <time>2026-03-20T15:29:36Z</time>
      </trkpt>
      <trkpt lat="48.50285" lon="2.16713">
        <ele>166</ele>
        <time>2026-03-20T15:29:37Z</time>
      </trkpt>
      <trkpt lat="48.50288" lon="2.16707">
        <ele>166</ele>
        <time>2026-03-20T15:29:38Z</time>
      </trkpt>
      <trkpt lat="48.50291" lon="2.16702">
        <ele>166</ele>
        <time>2026-03-20T15:29:39Z</time>
      </trkpt>
      <trkpt lat="48.50295" lon="2.16696">
        <ele>165.6</ele>
        <time>2026-03-20T15:29:40Z</time>
      </trkpt>
      <trkpt lat="48.50298" lon="2.16691">
        <ele>165.6</ele>
        <time>2026-03-20T15:29:41Z</time>
      </trkpt>
      <trkpt lat="48.50302" lon="2.16686">
        <ele>165.6</ele>
        <time>2026-03-20T15:29:42Z</time>
      </trkpt>
      <trkpt lat="48.50305" lon="2.1668">
        <ele>165.6</ele>
        <time>2026-03-20T15:29:43Z</time>
      </trkpt>
      <trkpt lat="48.50309" lon="2.16675">
        <ele>166.4</ele>
        <time>2026-03-20T15:29:44Z</time>
      </trkpt>
      <trkpt lat="48.50312" lon="2.1667">
        <ele>166.4</ele>
        <time>2026-03-20T15:29:45Z</time>
      </trkpt>
      <trkpt lat="48.50316" lon="2.16664">
        <ele>166.4</ele>
        <time>2026-03-20T15:29:46Z</time>
      </trkpt>
      <trkpt lat="48.5032" lon="2.16659">
        <ele>166.4</ele>
        <time>2026-03-20T15:29:47Z</time>
      </trkpt>
      <trkpt lat="48.50324" lon="2.16654">
        <ele>166.4</ele>
        <time>2026-03-20T15:29:48Z</time>
      </trkpt>
      <trkpt lat="48.50328" lon="2.16648">
        <ele>166.4</ele>
        <time>2026-03-20T15:29:49Z</time>
      </trkpt>
      <trkpt lat="48.50332" lon="2.16643">
        <ele>166.4</ele>
        <time>2026-03-20T15:29:50Z</time>
      </trkpt>
      <trkpt lat="48.50336" lon="2.16637">
        <ele>166.4</ele>
        <time>2026-03-20T15:29:51Z</time>
      </trkpt>
      <trkpt lat="48.5034" lon="2.16632">
        <ele>166</ele>
        <time>2026-03-20T15:29:52Z</time>
      </trkpt>
      <trkpt lat="48.50344" lon="2.16626">
        <ele>166</ele>
        <time>2026-03-20T15:29:53Z</time>
      </trkpt>
      <trkpt lat="48.50349" lon="2.1662">
        <ele>166</ele>
        <time>2026-03-20T15:29:54Z</time>
      </trkpt>
      <trkpt lat="48.50353" lon="2.16615">
        <ele>166</ele>
        <time>2026-03-20T15:29:55Z</time>
      </trkpt>
      <trkpt lat="48.50357" lon="2.16609">
        <ele>165.2</ele>
        <time>2026-03-20T15:29:56Z</time>
      </trkpt>
      <trkpt lat="48.50361" lon="2.16604">
        <ele>165.2</ele>
        <time>2026-03-20T15:29:57Z</time>
      </trkpt>
      <trkpt lat="48.50366" lon="2.16598">
        <ele>165.2</ele>
        <time>2026-03-20T15:29:58Z</time>
      </trkpt>
      <trkpt lat="48.5037" lon="2.16593">
        <ele>165.2</ele>
        <time>2026-03-20T15:29:59Z</time>
      </trkpt>
      <trkpt lat="48.50374" lon="2.16587">
        <ele>165.2</ele>
        <time>2026-03-20T15:30:00Z</time>
      </trkpt>
      <trkpt lat="48.50378" lon="2.16582">
        <ele>165.2</ele>
        <time>2026-03-20T15:30:01Z</time>
      </trkpt>
      <trkpt lat="48.50383" lon="2.16576">
        <ele>165.2</ele>
        <time>2026-03-20T15:30:02Z</time>
      </trkpt>
      <trkpt lat="48.50387" lon="2.16571">
        <ele>165.2</ele>
        <time>2026-03-20T15:30:03Z</time>
      </trkpt>
      <trkpt lat="48.50392" lon="2.16565">
        <ele>164.6</ele>
        <time>2026-03-20T15:30:04Z</time>
      </trkpt>
      <trkpt lat="48.50396" lon="2.16559">
        <ele>164.6</ele>
        <time>2026-03-20T15:30:05Z</time>
      </trkpt>
      <trkpt lat="48.504" lon="2.16554">
        <ele>164.6</ele>
        <time>2026-03-20T15:30:06Z</time>
      </trkpt>
      <trkpt lat="48.50404" lon="2.16549">
        <ele>164.4</ele>
        <time>2026-03-20T15:30:07Z</time>
      </trkpt>
      <trkpt lat="48.50409" lon="2.16543">
        <ele>164.2</ele>
        <time>2026-03-20T15:30:08Z</time>
      </trkpt>
      <trkpt lat="48.50413" lon="2.16538">
        <ele>164.2</ele>
        <time>2026-03-20T15:30:09Z</time>
      </trkpt>
      <trkpt lat="48.50418" lon="2.16532">
        <ele>164.2</ele>
        <time>2026-03-20T15:30:10Z</time>
      </trkpt>
      <trkpt lat="48.50422" lon="2.16526">
        <ele>164</ele>
        <time>2026-03-20T15:30:11Z</time>
      </trkpt>
      <trkpt lat="48.50427" lon="2.1652">
        <ele>164.4</ele>
        <time>2026-03-20T15:30:12Z</time>
      </trkpt>
      <trkpt lat="48.50431" lon="2.16513">
        <ele>164.4</ele>
        <time>2026-03-20T15:30:13Z</time>
      </trkpt>
      <trkpt lat="48.50436" lon="2.16507">
        <ele>164.4</ele>
        <time>2026-03-20T15:30:14Z</time>
      </trkpt>
      <trkpt lat="48.50441" lon="2.16501">
        <ele>164.4</ele>
        <time>2026-03-20T15:30:15Z</time>
      </trkpt>
      <trkpt lat="48.50445" lon="2.16494">
        <ele>163.8</ele>
        <time>2026-03-20T15:30:16Z</time>
      </trkpt>
      <trkpt lat="48.5045" lon="2.16488">
        <ele>163.8</ele>
        <time>2026-03-20T15:30:17Z</time>
      </trkpt>
      <trkpt lat="48.50455" lon="2.16482">
        <ele>163.8</ele>
        <time>2026-03-20T15:30:18Z</time>
      </trkpt>
      <trkpt lat="48.50459" lon="2.16476">
        <ele>163.8</ele>
        <time>2026-03-20T15:30:19Z</time>
      </trkpt>
      <trkpt lat="48.50464" lon="2.16469">
        <ele>164.2</ele>
        <time>2026-03-20T15:30:20Z</time>
      </trkpt>
      <trkpt lat="48.50469" lon="2.16463">
        <ele>164.2</ele>
        <time>2026-03-20T15:30:21Z</time>
      </trkpt>
      <trkpt lat="48.50473" lon="2.16457">
        <ele>164.2</ele>
        <time>2026-03-20T15:30:22Z</time>
      </trkpt>
      <trkpt lat="48.50478" lon="2.16451">
        <ele>164.2</ele>
        <time>2026-03-20T15:30:23Z</time>
      </trkpt>
      <trkpt lat="48.50482" lon="2.16445">
        <ele>164.6</ele>
        <time>2026-03-20T15:30:24Z</time>
      </trkpt>
      <trkpt lat="48.50486" lon="2.16439">
        <ele>164.6</ele>
        <time>2026-03-20T15:30:25Z</time>
      </trkpt>
      <trkpt lat="48.50491" lon="2.16433">
        <ele>164.6</ele>
        <time>2026-03-20T15:30:26Z</time>
      </trkpt>
      <trkpt lat="48.50495" lon="2.16427">
        <ele>165</ele>
        <time>2026-03-20T15:30:27Z</time>
      </trkpt>
      <trkpt lat="48.50499" lon="2.16421">
        <ele>165.2</ele>
        <time>2026-03-20T15:30:28Z</time>
      </trkpt>
      <trkpt lat="48.50504" lon="2.16415">
        <ele>165.2</ele>
        <time>2026-03-20T15:30:29Z</time>
      </trkpt>
      <trkpt lat="48.50508" lon="2.16409">
        <ele>165.2</ele>
        <time>2026-03-20T15:30:30Z</time>
      </trkpt>
      <trkpt lat="48.50513" lon="2.16404">
        <ele>165</ele>
        <time>2026-03-20T15:30:31Z</time>
      </trkpt>
      <trkpt lat="48.50517" lon="2.16398">
        <ele>165</ele>
        <time>2026-03-20T15:30:32Z</time>
      </trkpt>
      <trkpt lat="48.50521" lon="2.16392">
        <ele>165</ele>
        <time>2026-03-20T15:30:33Z</time>
      </trkpt>
      <trkpt lat="48.50525" lon="2.16387">
        <ele>165</ele>
        <time>2026-03-20T15:30:34Z</time>
      </trkpt>
      <trkpt lat="48.5053" lon="2.16381">
        <ele>165</ele>
        <time>2026-03-20T15:30:35Z</time>
      </trkpt>
      <trkpt lat="48.50534" lon="2.16376">
        <ele>165</ele>
        <time>2026-03-20T15:30:36Z</time>
      </trkpt>
      <trkpt lat="48.50538" lon="2.16371">
        <ele>165</ele>
        <time>2026-03-20T15:30:37Z</time>
      </trkpt>
      <trkpt lat="48.50543" lon="2.16366">
        <ele>165</ele>
        <time>2026-03-20T15:30:38Z</time>
      </trkpt>
      <trkpt lat="48.50547" lon="2.16361">
        <ele>165</ele>
        <time>2026-03-20T15:30:39Z</time>
      </trkpt>
      <trkpt lat="48.50552" lon="2.16356">
        <ele>165.2</ele>
        <time>2026-03-20T15:30:40Z</time>
      </trkpt>
      <trkpt lat="48.50556" lon="2.16351">
        <ele>165.2</ele>
        <time>2026-03-20T15:30:41Z</time>
      </trkpt>
      <trkpt lat="48.50561" lon="2.16347">
        <ele>165.2</ele>
        <time>2026-03-20T15:30:42Z</time>
      </trkpt>
      <trkpt lat="48.50565" lon="2.16342">
        <ele>165.2</ele>
        <time>2026-03-20T15:30:43Z</time>
      </trkpt>
      <trkpt lat="48.5057" lon="2.16338">
        <ele>165.4</ele>
        <time>2026-03-20T15:30:44Z</time>
      </trkpt>
      <trkpt lat="48.50575" lon="2.16333">
        <ele>165.4</ele>
        <time>2026-03-20T15:30:45Z</time>
      </trkpt>
      <trkpt lat="48.50579" lon="2.16329">
        <ele>165.4</ele>
        <time>2026-03-20T15:30:46Z</time>
      </trkpt>
      <trkpt lat="48.50584" lon="2.16325">
        <ele>165.4</ele>
        <time>2026-03-20T15:30:47Z</time>
      </trkpt>
      <trkpt lat="48.50588" lon="2.16321">
        <ele>165.8</ele>
        <time>2026-03-20T15:30:48Z</time>
      </trkpt>
      <trkpt lat="48.50593" lon="2.16317">
        <ele>165.8</ele>
        <time>2026-03-20T15:30:49Z</time>
      </trkpt>
      <trkpt lat="48.50597" lon="2.16313">
        <ele>165.8</ele>
        <time>2026-03-20T15:30:50Z</time>
      </trkpt>
      <trkpt lat="48.50602" lon="2.16309">
        <ele>165.8</ele>
        <time>2026-03-20T15:30:51Z</time>
      </trkpt>
      <trkpt lat="48.50607" lon="2.16304">
        <ele>165.6</ele>
        <time>2026-03-20T15:30:52Z</time>
      </trkpt>
      <trkpt lat="48.50611" lon="2.163">
        <ele>165.6</ele>
        <time>2026-03-20T15:30:53Z</time>
      </trkpt>
      <trkpt lat="48.50616" lon="2.16296">
        <ele>165.6</ele>
        <time>2026-03-20T15:30:54Z</time>
      </trkpt>
      <trkpt lat="48.50621" lon="2.16292">
        <ele>165.6</ele>
        <time>2026-03-20T15:30:55Z</time>
      </trkpt>
      <trkpt lat="48.50626" lon="2.16288">
        <ele>166.6</ele>
        <time>2026-03-20T15:30:56Z</time>
      </trkpt>
      <trkpt lat="48.5063" lon="2.16283">
        <ele>166.6</ele>
        <time>2026-03-20T15:30:57Z</time>
      </trkpt>
      <trkpt lat="48.50635" lon="2.16279">
        <ele>166.6</ele>
        <time>2026-03-20T15:30:58Z</time>
      </trkpt>
      <trkpt lat="48.5064" lon="2.16275">
        <ele>165.6</ele>
        <time>2026-03-20T15:30:59Z</time>
      </trkpt>
      <trkpt lat="48.50645" lon="2.16271">
        <ele>166.4</ele>
        <time>2026-03-20T15:31:00Z</time>
      </trkpt>
      <trkpt lat="48.50649" lon="2.16267">
        <ele>166.4</ele>
        <time>2026-03-20T15:31:01Z</time>
      </trkpt>
      <trkpt lat="48.50654" lon="2.16263">
        <ele>166.4</ele>
        <time>2026-03-20T15:31:02Z</time>
      </trkpt>
      <trkpt lat="48.50659" lon="2.16258">
        <ele>166</ele>
        <time>2026-03-20T15:31:03Z</time>
      </trkpt>
      <trkpt lat="48.50664" lon="2.16254">
        <ele>166.2</ele>
        <time>2026-03-20T15:31:04Z</time>
      </trkpt>
      <trkpt lat="48.50669" lon="2.1625">
        <ele>166.2</ele>
        <time>2026-03-20T15:31:05Z</time>
      </trkpt>
      <trkpt lat="48.50673" lon="2.16246">
        <ele>166.2</ele>
        <time>2026-03-20T15:31:06Z</time>
      </trkpt>
      <trkpt lat="48.50678" lon="2.16242">
        <ele>166.2</ele>
        <time>2026-03-20T15:31:07Z</time>
      </trkpt>
      <trkpt lat="48.50683" lon="2.16237">
        <ele>165.8</ele>
        <time>2026-03-20T15:31:08Z</time>
      </trkpt>
      <trkpt lat="48.50687" lon="2.16233">
        <ele>165.8</ele>
        <time>2026-03-20T15:31:09Z</time>
      </trkpt>
      <trkpt lat="48.50692" lon="2.16229">
        <ele>165.8</ele>
        <time>2026-03-20T15:31:10Z</time>
      </trkpt>
      <trkpt lat="48.50697" lon="2.16225">
        <ele>166</ele>
        <time>2026-03-20T15:31:11Z</time>
      </trkpt>
      <trkpt lat="48.50702" lon="2.16221">
        <ele>165.6</ele>
        <time>2026-03-20T15:31:12Z</time>
      </trkpt>
      <trkpt lat="48.50707" lon="2.16217">
        <ele>165.6</ele>
        <time>2026-03-20T15:31:13Z</time>
      </trkpt>
      <trkpt lat="48.50711" lon="2.16213">
        <ele>165.6</ele>
        <time>2026-03-20T15:31:14Z</time>
      </trkpt>
      <trkpt lat="48.50716" lon="2.16209">
        <ele>165.6</ele>
        <time>2026-03-20T15:31:15Z</time>
      </trkpt>
      <trkpt lat="48.50721" lon="2.16205">
        <ele>166.2</ele>
        <time>2026-03-20T15:31:16Z</time>
      </trkpt>
      <trkpt lat="48.50725" lon="2.16201">
        <ele>166.2</ele>
        <time>2026-03-20T15:31:17Z</time>
      </trkpt>
      <trkpt lat="48.5073" lon="2.16197">
        <ele>166.2</ele>
        <time>2026-03-20T15:31:18Z</time>
      </trkpt>
      <trkpt lat="48.50735" lon="2.16192">
        <ele>166.2</ele>
        <time>2026-03-20T15:31:19Z</time>
      </trkpt>
      <trkpt lat="48.50739" lon="2.16188">
        <ele>166.4</ele>
        <time>2026-03-20T15:31:20Z</time>
      </trkpt>
      <trkpt lat="48.50743" lon="2.16184">
        <ele>166.4</ele>
        <time>2026-03-20T15:31:21Z</time>
      </trkpt>
      <trkpt lat="48.50748" lon="2.1618">
        <ele>166.4</ele>
        <time>2026-03-20T15:31:22Z</time>
      </trkpt>
      <trkpt lat="48.50752" lon="2.16175">
        <ele>166.4</ele>
        <time>2026-03-20T15:31:23Z</time>
      </trkpt>
      <trkpt lat="48.50757" lon="2.16171">
        <ele>167</ele>
        <time>2026-03-20T15:31:24Z</time>
      </trkpt>
      <trkpt lat="48.50761" lon="2.16167">
        <ele>167</ele>
        <time>2026-03-20T15:31:25Z</time>
      </trkpt>
      <trkpt lat="48.50765" lon="2.16163">
        <ele>167</ele>
        <time>2026-03-20T15:31:26Z</time>
      </trkpt>
      <trkpt lat="48.50769" lon="2.16158">
        <ele>167</ele>
        <time>2026-03-20T15:31:27Z</time>
      </trkpt>
      <trkpt lat="48.50773" lon="2.16154">
        <ele>166.8</ele>
        <time>2026-03-20T15:31:28Z</time>
      </trkpt>
      <trkpt lat="48.50777" lon="2.16149">
        <ele>166.8</ele>
        <time>2026-03-20T15:31:29Z</time>
      </trkpt>
      <trkpt lat="48.50781" lon="2.16145">
        <ele>166.8</ele>
        <time>2026-03-20T15:31:30Z</time>
      </trkpt>
      <trkpt lat="48.50786" lon="2.1614">
        <ele>166.8</ele>
        <time>2026-03-20T15:31:31Z</time>
      </trkpt>
      <trkpt lat="48.5079" lon="2.16135">
        <ele>166.8</ele>
        <time>2026-03-20T15:31:32Z</time>
      </trkpt>
      <trkpt lat="48.50793" lon="2.1613">
        <ele>166.8</ele>
        <time>2026-03-20T15:31:33Z</time>
      </trkpt>
      <trkpt lat="48.50797" lon="2.16125">
        <ele>166.8</ele>
        <time>2026-03-20T15:31:34Z</time>
      </trkpt>
      <trkpt lat="48.50801" lon="2.16119">
        <ele>166.8</ele>
        <time>2026-03-20T15:31:35Z</time>
      </trkpt>
      <trkpt lat="48.50805" lon="2.16114">
        <ele>166.6</ele>
        <time>2026-03-20T15:31:36Z</time>
      </trkpt>
      <trkpt lat="48.50809" lon="2.16108">
        <ele>166.6</ele>
        <time>2026-03-20T15:31:37Z</time>
      </trkpt>
      <trkpt lat="48.50813" lon="2.16103">
        <ele>166.6</ele>
        <time>2026-03-20T15:31:38Z</time>
      </trkpt>
      <trkpt lat="48.50816" lon="2.16097">
        <ele>166.8</ele>
        <time>2026-03-20T15:31:39Z</time>
      </trkpt>
      <trkpt lat="48.5082" lon="2.16092">
        <ele>167.4</ele>
        <time>2026-03-20T15:31:40Z</time>
      </trkpt>
      <trkpt lat="48.50824" lon="2.16086">
        <ele>167.4</ele>
        <time>2026-03-20T15:31:41Z</time>
      </trkpt>
      <trkpt lat="48.50828" lon="2.16081">
        <ele>167.4</ele>
        <time>2026-03-20T15:31:42Z</time>
      </trkpt>
      <trkpt lat="48.50832" lon="2.16075">
        <ele>167.2</ele>
        <time>2026-03-20T15:31:43Z</time>
      </trkpt>
      <trkpt lat="48.50836" lon="2.16069">
        <ele>166.6</ele>
        <time>2026-03-20T15:31:44Z</time>
      </trkpt>
      <trkpt lat="48.5084" lon="2.16063">
        <ele>166.6</ele>
        <time>2026-03-20T15:31:45Z</time>
      </trkpt>
      <trkpt lat="48.50844" lon="2.16057">
        <ele>166.6</ele>
        <time>2026-03-20T15:31:46Z</time>
      </trkpt>
      <trkpt lat="48.50848" lon="2.1605">
        <ele>166.6</ele>
        <time>2026-03-20T15:31:47Z</time>
      </trkpt>
      <trkpt lat="48.50851" lon="2.16044">
        <ele>166.6</ele>
        <time>2026-03-20T15:31:48Z</time>
      </trkpt>
      <trkpt lat="48.50855" lon="2.16037">
        <ele>166.6</ele>
        <time>2026-03-20T15:31:49Z</time>
      </trkpt>
      <trkpt lat="48.50859" lon="2.1603">
        <ele>166.6</ele>
        <time>2026-03-20T15:31:50Z</time>
      </trkpt>
      <trkpt lat="48.50862" lon="2.16024">
        <ele>166.4</ele>
        <time>2026-03-20T15:31:51Z</time>
      </trkpt>
      <trkpt lat="48.50866" lon="2.16017">
        <ele>166.8</ele>
        <time>2026-03-20T15:31:52Z</time>
      </trkpt>
      <trkpt lat="48.5087" lon="2.1601">
        <ele>166.8</ele>
        <time>2026-03-20T15:31:53Z</time>
      </trkpt>
      <trkpt lat="48.50873" lon="2.16003">
        <ele>166.8</ele>
        <time>2026-03-20T15:31:54Z</time>
      </trkpt>
      <trkpt lat="48.50876" lon="2.15996">
        <ele>166.6</ele>
        <time>2026-03-20T15:31:55Z</time>
      </trkpt>
      <trkpt lat="48.5088" lon="2.1599">
        <ele>166.6</ele>
        <time>2026-03-20T15:31:56Z</time>
      </trkpt>
      <trkpt lat="48.50883" lon="2.15983">
        <ele>166.6</ele>
        <time>2026-03-20T15:31:57Z</time>
      </trkpt>
      <trkpt lat="48.50886" lon="2.15976">
        <ele>166.6</ele>
        <time>2026-03-20T15:31:58Z</time>
      </trkpt>
      <trkpt lat="48.50889" lon="2.15969">
        <ele>166.6</ele>
        <time>2026-03-20T15:31:59Z</time>
      </trkpt>
      <trkpt lat="48.50892" lon="2.15962">
        <ele>166.4</ele>
        <time>2026-03-20T15:32:00Z</time>
      </trkpt>
      <trkpt lat="48.50895" lon="2.15954">
        <ele>166.4</ele>
        <time>2026-03-20T15:32:01Z</time>
      </trkpt>
      <trkpt lat="48.50897" lon="2.15947">
        <ele>166.4</ele>
        <time>2026-03-20T15:32:02Z</time>
      </trkpt>
      <trkpt lat="48.509" lon="2.15939">
        <ele>166.4</ele>
        <time>2026-03-20T15:32:03Z</time>
      </trkpt>
      <trkpt lat="48.50903" lon="2.15932">
        <ele>166.4</ele>
        <time>2026-03-20T15:32:04Z</time>
      </trkpt>
      <trkpt lat="48.50906" lon="2.15924">
        <ele>166.4</ele>
        <time>2026-03-20T15:32:05Z</time>
      </trkpt>
      <trkpt lat="48.50908" lon="2.15917">
        <ele>166.4</ele>
        <time>2026-03-20T15:32:06Z</time>
      </trkpt>
      <trkpt lat="48.50911" lon="2.15909">
        <ele>166.4</ele>
        <time>2026-03-20T15:32:07Z</time>
      </trkpt>
      <trkpt lat="48.50914" lon="2.15901">
        <ele>166.2</ele>
        <time>2026-03-20T15:32:08Z</time>
      </trkpt>
      <trkpt lat="48.50917" lon="2.15893">
        <ele>166.2</ele>
        <time>2026-03-20T15:32:09Z</time>
      </trkpt>
      <trkpt lat="48.50919" lon="2.15885">
        <ele>166.2</ele>
        <time>2026-03-20T15:32:10Z</time>
      </trkpt>
      <trkpt lat="48.50922" lon="2.15877">
        <ele>166.2</ele>
        <time>2026-03-20T15:32:11Z</time>
      </trkpt>
      <trkpt lat="48.50925" lon="2.15869">
        <ele>166</ele>
        <time>2026-03-20T15:32:12Z</time>
      </trkpt>
      <trkpt lat="48.50927" lon="2.15861">
        <ele>166</ele>
        <time>2026-03-20T15:32:13Z</time>
      </trkpt>
      <trkpt lat="48.5093" lon="2.15853">
        <ele>166</ele>
        <time>2026-03-20T15:32:14Z</time>
      </trkpt>
      <trkpt lat="48.50932" lon="2.15845">
        <ele>166</ele>
        <time>2026-03-20T15:32:15Z</time>
      </trkpt>
      <trkpt lat="48.50935" lon="2.15837">
        <ele>165.8</ele>
        <time>2026-03-20T15:32:16Z</time>
      </trkpt>
      <trkpt lat="48.50937" lon="2.15828">
        <ele>165.8</ele>
        <time>2026-03-20T15:32:17Z</time>
      </trkpt>
      <trkpt lat="48.50939" lon="2.1582">
        <ele>165.8</ele>
        <time>2026-03-20T15:32:18Z</time>
      </trkpt>
      <trkpt lat="48.50942" lon="2.15812">
        <ele>165.2</ele>
        <time>2026-03-20T15:32:19Z</time>
      </trkpt>
      <trkpt lat="48.50944" lon="2.15803">
        <ele>165.2</ele>
        <time>2026-03-20T15:32:20Z</time>
      </trkpt>
      <trkpt lat="48.50946" lon="2.15795">
        <ele>165.2</ele>
        <time>2026-03-20T15:32:21Z</time>
      </trkpt>
      <trkpt lat="48.50948" lon="2.15786">
        <ele>165.2</ele>
        <time>2026-03-20T15:32:22Z</time>
      </trkpt>
      <trkpt lat="48.50951" lon="2.15777">
        <ele>165.2</ele>
        <time>2026-03-20T15:32:23Z</time>
      </trkpt>
      <trkpt lat="48.50953" lon="2.15769">
        <ele>164.8</ele>
        <time>2026-03-20T15:32:24Z</time>
      </trkpt>
      <trkpt lat="48.50954" lon="2.1576">
        <ele>164.8</ele>
        <time>2026-03-20T15:32:25Z</time>
      </trkpt>
      <trkpt lat="48.50956" lon="2.1575">
        <ele>164.8</ele>
        <time>2026-03-20T15:32:26Z</time>
      </trkpt>
      <trkpt lat="48.50957" lon="2.15741">
        <ele>164</ele>
        <time>2026-03-20T15:32:27Z</time>
      </trkpt>
      <trkpt lat="48.50958" lon="2.15732">
        <ele>164</ele>
        <time>2026-03-20T15:32:28Z</time>
      </trkpt>
      <trkpt lat="48.5096" lon="2.15723">
        <ele>164</ele>
        <time>2026-03-20T15:32:29Z</time>
      </trkpt>
      <trkpt lat="48.50961" lon="2.15714">
        <ele>164</ele>
        <time>2026-03-20T15:32:30Z</time>
      </trkpt>
      <trkpt lat="48.50961" lon="2.15705">
        <ele>164</ele>
        <time>2026-03-20T15:32:31Z</time>
      </trkpt>
      <trkpt lat="48.50962" lon="2.15696">
        <ele>163.4</ele>
        <time>2026-03-20T15:32:32Z</time>
      </trkpt>
      <trkpt lat="48.50962" lon="2.15686">
        <ele>163.4</ele>
        <time>2026-03-20T15:32:33Z</time>
      </trkpt>
      <trkpt lat="48.50963" lon="2.15677">
        <ele>163.4</ele>
        <time>2026-03-20T15:32:34Z</time>
      </trkpt>
      <trkpt lat="48.50963" lon="2.15667">
        <ele>163.2</ele>
        <time>2026-03-20T15:32:35Z</time>
      </trkpt>
      <trkpt lat="48.50963" lon="2.15658">
        <ele>162.6</ele>
        <time>2026-03-20T15:32:36Z</time>
      </trkpt>
      <trkpt lat="48.50964" lon="2.15648">
        <ele>162.6</ele>
        <time>2026-03-20T15:32:37Z</time>
      </trkpt>
      <trkpt lat="48.50963" lon="2.15638">
        <ele>162.6</ele>
        <time>2026-03-20T15:32:38Z</time>
      </trkpt>
      <trkpt lat="48.50963" lon="2.15628">
        <ele>162.6</ele>
        <time>2026-03-20T15:32:39Z</time>
      </trkpt>
      <trkpt lat="48.50963" lon="2.15618">
        <ele>162.4</ele>
        <time>2026-03-20T15:32:40Z</time>
      </trkpt>
      <trkpt lat="48.50962" lon="2.15608">
        <ele>162.4</ele>
        <time>2026-03-20T15:32:41Z</time>
      </trkpt>
      <trkpt lat="48.50962" lon="2.15598">
        <ele>162.4</ele>
        <time>2026-03-20T15:32:42Z</time>
      </trkpt>
      <trkpt lat="48.50961" lon="2.15587">
        <ele>162.4</ele>
        <time>2026-03-20T15:32:43Z</time>
      </trkpt>
      <trkpt lat="48.5096" lon="2.15577">
        <ele>161.8</ele>
        <time>2026-03-20T15:32:44Z</time>
      </trkpt>
      <trkpt lat="48.5096" lon="2.15566">
        <ele>161.8</ele>
        <time>2026-03-20T15:32:45Z</time>
      </trkpt>
      <trkpt lat="48.50959" lon="2.15556">
        <ele>161.8</ele>
        <time>2026-03-20T15:32:46Z</time>
      </trkpt>
      <trkpt lat="48.50958" lon="2.15545">
        <ele>161.8</ele>
        <time>2026-03-20T15:32:47Z</time>
      </trkpt>
      <trkpt lat="48.50957" lon="2.15534">
        <ele>162</ele>
        <time>2026-03-20T15:32:48Z</time>
      </trkpt>
      <trkpt lat="48.50956" lon="2.15524">
        <ele>162</ele>
        <time>2026-03-20T15:32:49Z</time>
      </trkpt>
      <trkpt lat="48.50956" lon="2.15513">
        <ele>162</ele>
        <time>2026-03-20T15:32:50Z</time>
      </trkpt>
      <trkpt lat="48.50955" lon="2.15503">
        <ele>162.8</ele>
        <time>2026-03-20T15:32:51Z</time>
      </trkpt>
      <trkpt lat="48.50954" lon="2.15492">
        <ele>162.8</ele>
        <time>2026-03-20T15:32:52Z</time>
      </trkpt>
      <trkpt lat="48.50953" lon="2.15482">
        <ele>162.8</ele>
        <time>2026-03-20T15:32:53Z</time>
      </trkpt>
      <trkpt lat="48.50953" lon="2.15472">
        <ele>162.8</ele>
        <time>2026-03-20T15:32:54Z</time>
      </trkpt>
      <trkpt lat="48.50952" lon="2.15461">
        <ele>162.8</ele>
        <time>2026-03-20T15:32:55Z</time>
      </trkpt>
      <trkpt lat="48.50952" lon="2.15451">
        <ele>162.2</ele>
        <time>2026-03-20T15:32:56Z</time>
      </trkpt>
      <trkpt lat="48.50951" lon="2.15441">
        <ele>162.2</ele>
        <time>2026-03-20T15:32:57Z</time>
      </trkpt>
      <trkpt lat="48.50951" lon="2.15431">
        <ele>162.2</ele>
        <time>2026-03-20T15:32:58Z</time>
      </trkpt>
      <trkpt lat="48.5095" lon="2.15421">
        <ele>162.2</ele>
        <time>2026-03-20T15:32:59Z</time>
      </trkpt>
      <trkpt lat="48.5095" lon="2.15411">
        <ele>162.4</ele>
        <time>2026-03-20T15:33:00Z</time>
      </trkpt>
      <trkpt lat="48.5095" lon="2.15401">
        <ele>162.4</ele>
        <time>2026-03-20T15:33:01Z</time>
      </trkpt>
      <trkpt lat="48.5095" lon="2.15391">
        <ele>162.4</ele>
        <time>2026-03-20T15:33:02Z</time>
      </trkpt>
      <trkpt lat="48.5095" lon="2.15381">
        <ele>162.4</ele>
        <time>2026-03-20T15:33:03Z</time>
      </trkpt>
      <trkpt lat="48.5095" lon="2.15371">
        <ele>162.6</ele>
        <time>2026-03-20T15:33:04Z</time>
      </trkpt>
      <trkpt lat="48.5095" lon="2.15362">
        <ele>162.6</ele>
        <time>2026-03-20T15:33:05Z</time>
      </trkpt>
      <trkpt lat="48.5095" lon="2.15352">
        <ele>162.6</ele>
        <time>2026-03-20T15:33:06Z</time>
      </trkpt>
      <trkpt lat="48.5095" lon="2.15343">
        <ele>162.8</ele>
        <time>2026-03-20T15:33:07Z</time>
      </trkpt>
      <trkpt lat="48.5095" lon="2.15334">
        <ele>162.6</ele>
        <time>2026-03-20T15:33:08Z</time>
      </trkpt>
      <trkpt lat="48.50949" lon="2.15324">
        <ele>162.6</ele>
        <time>2026-03-20T15:33:09Z</time>
      </trkpt>
      <trkpt lat="48.50949" lon="2.15315">
        <ele>162.6</ele>
        <time>2026-03-20T15:33:10Z</time>
      </trkpt>
      <trkpt lat="48.50949" lon="2.15306">
        <ele>162.6</ele>
        <time>2026-03-20T15:33:11Z</time>
      </trkpt>
      <trkpt lat="48.50949" lon="2.15297">
        <ele>163.4</ele>
        <time>2026-03-20T15:33:12Z</time>
      </trkpt>
      <trkpt lat="48.50949" lon="2.15288">
        <ele>163.4</ele>
        <time>2026-03-20T15:33:13Z</time>
      </trkpt>
      <trkpt lat="48.50949" lon="2.15278">
        <ele>163.4</ele>
        <time>2026-03-20T15:33:14Z</time>
      </trkpt>
      <trkpt lat="48.50949" lon="2.15269">
        <ele>163.4</ele>
        <time>2026-03-20T15:33:15Z</time>
      </trkpt>
      <trkpt lat="48.50949" lon="2.15259">
        <ele>163.2</ele>
        <time>2026-03-20T15:33:16Z</time>
      </trkpt>
      <trkpt lat="48.50949" lon="2.1525">
        <ele>163.2</ele>
        <time>2026-03-20T15:33:17Z</time>
      </trkpt>
      <trkpt lat="48.50949" lon="2.15241">
        <ele>163.2</ele>
        <time>2026-03-20T15:33:18Z</time>
      </trkpt>
      <trkpt lat="48.50948" lon="2.15231">
        <ele>164</ele>
        <time>2026-03-20T15:33:19Z</time>
      </trkpt>
      <trkpt lat="48.50948" lon="2.15222">
        <ele>164</ele>
        <time>2026-03-20T15:33:20Z</time>
      </trkpt>
      <trkpt lat="48.50948" lon="2.15213">
        <ele>164</ele>
        <time>2026-03-20T15:33:21Z</time>
      </trkpt>
      <trkpt lat="48.50948" lon="2.15203">
        <ele>164</ele>
        <time>2026-03-20T15:33:22Z</time>
      </trkpt>
      <trkpt lat="48.50948" lon="2.15194">
        <ele>164</ele>
        <time>2026-03-20T15:33:23Z</time>
      </trkpt>
      <trkpt lat="48.50948" lon="2.15185">
        <ele>164.2</ele>
        <time>2026-03-20T15:33:24Z</time>
      </trkpt>
      <trkpt lat="48.50948" lon="2.15176">
        <ele>164.2</ele>
        <time>2026-03-20T15:33:25Z</time>
      </trkpt>
      <trkpt lat="48.50948" lon="2.15166">
        <ele>164.2</ele>
        <time>2026-03-20T15:33:26Z</time>
      </trkpt>
      <trkpt lat="48.50948" lon="2.15157">
        <ele>163.6</ele>
        <time>2026-03-20T15:33:27Z</time>
      </trkpt>
      <trkpt lat="48.50947" lon="2.15147">
        <ele>163.8</ele>
        <time>2026-03-20T15:33:28Z</time>
      </trkpt>
      <trkpt lat="48.50947" lon="2.15138">
        <ele>163.8</ele>
        <time>2026-03-20T15:33:29Z</time>
      </trkpt>
      <trkpt lat="48.50947" lon="2.15128">
        <ele>163.8</ele>
        <time>2026-03-20T15:33:30Z</time>
      </trkpt>
      <trkpt lat="48.50947" lon="2.15119">
        <ele>163.8</ele>
        <time>2026-03-20T15:33:31Z</time>
      </trkpt>
      <trkpt lat="48.50947" lon="2.15109">
        <ele>164.6</ele>
        <time>2026-03-20T15:33:32Z</time>
      </trkpt>
      <trkpt lat="48.50947" lon="2.151">
        <ele>164.6</ele>
        <time>2026-03-20T15:33:33Z</time>
      </trkpt>
      <trkpt lat="48.50946" lon="2.1509">
        <ele>164.6</ele>
        <time>2026-03-20T15:33:34Z</time>
      </trkpt>
      <trkpt lat="48.50946" lon="2.1508">
        <ele>163.6</ele>
        <time>2026-03-20T15:33:35Z</time>
      </trkpt>
      <trkpt lat="48.50946" lon="2.1507">
        <ele>163.2</ele>
        <time>2026-03-20T15:33:36Z</time>
      </trkpt>
      <trkpt lat="48.50946" lon="2.1506">
        <ele>163.2</ele>
        <time>2026-03-20T15:33:37Z</time>
      </trkpt>
      <trkpt lat="48.50946" lon="2.1505">
        <ele>163.2</ele>
        <time>2026-03-20T15:33:38Z</time>
      </trkpt>
      <trkpt lat="48.50946" lon="2.1504">
        <ele>163.2</ele>
        <time>2026-03-20T15:33:39Z</time>
      </trkpt>
      <trkpt lat="48.50946" lon="2.15031">
        <ele>163.4</ele>
        <time>2026-03-20T15:33:40Z</time>
      </trkpt>
      <trkpt lat="48.50946" lon="2.15021">
        <ele>163.4</ele>
        <time>2026-03-20T15:33:41Z</time>
      </trkpt>
      <trkpt lat="48.50946" lon="2.15012">
        <ele>163.4</ele>
        <time>2026-03-20T15:33:42Z</time>
      </trkpt>
      <trkpt lat="48.50946" lon="2.15002">
        <ele>163.4</ele>
        <time>2026-03-20T15:33:43Z</time>
      </trkpt>
      <trkpt lat="48.50946" lon="2.14992">
        <ele>163.2</ele>
        <time>2026-03-20T15:33:44Z</time>
      </trkpt>
      <trkpt lat="48.50946" lon="2.14982">
        <ele>163.2</ele>
        <time>2026-03-20T15:33:45Z</time>
      </trkpt>
      <trkpt lat="48.50947" lon="2.14973">
        <ele>163.2</ele>
        <time>2026-03-20T15:33:46Z</time>
      </trkpt>
      <trkpt lat="48.50948" lon="2.14964">
        <ele>164.2</ele>
        <time>2026-03-20T15:33:47Z</time>
      </trkpt>
      <trkpt lat="48.50949" lon="2.14955">
        <ele>164.6</ele>
        <time>2026-03-20T15:33:48Z</time>
      </trkpt>
      <trkpt lat="48.5095" lon="2.14946">
        <ele>164.6</ele>
        <time>2026-03-20T15:33:49Z</time>
      </trkpt>
      <trkpt lat="48.50952" lon="2.14937">
        <ele>164.6</ele>
        <time>2026-03-20T15:33:50Z</time>
      </trkpt>
      <trkpt lat="48.50954" lon="2.14928">
        <ele>164.6</ele>
        <time>2026-03-20T15:33:51Z</time>
      </trkpt>
      <trkpt lat="48.50956" lon="2.14919">
        <ele>164.6</ele>
        <time>2026-03-20T15:33:52Z</time>
      </trkpt>
      <trkpt lat="48.50958" lon="2.14911">
        <ele>164.6</ele>
        <time>2026-03-20T15:33:53Z</time>
      </trkpt>
      <trkpt lat="48.5096" lon="2.14902">
        <ele>164.6</ele>
        <time>2026-03-20T15:33:54Z</time>
      </trkpt>
      <trkpt lat="48.50962" lon="2.14894">
        <ele>165</ele>
        <time>2026-03-20T15:33:55Z</time>
      </trkpt>
      <trkpt lat="48.50964" lon="2.14885">
        <ele>164.8</ele>
        <time>2026-03-20T15:33:56Z</time>
      </trkpt>
      <trkpt lat="48.50967" lon="2.14875">
        <ele>164.8</ele>
        <time>2026-03-20T15:33:57Z</time>
      </trkpt>
      <trkpt lat="48.50969" lon="2.14866">
        <ele>164.8</ele>
        <time>2026-03-20T15:33:58Z</time>
      </trkpt>
      <trkpt lat="48.50971" lon="2.14857">
        <ele>164.8</ele>
        <time>2026-03-20T15:33:59Z</time>
      </trkpt>
      <trkpt lat="48.50973" lon="2.14848">
        <ele>164.8</ele>
        <time>2026-03-20T15:34:00Z</time>
      </trkpt>
      <trkpt lat="48.50975" lon="2.14839">
        <ele>164.8</ele>
        <time>2026-03-20T15:34:01Z</time>
      </trkpt>
      <trkpt lat="48.50977" lon="2.1483">
        <ele>164.8</ele>
        <time>2026-03-20T15:34:02Z</time>
      </trkpt>
      <trkpt lat="48.50979" lon="2.1482">
        <ele>164.8</ele>
        <time>2026-03-20T15:34:03Z</time>
      </trkpt>
      <trkpt lat="48.50981" lon="2.14811">
        <ele>165.6</ele>
        <time>2026-03-20T15:34:04Z</time>
      </trkpt>
      <trkpt lat="48.50982" lon="2.14802">
        <ele>165.6</ele>
        <time>2026-03-20T15:34:05Z</time>
      </trkpt>
      <trkpt lat="48.50984" lon="2.14793">
        <ele>165.6</ele>
        <time>2026-03-20T15:34:06Z</time>
      </trkpt>
      <trkpt lat="48.50985" lon="2.14783">
        <ele>165.6</ele>
        <time>2026-03-20T15:34:07Z</time>
      </trkpt>
      <trkpt lat="48.50987" lon="2.14774">
        <ele>166</ele>
        <time>2026-03-20T15:34:08Z</time>
      </trkpt>
      <trkpt lat="48.50988" lon="2.14764">
        <ele>166</ele>
        <time>2026-03-20T15:34:09Z</time>
      </trkpt>
      <trkpt lat="48.50989" lon="2.14755">
        <ele>166</ele>
        <time>2026-03-20T15:34:10Z</time>
      </trkpt>
      <trkpt lat="48.5099" lon="2.14746">
        <ele>166</ele>
        <time>2026-03-20T15:34:11Z</time>
      </trkpt>
      <trkpt lat="48.50991" lon="2.14736">
        <ele>165.4</ele>
        <time>2026-03-20T15:34:12Z</time>
      </trkpt>
      <trkpt lat="48.50992" lon="2.14727">
        <ele>165.4</ele>
        <time>2026-03-20T15:34:13Z</time>
      </trkpt>
      <trkpt lat="48.50994" lon="2.14718">
        <ele>165.4</ele>
        <time>2026-03-20T15:34:14Z</time>
      </trkpt>
      <trkpt lat="48.50995" lon="2.14709">
        <ele>165.4</ele>
        <time>2026-03-20T15:34:15Z</time>
      </trkpt>
      <trkpt lat="48.50996" lon="2.147">
        <ele>166</ele>
        <time>2026-03-20T15:34:16Z</time>
      </trkpt>
      <trkpt lat="48.50997" lon="2.1469">
        <ele>166</ele>
        <time>2026-03-20T15:34:17Z</time>
      </trkpt>
      <trkpt lat="48.50998" lon="2.14681">
        <ele>166</ele>
        <time>2026-03-20T15:34:18Z</time>
      </trkpt>
      <trkpt lat="48.51" lon="2.14671">
        <ele>166</ele>
        <time>2026-03-20T15:34:19Z</time>
      </trkpt>
      <trkpt lat="48.51002" lon="2.14662">
        <ele>166.2</ele>
        <time>2026-03-20T15:34:20Z</time>
      </trkpt>
      <trkpt lat="48.51003" lon="2.14652">
        <ele>166.2</ele>
        <time>2026-03-20T15:34:21Z</time>
      </trkpt>
      <trkpt lat="48.51005" lon="2.14643">
        <ele>166.2</ele>
        <time>2026-03-20T15:34:22Z</time>
      </trkpt>
      <trkpt lat="48.51007" lon="2.14634">
        <ele>165.8</ele>
        <time>2026-03-20T15:34:23Z</time>
      </trkpt>
      <trkpt lat="48.51009" lon="2.14624">
        <ele>165.4</ele>
        <time>2026-03-20T15:34:24Z</time>
      </trkpt>
      <trkpt lat="48.51011" lon="2.14615">
        <ele>165.4</ele>
        <time>2026-03-20T15:34:25Z</time>
      </trkpt>
      <trkpt lat="48.51013" lon="2.14606">
        <ele>165.4</ele>
        <time>2026-03-20T15:34:26Z</time>
      </trkpt>
      <trkpt lat="48.51015" lon="2.14597">
        <ele>166.4</ele>
        <time>2026-03-20T15:34:27Z</time>
      </trkpt>
      <trkpt lat="48.51018" lon="2.14587">
        <ele>166</ele>
        <time>2026-03-20T15:34:28Z</time>
      </trkpt>
      <trkpt lat="48.5102" lon="2.14579">
        <ele>166</ele>
        <time>2026-03-20T15:34:29Z</time>
      </trkpt>
      <trkpt lat="48.51022" lon="2.1457">
        <ele>166</ele>
        <time>2026-03-20T15:34:30Z</time>
      </trkpt>
      <trkpt lat="48.51025" lon="2.14561">
        <ele>166</ele>
        <time>2026-03-20T15:34:31Z</time>
      </trkpt>
      <trkpt lat="48.51027" lon="2.14552">
        <ele>166.6</ele>
        <time>2026-03-20T15:34:32Z</time>
      </trkpt>
      <trkpt lat="48.51029" lon="2.14544">
        <ele>166.6</ele>
        <time>2026-03-20T15:34:33Z</time>
      </trkpt>
      <trkpt lat="48.51032" lon="2.14535">
        <ele>166.6</ele>
        <time>2026-03-20T15:34:34Z</time>
      </trkpt>
      <trkpt lat="48.51034" lon="2.14527">
        <ele>166.6</ele>
        <time>2026-03-20T15:34:35Z</time>
      </trkpt>
      <trkpt lat="48.51037" lon="2.14518">
        <ele>166</ele>
        <time>2026-03-20T15:34:36Z</time>
      </trkpt>
      <trkpt lat="48.51039" lon="2.1451">
        <ele>166</ele>
        <time>2026-03-20T15:34:37Z</time>
      </trkpt>
      <trkpt lat="48.51041" lon="2.14501">
        <ele>166</ele>
        <time>2026-03-20T15:34:38Z</time>
      </trkpt>
      <trkpt lat="48.51044" lon="2.14493">
        <ele>166.6</ele>
        <time>2026-03-20T15:34:39Z</time>
      </trkpt>
      <trkpt lat="48.51046" lon="2.14484">
        <ele>166.2</ele>
        <time>2026-03-20T15:34:40Z</time>
      </trkpt>
      <trkpt lat="48.51048" lon="2.14476">
        <ele>166.2</ele>
        <time>2026-03-20T15:34:41Z</time>
      </trkpt>
      <trkpt lat="48.51051" lon="2.14467">
        <ele>166.2</ele>
        <time>2026-03-20T15:34:42Z</time>
      </trkpt>
      <trkpt lat="48.51053" lon="2.14458">
        <ele>166.2</ele>
        <time>2026-03-20T15:34:43Z</time>
      </trkpt>
      <trkpt lat="48.51056" lon="2.1445">
        <ele>167.2</ele>
        <time>2026-03-20T15:34:44Z</time>
      </trkpt>
      <trkpt lat="48.51058" lon="2.14441">
        <ele>167.2</ele>
        <time>2026-03-20T15:34:45Z</time>
      </trkpt>
      <trkpt lat="48.5106" lon="2.14433">
        <ele>167.2</ele>
        <time>2026-03-20T15:34:46Z</time>
      </trkpt>
      <trkpt lat="48.51063" lon="2.14424">
        <ele>166.6</ele>
        <time>2026-03-20T15:34:47Z</time>
      </trkpt>
      <trkpt lat="48.51065" lon="2.14416">
        <ele>166</ele>
        <time>2026-03-20T15:34:48Z</time>
      </trkpt>
      <trkpt lat="48.51068" lon="2.14407">
        <ele>166</ele>
        <time>2026-03-20T15:34:49Z</time>
      </trkpt>
      <trkpt lat="48.5107" lon="2.14398">
        <ele>166</ele>
        <time>2026-03-20T15:34:50Z</time>
      </trkpt>
      <trkpt lat="48.51072" lon="2.1439">
        <ele>166</ele>
        <time>2026-03-20T15:34:51Z</time>
      </trkpt>
      <trkpt lat="48.51075" lon="2.14381">
        <ele>167</ele>
        <time>2026-03-20T15:34:52Z</time>
      </trkpt>
      <trkpt lat="48.51077" lon="2.14372">
        <ele>167</ele>
        <time>2026-03-20T15:34:53Z</time>
      </trkpt>
      <trkpt lat="48.51079" lon="2.14363">
        <ele>167</ele>
        <time>2026-03-20T15:34:54Z</time>
      </trkpt>
      <trkpt lat="48.51082" lon="2.14354">
        <ele>166.2</ele>
        <time>2026-03-20T15:34:55Z</time>
      </trkpt>
      <trkpt lat="48.51084" lon="2.14345">
        <ele>165.4</ele>
        <time>2026-03-20T15:34:56Z</time>
      </trkpt>
      <trkpt lat="48.51086" lon="2.14336">
        <ele>165.4</ele>
        <time>2026-03-20T15:34:57Z</time>
      </trkpt>
      <trkpt lat="48.51089" lon="2.14328">
        <ele>165.4</ele>
        <time>2026-03-20T15:34:58Z</time>
      </trkpt>
      <trkpt lat="48.51092" lon="2.14319">
        <ele>166</ele>
        <time>2026-03-20T15:34:59Z</time>
      </trkpt>
      <trkpt lat="48.51094" lon="2.1431">
        <ele>166.6</ele>
        <time>2026-03-20T15:35:00Z</time>
      </trkpt>
      <trkpt lat="48.51097" lon="2.14302">
        <ele>166.6</ele>
        <time>2026-03-20T15:35:01Z</time>
      </trkpt>
      <trkpt lat="48.51099" lon="2.14293">
        <ele>166.6</ele>
        <time>2026-03-20T15:35:02Z</time>
      </trkpt>
      <trkpt lat="48.51102" lon="2.14284">
        <ele>166</ele>
        <time>2026-03-20T15:35:03Z</time>
      </trkpt>
      <trkpt lat="48.51105" lon="2.14276">
        <ele>166</ele>
        <time>2026-03-20T15:35:04Z</time>
      </trkpt>
      <trkpt lat="48.51107" lon="2.14267">
        <ele>166</ele>
        <time>2026-03-20T15:35:05Z</time>
      </trkpt>
      <trkpt lat="48.5111" lon="2.14258">
        <ele>166</ele>
        <time>2026-03-20T15:35:06Z</time>
      </trkpt>
      <trkpt lat="48.51113" lon="2.1425">
        <ele>166</ele>
        <time>2026-03-20T15:35:07Z</time>
      </trkpt>
      <trkpt lat="48.51116" lon="2.14241">
        <ele>167</ele>
        <time>2026-03-20T15:35:08Z</time>
      </trkpt>
      <trkpt lat="48.51119" lon="2.14233">
        <ele>167</ele>
        <time>2026-03-20T15:35:09Z</time>
      </trkpt>
      <trkpt lat="48.51121" lon="2.14225">
        <ele>167</ele>
        <time>2026-03-20T15:35:10Z</time>
      </trkpt>
      <trkpt lat="48.51124" lon="2.14216">
        <ele>167</ele>
        <time>2026-03-20T15:35:11Z</time>
      </trkpt>
      <trkpt lat="48.51127" lon="2.14208">
        <ele>167.2</ele>
        <time>2026-03-20T15:35:12Z</time>
      </trkpt>
      <trkpt lat="48.51129" lon="2.14199">
        <ele>167.2</ele>
        <time>2026-03-20T15:35:13Z</time>
      </trkpt>
      <trkpt lat="48.51132" lon="2.14191">
        <ele>167.2</ele>
        <time>2026-03-20T15:35:14Z</time>
      </trkpt>
      <trkpt lat="48.51134" lon="2.14182">
        <ele>167.2</ele>
        <time>2026-03-20T15:35:15Z</time>
      </trkpt>
      <trkpt lat="48.51137" lon="2.14174">
        <ele>167.2</ele>
        <time>2026-03-20T15:35:16Z</time>
      </trkpt>
      <trkpt lat="48.5114" lon="2.14166">
        <ele>167.2</ele>
        <time>2026-03-20T15:35:17Z</time>
      </trkpt>
      <trkpt lat="48.51142" lon="2.14157">
        <ele>167.2</ele>
        <time>2026-03-20T15:35:18Z</time>
      </trkpt>
      <trkpt lat="48.51144" lon="2.14149">
        <ele>166.6</ele>
        <time>2026-03-20T15:35:19Z</time>
      </trkpt>
      <trkpt lat="48.51146" lon="2.1414">
        <ele>166.4</ele>
        <time>2026-03-20T15:35:20Z</time>
      </trkpt>
      <trkpt lat="48.51148" lon="2.14132">
        <ele>166.4</ele>
        <time>2026-03-20T15:35:21Z</time>
      </trkpt>
      <trkpt lat="48.5115" lon="2.14124">
        <ele>166.4</ele>
        <time>2026-03-20T15:35:22Z</time>
      </trkpt>
      <trkpt lat="48.51152" lon="2.14115">
        <ele>166.4</ele>
        <time>2026-03-20T15:35:23Z</time>
      </trkpt>
      <trkpt lat="48.51154" lon="2.14106">
        <ele>166.6</ele>
        <time>2026-03-20T15:35:24Z</time>
      </trkpt>
      <trkpt lat="48.51155" lon="2.14098">
        <ele>166.6</ele>
        <time>2026-03-20T15:35:25Z</time>
      </trkpt>
      <trkpt lat="48.51157" lon="2.14089">
        <ele>166.6</ele>
        <time>2026-03-20T15:35:26Z</time>
      </trkpt>
      <trkpt lat="48.51158" lon="2.14079">
        <ele>166.6</ele>
        <time>2026-03-20T15:35:27Z</time>
      </trkpt>
      <trkpt lat="48.51159" lon="2.1407">
        <ele>166.6</ele>
        <time>2026-03-20T15:35:28Z</time>
      </trkpt>
      <trkpt lat="48.51161" lon="2.14061">
        <ele>166.6</ele>
        <time>2026-03-20T15:35:29Z</time>
      </trkpt>
      <trkpt lat="48.51162" lon="2.14052">
        <ele>166.6</ele>
        <time>2026-03-20T15:35:30Z</time>
      </trkpt>
      <trkpt lat="48.51163" lon="2.14042">
        <ele>166.2</ele>
        <time>2026-03-20T15:35:31Z</time>
      </trkpt>
      <trkpt lat="48.51164" lon="2.14033">
        <ele>166</ele>
        <time>2026-03-20T15:35:32Z</time>
      </trkpt>
      <trkpt lat="48.51165" lon="2.14023">
        <ele>166</ele>
        <time>2026-03-20T15:35:33Z</time>
      </trkpt>
      <trkpt lat="48.51166" lon="2.14013">
        <ele>166</ele>
        <time>2026-03-20T15:35:34Z</time>
      </trkpt>
      <trkpt lat="48.51167" lon="2.14003">
        <ele>166</ele>
        <time>2026-03-20T15:35:35Z</time>
      </trkpt>
      <trkpt lat="48.51167" lon="2.13993">
        <ele>165.8</ele>
        <time>2026-03-20T15:35:36Z</time>
      </trkpt>
      <trkpt lat="48.51168" lon="2.13984">
        <ele>165.8</ele>
        <time>2026-03-20T15:35:37Z</time>
      </trkpt>
      <trkpt lat="48.51169" lon="2.13974">
        <ele>165.8</ele>
        <time>2026-03-20T15:35:38Z</time>
      </trkpt>
      <trkpt lat="48.51169" lon="2.13964">
        <ele>165.8</ele>
        <time>2026-03-20T15:35:39Z</time>
      </trkpt>
      <trkpt lat="48.5117" lon="2.13955">
        <ele>166</ele>
        <time>2026-03-20T15:35:40Z</time>
      </trkpt>
      <trkpt lat="48.51171" lon="2.13945">
        <ele>166</ele>
        <time>2026-03-20T15:35:41Z</time>
      </trkpt>
      <trkpt lat="48.51172" lon="2.13935">
        <ele>166</ele>
        <time>2026-03-20T15:35:42Z</time>
      </trkpt>
      <trkpt lat="48.51173" lon="2.13926">
        <ele>165.6</ele>
        <time>2026-03-20T15:35:43Z</time>
      </trkpt>
      <trkpt lat="48.51175" lon="2.13917">
        <ele>165.4</ele>
        <time>2026-03-20T15:35:44Z</time>
      </trkpt>
      <trkpt lat="48.51177" lon="2.13907">
        <ele>165.4</ele>
        <time>2026-03-20T15:35:45Z</time>
      </trkpt>
      <trkpt lat="48.51179" lon="2.13898">
        <ele>165.4</ele>
        <time>2026-03-20T15:35:46Z</time>
      </trkpt>
      <trkpt lat="48.5118" lon="2.13888">
        <ele>165.4</ele>
        <time>2026-03-20T15:35:47Z</time>
      </trkpt>
      <trkpt lat="48.51182" lon="2.13879">
        <ele>165.2</ele>
        <time>2026-03-20T15:35:48Z</time>
      </trkpt>
      <trkpt lat="48.51183" lon="2.1387">
        <ele>165.2</ele>
        <time>2026-03-20T15:35:49Z</time>
      </trkpt>
      <trkpt lat="48.51185" lon="2.13861">
        <ele>165.2</ele>
        <time>2026-03-20T15:35:50Z</time>
      </trkpt>
      <trkpt lat="48.51187" lon="2.13851">
        <ele>165.2</ele>
        <time>2026-03-20T15:35:51Z</time>
      </trkpt>
      <trkpt lat="48.51188" lon="2.13842">
        <ele>165</ele>
        <time>2026-03-20T15:35:52Z</time>
      </trkpt>
      <trkpt lat="48.5119" lon="2.13833">
        <ele>165</ele>
        <time>2026-03-20T15:35:53Z</time>
      </trkpt>
      <trkpt lat="48.51192" lon="2.13824">
        <ele>165</ele>
        <time>2026-03-20T15:35:54Z</time>
      </trkpt>
      <trkpt lat="48.51193" lon="2.13815">
        <ele>164</ele>
        <time>2026-03-20T15:35:55Z</time>
      </trkpt>
      <trkpt lat="48.51195" lon="2.13807">
        <ele>164</ele>
        <time>2026-03-20T15:35:56Z</time>
      </trkpt>
      <trkpt lat="48.51197" lon="2.13798">
        <ele>164</ele>
        <time>2026-03-20T15:35:57Z</time>
      </trkpt>
      <trkpt lat="48.51199" lon="2.1379">
        <ele>164</ele>
        <time>2026-03-20T15:35:58Z</time>
      </trkpt>
      <trkpt lat="48.51201" lon="2.13781">
        <ele>165</ele>
        <time>2026-03-20T15:35:59Z</time>
      </trkpt>
      <trkpt lat="48.51203" lon="2.13773">
        <ele>165</ele>
        <time>2026-03-20T15:36:00Z</time>
      </trkpt>
      <trkpt lat="48.51204" lon="2.13765">
        <ele>165</ele>
        <time>2026-03-20T15:36:01Z</time>
      </trkpt>
      <trkpt lat="48.51206" lon="2.13756">
        <ele>165</ele>
        <time>2026-03-20T15:36:02Z</time>
      </trkpt>
      <trkpt lat="48.51208" lon="2.13748">
        <ele>165</ele>
        <time>2026-03-20T15:36:03Z</time>
      </trkpt>
      <trkpt lat="48.5121" lon="2.13739">
        <ele>165</ele>
        <time>2026-03-20T15:36:04Z</time>
      </trkpt>
      <trkpt lat="48.51213" lon="2.13731">
        <ele>165</ele>
        <time>2026-03-20T15:36:05Z</time>
      </trkpt>
      <trkpt lat="48.51215" lon="2.13722">
        <ele>165</ele>
        <time>2026-03-20T15:36:06Z</time>
      </trkpt>
      <trkpt lat="48.51217" lon="2.13713">
        <ele>164.2</ele>
        <time>2026-03-20T15:36:07Z</time>
      </trkpt>
      <trkpt lat="48.5122" lon="2.13705">
        <ele>164</ele>
        <time>2026-03-20T15:36:08Z</time>
      </trkpt>
      <trkpt lat="48.51222" lon="2.13696">
        <ele>164</ele>
        <time>2026-03-20T15:36:09Z</time>
      </trkpt>
      <trkpt lat="48.51225" lon="2.13687">
        <ele>164</ele>
        <time>2026-03-20T15:36:10Z</time>
      </trkpt>
      <trkpt lat="48.51227" lon="2.13679">
        <ele>163.4</ele>
        <time>2026-03-20T15:36:11Z</time>
      </trkpt>
      <trkpt lat="48.5123" lon="2.1367">
        <ele>163.2</ele>
        <time>2026-03-20T15:36:12Z</time>
      </trkpt>
      <trkpt lat="48.51232" lon="2.13661">
        <ele>163.2</ele>
        <time>2026-03-20T15:36:13Z</time>
      </trkpt>
      <trkpt lat="48.51234" lon="2.13652">
        <ele>163.2</ele>
        <time>2026-03-20T15:36:14Z</time>
      </trkpt>
      <trkpt lat="48.51236" lon="2.13643">
        <ele>163.2</ele>
        <time>2026-03-20T15:36:15Z</time>
      </trkpt>
      <trkpt lat="48.51238" lon="2.13634">
        <ele>162.4</ele>
        <time>2026-03-20T15:36:16Z</time>
      </trkpt>
      <trkpt lat="48.5124" lon="2.13624">
        <ele>162.4</ele>
        <time>2026-03-20T15:36:17Z</time>
      </trkpt>
      <trkpt lat="48.51242" lon="2.13615">
        <ele>162.4</ele>
        <time>2026-03-20T15:36:18Z</time>
      </trkpt>
      <trkpt lat="48.51244" lon="2.13605">
        <ele>161.4</ele>
        <time>2026-03-20T15:36:19Z</time>
      </trkpt>
      <trkpt lat="48.51245" lon="2.13595">
        <ele>161</ele>
        <time>2026-03-20T15:36:20Z</time>
      </trkpt>
      <trkpt lat="48.51247" lon="2.13585">
        <ele>161</ele>
        <time>2026-03-20T15:36:21Z</time>
      </trkpt>
      <trkpt lat="48.51249" lon="2.13575">
        <ele>161</ele>
        <time>2026-03-20T15:36:22Z</time>
      </trkpt>
      <trkpt lat="48.5125" lon="2.13564">
        <ele>160</ele>
        <time>2026-03-20T15:36:23Z</time>
      </trkpt>
      <trkpt lat="48.51252" lon="2.13552">
        <ele>158.8</ele>
        <time>2026-03-20T15:36:24Z</time>
      </trkpt>
      <trkpt lat="48.51254" lon="2.13539">
        <ele>158.8</ele>
        <time>2026-03-20T15:36:25Z</time>
      </trkpt>
      <trkpt lat="48.51255" lon="2.13527">
        <ele>158.8</ele>
        <time>2026-03-20T15:36:26Z</time>
      </trkpt>
      <trkpt lat="48.51257" lon="2.13514">
        <ele>157.8</ele>
        <time>2026-03-20T15:36:27Z</time>
      </trkpt>
      <trkpt lat="48.5126" lon="2.135">
        <ele>154.6</ele>
        <time>2026-03-20T15:36:28Z</time>
      </trkpt>
      <trkpt lat="48.51264" lon="2.13487">
        <ele>154.6</ele>
        <time>2026-03-20T15:36:29Z</time>
      </trkpt>
      <trkpt lat="48.51269" lon="2.13474">
        <ele>154.6</ele>
        <time>2026-03-20T15:36:30Z</time>
      </trkpt>
      <trkpt lat="48.51276" lon="2.13462">
        <ele>153.6</ele>
        <time>2026-03-20T15:36:31Z</time>
      </trkpt>
      <trkpt lat="48.51283" lon="2.13452">
        <ele>150.2</ele>
        <time>2026-03-20T15:36:32Z</time>
      </trkpt>
      <trkpt lat="48.51291" lon="2.13441">
        <ele>150.2</ele>
        <time>2026-03-20T15:36:33Z</time>
      </trkpt>
      <trkpt lat="48.51299" lon="2.13431">
        <ele>150.2</ele>
        <time>2026-03-20T15:36:34Z</time>
      </trkpt>
      <trkpt lat="48.51307" lon="2.1342">
        <ele>149.2</ele>
        <time>2026-03-20T15:36:35Z</time>
      </trkpt>
      <trkpt lat="48.51316" lon="2.13408">
        <ele>145.8</ele>
        <time>2026-03-20T15:36:36Z</time>
      </trkpt>
      <trkpt lat="48.51323" lon="2.13395">
        <ele>145.8</ele>
        <time>2026-03-20T15:36:37Z</time>
      </trkpt>
      <trkpt lat="48.51328" lon="2.13381">
        <ele>145.8</ele>
        <time>2026-03-20T15:36:38Z</time>
      </trkpt>
      <trkpt lat="48.51331" lon="2.13366">
        <ele>144.8</ele>
        <time>2026-03-20T15:36:39Z</time>
      </trkpt>
      <trkpt lat="48.51332" lon="2.13351">
        <ele>142.4</ele>
        <time>2026-03-20T15:36:40Z</time>
      </trkpt>
      <trkpt lat="48.51331" lon="2.13335">
        <ele>142.4</ele>
        <time>2026-03-20T15:36:41Z</time>
      </trkpt>
      <trkpt lat="48.51329" lon="2.13318">
        <ele>142.4</ele>
        <time>2026-03-20T15:36:42Z</time>
      </trkpt>
      <trkpt lat="48.51327" lon="2.13301">
        <ele>141.4</ele>
        <time>2026-03-20T15:36:43Z</time>
      </trkpt>
      <trkpt lat="48.51323" lon="2.13284">
        <ele>137</ele>
        <time>2026-03-20T15:36:44Z</time>
      </trkpt>
      <trkpt lat="48.51319" lon="2.13267">
        <ele>137</ele>
        <time>2026-03-20T15:36:45Z</time>
      </trkpt>
      <trkpt lat="48.51314" lon="2.13251">
        <ele>137</ele>
        <time>2026-03-20T15:36:46Z</time>
      </trkpt>
      <trkpt lat="48.51308" lon="2.13236">
        <ele>136</ele>
        <time>2026-03-20T15:36:47Z</time>
      </trkpt>
      <trkpt lat="48.51302" lon="2.1322">
        <ele>132.8</ele>
        <time>2026-03-20T15:36:48Z</time>
      </trkpt>
      <trkpt lat="48.51296" lon="2.13205">
        <ele>132.8</ele>
        <time>2026-03-20T15:36:49Z</time>
      </trkpt>
      <trkpt lat="48.5129" lon="2.13189">
        <ele>132.8</ele>
        <time>2026-03-20T15:36:50Z</time>
      </trkpt>
      <trkpt lat="48.51283" lon="2.13172">
        <ele>131.8</ele>
        <time>2026-03-20T15:36:51Z</time>
      </trkpt>
      <trkpt lat="48.51277" lon="2.13156">
        <ele>129.2</ele>
        <time>2026-03-20T15:36:52Z</time>
      </trkpt>
      <trkpt lat="48.51273" lon="2.13139">
        <ele>129.2</ele>
        <time>2026-03-20T15:36:53Z</time>
      </trkpt>
      <trkpt lat="48.51269" lon="2.13123">
        <ele>129.2</ele>
        <time>2026-03-20T15:36:54Z</time>
      </trkpt>
      <trkpt lat="48.51268" lon="2.13106">
        <ele>128.2</ele>
        <time>2026-03-20T15:36:55Z</time>
      </trkpt>
      <trkpt lat="48.51268" lon="2.1309">
        <ele>126.4</ele>
        <time>2026-03-20T15:36:56Z</time>
      </trkpt>
      <trkpt lat="48.51271" lon="2.13074">
        <ele>126.4</ele>
        <time>2026-03-20T15:36:57Z</time>
      </trkpt>
      <trkpt lat="48.51275" lon="2.13059">
        <ele>126.4</ele>
        <time>2026-03-20T15:36:58Z</time>
      </trkpt>
      <trkpt lat="48.5128" lon="2.13044">
        <ele>125.4</ele>
        <time>2026-03-20T15:36:59Z</time>
      </trkpt>
      <trkpt lat="48.51286" lon="2.13029">
        <ele>121.2</ele>
        <time>2026-03-20T15:37:00Z</time>
      </trkpt>
      <trkpt lat="48.51294" lon="2.13016">
        <ele>121.2</ele>
        <time>2026-03-20T15:37:01Z</time>
      </trkpt>
      <trkpt lat="48.51301" lon="2.13002">
        <ele>121.2</ele>
        <time>2026-03-20T15:37:02Z</time>
      </trkpt>
      <trkpt lat="48.5131" lon="2.12989">
        <ele>121.2</ele>
        <time>2026-03-20T15:37:03Z</time>
      </trkpt>
      <trkpt lat="48.51318" lon="2.12977">
        <ele>118.2</ele>
        <time>2026-03-20T15:37:04Z</time>
      </trkpt>
      <trkpt lat="48.51326" lon="2.12964">
        <ele>118.2</ele>
        <time>2026-03-20T15:37:05Z</time>
      </trkpt>
      <trkpt lat="48.51334" lon="2.12952">
        <ele>118.2</ele>
        <time>2026-03-20T15:37:06Z</time>
      </trkpt>
      <trkpt lat="48.51341" lon="2.1294">
        <ele>118.2</ele>
        <time>2026-03-20T15:37:07Z</time>
      </trkpt>
      <trkpt lat="48.51348" lon="2.12929">
        <ele>118.4</ele>
        <time>2026-03-20T15:37:08Z</time>
      </trkpt>
      <trkpt lat="48.51354" lon="2.12919">
        <ele>118.4</ele>
        <time>2026-03-20T15:37:09Z</time>
      </trkpt>
      <trkpt lat="48.51359" lon="2.12908">
        <ele>118.4</ele>
        <time>2026-03-20T15:37:10Z</time>
      </trkpt>
      <trkpt lat="48.51364" lon="2.12897">
        <ele>118.4</ele>
        <time>2026-03-20T15:37:11Z</time>
      </trkpt>
      <trkpt lat="48.51368" lon="2.12884">
        <ele>115.8</ele>
        <time>2026-03-20T15:37:12Z</time>
      </trkpt>
      <trkpt lat="48.51371" lon="2.12871">
        <ele>115.8</ele>
        <time>2026-03-20T15:37:13Z</time>
      </trkpt>
      <trkpt lat="48.51372" lon="2.12857">
        <ele>115.8</ele>
        <time>2026-03-20T15:37:14Z</time>
      </trkpt>
      <trkpt lat="48.51373" lon="2.12842">
        <ele>115.8</ele>
        <time>2026-03-20T15:37:15Z</time>
      </trkpt>
      <trkpt lat="48.51372" lon="2.12828">
        <ele>111.8</ele>
        <time>2026-03-20T15:37:16Z</time>
      </trkpt>
      <trkpt lat="48.51372" lon="2.12813">
        <ele>111.8</ele>
        <time>2026-03-20T15:37:17Z</time>
      </trkpt>
      <trkpt lat="48.51371" lon="2.12798">
        <ele>111.8</ele>
        <time>2026-03-20T15:37:18Z</time>
      </trkpt>
      <trkpt lat="48.51371" lon="2.12782">
        <ele>110.8</ele>
        <time>2026-03-20T15:37:19Z</time>
      </trkpt>
      <trkpt lat="48.5137" lon="2.12766">
        <ele>108.8</ele>
        <time>2026-03-20T15:37:20Z</time>
      </trkpt>
      <trkpt lat="48.51369" lon="2.12751">
        <ele>108.8</ele>
        <time>2026-03-20T15:37:21Z</time>
      </trkpt>
      <trkpt lat="48.51368" lon="2.12737">
        <ele>108.8</ele>
        <time>2026-03-20T15:37:22Z</time>
      </trkpt>
      <trkpt lat="48.51367" lon="2.12726">
        <ele>109.4</ele>
        <time>2026-03-20T15:37:23Z</time>
      </trkpt>
      <trkpt lat="48.51366" lon="2.12715">
        <ele>109</ele>
        <time>2026-03-20T15:37:24Z</time>
      </trkpt>
      <trkpt lat="48.51365" lon="2.12704">
        <ele>109</ele>
        <time>2026-03-20T15:37:25Z</time>
      </trkpt>
      <trkpt lat="48.51364" lon="2.12693">
        <ele>109</ele>
        <time>2026-03-20T15:37:26Z</time>
      </trkpt>
      <trkpt lat="48.51363" lon="2.12681">
        <ele>109</ele>
        <time>2026-03-20T15:37:27Z</time>
      </trkpt>
      <trkpt lat="48.51363" lon="2.12668">
        <ele>106.6</ele>
        <time>2026-03-20T15:37:28Z</time>
      </trkpt>
      <trkpt lat="48.51362" lon="2.12656">
        <ele>106.6</ele>
        <time>2026-03-20T15:37:29Z</time>
      </trkpt>
      <trkpt lat="48.51362" lon="2.12643">
        <ele>106.6</ele>
        <time>2026-03-20T15:37:30Z</time>
      </trkpt>
      <trkpt lat="48.51361" lon="2.1263">
        <ele>105.6</ele>
        <time>2026-03-20T15:37:31Z</time>
      </trkpt>
      <trkpt lat="48.5136" lon="2.12617">
        <ele>104.8</ele>
        <time>2026-03-20T15:37:32Z</time>
      </trkpt>
      <trkpt lat="48.5136" lon="2.12603">
        <ele>104.8</ele>
        <time>2026-03-20T15:37:33Z</time>
      </trkpt>
      <trkpt lat="48.51359" lon="2.1259">
        <ele>104.8</ele>
        <time>2026-03-20T15:37:34Z</time>
      </trkpt>
      <trkpt lat="48.51358" lon="2.12576">
        <ele>103.8</ele>
        <time>2026-03-20T15:37:35Z</time>
      </trkpt>
      <trkpt lat="48.51361" lon="2.12565">
        <ele>102.6</ele>
        <time>2026-03-20T15:37:36Z</time>
      </trkpt>
      <trkpt lat="48.51365" lon="2.12553">
        <ele>102.6</ele>
        <time>2026-03-20T15:37:37Z</time>
      </trkpt>
      <trkpt lat="48.51371" lon="2.12544">
        <ele>102.6</ele>
        <time>2026-03-20T15:37:38Z</time>
      </trkpt>
      <trkpt lat="48.51377" lon="2.12536">
        <ele>102.6</ele>
        <time>2026-03-20T15:37:39Z</time>
      </trkpt>
      <trkpt lat="48.51383" lon="2.12528">
        <ele>101</ele>
        <time>2026-03-20T15:37:40Z</time>
      </trkpt>
      <trkpt lat="48.51389" lon="2.12519">
        <ele>101</ele>
        <time>2026-03-20T15:37:41Z</time>
      </trkpt>
      <trkpt lat="48.51396" lon="2.1251">
        <ele>101</ele>
        <time>2026-03-20T15:37:42Z</time>
      </trkpt>
      <trkpt lat="48.51402" lon="2.12501">
        <ele>101</ele>
        <time>2026-03-20T15:37:43Z</time>
      </trkpt>
      <trkpt lat="48.51407" lon="2.12493">
        <ele>101.8</ele>
        <time>2026-03-20T15:37:44Z</time>
      </trkpt>
      <trkpt lat="48.51412" lon="2.12483">
        <ele>101.8</ele>
        <time>2026-03-20T15:37:45Z</time>
      </trkpt>
      <trkpt lat="48.51416" lon="2.12473">
        <ele>101.8</ele>
        <time>2026-03-20T15:37:46Z</time>
      </trkpt>
      <trkpt lat="48.51419" lon="2.12462">
        <ele>101.4</ele>
        <time>2026-03-20T15:37:47Z</time>
      </trkpt>
      <trkpt lat="48.51421" lon="2.12451">
        <ele>101.2</ele>
        <time>2026-03-20T15:37:48Z</time>
      </trkpt>
      <trkpt lat="48.51422" lon="2.12439">
        <ele>101.2</ele>
        <time>2026-03-20T15:37:49Z</time>
      </trkpt>
      <trkpt lat="48.51423" lon="2.12428">
        <ele>101.2</ele>
        <time>2026-03-20T15:37:50Z</time>
      </trkpt>
      <trkpt lat="48.51425" lon="2.12417">
        <ele>101.2</ele>
        <time>2026-03-20T15:37:51Z</time>
      </trkpt>
      <trkpt lat="48.51426" lon="2.12407">
        <ele>102</ele>
        <time>2026-03-20T15:37:52Z</time>
      </trkpt>
      <trkpt lat="48.51427" lon="2.12398">
        <ele>102</ele>
        <time>2026-03-20T15:37:53Z</time>
      </trkpt>
      <trkpt lat="48.51428" lon="2.12388">
        <ele>102</ele>
        <time>2026-03-20T15:37:54Z</time>
      </trkpt>
      <trkpt lat="48.51429" lon="2.12379">
        <ele>103</ele>
        <time>2026-03-20T15:37:55Z</time>
      </trkpt>
      <trkpt lat="48.5143" lon="2.1237">
        <ele>103</ele>
        <time>2026-03-20T15:37:56Z</time>
      </trkpt>
      <trkpt lat="48.51431" lon="2.1236">
        <ele>103</ele>
        <time>2026-03-20T15:37:57Z</time>
      </trkpt>
      <trkpt lat="48.51431" lon="2.12352">
        <ele>103</ele>
        <time>2026-03-20T15:37:58Z</time>
      </trkpt>
      <trkpt lat="48.51432" lon="2.12343">
        <ele>103</ele>
        <time>2026-03-20T15:37:59Z</time>
      </trkpt>
      <trkpt lat="48.51433" lon="2.12335">
        <ele>102.8</ele>
        <time>2026-03-20T15:38:00Z</time>
      </trkpt>
      <trkpt lat="48.51433" lon="2.12328">
        <ele>102.8</ele>
        <time>2026-03-20T15:38:01Z</time>
      </trkpt>
      <trkpt lat="48.51432" lon="2.1232">
        <ele>102.8</ele>
        <time>2026-03-20T15:38:02Z</time>
      </trkpt>
      <trkpt lat="48.51429" lon="2.12313">
        <ele>103.8</ele>
        <time>2026-03-20T15:38:03Z</time>
      </trkpt>
      <trkpt lat="48.51427" lon="2.12307">
        <ele>104.4</ele>
        <time>2026-03-20T15:38:04Z</time>
      </trkpt>
      <trkpt lat="48.51424" lon="2.12301">
        <ele>104.4</ele>
        <time>2026-03-20T15:38:05Z</time>
      </trkpt>
      <trkpt lat="48.51421" lon="2.12296">
        <ele>104.4</ele>
        <time>2026-03-20T15:38:06Z</time>
      </trkpt>
      <trkpt lat="48.51419" lon="2.12291">
        <ele>104.4</ele>
        <time>2026-03-20T15:38:07Z</time>
      </trkpt>
      <trkpt lat="48.51416" lon="2.12285">
        <ele>104.6</ele>
        <time>2026-03-20T15:38:08Z</time>
      </trkpt>
      <trkpt lat="48.51413" lon="2.12279">
        <ele>104.6</ele>
        <time>2026-03-20T15:38:09Z</time>
      </trkpt>
      <trkpt lat="48.5141" lon="2.12273">
        <ele>104.6</ele>
        <time>2026-03-20T15:38:10Z</time>
      </trkpt>
      <trkpt lat="48.51408" lon="2.12267">
        <ele>104</ele>
        <time>2026-03-20T15:38:11Z</time>
      </trkpt>
      <trkpt lat="48.51404" lon="2.12261">
        <ele>104</ele>
        <time>2026-03-20T15:38:12Z</time>
      </trkpt>
      <trkpt lat="48.51401" lon="2.12254">
        <ele>104</ele>
        <time>2026-03-20T15:38:13Z</time>
      </trkpt>
      <trkpt lat="48.51398" lon="2.12248">
        <ele>104</ele>
        <time>2026-03-20T15:38:14Z</time>
      </trkpt>
      <trkpt lat="48.51395" lon="2.12241">
        <ele>104.2</ele>
        <time>2026-03-20T15:38:15Z</time>
      </trkpt>
      <trkpt lat="48.51392" lon="2.12234">
        <ele>104.2</ele>
        <time>2026-03-20T15:38:16Z</time>
      </trkpt>
      <trkpt lat="48.51388" lon="2.12227">
        <ele>104.2</ele>
        <time>2026-03-20T15:38:17Z</time>
      </trkpt>
      <trkpt lat="48.51386" lon="2.1222">
        <ele>104.2</ele>
        <time>2026-03-20T15:38:18Z</time>
      </trkpt>
      <trkpt lat="48.51383" lon="2.12213">
        <ele>104.2</ele>
        <time>2026-03-20T15:38:19Z</time>
      </trkpt>
      <trkpt lat="48.51381" lon="2.12206">
        <ele>104.2</ele>
        <time>2026-03-20T15:38:20Z</time>
      </trkpt>
      <trkpt lat="48.51379" lon="2.12199">
        <ele>104.2</ele>
        <time>2026-03-20T15:38:21Z</time>
      </trkpt>
      <trkpt lat="48.51377" lon="2.12192">
        <ele>104.2</ele>
        <time>2026-03-20T15:38:22Z</time>
      </trkpt>
      <trkpt lat="48.51375" lon="2.12185">
        <ele>104.2</ele>
        <time>2026-03-20T15:38:23Z</time>
      </trkpt>
      <trkpt lat="48.51374" lon="2.12178">
        <ele>104.4</ele>
        <time>2026-03-20T15:38:24Z</time>
      </trkpt>
      <trkpt lat="48.51372" lon="2.12171">
        <ele>104.4</ele>
        <time>2026-03-20T15:38:25Z</time>
      </trkpt>
      <trkpt lat="48.51371" lon="2.12164">
        <ele>104.4</ele>
        <time>2026-03-20T15:38:26Z</time>
      </trkpt>
      <trkpt lat="48.51368" lon="2.12156">
        <ele>104.8</ele>
        <time>2026-03-20T15:38:27Z</time>
      </trkpt>
      <trkpt lat="48.51366" lon="2.12149">
        <ele>105.2</ele>
        <time>2026-03-20T15:38:28Z</time>
      </trkpt>
      <trkpt lat="48.51365" lon="2.12142">
        <ele>105.2</ele>
        <time>2026-03-20T15:38:29Z</time>
      </trkpt>
      <trkpt lat="48.51363" lon="2.12135">
        <ele>105.2</ele>
        <time>2026-03-20T15:38:30Z</time>
      </trkpt>
      <trkpt lat="48.51362" lon="2.12128">
        <ele>106.2</ele>
        <time>2026-03-20T15:38:31Z</time>
      </trkpt>
      <trkpt lat="48.5136" lon="2.12122">
        <ele>106.2</ele>
        <time>2026-03-20T15:38:32Z</time>
      </trkpt>
      <trkpt lat="48.51359" lon="2.12116">
        <ele>106.2</ele>
        <time>2026-03-20T15:38:33Z</time>
      </trkpt>
      <trkpt lat="48.51357" lon="2.1211">
        <ele>106.2</ele>
        <time>2026-03-20T15:38:34Z</time>
      </trkpt>
      <trkpt lat="48.51355" lon="2.12104">
        <ele>107</ele>
        <time>2026-03-20T15:38:35Z</time>
      </trkpt>
      <trkpt lat="48.51354" lon="2.12099">
        <ele>107</ele>
        <time>2026-03-20T15:38:36Z</time>
      </trkpt>
      <trkpt lat="48.51353" lon="2.12094">
        <ele>107</ele>
        <time>2026-03-20T15:38:37Z</time>
      </trkpt>
      <trkpt lat="48.51352" lon="2.12089">
        <ele>107</ele>
        <time>2026-03-20T15:38:38Z</time>
      </trkpt>
      <trkpt lat="48.51351" lon="2.12084">
        <ele>107.8</ele>
        <time>2026-03-20T15:38:39Z</time>
      </trkpt>
      <trkpt lat="48.51349" lon="2.12079">
        <ele>107.8</ele>
        <time>2026-03-20T15:38:40Z</time>
      </trkpt>
      <trkpt lat="48.51348" lon="2.12073">
        <ele>107.8</ele>
        <time>2026-03-20T15:38:41Z</time>
      </trkpt>
      <trkpt lat="48.51347" lon="2.12068">
        <ele>107.8</ele>
        <time>2026-03-20T15:38:42Z</time>
      </trkpt>
      <trkpt lat="48.51346" lon="2.12063">
        <ele>108.2</ele>
        <time>2026-03-20T15:38:43Z</time>
      </trkpt>
      <trkpt lat="48.51344" lon="2.12057">
        <ele>108.8</ele>
        <time>2026-03-20T15:38:44Z</time>
      </trkpt>
      <trkpt lat="48.51343" lon="2.12052">
        <ele>108.8</ele>
        <time>2026-03-20T15:38:45Z</time>
      </trkpt>
      <trkpt lat="48.51342" lon="2.12047">
        <ele>108.8</ele>
        <time>2026-03-20T15:38:46Z</time>
      </trkpt>
      <trkpt lat="48.5134" lon="2.12042">
        <ele>108.8</ele>
        <time>2026-03-20T15:38:47Z</time>
      </trkpt>
      <trkpt lat="48.5134" lon="2.12037">
        <ele>109.6</ele>
        <time>2026-03-20T15:38:48Z</time>
      </trkpt>
      <trkpt lat="48.51338" lon="2.12032">
        <ele>109.6</ele>
        <time>2026-03-20T15:38:49Z</time>
      </trkpt>
      <trkpt lat="48.51338" lon="2.12026">
        <ele>109.6</ele>
        <time>2026-03-20T15:38:50Z</time>
      </trkpt>
      <trkpt lat="48.51337" lon="2.12022">
        <ele>110.2</ele>
        <time>2026-03-20T15:38:51Z</time>
      </trkpt>
      <trkpt lat="48.51336" lon="2.12017">
        <ele>110.4</ele>
        <time>2026-03-20T15:38:52Z</time>
      </trkpt>
      <trkpt lat="48.51334" lon="2.12012">
        <ele>110.4</ele>
        <time>2026-03-20T15:38:53Z</time>
      </trkpt>
      <trkpt lat="48.51333" lon="2.12008">
        <ele>110.4</ele>
        <time>2026-03-20T15:38:54Z</time>
      </trkpt>
      <trkpt lat="48.51332" lon="2.12003">
        <ele>110.8</ele>
        <time>2026-03-20T15:38:55Z</time>
      </trkpt>
      <trkpt lat="48.51331" lon="2.11999">
        <ele>111.2</ele>
        <time>2026-03-20T15:38:56Z</time>
      </trkpt>
      <trkpt lat="48.5133" lon="2.11994">
        <ele>111.2</ele>
        <time>2026-03-20T15:38:57Z</time>
      </trkpt>
      <trkpt lat="48.51329" lon="2.11991">
        <ele>111.2</ele>
        <time>2026-03-20T15:38:58Z</time>
      </trkpt>
      <trkpt lat="48.51328" lon="2.11987">
        <ele>111.8</ele>
        <time>2026-03-20T15:38:59Z</time>
      </trkpt>
      <trkpt lat="48.51327" lon="2.11984">
        <ele>111.8</ele>
        <time>2026-03-20T15:39:00Z</time>
      </trkpt>
      <trkpt lat="48.51326" lon="2.1198">
        <ele>111.8</ele>
        <time>2026-03-20T15:39:01Z</time>
      </trkpt>
      <trkpt lat="48.51325" lon="2.11977">
        <ele>111.8</ele>
        <time>2026-03-20T15:39:02Z</time>
      </trkpt>
      <trkpt lat="48.51324" lon="2.11973">
        <ele>112.6</ele>
        <time>2026-03-20T15:39:03Z</time>
      </trkpt>
      <trkpt lat="48.51323" lon="2.1197">
        <ele>112.6</ele>
        <time>2026-03-20T15:39:04Z</time>
      </trkpt>
      <trkpt lat="48.51322" lon="2.11966">
        <ele>112.6</ele>
        <time>2026-03-20T15:39:05Z</time>
      </trkpt>
      <trkpt lat="48.51321" lon="2.11962">
        <ele>112.6</ele>
        <time>2026-03-20T15:39:06Z</time>
      </trkpt>
      <trkpt lat="48.5132" lon="2.11958">
        <ele>113.2</ele>
        <time>2026-03-20T15:39:07Z</time>
      </trkpt>
      <trkpt lat="48.5132" lon="2.11954">
        <ele>113.4</ele>
        <time>2026-03-20T15:39:08Z</time>
      </trkpt>
      <trkpt lat="48.51319" lon="2.1195">
        <ele>113.4</ele>
        <time>2026-03-20T15:39:09Z</time>
      </trkpt>
      <trkpt lat="48.51318" lon="2.11946">
        <ele>113.4</ele>
        <time>2026-03-20T15:39:10Z</time>
      </trkpt>
      <trkpt lat="48.51317" lon="2.11942">
        <ele>113.8</ele>
        <time>2026-03-20T15:39:11Z</time>
      </trkpt>
      <trkpt lat="48.51316" lon="2.11938">
        <ele>114</ele>
        <time>2026-03-20T15:39:12Z</time>
      </trkpt>
      <trkpt lat="48.51315" lon="2.11934">
        <ele>114</ele>
        <time>2026-03-20T15:39:13Z</time>
      </trkpt>
      <trkpt lat="48.51314" lon="2.1193">
        <ele>114</ele>
        <time>2026-03-20T15:39:14Z</time>
      </trkpt>
      <trkpt lat="48.51314" lon="2.11926">
        <ele>114</ele>
        <time>2026-03-20T15:39:15Z</time>
      </trkpt>
      <trkpt lat="48.51313" lon="2.11922">
        <ele>114.6</ele>
        <time>2026-03-20T15:39:16Z</time>
      </trkpt>
      <trkpt lat="48.51312" lon="2.11918">
        <ele>114.6</ele>
        <time>2026-03-20T15:39:17Z</time>
      </trkpt>
      <trkpt lat="48.51311" lon="2.11914">
        <ele>114.6</ele>
        <time>2026-03-20T15:39:18Z</time>
      </trkpt>
      <trkpt lat="48.5131" lon="2.1191">
        <ele>114.6</ele>
        <time>2026-03-20T15:39:19Z</time>
      </trkpt>
      <trkpt lat="48.51309" lon="2.11905">
        <ele>114.8</ele>
        <time>2026-03-20T15:39:20Z</time>
      </trkpt>
      <trkpt lat="48.51308" lon="2.11901">
        <ele>114.8</ele>
        <time>2026-03-20T15:39:21Z</time>
      </trkpt>
      <trkpt lat="48.51307" lon="2.11897">
        <ele>114.8</ele>
        <time>2026-03-20T15:39:22Z</time>
      </trkpt>
      <trkpt lat="48.51307" lon="2.11893">
        <ele>115.6</ele>
        <time>2026-03-20T15:39:23Z</time>
      </trkpt>
      <trkpt lat="48.51307" lon="2.11889">
        <ele>116</ele>
        <time>2026-03-20T15:39:24Z</time>
      </trkpt>
      <trkpt lat="48.51306" lon="2.11885">
        <ele>116</ele>
        <time>2026-03-20T15:39:25Z</time>
      </trkpt>
      <trkpt lat="48.51306" lon="2.11881">
        <ele>116</ele>
        <time>2026-03-20T15:39:26Z</time>
      </trkpt>
      <trkpt lat="48.51307" lon="2.11877">
        <ele>116</ele>
        <time>2026-03-20T15:39:27Z</time>
      </trkpt>
      <trkpt lat="48.51306" lon="2.11873">
        <ele>116.4</ele>
        <time>2026-03-20T15:39:28Z</time>
      </trkpt>
      <trkpt lat="48.51306" lon="2.11869">
        <ele>116.4</ele>
        <time>2026-03-20T15:39:29Z</time>
      </trkpt>
      <trkpt lat="48.51306" lon="2.11865">
        <ele>116.4</ele>
        <time>2026-03-20T15:39:30Z</time>
      </trkpt>
      <trkpt lat="48.51306" lon="2.11861">
        <ele>116.4</ele>
        <time>2026-03-20T15:39:31Z</time>
      </trkpt>
      <trkpt lat="48.51305" lon="2.11857">
        <ele>117</ele>
        <time>2026-03-20T15:39:32Z</time>
      </trkpt>
      <trkpt lat="48.51305" lon="2.11852">
        <ele>117</ele>
        <time>2026-03-20T15:39:33Z</time>
      </trkpt>
      <trkpt lat="48.51305" lon="2.11848">
        <ele>117</ele>
        <time>2026-03-20T15:39:34Z</time>
      </trkpt>
      <trkpt lat="48.51305" lon="2.11844">
        <ele>118</ele>
        <time>2026-03-20T15:39:35Z</time>
      </trkpt>
      <trkpt lat="48.51305" lon="2.11839">
        <ele>118.2</ele>
        <time>2026-03-20T15:39:36Z</time>
      </trkpt>
      <trkpt lat="48.51306" lon="2.11835">
        <ele>118.2</ele>
        <time>2026-03-20T15:39:37Z</time>
      </trkpt>
      <trkpt lat="48.51306" lon="2.1183">
        <ele>118.2</ele>
        <time>2026-03-20T15:39:38Z</time>
      </trkpt>
      <trkpt lat="48.51306" lon="2.11826">
        <ele>118.2</ele>
        <time>2026-03-20T15:39:39Z</time>
      </trkpt>
      <trkpt lat="48.51306" lon="2.11821">
        <ele>119</ele>
        <time>2026-03-20T15:39:40Z</time>
      </trkpt>
      <trkpt lat="48.51307" lon="2.11817">
        <ele>119</ele>
        <time>2026-03-20T15:39:41Z</time>
      </trkpt>
      <trkpt lat="48.51308" lon="2.11812">
        <ele>119</ele>
        <time>2026-03-20T15:39:42Z</time>
      </trkpt>
      <trkpt lat="48.51309" lon="2.11808">
        <ele>119.6</ele>
        <time>2026-03-20T15:39:43Z</time>
      </trkpt>
      <trkpt lat="48.5131" lon="2.11804">
        <ele>119.6</ele>
        <time>2026-03-20T15:39:44Z</time>
      </trkpt>
      <trkpt lat="48.51311" lon="2.11799">
        <ele>119.6</ele>
        <time>2026-03-20T15:39:45Z</time>
      </trkpt>
      <trkpt lat="48.51312" lon="2.11795">
        <ele>119.6</ele>
        <time>2026-03-20T15:39:46Z</time>
      </trkpt>
      <trkpt lat="48.51313" lon="2.11791">
        <ele>120.6</ele>
        <time>2026-03-20T15:39:47Z</time>
      </trkpt>
      <trkpt lat="48.51314" lon="2.11787">
        <ele>120.8</ele>
        <time>2026-03-20T15:39:48Z</time>
      </trkpt>
      <trkpt lat="48.51315" lon="2.11783">
        <ele>120.8</ele>
        <time>2026-03-20T15:39:49Z</time>
      </trkpt>
      <trkpt lat="48.51316" lon="2.11778">
        <ele>120.8</ele>
        <time>2026-03-20T15:39:50Z</time>
      </trkpt>
      <trkpt lat="48.51316" lon="2.11774">
        <ele>120.8</ele>
        <time>2026-03-20T15:39:51Z</time>
      </trkpt>
      <trkpt lat="48.51317" lon="2.1177">
        <ele>121.6</ele>
        <time>2026-03-20T15:39:52Z</time>
      </trkpt>
      <trkpt lat="48.51318" lon="2.11765">
        <ele>121.6</ele>
        <time>2026-03-20T15:39:53Z</time>
      </trkpt>
      <trkpt lat="48.51319" lon="2.11761">
        <ele>121.6</ele>
        <time>2026-03-20T15:39:54Z</time>
      </trkpt>
      <trkpt lat="48.5132" lon="2.11757">
        <ele>121.6</ele>
        <time>2026-03-20T15:39:55Z</time>
      </trkpt>
      <trkpt lat="48.5132" lon="2.11753">
        <ele>122</ele>
        <time>2026-03-20T15:39:56Z</time>
      </trkpt>
      <trkpt lat="48.51321" lon="2.11749">
        <ele>122</ele>
        <time>2026-03-20T15:39:57Z</time>
      </trkpt>
      <trkpt lat="48.51321" lon="2.11744">
        <ele>122</ele>
        <time>2026-03-20T15:39:58Z</time>
      </trkpt>
      <trkpt lat="48.51321" lon="2.1174">
        <ele>122</ele>
        <time>2026-03-20T15:39:59Z</time>
      </trkpt>
      <trkpt lat="48.51322" lon="2.11736">
        <ele>122.6</ele>
        <time>2026-03-20T15:40:00Z</time>
      </trkpt>
      <trkpt lat="48.51322" lon="2.11732">
        <ele>122.6</ele>
        <time>2026-03-20T15:40:01Z</time>
      </trkpt>
      <trkpt lat="48.51322" lon="2.11728">
        <ele>122.6</ele>
        <time>2026-03-20T15:40:02Z</time>
      </trkpt>
      <trkpt lat="48.51322" lon="2.11724">
        <ele>122.6</ele>
        <time>2026-03-20T15:40:03Z</time>
      </trkpt>
      <trkpt lat="48.51321" lon="2.1172">
        <ele>123</ele>
        <time>2026-03-20T15:40:04Z</time>
      </trkpt>
      <trkpt lat="48.51321" lon="2.11716">
        <ele>123</ele>
        <time>2026-03-20T15:40:05Z</time>
      </trkpt>
      <trkpt lat="48.51321" lon="2.11712">
        <ele>123</ele>
        <time>2026-03-20T15:40:06Z</time>
      </trkpt>
      <trkpt lat="48.51321" lon="2.11707">
        <ele>123.4</ele>
        <time>2026-03-20T15:40:07Z</time>
      </trkpt>
      <trkpt lat="48.51321" lon="2.11703">
        <ele>123.8</ele>
        <time>2026-03-20T15:40:08Z</time>
      </trkpt>
      <trkpt lat="48.51321" lon="2.11699">
        <ele>123.8</ele>
        <time>2026-03-20T15:40:09Z</time>
      </trkpt>
      <trkpt lat="48.51321" lon="2.11695">
        <ele>123.8</ele>
        <time>2026-03-20T15:40:10Z</time>
      </trkpt>
      <trkpt lat="48.51321" lon="2.1169">
        <ele>123.8</ele>
        <time>2026-03-20T15:40:11Z</time>
      </trkpt>
      <trkpt lat="48.51321" lon="2.11686">
        <ele>124.8</ele>
        <time>2026-03-20T15:40:12Z</time>
      </trkpt>
      <trkpt lat="48.5132" lon="2.11682">
        <ele>124.8</ele>
        <time>2026-03-20T15:40:13Z</time>
      </trkpt>
      <trkpt lat="48.5132" lon="2.11677">
        <ele>124.8</ele>
        <time>2026-03-20T15:40:14Z</time>
      </trkpt>
      <trkpt lat="48.51319" lon="2.11673">
        <ele>124.8</ele>
        <time>2026-03-20T15:40:15Z</time>
      </trkpt>
      <trkpt lat="48.51319" lon="2.11669">
        <ele>124.8</ele>
        <time>2026-03-20T15:40:16Z</time>
      </trkpt>
      <trkpt lat="48.51318" lon="2.11664">
        <ele>124.8</ele>
        <time>2026-03-20T15:40:17Z</time>
      </trkpt>
      <trkpt lat="48.51317" lon="2.1166">
        <ele>124.8</ele>
        <time>2026-03-20T15:40:18Z</time>
      </trkpt>
      <trkpt lat="48.51316" lon="2.11655">
        <ele>124.8</ele>
        <time>2026-03-20T15:40:19Z</time>
      </trkpt>
      <trkpt lat="48.51315" lon="2.11651">
        <ele>125.6</ele>
        <time>2026-03-20T15:40:20Z</time>
      </trkpt>
      <trkpt lat="48.51314" lon="2.11647">
        <ele>125.6</ele>
        <time>2026-03-20T15:40:21Z</time>
      </trkpt>
      <trkpt lat="48.51313" lon="2.11643">
        <ele>125.6</ele>
        <time>2026-03-20T15:40:22Z</time>
      </trkpt>
      <trkpt lat="48.51312" lon="2.11638">
        <ele>126</ele>
        <time>2026-03-20T15:40:23Z</time>
      </trkpt>
      <trkpt lat="48.51311" lon="2.11634">
        <ele>126.2</ele>
        <time>2026-03-20T15:40:24Z</time>
      </trkpt>
      <trkpt lat="48.5131" lon="2.1163">
        <ele>126.2</ele>
        <time>2026-03-20T15:40:25Z</time>
      </trkpt>
      <trkpt lat="48.5131" lon="2.11626">
        <ele>126.2</ele>
        <time>2026-03-20T15:40:26Z</time>
      </trkpt>
      <trkpt lat="48.51309" lon="2.11621">
        <ele>127</ele>
        <time>2026-03-20T15:40:27Z</time>
      </trkpt>
      <trkpt lat="48.51308" lon="2.11617">
        <ele>127</ele>
        <time>2026-03-20T15:40:28Z</time>
      </trkpt>
      <trkpt lat="48.51306" lon="2.11613">
        <ele>127</ele>
        <time>2026-03-20T15:40:29Z</time>
      </trkpt>
      <trkpt lat="48.51305" lon="2.11608">
        <ele>127</ele>
        <time>2026-03-20T15:40:30Z</time>
      </trkpt>
      <trkpt lat="48.51304" lon="2.11604">
        <ele>127.4</ele>
        <time>2026-03-20T15:40:31Z</time>
      </trkpt>
      <trkpt lat="48.51303" lon="2.116">
        <ele>127.6</ele>
        <time>2026-03-20T15:40:32Z</time>
      </trkpt>
      <trkpt lat="48.51302" lon="2.11595">
        <ele>127.6</ele>
        <time>2026-03-20T15:40:33Z</time>
      </trkpt>
      <trkpt lat="48.513" lon="2.11591">
        <ele>127.6</ele>
        <time>2026-03-20T15:40:34Z</time>
      </trkpt>
      <trkpt lat="48.51299" lon="2.11587">
        <ele>128.2</ele>
        <time>2026-03-20T15:40:35Z</time>
      </trkpt>
      <trkpt lat="48.51298" lon="2.11583">
        <ele>128.4</ele>
        <time>2026-03-20T15:40:36Z</time>
      </trkpt>
      <trkpt lat="48.51297" lon="2.11579">
        <ele>128.4</ele>
        <time>2026-03-20T15:40:37Z</time>
      </trkpt>
      <trkpt lat="48.51296" lon="2.11575">
        <ele>128.4</ele>
        <time>2026-03-20T15:40:38Z</time>
      </trkpt>
      <trkpt lat="48.51295" lon="2.11571">
        <ele>128.8</ele>
        <time>2026-03-20T15:40:39Z</time>
      </trkpt>
      <trkpt lat="48.51294" lon="2.11567">
        <ele>128.8</ele>
        <time>2026-03-20T15:40:40Z</time>
      </trkpt>
      <trkpt lat="48.51293" lon="2.11563">
        <ele>128.8</ele>
        <time>2026-03-20T15:40:41Z</time>
      </trkpt>
      <trkpt lat="48.51292" lon="2.1156">
        <ele>128.8</ele>
        <time>2026-03-20T15:40:42Z</time>
      </trkpt>
      <trkpt lat="48.5129" lon="2.11556">
        <ele>129.8</ele>
        <time>2026-03-20T15:40:43Z</time>
      </trkpt>
      <trkpt lat="48.51289" lon="2.11552">
        <ele>130</ele>
        <time>2026-03-20T15:40:44Z</time>
      </trkpt>
      <trkpt lat="48.51287" lon="2.11548">
        <ele>130</ele>
        <time>2026-03-20T15:40:45Z</time>
      </trkpt>
      <trkpt lat="48.51286" lon="2.11544">
        <ele>130</ele>
        <time>2026-03-20T15:40:46Z</time>
      </trkpt>
      <trkpt lat="48.51285" lon="2.11541">
        <ele>130</ele>
        <time>2026-03-20T15:40:47Z</time>
      </trkpt>
      <trkpt lat="48.51284" lon="2.11537">
        <ele>130.4</ele>
        <time>2026-03-20T15:40:48Z</time>
      </trkpt>
      <trkpt lat="48.51282" lon="2.11534">
        <ele>130.4</ele>
        <time>2026-03-20T15:40:49Z</time>
      </trkpt>
      <trkpt lat="48.51281" lon="2.1153">
        <ele>130.4</ele>
        <time>2026-03-20T15:40:50Z</time>
      </trkpt>
      <trkpt lat="48.51279" lon="2.11527">
        <ele>131</ele>
        <time>2026-03-20T15:40:51Z</time>
      </trkpt>
      <trkpt lat="48.51278" lon="2.11523">
        <ele>131</ele>
        <time>2026-03-20T15:40:52Z</time>
      </trkpt>
      <trkpt lat="48.51277" lon="2.11519">
        <ele>131</ele>
        <time>2026-03-20T15:40:53Z</time>
      </trkpt>
      <trkpt lat="48.51276" lon="2.11516">
        <ele>131</ele>
        <time>2026-03-20T15:40:54Z</time>
      </trkpt>
      <trkpt lat="48.51274" lon="2.11512">
        <ele>132</ele>
        <time>2026-03-20T15:40:55Z</time>
      </trkpt>
      <trkpt lat="48.51273" lon="2.11508">
        <ele>132.2</ele>
        <time>2026-03-20T15:40:56Z</time>
      </trkpt>
      <trkpt lat="48.51271" lon="2.11504">
        <ele>132.2</ele>
        <time>2026-03-20T15:40:57Z</time>
      </trkpt>
      <trkpt lat="48.5127" lon="2.115">
        <ele>132.2</ele>
        <time>2026-03-20T15:40:58Z</time>
      </trkpt>
      <trkpt lat="48.51268" lon="2.11496">
        <ele>132.2</ele>
        <time>2026-03-20T15:40:59Z</time>
      </trkpt>
      <trkpt lat="48.51266" lon="2.11492">
        <ele>133</ele>
        <time>2026-03-20T15:41:00Z</time>
      </trkpt>
      <trkpt lat="48.51265" lon="2.11489">
        <ele>133</ele>
        <time>2026-03-20T15:41:01Z</time>
      </trkpt>
      <trkpt lat="48.51263" lon="2.11485">
        <ele>133</ele>
        <time>2026-03-20T15:41:02Z</time>
      </trkpt>
      <trkpt lat="48.51261" lon="2.11482">
        <ele>133</ele>
        <time>2026-03-20T15:41:03Z</time>
      </trkpt>
      <trkpt lat="48.5126" lon="2.11478">
        <ele>133</ele>
        <time>2026-03-20T15:41:04Z</time>
      </trkpt>
      <trkpt lat="48.51258" lon="2.11474">
        <ele>133</ele>
        <time>2026-03-20T15:41:05Z</time>
      </trkpt>
      <trkpt lat="48.51257" lon="2.11471">
        <ele>133</ele>
        <time>2026-03-20T15:41:06Z</time>
      </trkpt>
      <trkpt lat="48.51255" lon="2.11467">
        <ele>134</ele>
        <time>2026-03-20T15:41:07Z</time>
      </trkpt>
      <trkpt lat="48.51254" lon="2.11463">
        <ele>134</ele>
        <time>2026-03-20T15:41:08Z</time>
      </trkpt>
      <trkpt lat="48.51253" lon="2.11459">
        <ele>134</ele>
        <time>2026-03-20T15:41:09Z</time>
      </trkpt>
      <trkpt lat="48.51251" lon="2.11456">
        <ele>134</ele>
        <time>2026-03-20T15:41:10Z</time>
      </trkpt>
      <trkpt lat="48.51249" lon="2.11452">
        <ele>134</ele>
        <time>2026-03-20T15:41:11Z</time>
      </trkpt>
      <trkpt lat="48.51247" lon="2.11448">
        <ele>134.6</ele>
        <time>2026-03-20T15:41:12Z</time>
      </trkpt>
      <trkpt lat="48.51246" lon="2.11444">
        <ele>134.6</ele>
        <time>2026-03-20T15:41:13Z</time>
      </trkpt>
      <trkpt lat="48.51244" lon="2.1144">
        <ele>134.6</ele>
        <time>2026-03-20T15:41:14Z</time>
      </trkpt>
      <trkpt lat="48.51242" lon="2.11437">
        <ele>135</ele>
        <time>2026-03-20T15:41:15Z</time>
      </trkpt>
      <trkpt lat="48.51241" lon="2.11433">
        <ele>135.4</ele>
        <time>2026-03-20T15:41:16Z</time>
      </trkpt>
      <trkpt lat="48.51239" lon="2.11429">
        <ele>135.4</ele>
        <time>2026-03-20T15:41:17Z</time>
      </trkpt>
      <trkpt lat="48.51238" lon="2.11424">
        <ele>135.4</ele>
        <time>2026-03-20T15:41:18Z</time>
      </trkpt>
      <trkpt lat="48.51236" lon="2.11421">
        <ele>136.2</ele>
        <time>2026-03-20T15:41:19Z</time>
      </trkpt>
      <trkpt lat="48.51235" lon="2.11417">
        <ele>136.2</ele>
        <time>2026-03-20T15:41:20Z</time>
      </trkpt>
      <trkpt lat="48.51234" lon="2.11413">
        <ele>136.2</ele>
        <time>2026-03-20T15:41:21Z</time>
      </trkpt>
      <trkpt lat="48.51233" lon="2.11409">
        <ele>136.2</ele>
        <time>2026-03-20T15:41:22Z</time>
      </trkpt>
      <trkpt lat="48.51232" lon="2.11405">
        <ele>136.8</ele>
        <time>2026-03-20T15:41:23Z</time>
      </trkpt>
      <trkpt lat="48.51231" lon="2.114">
        <ele>136.6</ele>
        <time>2026-03-20T15:41:24Z</time>
      </trkpt>
      <trkpt lat="48.51229" lon="2.11396">
        <ele>136.6</ele>
        <time>2026-03-20T15:41:25Z</time>
      </trkpt>
      <trkpt lat="48.51228" lon="2.11392">
        <ele>136.6</ele>
        <time>2026-03-20T15:41:26Z</time>
      </trkpt>
      <trkpt lat="48.51227" lon="2.11387">
        <ele>137.6</ele>
        <time>2026-03-20T15:41:27Z</time>
      </trkpt>
      <trkpt lat="48.51225" lon="2.11383">
        <ele>137.6</ele>
        <time>2026-03-20T15:41:28Z</time>
      </trkpt>
      <trkpt lat="48.51224" lon="2.11379">
        <ele>137.6</ele>
        <time>2026-03-20T15:41:29Z</time>
      </trkpt>
      <trkpt lat="48.51223" lon="2.11374">
        <ele>137.6</ele>
        <time>2026-03-20T15:41:30Z</time>
      </trkpt>
      <trkpt lat="48.51223" lon="2.1137">
        <ele>137.6</ele>
        <time>2026-03-20T15:41:31Z</time>
      </trkpt>
      <trkpt lat="48.51222" lon="2.11365">
        <ele>138</ele>
        <time>2026-03-20T15:41:32Z</time>
      </trkpt>
      <trkpt lat="48.51221" lon="2.11361">
        <ele>138</ele>
        <time>2026-03-20T15:41:33Z</time>
      </trkpt>
      <trkpt lat="48.51221" lon="2.11356">
        <ele>138</ele>
        <time>2026-03-20T15:41:34Z</time>
      </trkpt>
      <trkpt lat="48.51219" lon="2.11351">
        <ele>138</ele>
        <time>2026-03-20T15:41:35Z</time>
      </trkpt>
      <trkpt lat="48.51218" lon="2.11346">
        <ele>139.4</ele>
        <time>2026-03-20T15:41:36Z</time>
      </trkpt>
      <trkpt lat="48.51217" lon="2.11341">
        <ele>139.4</ele>
        <time>2026-03-20T15:41:37Z</time>
      </trkpt>
      <trkpt lat="48.51217" lon="2.11336">
        <ele>139.4</ele>
        <time>2026-03-20T15:41:38Z</time>
      </trkpt>
      <trkpt lat="48.51216" lon="2.11332">
        <ele>139.6</ele>
        <time>2026-03-20T15:41:39Z</time>
      </trkpt>
      <trkpt lat="48.51216" lon="2.11327">
        <ele>139.8</ele>
        <time>2026-03-20T15:41:40Z</time>
      </trkpt>
      <trkpt lat="48.51215" lon="2.11322">
        <ele>139.8</ele>
        <time>2026-03-20T15:41:41Z</time>
      </trkpt>
      <trkpt lat="48.51214" lon="2.11318">
        <ele>139.8</ele>
        <time>2026-03-20T15:41:42Z</time>
      </trkpt>
      <trkpt lat="48.51214" lon="2.11313">
        <ele>139.8</ele>
        <time>2026-03-20T15:41:43Z</time>
      </trkpt>
      <trkpt lat="48.51214" lon="2.11309">
        <ele>140.8</ele>
        <time>2026-03-20T15:41:44Z</time>
      </trkpt>
      <trkpt lat="48.51213" lon="2.11304">
        <ele>140.8</ele>
        <time>2026-03-20T15:41:45Z</time>
      </trkpt>
      <trkpt lat="48.51213" lon="2.113">
        <ele>140.8</ele>
        <time>2026-03-20T15:41:46Z</time>
      </trkpt>
      <trkpt lat="48.51213" lon="2.11296">
        <ele>140.8</ele>
        <time>2026-03-20T15:41:47Z</time>
      </trkpt>
      <trkpt lat="48.51213" lon="2.11292">
        <ele>141.4</ele>
        <time>2026-03-20T15:41:48Z</time>
      </trkpt>
      <trkpt lat="48.51212" lon="2.11288">
        <ele>141.4</ele>
        <time>2026-03-20T15:41:49Z</time>
      </trkpt>
      <trkpt lat="48.51212" lon="2.11284">
        <ele>141.4</ele>
        <time>2026-03-20T15:41:50Z</time>
      </trkpt>
      <trkpt lat="48.51212" lon="2.1128">
        <ele>141.4</ele>
        <time>2026-03-20T15:41:51Z</time>
      </trkpt>
      <trkpt lat="48.51213" lon="2.11276">
        <ele>142.2</ele>
        <time>2026-03-20T15:41:52Z</time>
      </trkpt>
      <trkpt lat="48.51213" lon="2.11272">
        <ele>142.2</ele>
        <time>2026-03-20T15:41:53Z</time>
      </trkpt>
      <trkpt lat="48.51213" lon="2.11268">
        <ele>142.2</ele>
        <time>2026-03-20T15:41:54Z</time>
      </trkpt>
      <trkpt lat="48.51212" lon="2.11263">
        <ele>142.8</ele>
        <time>2026-03-20T15:41:55Z</time>
      </trkpt>
      <trkpt lat="48.51212" lon="2.11258">
        <ele>142.8</ele>
        <time>2026-03-20T15:41:56Z</time>
      </trkpt>
      <trkpt lat="48.51212" lon="2.11254">
        <ele>142.8</ele>
        <time>2026-03-20T15:41:57Z</time>
      </trkpt>
      <trkpt lat="48.51213" lon="2.11249">
        <ele>142.8</ele>
        <time>2026-03-20T15:41:58Z</time>
      </trkpt>
      <trkpt lat="48.51213" lon="2.11245">
        <ele>142.8</ele>
        <time>2026-03-20T15:41:59Z</time>
      </trkpt>
      <trkpt lat="48.51213" lon="2.1124">
        <ele>143.6</ele>
        <time>2026-03-20T15:42:00Z</time>
      </trkpt>
      <trkpt lat="48.51213" lon="2.11235">
        <ele>143.6</ele>
        <time>2026-03-20T15:42:01Z</time>
      </trkpt>
      <trkpt lat="48.51214" lon="2.11231">
        <ele>143.6</ele>
        <time>2026-03-20T15:42:02Z</time>
      </trkpt>
      <trkpt lat="48.51215" lon="2.11226">
        <ele>144.4</ele>
        <time>2026-03-20T15:42:03Z</time>
      </trkpt>
      <trkpt lat="48.51216" lon="2.11222">
        <ele>144</ele>
        <time>2026-03-20T15:42:04Z</time>
      </trkpt>
      <trkpt lat="48.51216" lon="2.11218">
        <ele>144</ele>
        <time>2026-03-20T15:42:05Z</time>
      </trkpt>
      <trkpt lat="48.51217" lon="2.11214">
        <ele>144</ele>
        <time>2026-03-20T15:42:06Z</time>
      </trkpt>
      <trkpt lat="48.51217" lon="2.11209">
        <ele>144.8</ele>
        <time>2026-03-20T15:42:07Z</time>
      </trkpt>
      <trkpt lat="48.51218" lon="2.11205">
        <ele>144.8</ele>
        <time>2026-03-20T15:42:08Z</time>
      </trkpt>
      <trkpt lat="48.51218" lon="2.112">
        <ele>144.8</ele>
        <time>2026-03-20T15:42:09Z</time>
      </trkpt>
      <trkpt lat="48.51219" lon="2.11196">
        <ele>144.8</ele>
        <time>2026-03-20T15:42:10Z</time>
      </trkpt>
      <trkpt lat="48.51219" lon="2.11191">
        <ele>144.8</ele>
        <time>2026-03-20T15:42:11Z</time>
      </trkpt>
      <trkpt lat="48.51219" lon="2.11187">
        <ele>145.2</ele>
        <time>2026-03-20T15:42:12Z</time>
      </trkpt>
      <trkpt lat="48.51219" lon="2.11183">
        <ele>145.2</ele>
        <time>2026-03-20T15:42:13Z</time>
      </trkpt>
      <trkpt lat="48.5122" lon="2.11179">
        <ele>145.2</ele>
        <time>2026-03-20T15:42:14Z</time>
      </trkpt>
      <trkpt lat="48.51221" lon="2.11174">
        <ele>145.2</ele>
        <time>2026-03-20T15:42:15Z</time>
      </trkpt>
      <trkpt lat="48.51221" lon="2.1117">
        <ele>146.2</ele>
        <time>2026-03-20T15:42:16Z</time>
      </trkpt>
      <trkpt lat="48.51221" lon="2.11166">
        <ele>146.2</ele>
        <time>2026-03-20T15:42:17Z</time>
      </trkpt>
      <trkpt lat="48.51222" lon="2.11161">
        <ele>146.2</ele>
        <time>2026-03-20T15:42:18Z</time>
      </trkpt>
      <trkpt lat="48.51222" lon="2.11157">
        <ele>146.2</ele>
        <time>2026-03-20T15:42:19Z</time>
      </trkpt>
      <trkpt lat="48.51222" lon="2.11153">
        <ele>146.4</ele>
        <time>2026-03-20T15:42:20Z</time>
      </trkpt>
      <trkpt lat="48.51222" lon="2.11148">
        <ele>146.4</ele>
        <time>2026-03-20T15:42:21Z</time>
      </trkpt>
      <trkpt lat="48.51222" lon="2.11144">
        <ele>146.4</ele>
        <time>2026-03-20T15:42:22Z</time>
      </trkpt>
      <trkpt lat="48.51223" lon="2.1114">
        <ele>147.4</ele>
        <time>2026-03-20T15:42:23Z</time>
      </trkpt>
      <trkpt lat="48.51223" lon="2.11136">
        <ele>147.2</ele>
        <time>2026-03-20T15:42:24Z</time>
      </trkpt>
      <trkpt lat="48.51224" lon="2.11132">
        <ele>147.2</ele>
        <time>2026-03-20T15:42:25Z</time>
      </trkpt>
      <trkpt lat="48.51224" lon="2.11128">
        <ele>147.2</ele>
        <time>2026-03-20T15:42:26Z</time>
      </trkpt>
      <trkpt lat="48.51224" lon="2.11123">
        <ele>148</ele>
        <time>2026-03-20T15:42:27Z</time>
      </trkpt>
      <trkpt lat="48.51223" lon="2.11119">
        <ele>148</ele>
        <time>2026-03-20T15:42:28Z</time>
      </trkpt>
      <trkpt lat="48.51223" lon="2.11114">
        <ele>148</ele>
        <time>2026-03-20T15:42:29Z</time>
      </trkpt>
      <trkpt lat="48.51224" lon="2.1111">
        <ele>148</ele>
        <time>2026-03-20T15:42:30Z</time>
      </trkpt>
      <trkpt lat="48.51224" lon="2.11107">
        <ele>148.4</ele>
        <time>2026-03-20T15:42:31Z</time>
      </trkpt>
      <trkpt lat="48.51223" lon="2.11104">
        <ele>148.6</ele>
        <time>2026-03-20T15:42:32Z</time>
      </trkpt>
      <trkpt lat="48.51221" lon="2.11103">
        <ele>148.6</ele>
        <time>2026-03-20T15:42:33Z</time>
      </trkpt>
      <trkpt lat="48.51219" lon="2.11103">
        <ele>148.6</ele>
        <time>2026-03-20T15:42:34Z</time>
      </trkpt>
      <trkpt lat="48.51219" lon="2.11104">
        <ele>148.6</ele>
        <time>2026-03-20T15:42:35Z</time>
      </trkpt>
      <trkpt lat="48.51218" lon="2.11106">
        <ele>148.2</ele>
        <time>2026-03-20T15:42:36Z</time>
      </trkpt>
      <trkpt lat="48.51218" lon="2.11108">
        <ele>148.2</ele>
        <time>2026-03-20T15:42:37Z</time>
      </trkpt>
      <trkpt lat="48.51219" lon="2.1111">
        <ele>148.2</ele>
        <time>2026-03-20T15:42:38Z</time>
      </trkpt>
      <trkpt lat="48.51221" lon="2.1111">
        <ele>148.2</ele>
        <time>2026-03-20T15:42:39Z</time>
      </trkpt>
      <trkpt lat="48.51221" lon="2.11107">
        <ele>149</ele>
        <time>2026-03-20T15:42:40Z</time>
      </trkpt>
      <trkpt lat="48.51221" lon="2.11103">
        <ele>149</ele>
        <time>2026-03-20T15:42:41Z</time>
      </trkpt>
      <trkpt lat="48.5122" lon="2.11099">
        <ele>149</ele>
        <time>2026-03-20T15:42:42Z</time>
      </trkpt>
      <trkpt lat="48.51219" lon="2.11094">
        <ele>149</ele>
        <time>2026-03-20T15:42:43Z</time>
      </trkpt>
      <trkpt lat="48.51218" lon="2.11089">
        <ele>149.4</ele>
        <time>2026-03-20T15:42:44Z</time>
      </trkpt>
      <trkpt lat="48.51217" lon="2.11084">
        <ele>149.4</ele>
        <time>2026-03-20T15:42:45Z</time>
      </trkpt>
      <trkpt lat="48.51217" lon="2.1108">
        <ele>149.4</ele>
        <time>2026-03-20T15:42:46Z</time>
      </trkpt>
      <trkpt lat="48.51216" lon="2.11075">
        <ele>149.4</ele>
        <time>2026-03-20T15:42:47Z</time>
      </trkpt>
      <trkpt lat="48.51215" lon="2.11071">
        <ele>150.2</ele>
        <time>2026-03-20T15:42:48Z</time>
      </trkpt>
      <trkpt lat="48.51214" lon="2.11067">
        <ele>150.2</ele>
        <time>2026-03-20T15:42:49Z</time>
      </trkpt>
      <trkpt lat="48.51214" lon="2.11063">
        <ele>150.2</ele>
        <time>2026-03-20T15:42:50Z</time>
      </trkpt>
      <trkpt lat="48.51213" lon="2.11059">
        <ele>150.6</ele>
        <time>2026-03-20T15:42:51Z</time>
      </trkpt>
      <trkpt lat="48.51211" lon="2.11054">
        <ele>150.6</ele>
        <time>2026-03-20T15:42:52Z</time>
      </trkpt>
      <trkpt lat="48.5121" lon="2.1105">
        <ele>150.6</ele>
        <time>2026-03-20T15:42:53Z</time>
      </trkpt>
      <trkpt lat="48.51209" lon="2.11046">
        <ele>150.6</ele>
        <time>2026-03-20T15:42:54Z</time>
      </trkpt>
      <trkpt lat="48.51208" lon="2.11042">
        <ele>151.6</ele>
        <time>2026-03-20T15:42:55Z</time>
      </trkpt>
      <trkpt lat="48.51207" lon="2.11039">
        <ele>151.6</ele>
        <time>2026-03-20T15:42:56Z</time>
      </trkpt>
      <trkpt lat="48.51205" lon="2.11035">
        <ele>151.6</ele>
        <time>2026-03-20T15:42:57Z</time>
      </trkpt>
      <trkpt lat="48.51204" lon="2.11031">
        <ele>151.6</ele>
        <time>2026-03-20T15:42:58Z</time>
      </trkpt>
      <trkpt lat="48.51203" lon="2.11027">
        <ele>151.6</ele>
        <time>2026-03-20T15:42:59Z</time>
      </trkpt>
      <trkpt lat="48.51202" lon="2.11022">
        <ele>151.8</ele>
        <time>2026-03-20T15:43:00Z</time>
      </trkpt>
      <trkpt lat="48.51201" lon="2.11018">
        <ele>151.8</ele>
        <time>2026-03-20T15:43:01Z</time>
      </trkpt>
      <trkpt lat="48.512" lon="2.11014">
        <ele>151.8</ele>
        <time>2026-03-20T15:43:02Z</time>
      </trkpt>
      <trkpt lat="48.51199" lon="2.1101">
        <ele>151.8</ele>
        <time>2026-03-20T15:43:03Z</time>
      </trkpt>
      <trkpt lat="48.51198" lon="2.11006">
        <ele>152.6</ele>
        <time>2026-03-20T15:43:04Z</time>
      </trkpt>
      <trkpt lat="48.51198" lon="2.11001">
        <ele>152.6</ele>
        <time>2026-03-20T15:43:05Z</time>
      </trkpt>
      <trkpt lat="48.51197" lon="2.10997">
        <ele>152.6</ele>
        <time>2026-03-20T15:43:06Z</time>
      </trkpt>
      <trkpt lat="48.51196" lon="2.10993">
        <ele>153.2</ele>
        <time>2026-03-20T15:43:07Z</time>
      </trkpt>
      <trkpt lat="48.51195" lon="2.10989">
        <ele>153.6</ele>
        <time>2026-03-20T15:43:08Z</time>
      </trkpt>
      <trkpt lat="48.51194" lon="2.10985">
        <ele>153.6</ele>
        <time>2026-03-20T15:43:09Z</time>
      </trkpt>
      <trkpt lat="48.51193" lon="2.10981">
        <ele>153.6</ele>
        <time>2026-03-20T15:43:10Z</time>
      </trkpt>
      <trkpt lat="48.51192" lon="2.10976">
        <ele>153.6</ele>
        <time>2026-03-20T15:43:11Z</time>
      </trkpt>
      <trkpt lat="48.51192" lon="2.10972">
        <ele>154.2</ele>
        <time>2026-03-20T15:43:12Z</time>
      </trkpt>
      <trkpt lat="48.51191" lon="2.10968">
        <ele>154.2</ele>
        <time>2026-03-20T15:43:13Z</time>
      </trkpt>
      <trkpt lat="48.51191" lon="2.10963">
        <ele>154.2</ele>
        <time>2026-03-20T15:43:14Z</time>
      </trkpt>
      <trkpt lat="48.5119" lon="2.10959">
        <ele>154.2</ele>
        <time>2026-03-20T15:43:15Z</time>
      </trkpt>
      <trkpt lat="48.5119" lon="2.10955">
        <ele>155</ele>
        <time>2026-03-20T15:43:16Z</time>
      </trkpt>
      <trkpt lat="48.51189" lon="2.1095">
        <ele>155</ele>
        <time>2026-03-20T15:43:17Z</time>
      </trkpt>
      <trkpt lat="48.51189" lon="2.10945">
        <ele>155</ele>
        <time>2026-03-20T15:43:18Z</time>
      </trkpt>
      <trkpt lat="48.51188" lon="2.10941">
        <ele>155</ele>
        <time>2026-03-20T15:43:19Z</time>
      </trkpt>
      <trkpt lat="48.51188" lon="2.10937">
        <ele>155.2</ele>
        <time>2026-03-20T15:43:20Z</time>
      </trkpt>
      <trkpt lat="48.51188" lon="2.10932">
        <ele>155.2</ele>
        <time>2026-03-20T15:43:21Z</time>
      </trkpt>
      <trkpt lat="48.51188" lon="2.10928">
        <ele>155.2</ele>
        <time>2026-03-20T15:43:22Z</time>
      </trkpt>
      <trkpt lat="48.51187" lon="2.10924">
        <ele>155.6</ele>
        <time>2026-03-20T15:43:23Z</time>
      </trkpt>
      <trkpt lat="48.51188" lon="2.1092">
        <ele>155.6</ele>
        <time>2026-03-20T15:43:24Z</time>
      </trkpt>
      <trkpt lat="48.51188" lon="2.10916">
        <ele>155.6</ele>
        <time>2026-03-20T15:43:25Z</time>
      </trkpt>
      <trkpt lat="48.51188" lon="2.10911">
        <ele>155.6</ele>
        <time>2026-03-20T15:43:26Z</time>
      </trkpt>
      <trkpt lat="48.51188" lon="2.10906">
        <ele>156.2</ele>
        <time>2026-03-20T15:43:27Z</time>
      </trkpt>
      <trkpt lat="48.51188" lon="2.10901">
        <ele>156.6</ele>
        <time>2026-03-20T15:43:28Z</time>
      </trkpt>
      <trkpt lat="48.51188" lon="2.10897">
        <ele>156.6</ele>
        <time>2026-03-20T15:43:29Z</time>
      </trkpt>
      <trkpt lat="48.51189" lon="2.10893">
        <ele>156.6</ele>
        <time>2026-03-20T15:43:30Z</time>
      </trkpt>
      <trkpt lat="48.51189" lon="2.10889">
        <ele>156.6</ele>
        <time>2026-03-20T15:43:31Z</time>
      </trkpt>
      <trkpt lat="48.5119" lon="2.10885">
        <ele>156.8</ele>
        <time>2026-03-20T15:43:32Z</time>
      </trkpt>
      <trkpt lat="48.5119" lon="2.1088">
        <ele>156.8</ele>
        <time>2026-03-20T15:43:33Z</time>
      </trkpt>
      <trkpt lat="48.51191" lon="2.10876">
        <ele>156.8</ele>
        <time>2026-03-20T15:43:34Z</time>
      </trkpt>
      <trkpt lat="48.51191" lon="2.10872">
        <ele>157.6</ele>
        <time>2026-03-20T15:43:35Z</time>
      </trkpt>
      <trkpt lat="48.51192" lon="2.10868">
        <ele>157.4</ele>
        <time>2026-03-20T15:43:36Z</time>
      </trkpt>
      <trkpt lat="48.51192" lon="2.10863">
        <ele>157.4</ele>
        <time>2026-03-20T15:43:37Z</time>
      </trkpt>
      <trkpt lat="48.51193" lon="2.10859">
        <ele>157.4</ele>
        <time>2026-03-20T15:43:38Z</time>
      </trkpt>
      <trkpt lat="48.51194" lon="2.10854">
        <ele>158.4</ele>
        <time>2026-03-20T15:43:39Z</time>
      </trkpt>
      <trkpt lat="48.51195" lon="2.10849">
        <ele>158.4</ele>
        <time>2026-03-20T15:43:40Z</time>
      </trkpt>
      <trkpt lat="48.51196" lon="2.10845">
        <ele>158.4</ele>
        <time>2026-03-20T15:43:41Z</time>
      </trkpt>
      <trkpt lat="48.51196" lon="2.1084">
        <ele>158.4</ele>
        <time>2026-03-20T15:43:42Z</time>
      </trkpt>
      <trkpt lat="48.51197" lon="2.10835">
        <ele>159.2</ele>
        <time>2026-03-20T15:43:43Z</time>
      </trkpt>
      <trkpt lat="48.51198" lon="2.10831">
        <ele>159</ele>
        <time>2026-03-20T15:43:44Z</time>
      </trkpt>
      <trkpt lat="48.51199" lon="2.10826">
        <ele>159</ele>
        <time>2026-03-20T15:43:45Z</time>
      </trkpt>
      <trkpt lat="48.512" lon="2.10822">
        <ele>159</ele>
        <time>2026-03-20T15:43:46Z</time>
      </trkpt>
      <trkpt lat="48.51202" lon="2.10817">
        <ele>160</ele>
        <time>2026-03-20T15:43:47Z</time>
      </trkpt>
      <trkpt lat="48.51203" lon="2.10813">
        <ele>159.8</ele>
        <time>2026-03-20T15:43:48Z</time>
      </trkpt>
      <trkpt lat="48.51205" lon="2.1081">
        <ele>159.8</ele>
        <time>2026-03-20T15:43:49Z</time>
      </trkpt>
      <trkpt lat="48.51206" lon="2.10806">
        <ele>159.8</ele>
        <time>2026-03-20T15:43:50Z</time>
      </trkpt>
      <trkpt lat="48.51207" lon="2.10802">
        <ele>159.8</ele>
        <time>2026-03-20T15:43:51Z</time>
      </trkpt>
      <trkpt lat="48.51209" lon="2.10798">
        <ele>159.6</ele>
        <time>2026-03-20T15:43:52Z</time>
      </trkpt>
      <trkpt lat="48.51211" lon="2.10794">
        <ele>159.6</ele>
        <time>2026-03-20T15:43:53Z</time>
      </trkpt>
      <trkpt lat="48.51213" lon="2.10791">
        <ele>159.6</ele>
        <time>2026-03-20T15:43:54Z</time>
      </trkpt>
      <trkpt lat="48.51216" lon="2.10788">
        <ele>159.6</ele>
        <time>2026-03-20T15:43:55Z</time>
      </trkpt>
      <trkpt lat="48.51218" lon="2.10785">
        <ele>160.2</ele>
        <time>2026-03-20T15:43:56Z</time>
      </trkpt>
      <trkpt lat="48.5122" lon="2.10782">
        <ele>160.2</ele>
        <time>2026-03-20T15:43:57Z</time>
      </trkpt>
      <trkpt lat="48.51222" lon="2.10779">
        <ele>160.2</ele>
        <time>2026-03-20T15:43:58Z</time>
      </trkpt>
      <trkpt lat="48.51224" lon="2.10776">
        <ele>160.6</ele>
        <time>2026-03-20T15:43:59Z</time>
      </trkpt>
      <trkpt lat="48.51227" lon="2.10773">
        <ele>160.8</ele>
        <time>2026-03-20T15:44:00Z</time>
      </trkpt>
      <trkpt lat="48.51229" lon="2.1077">
        <ele>160.8</ele>
        <time>2026-03-20T15:44:01Z</time>
      </trkpt>
      <trkpt lat="48.51231" lon="2.10767">
        <ele>160.8</ele>
        <time>2026-03-20T15:44:02Z</time>
      </trkpt>
      <trkpt lat="48.51234" lon="2.10764">
        <ele>161.2</ele>
        <time>2026-03-20T15:44:03Z</time>
      </trkpt>
      <trkpt lat="48.51236" lon="2.1076">
        <ele>161.8</ele>
        <time>2026-03-20T15:44:04Z</time>
      </trkpt>
      <trkpt lat="48.51238" lon="2.10757">
        <ele>161.8</ele>
        <time>2026-03-20T15:44:05Z</time>
      </trkpt>
      <trkpt lat="48.51241" lon="2.10754">
        <ele>161.8</ele>
        <time>2026-03-20T15:44:06Z</time>
      </trkpt>
      <trkpt lat="48.51243" lon="2.1075">
        <ele>161.8</ele>
        <time>2026-03-20T15:44:07Z</time>
      </trkpt>
      <trkpt lat="48.51246" lon="2.10747">
        <ele>161.8</ele>
        <time>2026-03-20T15:44:08Z</time>
      </trkpt>
      <trkpt lat="48.51249" lon="2.10744">
        <ele>161.8</ele>
        <time>2026-03-20T15:44:09Z</time>
      </trkpt>
      <trkpt lat="48.51252" lon="2.10741">
        <ele>161.8</ele>
        <time>2026-03-20T15:44:10Z</time>
      </trkpt>
      <trkpt lat="48.51254" lon="2.10738">
        <ele>162.4</ele>
        <time>2026-03-20T15:44:11Z</time>
      </trkpt>
      <trkpt lat="48.51257" lon="2.10735">
        <ele>162.8</ele>
        <time>2026-03-20T15:44:12Z</time>
      </trkpt>
      <trkpt lat="48.5126" lon="2.10731">
        <ele>162.8</ele>
        <time>2026-03-20T15:44:13Z</time>
      </trkpt>
      <trkpt lat="48.51262" lon="2.10727">
        <ele>162.8</ele>
        <time>2026-03-20T15:44:14Z</time>
      </trkpt>
      <trkpt lat="48.51265" lon="2.10724">
        <ele>163</ele>
        <time>2026-03-20T15:44:15Z</time>
      </trkpt>
      <trkpt lat="48.51268" lon="2.10721">
        <ele>163.4</ele>
        <time>2026-03-20T15:44:16Z</time>
      </trkpt>
      <trkpt lat="48.51271" lon="2.10717">
        <ele>163.4</ele>
        <time>2026-03-20T15:44:17Z</time>
      </trkpt>
      <trkpt lat="48.51274" lon="2.10714">
        <ele>163.4</ele>
        <time>2026-03-20T15:44:18Z</time>
      </trkpt>
      <trkpt lat="48.51277" lon="2.10711">
        <ele>163.4</ele>
        <time>2026-03-20T15:44:19Z</time>
      </trkpt>
      <trkpt lat="48.5128" lon="2.10708">
        <ele>163.4</ele>
        <time>2026-03-20T15:44:20Z</time>
      </trkpt>
      <trkpt lat="48.51283" lon="2.10705">
        <ele>163.4</ele>
        <time>2026-03-20T15:44:21Z</time>
      </trkpt>
      <trkpt lat="48.51286" lon="2.10701">
        <ele>163.4</ele>
        <time>2026-03-20T15:44:22Z</time>
      </trkpt>
      <trkpt lat="48.51289" lon="2.10698">
        <ele>163.4</ele>
        <time>2026-03-20T15:44:23Z</time>
      </trkpt>
      <trkpt lat="48.51292" lon="2.10694">
        <ele>163.2</ele>
        <time>2026-03-20T15:44:24Z</time>
      </trkpt>
      <trkpt lat="48.51295" lon="2.1069">
        <ele>163.2</ele>
        <time>2026-03-20T15:44:25Z</time>
      </trkpt>
      <trkpt lat="48.51298" lon="2.10687">
        <ele>163.2</ele>
        <time>2026-03-20T15:44:26Z</time>
      </trkpt>
      <trkpt lat="48.51301" lon="2.10683">
        <ele>163.2</ele>
        <time>2026-03-20T15:44:27Z</time>
      </trkpt>
      <trkpt lat="48.51304" lon="2.10679">
        <ele>163.4</ele>
        <time>2026-03-20T15:44:28Z</time>
      </trkpt>
      <trkpt lat="48.51307" lon="2.10676">
        <ele>163.4</ele>
        <time>2026-03-20T15:44:29Z</time>
      </trkpt>
      <trkpt lat="48.5131" lon="2.10672">
        <ele>163.4</ele>
        <time>2026-03-20T15:44:30Z</time>
      </trkpt>
      <trkpt lat="48.51313" lon="2.10668">
        <ele>163.4</ele>
        <time>2026-03-20T15:44:31Z</time>
      </trkpt>
      <trkpt lat="48.51316" lon="2.10664">
        <ele>163.4</ele>
        <time>2026-03-20T15:44:32Z</time>
      </trkpt>
      <trkpt lat="48.51319" lon="2.10661">
        <ele>163.4</ele>
        <time>2026-03-20T15:44:33Z</time>
      </trkpt>
      <trkpt lat="48.51323" lon="2.10657">
        <ele>163.4</ele>
        <time>2026-03-20T15:44:34Z</time>
      </trkpt>
      <trkpt lat="48.51326" lon="2.10653">
        <ele>163.4</ele>
        <time>2026-03-20T15:44:35Z</time>
      </trkpt>
      <trkpt lat="48.51329" lon="2.10649">
        <ele>163.8</ele>
        <time>2026-03-20T15:44:36Z</time>
      </trkpt>
      <trkpt lat="48.51332" lon="2.10646">
        <ele>163.8</ele>
        <time>2026-03-20T15:44:37Z</time>
      </trkpt>
      <trkpt lat="48.51336" lon="2.10642">
        <ele>163.8</ele>
        <time>2026-03-20T15:44:38Z</time>
      </trkpt>
      <trkpt lat="48.51339" lon="2.10638">
        <ele>163.8</ele>
        <time>2026-03-20T15:44:39Z</time>
      </trkpt>
      <trkpt lat="48.51342" lon="2.10634">
        <ele>163.4</ele>
        <time>2026-03-20T15:44:40Z</time>
      </trkpt>
      <trkpt lat="48.51346" lon="2.10631">
        <ele>163.4</ele>
        <time>2026-03-20T15:44:41Z</time>
      </trkpt>
      <trkpt lat="48.51348" lon="2.10627">
        <ele>163.4</ele>
        <time>2026-03-20T15:44:42Z</time>
      </trkpt>
      <trkpt lat="48.51351" lon="2.10624">
        <ele>163.4</ele>
        <time>2026-03-20T15:44:43Z</time>
      </trkpt>
      <trkpt lat="48.51355" lon="2.1062">
        <ele>163.2</ele>
        <time>2026-03-20T15:44:44Z</time>
      </trkpt>
      <trkpt lat="48.51358" lon="2.10615">
        <ele>163.2</ele>
        <time>2026-03-20T15:44:45Z</time>
      </trkpt>
      <trkpt lat="48.51362" lon="2.1061">
        <ele>163.2</ele>
        <time>2026-03-20T15:44:46Z</time>
      </trkpt>
      <trkpt lat="48.51365" lon="2.10606">
        <ele>163.2</ele>
        <time>2026-03-20T15:44:47Z</time>
      </trkpt>
      <trkpt lat="48.51369" lon="2.10601">
        <ele>163.2</ele>
        <time>2026-03-20T15:44:48Z</time>
      </trkpt>
      <trkpt lat="48.51372" lon="2.10596">
        <ele>163.2</ele>
        <time>2026-03-20T15:44:49Z</time>
      </trkpt>
      <trkpt lat="48.51376" lon="2.10591">
        <ele>163.2</ele>
        <time>2026-03-20T15:44:50Z</time>
      </trkpt>
      <trkpt lat="48.51379" lon="2.10586">
        <ele>163.2</ele>
        <time>2026-03-20T15:44:51Z</time>
      </trkpt>
      <trkpt lat="48.51383" lon="2.10581">
        <ele>163.4</ele>
        <time>2026-03-20T15:44:52Z</time>
      </trkpt>
      <trkpt lat="48.51386" lon="2.10577">
        <ele>163.4</ele>
        <time>2026-03-20T15:44:53Z</time>
      </trkpt>
      <trkpt lat="48.5139" lon="2.10572">
        <ele>163.4</ele>
        <time>2026-03-20T15:44:54Z</time>
      </trkpt>
      <trkpt lat="48.51394" lon="2.10568">
        <ele>163.4</ele>
        <time>2026-03-20T15:44:55Z</time>
      </trkpt>
      <trkpt lat="48.51397" lon="2.10563">
        <ele>163.2</ele>
        <time>2026-03-20T15:44:56Z</time>
      </trkpt>
      <trkpt lat="48.51401" lon="2.10559">
        <ele>163.2</ele>
        <time>2026-03-20T15:44:57Z</time>
      </trkpt>
      <trkpt lat="48.51404" lon="2.10554">
        <ele>163.2</ele>
        <time>2026-03-20T15:44:58Z</time>
      </trkpt>
      <trkpt lat="48.51407" lon="2.10549">
        <ele>163.4</ele>
        <time>2026-03-20T15:44:59Z</time>
      </trkpt>
      <trkpt lat="48.5141" lon="2.10542">
        <ele>163.4</ele>
        <time>2026-03-20T15:45:00Z</time>
      </trkpt>
      <trkpt lat="48.51414" lon="2.10537">
        <ele>163.4</ele>
        <time>2026-03-20T15:45:01Z</time>
      </trkpt>
      <trkpt lat="48.51417" lon="2.10532">
        <ele>163.4</ele>
        <time>2026-03-20T15:45:02Z</time>
      </trkpt>
      <trkpt lat="48.5142" lon="2.10525">
        <ele>163.4</ele>
        <time>2026-03-20T15:45:03Z</time>
      </trkpt>
      <trkpt lat="48.51422" lon="2.10519">
        <ele>163.4</ele>
        <time>2026-03-20T15:45:04Z</time>
      </trkpt>
      <trkpt lat="48.51425" lon="2.10513">
        <ele>163.4</ele>
        <time>2026-03-20T15:45:05Z</time>
      </trkpt>
      <trkpt lat="48.51427" lon="2.10506">
        <ele>163.4</ele>
        <time>2026-03-20T15:45:06Z</time>
      </trkpt>
      <trkpt lat="48.5143" lon="2.10499">
        <ele>164</ele>
        <time>2026-03-20T15:45:07Z</time>
      </trkpt>
      <trkpt lat="48.51432" lon="2.10493">
        <ele>164.2</ele>
        <time>2026-03-20T15:45:08Z</time>
      </trkpt>
      <trkpt lat="48.51434" lon="2.10486">
        <ele>164.2</ele>
        <time>2026-03-20T15:45:09Z</time>
      </trkpt>
      <trkpt lat="48.51437" lon="2.10479">
        <ele>164.2</ele>
        <time>2026-03-20T15:45:10Z</time>
      </trkpt>
      <trkpt lat="48.51439" lon="2.10473">
        <ele>164.2</ele>
        <time>2026-03-20T15:45:11Z</time>
      </trkpt>
      <trkpt lat="48.5144" lon="2.10467">
        <ele>164.4</ele>
        <time>2026-03-20T15:45:12Z</time>
      </trkpt>
      <trkpt lat="48.51442" lon="2.1046">
        <ele>164.4</ele>
        <time>2026-03-20T15:45:13Z</time>
      </trkpt>
      <trkpt lat="48.51444" lon="2.10453">
        <ele>164.4</ele>
        <time>2026-03-20T15:45:14Z</time>
      </trkpt>
      <trkpt lat="48.51447" lon="2.10446">
        <ele>164.4</ele>
        <time>2026-03-20T15:45:15Z</time>
      </trkpt>
      <trkpt lat="48.51449" lon="2.10439">
        <ele>164.6</ele>
        <time>2026-03-20T15:45:16Z</time>
      </trkpt>
      <trkpt lat="48.51451" lon="2.10432">
        <ele>164.6</ele>
        <time>2026-03-20T15:45:17Z</time>
      </trkpt>
      <trkpt lat="48.51454" lon="2.10424">
        <ele>164.6</ele>
        <time>2026-03-20T15:45:18Z</time>
      </trkpt>
      <trkpt lat="48.51456" lon="2.10417">
        <ele>164.6</ele>
        <time>2026-03-20T15:45:19Z</time>
      </trkpt>
      <trkpt lat="48.51458" lon="2.10409">
        <ele>164.6</ele>
        <time>2026-03-20T15:45:20Z</time>
      </trkpt>
      <trkpt lat="48.5146" lon="2.10402">
        <ele>164.6</ele>
        <time>2026-03-20T15:45:21Z</time>
      </trkpt>
      <trkpt lat="48.51462" lon="2.10395">
        <ele>164.6</ele>
        <time>2026-03-20T15:45:22Z</time>
      </trkpt>
      <trkpt lat="48.51464" lon="2.10387">
        <ele>164.6</ele>
        <time>2026-03-20T15:45:23Z</time>
      </trkpt>
      <trkpt lat="48.51466" lon="2.1038">
        <ele>164.6</ele>
        <time>2026-03-20T15:45:24Z</time>
      </trkpt>
      <trkpt lat="48.51469" lon="2.10373">
        <ele>164.6</ele>
        <time>2026-03-20T15:45:25Z</time>
      </trkpt>
      <trkpt lat="48.51471" lon="2.10366">
        <ele>164.6</ele>
        <time>2026-03-20T15:45:26Z</time>
      </trkpt>
      <trkpt lat="48.51473" lon="2.10358">
        <ele>164.8</ele>
        <time>2026-03-20T15:45:27Z</time>
      </trkpt>
      <trkpt lat="48.51476" lon="2.10351">
        <ele>165.2</ele>
        <time>2026-03-20T15:45:28Z</time>
      </trkpt>
      <trkpt lat="48.51478" lon="2.10343">
        <ele>165.2</ele>
        <time>2026-03-20T15:45:29Z</time>
      </trkpt>
      <trkpt lat="48.5148" lon="2.10336">
        <ele>165.2</ele>
        <time>2026-03-20T15:45:30Z</time>
      </trkpt>
      <trkpt lat="48.51482" lon="2.10328">
        <ele>164.4</ele>
        <time>2026-03-20T15:45:31Z</time>
      </trkpt>
      <trkpt lat="48.51484" lon="2.1032">
        <ele>164</ele>
        <time>2026-03-20T15:45:32Z</time>
      </trkpt>
      <trkpt lat="48.51486" lon="2.10312">
        <ele>164</ele>
        <time>2026-03-20T15:45:33Z</time>
      </trkpt>
      <trkpt lat="48.51488" lon="2.10304">
        <ele>164</ele>
        <time>2026-03-20T15:45:34Z</time>
      </trkpt>
      <trkpt lat="48.51491" lon="2.10297">
        <ele>164.6</ele>
        <time>2026-03-20T15:45:35Z</time>
      </trkpt>
      <trkpt lat="48.51493" lon="2.10289">
        <ele>164.4</ele>
        <time>2026-03-20T15:45:36Z</time>
      </trkpt>
      <trkpt lat="48.51494" lon="2.10281">
        <ele>164.4</ele>
        <time>2026-03-20T15:45:37Z</time>
      </trkpt>
      <trkpt lat="48.51496" lon="2.10273">
        <ele>164.4</ele>
        <time>2026-03-20T15:45:38Z</time>
      </trkpt>
      <trkpt lat="48.51498" lon="2.10265">
        <ele>164.4</ele>
        <time>2026-03-20T15:45:39Z</time>
      </trkpt>
      <trkpt lat="48.515" lon="2.10257">
        <ele>164</ele>
        <time>2026-03-20T15:45:40Z</time>
      </trkpt>
      <trkpt lat="48.51501" lon="2.10249">
        <ele>164</ele>
        <time>2026-03-20T15:45:41Z</time>
      </trkpt>
      <trkpt lat="48.51502" lon="2.10241">
        <ele>164</ele>
        <time>2026-03-20T15:45:42Z</time>
      </trkpt>
      <trkpt lat="48.51503" lon="2.10233">
        <ele>164.6</ele>
        <time>2026-03-20T15:45:43Z</time>
      </trkpt>
      <trkpt lat="48.51504" lon="2.10224">
        <ele>164.4</ele>
        <time>2026-03-20T15:45:44Z</time>
      </trkpt>
      <trkpt lat="48.51505" lon="2.10216">
        <ele>164.4</ele>
        <time>2026-03-20T15:45:45Z</time>
      </trkpt>
      <trkpt lat="48.51506" lon="2.10207">
        <ele>164.4</ele>
        <time>2026-03-20T15:45:46Z</time>
      </trkpt>
      <trkpt lat="48.51507" lon="2.10199">
        <ele>164.4</ele>
        <time>2026-03-20T15:45:47Z</time>
      </trkpt>
      <trkpt lat="48.51508" lon="2.1019">
        <ele>164.6</ele>
        <time>2026-03-20T15:45:48Z</time>
      </trkpt>
      <trkpt lat="48.51509" lon="2.10182">
        <ele>164.6</ele>
        <time>2026-03-20T15:45:49Z</time>
      </trkpt>
      <trkpt lat="48.5151" lon="2.10174">
        <ele>164.6</ele>
        <time>2026-03-20T15:45:50Z</time>
      </trkpt>
      <trkpt lat="48.5151" lon="2.10166">
        <ele>164.6</ele>
        <time>2026-03-20T15:45:51Z</time>
      </trkpt>
      <trkpt lat="48.51511" lon="2.10158">
        <ele>164.8</ele>
        <time>2026-03-20T15:45:52Z</time>
      </trkpt>
      <trkpt lat="48.51512" lon="2.1015">
        <ele>164.8</ele>
        <time>2026-03-20T15:45:53Z</time>
      </trkpt>
      <trkpt lat="48.51512" lon="2.10143">
        <ele>164.8</ele>
        <time>2026-03-20T15:45:54Z</time>
      </trkpt>
      <trkpt lat="48.51512" lon="2.10135">
        <ele>164.8</ele>
        <time>2026-03-20T15:45:55Z</time>
      </trkpt>
      <trkpt lat="48.51511" lon="2.10127">
        <ele>165</ele>
        <time>2026-03-20T15:45:56Z</time>
      </trkpt>
      <trkpt lat="48.51511" lon="2.10119">
        <ele>165</ele>
        <time>2026-03-20T15:45:57Z</time>
      </trkpt>
      <trkpt lat="48.5151" lon="2.10111">
        <ele>165</ele>
        <time>2026-03-20T15:45:58Z</time>
      </trkpt>
      <trkpt lat="48.51509" lon="2.10103">
        <ele>165</ele>
        <time>2026-03-20T15:45:59Z</time>
      </trkpt>
      <trkpt lat="48.51509" lon="2.10094">
        <ele>164.8</ele>
        <time>2026-03-20T15:46:00Z</time>
      </trkpt>
      <trkpt lat="48.51508" lon="2.10085">
        <ele>164.8</ele>
        <time>2026-03-20T15:46:01Z</time>
      </trkpt>
      <trkpt lat="48.51507" lon="2.10076">
        <ele>164.8</ele>
        <time>2026-03-20T15:46:02Z</time>
      </trkpt>
      <trkpt lat="48.51507" lon="2.10067">
        <ele>164.8</ele>
        <time>2026-03-20T15:46:03Z</time>
      </trkpt>
      <trkpt lat="48.51506" lon="2.10057">
        <ele>163.8</ele>
        <time>2026-03-20T15:46:04Z</time>
      </trkpt>
      <trkpt lat="48.51505" lon="2.10048">
        <ele>163.8</ele>
        <time>2026-03-20T15:46:05Z</time>
      </trkpt>
      <trkpt lat="48.51504" lon="2.10038">
        <ele>163.8</ele>
        <time>2026-03-20T15:46:06Z</time>
      </trkpt>
      <trkpt lat="48.51504" lon="2.10028">
        <ele>163.8</ele>
        <time>2026-03-20T15:46:07Z</time>
      </trkpt>
      <trkpt lat="48.51505" lon="2.10019">
        <ele>164.8</ele>
        <time>2026-03-20T15:46:08Z</time>
      </trkpt>
      <trkpt lat="48.51505" lon="2.1001">
        <ele>164.8</ele>
        <time>2026-03-20T15:46:09Z</time>
      </trkpt>
      <trkpt lat="48.51506" lon="2.1">
        <ele>164.8</ele>
        <time>2026-03-20T15:46:10Z</time>
      </trkpt>
      <trkpt lat="48.51508" lon="2.0999">
        <ele>164</ele>
        <time>2026-03-20T15:46:11Z</time>
      </trkpt>
      <trkpt lat="48.51509" lon="2.09981">
        <ele>163.4</ele>
        <time>2026-03-20T15:46:12Z</time>
      </trkpt>
      <trkpt lat="48.51512" lon="2.09972">
        <ele>163.4</ele>
        <time>2026-03-20T15:46:13Z</time>
      </trkpt>
      <trkpt lat="48.51514" lon="2.09963">
        <ele>163.4</ele>
        <time>2026-03-20T15:46:14Z</time>
      </trkpt>
      <trkpt lat="48.51516" lon="2.09954">
        <ele>162.4</ele>
        <time>2026-03-20T15:46:15Z</time>
      </trkpt>
      <trkpt lat="48.51518" lon="2.09945">
        <ele>161.8</ele>
        <time>2026-03-20T15:46:16Z</time>
      </trkpt>
      <trkpt lat="48.51521" lon="2.09935">
        <ele>161.8</ele>
        <time>2026-03-20T15:46:17Z</time>
      </trkpt>
      <trkpt lat="48.51523" lon="2.09925">
        <ele>161.8</ele>
        <time>2026-03-20T15:46:18Z</time>
      </trkpt>
      <trkpt lat="48.51527" lon="2.09916">
        <ele>160.8</ele>
        <time>2026-03-20T15:46:19Z</time>
      </trkpt>
      <trkpt lat="48.5153" lon="2.09906">
        <ele>160</ele>
        <time>2026-03-20T15:46:20Z</time>
      </trkpt>
      <trkpt lat="48.51534" lon="2.09897">
        <ele>160</ele>
        <time>2026-03-20T15:46:21Z</time>
      </trkpt>
      <trkpt lat="48.51537" lon="2.09887">
        <ele>160</ele>
        <time>2026-03-20T15:46:22Z</time>
      </trkpt>
      <trkpt lat="48.5154" lon="2.09876">
        <ele>159.6</ele>
        <time>2026-03-20T15:46:23Z</time>
      </trkpt>
      <trkpt lat="48.51544" lon="2.09866">
        <ele>159</ele>
        <time>2026-03-20T15:46:24Z</time>
      </trkpt>
      <trkpt lat="48.51547" lon="2.09856">
        <ele>159</ele>
        <time>2026-03-20T15:46:25Z</time>
      </trkpt>
      <trkpt lat="48.5155" lon="2.09845">
        <ele>159</ele>
        <time>2026-03-20T15:46:26Z</time>
      </trkpt>
      <trkpt lat="48.51553" lon="2.09834">
        <ele>159.6</ele>
        <time>2026-03-20T15:46:27Z</time>
      </trkpt>
      <trkpt lat="48.51555" lon="2.09822">
        <ele>159.4</ele>
        <time>2026-03-20T15:46:28Z</time>
      </trkpt>
      <trkpt lat="48.51557" lon="2.09811">
        <ele>159.4</ele>
        <time>2026-03-20T15:46:29Z</time>
      </trkpt>
      <trkpt lat="48.51558" lon="2.09799">
        <ele>159.4</ele>
        <time>2026-03-20T15:46:30Z</time>
      </trkpt>
      <trkpt lat="48.51559" lon="2.09788">
        <ele>159.4</ele>
        <time>2026-03-20T15:46:31Z</time>
      </trkpt>
      <trkpt lat="48.51559" lon="2.09776">
        <ele>159.8</ele>
        <time>2026-03-20T15:46:32Z</time>
      </trkpt>
      <trkpt lat="48.5156" lon="2.09765">
        <ele>159.8</ele>
        <time>2026-03-20T15:46:33Z</time>
      </trkpt>
      <trkpt lat="48.5156" lon="2.09754">
        <ele>159.8</ele>
        <time>2026-03-20T15:46:34Z</time>
      </trkpt>
      <trkpt lat="48.5156" lon="2.09743">
        <ele>159.8</ele>
        <time>2026-03-20T15:46:35Z</time>
      </trkpt>
      <trkpt lat="48.5156" lon="2.09732">
        <ele>160.4</ele>
        <time>2026-03-20T15:46:36Z</time>
      </trkpt>
      <trkpt lat="48.51559" lon="2.09721">
        <ele>160.4</ele>
        <time>2026-03-20T15:46:37Z</time>
      </trkpt>
      <trkpt lat="48.51558" lon="2.09711">
        <ele>160.4</ele>
        <time>2026-03-20T15:46:38Z</time>
      </trkpt>
      <trkpt lat="48.51556" lon="2.097">
        <ele>160.4</ele>
        <time>2026-03-20T15:46:39Z</time>
      </trkpt>
      <trkpt lat="48.51554" lon="2.0969">
        <ele>160.8</ele>
        <time>2026-03-20T15:46:40Z</time>
      </trkpt>
      <trkpt lat="48.51552" lon="2.09681">
        <ele>160.8</ele>
        <time>2026-03-20T15:46:41Z</time>
      </trkpt>
      <trkpt lat="48.51549" lon="2.09673">
        <ele>160.8</ele>
        <time>2026-03-20T15:46:42Z</time>
      </trkpt>
      <trkpt lat="48.51545" lon="2.09664">
        <ele>161.2</ele>
        <time>2026-03-20T15:46:43Z</time>
      </trkpt>
      <trkpt lat="48.51542" lon="2.09656">
        <ele>161.2</ele>
        <time>2026-03-20T15:46:44Z</time>
      </trkpt>
      <trkpt lat="48.51538" lon="2.09648">
        <ele>161.2</ele>
        <time>2026-03-20T15:46:45Z</time>
      </trkpt>
      <trkpt lat="48.51535" lon="2.09639">
        <ele>161.2</ele>
        <time>2026-03-20T15:46:46Z</time>
      </trkpt>
      <trkpt lat="48.51532" lon="2.09631">
        <ele>161.6</ele>
        <time>2026-03-20T15:46:47Z</time>
      </trkpt>
      <trkpt lat="48.51529" lon="2.09624">
        <ele>162</ele>
        <time>2026-03-20T15:46:48Z</time>
      </trkpt>
      <trkpt lat="48.51525" lon="2.09616">
        <ele>162</ele>
        <time>2026-03-20T15:46:49Z</time>
      </trkpt>
      <trkpt lat="48.51522" lon="2.09609">
        <ele>162</ele>
        <time>2026-03-20T15:46:50Z</time>
      </trkpt>
      <trkpt lat="48.51518" lon="2.09601">
        <ele>162</ele>
        <time>2026-03-20T15:46:51Z</time>
      </trkpt>
      <trkpt lat="48.51515" lon="2.09594">
        <ele>162.2</ele>
        <time>2026-03-20T15:46:52Z</time>
      </trkpt>
      <trkpt lat="48.51511" lon="2.09586">
        <ele>162.2</ele>
        <time>2026-03-20T15:46:53Z</time>
      </trkpt>
      <trkpt lat="48.51508" lon="2.09578">
        <ele>162.2</ele>
        <time>2026-03-20T15:46:54Z</time>
      </trkpt>
      <trkpt lat="48.51505" lon="2.09571">
        <ele>163</ele>
        <time>2026-03-20T15:46:55Z</time>
      </trkpt>
      <trkpt lat="48.51502" lon="2.09564">
        <ele>162.8</ele>
        <time>2026-03-20T15:46:56Z</time>
      </trkpt>
      <trkpt lat="48.51498" lon="2.09556">
        <ele>162.8</ele>
        <time>2026-03-20T15:46:57Z</time>
      </trkpt>
      <trkpt lat="48.51495" lon="2.09548">
        <ele>162.8</ele>
        <time>2026-03-20T15:46:58Z</time>
      </trkpt>
      <trkpt lat="48.51493" lon="2.09541">
        <ele>163</ele>
        <time>2026-03-20T15:46:59Z</time>
      </trkpt>
      <trkpt lat="48.5149" lon="2.09533">
        <ele>163.8</ele>
        <time>2026-03-20T15:47:00Z</time>
      </trkpt>
      <trkpt lat="48.51488" lon="2.09525">
        <ele>163.8</ele>
        <time>2026-03-20T15:47:01Z</time>
      </trkpt>
      <trkpt lat="48.51486" lon="2.09517">
        <ele>163.8</ele>
        <time>2026-03-20T15:47:02Z</time>
      </trkpt>
      <trkpt lat="48.51484" lon="2.09509">
        <ele>164.2</ele>
        <time>2026-03-20T15:47:03Z</time>
      </trkpt>
      <trkpt lat="48.51482" lon="2.095">
        <ele>164.8</ele>
        <time>2026-03-20T15:47:04Z</time>
      </trkpt>
      <trkpt lat="48.51481" lon="2.09492">
        <ele>164.8</ele>
        <time>2026-03-20T15:47:05Z</time>
      </trkpt>
      <trkpt lat="48.51481" lon="2.09484">
        <ele>164.8</ele>
        <time>2026-03-20T15:47:06Z</time>
      </trkpt>
      <trkpt lat="48.5148" lon="2.09475">
        <ele>164.8</ele>
        <time>2026-03-20T15:47:07Z</time>
      </trkpt>
      <trkpt lat="48.5148" lon="2.09467">
        <ele>165</ele>
        <time>2026-03-20T15:47:08Z</time>
      </trkpt>
      <trkpt lat="48.5148" lon="2.09459">
        <ele>165</ele>
        <time>2026-03-20T15:47:09Z</time>
      </trkpt>
      <trkpt lat="48.5148" lon="2.0945">
        <ele>165</ele>
        <time>2026-03-20T15:47:10Z</time>
      </trkpt>
      <trkpt lat="48.5148" lon="2.09441">
        <ele>165.6</ele>
        <time>2026-03-20T15:47:11Z</time>
      </trkpt>
      <trkpt lat="48.5148" lon="2.09433">
        <ele>166</ele>
        <time>2026-03-20T15:47:12Z</time>
      </trkpt>
      <trkpt lat="48.51481" lon="2.09424">
        <ele>166</ele>
        <time>2026-03-20T15:47:13Z</time>
      </trkpt>
      <trkpt lat="48.51481" lon="2.09416">
        <ele>166</ele>
        <time>2026-03-20T15:47:14Z</time>
      </trkpt>
      <trkpt lat="48.51481" lon="2.09408">
        <ele>165.6</ele>
        <time>2026-03-20T15:47:15Z</time>
      </trkpt>
      <trkpt lat="48.51482" lon="2.09399">
        <ele>165.6</ele>
        <time>2026-03-20T15:47:16Z</time>
      </trkpt>
      <trkpt lat="48.51482" lon="2.09391">
        <ele>165.6</ele>
        <time>2026-03-20T15:47:17Z</time>
      </trkpt>
      <trkpt lat="48.51482" lon="2.09382">
        <ele>165.6</ele>
        <time>2026-03-20T15:47:18Z</time>
      </trkpt>
      <trkpt lat="48.51483" lon="2.09374">
        <ele>165.6</ele>
        <time>2026-03-20T15:47:19Z</time>
      </trkpt>
      <trkpt lat="48.51483" lon="2.09366">
        <ele>166</ele>
        <time>2026-03-20T15:47:20Z</time>
      </trkpt>
      <trkpt lat="48.51483" lon="2.09357">
        <ele>166</ele>
        <time>2026-03-20T15:47:21Z</time>
      </trkpt>
      <trkpt lat="48.51484" lon="2.09349">
        <ele>166</ele>
        <time>2026-03-20T15:47:22Z</time>
      </trkpt>
      <trkpt lat="48.51484" lon="2.09341">
        <ele>166.8</ele>
        <time>2026-03-20T15:47:23Z</time>
      </trkpt>
      <trkpt lat="48.51484" lon="2.09332">
        <ele>166.2</ele>
        <time>2026-03-20T15:47:24Z</time>
      </trkpt>
      <trkpt lat="48.51485" lon="2.09323">
        <ele>166.2</ele>
        <time>2026-03-20T15:47:25Z</time>
      </trkpt>
      <trkpt lat="48.51486" lon="2.09314">
        <ele>166.2</ele>
        <time>2026-03-20T15:47:26Z</time>
      </trkpt>
      <trkpt lat="48.51486" lon="2.09305">
        <ele>166.2</ele>
        <time>2026-03-20T15:47:27Z</time>
      </trkpt>
      <trkpt lat="48.51486" lon="2.09296">
        <ele>166.6</ele>
        <time>2026-03-20T15:47:28Z</time>
      </trkpt>
      <trkpt lat="48.51487" lon="2.09287">
        <ele>166.6</ele>
        <time>2026-03-20T15:47:29Z</time>
      </trkpt>
      <trkpt lat="48.51487" lon="2.09278">
        <ele>166.6</ele>
        <time>2026-03-20T15:47:30Z</time>
      </trkpt>
      <trkpt lat="48.51488" lon="2.09269">
        <ele>166.6</ele>
        <time>2026-03-20T15:47:31Z</time>
      </trkpt>
      <trkpt lat="48.51489" lon="2.09261">
        <ele>166.4</ele>
        <time>2026-03-20T15:47:32Z</time>
      </trkpt>
      <trkpt lat="48.5149" lon="2.09252">
        <ele>166.4</ele>
        <time>2026-03-20T15:47:33Z</time>
      </trkpt>
      <trkpt lat="48.5149" lon="2.09244">
        <ele>166.4</ele>
        <time>2026-03-20T15:47:34Z</time>
      </trkpt>
      <trkpt lat="48.51491" lon="2.09236">
        <ele>167.2</ele>
        <time>2026-03-20T15:47:35Z</time>
      </trkpt>
      <trkpt lat="48.51492" lon="2.09227">
        <ele>167.4</ele>
        <time>2026-03-20T15:47:36Z</time>
      </trkpt>
      <trkpt lat="48.51494" lon="2.09219">
        <ele>167.4</ele>
        <time>2026-03-20T15:47:37Z</time>
      </trkpt>
      <trkpt lat="48.51495" lon="2.09211">
        <ele>167.4</ele>
        <time>2026-03-20T15:47:38Z</time>
      </trkpt>
      <trkpt lat="48.51496" lon="2.09203">
        <ele>167.4</ele>
        <time>2026-03-20T15:47:39Z</time>
      </trkpt>
      <trkpt lat="48.51497" lon="2.09195">
        <ele>167.6</ele>
        <time>2026-03-20T15:47:40Z</time>
      </trkpt>
      <trkpt lat="48.51498" lon="2.09187">
        <ele>167.6</ele>
        <time>2026-03-20T15:47:41Z</time>
      </trkpt>
      <trkpt lat="48.515" lon="2.09179">
        <ele>167.6</ele>
        <time>2026-03-20T15:47:42Z</time>
      </trkpt>
      <trkpt lat="48.51501" lon="2.09171">
        <ele>167.6</ele>
        <time>2026-03-20T15:47:43Z</time>
      </trkpt>
      <trkpt lat="48.51502" lon="2.09163">
        <ele>167.8</ele>
        <time>2026-03-20T15:47:44Z</time>
      </trkpt>
      <trkpt lat="48.51504" lon="2.09154">
        <ele>167.8</ele>
        <time>2026-03-20T15:47:45Z</time>
      </trkpt>
      <trkpt lat="48.51505" lon="2.09146">
        <ele>167.8</ele>
        <time>2026-03-20T15:47:46Z</time>
      </trkpt>
      <trkpt lat="48.51506" lon="2.09138">
        <ele>167.6</ele>
        <time>2026-03-20T15:47:47Z</time>
      </trkpt>
      <trkpt lat="48.51508" lon="2.0913">
        <ele>168.2</ele>
        <time>2026-03-20T15:47:48Z</time>
      </trkpt>
      <trkpt lat="48.51509" lon="2.09122">
        <ele>168.2</ele>
        <time>2026-03-20T15:47:49Z</time>
      </trkpt>
      <trkpt lat="48.51511" lon="2.09113">
        <ele>168.2</ele>
        <time>2026-03-20T15:47:50Z</time>
      </trkpt>
      <trkpt lat="48.51512" lon="2.09105">
        <ele>167.4</ele>
        <time>2026-03-20T15:47:51Z</time>
      </trkpt>
      <trkpt lat="48.51513" lon="2.09097">
        <ele>168.4</ele>
        <time>2026-03-20T15:47:52Z</time>
      </trkpt>
      <trkpt lat="48.51515" lon="2.09088">
        <ele>168.4</ele>
        <time>2026-03-20T15:47:53Z</time>
      </trkpt>
      <trkpt lat="48.51516" lon="2.0908">
        <ele>168.4</ele>
        <time>2026-03-20T15:47:54Z</time>
      </trkpt>
      <trkpt lat="48.51518" lon="2.09071">
        <ele>168</ele>
        <time>2026-03-20T15:47:55Z</time>
      </trkpt>
      <trkpt lat="48.51519" lon="2.09063">
        <ele>168.2</ele>
        <time>2026-03-20T15:47:56Z</time>
      </trkpt>
      <trkpt lat="48.5152" lon="2.09055">
        <ele>168.2</ele>
        <time>2026-03-20T15:47:57Z</time>
      </trkpt>
      <trkpt lat="48.51522" lon="2.09046">
        <ele>168.2</ele>
        <time>2026-03-20T15:47:58Z</time>
      </trkpt>
      <trkpt lat="48.51523" lon="2.09037">
        <ele>167.4</ele>
        <time>2026-03-20T15:47:59Z</time>
      </trkpt>
      <trkpt lat="48.51525" lon="2.09029">
        <ele>167.6</ele>
        <time>2026-03-20T15:48:00Z</time>
      </trkpt>
      <trkpt lat="48.51526" lon="2.0902">
        <ele>167.6</ele>
        <time>2026-03-20T15:48:01Z</time>
      </trkpt>
      <trkpt lat="48.51527" lon="2.09011">
        <ele>167.6</ele>
        <time>2026-03-20T15:48:02Z</time>
      </trkpt>
      <trkpt lat="48.51529" lon="2.09002">
        <ele>167.6</ele>
        <time>2026-03-20T15:48:03Z</time>
      </trkpt>
      <trkpt lat="48.5153" lon="2.08993">
        <ele>167.6</ele>
        <time>2026-03-20T15:48:04Z</time>
      </trkpt>
      <trkpt lat="48.51532" lon="2.08985">
        <ele>167.6</ele>
        <time>2026-03-20T15:48:05Z</time>
      </trkpt>
      <trkpt lat="48.51533" lon="2.08976">
        <ele>167.6</ele>
        <time>2026-03-20T15:48:06Z</time>
      </trkpt>
      <trkpt lat="48.51535" lon="2.08967">
        <ele>167.6</ele>
        <time>2026-03-20T15:48:07Z</time>
      </trkpt>
      <trkpt lat="48.51536" lon="2.08958">
        <ele>167.8</ele>
        <time>2026-03-20T15:48:08Z</time>
      </trkpt>
      <trkpt lat="48.51538" lon="2.08949">
        <ele>167.8</ele>
        <time>2026-03-20T15:48:09Z</time>
      </trkpt>
      <trkpt lat="48.51539" lon="2.0894">
        <ele>167.8</ele>
        <time>2026-03-20T15:48:10Z</time>
      </trkpt>
      <trkpt lat="48.5154" lon="2.08931">
        <ele>168.6</ele>
        <time>2026-03-20T15:48:11Z</time>
      </trkpt>
      <trkpt lat="48.51542" lon="2.08922">
        <ele>168.2</ele>
        <time>2026-03-20T15:48:12Z</time>
      </trkpt>
      <trkpt lat="48.51543" lon="2.08913">
        <ele>168.2</ele>
        <time>2026-03-20T15:48:13Z</time>
      </trkpt>
      <trkpt lat="48.51545" lon="2.08904">
        <ele>168.2</ele>
        <time>2026-03-20T15:48:14Z</time>
      </trkpt>
      <trkpt lat="48.51546" lon="2.08895">
        <ele>168.4</ele>
        <time>2026-03-20T15:48:15Z</time>
      </trkpt>
      <trkpt lat="48.51547" lon="2.08886">
        <ele>168.4</ele>
        <time>2026-03-20T15:48:16Z</time>
      </trkpt>
      <trkpt lat="48.51549" lon="2.08877">
        <ele>168.4</ele>
        <time>2026-03-20T15:48:17Z</time>
      </trkpt>
      <trkpt lat="48.5155" lon="2.08868">
        <ele>168.4</ele>
        <time>2026-03-20T15:48:18Z</time>
      </trkpt>
      <trkpt lat="48.51552" lon="2.08859">
        <ele>168.8</ele>
        <time>2026-03-20T15:48:19Z</time>
      </trkpt>
      <trkpt lat="48.51553" lon="2.0885">
        <ele>168.6</ele>
        <time>2026-03-20T15:48:20Z</time>
      </trkpt>
      <trkpt lat="48.51555" lon="2.08841">
        <ele>168.6</ele>
        <time>2026-03-20T15:48:21Z</time>
      </trkpt>
      <trkpt lat="48.51556" lon="2.08832">
        <ele>168.6</ele>
        <time>2026-03-20T15:48:22Z</time>
      </trkpt>
      <trkpt lat="48.51558" lon="2.08823">
        <ele>168.6</ele>
        <time>2026-03-20T15:48:23Z</time>
      </trkpt>
      <trkpt lat="48.51559" lon="2.08815">
        <ele>169</ele>
        <time>2026-03-20T15:48:24Z</time>
      </trkpt>
      <trkpt lat="48.51561" lon="2.08806">
        <ele>169</ele>
        <time>2026-03-20T15:48:25Z</time>
      </trkpt>
      <trkpt lat="48.51562" lon="2.08798">
        <ele>169</ele>
        <time>2026-03-20T15:48:26Z</time>
      </trkpt>
      <trkpt lat="48.51564" lon="2.08789">
        <ele>169</ele>
        <time>2026-03-20T15:48:27Z</time>
      </trkpt>
      <trkpt lat="48.51565" lon="2.0878">
        <ele>168.6</ele>
        <time>2026-03-20T15:48:28Z</time>
      </trkpt>
      <trkpt lat="48.51567" lon="2.08771">
        <ele>168.6</ele>
        <time>2026-03-20T15:48:29Z</time>
      </trkpt>
      <trkpt lat="48.51569" lon="2.08762">
        <ele>168.6</ele>
        <time>2026-03-20T15:48:30Z</time>
      </trkpt>
      <trkpt lat="48.51571" lon="2.08754">
        <ele>168.6</ele>
        <time>2026-03-20T15:48:31Z</time>
      </trkpt>
      <trkpt lat="48.51573" lon="2.08745">
        <ele>168.8</ele>
        <time>2026-03-20T15:48:32Z</time>
      </trkpt>
      <trkpt lat="48.51574" lon="2.08736">
        <ele>168.8</ele>
        <time>2026-03-20T15:48:33Z</time>
      </trkpt>
      <trkpt lat="48.51576" lon="2.08727">
        <ele>168.8</ele>
        <time>2026-03-20T15:48:34Z</time>
      </trkpt>
      <trkpt lat="48.51578" lon="2.08718">
        <ele>169.2</ele>
        <time>2026-03-20T15:48:35Z</time>
      </trkpt>
      <trkpt lat="48.5158" lon="2.08708">
        <ele>169.2</ele>
        <time>2026-03-20T15:48:36Z</time>
      </trkpt>
      <trkpt lat="48.51582" lon="2.08699">
        <ele>169.2</ele>
        <time>2026-03-20T15:48:37Z</time>
      </trkpt>
      <trkpt lat="48.51584" lon="2.0869">
        <ele>169.2</ele>
        <time>2026-03-20T15:48:38Z</time>
      </trkpt>
      <trkpt lat="48.51586" lon="2.08681">
        <ele>170</ele>
        <time>2026-03-20T15:48:39Z</time>
      </trkpt>
      <trkpt lat="48.51588" lon="2.08671">
        <ele>170.4</ele>
        <time>2026-03-20T15:48:40Z</time>
      </trkpt>
      <trkpt lat="48.5159" lon="2.08662">
        <ele>170.4</ele>
        <time>2026-03-20T15:48:41Z</time>
      </trkpt>
      <trkpt lat="48.51592" lon="2.08653">
        <ele>170.4</ele>
        <time>2026-03-20T15:48:42Z</time>
      </trkpt>
      <trkpt lat="48.51594" lon="2.08644">
        <ele>169.4</ele>
        <time>2026-03-20T15:48:43Z</time>
      </trkpt>
      <trkpt lat="48.51596" lon="2.08635">
        <ele>169</ele>
        <time>2026-03-20T15:48:44Z</time>
      </trkpt>
      <trkpt lat="48.51598" lon="2.08625">
        <ele>169</ele>
        <time>2026-03-20T15:48:45Z</time>
      </trkpt>
      <trkpt lat="48.51599" lon="2.08616">
        <ele>169</ele>
        <time>2026-03-20T15:48:46Z</time>
      </trkpt>
      <trkpt lat="48.51601" lon="2.08607">
        <ele>169</ele>
        <time>2026-03-20T15:48:47Z</time>
      </trkpt>
      <trkpt lat="48.51603" lon="2.08598">
        <ele>169.6</ele>
        <time>2026-03-20T15:48:48Z</time>
      </trkpt>
      <trkpt lat="48.51605" lon="2.08589">
        <ele>169.6</ele>
        <time>2026-03-20T15:48:49Z</time>
      </trkpt>
      <trkpt lat="48.51607" lon="2.0858">
        <ele>169.6</ele>
        <time>2026-03-20T15:48:50Z</time>
      </trkpt>
      <trkpt lat="48.51609" lon="2.08571">
        <ele>169.6</ele>
        <time>2026-03-20T15:48:51Z</time>
      </trkpt>
      <trkpt lat="48.51611" lon="2.08562">
        <ele>169.6</ele>
        <time>2026-03-20T15:48:52Z</time>
      </trkpt>
      <trkpt lat="48.51613" lon="2.08553">
        <ele>169.6</ele>
        <time>2026-03-20T15:48:53Z</time>
      </trkpt>
      <trkpt lat="48.51615" lon="2.08544">
        <ele>169.6</ele>
        <time>2026-03-20T15:48:54Z</time>
      </trkpt>
      <trkpt lat="48.51617" lon="2.08536">
        <ele>169.6</ele>
        <time>2026-03-20T15:48:55Z</time>
      </trkpt>
      <trkpt lat="48.51619" lon="2.08527">
        <ele>170.4</ele>
        <time>2026-03-20T15:48:56Z</time>
      </trkpt>
      <trkpt lat="48.51621" lon="2.08518">
        <ele>170.4</ele>
        <time>2026-03-20T15:48:57Z</time>
      </trkpt>
      <trkpt lat="48.51623" lon="2.08509">
        <ele>170.4</ele>
        <time>2026-03-20T15:48:58Z</time>
      </trkpt>
      <trkpt lat="48.51625" lon="2.085">
        <ele>170.4</ele>
        <time>2026-03-20T15:48:59Z</time>
      </trkpt>
      <trkpt lat="48.51627" lon="2.08491">
        <ele>170.2</ele>
        <time>2026-03-20T15:49:00Z</time>
      </trkpt>
      <trkpt lat="48.51629" lon="2.08482">
        <ele>170.2</ele>
        <time>2026-03-20T15:49:01Z</time>
      </trkpt>
      <trkpt lat="48.51631" lon="2.08473">
        <ele>170.2</ele>
        <time>2026-03-20T15:49:02Z</time>
      </trkpt>
      <trkpt lat="48.51633" lon="2.08464">
        <ele>170.6</ele>
        <time>2026-03-20T15:49:03Z</time>
      </trkpt>
      <trkpt lat="48.51635" lon="2.08455">
        <ele>170.6</ele>
        <time>2026-03-20T15:49:04Z</time>
      </trkpt>
      <trkpt lat="48.51637" lon="2.08445">
        <ele>170.6</ele>
        <time>2026-03-20T15:49:05Z</time>
      </trkpt>
      <trkpt lat="48.51639" lon="2.08436">
        <ele>170.6</ele>
        <time>2026-03-20T15:49:06Z</time>
      </trkpt>
      <trkpt lat="48.51641" lon="2.08427">
        <ele>170.6</ele>
        <time>2026-03-20T15:49:07Z</time>
      </trkpt>
      <trkpt lat="48.51643" lon="2.08418">
        <ele>170.8</ele>
        <time>2026-03-20T15:49:08Z</time>
      </trkpt>
      <trkpt lat="48.51645" lon="2.08408">
        <ele>170.8</ele>
        <time>2026-03-20T15:49:09Z</time>
      </trkpt>
      <trkpt lat="48.51647" lon="2.08399">
        <ele>170.8</ele>
        <time>2026-03-20T15:49:10Z</time>
      </trkpt>
      <trkpt lat="48.51649" lon="2.08389">
        <ele>169.8</ele>
        <time>2026-03-20T15:49:11Z</time>
      </trkpt>
      <trkpt lat="48.51651" lon="2.0838">
        <ele>170.2</ele>
        <time>2026-03-20T15:49:12Z</time>
      </trkpt>
      <trkpt lat="48.51652" lon="2.08371">
        <ele>170.2</ele>
        <time>2026-03-20T15:49:13Z</time>
      </trkpt>
      <trkpt lat="48.51654" lon="2.08361">
        <ele>170.2</ele>
        <time>2026-03-20T15:49:14Z</time>
      </trkpt>
      <trkpt lat="48.51656" lon="2.08352">
        <ele>170.2</ele>
        <time>2026-03-20T15:49:15Z</time>
      </trkpt>
      <trkpt lat="48.51659" lon="2.08343">
        <ele>170.8</ele>
        <time>2026-03-20T15:49:16Z</time>
      </trkpt>
      <trkpt lat="48.51661" lon="2.08333">
        <ele>170.8</ele>
        <time>2026-03-20T15:49:17Z</time>
      </trkpt>
      <trkpt lat="48.51663" lon="2.08324">
        <ele>170.8</ele>
        <time>2026-03-20T15:49:18Z</time>
      </trkpt>
      <trkpt lat="48.51665" lon="2.08314">
        <ele>170.6</ele>
        <time>2026-03-20T15:49:19Z</time>
      </trkpt>
      <trkpt lat="48.51666" lon="2.08304">
        <ele>171</ele>
        <time>2026-03-20T15:49:20Z</time>
      </trkpt>
      <trkpt lat="48.51668" lon="2.08294">
        <ele>171</ele>
        <time>2026-03-20T15:49:21Z</time>
      </trkpt>
      <trkpt lat="48.5167" lon="2.08285">
        <ele>171</ele>
        <time>2026-03-20T15:49:22Z</time>
      </trkpt>
      <trkpt lat="48.51671" lon="2.08275">
        <ele>170</ele>
        <time>2026-03-20T15:49:23Z</time>
      </trkpt>
      <trkpt lat="48.51672" lon="2.08264">
        <ele>169.6</ele>
        <time>2026-03-20T15:49:24Z</time>
      </trkpt>
      <trkpt lat="48.51673" lon="2.08254">
        <ele>169.6</ele>
        <time>2026-03-20T15:49:25Z</time>
      </trkpt>
      <trkpt lat="48.51675" lon="2.08244">
        <ele>169.6</ele>
        <time>2026-03-20T15:49:26Z</time>
      </trkpt>
      <trkpt lat="48.51676" lon="2.08234">
        <ele>170</ele>
        <time>2026-03-20T15:49:27Z</time>
      </trkpt>
      <trkpt lat="48.51677" lon="2.08224">
        <ele>169.8</ele>
        <time>2026-03-20T15:49:28Z</time>
      </trkpt>
      <trkpt lat="48.51678" lon="2.08214">
        <ele>169.8</ele>
        <time>2026-03-20T15:49:29Z</time>
      </trkpt>
      <trkpt lat="48.5168" lon="2.08205">
        <ele>169.8</ele>
        <time>2026-03-20T15:49:30Z</time>
      </trkpt>
      <trkpt lat="48.51681" lon="2.08195">
        <ele>169.8</ele>
        <time>2026-03-20T15:49:31Z</time>
      </trkpt>
      <trkpt lat="48.51682" lon="2.08186">
        <ele>169.8</ele>
        <time>2026-03-20T15:49:32Z</time>
      </trkpt>
      <trkpt lat="48.51683" lon="2.08176">
        <ele>169.8</ele>
        <time>2026-03-20T15:49:33Z</time>
      </trkpt>
      <trkpt lat="48.51684" lon="2.08167">
        <ele>169.8</ele>
        <time>2026-03-20T15:49:34Z</time>
      </trkpt>
      <trkpt lat="48.51686" lon="2.08158">
        <ele>169.8</ele>
        <time>2026-03-20T15:49:35Z</time>
      </trkpt>
      <trkpt lat="48.51687" lon="2.08149">
        <ele>169.4</ele>
        <time>2026-03-20T15:49:36Z</time>
      </trkpt>
      <trkpt lat="48.51689" lon="2.08139">
        <ele>169.4</ele>
        <time>2026-03-20T15:49:37Z</time>
      </trkpt>
      <trkpt lat="48.5169" lon="2.0813">
        <ele>169.4</ele>
        <time>2026-03-20T15:49:38Z</time>
      </trkpt>
      <trkpt lat="48.51691" lon="2.08122">
        <ele>169.4</ele>
        <time>2026-03-20T15:49:39Z</time>
      </trkpt>
      <trkpt lat="48.51692" lon="2.08112">
        <ele>169.4</ele>
        <time>2026-03-20T15:49:40Z</time>
      </trkpt>
      <trkpt lat="48.51694" lon="2.08103">
        <ele>169.4</ele>
        <time>2026-03-20T15:49:41Z</time>
      </trkpt>
      <trkpt lat="48.51695" lon="2.08094">
        <ele>169.4</ele>
        <time>2026-03-20T15:49:42Z</time>
      </trkpt>
      <trkpt lat="48.51696" lon="2.08084">
        <ele>170.4</ele>
        <time>2026-03-20T15:49:43Z</time>
      </trkpt>
      <trkpt lat="48.51698" lon="2.08074">
        <ele>170.2</ele>
        <time>2026-03-20T15:49:44Z</time>
      </trkpt>
      <trkpt lat="48.51699" lon="2.08064">
        <ele>170.2</ele>
        <time>2026-03-20T15:49:45Z</time>
      </trkpt>
      <trkpt lat="48.51701" lon="2.08054">
        <ele>170.2</ele>
        <time>2026-03-20T15:49:46Z</time>
      </trkpt>
      <trkpt lat="48.51702" lon="2.08044">
        <ele>170.2</ele>
        <time>2026-03-20T15:49:47Z</time>
      </trkpt>
      <trkpt lat="48.51703" lon="2.08034">
        <ele>170.2</ele>
        <time>2026-03-20T15:49:48Z</time>
      </trkpt>
      <trkpt lat="48.51705" lon="2.08024">
        <ele>170.2</ele>
        <time>2026-03-20T15:49:49Z</time>
      </trkpt>
      <trkpt lat="48.51706" lon="2.08013">
        <ele>170.2</ele>
        <time>2026-03-20T15:49:50Z</time>
      </trkpt>
      <trkpt lat="48.51707" lon="2.08003">
        <ele>169.2</ele>
        <time>2026-03-20T15:49:51Z</time>
      </trkpt>
      <trkpt lat="48.51709" lon="2.07993">
        <ele>168.6</ele>
        <time>2026-03-20T15:49:52Z</time>
      </trkpt>
      <trkpt lat="48.5171" lon="2.07982">
        <ele>168.6</ele>
        <time>2026-03-20T15:49:53Z</time>
      </trkpt>
      <trkpt lat="48.51712" lon="2.07972">
        <ele>168.6</ele>
        <time>2026-03-20T15:49:54Z</time>
      </trkpt>
      <trkpt lat="48.51713" lon="2.07962">
        <ele>169.4</ele>
        <time>2026-03-20T15:49:55Z</time>
      </trkpt>
      <trkpt lat="48.51715" lon="2.07951">
        <ele>168.6</ele>
        <time>2026-03-20T15:49:56Z</time>
      </trkpt>
      <trkpt lat="48.51716" lon="2.07941">
        <ele>168.6</ele>
        <time>2026-03-20T15:49:57Z</time>
      </trkpt>
      <trkpt lat="48.51718" lon="2.0793">
        <ele>168.6</ele>
        <time>2026-03-20T15:49:58Z</time>
      </trkpt>
      <trkpt lat="48.51719" lon="2.07919">
        <ele>168.6</ele>
        <time>2026-03-20T15:49:59Z</time>
      </trkpt>
      <trkpt lat="48.5172" lon="2.07907">
        <ele>168.6</ele>
        <time>2026-03-20T15:50:00Z</time>
      </trkpt>
      <trkpt lat="48.51722" lon="2.07896">
        <ele>168.6</ele>
        <time>2026-03-20T15:50:01Z</time>
      </trkpt>
      <trkpt lat="48.51722" lon="2.07885">
        <ele>168.6</ele>
        <time>2026-03-20T15:50:02Z</time>
      </trkpt>
      <trkpt lat="48.51723" lon="2.07873">
        <ele>168.6</ele>
        <time>2026-03-20T15:50:03Z</time>
      </trkpt>
      <trkpt lat="48.51724" lon="2.07862">
        <ele>167.2</ele>
        <time>2026-03-20T15:50:04Z</time>
      </trkpt>
      <trkpt lat="48.51725" lon="2.0785">
        <ele>167.2</ele>
        <time>2026-03-20T15:50:05Z</time>
      </trkpt>
      <trkpt lat="48.51726" lon="2.07839">
        <ele>167.2</ele>
        <time>2026-03-20T15:50:06Z</time>
      </trkpt>
      <trkpt lat="48.51726" lon="2.07827">
        <ele>168</ele>
        <time>2026-03-20T15:50:07Z</time>
      </trkpt>
      <trkpt lat="48.51727" lon="2.07815">
        <ele>168.6</ele>
        <time>2026-03-20T15:50:08Z</time>
      </trkpt>
      <trkpt lat="48.51728" lon="2.07803">
        <ele>168.6</ele>
        <time>2026-03-20T15:50:09Z</time>
      </trkpt>
      <trkpt lat="48.51728" lon="2.07791">
        <ele>168.6</ele>
        <time>2026-03-20T15:50:10Z</time>
      </trkpt>
      <trkpt lat="48.51729" lon="2.07779">
        <ele>168.6</ele>
        <time>2026-03-20T15:50:11Z</time>
      </trkpt>
      <trkpt lat="48.5173" lon="2.07768">
        <ele>168.2</ele>
        <time>2026-03-20T15:50:12Z</time>
      </trkpt>
      <trkpt lat="48.5173" lon="2.07756">
        <ele>168.2</ele>
        <time>2026-03-20T15:50:13Z</time>
      </trkpt>
      <trkpt lat="48.51731" lon="2.07744">
        <ele>168.2</ele>
        <time>2026-03-20T15:50:14Z</time>
      </trkpt>
      <trkpt lat="48.51732" lon="2.07733">
        <ele>168.2</ele>
        <time>2026-03-20T15:50:15Z</time>
      </trkpt>
      <trkpt lat="48.51732" lon="2.07721">
        <ele>168</ele>
        <time>2026-03-20T15:50:16Z</time>
      </trkpt>
      <trkpt lat="48.51733" lon="2.07709">
        <ele>168</ele>
        <time>2026-03-20T15:50:17Z</time>
      </trkpt>
      <trkpt lat="48.51734" lon="2.07698">
        <ele>168</ele>
        <time>2026-03-20T15:50:18Z</time>
      </trkpt>
      <trkpt lat="48.51734" lon="2.07686">
        <ele>167.6</ele>
        <time>2026-03-20T15:50:19Z</time>
      </trkpt>
      <trkpt lat="48.51735" lon="2.07674">
        <ele>168</ele>
        <time>2026-03-20T15:50:20Z</time>
      </trkpt>
      <trkpt lat="48.51736" lon="2.07663">
        <ele>168</ele>
        <time>2026-03-20T15:50:21Z</time>
      </trkpt>
      <trkpt lat="48.51736" lon="2.07651">
        <ele>168</ele>
        <time>2026-03-20T15:50:22Z</time>
      </trkpt>
      <trkpt lat="48.51737" lon="2.0764">
        <ele>167.8</ele>
        <time>2026-03-20T15:50:23Z</time>
      </trkpt>
      <trkpt lat="48.51738" lon="2.07628">
        <ele>167.4</ele>
        <time>2026-03-20T15:50:24Z</time>
      </trkpt>
      <trkpt lat="48.51738" lon="2.07617">
        <ele>167.4</ele>
        <time>2026-03-20T15:50:25Z</time>
      </trkpt>
      <trkpt lat="48.51739" lon="2.07605">
        <ele>167.4</ele>
        <time>2026-03-20T15:50:26Z</time>
      </trkpt>
      <trkpt lat="48.5174" lon="2.07593">
        <ele>166.4</ele>
        <time>2026-03-20T15:50:27Z</time>
      </trkpt>
      <trkpt lat="48.5174" lon="2.07581">
        <ele>166.6</ele>
        <time>2026-03-20T15:50:28Z</time>
      </trkpt>
      <trkpt lat="48.51741" lon="2.0757">
        <ele>166.6</ele>
        <time>2026-03-20T15:50:29Z</time>
      </trkpt>
      <trkpt lat="48.51741" lon="2.07558">
        <ele>166.6</ele>
        <time>2026-03-20T15:50:30Z</time>
      </trkpt>
      <trkpt lat="48.51741" lon="2.07547">
        <ele>165.8</ele>
        <time>2026-03-20T15:50:31Z</time>
      </trkpt>
      <trkpt lat="48.51741" lon="2.07535">
        <ele>166</ele>
        <time>2026-03-20T15:50:32Z</time>
      </trkpt>
      <trkpt lat="48.51741" lon="2.07523">
        <ele>166</ele>
        <time>2026-03-20T15:50:33Z</time>
      </trkpt>
      <trkpt lat="48.5174" lon="2.07511">
        <ele>166</ele>
        <time>2026-03-20T15:50:34Z</time>
      </trkpt>
      <trkpt lat="48.51739" lon="2.075">
        <ele>166.6</ele>
        <time>2026-03-20T15:50:35Z</time>
      </trkpt>
      <trkpt lat="48.51738" lon="2.07488">
        <ele>166.4</ele>
        <time>2026-03-20T15:50:36Z</time>
      </trkpt>
      <trkpt lat="48.51737" lon="2.07477">
        <ele>166.4</ele>
        <time>2026-03-20T15:50:37Z</time>
      </trkpt>
      <trkpt lat="48.51736" lon="2.07465">
        <ele>166.4</ele>
        <time>2026-03-20T15:50:38Z</time>
      </trkpt>
      <trkpt lat="48.51734" lon="2.07453">
        <ele>166</ele>
        <time>2026-03-20T15:50:39Z</time>
      </trkpt>
      <trkpt lat="48.51733" lon="2.07441">
        <ele>166.8</ele>
        <time>2026-03-20T15:50:40Z</time>
      </trkpt>
      <trkpt lat="48.51732" lon="2.07429">
        <ele>166.8</ele>
        <time>2026-03-20T15:50:41Z</time>
      </trkpt>
      <trkpt lat="48.51731" lon="2.07417">
        <ele>166.8</ele>
        <time>2026-03-20T15:50:42Z</time>
      </trkpt>
      <trkpt lat="48.51729" lon="2.07405">
        <ele>166.8</ele>
        <time>2026-03-20T15:50:43Z</time>
      </trkpt>
      <trkpt lat="48.51727" lon="2.07392">
        <ele>164.6</ele>
        <time>2026-03-20T15:50:44Z</time>
      </trkpt>
      <trkpt lat="48.51725" lon="2.07379">
        <ele>164.6</ele>
        <time>2026-03-20T15:50:45Z</time>
      </trkpt>
      <trkpt lat="48.51724" lon="2.07365">
        <ele>164.6</ele>
        <time>2026-03-20T15:50:46Z</time>
      </trkpt>
      <trkpt lat="48.51722" lon="2.07352">
        <ele>163.8</ele>
        <time>2026-03-20T15:50:47Z</time>
      </trkpt>
      <trkpt lat="48.51721" lon="2.07338">
        <ele>164</ele>
        <time>2026-03-20T15:50:48Z</time>
      </trkpt>
      <trkpt lat="48.51719" lon="2.07324">
        <ele>164</ele>
        <time>2026-03-20T15:50:49Z</time>
      </trkpt>
      <trkpt lat="48.51718" lon="2.0731">
        <ele>164</ele>
        <time>2026-03-20T15:50:50Z</time>
      </trkpt>
      <trkpt lat="48.51716" lon="2.07296">
        <ele>163</ele>
        <time>2026-03-20T15:50:51Z</time>
      </trkpt>
      <trkpt lat="48.51715" lon="2.07283">
        <ele>162.4</ele>
        <time>2026-03-20T15:50:52Z</time>
      </trkpt>
      <trkpt lat="48.51713" lon="2.07269">
        <ele>162.4</ele>
        <time>2026-03-20T15:50:53Z</time>
      </trkpt>
      <trkpt lat="48.51712" lon="2.07255">
        <ele>162.4</ele>
        <time>2026-03-20T15:50:54Z</time>
      </trkpt>
      <trkpt lat="48.5171" lon="2.07241">
        <ele>161.4</ele>
        <time>2026-03-20T15:50:55Z</time>
      </trkpt>
      <trkpt lat="48.51708" lon="2.07228">
        <ele>161</ele>
        <time>2026-03-20T15:50:56Z</time>
      </trkpt>
      <trkpt lat="48.51707" lon="2.07214">
        <ele>161</ele>
        <time>2026-03-20T15:50:57Z</time>
      </trkpt>
      <trkpt lat="48.51705" lon="2.072">
        <ele>161</ele>
        <time>2026-03-20T15:50:58Z</time>
      </trkpt>
      <trkpt lat="48.51703" lon="2.07186">
        <ele>160.4</ele>
        <time>2026-03-20T15:50:59Z</time>
      </trkpt>
      <trkpt lat="48.51702" lon="2.07172">
        <ele>160</ele>
        <time>2026-03-20T15:51:00Z</time>
      </trkpt>
      <trkpt lat="48.517" lon="2.07158">
        <ele>160</ele>
        <time>2026-03-20T15:51:01Z</time>
      </trkpt>
      <trkpt lat="48.51699" lon="2.07145">
        <ele>160</ele>
        <time>2026-03-20T15:51:02Z</time>
      </trkpt>
      <trkpt lat="48.51697" lon="2.07131">
        <ele>160</ele>
        <time>2026-03-20T15:51:03Z</time>
      </trkpt>
      <trkpt lat="48.51695" lon="2.07118">
        <ele>159.8</ele>
        <time>2026-03-20T15:51:04Z</time>
      </trkpt>
      <trkpt lat="48.51694" lon="2.07104">
        <ele>159.8</ele>
        <time>2026-03-20T15:51:05Z</time>
      </trkpt>
      <trkpt lat="48.51692" lon="2.07091">
        <ele>159.8</ele>
        <time>2026-03-20T15:51:06Z</time>
      </trkpt>
      <trkpt lat="48.51691" lon="2.07078">
        <ele>159.8</ele>
        <time>2026-03-20T15:51:07Z</time>
      </trkpt>
      <trkpt lat="48.51689" lon="2.07065">
        <ele>160.6</ele>
        <time>2026-03-20T15:51:08Z</time>
      </trkpt>
      <trkpt lat="48.51688" lon="2.07052">
        <ele>160.6</ele>
        <time>2026-03-20T15:51:09Z</time>
      </trkpt>
      <trkpt lat="48.51686" lon="2.07039">
        <ele>160.6</ele>
        <time>2026-03-20T15:51:10Z</time>
      </trkpt>
      <trkpt lat="48.51685" lon="2.07025">
        <ele>161.6</ele>
        <time>2026-03-20T15:51:11Z</time>
      </trkpt>
      <trkpt lat="48.51684" lon="2.07012">
        <ele>162.8</ele>
        <time>2026-03-20T15:51:12Z</time>
      </trkpt>
      <trkpt lat="48.51683" lon="2.07">
        <ele>162.8</ele>
        <time>2026-03-20T15:51:13Z</time>
      </trkpt>
      <trkpt lat="48.51683" lon="2.06987">
        <ele>162.8</ele>
        <time>2026-03-20T15:51:14Z</time>
      </trkpt>
      <trkpt lat="48.51682" lon="2.06975">
        <ele>162.8</ele>
        <time>2026-03-20T15:51:15Z</time>
      </trkpt>
      <trkpt lat="48.51682" lon="2.06963">
        <ele>163.4</ele>
        <time>2026-03-20T15:51:16Z</time>
      </trkpt>
      <trkpt lat="48.51683" lon="2.06951">
        <ele>163.4</ele>
        <time>2026-03-20T15:51:17Z</time>
      </trkpt>
      <trkpt lat="48.51683" lon="2.06939">
        <ele>163.4</ele>
        <time>2026-03-20T15:51:18Z</time>
      </trkpt>
      <trkpt lat="48.51683" lon="2.06927">
        <ele>163.4</ele>
        <time>2026-03-20T15:51:19Z</time>
      </trkpt>
      <trkpt lat="48.51683" lon="2.06916">
        <ele>163.8</ele>
        <time>2026-03-20T15:51:20Z</time>
      </trkpt>
      <trkpt lat="48.51683" lon="2.06904">
        <ele>163.8</ele>
        <time>2026-03-20T15:51:21Z</time>
      </trkpt>
      <trkpt lat="48.51683" lon="2.06893">
        <ele>163.8</ele>
        <time>2026-03-20T15:51:22Z</time>
      </trkpt>
      <trkpt lat="48.51682" lon="2.06881">
        <ele>163.8</ele>
        <time>2026-03-20T15:51:23Z</time>
      </trkpt>
      <trkpt lat="48.51682" lon="2.0687">
        <ele>164</ele>
        <time>2026-03-20T15:51:24Z</time>
      </trkpt>
      <trkpt lat="48.51682" lon="2.06858">
        <ele>164</ele>
        <time>2026-03-20T15:51:25Z</time>
      </trkpt>
      <trkpt lat="48.51682" lon="2.06846">
        <ele>164</ele>
        <time>2026-03-20T15:51:26Z</time>
      </trkpt>
      <trkpt lat="48.51682" lon="2.06835">
        <ele>164</ele>
        <time>2026-03-20T15:51:27Z</time>
      </trkpt>
      <trkpt lat="48.51682" lon="2.06823">
        <ele>163.2</ele>
        <time>2026-03-20T15:51:28Z</time>
      </trkpt>
      <trkpt lat="48.51682" lon="2.06811">
        <ele>163.2</ele>
        <time>2026-03-20T15:51:29Z</time>
      </trkpt>
      <trkpt lat="48.51682" lon="2.06799">
        <ele>163.2</ele>
        <time>2026-03-20T15:51:30Z</time>
      </trkpt>
      <trkpt lat="48.51682" lon="2.06787">
        <ele>164.2</ele>
        <time>2026-03-20T15:51:31Z</time>
      </trkpt>
      <trkpt lat="48.51683" lon="2.06775">
        <ele>165</ele>
        <time>2026-03-20T15:51:32Z</time>
      </trkpt>
      <trkpt lat="48.51683" lon="2.06764">
        <ele>165</ele>
        <time>2026-03-20T15:51:33Z</time>
      </trkpt>
      <trkpt lat="48.51684" lon="2.06753">
        <ele>165</ele>
        <time>2026-03-20T15:51:34Z</time>
      </trkpt>
      <trkpt lat="48.51684" lon="2.06742">
        <ele>164.6</ele>
        <time>2026-03-20T15:51:35Z</time>
      </trkpt>
      <trkpt lat="48.51685" lon="2.06731">
        <ele>164.6</ele>
        <time>2026-03-20T15:51:36Z</time>
      </trkpt>
      <trkpt lat="48.51686" lon="2.06721">
        <ele>164.6</ele>
        <time>2026-03-20T15:51:37Z</time>
      </trkpt>
      <trkpt lat="48.51687" lon="2.0671">
        <ele>164.6</ele>
        <time>2026-03-20T15:51:38Z</time>
      </trkpt>
      <trkpt lat="48.51687" lon="2.067">
        <ele>164.6</ele>
        <time>2026-03-20T15:51:39Z</time>
      </trkpt>
      <trkpt lat="48.51688" lon="2.0669">
        <ele>165.4</ele>
        <time>2026-03-20T15:51:40Z</time>
      </trkpt>
      <trkpt lat="48.51689" lon="2.0668">
        <ele>165.4</ele>
        <time>2026-03-20T15:51:41Z</time>
      </trkpt>
      <trkpt lat="48.5169" lon="2.0667">
        <ele>165.4</ele>
        <time>2026-03-20T15:51:42Z</time>
      </trkpt>
      <trkpt lat="48.51691" lon="2.06661">
        <ele>165.4</ele>
        <time>2026-03-20T15:51:43Z</time>
      </trkpt>
      <trkpt lat="48.51692" lon="2.06651">
        <ele>165.6</ele>
        <time>2026-03-20T15:51:44Z</time>
      </trkpt>
      <trkpt lat="48.51693" lon="2.06641">
        <ele>165.6</ele>
        <time>2026-03-20T15:51:45Z</time>
      </trkpt>
      <trkpt lat="48.51693" lon="2.06631">
        <ele>165.6</ele>
        <time>2026-03-20T15:51:46Z</time>
      </trkpt>
      <trkpt lat="48.51694" lon="2.06622">
        <ele>165.6</ele>
        <time>2026-03-20T15:51:47Z</time>
      </trkpt>
      <trkpt lat="48.51695" lon="2.06612">
        <ele>165.6</ele>
        <time>2026-03-20T15:51:48Z</time>
      </trkpt>
      <trkpt lat="48.51696" lon="2.06603">
        <ele>165.6</ele>
        <time>2026-03-20T15:51:49Z</time>
      </trkpt>
      <trkpt lat="48.51697" lon="2.06594">
        <ele>165.6</ele>
        <time>2026-03-20T15:51:50Z</time>
      </trkpt>
      <trkpt lat="48.51697" lon="2.06584">
        <ele>165.6</ele>
        <time>2026-03-20T15:51:51Z</time>
      </trkpt>
      <trkpt lat="48.51698" lon="2.06575">
        <ele>166</ele>
        <time>2026-03-20T15:51:52Z</time>
      </trkpt>
      <trkpt lat="48.51699" lon="2.06565">
        <ele>166</ele>
        <time>2026-03-20T15:51:53Z</time>
      </trkpt>
      <trkpt lat="48.517" lon="2.06556">
        <ele>166</ele>
        <time>2026-03-20T15:51:54Z</time>
      </trkpt>
      <trkpt lat="48.51701" lon="2.06546">
        <ele>166</ele>
        <time>2026-03-20T15:51:55Z</time>
      </trkpt>
      <trkpt lat="48.51702" lon="2.06537">
        <ele>166.2</ele>
        <time>2026-03-20T15:51:56Z</time>
      </trkpt>
      <trkpt lat="48.51702" lon="2.06527">
        <ele>166.2</ele>
        <time>2026-03-20T15:51:57Z</time>
      </trkpt>
      <trkpt lat="48.51703" lon="2.06518">
        <ele>166.2</ele>
        <time>2026-03-20T15:51:58Z</time>
      </trkpt>
      <trkpt lat="48.51704" lon="2.06508">
        <ele>166.2</ele>
        <time>2026-03-20T15:51:59Z</time>
      </trkpt>
      <trkpt lat="48.51705" lon="2.06499">
        <ele>166</ele>
        <time>2026-03-20T15:52:00Z</time>
      </trkpt>
      <trkpt lat="48.51706" lon="2.06489">
        <ele>166</ele>
        <time>2026-03-20T15:52:01Z</time>
      </trkpt>
      <trkpt lat="48.51706" lon="2.06479">
        <ele>166</ele>
        <time>2026-03-20T15:52:02Z</time>
      </trkpt>
      <trkpt lat="48.51707" lon="2.06469">
        <ele>166.4</ele>
        <time>2026-03-20T15:52:03Z</time>
      </trkpt>
      <trkpt lat="48.51708" lon="2.0646">
        <ele>166.2</ele>
        <time>2026-03-20T15:52:04Z</time>
      </trkpt>
      <trkpt lat="48.51709" lon="2.0645">
        <ele>166.2</ele>
        <time>2026-03-20T15:52:05Z</time>
      </trkpt>
      <trkpt lat="48.5171" lon="2.0644">
        <ele>166.2</ele>
        <time>2026-03-20T15:52:06Z</time>
      </trkpt>
      <trkpt lat="48.5171" lon="2.06431">
        <ele>166.2</ele>
        <time>2026-03-20T15:52:07Z</time>
      </trkpt>
      <trkpt lat="48.51711" lon="2.06421">
        <ele>166.6</ele>
        <time>2026-03-20T15:52:08Z</time>
      </trkpt>
      <trkpt lat="48.51712" lon="2.06411">
        <ele>166.6</ele>
        <time>2026-03-20T15:52:09Z</time>
      </trkpt>
      <trkpt lat="48.51713" lon="2.06402">
        <ele>166.6</ele>
        <time>2026-03-20T15:52:10Z</time>
      </trkpt>
      <trkpt lat="48.51714" lon="2.06392">
        <ele>166.6</ele>
        <time>2026-03-20T15:52:11Z</time>
      </trkpt>
      <trkpt lat="48.51715" lon="2.06382">
        <ele>166.8</ele>
        <time>2026-03-20T15:52:12Z</time>
      </trkpt>
      <trkpt lat="48.51716" lon="2.06373">
        <ele>166.8</ele>
        <time>2026-03-20T15:52:13Z</time>
      </trkpt>
      <trkpt lat="48.51716" lon="2.06363">
        <ele>166.8</ele>
        <time>2026-03-20T15:52:14Z</time>
      </trkpt>
      <trkpt lat="48.51717" lon="2.06353">
        <ele>166.6</ele>
        <time>2026-03-20T15:52:15Z</time>
      </trkpt>
      <trkpt lat="48.51718" lon="2.06344">
        <ele>166.6</ele>
        <time>2026-03-20T15:52:16Z</time>
      </trkpt>
      <trkpt lat="48.51719" lon="2.06334">
        <ele>166.6</ele>
        <time>2026-03-20T15:52:17Z</time>
      </trkpt>
      <trkpt lat="48.5172" lon="2.06324">
        <ele>166.6</ele>
        <time>2026-03-20T15:52:18Z</time>
      </trkpt>
      <trkpt lat="48.51721" lon="2.06315">
        <ele>166.6</ele>
        <time>2026-03-20T15:52:19Z</time>
      </trkpt>
      <trkpt lat="48.51721" lon="2.06305">
        <ele>166.2</ele>
        <time>2026-03-20T15:52:20Z</time>
      </trkpt>
      <trkpt lat="48.51722" lon="2.06295">
        <ele>166.2</ele>
        <time>2026-03-20T15:52:21Z</time>
      </trkpt>
      <trkpt lat="48.51723" lon="2.06286">
        <ele>166.2</ele>
        <time>2026-03-20T15:52:22Z</time>
      </trkpt>
      <trkpt lat="48.51724" lon="2.06276">
        <ele>166.6</ele>
        <time>2026-03-20T15:52:23Z</time>
      </trkpt>
      <trkpt lat="48.51724" lon="2.06266">
        <ele>166.6</ele>
        <time>2026-03-20T15:52:24Z</time>
      </trkpt>
      <trkpt lat="48.51725" lon="2.06257">
        <ele>166.6</ele>
        <time>2026-03-20T15:52:25Z</time>
      </trkpt>
      <trkpt lat="48.51726" lon="2.06247">
        <ele>166.6</ele>
        <time>2026-03-20T15:52:26Z</time>
      </trkpt>
      <trkpt lat="48.51727" lon="2.06237">
        <ele>166.6</ele>
        <time>2026-03-20T15:52:27Z</time>
      </trkpt>
      <trkpt lat="48.51728" lon="2.06228">
        <ele>166.8</ele>
        <time>2026-03-20T15:52:28Z</time>
      </trkpt>
      <trkpt lat="48.51729" lon="2.06218">
        <ele>166.8</ele>
        <time>2026-03-20T15:52:29Z</time>
      </trkpt>
      <trkpt lat="48.5173" lon="2.06208">
        <ele>166.8</ele>
        <time>2026-03-20T15:52:30Z</time>
      </trkpt>
      <trkpt lat="48.51731" lon="2.06198">
        <ele>166.8</ele>
        <time>2026-03-20T15:52:31Z</time>
      </trkpt>
      <trkpt lat="48.51731" lon="2.06189">
        <ele>167.4</ele>
        <time>2026-03-20T15:52:32Z</time>
      </trkpt>
      <trkpt lat="48.51732" lon="2.06179">
        <ele>167.4</ele>
        <time>2026-03-20T15:52:33Z</time>
      </trkpt>
      <trkpt lat="48.51733" lon="2.06169">
        <ele>167.4</ele>
        <time>2026-03-20T15:52:34Z</time>
      </trkpt>
      <trkpt lat="48.51734" lon="2.06159">
        <ele>167.4</ele>
        <time>2026-03-20T15:52:35Z</time>
      </trkpt>
      <trkpt lat="48.51735" lon="2.0615">
        <ele>166.8</ele>
        <time>2026-03-20T15:52:36Z</time>
      </trkpt>
      <trkpt lat="48.51736" lon="2.0614">
        <ele>166.8</ele>
        <time>2026-03-20T15:52:37Z</time>
      </trkpt>
      <trkpt lat="48.51736" lon="2.06131">
        <ele>166.8</ele>
        <time>2026-03-20T15:52:38Z</time>
      </trkpt>
      <trkpt lat="48.51737" lon="2.06121">
        <ele>167.4</ele>
        <time>2026-03-20T15:52:39Z</time>
      </trkpt>
      <trkpt lat="48.51737" lon="2.06112">
        <ele>167.4</ele>
        <time>2026-03-20T15:52:40Z</time>
      </trkpt>
      <trkpt lat="48.51736" lon="2.06102">
        <ele>167.4</ele>
        <time>2026-03-20T15:52:41Z</time>
      </trkpt>
      <trkpt lat="48.51735" lon="2.06093">
        <ele>167.4</ele>
        <time>2026-03-20T15:52:42Z</time>
      </trkpt>
      <trkpt lat="48.51734" lon="2.06084">
        <ele>168.2</ele>
        <time>2026-03-20T15:52:43Z</time>
      </trkpt>
      <trkpt lat="48.51732" lon="2.06074">
        <ele>167.8</ele>
        <time>2026-03-20T15:52:44Z</time>
      </trkpt>
      <trkpt lat="48.5173" lon="2.06065">
        <ele>167.8</ele>
        <time>2026-03-20T15:52:45Z</time>
      </trkpt>
      <trkpt lat="48.51727" lon="2.06056">
        <ele>167.8</ele>
        <time>2026-03-20T15:52:46Z</time>
      </trkpt>
      <trkpt lat="48.51725" lon="2.06047">
        <ele>167.8</ele>
        <time>2026-03-20T15:52:47Z</time>
      </trkpt>
      <trkpt lat="48.51722" lon="2.06038">
        <ele>167.4</ele>
        <time>2026-03-20T15:52:48Z</time>
      </trkpt>
      <trkpt lat="48.51718" lon="2.0603">
        <ele>167.4</ele>
        <time>2026-03-20T15:52:49Z</time>
      </trkpt>
      <trkpt lat="48.51714" lon="2.06022">
        <ele>167.4</ele>
        <time>2026-03-20T15:52:50Z</time>
      </trkpt>
      <trkpt lat="48.51711" lon="2.06014">
        <ele>167.4</ele>
        <time>2026-03-20T15:52:51Z</time>
      </trkpt>
      <trkpt lat="48.51707" lon="2.06006">
        <ele>166.8</ele>
        <time>2026-03-20T15:52:52Z</time>
      </trkpt>
      <trkpt lat="48.51704" lon="2.05998">
        <ele>166.8</ele>
        <time>2026-03-20T15:52:53Z</time>
      </trkpt>
      <trkpt lat="48.517" lon="2.05989">
        <ele>166.8</ele>
        <time>2026-03-20T15:52:54Z</time>
      </trkpt>
      <trkpt lat="48.51696" lon="2.05981">
        <ele>167</ele>
        <time>2026-03-20T15:52:55Z</time>
      </trkpt>
      <trkpt lat="48.51692" lon="2.05973">
        <ele>167.2</ele>
        <time>2026-03-20T15:52:56Z</time>
      </trkpt>
      <trkpt lat="48.51689" lon="2.05966">
        <ele>167.2</ele>
        <time>2026-03-20T15:52:57Z</time>
      </trkpt>
      <trkpt lat="48.51685" lon="2.05957">
        <ele>167.2</ele>
        <time>2026-03-20T15:52:58Z</time>
      </trkpt>
      <trkpt lat="48.51681" lon="2.05949">
        <ele>167.2</ele>
        <time>2026-03-20T15:52:59Z</time>
      </trkpt>
      <trkpt lat="48.51677" lon="2.05941">
        <ele>166.8</ele>
        <time>2026-03-20T15:53:00Z</time>
      </trkpt>
      <trkpt lat="48.51674" lon="2.05933">
        <ele>166.8</ele>
        <time>2026-03-20T15:53:01Z</time>
      </trkpt>
      <trkpt lat="48.5167" lon="2.05926">
        <ele>166.8</ele>
        <time>2026-03-20T15:53:02Z</time>
      </trkpt>
      <trkpt lat="48.51666" lon="2.05918">
        <ele>167.4</ele>
        <time>2026-03-20T15:53:03Z</time>
      </trkpt>
      <trkpt lat="48.51662" lon="2.0591">
        <ele>167.2</ele>
        <time>2026-03-20T15:53:04Z</time>
      </trkpt>
      <trkpt lat="48.51659" lon="2.05902">
        <ele>167.2</ele>
        <time>2026-03-20T15:53:05Z</time>
      </trkpt>
      <trkpt lat="48.51655" lon="2.05894">
        <ele>167.2</ele>
        <time>2026-03-20T15:53:06Z</time>
      </trkpt>
      <trkpt lat="48.51651" lon="2.05886">
        <ele>168.2</ele>
        <time>2026-03-20T15:53:07Z</time>
      </trkpt>
      <trkpt lat="48.51647" lon="2.05879">
        <ele>168.4</ele>
        <time>2026-03-20T15:53:08Z</time>
      </trkpt>
      <trkpt lat="48.51644" lon="2.05871">
        <ele>168.4</ele>
        <time>2026-03-20T15:53:09Z</time>
      </trkpt>
      <trkpt lat="48.5164" lon="2.05864">
        <ele>168.4</ele>
        <time>2026-03-20T15:53:10Z</time>
      </trkpt>
      <trkpt lat="48.51637" lon="2.05856">
        <ele>168.2</ele>
        <time>2026-03-20T15:53:11Z</time>
      </trkpt>
      <trkpt lat="48.51633" lon="2.05848">
        <ele>167.6</ele>
        <time>2026-03-20T15:53:12Z</time>
      </trkpt>
      <trkpt lat="48.5163" lon="2.05841">
        <ele>167.6</ele>
        <time>2026-03-20T15:53:13Z</time>
      </trkpt>
      <trkpt lat="48.51626" lon="2.05834">
        <ele>167.6</ele>
        <time>2026-03-20T15:53:14Z</time>
      </trkpt>
      <trkpt lat="48.51623" lon="2.05827">
        <ele>168.6</ele>
        <time>2026-03-20T15:53:15Z</time>
      </trkpt>
      <trkpt lat="48.5162" lon="2.0582">
        <ele>168.6</ele>
        <time>2026-03-20T15:53:16Z</time>
      </trkpt>
      <trkpt lat="48.51617" lon="2.05813">
        <ele>168.6</ele>
        <time>2026-03-20T15:53:17Z</time>
      </trkpt>
      <trkpt lat="48.51614" lon="2.05806">
        <ele>168.6</ele>
        <time>2026-03-20T15:53:18Z</time>
      </trkpt>
      <trkpt lat="48.51611" lon="2.05799">
        <ele>168.6</ele>
        <time>2026-03-20T15:53:19Z</time>
      </trkpt>
      <trkpt lat="48.51608" lon="2.05791">
        <ele>169</ele>
        <time>2026-03-20T15:53:20Z</time>
      </trkpt>
      <trkpt lat="48.51606" lon="2.05783">
        <ele>169</ele>
        <time>2026-03-20T15:53:21Z</time>
      </trkpt>
      <trkpt lat="48.51604" lon="2.05775">
        <ele>169</ele>
        <time>2026-03-20T15:53:22Z</time>
      </trkpt>
      <trkpt lat="48.51602" lon="2.05767">
        <ele>169</ele>
        <time>2026-03-20T15:53:23Z</time>
      </trkpt>
      <trkpt lat="48.51601" lon="2.05758">
        <ele>169.2</ele>
        <time>2026-03-20T15:53:24Z</time>
      </trkpt>
      <trkpt lat="48.51601" lon="2.05749">
        <ele>169.2</ele>
        <time>2026-03-20T15:53:25Z</time>
      </trkpt>
      <trkpt lat="48.51602" lon="2.05741">
        <ele>169.2</ele>
        <time>2026-03-20T15:53:26Z</time>
      </trkpt>
      <trkpt lat="48.51603" lon="2.05733">
        <ele>169.2</ele>
        <time>2026-03-20T15:53:27Z</time>
      </trkpt>
      <trkpt lat="48.51606" lon="2.05727">
        <ele>169.6</ele>
        <time>2026-03-20T15:53:28Z</time>
      </trkpt>
      <trkpt lat="48.5161" lon="2.05722">
        <ele>169.6</ele>
        <time>2026-03-20T15:53:29Z</time>
      </trkpt>
      <trkpt lat="48.51615" lon="2.05718">
        <ele>169.6</ele>
        <time>2026-03-20T15:53:30Z</time>
      </trkpt>
      <trkpt lat="48.5162" lon="2.05714">
        <ele>169.6</ele>
        <time>2026-03-20T15:53:31Z</time>
      </trkpt>
      <trkpt lat="48.51625" lon="2.0571">
        <ele>170.2</ele>
        <time>2026-03-20T15:53:32Z</time>
      </trkpt>
      <trkpt lat="48.5163" lon="2.05707">
        <ele>170.2</ele>
        <time>2026-03-20T15:53:33Z</time>
      </trkpt>
      <trkpt lat="48.51635" lon="2.05703">
        <ele>170.2</ele>
        <time>2026-03-20T15:53:34Z</time>
      </trkpt>
      <trkpt lat="48.5164" lon="2.057">
        <ele>170.2</ele>
        <time>2026-03-20T15:53:35Z</time>
      </trkpt>
      <trkpt lat="48.51645" lon="2.05696">
        <ele>170.2</ele>
        <time>2026-03-20T15:53:36Z</time>
      </trkpt>
      <trkpt lat="48.5165" lon="2.05694">
        <ele>170.2</ele>
        <time>2026-03-20T15:53:37Z</time>
      </trkpt>
      <trkpt lat="48.51655" lon="2.05691">
        <ele>170.2</ele>
        <time>2026-03-20T15:53:38Z</time>
      </trkpt>
      <trkpt lat="48.5166" lon="2.05688">
        <ele>170.2</ele>
        <time>2026-03-20T15:53:39Z</time>
      </trkpt>
      <trkpt lat="48.51664" lon="2.05685">
        <ele>170</ele>
        <time>2026-03-20T15:53:40Z</time>
      </trkpt>
      <trkpt lat="48.51669" lon="2.05682">
        <ele>170</ele>
        <time>2026-03-20T15:53:41Z</time>
      </trkpt>
      <trkpt lat="48.51673" lon="2.05679">
        <ele>170</ele>
        <time>2026-03-20T15:53:42Z</time>
      </trkpt>
      <trkpt lat="48.51678" lon="2.05676">
        <ele>170.6</ele>
        <time>2026-03-20T15:53:43Z</time>
      </trkpt>
      <trkpt lat="48.51682" lon="2.05673">
        <ele>171</ele>
        <time>2026-03-20T15:53:44Z</time>
      </trkpt>
      <trkpt lat="48.51685" lon="2.05671">
        <ele>171</ele>
        <time>2026-03-20T15:53:45Z</time>
      </trkpt>
      <trkpt lat="48.51689" lon="2.05669">
        <ele>171</ele>
        <time>2026-03-20T15:53:46Z</time>
      </trkpt>
      <trkpt lat="48.51691" lon="2.05667">
        <ele>171.8</ele>
        <time>2026-03-20T15:53:47Z</time>
      </trkpt>
      <trkpt lat="48.51692" lon="2.05667">
        <ele>171.8</ele>
        <time>2026-03-20T15:53:48Z</time>
      </trkpt>
      <trkpt lat="48.51692" lon="2.05666">
        <ele>171.8</ele>
        <time>2026-03-20T15:53:49Z</time>
      </trkpt>
      <trkpt lat="48.51692" lon="2.05666">
        <ele>171.8</ele>
        <time>2026-03-20T15:53:55Z</time>
      </trkpt>
      <trkpt lat="48.51694" lon="2.05665">
        <ele>172.2</ele>
        <time>2026-03-20T15:53:56Z</time>
      </trkpt>
      <trkpt lat="48.51696" lon="2.05663">
        <ele>172.2</ele>
        <time>2026-03-20T15:53:57Z</time>
      </trkpt>
      <trkpt lat="48.51699" lon="2.05662">
        <ele>172.2</ele>
        <time>2026-03-20T15:53:58Z</time>
      </trkpt>
      <trkpt lat="48.51702" lon="2.0566">
        <ele>172</ele>
        <time>2026-03-20T15:53:59Z</time>
      </trkpt>
      <trkpt lat="48.51705" lon="2.05659">
        <ele>172.4</ele>
        <time>2026-03-20T15:54:00Z</time>
      </trkpt>
      <trkpt lat="48.51708" lon="2.05658">
        <ele>172.4</ele>
        <time>2026-03-20T15:54:01Z</time>
      </trkpt>
      <trkpt lat="48.51711" lon="2.05657">
        <ele>172.4</ele>
        <time>2026-03-20T15:54:02Z</time>
      </trkpt>
      <trkpt lat="48.51714" lon="2.05657">
        <ele>172.2</ele>
        <time>2026-03-20T15:54:03Z</time>
      </trkpt>
      <trkpt lat="48.51717" lon="2.05655">
        <ele>171.8</ele>
        <time>2026-03-20T15:54:04Z</time>
      </trkpt>
      <trkpt lat="48.51721" lon="2.05654">
        <ele>171.8</ele>
        <time>2026-03-20T15:54:05Z</time>
      </trkpt>
      <trkpt lat="48.51725" lon="2.05653">
        <ele>171.8</ele>
        <time>2026-03-20T15:54:06Z</time>
      </trkpt>
      <trkpt lat="48.51729" lon="2.05652">
        <ele>172.4</ele>
        <time>2026-03-20T15:54:07Z</time>
      </trkpt>
      <trkpt lat="48.51733" lon="2.05651">
        <ele>172</ele>
        <time>2026-03-20T15:54:08Z</time>
      </trkpt>
      <trkpt lat="48.51736" lon="2.0565">
        <ele>172</ele>
        <time>2026-03-20T15:54:09Z</time>
      </trkpt>
      <trkpt lat="48.5174" lon="2.05648">
        <ele>172</ele>
        <time>2026-03-20T15:54:10Z</time>
      </trkpt>
      <trkpt lat="48.51744" lon="2.05647">
        <ele>172.2</ele>
        <time>2026-03-20T15:54:11Z</time>
      </trkpt>
      <trkpt lat="48.51747" lon="2.05646">
        <ele>172.4</ele>
        <time>2026-03-20T15:54:12Z</time>
      </trkpt>
      <trkpt lat="48.51751" lon="2.05644">
        <ele>172.4</ele>
        <time>2026-03-20T15:54:13Z</time>
      </trkpt>
      <trkpt lat="48.51754" lon="2.05642">
        <ele>172.4</ele>
        <time>2026-03-20T15:54:14Z</time>
      </trkpt>
      <trkpt lat="48.51758" lon="2.0564">
        <ele>172.4</ele>
        <time>2026-03-20T15:54:15Z</time>
      </trkpt>
      <trkpt lat="48.51762" lon="2.05638">
        <ele>171.6</ele>
        <time>2026-03-20T15:54:16Z</time>
      </trkpt>
      <trkpt lat="48.51765" lon="2.05636">
        <ele>171.6</ele>
        <time>2026-03-20T15:54:17Z</time>
      </trkpt>
      <trkpt lat="48.51769" lon="2.05634">
        <ele>171.6</ele>
        <time>2026-03-20T15:54:18Z</time>
      </trkpt>
      <trkpt lat="48.51773" lon="2.05631">
        <ele>171.6</ele>
        <time>2026-03-20T15:54:19Z</time>
      </trkpt>
      <trkpt lat="48.51777" lon="2.05628">
        <ele>171.6</ele>
        <time>2026-03-20T15:54:20Z</time>
      </trkpt>
      <trkpt lat="48.51781" lon="2.05626">
        <ele>171.6</ele>
        <time>2026-03-20T15:54:21Z</time>
      </trkpt>
      <trkpt lat="48.51785" lon="2.05623">
        <ele>171.6</ele>
        <time>2026-03-20T15:54:22Z</time>
      </trkpt>
      <trkpt lat="48.5179" lon="2.0562">
        <ele>171.2</ele>
        <time>2026-03-20T15:54:23Z</time>
      </trkpt>
      <trkpt lat="48.51794" lon="2.05617">
        <ele>171.2</ele>
        <time>2026-03-20T15:54:24Z</time>
      </trkpt>
      <trkpt lat="48.51798" lon="2.05614">
        <ele>171.2</ele>
        <time>2026-03-20T15:54:25Z</time>
      </trkpt>
      <trkpt lat="48.51802" lon="2.05611">
        <ele>171.2</ele>
        <time>2026-03-20T15:54:26Z</time>
      </trkpt>
      <trkpt lat="48.51807" lon="2.05608">
        <ele>170.8</ele>
        <time>2026-03-20T15:54:27Z</time>
      </trkpt>
      <trkpt lat="48.51812" lon="2.05605">
        <ele>170.4</ele>
        <time>2026-03-20T15:54:28Z</time>
      </trkpt>
      <trkpt lat="48.51817" lon="2.05602">
        <ele>170.4</ele>
        <time>2026-03-20T15:54:29Z</time>
      </trkpt>
      <trkpt lat="48.51822" lon="2.05599">
        <ele>170.4</ele>
        <time>2026-03-20T15:54:30Z</time>
      </trkpt>
      <trkpt lat="48.51827" lon="2.05596">
        <ele>170.4</ele>
        <time>2026-03-20T15:54:31Z</time>
      </trkpt>
      <trkpt lat="48.51832" lon="2.05593">
        <ele>169</ele>
        <time>2026-03-20T15:54:32Z</time>
      </trkpt>
      <trkpt lat="48.51838" lon="2.05589">
        <ele>169</ele>
        <time>2026-03-20T15:54:33Z</time>
      </trkpt>
      <trkpt lat="48.51844" lon="2.05586">
        <ele>169</ele>
        <time>2026-03-20T15:54:34Z</time>
      </trkpt>
      <trkpt lat="48.51849" lon="2.05582">
        <ele>169</ele>
        <time>2026-03-20T15:54:35Z</time>
      </trkpt>
      <trkpt lat="48.51855" lon="2.05578">
        <ele>167.2</ele>
        <time>2026-03-20T15:54:36Z</time>
      </trkpt>
      <trkpt lat="48.51861" lon="2.05573">
        <ele>167.2</ele>
        <time>2026-03-20T15:54:37Z</time>
      </trkpt>
      <trkpt lat="48.51867" lon="2.05568">
        <ele>167.2</ele>
        <time>2026-03-20T15:54:38Z</time>
      </trkpt>
      <trkpt lat="48.51873" lon="2.05564">
        <ele>166.2</ele>
        <time>2026-03-20T15:54:39Z</time>
      </trkpt>
      <trkpt lat="48.51879" lon="2.0556">
        <ele>165</ele>
        <time>2026-03-20T15:54:40Z</time>
      </trkpt>
      <trkpt lat="48.51884" lon="2.05554">
        <ele>165</ele>
        <time>2026-03-20T15:54:41Z</time>
      </trkpt>
      <trkpt lat="48.5189" lon="2.05547">
        <ele>165</ele>
        <time>2026-03-20T15:54:42Z</time>
      </trkpt>
      <trkpt lat="48.51896" lon="2.05539">
        <ele>164</ele>
        <time>2026-03-20T15:54:43Z</time>
      </trkpt>
      <trkpt lat="48.519" lon="2.05529">
        <ele>163</ele>
        <time>2026-03-20T15:54:44Z</time>
      </trkpt>
      <trkpt lat="48.51904" lon="2.05519">
        <ele>163</ele>
        <time>2026-03-20T15:54:45Z</time>
      </trkpt>
      <trkpt lat="48.51907" lon="2.05508">
        <ele>163</ele>
        <time>2026-03-20T15:54:46Z</time>
      </trkpt>
      <trkpt lat="48.51908" lon="2.05496">
        <ele>162</ele>
        <time>2026-03-20T15:54:47Z</time>
      </trkpt>
      <trkpt lat="48.51908" lon="2.05483">
        <ele>159.8</ele>
        <time>2026-03-20T15:54:48Z</time>
      </trkpt>
      <trkpt lat="48.51908" lon="2.0547">
        <ele>159.8</ele>
        <time>2026-03-20T15:54:49Z</time>
      </trkpt>
      <trkpt lat="48.51908" lon="2.05456">
        <ele>159.8</ele>
        <time>2026-03-20T15:54:50Z</time>
      </trkpt>
      <trkpt lat="48.51907" lon="2.0544">
        <ele>159.8</ele>
        <time>2026-03-20T15:54:51Z</time>
      </trkpt>
      <trkpt lat="48.51907" lon="2.05426">
        <ele>157.8</ele>
        <time>2026-03-20T15:54:52Z</time>
      </trkpt>
      <trkpt lat="48.51907" lon="2.05411">
        <ele>157.8</ele>
        <time>2026-03-20T15:54:53Z</time>
      </trkpt>
      <trkpt lat="48.51907" lon="2.05395">
        <ele>157.8</ele>
        <time>2026-03-20T15:54:54Z</time>
      </trkpt>
      <trkpt lat="48.51907" lon="2.05379">
        <ele>156.8</ele>
        <time>2026-03-20T15:54:55Z</time>
      </trkpt>
      <trkpt lat="48.51907" lon="2.05362">
        <ele>153.4</ele>
        <time>2026-03-20T15:54:56Z</time>
      </trkpt>
      <trkpt lat="48.51907" lon="2.05346">
        <ele>153.4</ele>
        <time>2026-03-20T15:54:57Z</time>
      </trkpt>
      <trkpt lat="48.51906" lon="2.0533">
        <ele>153.4</ele>
        <time>2026-03-20T15:54:58Z</time>
      </trkpt>
      <trkpt lat="48.51905" lon="2.05313">
        <ele>153.4</ele>
        <time>2026-03-20T15:54:59Z</time>
      </trkpt>
      <trkpt lat="48.51905" lon="2.05297">
        <ele>151</ele>
        <time>2026-03-20T15:55:00Z</time>
      </trkpt>
      <trkpt lat="48.51905" lon="2.05281">
        <ele>151</ele>
        <time>2026-03-20T15:55:01Z</time>
      </trkpt>
      <trkpt lat="48.51904" lon="2.05265">
        <ele>151</ele>
        <time>2026-03-20T15:55:02Z</time>
      </trkpt>
      <trkpt lat="48.51903" lon="2.05249">
        <ele>151</ele>
        <time>2026-03-20T15:55:03Z</time>
      </trkpt>
      <trkpt lat="48.51902" lon="2.05233">
        <ele>148.6</ele>
        <time>2026-03-20T15:55:04Z</time>
      </trkpt>
      <trkpt lat="48.51901" lon="2.05217">
        <ele>148.6</ele>
        <time>2026-03-20T15:55:05Z</time>
      </trkpt>
      <trkpt lat="48.519" lon="2.052">
        <ele>148.6</ele>
        <time>2026-03-20T15:55:06Z</time>
      </trkpt>
      <trkpt lat="48.51898" lon="2.05184">
        <ele>147.6</ele>
        <time>2026-03-20T15:55:07Z</time>
      </trkpt>
      <trkpt lat="48.51895" lon="2.05167">
        <ele>146.4</ele>
        <time>2026-03-20T15:55:08Z</time>
      </trkpt>
      <trkpt lat="48.51893" lon="2.05151">
        <ele>146.4</ele>
        <time>2026-03-20T15:55:09Z</time>
      </trkpt>
      <trkpt lat="48.51892" lon="2.05134">
        <ele>146.4</ele>
        <time>2026-03-20T15:55:10Z</time>
      </trkpt>
      <trkpt lat="48.51892" lon="2.05118">
        <ele>145.4</ele>
        <time>2026-03-20T15:55:11Z</time>
      </trkpt>
      <trkpt lat="48.51895" lon="2.05102">
        <ele>144</ele>
        <time>2026-03-20T15:55:12Z</time>
      </trkpt>
      <trkpt lat="48.51899" lon="2.05089">
        <ele>144</ele>
        <time>2026-03-20T15:55:13Z</time>
      </trkpt>
      <trkpt lat="48.51904" lon="2.05077">
        <ele>144</ele>
        <time>2026-03-20T15:55:14Z</time>
      </trkpt>
      <trkpt lat="48.51911" lon="2.05068">
        <ele>144</ele>
        <time>2026-03-20T15:55:15Z</time>
      </trkpt>
      <trkpt lat="48.51919" lon="2.0506">
        <ele>143.2</ele>
        <time>2026-03-20T15:55:16Z</time>
      </trkpt>
      <trkpt lat="48.51927" lon="2.05053">
        <ele>143.2</ele>
        <time>2026-03-20T15:55:17Z</time>
      </trkpt>
      <trkpt lat="48.51935" lon="2.05045">
        <ele>143.2</ele>
        <time>2026-03-20T15:55:18Z</time>
      </trkpt>
      <trkpt lat="48.51942" lon="2.05035">
        <ele>142.2</ele>
        <time>2026-03-20T15:55:19Z</time>
      </trkpt>
      <trkpt lat="48.51948" lon="2.05024">
        <ele>141.4</ele>
        <time>2026-03-20T15:55:20Z</time>
      </trkpt>
      <trkpt lat="48.51953" lon="2.05011">
        <ele>141.4</ele>
        <time>2026-03-20T15:55:21Z</time>
      </trkpt>
      <trkpt lat="48.51956" lon="2.04999">
        <ele>141.4</ele>
        <time>2026-03-20T15:55:22Z</time>
      </trkpt>
      <trkpt lat="48.51957" lon="2.04986">
        <ele>140.4</ele>
        <time>2026-03-20T15:55:23Z</time>
      </trkpt>
      <trkpt lat="48.51958" lon="2.04972">
        <ele>139.8</ele>
        <time>2026-03-20T15:55:24Z</time>
      </trkpt>
      <trkpt lat="48.51956" lon="2.04957">
        <ele>139.8</ele>
        <time>2026-03-20T15:55:25Z</time>
      </trkpt>
      <trkpt lat="48.51954" lon="2.04943">
        <ele>139.8</ele>
        <time>2026-03-20T15:55:26Z</time>
      </trkpt>
      <trkpt lat="48.51951" lon="2.04929">
        <ele>138.8</ele>
        <time>2026-03-20T15:55:27Z</time>
      </trkpt>
      <trkpt lat="48.51948" lon="2.04915">
        <ele>135.6</ele>
        <time>2026-03-20T15:55:28Z</time>
      </trkpt>
      <trkpt lat="48.51947" lon="2.049">
        <ele>135.6</ele>
        <time>2026-03-20T15:55:29Z</time>
      </trkpt>
      <trkpt lat="48.51948" lon="2.04885">
        <ele>135.6</ele>
        <time>2026-03-20T15:55:30Z</time>
      </trkpt>
      <trkpt lat="48.5195" lon="2.0487">
        <ele>136</ele>
        <time>2026-03-20T15:55:31Z</time>
      </trkpt>
      <trkpt lat="48.51953" lon="2.04855">
        <ele>136.2</ele>
        <time>2026-03-20T15:55:32Z</time>
      </trkpt>
      <trkpt lat="48.51959" lon="2.04842">
        <ele>136.2</ele>
        <time>2026-03-20T15:55:33Z</time>
      </trkpt>
      <trkpt lat="48.51965" lon="2.0483">
        <ele>136.2</ele>
        <time>2026-03-20T15:55:34Z</time>
      </trkpt>
      <trkpt lat="48.51973" lon="2.0482">
        <ele>136.2</ele>
        <time>2026-03-20T15:55:35Z</time>
      </trkpt>
      <trkpt lat="48.51981" lon="2.04813">
        <ele>134.8</ele>
        <time>2026-03-20T15:55:36Z</time>
      </trkpt>
      <trkpt lat="48.51989" lon="2.04808">
        <ele>134.8</ele>
        <time>2026-03-20T15:55:37Z</time>
      </trkpt>
      <trkpt lat="48.51998" lon="2.04805">
        <ele>134.8</ele>
        <time>2026-03-20T15:55:38Z</time>
      </trkpt>
      <trkpt lat="48.52007" lon="2.04805">
        <ele>135.8</ele>
        <time>2026-03-20T15:55:39Z</time>
      </trkpt>
      <trkpt lat="48.52015" lon="2.04807">
        <ele>135.6</ele>
        <time>2026-03-20T15:55:40Z</time>
      </trkpt>
      <trkpt lat="48.52023" lon="2.0481">
        <ele>135.6</ele>
        <time>2026-03-20T15:55:41Z</time>
      </trkpt>
      <trkpt lat="48.5203" lon="2.04815">
        <ele>135.6</ele>
        <time>2026-03-20T15:55:42Z</time>
      </trkpt>
      <trkpt lat="48.52037" lon="2.04819">
        <ele>135.6</ele>
        <time>2026-03-20T15:55:43Z</time>
      </trkpt>
      <trkpt lat="48.52044" lon="2.04824">
        <ele>136</ele>
        <time>2026-03-20T15:55:44Z</time>
      </trkpt>
      <trkpt lat="48.52051" lon="2.04829">
        <ele>136</ele>
        <time>2026-03-20T15:55:45Z</time>
      </trkpt>
      <trkpt lat="48.52058" lon="2.04834">
        <ele>136</ele>
        <time>2026-03-20T15:55:46Z</time>
      </trkpt>
      <trkpt lat="48.52064" lon="2.04839">
        <ele>136</ele>
        <time>2026-03-20T15:55:47Z</time>
      </trkpt>
      <trkpt lat="48.52071" lon="2.04844">
        <ele>136.4</ele>
        <time>2026-03-20T15:55:48Z</time>
      </trkpt>
      <trkpt lat="48.52077" lon="2.04849">
        <ele>136.4</ele>
        <time>2026-03-20T15:55:49Z</time>
      </trkpt>
      <trkpt lat="48.52084" lon="2.04854">
        <ele>136.4</ele>
        <time>2026-03-20T15:55:50Z</time>
      </trkpt>
      <trkpt lat="48.5209" lon="2.04858">
        <ele>135.4</ele>
        <time>2026-03-20T15:55:51Z</time>
      </trkpt>
      <trkpt lat="48.52097" lon="2.04863">
        <ele>135.6</ele>
        <time>2026-03-20T15:55:52Z</time>
      </trkpt>
      <trkpt lat="48.52103" lon="2.04868">
        <ele>135.6</ele>
        <time>2026-03-20T15:55:53Z</time>
      </trkpt>
      <trkpt lat="48.5211" lon="2.04873">
        <ele>135.6</ele>
        <time>2026-03-20T15:55:54Z</time>
      </trkpt>
      <trkpt lat="48.52116" lon="2.04878">
        <ele>135.6</ele>
        <time>2026-03-20T15:55:55Z</time>
      </trkpt>
      <trkpt lat="48.52122" lon="2.04883">
        <ele>135.8</ele>
        <time>2026-03-20T15:55:56Z</time>
      </trkpt>
      <trkpt lat="48.52129" lon="2.04888">
        <ele>135.8</ele>
        <time>2026-03-20T15:55:57Z</time>
      </trkpt>
      <trkpt lat="48.52135" lon="2.04893">
        <ele>135.8</ele>
        <time>2026-03-20T15:55:58Z</time>
      </trkpt>
      <trkpt lat="48.52142" lon="2.04898">
        <ele>134.8</ele>
        <time>2026-03-20T15:55:59Z</time>
      </trkpt>
      <trkpt lat="48.52148" lon="2.04902">
        <ele>133.6</ele>
        <time>2026-03-20T15:56:00Z</time>
      </trkpt>
      <trkpt lat="48.52155" lon="2.04907">
        <ele>133.6</ele>
        <time>2026-03-20T15:56:01Z</time>
      </trkpt>
      <trkpt lat="48.52161" lon="2.04913">
        <ele>133.6</ele>
        <time>2026-03-20T15:56:02Z</time>
      </trkpt>
      <trkpt lat="48.52168" lon="2.04918">
        <ele>134.4</ele>
        <time>2026-03-20T15:56:03Z</time>
      </trkpt>
      <trkpt lat="48.52174" lon="2.04923">
        <ele>133.2</ele>
        <time>2026-03-20T15:56:04Z</time>
      </trkpt>
      <trkpt lat="48.52181" lon="2.04927">
        <ele>133.2</ele>
        <time>2026-03-20T15:56:05Z</time>
      </trkpt>
      <trkpt lat="48.52187" lon="2.04932">
        <ele>133.2</ele>
        <time>2026-03-20T15:56:06Z</time>
      </trkpt>
      <trkpt lat="48.52194" lon="2.04938">
        <ele>133.2</ele>
        <time>2026-03-20T15:56:07Z</time>
      </trkpt>
      <trkpt lat="48.522" lon="2.04943">
        <ele>132.8</ele>
        <time>2026-03-20T15:56:08Z</time>
      </trkpt>
      <trkpt lat="48.52207" lon="2.04948">
        <ele>132.8</ele>
        <time>2026-03-20T15:56:09Z</time>
      </trkpt>
      <trkpt lat="48.52213" lon="2.04953">
        <ele>132.8</ele>
        <time>2026-03-20T15:56:10Z</time>
      </trkpt>
      <trkpt lat="48.5222" lon="2.04958">
        <ele>132.8</ele>
        <time>2026-03-20T15:56:11Z</time>
      </trkpt>
      <trkpt lat="48.52226" lon="2.04963">
        <ele>133.2</ele>
        <time>2026-03-20T15:56:12Z</time>
      </trkpt>
      <trkpt lat="48.52232" lon="2.04968">
        <ele>133.2</ele>
        <time>2026-03-20T15:56:13Z</time>
      </trkpt>
      <trkpt lat="48.52239" lon="2.04973">
        <ele>133.2</ele>
        <time>2026-03-20T15:56:14Z</time>
      </trkpt>
      <trkpt lat="48.52245" lon="2.04977">
        <ele>133.6</ele>
        <time>2026-03-20T15:56:15Z</time>
      </trkpt>
      <trkpt lat="48.52251" lon="2.04982">
        <ele>132.4</ele>
        <time>2026-03-20T15:56:16Z</time>
      </trkpt>
      <trkpt lat="48.52258" lon="2.04986">
        <ele>132.4</ele>
        <time>2026-03-20T15:56:17Z</time>
      </trkpt>
      <trkpt lat="48.52264" lon="2.0499">
        <ele>132.4</ele>
        <time>2026-03-20T15:56:18Z</time>
      </trkpt>
      <trkpt lat="48.52271" lon="2.04994">
        <ele>132.2</ele>
        <time>2026-03-20T15:56:19Z</time>
      </trkpt>
      <trkpt lat="48.52278" lon="2.04997">
        <ele>132.6</ele>
        <time>2026-03-20T15:56:20Z</time>
      </trkpt>
      <trkpt lat="48.52284" lon="2.05">
        <ele>132.6</ele>
        <time>2026-03-20T15:56:21Z</time>
      </trkpt>
      <trkpt lat="48.52291" lon="2.05002">
        <ele>132.6</ele>
        <time>2026-03-20T15:56:22Z</time>
      </trkpt>
      <trkpt lat="48.52299" lon="2.05003">
        <ele>132.4</ele>
        <time>2026-03-20T15:56:23Z</time>
      </trkpt>
      <trkpt lat="48.52306" lon="2.05004">
        <ele>130.8</ele>
        <time>2026-03-20T15:56:24Z</time>
      </trkpt>
      <trkpt lat="48.52313" lon="2.05004">
        <ele>130.8</ele>
        <time>2026-03-20T15:56:25Z</time>
      </trkpt>
      <trkpt lat="48.52321" lon="2.05003">
        <ele>130.8</ele>
        <time>2026-03-20T15:56:26Z</time>
      </trkpt>
      <trkpt lat="48.52328" lon="2.05003">
        <ele>130.8</ele>
        <time>2026-03-20T15:56:27Z</time>
      </trkpt>
      <trkpt lat="48.52336" lon="2.05001">
        <ele>131.6</ele>
        <time>2026-03-20T15:56:28Z</time>
      </trkpt>
      <trkpt lat="48.52343" lon="2.04999">
        <ele>131.6</ele>
        <time>2026-03-20T15:56:29Z</time>
      </trkpt>
      <trkpt lat="48.52351" lon="2.04995">
        <ele>131.6</ele>
        <time>2026-03-20T15:56:30Z</time>
      </trkpt>
      <trkpt lat="48.52358" lon="2.04992">
        <ele>130.6</ele>
        <time>2026-03-20T15:56:31Z</time>
      </trkpt>
      <trkpt lat="48.52366" lon="2.04988">
        <ele>130.4</ele>
        <time>2026-03-20T15:56:32Z</time>
      </trkpt>
      <trkpt lat="48.52373" lon="2.04983">
        <ele>130.4</ele>
        <time>2026-03-20T15:56:33Z</time>
      </trkpt>
      <trkpt lat="48.52381" lon="2.04978">
        <ele>130.4</ele>
        <time>2026-03-20T15:56:34Z</time>
      </trkpt>
      <trkpt lat="48.52388" lon="2.04974">
        <ele>130.4</ele>
        <time>2026-03-20T15:56:35Z</time>
      </trkpt>
      <trkpt lat="48.52395" lon="2.04968">
        <ele>129.8</ele>
        <time>2026-03-20T15:56:36Z</time>
      </trkpt>
      <trkpt lat="48.52403" lon="2.04963">
        <ele>129.8</ele>
        <time>2026-03-20T15:56:37Z</time>
      </trkpt>
      <trkpt lat="48.5241" lon="2.04958">
        <ele>129.8</ele>
        <time>2026-03-20T15:56:38Z</time>
      </trkpt>
      <trkpt lat="48.52417" lon="2.04953">
        <ele>129.4</ele>
        <time>2026-03-20T15:56:39Z</time>
      </trkpt>
      <trkpt lat="48.52424" lon="2.04948">
        <ele>129</ele>
        <time>2026-03-20T15:56:40Z</time>
      </trkpt>
      <trkpt lat="48.52431" lon="2.04943">
        <ele>129</ele>
        <time>2026-03-20T15:56:41Z</time>
      </trkpt>
      <trkpt lat="48.52438" lon="2.04939">
        <ele>129</ele>
        <time>2026-03-20T15:56:42Z</time>
      </trkpt>
      <trkpt lat="48.52445" lon="2.04934">
        <ele>129</ele>
        <time>2026-03-20T15:56:43Z</time>
      </trkpt>
      <trkpt lat="48.52451" lon="2.0493">
        <ele>129.8</ele>
        <time>2026-03-20T15:56:44Z</time>
      </trkpt>
      <trkpt lat="48.52458" lon="2.04925">
        <ele>129.8</ele>
        <time>2026-03-20T15:56:45Z</time>
      </trkpt>
      <trkpt lat="48.52465" lon="2.0492">
        <ele>129.8</ele>
        <time>2026-03-20T15:56:46Z</time>
      </trkpt>
      <trkpt lat="48.52471" lon="2.04915">
        <ele>129.8</ele>
        <time>2026-03-20T15:56:47Z</time>
      </trkpt>
      <trkpt lat="48.52478" lon="2.0491">
        <ele>129</ele>
        <time>2026-03-20T15:56:48Z</time>
      </trkpt>
      <trkpt lat="48.52485" lon="2.04906">
        <ele>129</ele>
        <time>2026-03-20T15:56:49Z</time>
      </trkpt>
      <trkpt lat="48.52492" lon="2.04901">
        <ele>129</ele>
        <time>2026-03-20T15:56:50Z</time>
      </trkpt>
      <trkpt lat="48.52499" lon="2.04896">
        <ele>128.8</ele>
        <time>2026-03-20T15:56:51Z</time>
      </trkpt>
      <trkpt lat="48.52506" lon="2.04891">
        <ele>128.8</ele>
        <time>2026-03-20T15:56:52Z</time>
      </trkpt>
      <trkpt lat="48.52513" lon="2.04886">
        <ele>128.8</ele>
        <time>2026-03-20T15:56:53Z</time>
      </trkpt>
      <trkpt lat="48.5252" lon="2.04881">
        <ele>128.8</ele>
        <time>2026-03-20T15:56:54Z</time>
      </trkpt>
      <trkpt lat="48.52527" lon="2.04876">
        <ele>128.2</ele>
        <time>2026-03-20T15:56:55Z</time>
      </trkpt>
      <trkpt lat="48.52534" lon="2.04872">
        <ele>128</ele>
        <time>2026-03-20T15:56:56Z</time>
      </trkpt>
      <trkpt lat="48.52541" lon="2.04867">
        <ele>128</ele>
        <time>2026-03-20T15:56:57Z</time>
      </trkpt>
      <trkpt lat="48.52547" lon="2.04862">
        <ele>128</ele>
        <time>2026-03-20T15:56:58Z</time>
      </trkpt>
      <trkpt lat="48.52554" lon="2.04858">
        <ele>128</ele>
        <time>2026-03-20T15:56:59Z</time>
      </trkpt>
      <trkpt lat="48.52561" lon="2.04853">
        <ele>128</ele>
        <time>2026-03-20T15:57:00Z</time>
      </trkpt>
      <trkpt lat="48.52568" lon="2.04849">
        <ele>128</ele>
        <time>2026-03-20T15:57:01Z</time>
      </trkpt>
      <trkpt lat="48.52574" lon="2.04845">
        <ele>128</ele>
        <time>2026-03-20T15:57:02Z</time>
      </trkpt>
      <trkpt lat="48.52581" lon="2.0484">
        <ele>128</ele>
        <time>2026-03-20T15:57:03Z</time>
      </trkpt>
      <trkpt lat="48.52587" lon="2.04836">
        <ele>127.4</ele>
        <time>2026-03-20T15:57:04Z</time>
      </trkpt>
      <trkpt lat="48.52593" lon="2.04832">
        <ele>127.4</ele>
        <time>2026-03-20T15:57:05Z</time>
      </trkpt>
      <trkpt lat="48.52599" lon="2.04827">
        <ele>127.4</ele>
        <time>2026-03-20T15:57:06Z</time>
      </trkpt>
      <trkpt lat="48.52605" lon="2.04823">
        <ele>127.8</ele>
        <time>2026-03-20T15:57:07Z</time>
      </trkpt>
      <trkpt lat="48.52612" lon="2.04819">
        <ele>127.4</ele>
        <time>2026-03-20T15:57:08Z</time>
      </trkpt>
      <trkpt lat="48.52618" lon="2.04815">
        <ele>127.4</ele>
        <time>2026-03-20T15:57:09Z</time>
      </trkpt>
      <trkpt lat="48.52623" lon="2.04811">
        <ele>127.4</ele>
        <time>2026-03-20T15:57:10Z</time>
      </trkpt>
      <trkpt lat="48.52629" lon="2.04806">
        <ele>128</ele>
        <time>2026-03-20T15:57:11Z</time>
      </trkpt>
      <trkpt lat="48.52635" lon="2.04802">
        <ele>127.4</ele>
        <time>2026-03-20T15:57:12Z</time>
      </trkpt>
      <trkpt lat="48.52641" lon="2.04799">
        <ele>127.4</ele>
        <time>2026-03-20T15:57:13Z</time>
      </trkpt>
      <trkpt lat="48.52647" lon="2.04794">
        <ele>127.4</ele>
        <time>2026-03-20T15:57:14Z</time>
      </trkpt>
      <trkpt lat="48.52653" lon="2.04789">
        <ele>126.4</ele>
        <time>2026-03-20T15:57:15Z</time>
      </trkpt>
      <trkpt lat="48.5266" lon="2.04784">
        <ele>124.8</ele>
        <time>2026-03-20T15:57:16Z</time>
      </trkpt>
      <trkpt lat="48.52667" lon="2.04779">
        <ele>124.8</ele>
        <time>2026-03-20T15:57:17Z</time>
      </trkpt>
      <trkpt lat="48.52674" lon="2.04773">
        <ele>124.8</ele>
        <time>2026-03-20T15:57:18Z</time>
      </trkpt>
      <trkpt lat="48.52681" lon="2.04769">
        <ele>123.8</ele>
        <time>2026-03-20T15:57:19Z</time>
      </trkpt>
      <trkpt lat="48.52689" lon="2.04763">
        <ele>121</ele>
        <time>2026-03-20T15:57:20Z</time>
      </trkpt>
      <trkpt lat="48.52696" lon="2.04757">
        <ele>121</ele>
        <time>2026-03-20T15:57:21Z</time>
      </trkpt>
      <trkpt lat="48.52704" lon="2.04751">
        <ele>121</ele>
        <time>2026-03-20T15:57:22Z</time>
      </trkpt>
      <trkpt lat="48.52712" lon="2.04746">
        <ele>120</ele>
        <time>2026-03-20T15:57:23Z</time>
      </trkpt>
      <trkpt lat="48.52721" lon="2.04739">
        <ele>118.6</ele>
        <time>2026-03-20T15:57:24Z</time>
      </trkpt>
      <trkpt lat="48.52729" lon="2.04733">
        <ele>118.6</ele>
        <time>2026-03-20T15:57:25Z</time>
      </trkpt>
      <trkpt lat="48.52737" lon="2.04727">
        <ele>118.6</ele>
        <time>2026-03-20T15:57:26Z</time>
      </trkpt>
      <trkpt lat="48.52745" lon="2.04721">
        <ele>117.6</ele>
        <time>2026-03-20T15:57:27Z</time>
      </trkpt>
      <trkpt lat="48.52753" lon="2.04715">
        <ele>117.2</ele>
        <time>2026-03-20T15:57:28Z</time>
      </trkpt>
      <trkpt lat="48.52761" lon="2.04708">
        <ele>117.2</ele>
        <time>2026-03-20T15:57:29Z</time>
      </trkpt>
      <trkpt lat="48.52769" lon="2.04701">
        <ele>117.2</ele>
        <time>2026-03-20T15:57:30Z</time>
      </trkpt>
      <trkpt lat="48.52778" lon="2.04696">
        <ele>116.2</ele>
        <time>2026-03-20T15:57:31Z</time>
      </trkpt>
      <trkpt lat="48.52787" lon="2.04693">
        <ele>111.2</ele>
        <time>2026-03-20T15:57:32Z</time>
      </trkpt>
      <trkpt lat="48.52797" lon="2.0469">
        <ele>111.2</ele>
        <time>2026-03-20T15:57:33Z</time>
      </trkpt>
      <trkpt lat="48.52807" lon="2.0469">
        <ele>111.2</ele>
        <time>2026-03-20T15:57:34Z</time>
      </trkpt>
      <trkpt lat="48.52817" lon="2.04691">
        <ele>111.2</ele>
        <time>2026-03-20T15:57:35Z</time>
      </trkpt>
      <trkpt lat="48.52826" lon="2.04692">
        <ele>111</ele>
        <time>2026-03-20T15:57:36Z</time>
      </trkpt>
      <trkpt lat="48.52835" lon="2.04693">
        <ele>111</ele>
        <time>2026-03-20T15:57:37Z</time>
      </trkpt>
      <trkpt lat="48.52844" lon="2.04694">
        <ele>111</ele>
        <time>2026-03-20T15:57:38Z</time>
      </trkpt>
      <trkpt lat="48.52854" lon="2.04695">
        <ele>110</ele>
        <time>2026-03-20T15:57:39Z</time>
      </trkpt>
      <trkpt lat="48.52861" lon="2.04694">
        <ele>108.8</ele>
        <time>2026-03-20T15:57:40Z</time>
      </trkpt>
      <trkpt lat="48.5287" lon="2.04691">
        <ele>108.8</ele>
        <time>2026-03-20T15:57:41Z</time>
      </trkpt>
      <trkpt lat="48.52879" lon="2.04688">
        <ele>108.8</ele>
        <time>2026-03-20T15:57:42Z</time>
      </trkpt>
      <trkpt lat="48.52886" lon="2.04684">
        <ele>107.8</ele>
        <time>2026-03-20T15:57:43Z</time>
      </trkpt>
      <trkpt lat="48.52895" lon="2.0468">
        <ele>104.8</ele>
        <time>2026-03-20T15:57:44Z</time>
      </trkpt>
      <trkpt lat="48.52905" lon="2.04675">
        <ele>104.8</ele>
        <time>2026-03-20T15:57:45Z</time>
      </trkpt>
      <trkpt lat="48.52915" lon="2.0467">
        <ele>104.8</ele>
        <time>2026-03-20T15:57:46Z</time>
      </trkpt>
      <trkpt lat="48.52925" lon="2.04665">
        <ele>103.8</ele>
        <time>2026-03-20T15:57:47Z</time>
      </trkpt>
      <trkpt lat="48.52935" lon="2.0466">
        <ele>101.6</ele>
        <time>2026-03-20T15:57:48Z</time>
      </trkpt>
      <trkpt lat="48.52944" lon="2.04655">
        <ele>101.6</ele>
        <time>2026-03-20T15:57:49Z</time>
      </trkpt>
      <trkpt lat="48.52954" lon="2.04649">
        <ele>101.6</ele>
        <time>2026-03-20T15:57:50Z</time>
      </trkpt>
      <trkpt lat="48.52963" lon="2.04645">
        <ele>102.2</ele>
        <time>2026-03-20T15:57:51Z</time>
      </trkpt>
      <trkpt lat="48.52973" lon="2.0464">
        <ele>100.8</ele>
        <time>2026-03-20T15:57:52Z</time>
      </trkpt>
      <trkpt lat="48.52983" lon="2.04636">
        <ele>100.8</ele>
        <time>2026-03-20T15:57:53Z</time>
      </trkpt>
      <trkpt lat="48.52992" lon="2.04631">
        <ele>100.8</ele>
        <time>2026-03-20T15:57:54Z</time>
      </trkpt>
      <trkpt lat="48.53002" lon="2.04626">
        <ele>101.8</ele>
        <time>2026-03-20T15:57:55Z</time>
      </trkpt>
      <trkpt lat="48.53012" lon="2.0462">
        <ele>101.6</ele>
        <time>2026-03-20T15:57:56Z</time>
      </trkpt>
      <trkpt lat="48.53021" lon="2.04615">
        <ele>101.6</ele>
        <time>2026-03-20T15:57:57Z</time>
      </trkpt>
      <trkpt lat="48.5303" lon="2.04609">
        <ele>101.6</ele>
        <time>2026-03-20T15:57:58Z</time>
      </trkpt>
      <trkpt lat="48.53039" lon="2.04605">
        <ele>101.8</ele>
        <time>2026-03-20T15:57:59Z</time>
      </trkpt>
      <trkpt lat="48.53048" lon="2.04603">
        <ele>102.6</ele>
        <time>2026-03-20T15:58:00Z</time>
      </trkpt>
      <trkpt lat="48.53056" lon="2.04602">
        <ele>102.6</ele>
        <time>2026-03-20T15:58:01Z</time>
      </trkpt>
      <trkpt lat="48.53064" lon="2.04602">
        <ele>102.6</ele>
        <time>2026-03-20T15:58:02Z</time>
      </trkpt>
      <trkpt lat="48.5307" lon="2.04604">
        <ele>103.6</ele>
        <time>2026-03-20T15:58:03Z</time>
      </trkpt>
      <trkpt lat="48.53076" lon="2.04605">
        <ele>104.8</ele>
        <time>2026-03-20T15:58:04Z</time>
      </trkpt>
      <trkpt lat="48.53081" lon="2.04607">
        <ele>104.8</ele>
        <time>2026-03-20T15:58:05Z</time>
      </trkpt>
      <trkpt lat="48.53085" lon="2.04608">
        <ele>104.8</ele>
        <time>2026-03-20T15:58:06Z</time>
      </trkpt>
      <trkpt lat="48.53087" lon="2.04608">
        <ele>105.8</ele>
        <time>2026-03-20T15:58:07Z</time>
      </trkpt>
      <trkpt lat="48.53089" lon="2.04607">
        <ele>106</ele>
        <time>2026-03-20T15:58:08Z</time>
      </trkpt>
      <trkpt lat="48.53089" lon="2.04607">
        <ele>106</ele>
        <time>2026-03-20T15:58:09Z</time>
      </trkpt>
      <trkpt lat="48.5309" lon="2.04607">
        <ele>106</ele>
        <time>2026-03-20T15:58:10Z</time>
      </trkpt>
      <trkpt lat="48.53093" lon="2.04606">
        <ele>106</ele>
        <time>2026-03-20T15:58:11Z</time>
      </trkpt>
      <trkpt lat="48.53095" lon="2.04606">
        <ele>106.2</ele>
        <time>2026-03-20T15:58:12Z</time>
      </trkpt>
      <trkpt lat="48.53097" lon="2.04606">
        <ele>106.2</ele>
        <time>2026-03-20T15:58:13Z</time>
      </trkpt>
      <trkpt lat="48.53099" lon="2.04606">
        <ele>106.2</ele>
        <time>2026-03-20T15:58:14Z</time>
      </trkpt>
      <trkpt lat="48.53102" lon="2.04606">
        <ele>106.2</ele>
        <time>2026-03-20T15:58:15Z</time>
      </trkpt>
      <trkpt lat="48.53105" lon="2.04606">
        <ele>106</ele>
        <time>2026-03-20T15:58:16Z</time>
      </trkpt>
      <trkpt lat="48.53107" lon="2.04607">
        <ele>106</ele>
        <time>2026-03-20T15:58:17Z</time>
      </trkpt>
      <trkpt lat="48.5311" lon="2.04607">
        <ele>106</ele>
        <time>2026-03-20T15:58:18Z</time>
      </trkpt>
      <trkpt lat="48.53114" lon="2.04607">
        <ele>106.4</ele>
        <time>2026-03-20T15:58:19Z</time>
      </trkpt>
      <trkpt lat="48.53117" lon="2.04606">
        <ele>106</ele>
        <time>2026-03-20T15:58:20Z</time>
      </trkpt>
      <trkpt lat="48.53121" lon="2.04605">
        <ele>106</ele>
        <time>2026-03-20T15:58:21Z</time>
      </trkpt>
      <trkpt lat="48.53124" lon="2.04605">
        <ele>106</ele>
        <time>2026-03-20T15:58:22Z</time>
      </trkpt>
      <trkpt lat="48.53128" lon="2.04604">
        <ele>106</ele>
        <time>2026-03-20T15:58:23Z</time>
      </trkpt>
      <trkpt lat="48.53132" lon="2.04603">
        <ele>106</ele>
        <time>2026-03-20T15:58:24Z</time>
      </trkpt>
      <trkpt lat="48.53136" lon="2.04602">
        <ele>106</ele>
        <time>2026-03-20T15:58:25Z</time>
      </trkpt>
      <trkpt lat="48.53139" lon="2.04602">
        <ele>106</ele>
        <time>2026-03-20T15:58:26Z</time>
      </trkpt>
      <trkpt lat="48.53142" lon="2.04601">
        <ele>106</ele>
        <time>2026-03-20T15:58:27Z</time>
      </trkpt>
      <trkpt lat="48.53145" lon="2.046">
        <ele>106.6</ele>
        <time>2026-03-20T15:58:28Z</time>
      </trkpt>
      <trkpt lat="48.53149" lon="2.04598">
        <ele>106.6</ele>
        <time>2026-03-20T15:58:29Z</time>
      </trkpt>
      <trkpt lat="48.53152" lon="2.04596">
        <ele>106.6</ele>
        <time>2026-03-20T15:58:30Z</time>
      </trkpt>
      <trkpt lat="48.53155" lon="2.04594">
        <ele>107.6</ele>
        <time>2026-03-20T15:58:31Z</time>
      </trkpt>
      <trkpt lat="48.53158" lon="2.04592">
        <ele>107.2</ele>
        <time>2026-03-20T15:58:32Z</time>
      </trkpt>
      <trkpt lat="48.53161" lon="2.04591">
        <ele>107.2</ele>
        <time>2026-03-20T15:58:33Z</time>
      </trkpt>
      <trkpt lat="48.53165" lon="2.04589">
        <ele>107.2</ele>
        <time>2026-03-20T15:58:34Z</time>
      </trkpt>
      <trkpt lat="48.53168" lon="2.04587">
        <ele>107.2</ele>
        <time>2026-03-20T15:58:35Z</time>
      </trkpt>
      <trkpt lat="48.53171" lon="2.04586">
        <ele>107.4</ele>
        <time>2026-03-20T15:58:36Z</time>
      </trkpt>
      <trkpt lat="48.53174" lon="2.04584">
        <ele>107.4</ele>
        <time>2026-03-20T15:58:37Z</time>
      </trkpt>
      <trkpt lat="48.53177" lon="2.04583">
        <ele>107.4</ele>
        <time>2026-03-20T15:58:38Z</time>
      </trkpt>
      <trkpt lat="48.53179" lon="2.04581">
        <ele>107.4</ele>
        <time>2026-03-20T15:58:39Z</time>
      </trkpt>
      <trkpt lat="48.53182" lon="2.04579">
        <ele>108.2</ele>
        <time>2026-03-20T15:58:40Z</time>
      </trkpt>
      <trkpt lat="48.53185" lon="2.04577">
        <ele>108.2</ele>
        <time>2026-03-20T15:58:41Z</time>
      </trkpt>
      <trkpt lat="48.53188" lon="2.04576">
        <ele>108.2</ele>
        <time>2026-03-20T15:58:42Z</time>
      </trkpt>
      <trkpt lat="48.53191" lon="2.04575">
        <ele>108.2</ele>
        <time>2026-03-20T15:58:43Z</time>
      </trkpt>
      <trkpt lat="48.53193" lon="2.04574">
        <ele>108.4</ele>
        <time>2026-03-20T15:58:44Z</time>
      </trkpt>
      <trkpt lat="48.53196" lon="2.04574">
        <ele>108.4</ele>
        <time>2026-03-20T15:58:45Z</time>
      </trkpt>
      <trkpt lat="48.53199" lon="2.04573">
        <ele>108.4</ele>
        <time>2026-03-20T15:58:46Z</time>
      </trkpt>
      <trkpt lat="48.53202" lon="2.04573">
        <ele>108.8</ele>
        <time>2026-03-20T15:58:47Z</time>
      </trkpt>
      <trkpt lat="48.53204" lon="2.04572">
        <ele>108.8</ele>
        <time>2026-03-20T15:58:48Z</time>
      </trkpt>
      <trkpt lat="48.53207" lon="2.04572">
        <ele>108.8</ele>
        <time>2026-03-20T15:58:49Z</time>
      </trkpt>
      <trkpt lat="48.5321" lon="2.04571">
        <ele>108.8</ele>
        <time>2026-03-20T15:58:50Z</time>
      </trkpt>
      <trkpt lat="48.53213" lon="2.04571">
        <ele>108.8</ele>
        <time>2026-03-20T15:58:51Z</time>
      </trkpt>
      <trkpt lat="48.53215" lon="2.0457">
        <ele>110</ele>
        <time>2026-03-20T15:58:52Z</time>
      </trkpt>
      <trkpt lat="48.53218" lon="2.04569">
        <ele>110</ele>
        <time>2026-03-20T15:58:53Z</time>
      </trkpt>
      <trkpt lat="48.5322" lon="2.04568">
        <ele>110</ele>
        <time>2026-03-20T15:58:54Z</time>
      </trkpt>
      <trkpt lat="48.53223" lon="2.04567">
        <ele>110</ele>
        <time>2026-03-20T15:58:55Z</time>
      </trkpt>
      <trkpt lat="48.53226" lon="2.04566">
        <ele>111.4</ele>
        <time>2026-03-20T15:58:56Z</time>
      </trkpt>
      <trkpt lat="48.53228" lon="2.04566">
        <ele>111.4</ele>
        <time>2026-03-20T15:58:57Z</time>
      </trkpt>
      <trkpt lat="48.53231" lon="2.04565">
        <ele>111.4</ele>
        <time>2026-03-20T15:58:58Z</time>
      </trkpt>
      <trkpt lat="48.53233" lon="2.04565">
        <ele>112.4</ele>
        <time>2026-03-20T15:58:59Z</time>
      </trkpt>
      <trkpt lat="48.53235" lon="2.04565">
        <ele>112.2</ele>
        <time>2026-03-20T15:59:00Z</time>
      </trkpt>
      <trkpt lat="48.53237" lon="2.04564">
        <ele>112.2</ele>
        <time>2026-03-20T15:59:01Z</time>
      </trkpt>
      <trkpt lat="48.5324" lon="2.04564">
        <ele>112.2</ele>
        <time>2026-03-20T15:59:02Z</time>
      </trkpt>
      <trkpt lat="48.53242" lon="2.04564">
        <ele>112.2</ele>
        <time>2026-03-20T15:59:03Z</time>
      </trkpt>
      <trkpt lat="48.53245" lon="2.04564">
        <ele>112.2</ele>
        <time>2026-03-20T15:59:04Z</time>
      </trkpt>
      <trkpt lat="48.53247" lon="2.04565">
        <ele>112.2</ele>
        <time>2026-03-20T15:59:05Z</time>
      </trkpt>
      <trkpt lat="48.53249" lon="2.04566">
        <ele>112.2</ele>
        <time>2026-03-20T15:59:06Z</time>
      </trkpt>
      <trkpt lat="48.53251" lon="2.04569">
        <ele>112.2</ele>
        <time>2026-03-20T15:59:07Z</time>
      </trkpt>
      <trkpt lat="48.53252" lon="2.04572">
        <ele>112.6</ele>
        <time>2026-03-20T15:59:08Z</time>
      </trkpt>
      <trkpt lat="48.53253" lon="2.04576">
        <ele>112.6</ele>
        <time>2026-03-20T15:59:09Z</time>
      </trkpt>
      <trkpt lat="48.53254" lon="2.04579">
        <ele>112.6</ele>
        <time>2026-03-20T15:59:10Z</time>
      </trkpt>
      <trkpt lat="48.53255" lon="2.04583">
        <ele>112.6</ele>
        <time>2026-03-20T15:59:11Z</time>
      </trkpt>
      <trkpt lat="48.53255" lon="2.04586">
        <ele>112.4</ele>
        <time>2026-03-20T15:59:12Z</time>
      </trkpt>
      <trkpt lat="48.53256" lon="2.04589">
        <ele>112.4</ele>
        <time>2026-03-20T15:59:13Z</time>
      </trkpt>
      <trkpt lat="48.53256" lon="2.04593">
        <ele>112.4</ele>
        <time>2026-03-20T15:59:14Z</time>
      </trkpt>
      <trkpt lat="48.53257" lon="2.04596">
        <ele>113.4</ele>
        <time>2026-03-20T15:59:15Z</time>
      </trkpt>
      <trkpt lat="48.53258" lon="2.046">
        <ele>113.8</ele>
        <time>2026-03-20T15:59:16Z</time>
      </trkpt>
      <trkpt lat="48.53258" lon="2.04603">
        <ele>113.8</ele>
        <time>2026-03-20T15:59:17Z</time>
      </trkpt>
      <trkpt lat="48.53258" lon="2.04606">
        <ele>113.8</ele>
        <time>2026-03-20T15:59:18Z</time>
      </trkpt>
      <trkpt lat="48.53258" lon="2.04609">
        <ele>113.8</ele>
        <time>2026-03-20T15:59:19Z</time>
      </trkpt>
      <trkpt lat="48.53258" lon="2.04613">
        <ele>114.2</ele>
        <time>2026-03-20T15:59:20Z</time>
      </trkpt>
      <trkpt lat="48.53258" lon="2.04616">
        <ele>114.2</ele>
        <time>2026-03-20T15:59:21Z</time>
      </trkpt>
      <trkpt lat="48.53259" lon="2.04621">
        <ele>114.2</ele>
        <time>2026-03-20T15:59:22Z</time>
      </trkpt>
      <trkpt lat="48.53259" lon="2.04624">
        <ele>114.2</ele>
        <time>2026-03-20T15:59:23Z</time>
      </trkpt>
      <trkpt lat="48.53259" lon="2.04628">
        <ele>114.6</ele>
        <time>2026-03-20T15:59:24Z</time>
      </trkpt>
      <trkpt lat="48.5326" lon="2.04631">
        <ele>114.6</ele>
        <time>2026-03-20T15:59:25Z</time>
      </trkpt>
      <trkpt lat="48.5326" lon="2.04635">
        <ele>114.6</ele>
        <time>2026-03-20T15:59:26Z</time>
      </trkpt>
      <trkpt lat="48.5326" lon="2.04639">
        <ele>114.6</ele>
        <time>2026-03-20T15:59:27Z</time>
      </trkpt>
      <trkpt lat="48.53261" lon="2.04643">
        <ele>115.4</ele>
        <time>2026-03-20T15:59:28Z</time>
      </trkpt>
      <trkpt lat="48.53261" lon="2.04647">
        <ele>115.4</ele>
        <time>2026-03-20T15:59:29Z</time>
      </trkpt>
      <trkpt lat="48.53262" lon="2.04651">
        <ele>115.4</ele>
        <time>2026-03-20T15:59:30Z</time>
      </trkpt>
      <trkpt lat="48.53262" lon="2.04656">
        <ele>115.4</ele>
        <time>2026-03-20T15:59:31Z</time>
      </trkpt>
      <trkpt lat="48.53263" lon="2.0466">
        <ele>116</ele>
        <time>2026-03-20T15:59:32Z</time>
      </trkpt>
      <trkpt lat="48.53263" lon="2.04664">
        <ele>116</ele>
        <time>2026-03-20T15:59:33Z</time>
      </trkpt>
      <trkpt lat="48.53263" lon="2.04668">
        <ele>116</ele>
        <time>2026-03-20T15:59:34Z</time>
      </trkpt>
      <trkpt lat="48.53264" lon="2.04672">
        <ele>116.2</ele>
        <time>2026-03-20T15:59:35Z</time>
      </trkpt>
      <trkpt lat="48.53264" lon="2.04676">
        <ele>117</ele>
        <time>2026-03-20T15:59:36Z</time>
      </trkpt>
      <trkpt lat="48.53265" lon="2.0468">
        <ele>117</ele>
        <time>2026-03-20T15:59:37Z</time>
      </trkpt>
      <trkpt lat="48.53265" lon="2.04685">
        <ele>117</ele>
        <time>2026-03-20T15:59:38Z</time>
      </trkpt>
      <trkpt lat="48.53265" lon="2.0469">
        <ele>116.8</ele>
        <time>2026-03-20T15:59:39Z</time>
      </trkpt>
      <trkpt lat="48.53266" lon="2.04695">
        <ele>117.4</ele>
        <time>2026-03-20T15:59:40Z</time>
      </trkpt>
      <trkpt lat="48.53266" lon="2.047">
        <ele>117.4</ele>
        <time>2026-03-20T15:59:41Z</time>
      </trkpt>
      <trkpt lat="48.53267" lon="2.04705">
        <ele>117.4</ele>
        <time>2026-03-20T15:59:42Z</time>
      </trkpt>
      <trkpt lat="48.53267" lon="2.04709">
        <ele>117.4</ele>
        <time>2026-03-20T15:59:43Z</time>
      </trkpt>
      <trkpt lat="48.53268" lon="2.04713">
        <ele>117.6</ele>
        <time>2026-03-20T15:59:44Z</time>
      </trkpt>
      <trkpt lat="48.53268" lon="2.04718">
        <ele>117.6</ele>
        <time>2026-03-20T15:59:45Z</time>
      </trkpt>
      <trkpt lat="48.53269" lon="2.04722">
        <ele>117.6</ele>
        <time>2026-03-20T15:59:46Z</time>
      </trkpt>
      <trkpt lat="48.5327" lon="2.04726">
        <ele>118.2</ele>
        <time>2026-03-20T15:59:47Z</time>
      </trkpt>
      <trkpt lat="48.53271" lon="2.04731">
        <ele>118.4</ele>
        <time>2026-03-20T15:59:48Z</time>
      </trkpt>
      <trkpt lat="48.53272" lon="2.04735">
        <ele>118.4</ele>
        <time>2026-03-20T15:59:49Z</time>
      </trkpt>
      <trkpt lat="48.53273" lon="2.04739">
        <ele>118.4</ele>
        <time>2026-03-20T15:59:50Z</time>
      </trkpt>
      <trkpt lat="48.53274" lon="2.04743">
        <ele>118.6</ele>
        <time>2026-03-20T15:59:51Z</time>
      </trkpt>
      <trkpt lat="48.53275" lon="2.04747">
        <ele>119.4</ele>
        <time>2026-03-20T15:59:52Z</time>
      </trkpt>
      <trkpt lat="48.53276" lon="2.04751">
        <ele>119.4</ele>
        <time>2026-03-20T15:59:53Z</time>
      </trkpt>
      <trkpt lat="48.53278" lon="2.04755">
        <ele>119.4</ele>
        <time>2026-03-20T15:59:54Z</time>
      </trkpt>
      <trkpt lat="48.53279" lon="2.04758">
        <ele>119.4</ele>
        <time>2026-03-20T15:59:55Z</time>
      </trkpt>
      <trkpt lat="48.53281" lon="2.04762">
        <ele>120.2</ele>
        <time>2026-03-20T15:59:56Z</time>
      </trkpt>
      <trkpt lat="48.53282" lon="2.04766">
        <ele>120.2</ele>
        <time>2026-03-20T15:59:57Z</time>
      </trkpt>
      <trkpt lat="48.53284" lon="2.0477">
        <ele>120.2</ele>
        <time>2026-03-20T15:59:58Z</time>
      </trkpt>
      <trkpt lat="48.53285" lon="2.04774">
        <ele>120.2</ele>
        <time>2026-03-20T15:59:59Z</time>
      </trkpt>
      <trkpt lat="48.53287" lon="2.04778">
        <ele>120.4</ele>
        <time>2026-03-20T16:00:00Z</time>
      </trkpt>
      <trkpt lat="48.53289" lon="2.04781">
        <ele>120.4</ele>
        <time>2026-03-20T16:00:01Z</time>
      </trkpt>
      <trkpt lat="48.53291" lon="2.04785">
        <ele>120.4</ele>
        <time>2026-03-20T16:00:02Z</time>
      </trkpt>
      <trkpt lat="48.53293" lon="2.04788">
        <ele>120.4</ele>
        <time>2026-03-20T16:00:03Z</time>
      </trkpt>
      <trkpt lat="48.53295" lon="2.04791">
        <ele>120.8</ele>
        <time>2026-03-20T16:00:04Z</time>
      </trkpt>
      <trkpt lat="48.53297" lon="2.04794">
        <ele>120.8</ele>
        <time>2026-03-20T16:00:05Z</time>
      </trkpt>
      <trkpt lat="48.53299" lon="2.04797">
        <ele>120.8</ele>
        <time>2026-03-20T16:00:06Z</time>
      </trkpt>
      <trkpt lat="48.53301" lon="2.048">
        <ele>121.2</ele>
        <time>2026-03-20T16:00:07Z</time>
      </trkpt>
      <trkpt lat="48.53303" lon="2.04803">
        <ele>121.8</ele>
        <time>2026-03-20T16:00:08Z</time>
      </trkpt>
      <trkpt lat="48.53304" lon="2.04806">
        <ele>121.8</ele>
        <time>2026-03-20T16:00:09Z</time>
      </trkpt>
      <trkpt lat="48.53306" lon="2.04808">
        <ele>121.8</ele>
        <time>2026-03-20T16:00:10Z</time>
      </trkpt>
      <trkpt lat="48.53308" lon="2.04811">
        <ele>122.6</ele>
        <time>2026-03-20T16:00:11Z</time>
      </trkpt>
      <trkpt lat="48.5331" lon="2.04814">
        <ele>122.8</ele>
        <time>2026-03-20T16:00:12Z</time>
      </trkpt>
      <trkpt lat="48.53312" lon="2.04816">
        <ele>122.8</ele>
        <time>2026-03-20T16:00:13Z</time>
      </trkpt>
      <trkpt lat="48.53314" lon="2.04819">
        <ele>122.8</ele>
        <time>2026-03-20T16:00:14Z</time>
      </trkpt>
      <trkpt lat="48.53317" lon="2.04822">
        <ele>122.8</ele>
        <time>2026-03-20T16:00:15Z</time>
      </trkpt>
      <trkpt lat="48.53319" lon="2.04824">
        <ele>123.4</ele>
        <time>2026-03-20T16:00:16Z</time>
      </trkpt>
      <trkpt lat="48.53321" lon="2.04826">
        <ele>123.4</ele>
        <time>2026-03-20T16:00:17Z</time>
      </trkpt>
      <trkpt lat="48.53324" lon="2.04829">
        <ele>123.4</ele>
        <time>2026-03-20T16:00:18Z</time>
      </trkpt>
      <trkpt lat="48.53326" lon="2.04831">
        <ele>123.8</ele>
        <time>2026-03-20T16:00:19Z</time>
      </trkpt>
      <trkpt lat="48.53328" lon="2.04834">
        <ele>124.4</ele>
        <time>2026-03-20T16:00:20Z</time>
      </trkpt>
      <trkpt lat="48.5333" lon="2.04837">
        <ele>124.4</ele>
        <time>2026-03-20T16:00:21Z</time>
      </trkpt>
      <trkpt lat="48.53332" lon="2.0484">
        <ele>124.4</ele>
        <time>2026-03-20T16:00:22Z</time>
      </trkpt>
      <trkpt lat="48.53334" lon="2.04842">
        <ele>124.4</ele>
        <time>2026-03-20T16:00:23Z</time>
      </trkpt>
      <trkpt lat="48.53336" lon="2.04845">
        <ele>125.2</ele>
        <time>2026-03-20T16:00:24Z</time>
      </trkpt>
      <trkpt lat="48.53338" lon="2.04847">
        <ele>125.2</ele>
        <time>2026-03-20T16:00:25Z</time>
      </trkpt>
      <trkpt lat="48.53341" lon="2.04849">
        <ele>125.2</ele>
        <time>2026-03-20T16:00:26Z</time>
      </trkpt>
      <trkpt lat="48.53343" lon="2.04852">
        <ele>125.2</ele>
        <time>2026-03-20T16:00:27Z</time>
      </trkpt>
      <trkpt lat="48.53345" lon="2.04855">
        <ele>126</ele>
        <time>2026-03-20T16:00:28Z</time>
      </trkpt>
      <trkpt lat="48.53348" lon="2.04857">
        <ele>126</ele>
        <time>2026-03-20T16:00:29Z</time>
      </trkpt>
      <trkpt lat="48.5335" lon="2.0486">
        <ele>126</ele>
        <time>2026-03-20T16:00:30Z</time>
      </trkpt>
      <trkpt lat="48.53352" lon="2.04863">
        <ele>126</ele>
        <time>2026-03-20T16:00:31Z</time>
      </trkpt>
      <trkpt lat="48.53354" lon="2.04866">
        <ele>126.4</ele>
        <time>2026-03-20T16:00:32Z</time>
      </trkpt>
      <trkpt lat="48.53357" lon="2.04869">
        <ele>126.4</ele>
        <time>2026-03-20T16:00:33Z</time>
      </trkpt>
      <trkpt lat="48.53359" lon="2.04872">
        <ele>126.4</ele>
        <time>2026-03-20T16:00:34Z</time>
      </trkpt>
      <trkpt lat="48.53361" lon="2.04874">
        <ele>127</ele>
        <time>2026-03-20T16:00:35Z</time>
      </trkpt>
      <trkpt lat="48.53363" lon="2.04877">
        <ele>127.2</ele>
        <time>2026-03-20T16:00:36Z</time>
      </trkpt>
      <trkpt lat="48.53365" lon="2.04879">
        <ele>127.2</ele>
        <time>2026-03-20T16:00:37Z</time>
      </trkpt>
      <trkpt lat="48.53367" lon="2.04881">
        <ele>127.2</ele>
        <time>2026-03-20T16:00:38Z</time>
      </trkpt>
      <trkpt lat="48.53369" lon="2.04884">
        <ele>127.8</ele>
        <time>2026-03-20T16:00:39Z</time>
      </trkpt>
      <trkpt lat="48.53371" lon="2.04887">
        <ele>127.6</ele>
        <time>2026-03-20T16:00:40Z</time>
      </trkpt>
      <trkpt lat="48.53373" lon="2.04889">
        <ele>127.6</ele>
        <time>2026-03-20T16:00:41Z</time>
      </trkpt>
      <trkpt lat="48.53375" lon="2.04892">
        <ele>127.6</ele>
        <time>2026-03-20T16:00:42Z</time>
      </trkpt>
      <trkpt lat="48.53377" lon="2.04894">
        <ele>128.6</ele>
        <time>2026-03-20T16:00:43Z</time>
      </trkpt>
      <trkpt lat="48.53379" lon="2.04897">
        <ele>129</ele>
        <time>2026-03-20T16:00:44Z</time>
      </trkpt>
      <trkpt lat="48.53381" lon="2.049">
        <ele>129</ele>
        <time>2026-03-20T16:00:45Z</time>
      </trkpt>
      <trkpt lat="48.53383" lon="2.04902">
        <ele>129</ele>
        <time>2026-03-20T16:00:46Z</time>
      </trkpt>
      <trkpt lat="48.53385" lon="2.04905">
        <ele>129</ele>
        <time>2026-03-20T16:00:47Z</time>
      </trkpt>
      <trkpt lat="48.53387" lon="2.04908">
        <ele>129.2</ele>
        <time>2026-03-20T16:00:48Z</time>
      </trkpt>
      <trkpt lat="48.53388" lon="2.04911">
        <ele>129.2</ele>
        <time>2026-03-20T16:00:49Z</time>
      </trkpt>
      <trkpt lat="48.5339" lon="2.04914">
        <ele>129.2</ele>
        <time>2026-03-20T16:00:50Z</time>
      </trkpt>
      <trkpt lat="48.53392" lon="2.04917">
        <ele>129.8</ele>
        <time>2026-03-20T16:00:51Z</time>
      </trkpt>
      <trkpt lat="48.53393" lon="2.0492">
        <ele>130</ele>
        <time>2026-03-20T16:00:52Z</time>
      </trkpt>
      <trkpt lat="48.53395" lon="2.04923">
        <ele>130</ele>
        <time>2026-03-20T16:00:53Z</time>
      </trkpt>
      <trkpt lat="48.53397" lon="2.04926">
        <ele>130</ele>
        <time>2026-03-20T16:00:54Z</time>
      </trkpt>
      <trkpt lat="48.53398" lon="2.0493">
        <ele>130</ele>
        <time>2026-03-20T16:00:55Z</time>
      </trkpt>
      <trkpt lat="48.534" lon="2.04933">
        <ele>130.8</ele>
        <time>2026-03-20T16:00:56Z</time>
      </trkpt>
      <trkpt lat="48.53401" lon="2.04936">
        <ele>130.8</ele>
        <time>2026-03-20T16:00:57Z</time>
      </trkpt>
      <trkpt lat="48.53403" lon="2.0494">
        <ele>130.8</ele>
        <time>2026-03-20T16:00:58Z</time>
      </trkpt>
      <trkpt lat="48.53404" lon="2.04943">
        <ele>130.8</ele>
        <time>2026-03-20T16:00:59Z</time>
      </trkpt>
      <trkpt lat="48.53405" lon="2.04947">
        <ele>131.4</ele>
        <time>2026-03-20T16:01:00Z</time>
      </trkpt>
      <trkpt lat="48.53406" lon="2.0495">
        <ele>131.4</ele>
        <time>2026-03-20T16:01:01Z</time>
      </trkpt>
      <trkpt lat="48.53408" lon="2.04954">
        <ele>131.4</ele>
        <time>2026-03-20T16:01:02Z</time>
      </trkpt>
      <trkpt lat="48.53409" lon="2.04957">
        <ele>132.2</ele>
        <time>2026-03-20T16:01:03Z</time>
      </trkpt>
      <trkpt lat="48.5341" lon="2.04961">
        <ele>132.4</ele>
        <time>2026-03-20T16:01:04Z</time>
      </trkpt>
      <trkpt lat="48.53411" lon="2.04965">
        <ele>132.4</ele>
        <time>2026-03-20T16:01:05Z</time>
      </trkpt>
      <trkpt lat="48.53411" lon="2.04969">
        <ele>132.4</ele>
        <time>2026-03-20T16:01:06Z</time>
      </trkpt>
      <trkpt lat="48.53412" lon="2.04973">
        <ele>132.4</ele>
        <time>2026-03-20T16:01:07Z</time>
      </trkpt>
      <trkpt lat="48.53413" lon="2.04976">
        <ele>132.8</ele>
        <time>2026-03-20T16:01:08Z</time>
      </trkpt>
      <trkpt lat="48.53413" lon="2.0498">
        <ele>132.8</ele>
        <time>2026-03-20T16:01:09Z</time>
      </trkpt>
      <trkpt lat="48.53414" lon="2.04984">
        <ele>132.8</ele>
        <time>2026-03-20T16:01:10Z</time>
      </trkpt>
      <trkpt lat="48.53414" lon="2.04988">
        <ele>132.8</ele>
        <time>2026-03-20T16:01:11Z</time>
      </trkpt>
      <trkpt lat="48.53414" lon="2.04992">
        <ele>133.6</ele>
        <time>2026-03-20T16:01:12Z</time>
      </trkpt>
      <trkpt lat="48.53414" lon="2.04996">
        <ele>133.6</ele>
        <time>2026-03-20T16:01:13Z</time>
      </trkpt>
      <trkpt lat="48.53414" lon="2.05">
        <ele>133.6</ele>
        <time>2026-03-20T16:01:14Z</time>
      </trkpt>
      <trkpt lat="48.53415" lon="2.05004">
        <ele>134.2</ele>
        <time>2026-03-20T16:01:15Z</time>
      </trkpt>
      <trkpt lat="48.53415" lon="2.05008">
        <ele>133.8</ele>
        <time>2026-03-20T16:01:16Z</time>
      </trkpt>
      <trkpt lat="48.53415" lon="2.05012">
        <ele>133.8</ele>
        <time>2026-03-20T16:01:17Z</time>
      </trkpt>
      <trkpt lat="48.53415" lon="2.05016">
        <ele>133.8</ele>
        <time>2026-03-20T16:01:18Z</time>
      </trkpt>
      <trkpt lat="48.53416" lon="2.0502">
        <ele>134.2</ele>
        <time>2026-03-20T16:01:19Z</time>
      </trkpt>
      <trkpt lat="48.53416" lon="2.05024">
        <ele>134.4</ele>
        <time>2026-03-20T16:01:20Z</time>
      </trkpt>
      <trkpt lat="48.53415" lon="2.05028">
        <ele>134.4</ele>
        <time>2026-03-20T16:01:21Z</time>
      </trkpt>
      <trkpt lat="48.53415" lon="2.05032">
        <ele>134.4</ele>
        <time>2026-03-20T16:01:22Z</time>
      </trkpt>
      <trkpt lat="48.53416" lon="2.05036">
        <ele>134.4</ele>
        <time>2026-03-20T16:01:23Z</time>
      </trkpt>
      <trkpt lat="48.53416" lon="2.0504">
        <ele>135.4</ele>
        <time>2026-03-20T16:01:24Z</time>
      </trkpt>
      <trkpt lat="48.53416" lon="2.05044">
        <ele>135.4</ele>
        <time>2026-03-20T16:01:25Z</time>
      </trkpt>
      <trkpt lat="48.53416" lon="2.05048">
        <ele>135.4</ele>
        <time>2026-03-20T16:01:26Z</time>
      </trkpt>
      <trkpt lat="48.53416" lon="2.05052">
        <ele>135.4</ele>
        <time>2026-03-20T16:01:27Z</time>
      </trkpt>
      <trkpt lat="48.53416" lon="2.05056">
        <ele>135.8</ele>
        <time>2026-03-20T16:01:28Z</time>
      </trkpt>
      <trkpt lat="48.53416" lon="2.0506">
        <ele>135.8</ele>
        <time>2026-03-20T16:01:29Z</time>
      </trkpt>
      <trkpt lat="48.53416" lon="2.05064">
        <ele>135.8</ele>
        <time>2026-03-20T16:01:30Z</time>
      </trkpt>
      <trkpt lat="48.53416" lon="2.05068">
        <ele>136.4</ele>
        <time>2026-03-20T16:01:31Z</time>
      </trkpt>
      <trkpt lat="48.53416" lon="2.05072">
        <ele>136.2</ele>
        <time>2026-03-20T16:01:32Z</time>
      </trkpt>
      <trkpt lat="48.53417" lon="2.05076">
        <ele>136.2</ele>
        <time>2026-03-20T16:01:33Z</time>
      </trkpt>
      <trkpt lat="48.53417" lon="2.0508">
        <ele>136.2</ele>
        <time>2026-03-20T16:01:34Z</time>
      </trkpt>
      <trkpt lat="48.53417" lon="2.05084">
        <ele>136.2</ele>
        <time>2026-03-20T16:01:35Z</time>
      </trkpt>
      <trkpt lat="48.53417" lon="2.05088">
        <ele>136.8</ele>
        <time>2026-03-20T16:01:36Z</time>
      </trkpt>
      <trkpt lat="48.53418" lon="2.05092">
        <ele>136.8</ele>
        <time>2026-03-20T16:01:37Z</time>
      </trkpt>
      <trkpt lat="48.53418" lon="2.05096">
        <ele>136.8</ele>
        <time>2026-03-20T16:01:38Z</time>
      </trkpt>
      <trkpt lat="48.53418" lon="2.051">
        <ele>137.8</ele>
        <time>2026-03-20T16:01:39Z</time>
      </trkpt>
      <trkpt lat="48.53418" lon="2.05104">
        <ele>138</ele>
        <time>2026-03-20T16:01:40Z</time>
      </trkpt>
      <trkpt lat="48.53418" lon="2.05108">
        <ele>138</ele>
        <time>2026-03-20T16:01:41Z</time>
      </trkpt>
      <trkpt lat="48.53418" lon="2.05112">
        <ele>138</ele>
        <time>2026-03-20T16:01:42Z</time>
      </trkpt>
      <trkpt lat="48.53418" lon="2.05116">
        <ele>138</ele>
        <time>2026-03-20T16:01:43Z</time>
      </trkpt>
      <trkpt lat="48.53418" lon="2.0512">
        <ele>138.6</ele>
        <time>2026-03-20T16:01:44Z</time>
      </trkpt>
      <trkpt lat="48.53419" lon="2.05124">
        <ele>138.6</ele>
        <time>2026-03-20T16:01:45Z</time>
      </trkpt>
      <trkpt lat="48.53419" lon="2.05128">
        <ele>138.6</ele>
        <time>2026-03-20T16:01:46Z</time>
      </trkpt>
      <trkpt lat="48.5342" lon="2.05132">
        <ele>139</ele>
        <time>2026-03-20T16:01:47Z</time>
      </trkpt>
      <trkpt lat="48.5342" lon="2.05136">
        <ele>139</ele>
        <time>2026-03-20T16:01:48Z</time>
      </trkpt>
      <trkpt lat="48.53421" lon="2.05139">
        <ele>139</ele>
        <time>2026-03-20T16:01:49Z</time>
      </trkpt>
      <trkpt lat="48.53421" lon="2.05143">
        <ele>139</ele>
        <time>2026-03-20T16:01:50Z</time>
      </trkpt>
      <trkpt lat="48.53422" lon="2.05147">
        <ele>139.8</ele>
        <time>2026-03-20T16:01:51Z</time>
      </trkpt>
      <trkpt lat="48.53422" lon="2.05151">
        <ele>140.2</ele>
        <time>2026-03-20T16:01:52Z</time>
      </trkpt>
      <trkpt lat="48.53423" lon="2.05155">
        <ele>140.2</ele>
        <time>2026-03-20T16:01:53Z</time>
      </trkpt>
      <trkpt lat="48.53423" lon="2.05159">
        <ele>140.2</ele>
        <time>2026-03-20T16:01:54Z</time>
      </trkpt>
      <trkpt lat="48.53424" lon="2.05163">
        <ele>140.6</ele>
        <time>2026-03-20T16:01:55Z</time>
      </trkpt>
      <trkpt lat="48.53425" lon="2.05167">
        <ele>140.8</ele>
        <time>2026-03-20T16:01:56Z</time>
      </trkpt>
      <trkpt lat="48.53425" lon="2.05171">
        <ele>140.8</ele>
        <time>2026-03-20T16:01:57Z</time>
      </trkpt>
      <trkpt lat="48.53426" lon="2.05175">
        <ele>140.8</ele>
        <time>2026-03-20T16:01:58Z</time>
      </trkpt>
      <trkpt lat="48.53427" lon="2.05179">
        <ele>141</ele>
        <time>2026-03-20T16:01:59Z</time>
      </trkpt>
      <trkpt lat="48.53428" lon="2.05183">
        <ele>141.4</ele>
        <time>2026-03-20T16:02:00Z</time>
      </trkpt>
      <trkpt lat="48.53429" lon="2.05187">
        <ele>141.4</ele>
        <time>2026-03-20T16:02:01Z</time>
      </trkpt>
      <trkpt lat="48.53431" lon="2.05191">
        <ele>141.4</ele>
        <time>2026-03-20T16:02:02Z</time>
      </trkpt>
      <trkpt lat="48.53432" lon="2.05195">
        <ele>141.4</ele>
        <time>2026-03-20T16:02:03Z</time>
      </trkpt>
      <trkpt lat="48.53433" lon="2.05198">
        <ele>141.6</ele>
        <time>2026-03-20T16:02:04Z</time>
      </trkpt>
      <trkpt lat="48.53434" lon="2.05202">
        <ele>141.6</ele>
        <time>2026-03-20T16:02:05Z</time>
      </trkpt>
      <trkpt lat="48.53436" lon="2.05206">
        <ele>141.6</ele>
        <time>2026-03-20T16:02:06Z</time>
      </trkpt>
      <trkpt lat="48.53437" lon="2.05209">
        <ele>142</ele>
        <time>2026-03-20T16:02:07Z</time>
      </trkpt>
      <trkpt lat="48.53439" lon="2.05213">
        <ele>141.8</ele>
        <time>2026-03-20T16:02:08Z</time>
      </trkpt>
      <trkpt lat="48.5344" lon="2.05216">
        <ele>141.8</ele>
        <time>2026-03-20T16:02:09Z</time>
      </trkpt>
      <trkpt lat="48.53441" lon="2.0522">
        <ele>141.8</ele>
        <time>2026-03-20T16:02:10Z</time>
      </trkpt>
      <trkpt lat="48.53443" lon="2.05224">
        <ele>142.6</ele>
        <time>2026-03-20T16:02:11Z</time>
      </trkpt>
      <trkpt lat="48.53444" lon="2.05227">
        <ele>143</ele>
        <time>2026-03-20T16:02:12Z</time>
      </trkpt>
      <trkpt lat="48.53445" lon="2.05231">
        <ele>143</ele>
        <time>2026-03-20T16:02:13Z</time>
      </trkpt>
      <trkpt lat="48.53446" lon="2.05234">
        <ele>143</ele>
        <time>2026-03-20T16:02:14Z</time>
      </trkpt>
      <trkpt lat="48.53448" lon="2.05237">
        <ele>143.2</ele>
        <time>2026-03-20T16:02:15Z</time>
      </trkpt>
      <trkpt lat="48.53449" lon="2.05241">
        <ele>143.4</ele>
        <time>2026-03-20T16:02:16Z</time>
      </trkpt>
      <trkpt lat="48.5345" lon="2.05244">
        <ele>143.4</ele>
        <time>2026-03-20T16:02:17Z</time>
      </trkpt>
      <trkpt lat="48.53452" lon="2.05247">
        <ele>143.4</ele>
        <time>2026-03-20T16:02:18Z</time>
      </trkpt>
      <trkpt lat="48.53453" lon="2.05251">
        <ele>144.2</ele>
        <time>2026-03-20T16:02:19Z</time>
      </trkpt>
      <trkpt lat="48.53454" lon="2.05255">
        <ele>145.2</ele>
        <time>2026-03-20T16:02:20Z</time>
      </trkpt>
      <trkpt lat="48.53456" lon="2.05258">
        <ele>145.2</ele>
        <time>2026-03-20T16:02:21Z</time>
      </trkpt>
      <trkpt lat="48.53457" lon="2.05262">
        <ele>145.2</ele>
        <time>2026-03-20T16:02:22Z</time>
      </trkpt>
      <trkpt lat="48.53458" lon="2.05265">
        <ele>145.2</ele>
        <time>2026-03-20T16:02:23Z</time>
      </trkpt>
      <trkpt lat="48.5346" lon="2.05269">
        <ele>145.4</ele>
        <time>2026-03-20T16:02:24Z</time>
      </trkpt>
      <trkpt lat="48.53461" lon="2.05273">
        <ele>145.4</ele>
        <time>2026-03-20T16:02:25Z</time>
      </trkpt>
      <trkpt lat="48.53463" lon="2.05277">
        <ele>145.4</ele>
        <time>2026-03-20T16:02:26Z</time>
      </trkpt>
      <trkpt lat="48.53464" lon="2.0528">
        <ele>145.4</ele>
        <time>2026-03-20T16:02:27Z</time>
      </trkpt>
      <trkpt lat="48.53466" lon="2.05284">
        <ele>145.4</ele>
        <time>2026-03-20T16:02:28Z</time>
      </trkpt>
      <trkpt lat="48.53468" lon="2.05288">
        <ele>145.4</ele>
        <time>2026-03-20T16:02:29Z</time>
      </trkpt>
      <trkpt lat="48.53469" lon="2.05292">
        <ele>145.4</ele>
        <time>2026-03-20T16:02:30Z</time>
      </trkpt>
      <trkpt lat="48.53471" lon="2.05295">
        <ele>146</ele>
        <time>2026-03-20T16:02:31Z</time>
      </trkpt>
      <trkpt lat="48.53472" lon="2.05299">
        <ele>146.2</ele>
        <time>2026-03-20T16:02:32Z</time>
      </trkpt>
      <trkpt lat="48.53474" lon="2.05302">
        <ele>146.2</ele>
        <time>2026-03-20T16:02:33Z</time>
      </trkpt>
      <trkpt lat="48.53476" lon="2.05304">
        <ele>146.2</ele>
        <time>2026-03-20T16:02:34Z</time>
      </trkpt>
      <trkpt lat="48.53479" lon="2.05307">
        <ele>147.2</ele>
        <time>2026-03-20T16:02:35Z</time>
      </trkpt>
      <trkpt lat="48.53481" lon="2.0531">
        <ele>147.4</ele>
        <time>2026-03-20T16:02:36Z</time>
      </trkpt>
      <trkpt lat="48.53483" lon="2.05312">
        <ele>147.4</ele>
        <time>2026-03-20T16:02:37Z</time>
      </trkpt>
      <trkpt lat="48.53486" lon="2.05314">
        <ele>147.4</ele>
        <time>2026-03-20T16:02:38Z</time>
      </trkpt>
      <trkpt lat="48.53489" lon="2.05315">
        <ele>148</ele>
        <time>2026-03-20T16:02:39Z</time>
      </trkpt>
      <trkpt lat="48.53492" lon="2.05316">
        <ele>148.6</ele>
        <time>2026-03-20T16:02:40Z</time>
      </trkpt>
      <trkpt lat="48.53494" lon="2.05317">
        <ele>148.6</ele>
        <time>2026-03-20T16:02:41Z</time>
      </trkpt>
      <trkpt lat="48.53498" lon="2.05316">
        <ele>148.6</ele>
        <time>2026-03-20T16:02:42Z</time>
      </trkpt>
      <trkpt lat="48.53501" lon="2.05316">
        <ele>148.6</ele>
        <time>2026-03-20T16:02:43Z</time>
      </trkpt>
      <trkpt lat="48.53503" lon="2.05316">
        <ele>149</ele>
        <time>2026-03-20T16:02:44Z</time>
      </trkpt>
      <trkpt lat="48.53506" lon="2.05315">
        <ele>149</ele>
        <time>2026-03-20T16:02:45Z</time>
      </trkpt>
      <trkpt lat="48.53509" lon="2.05313">
        <ele>149</ele>
        <time>2026-03-20T16:02:46Z</time>
      </trkpt>
      <trkpt lat="48.53512" lon="2.05312">
        <ele>149.2</ele>
        <time>2026-03-20T16:02:47Z</time>
      </trkpt>
      <trkpt lat="48.53514" lon="2.0531">
        <ele>149.2</ele>
        <time>2026-03-20T16:02:48Z</time>
      </trkpt>
      <trkpt lat="48.53517" lon="2.05308">
        <ele>149.2</ele>
        <time>2026-03-20T16:02:49Z</time>
      </trkpt>
      <trkpt lat="48.5352" lon="2.05305">
        <ele>149.2</ele>
        <time>2026-03-20T16:02:50Z</time>
      </trkpt>
      <trkpt lat="48.53523" lon="2.05303">
        <ele>149.2</ele>
        <time>2026-03-20T16:02:51Z</time>
      </trkpt>
      <trkpt lat="48.53525" lon="2.05299">
        <ele>150</ele>
        <time>2026-03-20T16:02:52Z</time>
      </trkpt>
      <trkpt lat="48.53527" lon="2.05295">
        <ele>150</ele>
        <time>2026-03-20T16:02:53Z</time>
      </trkpt>
      <trkpt lat="48.53529" lon="2.05291">
        <ele>150</ele>
        <time>2026-03-20T16:02:54Z</time>
      </trkpt>
      <trkpt lat="48.53531" lon="2.05287">
        <ele>150</ele>
        <time>2026-03-20T16:02:55Z</time>
      </trkpt>
      <trkpt lat="48.53532" lon="2.05282">
        <ele>149.8</ele>
        <time>2026-03-20T16:02:56Z</time>
      </trkpt>
      <trkpt lat="48.53533" lon="2.05278">
        <ele>149.8</ele>
        <time>2026-03-20T16:02:57Z</time>
      </trkpt>
      <trkpt lat="48.53534" lon="2.05274">
        <ele>149.8</ele>
        <time>2026-03-20T16:02:58Z</time>
      </trkpt>
      <trkpt lat="48.53534" lon="2.05269">
        <ele>149.8</ele>
        <time>2026-03-20T16:02:59Z</time>
      </trkpt>
      <trkpt lat="48.53534" lon="2.05264">
        <ele>150.4</ele>
        <time>2026-03-20T16:03:00Z</time>
      </trkpt>
      <trkpt lat="48.53534" lon="2.0526">
        <ele>150.4</ele>
        <time>2026-03-20T16:03:01Z</time>
      </trkpt>
      <trkpt lat="48.53533" lon="2.05255">
        <ele>150.4</ele>
        <time>2026-03-20T16:03:02Z</time>
      </trkpt>
      <trkpt lat="48.53533" lon="2.0525">
        <ele>151.4</ele>
        <time>2026-03-20T16:03:03Z</time>
      </trkpt>
      <trkpt lat="48.53532" lon="2.05245">
        <ele>151.6</ele>
        <time>2026-03-20T16:03:04Z</time>
      </trkpt>
      <trkpt lat="48.53531" lon="2.05241">
        <ele>151.6</ele>
        <time>2026-03-20T16:03:05Z</time>
      </trkpt>
      <trkpt lat="48.5353" lon="2.05236">
        <ele>151.6</ele>
        <time>2026-03-20T16:03:06Z</time>
      </trkpt>
      <trkpt lat="48.53528" lon="2.05231">
        <ele>152.2</ele>
        <time>2026-03-20T16:03:07Z</time>
      </trkpt>
      <trkpt lat="48.53527" lon="2.05227">
        <ele>152.4</ele>
        <time>2026-03-20T16:03:08Z</time>
      </trkpt>
      <trkpt lat="48.53526" lon="2.05221">
        <ele>152.4</ele>
        <time>2026-03-20T16:03:09Z</time>
      </trkpt>
      <trkpt lat="48.53524" lon="2.05216">
        <ele>152.4</ele>
        <time>2026-03-20T16:03:10Z</time>
      </trkpt>
      <trkpt lat="48.53523" lon="2.05211">
        <ele>152.8</ele>
        <time>2026-03-20T16:03:11Z</time>
      </trkpt>
      <trkpt lat="48.53521" lon="2.05206">
        <ele>153.2</ele>
        <time>2026-03-20T16:03:12Z</time>
      </trkpt>
      <trkpt lat="48.5352" lon="2.05201">
        <ele>153.2</ele>
        <time>2026-03-20T16:03:13Z</time>
      </trkpt>
      <trkpt lat="48.53518" lon="2.05196">
        <ele>153.2</ele>
        <time>2026-03-20T16:03:14Z</time>
      </trkpt>
      <trkpt lat="48.53517" lon="2.05191">
        <ele>153.2</ele>
        <time>2026-03-20T16:03:15Z</time>
      </trkpt>
      <trkpt lat="48.53515" lon="2.05186">
        <ele>154</ele>
        <time>2026-03-20T16:03:16Z</time>
      </trkpt>
      <trkpt lat="48.53513" lon="2.05181">
        <ele>154</ele>
        <time>2026-03-20T16:03:17Z</time>
      </trkpt>
      <trkpt lat="48.53512" lon="2.05176">
        <ele>154</ele>
        <time>2026-03-20T16:03:18Z</time>
      </trkpt>
      <trkpt lat="48.5351" lon="2.05171">
        <ele>154.2</ele>
        <time>2026-03-20T16:03:19Z</time>
      </trkpt>
      <trkpt lat="48.53509" lon="2.05165">
        <ele>154.8</ele>
        <time>2026-03-20T16:03:20Z</time>
      </trkpt>
      <trkpt lat="48.53509" lon="2.0516">
        <ele>154.8</ele>
        <time>2026-03-20T16:03:21Z</time>
      </trkpt>
      <trkpt lat="48.53508" lon="2.05154">
        <ele>154.8</ele>
        <time>2026-03-20T16:03:22Z</time>
      </trkpt>
      <trkpt lat="48.53508" lon="2.05149">
        <ele>154.8</ele>
        <time>2026-03-20T16:03:23Z</time>
      </trkpt>
      <trkpt lat="48.53508" lon="2.05143">
        <ele>155.2</ele>
        <time>2026-03-20T16:03:24Z</time>
      </trkpt>
      <trkpt lat="48.53509" lon="2.05138">
        <ele>155.2</ele>
        <time>2026-03-20T16:03:25Z</time>
      </trkpt>
      <trkpt lat="48.53509" lon="2.05133">
        <ele>155.2</ele>
        <time>2026-03-20T16:03:26Z</time>
      </trkpt>
      <trkpt lat="48.53511" lon="2.05128">
        <ele>156.2</ele>
        <time>2026-03-20T16:03:27Z</time>
      </trkpt>
      <trkpt lat="48.53513" lon="2.05124">
        <ele>155.8</ele>
        <time>2026-03-20T16:03:28Z</time>
      </trkpt>
      <trkpt lat="48.53514" lon="2.05119">
        <ele>155.8</ele>
        <time>2026-03-20T16:03:29Z</time>
      </trkpt>
      <trkpt lat="48.53517" lon="2.05114">
        <ele>155.8</ele>
        <time>2026-03-20T16:03:30Z</time>
      </trkpt>
      <trkpt lat="48.53519" lon="2.05109">
        <ele>155.8</ele>
        <time>2026-03-20T16:03:31Z</time>
      </trkpt>
      <trkpt lat="48.53521" lon="2.05104">
        <ele>156.4</ele>
        <time>2026-03-20T16:03:32Z</time>
      </trkpt>
      <trkpt lat="48.53523" lon="2.05099">
        <ele>156.4</ele>
        <time>2026-03-20T16:03:33Z</time>
      </trkpt>
      <trkpt lat="48.53525" lon="2.05095">
        <ele>156.4</ele>
        <time>2026-03-20T16:03:34Z</time>
      </trkpt>
      <trkpt lat="48.53528" lon="2.05091">
        <ele>157</ele>
        <time>2026-03-20T16:03:35Z</time>
      </trkpt>
      <trkpt lat="48.5353" lon="2.05087">
        <ele>156.8</ele>
        <time>2026-03-20T16:03:36Z</time>
      </trkpt>
      <trkpt lat="48.53532" lon="2.05083">
        <ele>156.8</ele>
        <time>2026-03-20T16:03:37Z</time>
      </trkpt>
      <trkpt lat="48.53535" lon="2.05079">
        <ele>156.8</ele>
        <time>2026-03-20T16:03:38Z</time>
      </trkpt>
      <trkpt lat="48.53537" lon="2.05075">
        <ele>157.8</ele>
        <time>2026-03-20T16:03:39Z</time>
      </trkpt>
      <trkpt lat="48.5354" lon="2.05071">
        <ele>158</ele>
        <time>2026-03-20T16:03:40Z</time>
      </trkpt>
      <trkpt lat="48.53543" lon="2.05068">
        <ele>158</ele>
        <time>2026-03-20T16:03:41Z</time>
      </trkpt>
      <trkpt lat="48.53546" lon="2.05065">
        <ele>158</ele>
        <time>2026-03-20T16:03:42Z</time>
      </trkpt>
      <trkpt lat="48.53549" lon="2.05061">
        <ele>158.8</ele>
        <time>2026-03-20T16:03:43Z</time>
      </trkpt>
      <trkpt lat="48.53551" lon="2.05057">
        <ele>158.8</ele>
        <time>2026-03-20T16:03:44Z</time>
      </trkpt>
      <trkpt lat="48.53554" lon="2.05054">
        <ele>158.8</ele>
        <time>2026-03-20T16:03:45Z</time>
      </trkpt>
      <trkpt lat="48.53557" lon="2.05051">
        <ele>158.8</ele>
        <time>2026-03-20T16:03:46Z</time>
      </trkpt>
      <trkpt lat="48.5356" lon="2.05048">
        <ele>159.2</ele>
        <time>2026-03-20T16:03:47Z</time>
      </trkpt>
      <trkpt lat="48.53563" lon="2.05045">
        <ele>159.4</ele>
        <time>2026-03-20T16:03:48Z</time>
      </trkpt>
      <trkpt lat="48.53566" lon="2.05042">
        <ele>159.4</ele>
        <time>2026-03-20T16:03:49Z</time>
      </trkpt>
      <trkpt lat="48.53569" lon="2.05039">
        <ele>159.4</ele>
        <time>2026-03-20T16:03:50Z</time>
      </trkpt>
      <trkpt lat="48.53571" lon="2.05036">
        <ele>160.4</ele>
        <time>2026-03-20T16:03:51Z</time>
      </trkpt>
      <trkpt lat="48.53574" lon="2.05034">
        <ele>160.2</ele>
        <time>2026-03-20T16:03:52Z</time>
      </trkpt>
      <trkpt lat="48.53577" lon="2.05031">
        <ele>160.2</ele>
        <time>2026-03-20T16:03:53Z</time>
      </trkpt>
      <trkpt lat="48.53579" lon="2.05028">
        <ele>160.2</ele>
        <time>2026-03-20T16:03:54Z</time>
      </trkpt>
      <trkpt lat="48.53582" lon="2.05025">
        <ele>160.8</ele>
        <time>2026-03-20T16:03:55Z</time>
      </trkpt>
      <trkpt lat="48.53586" lon="2.05022">
        <ele>160.4</ele>
        <time>2026-03-20T16:03:56Z</time>
      </trkpt>
      <trkpt lat="48.53589" lon="2.0502">
        <ele>160.4</ele>
        <time>2026-03-20T16:03:57Z</time>
      </trkpt>
      <trkpt lat="48.53591" lon="2.05016">
        <ele>160.4</ele>
        <time>2026-03-20T16:03:58Z</time>
      </trkpt>
      <trkpt lat="48.53594" lon="2.05013">
        <ele>161.4</ele>
        <time>2026-03-20T16:03:59Z</time>
      </trkpt>
      <trkpt lat="48.53597" lon="2.05009">
        <ele>161.6</ele>
        <time>2026-03-20T16:04:00Z</time>
      </trkpt>
      <trkpt lat="48.536" lon="2.05006">
        <ele>161.6</ele>
        <time>2026-03-20T16:04:01Z</time>
      </trkpt>
      <trkpt lat="48.53603" lon="2.05003">
        <ele>161.6</ele>
        <time>2026-03-20T16:04:02Z</time>
      </trkpt>
      <trkpt lat="48.53606" lon="2.05003">
        <ele>162</ele>
        <time>2026-03-20T16:04:03Z</time>
      </trkpt>
      <trkpt lat="48.5361" lon="2.05004">
        <ele>161.8</ele>
        <time>2026-03-20T16:04:04Z</time>
      </trkpt>
      <trkpt lat="48.53613" lon="2.05005">
        <ele>161.8</ele>
        <time>2026-03-20T16:04:05Z</time>
      </trkpt>
      <trkpt lat="48.53616" lon="2.05006">
        <ele>161.8</ele>
        <time>2026-03-20T16:04:06Z</time>
      </trkpt>
      <trkpt lat="48.5362" lon="2.05008">
        <ele>161.8</ele>
        <time>2026-03-20T16:04:07Z</time>
      </trkpt>
      <trkpt lat="48.53623" lon="2.0501">
        <ele>161.4</ele>
        <time>2026-03-20T16:04:08Z</time>
      </trkpt>
      <trkpt lat="48.53627" lon="2.05012">
        <ele>161.4</ele>
        <time>2026-03-20T16:04:09Z</time>
      </trkpt>
      <trkpt lat="48.53631" lon="2.05014">
        <ele>161.4</ele>
        <time>2026-03-20T16:04:10Z</time>
      </trkpt>
      <trkpt lat="48.53635" lon="2.05015">
        <ele>161.4</ele>
        <time>2026-03-20T16:04:11Z</time>
      </trkpt>
      <trkpt lat="48.5364" lon="2.05018">
        <ele>160</ele>
        <time>2026-03-20T16:04:12Z</time>
      </trkpt>
      <trkpt lat="48.53646" lon="2.05019">
        <ele>160</ele>
        <time>2026-03-20T16:04:13Z</time>
      </trkpt>
      <trkpt lat="48.53652" lon="2.05021">
        <ele>160</ele>
        <time>2026-03-20T16:04:14Z</time>
      </trkpt>
      <trkpt lat="48.53658" lon="2.05022">
        <ele>159</ele>
        <time>2026-03-20T16:04:15Z</time>
      </trkpt>
      <trkpt lat="48.53664" lon="2.05021">
        <ele>159.4</ele>
        <time>2026-03-20T16:04:16Z</time>
      </trkpt>
      <trkpt lat="48.53668" lon="2.05021">
        <ele>159.4</ele>
        <time>2026-03-20T16:04:17Z</time>
      </trkpt>
      <trkpt lat="48.53674" lon="2.05021">
        <ele>159.4</ele>
        <time>2026-03-20T16:04:18Z</time>
      </trkpt>
      <trkpt lat="48.5368" lon="2.0502">
        <ele>159.4</ele>
        <time>2026-03-20T16:04:19Z</time>
      </trkpt>
      <trkpt lat="48.53685" lon="2.0502">
        <ele>160.2</ele>
        <time>2026-03-20T16:04:20Z</time>
      </trkpt>
      <trkpt lat="48.53691" lon="2.05019">
        <ele>160.2</ele>
        <time>2026-03-20T16:04:21Z</time>
      </trkpt>
      <trkpt lat="48.53696" lon="2.05018">
        <ele>160.2</ele>
        <time>2026-03-20T16:04:22Z</time>
      </trkpt>
      <trkpt lat="48.53702" lon="2.05018">
        <ele>159.8</ele>
        <time>2026-03-20T16:04:23Z</time>
      </trkpt>
      <trkpt lat="48.53707" lon="2.05017">
        <ele>160</ele>
        <time>2026-03-20T16:04:24Z</time>
      </trkpt>
      <trkpt lat="48.53711" lon="2.05017">
        <ele>160</ele>
        <time>2026-03-20T16:04:25Z</time>
      </trkpt>
      <trkpt lat="48.53716" lon="2.05017">
        <ele>160</ele>
        <time>2026-03-20T16:04:26Z</time>
      </trkpt>
      <trkpt lat="48.53721" lon="2.05015">
        <ele>161</ele>
        <time>2026-03-20T16:04:27Z</time>
      </trkpt>
      <trkpt lat="48.53725" lon="2.05015">
        <ele>161.2</ele>
        <time>2026-03-20T16:04:28Z</time>
      </trkpt>
      <trkpt lat="48.53729" lon="2.05014">
        <ele>161.2</ele>
        <time>2026-03-20T16:04:29Z</time>
      </trkpt>
      <trkpt lat="48.53734" lon="2.05014">
        <ele>161.2</ele>
        <time>2026-03-20T16:04:30Z</time>
      </trkpt>
      <trkpt lat="48.53738" lon="2.05014">
        <ele>161.2</ele>
        <time>2026-03-20T16:04:31Z</time>
      </trkpt>
      <trkpt lat="48.53743" lon="2.05014">
        <ele>161.6</ele>
        <time>2026-03-20T16:04:32Z</time>
      </trkpt>
      <trkpt lat="48.53748" lon="2.05015">
        <ele>161.6</ele>
        <time>2026-03-20T16:04:33Z</time>
      </trkpt>
      <trkpt lat="48.53753" lon="2.05016">
        <ele>161.6</ele>
        <time>2026-03-20T16:04:34Z</time>
      </trkpt>
      <trkpt lat="48.53758" lon="2.05019">
        <ele>162.4</ele>
        <time>2026-03-20T16:04:35Z</time>
      </trkpt>
      <trkpt lat="48.53762" lon="2.05022">
        <ele>163.4</ele>
        <time>2026-03-20T16:04:36Z</time>
      </trkpt>
      <trkpt lat="48.53767" lon="2.05026">
        <ele>163.4</ele>
        <time>2026-03-20T16:04:37Z</time>
      </trkpt>
      <trkpt lat="48.53772" lon="2.0503">
        <ele>163.4</ele>
        <time>2026-03-20T16:04:38Z</time>
      </trkpt>
      <trkpt lat="48.53777" lon="2.05034">
        <ele>163.4</ele>
        <time>2026-03-20T16:04:39Z</time>
      </trkpt>
      <trkpt lat="48.53781" lon="2.05038">
        <ele>164</ele>
        <time>2026-03-20T16:04:40Z</time>
      </trkpt>
      <trkpt lat="48.53786" lon="2.05043">
        <ele>164</ele>
        <time>2026-03-20T16:04:41Z</time>
      </trkpt>
      <trkpt lat="48.5379" lon="2.05047">
        <ele>164</ele>
        <time>2026-03-20T16:04:42Z</time>
      </trkpt>
      <trkpt lat="48.53795" lon="2.05052">
        <ele>165</ele>
        <time>2026-03-20T16:04:43Z</time>
      </trkpt>
      <trkpt lat="48.53799" lon="2.05056">
        <ele>166</ele>
        <time>2026-03-20T16:04:44Z</time>
      </trkpt>
      <trkpt lat="48.53803" lon="2.05061">
        <ele>166</ele>
        <time>2026-03-20T16:04:45Z</time>
      </trkpt>
      <trkpt lat="48.53807" lon="2.05065">
        <ele>166</ele>
        <time>2026-03-20T16:04:46Z</time>
      </trkpt>
      <trkpt lat="48.53811" lon="2.05069">
        <ele>166</ele>
        <time>2026-03-20T16:04:47Z</time>
      </trkpt>
      <trkpt lat="48.53815" lon="2.05073">
        <ele>167</ele>
        <time>2026-03-20T16:04:48Z</time>
      </trkpt>
      <trkpt lat="48.53819" lon="2.05076">
        <ele>167</ele>
        <time>2026-03-20T16:04:49Z</time>
      </trkpt>
      <trkpt lat="48.53822" lon="2.0508">
        <ele>167</ele>
        <time>2026-03-20T16:04:50Z</time>
      </trkpt>
      <trkpt lat="48.53826" lon="2.05083">
        <ele>168</ele>
        <time>2026-03-20T16:04:51Z</time>
      </trkpt>
      <trkpt lat="48.53829" lon="2.05086">
        <ele>168</ele>
        <time>2026-03-20T16:04:52Z</time>
      </trkpt>
      <trkpt lat="48.53832" lon="2.05088">
        <ele>168</ele>
        <time>2026-03-20T16:04:53Z</time>
      </trkpt>
      <trkpt lat="48.53835" lon="2.05091">
        <ele>168</ele>
        <time>2026-03-20T16:04:54Z</time>
      </trkpt>
      <trkpt lat="48.53838" lon="2.05094">
        <ele>168.8</ele>
        <time>2026-03-20T16:04:55Z</time>
      </trkpt>
      <trkpt lat="48.53841" lon="2.05096">
        <ele>168.6</ele>
        <time>2026-03-20T16:04:56Z</time>
      </trkpt>
      <trkpt lat="48.53844" lon="2.05099">
        <ele>168.6</ele>
        <time>2026-03-20T16:04:57Z</time>
      </trkpt>
      <trkpt lat="48.53847" lon="2.05102">
        <ele>168.6</ele>
        <time>2026-03-20T16:04:58Z</time>
      </trkpt>
      <trkpt lat="48.5385" lon="2.05104">
        <ele>168.6</ele>
        <time>2026-03-20T16:04:59Z</time>
      </trkpt>
      <trkpt lat="48.53853" lon="2.05107">
        <ele>168.8</ele>
        <time>2026-03-20T16:05:00Z</time>
      </trkpt>
      <trkpt lat="48.53856" lon="2.0511">
        <ele>168.8</ele>
        <time>2026-03-20T16:05:01Z</time>
      </trkpt>
      <trkpt lat="48.53859" lon="2.05112">
        <ele>168.8</ele>
        <time>2026-03-20T16:05:02Z</time>
      </trkpt>
      <trkpt lat="48.53862" lon="2.05115">
        <ele>169.6</ele>
        <time>2026-03-20T16:05:03Z</time>
      </trkpt>
      <trkpt lat="48.53865" lon="2.05118">
        <ele>170.2</ele>
        <time>2026-03-20T16:05:04Z</time>
      </trkpt>
      <trkpt lat="48.53867" lon="2.0512">
        <ele>170.2</ele>
        <time>2026-03-20T16:05:05Z</time>
      </trkpt>
      <trkpt lat="48.5387" lon="2.05121">
        <ele>170.2</ele>
        <time>2026-03-20T16:05:06Z</time>
      </trkpt>
      <trkpt lat="48.53873" lon="2.05122">
        <ele>170.2</ele>
        <time>2026-03-20T16:05:07Z</time>
      </trkpt>
      <trkpt lat="48.53876" lon="2.05124">
        <ele>170.6</ele>
        <time>2026-03-20T16:05:08Z</time>
      </trkpt>
      <trkpt lat="48.53879" lon="2.05124">
        <ele>170.6</ele>
        <time>2026-03-20T16:05:09Z</time>
      </trkpt>
      <trkpt lat="48.53882" lon="2.05123">
        <ele>170.6</ele>
        <time>2026-03-20T16:05:10Z</time>
      </trkpt>
      <trkpt lat="48.53885" lon="2.05121">
        <ele>170.6</ele>
        <time>2026-03-20T16:05:11Z</time>
      </trkpt>
      <trkpt lat="48.53887" lon="2.05118">
        <ele>171</ele>
        <time>2026-03-20T16:05:12Z</time>
      </trkpt>
      <trkpt lat="48.53889" lon="2.05116">
        <ele>171</ele>
        <time>2026-03-20T16:05:13Z</time>
      </trkpt>
      <trkpt lat="48.53891" lon="2.05113">
        <ele>171</ele>
        <time>2026-03-20T16:05:14Z</time>
      </trkpt>
      <trkpt lat="48.53893" lon="2.0511">
        <ele>171.4</ele>
        <time>2026-03-20T16:05:15Z</time>
      </trkpt>
      <trkpt lat="48.53895" lon="2.05107">
        <ele>171.2</ele>
        <time>2026-03-20T16:05:16Z</time>
      </trkpt>
      <trkpt lat="48.53896" lon="2.05104">
        <ele>171.2</ele>
        <time>2026-03-20T16:05:17Z</time>
      </trkpt>
      <trkpt lat="48.53898" lon="2.051">
        <ele>171.2</ele>
        <time>2026-03-20T16:05:18Z</time>
      </trkpt>
      <trkpt lat="48.539" lon="2.05096">
        <ele>171.2</ele>
        <time>2026-03-20T16:05:19Z</time>
      </trkpt>
      <trkpt lat="48.53901" lon="2.05092">
        <ele>171.2</ele>
        <time>2026-03-20T16:05:20Z</time>
      </trkpt>
      <trkpt lat="48.53902" lon="2.05088">
        <ele>171.2</ele>
        <time>2026-03-20T16:05:21Z</time>
      </trkpt>
      <trkpt lat="48.53903" lon="2.05084">
        <ele>171.2</ele>
        <time>2026-03-20T16:05:22Z</time>
      </trkpt>
      <trkpt lat="48.53905" lon="2.0508">
        <ele>171</ele>
        <time>2026-03-20T16:05:23Z</time>
      </trkpt>
      <trkpt lat="48.53906" lon="2.05076">
        <ele>171</ele>
        <time>2026-03-20T16:05:24Z</time>
      </trkpt>
      <trkpt lat="48.53907" lon="2.05072">
        <ele>171</ele>
        <time>2026-03-20T16:05:25Z</time>
      </trkpt>
      <trkpt lat="48.53908" lon="2.05067">
        <ele>171</ele>
        <time>2026-03-20T16:05:26Z</time>
      </trkpt>
      <trkpt lat="48.53909" lon="2.05063">
        <ele>171</ele>
        <time>2026-03-20T16:05:27Z</time>
      </trkpt>
      <trkpt lat="48.53911" lon="2.05058">
        <ele>170.8</ele>
        <time>2026-03-20T16:05:28Z</time>
      </trkpt>
      <trkpt lat="48.53913" lon="2.05054">
        <ele>170.8</ele>
        <time>2026-03-20T16:05:29Z</time>
      </trkpt>
      <trkpt lat="48.53914" lon="2.05049">
        <ele>170.8</ele>
        <time>2026-03-20T16:05:30Z</time>
      </trkpt>
      <trkpt lat="48.53916" lon="2.05043">
        <ele>170.8</ele>
        <time>2026-03-20T16:05:31Z</time>
      </trkpt>
      <trkpt lat="48.53918" lon="2.05037">
        <ele>170.8</ele>
        <time>2026-03-20T16:05:32Z</time>
      </trkpt>
      <trkpt lat="48.53921" lon="2.05032">
        <ele>170.8</ele>
        <time>2026-03-20T16:05:33Z</time>
      </trkpt>
      <trkpt lat="48.53923" lon="2.05026">
        <ele>170.8</ele>
        <time>2026-03-20T16:05:34Z</time>
      </trkpt>
      <trkpt lat="48.53926" lon="2.05022">
        <ele>170.8</ele>
        <time>2026-03-20T16:05:35Z</time>
      </trkpt>
      <trkpt lat="48.5393" lon="2.05017">
        <ele>171.2</ele>
        <time>2026-03-20T16:05:36Z</time>
      </trkpt>
      <trkpt lat="48.53934" lon="2.05013">
        <ele>171.2</ele>
        <time>2026-03-20T16:05:37Z</time>
      </trkpt>
      <trkpt lat="48.53938" lon="2.0501">
        <ele>171.2</ele>
        <time>2026-03-20T16:05:38Z</time>
      </trkpt>
      <trkpt lat="48.53942" lon="2.05008">
        <ele>170.2</ele>
        <time>2026-03-20T16:05:39Z</time>
      </trkpt>
      <trkpt lat="48.53946" lon="2.05007">
        <ele>170.2</ele>
        <time>2026-03-20T16:05:40Z</time>
      </trkpt>
      <trkpt lat="48.53951" lon="2.05006">
        <ele>170.2</ele>
        <time>2026-03-20T16:05:41Z</time>
      </trkpt>
      <trkpt lat="48.53955" lon="2.05006">
        <ele>170.2</ele>
        <time>2026-03-20T16:05:42Z</time>
      </trkpt>
      <trkpt lat="48.5396" lon="2.05005">
        <ele>170.6</ele>
        <time>2026-03-20T16:05:43Z</time>
      </trkpt>
      <trkpt lat="48.53964" lon="2.05005">
        <ele>170.6</ele>
        <time>2026-03-20T16:05:44Z</time>
      </trkpt>
      <trkpt lat="48.53968" lon="2.05006">
        <ele>170.6</ele>
        <time>2026-03-20T16:05:45Z</time>
      </trkpt>
      <trkpt lat="48.53973" lon="2.05006">
        <ele>170.6</ele>
        <time>2026-03-20T16:05:46Z</time>
      </trkpt>
      <trkpt lat="48.53977" lon="2.05006">
        <ele>170.6</ele>
        <time>2026-03-20T16:05:47Z</time>
      </trkpt>
      <trkpt lat="48.53981" lon="2.05007">
        <ele>170.8</ele>
        <time>2026-03-20T16:05:48Z</time>
      </trkpt>
      <trkpt lat="48.53986" lon="2.05007">
        <ele>170.8</ele>
        <time>2026-03-20T16:05:49Z</time>
      </trkpt>
      <trkpt lat="48.5399" lon="2.05007">
        <ele>170.8</ele>
        <time>2026-03-20T16:05:50Z</time>
      </trkpt>
      <trkpt lat="48.53994" lon="2.05008">
        <ele>170.8</ele>
        <time>2026-03-20T16:05:51Z</time>
      </trkpt>
      <trkpt lat="48.53998" lon="2.05008">
        <ele>170.6</ele>
        <time>2026-03-20T16:05:52Z</time>
      </trkpt>
      <trkpt lat="48.54002" lon="2.05008">
        <ele>170.6</ele>
        <time>2026-03-20T16:05:53Z</time>
      </trkpt>
      <trkpt lat="48.54006" lon="2.05009">
        <ele>170.6</ele>
        <time>2026-03-20T16:05:54Z</time>
      </trkpt>
      <trkpt lat="48.5401" lon="2.0501">
        <ele>171</ele>
        <time>2026-03-20T16:05:55Z</time>
      </trkpt>
      <trkpt lat="48.54014" lon="2.05011">
        <ele>171.6</ele>
        <time>2026-03-20T16:05:56Z</time>
      </trkpt>
      <trkpt lat="48.54018" lon="2.05012">
        <ele>171.6</ele>
        <time>2026-03-20T16:05:57Z</time>
      </trkpt>
      <trkpt lat="48.54022" lon="2.05012">
        <ele>171.6</ele>
        <time>2026-03-20T16:05:58Z</time>
      </trkpt>
      <trkpt lat="48.54026" lon="2.05013">
        <ele>171.6</ele>
        <time>2026-03-20T16:05:59Z</time>
      </trkpt>
      <trkpt lat="48.5403" lon="2.05014">
        <ele>171.6</ele>
        <time>2026-03-20T16:06:00Z</time>
      </trkpt>
      <trkpt lat="48.54034" lon="2.05014">
        <ele>171.6</ele>
        <time>2026-03-20T16:06:01Z</time>
      </trkpt>
      <trkpt lat="48.54038" lon="2.05015">
        <ele>171.6</ele>
        <time>2026-03-20T16:06:02Z</time>
      </trkpt>
      <trkpt lat="48.54042" lon="2.05016">
        <ele>172</ele>
        <time>2026-03-20T16:06:03Z</time>
      </trkpt>
      <trkpt lat="48.54046" lon="2.05017">
        <ele>172.6</ele>
        <time>2026-03-20T16:06:04Z</time>
      </trkpt>
      <trkpt lat="48.54051" lon="2.05018">
        <ele>172.6</ele>
        <time>2026-03-20T16:06:05Z</time>
      </trkpt>
      <trkpt lat="48.54055" lon="2.05019">
        <ele>172.6</ele>
        <time>2026-03-20T16:06:06Z</time>
      </trkpt>
      <trkpt lat="48.54059" lon="2.0502">
        <ele>172.6</ele>
        <time>2026-03-20T16:06:07Z</time>
      </trkpt>
      <trkpt lat="48.54063" lon="2.05021">
        <ele>172.6</ele>
        <time>2026-03-20T16:06:08Z</time>
      </trkpt>
      <trkpt lat="48.54068" lon="2.05022">
        <ele>172.6</ele>
        <time>2026-03-20T16:06:09Z</time>
      </trkpt>
      <trkpt lat="48.54072" lon="2.05022">
        <ele>172.6</ele>
        <time>2026-03-20T16:06:10Z</time>
      </trkpt>
      <trkpt lat="48.54076" lon="2.05023">
        <ele>173.4</ele>
        <time>2026-03-20T16:06:11Z</time>
      </trkpt>
      <trkpt lat="48.5408" lon="2.05024">
        <ele>173.4</ele>
        <time>2026-03-20T16:06:12Z</time>
      </trkpt>
      <trkpt lat="48.54084" lon="2.05025">
        <ele>173.4</ele>
        <time>2026-03-20T16:06:13Z</time>
      </trkpt>
      <trkpt lat="48.54088" lon="2.05026">
        <ele>173.4</ele>
        <time>2026-03-20T16:06:14Z</time>
      </trkpt>
      <trkpt lat="48.54092" lon="2.05027">
        <ele>173.4</ele>
        <time>2026-03-20T16:06:15Z</time>
      </trkpt>
      <trkpt lat="48.54096" lon="2.05028">
        <ele>173.8</ele>
        <time>2026-03-20T16:06:16Z</time>
      </trkpt>
      <trkpt lat="48.54101" lon="2.05029">
        <ele>173.8</ele>
        <time>2026-03-20T16:06:17Z</time>
      </trkpt>
      <trkpt lat="48.54105" lon="2.0503">
        <ele>173.8</ele>
        <time>2026-03-20T16:06:18Z</time>
      </trkpt>
      <trkpt lat="48.54109" lon="2.05031">
        <ele>173.8</ele>
        <time>2026-03-20T16:06:19Z</time>
      </trkpt>
      <trkpt lat="48.54113" lon="2.05032">
        <ele>173.6</ele>
        <time>2026-03-20T16:06:20Z</time>
      </trkpt>
      <trkpt lat="48.54118" lon="2.05033">
        <ele>173.6</ele>
        <time>2026-03-20T16:06:21Z</time>
      </trkpt>
      <trkpt lat="48.54122" lon="2.05033">
        <ele>173.6</ele>
        <time>2026-03-20T16:06:22Z</time>
      </trkpt>
      <trkpt lat="48.54127" lon="2.05034">
        <ele>174.2</ele>
        <time>2026-03-20T16:06:23Z</time>
      </trkpt>
      <trkpt lat="48.54131" lon="2.05035">
        <ele>174</ele>
        <time>2026-03-20T16:06:24Z</time>
      </trkpt>
      <trkpt lat="48.54135" lon="2.05035">
        <ele>174</ele>
        <time>2026-03-20T16:06:25Z</time>
      </trkpt>
      <trkpt lat="48.5414" lon="2.05036">
        <ele>174</ele>
        <time>2026-03-20T16:06:26Z</time>
      </trkpt>
      <trkpt lat="48.54144" lon="2.05037">
        <ele>174</ele>
        <time>2026-03-20T16:06:27Z</time>
      </trkpt>
      <trkpt lat="48.54148" lon="2.05038">
        <ele>174.8</ele>
        <time>2026-03-20T16:06:28Z</time>
      </trkpt>
      <trkpt lat="48.54152" lon="2.05038">
        <ele>174.8</ele>
        <time>2026-03-20T16:06:29Z</time>
      </trkpt>
      <trkpt lat="48.54157" lon="2.05039">
        <ele>174.8</ele>
        <time>2026-03-20T16:06:30Z</time>
      </trkpt>
      <trkpt lat="48.54161" lon="2.05039">
        <ele>174.4</ele>
        <time>2026-03-20T16:06:31Z</time>
      </trkpt>
      <trkpt lat="48.54166" lon="2.0504">
        <ele>174</ele>
        <time>2026-03-20T16:06:32Z</time>
      </trkpt>
      <trkpt lat="48.54171" lon="2.05041">
        <ele>174</ele>
        <time>2026-03-20T16:06:33Z</time>
      </trkpt>
      <trkpt lat="48.54176" lon="2.05042">
        <ele>174</ele>
        <time>2026-03-20T16:06:34Z</time>
      </trkpt>
      <trkpt lat="48.54181" lon="2.05043">
        <ele>174</ele>
        <time>2026-03-20T16:06:35Z</time>
      </trkpt>
      <trkpt lat="48.54186" lon="2.05043">
        <ele>173.6</ele>
        <time>2026-03-20T16:06:36Z</time>
      </trkpt>
      <trkpt lat="48.54191" lon="2.05044">
        <ele>173.6</ele>
        <time>2026-03-20T16:06:37Z</time>
      </trkpt>
      <trkpt lat="48.54196" lon="2.05045">
        <ele>173.6</ele>
        <time>2026-03-20T16:06:38Z</time>
      </trkpt>
      <trkpt lat="48.54201" lon="2.05045">
        <ele>173.2</ele>
        <time>2026-03-20T16:06:39Z</time>
      </trkpt>
      <trkpt lat="48.54206" lon="2.05046">
        <ele>173.4</ele>
        <time>2026-03-20T16:06:40Z</time>
      </trkpt>
      <trkpt lat="48.54211" lon="2.05047">
        <ele>173.4</ele>
        <time>2026-03-20T16:06:41Z</time>
      </trkpt>
      <trkpt lat="48.54217" lon="2.05047">
        <ele>173.4</ele>
        <time>2026-03-20T16:06:42Z</time>
      </trkpt>
      <trkpt lat="48.54222" lon="2.05048">
        <ele>173.4</ele>
        <time>2026-03-20T16:06:43Z</time>
      </trkpt>
      <trkpt lat="48.54227" lon="2.05049">
        <ele>172.8</ele>
        <time>2026-03-20T16:06:44Z</time>
      </trkpt>
      <trkpt lat="48.54232" lon="2.05049">
        <ele>172.8</ele>
        <time>2026-03-20T16:06:45Z</time>
      </trkpt>
      <trkpt lat="48.54237" lon="2.0505">
        <ele>172.8</ele>
        <time>2026-03-20T16:06:46Z</time>
      </trkpt>
      <trkpt lat="48.54242" lon="2.0505">
        <ele>172.8</ele>
        <time>2026-03-20T16:06:47Z</time>
      </trkpt>
      <trkpt lat="48.54247" lon="2.05051">
        <ele>173.4</ele>
        <time>2026-03-20T16:06:48Z</time>
      </trkpt>
      <trkpt lat="48.54252" lon="2.05051">
        <ele>173.4</ele>
        <time>2026-03-20T16:06:49Z</time>
      </trkpt>
      <trkpt lat="48.54257" lon="2.05051">
        <ele>173.4</ele>
        <time>2026-03-20T16:06:50Z</time>
      </trkpt>
      <trkpt lat="48.54262" lon="2.05051">
        <ele>173.4</ele>
        <time>2026-03-20T16:06:51Z</time>
      </trkpt>
      <trkpt lat="48.54267" lon="2.05051">
        <ele>173.8</ele>
        <time>2026-03-20T16:06:52Z</time>
      </trkpt>
      <trkpt lat="48.54272" lon="2.05052">
        <ele>173.8</ele>
        <time>2026-03-20T16:06:53Z</time>
      </trkpt>
      <trkpt lat="48.54276" lon="2.05051">
        <ele>173.8</ele>
        <time>2026-03-20T16:06:54Z</time>
      </trkpt>
      <trkpt lat="48.54281" lon="2.05051">
        <ele>173.4</ele>
        <time>2026-03-20T16:06:55Z</time>
      </trkpt>
      <trkpt lat="48.54286" lon="2.05051">
        <ele>173</ele>
        <time>2026-03-20T16:06:56Z</time>
      </trkpt>
      <trkpt lat="48.54291" lon="2.05052">
        <ele>173</ele>
        <time>2026-03-20T16:06:57Z</time>
      </trkpt>
      <trkpt lat="48.54295" lon="2.05052">
        <ele>173</ele>
        <time>2026-03-20T16:06:58Z</time>
      </trkpt>
      <trkpt lat="48.543" lon="2.05052">
        <ele>173</ele>
        <time>2026-03-20T16:06:59Z</time>
      </trkpt>
      <trkpt lat="48.54305" lon="2.05052">
        <ele>173.4</ele>
        <time>2026-03-20T16:07:00Z</time>
      </trkpt>
      <trkpt lat="48.54309" lon="2.05052">
        <ele>173.4</ele>
        <time>2026-03-20T16:07:01Z</time>
      </trkpt>
      <trkpt lat="48.54314" lon="2.05052">
        <ele>173.4</ele>
        <time>2026-03-20T16:07:02Z</time>
      </trkpt>
      <trkpt lat="48.54319" lon="2.05052">
        <ele>172.8</ele>
        <time>2026-03-20T16:07:03Z</time>
      </trkpt>
      <trkpt lat="48.54323" lon="2.05053">
        <ele>172.8</ele>
        <time>2026-03-20T16:07:04Z</time>
      </trkpt>
      <trkpt lat="48.54328" lon="2.05053">
        <ele>172.8</ele>
        <time>2026-03-20T16:07:05Z</time>
      </trkpt>
      <trkpt lat="48.54333" lon="2.05053">
        <ele>172.8</ele>
        <time>2026-03-20T16:07:06Z</time>
      </trkpt>
      <trkpt lat="48.54338" lon="2.05053">
        <ele>172.4</ele>
        <time>2026-03-20T16:07:07Z</time>
      </trkpt>
      <trkpt lat="48.54343" lon="2.05053">
        <ele>172.4</ele>
        <time>2026-03-20T16:07:08Z</time>
      </trkpt>
      <trkpt lat="48.54348" lon="2.05054">
        <ele>172.4</ele>
        <time>2026-03-20T16:07:09Z</time>
      </trkpt>
      <trkpt lat="48.54353" lon="2.05055">
        <ele>172.4</ele>
        <time>2026-03-20T16:07:10Z</time>
      </trkpt>
      <trkpt lat="48.54358" lon="2.05056">
        <ele>172</ele>
        <time>2026-03-20T16:07:11Z</time>
      </trkpt>
      <trkpt lat="48.54364" lon="2.05057">
        <ele>171.2</ele>
        <time>2026-03-20T16:07:12Z</time>
      </trkpt>
      <trkpt lat="48.54369" lon="2.05058">
        <ele>171.2</ele>
        <time>2026-03-20T16:07:13Z</time>
      </trkpt>
      <trkpt lat="48.54374" lon="2.05059">
        <ele>171.2</ele>
        <time>2026-03-20T16:07:14Z</time>
      </trkpt>
      <trkpt lat="48.5438" lon="2.0506">
        <ele>171.2</ele>
        <time>2026-03-20T16:07:15Z</time>
      </trkpt>
      <trkpt lat="48.54385" lon="2.05062">
        <ele>171.6</ele>
        <time>2026-03-20T16:07:16Z</time>
      </trkpt>
      <trkpt lat="48.5439" lon="2.05063">
        <ele>171.6</ele>
        <time>2026-03-20T16:07:17Z</time>
      </trkpt>
      <trkpt lat="48.54396" lon="2.05064">
        <ele>171.6</ele>
        <time>2026-03-20T16:07:18Z</time>
      </trkpt>
      <trkpt lat="48.54401" lon="2.05066">
        <ele>171.6</ele>
        <time>2026-03-20T16:07:19Z</time>
      </trkpt>
      <trkpt lat="48.54406" lon="2.05068">
        <ele>170.8</ele>
        <time>2026-03-20T16:07:20Z</time>
      </trkpt>
      <trkpt lat="48.54412" lon="2.05069">
        <ele>170.8</ele>
        <time>2026-03-20T16:07:21Z</time>
      </trkpt>
      <trkpt lat="48.54417" lon="2.05071">
        <ele>170.8</ele>
        <time>2026-03-20T16:07:22Z</time>
      </trkpt>
      <trkpt lat="48.54422" lon="2.05073">
        <ele>171.2</ele>
        <time>2026-03-20T16:07:23Z</time>
      </trkpt>
      <trkpt lat="48.54428" lon="2.05074">
        <ele>171.2</ele>
        <time>2026-03-20T16:07:24Z</time>
      </trkpt>
      <trkpt lat="48.54433" lon="2.05075">
        <ele>171.2</ele>
        <time>2026-03-20T16:07:25Z</time>
      </trkpt>
      <trkpt lat="48.54438" lon="2.05077">
        <ele>171.2</ele>
        <time>2026-03-20T16:07:26Z</time>
      </trkpt>
      <trkpt lat="48.54443" lon="2.05078">
        <ele>171.2</ele>
        <time>2026-03-20T16:07:27Z</time>
      </trkpt>
      <trkpt lat="48.54449" lon="2.0508">
        <ele>171.2</ele>
        <time>2026-03-20T16:07:28Z</time>
      </trkpt>
      <trkpt lat="48.54454" lon="2.05082">
        <ele>171.2</ele>
        <time>2026-03-20T16:07:29Z</time>
      </trkpt>
      <trkpt lat="48.54459" lon="2.05084">
        <ele>171.2</ele>
        <time>2026-03-20T16:07:30Z</time>
      </trkpt>
      <trkpt lat="48.54464" lon="2.05085">
        <ele>171.2</ele>
        <time>2026-03-20T16:07:31Z</time>
      </trkpt>
      <trkpt lat="48.54469" lon="2.05086">
        <ele>170.8</ele>
        <time>2026-03-20T16:07:32Z</time>
      </trkpt>
      <trkpt lat="48.54475" lon="2.05088">
        <ele>170.8</ele>
        <time>2026-03-20T16:07:33Z</time>
      </trkpt>
      <trkpt lat="48.5448" lon="2.05089">
        <ele>170.8</ele>
        <time>2026-03-20T16:07:34Z</time>
      </trkpt>
      <trkpt lat="48.54485" lon="2.0509">
        <ele>170.8</ele>
        <time>2026-03-20T16:07:35Z</time>
      </trkpt>
      <trkpt lat="48.5449" lon="2.05091">
        <ele>171</ele>
        <time>2026-03-20T16:07:36Z</time>
      </trkpt>
      <trkpt lat="48.54496" lon="2.05093">
        <ele>171</ele>
        <time>2026-03-20T16:07:37Z</time>
      </trkpt>
      <trkpt lat="48.54501" lon="2.05094">
        <ele>171</ele>
        <time>2026-03-20T16:07:38Z</time>
      </trkpt>
      <trkpt lat="48.54506" lon="2.05095">
        <ele>171</ele>
        <time>2026-03-20T16:07:39Z</time>
      </trkpt>
      <trkpt lat="48.54512" lon="2.05096">
        <ele>171</ele>
        <time>2026-03-20T16:07:40Z</time>
      </trkpt>
      <trkpt lat="48.54517" lon="2.05097">
        <ele>171</ele>
        <time>2026-03-20T16:07:41Z</time>
      </trkpt>
      <trkpt lat="48.54522" lon="2.05098">
        <ele>171</ele>
        <time>2026-03-20T16:07:42Z</time>
      </trkpt>
      <trkpt lat="48.54527" lon="2.051">
        <ele>170.8</ele>
        <time>2026-03-20T16:07:43Z</time>
      </trkpt>
      <trkpt lat="48.54533" lon="2.05101">
        <ele>170.8</ele>
        <time>2026-03-20T16:07:44Z</time>
      </trkpt>
      <trkpt lat="48.54538" lon="2.05102">
        <ele>170.8</ele>
        <time>2026-03-20T16:07:45Z</time>
      </trkpt>
      <trkpt lat="48.54543" lon="2.05104">
        <ele>170.8</ele>
        <time>2026-03-20T16:07:46Z</time>
      </trkpt>
      <trkpt lat="48.54548" lon="2.05106">
        <ele>171</ele>
        <time>2026-03-20T16:07:47Z</time>
      </trkpt>
      <trkpt lat="48.54553" lon="2.05107">
        <ele>171</ele>
        <time>2026-03-20T16:07:48Z</time>
      </trkpt>
      <trkpt lat="48.54558" lon="2.05109">
        <ele>171</ele>
        <time>2026-03-20T16:07:49Z</time>
      </trkpt>
      <trkpt lat="48.54563" lon="2.05111">
        <ele>171</ele>
        <time>2026-03-20T16:07:50Z</time>
      </trkpt>
      <trkpt lat="48.54568" lon="2.05112">
        <ele>171</ele>
        <time>2026-03-20T16:07:51Z</time>
      </trkpt>
      <trkpt lat="48.54573" lon="2.05114">
        <ele>170.6</ele>
        <time>2026-03-20T16:07:52Z</time>
      </trkpt>
      <trkpt lat="48.54578" lon="2.05116">
        <ele>170.6</ele>
        <time>2026-03-20T16:07:53Z</time>
      </trkpt>
      <trkpt lat="48.54583" lon="2.05118">
        <ele>170.6</ele>
        <time>2026-03-20T16:07:54Z</time>
      </trkpt>
      <trkpt lat="48.54588" lon="2.0512">
        <ele>170.6</ele>
        <time>2026-03-20T16:07:55Z</time>
      </trkpt>
      <trkpt lat="48.54593" lon="2.05121">
        <ele>170.8</ele>
        <time>2026-03-20T16:07:56Z</time>
      </trkpt>
      <trkpt lat="48.54598" lon="2.05123">
        <ele>170.8</ele>
        <time>2026-03-20T16:07:57Z</time>
      </trkpt>
      <trkpt lat="48.54603" lon="2.05125">
        <ele>170.8</ele>
        <time>2026-03-20T16:07:58Z</time>
      </trkpt>
      <trkpt lat="48.54608" lon="2.05127">
        <ele>171.2</ele>
        <time>2026-03-20T16:07:59Z</time>
      </trkpt>
      <trkpt lat="48.54612" lon="2.05128">
        <ele>171.2</ele>
        <time>2026-03-20T16:08:00Z</time>
      </trkpt>
      <trkpt lat="48.54617" lon="2.0513">
        <ele>171.2</ele>
        <time>2026-03-20T16:08:01Z</time>
      </trkpt>
      <trkpt lat="48.54622" lon="2.05132">
        <ele>171.2</ele>
        <time>2026-03-20T16:08:02Z</time>
      </trkpt>
      <trkpt lat="48.54627" lon="2.05134">
        <ele>171.2</ele>
        <time>2026-03-20T16:08:03Z</time>
      </trkpt>
      <trkpt lat="48.54631" lon="2.05136">
        <ele>171.4</ele>
        <time>2026-03-20T16:08:04Z</time>
      </trkpt>
      <trkpt lat="48.54636" lon="2.05138">
        <ele>171.4</ele>
        <time>2026-03-20T16:08:05Z</time>
      </trkpt>
      <trkpt lat="48.5464" lon="2.0514">
        <ele>171.4</ele>
        <time>2026-03-20T16:08:06Z</time>
      </trkpt>
      <trkpt lat="48.54645" lon="2.05142">
        <ele>171.4</ele>
        <time>2026-03-20T16:08:07Z</time>
      </trkpt>
      <trkpt lat="48.5465" lon="2.05144">
        <ele>171.2</ele>
        <time>2026-03-20T16:08:08Z</time>
      </trkpt>
      <trkpt lat="48.54654" lon="2.05146">
        <ele>171.2</ele>
        <time>2026-03-20T16:08:09Z</time>
      </trkpt>
      <trkpt lat="48.54659" lon="2.05148">
        <ele>171.2</ele>
        <time>2026-03-20T16:08:10Z</time>
      </trkpt>
      <trkpt lat="48.54664" lon="2.0515">
        <ele>171.2</ele>
        <time>2026-03-20T16:08:11Z</time>
      </trkpt>
      <trkpt lat="48.54669" lon="2.05152">
        <ele>171.6</ele>
        <time>2026-03-20T16:08:12Z</time>
      </trkpt>
      <trkpt lat="48.54673" lon="2.05154">
        <ele>171.6</ele>
        <time>2026-03-20T16:08:13Z</time>
      </trkpt>
      <trkpt lat="48.54678" lon="2.05156">
        <ele>171.6</ele>
        <time>2026-03-20T16:08:14Z</time>
      </trkpt>
      <trkpt lat="48.54683" lon="2.05158">
        <ele>171.2</ele>
        <time>2026-03-20T16:08:15Z</time>
      </trkpt>
      <trkpt lat="48.54688" lon="2.05159">
        <ele>172.2</ele>
        <time>2026-03-20T16:08:16Z</time>
      </trkpt>
      <trkpt lat="48.54693" lon="2.05161">
        <ele>172.2</ele>
        <time>2026-03-20T16:08:17Z</time>
      </trkpt>
      <trkpt lat="48.54698" lon="2.05162">
        <ele>172.2</ele>
        <time>2026-03-20T16:08:18Z</time>
      </trkpt>
      <trkpt lat="48.54702" lon="2.05164">
        <ele>172.2</ele>
        <time>2026-03-20T16:08:19Z</time>
      </trkpt>
      <trkpt lat="48.54707" lon="2.05164">
        <ele>172.2</ele>
        <time>2026-03-20T16:08:20Z</time>
      </trkpt>
      <trkpt lat="48.54712" lon="2.05165">
        <ele>172.2</ele>
        <time>2026-03-20T16:08:21Z</time>
      </trkpt>
      <trkpt lat="48.54716" lon="2.05166">
        <ele>172.2</ele>
        <time>2026-03-20T16:08:22Z</time>
      </trkpt>
      <trkpt lat="48.54721" lon="2.05167">
        <ele>172.4</ele>
        <time>2026-03-20T16:08:23Z</time>
      </trkpt>
      <trkpt lat="48.54726" lon="2.05168">
        <ele>172.4</ele>
        <time>2026-03-20T16:08:24Z</time>
      </trkpt>
      <trkpt lat="48.5473" lon="2.05168">
        <ele>172.4</ele>
        <time>2026-03-20T16:08:25Z</time>
      </trkpt>
      <trkpt lat="48.54735" lon="2.05168">
        <ele>172.4</ele>
        <time>2026-03-20T16:08:26Z</time>
      </trkpt>
      <trkpt lat="48.5474" lon="2.05168">
        <ele>172.4</ele>
        <time>2026-03-20T16:08:27Z</time>
      </trkpt>
      <trkpt lat="48.54745" lon="2.05169">
        <ele>171.8</ele>
        <time>2026-03-20T16:08:28Z</time>
      </trkpt>
      <trkpt lat="48.5475" lon="2.05168">
        <ele>171.8</ele>
        <time>2026-03-20T16:08:29Z</time>
      </trkpt>
      <trkpt lat="48.54755" lon="2.05168">
        <ele>171.8</ele>
        <time>2026-03-20T16:08:30Z</time>
      </trkpt>
      <trkpt lat="48.5476" lon="2.05167">
        <ele>172.4</ele>
        <time>2026-03-20T16:08:31Z</time>
      </trkpt>
      <trkpt lat="48.54765" lon="2.05167">
        <ele>172.2</ele>
        <time>2026-03-20T16:08:32Z</time>
      </trkpt>
      <trkpt lat="48.5477" lon="2.05166">
        <ele>172.2</ele>
        <time>2026-03-20T16:08:33Z</time>
      </trkpt>
      <trkpt lat="48.54775" lon="2.05166">
        <ele>172.2</ele>
        <time>2026-03-20T16:08:34Z</time>
      </trkpt>
      <trkpt lat="48.5478" lon="2.05165">
        <ele>173</ele>
        <time>2026-03-20T16:08:35Z</time>
      </trkpt>
      <trkpt lat="48.54785" lon="2.05164">
        <ele>173</ele>
        <time>2026-03-20T16:08:36Z</time>
      </trkpt>
      <trkpt lat="48.5479" lon="2.05164">
        <ele>173</ele>
        <time>2026-03-20T16:08:37Z</time>
      </trkpt>
      <trkpt lat="48.54795" lon="2.05163">
        <ele>173</ele>
        <time>2026-03-20T16:08:38Z</time>
      </trkpt>
      <trkpt lat="48.548" lon="2.05163">
        <ele>173</ele>
        <time>2026-03-20T16:08:39Z</time>
      </trkpt>
      <trkpt lat="48.54805" lon="2.05162">
        <ele>173</ele>
        <time>2026-03-20T16:08:40Z</time>
      </trkpt>
      <trkpt lat="48.5481" lon="2.05162">
        <ele>173</ele>
        <time>2026-03-20T16:08:41Z</time>
      </trkpt>
      <trkpt lat="48.54815" lon="2.05161">
        <ele>173</ele>
        <time>2026-03-20T16:08:42Z</time>
      </trkpt>
      <trkpt lat="48.5482" lon="2.0516">
        <ele>173</ele>
        <time>2026-03-20T16:08:43Z</time>
      </trkpt>
      <trkpt lat="48.54825" lon="2.0516">
        <ele>173.2</ele>
        <time>2026-03-20T16:08:44Z</time>
      </trkpt>
      <trkpt lat="48.5483" lon="2.05159">
        <ele>173.2</ele>
        <time>2026-03-20T16:08:45Z</time>
      </trkpt>
      <trkpt lat="48.54835" lon="2.05158">
        <ele>173.2</ele>
        <time>2026-03-20T16:08:46Z</time>
      </trkpt>
      <trkpt lat="48.5484" lon="2.05157">
        <ele>173.2</ele>
        <time>2026-03-20T16:08:47Z</time>
      </trkpt>
      <trkpt lat="48.54845" lon="2.05157">
        <ele>173.2</ele>
        <time>2026-03-20T16:08:48Z</time>
      </trkpt>
      <trkpt lat="48.5485" lon="2.05156">
        <ele>173.2</ele>
        <time>2026-03-20T16:08:49Z</time>
      </trkpt>
      <trkpt lat="48.54855" lon="2.05156">
        <ele>173.2</ele>
        <time>2026-03-20T16:08:50Z</time>
      </trkpt>
      <trkpt lat="48.5486" lon="2.05155">
        <ele>172.8</ele>
        <time>2026-03-20T16:08:51Z</time>
      </trkpt>
      <trkpt lat="48.54865" lon="2.05154">
        <ele>173.4</ele>
        <time>2026-03-20T16:08:52Z</time>
      </trkpt>
      <trkpt lat="48.54869" lon="2.05154">
        <ele>173.4</ele>
        <time>2026-03-20T16:08:53Z</time>
      </trkpt>
      <trkpt lat="48.54874" lon="2.05153">
        <ele>173.4</ele>
        <time>2026-03-20T16:08:54Z</time>
      </trkpt>
      <trkpt lat="48.54879" lon="2.05152">
        <ele>173.4</ele>
        <time>2026-03-20T16:08:55Z</time>
      </trkpt>
      <trkpt lat="48.54884" lon="2.05152">
        <ele>173</ele>
        <time>2026-03-20T16:08:56Z</time>
      </trkpt>
      <trkpt lat="48.54889" lon="2.05151">
        <ele>173</ele>
        <time>2026-03-20T16:08:57Z</time>
      </trkpt>
      <trkpt lat="48.54894" lon="2.0515">
        <ele>173</ele>
        <time>2026-03-20T16:08:58Z</time>
      </trkpt>
      <trkpt lat="48.54899" lon="2.0515">
        <ele>173</ele>
        <time>2026-03-20T16:08:59Z</time>
      </trkpt>
      <trkpt lat="48.54905" lon="2.05149">
        <ele>174</ele>
        <time>2026-03-20T16:09:00Z</time>
      </trkpt>
      <trkpt lat="48.5491" lon="2.05149">
        <ele>174</ele>
        <time>2026-03-20T16:09:01Z</time>
      </trkpt>
      <trkpt lat="48.54915" lon="2.05148">
        <ele>174</ele>
        <time>2026-03-20T16:09:02Z</time>
      </trkpt>
      <trkpt lat="48.5492" lon="2.05147">
        <ele>173</ele>
        <time>2026-03-20T16:09:03Z</time>
      </trkpt>
      <trkpt lat="48.54925" lon="2.05147">
        <ele>173.2</ele>
        <time>2026-03-20T16:09:04Z</time>
      </trkpt>
      <trkpt lat="48.5493" lon="2.05146">
        <ele>173.2</ele>
        <time>2026-03-20T16:09:05Z</time>
      </trkpt>
      <trkpt lat="48.54935" lon="2.05146">
        <ele>173.2</ele>
        <time>2026-03-20T16:09:06Z</time>
      </trkpt>
      <trkpt lat="48.5494" lon="2.05145">
        <ele>174.2</ele>
        <time>2026-03-20T16:09:07Z</time>
      </trkpt>
      <trkpt lat="48.54945" lon="2.05144">
        <ele>174.4</ele>
        <time>2026-03-20T16:09:08Z</time>
      </trkpt>
      <trkpt lat="48.5495" lon="2.05143">
        <ele>174.4</ele>
        <time>2026-03-20T16:09:09Z</time>
      </trkpt>
      <trkpt lat="48.54955" lon="2.05143">
        <ele>174.4</ele>
        <time>2026-03-20T16:09:10Z</time>
      </trkpt>
      <trkpt lat="48.5496" lon="2.05142">
        <ele>174.4</ele>
        <time>2026-03-20T16:09:11Z</time>
      </trkpt>
      <trkpt lat="48.54965" lon="2.05142">
        <ele>174</ele>
        <time>2026-03-20T16:09:12Z</time>
      </trkpt>
      <trkpt lat="48.5497" lon="2.05141">
        <ele>174</ele>
        <time>2026-03-20T16:09:13Z</time>
      </trkpt>
      <trkpt lat="48.54975" lon="2.05141">
        <ele>174</ele>
        <time>2026-03-20T16:09:14Z</time>
      </trkpt>
      <trkpt lat="48.5498" lon="2.05141">
        <ele>174.2</ele>
        <time>2026-03-20T16:09:15Z</time>
      </trkpt>
      <trkpt lat="48.54985" lon="2.05141">
        <ele>174.4</ele>
        <time>2026-03-20T16:09:16Z</time>
      </trkpt>
      <trkpt lat="48.5499" lon="2.05141">
        <ele>174.4</ele>
        <time>2026-03-20T16:09:17Z</time>
      </trkpt>
      <trkpt lat="48.54995" lon="2.05141">
        <ele>174.4</ele>
        <time>2026-03-20T16:09:18Z</time>
      </trkpt>
      <trkpt lat="48.55" lon="2.05141">
        <ele>174.6</ele>
        <time>2026-03-20T16:09:19Z</time>
      </trkpt>
      <trkpt lat="48.55005" lon="2.05142">
        <ele>174.2</ele>
        <time>2026-03-20T16:09:20Z</time>
      </trkpt>
      <trkpt lat="48.5501" lon="2.05143">
        <ele>174.2</ele>
        <time>2026-03-20T16:09:21Z</time>
      </trkpt>
      <trkpt lat="48.55016" lon="2.05144">
        <ele>174.2</ele>
        <time>2026-03-20T16:09:22Z</time>
      </trkpt>
      <trkpt lat="48.55021" lon="2.05145">
        <ele>174.2</ele>
        <time>2026-03-20T16:09:23Z</time>
      </trkpt>
      <trkpt lat="48.55026" lon="2.05146">
        <ele>174.8</ele>
        <time>2026-03-20T16:09:24Z</time>
      </trkpt>
      <trkpt lat="48.55031" lon="2.05147">
        <ele>174.8</ele>
        <time>2026-03-20T16:09:25Z</time>
      </trkpt>
      <trkpt lat="48.55036" lon="2.05148">
        <ele>174.8</ele>
        <time>2026-03-20T16:09:26Z</time>
      </trkpt>
      <trkpt lat="48.55041" lon="2.0515">
        <ele>174.8</ele>
        <time>2026-03-20T16:09:27Z</time>
      </trkpt>
      <trkpt lat="48.55046" lon="2.05151">
        <ele>175</ele>
        <time>2026-03-20T16:09:28Z</time>
      </trkpt>
      <trkpt lat="48.55051" lon="2.05153">
        <ele>175</ele>
        <time>2026-03-20T16:09:29Z</time>
      </trkpt>
      <trkpt lat="48.55057" lon="2.05154">
        <ele>175</ele>
        <time>2026-03-20T16:09:30Z</time>
      </trkpt>
      <trkpt lat="48.55062" lon="2.05156">
        <ele>174</ele>
        <time>2026-03-20T16:09:31Z</time>
      </trkpt>
      <trkpt lat="48.55067" lon="2.05158">
        <ele>174.4</ele>
        <time>2026-03-20T16:09:32Z</time>
      </trkpt>
      <trkpt lat="48.55072" lon="2.0516">
        <ele>174.4</ele>
        <time>2026-03-20T16:09:33Z</time>
      </trkpt>
      <trkpt lat="48.55077" lon="2.05163">
        <ele>174.4</ele>
        <time>2026-03-20T16:09:34Z</time>
      </trkpt>
      <trkpt lat="48.55081" lon="2.05165">
        <ele>174.4</ele>
        <time>2026-03-20T16:09:35Z</time>
      </trkpt>
      <trkpt lat="48.55086" lon="2.05168">
        <ele>174.6</ele>
        <time>2026-03-20T16:09:36Z</time>
      </trkpt>
      <trkpt lat="48.5509" lon="2.05171">
        <ele>174.6</ele>
        <time>2026-03-20T16:09:37Z</time>
      </trkpt>
      <trkpt lat="48.55095" lon="2.05175">
        <ele>174.6</ele>
        <time>2026-03-20T16:09:38Z</time>
      </trkpt>
      <trkpt lat="48.551" lon="2.05178">
        <ele>174.4</ele>
        <time>2026-03-20T16:09:39Z</time>
      </trkpt>
      <trkpt lat="48.55104" lon="2.05182">
        <ele>173.6</ele>
        <time>2026-03-20T16:09:40Z</time>
      </trkpt>
      <trkpt lat="48.55109" lon="2.05185">
        <ele>173.6</ele>
        <time>2026-03-20T16:09:41Z</time>
      </trkpt>
      <trkpt lat="48.55113" lon="2.05189">
        <ele>173.6</ele>
        <time>2026-03-20T16:09:42Z</time>
      </trkpt>
      <trkpt lat="48.55117" lon="2.05193">
        <ele>173.6</ele>
        <time>2026-03-20T16:09:43Z</time>
      </trkpt>
      <trkpt lat="48.55122" lon="2.05197">
        <ele>173.8</ele>
        <time>2026-03-20T16:09:44Z</time>
      </trkpt>
      <trkpt lat="48.55126" lon="2.05202">
        <ele>173.8</ele>
        <time>2026-03-20T16:09:45Z</time>
      </trkpt>
      <trkpt lat="48.55131" lon="2.05206">
        <ele>173.8</ele>
        <time>2026-03-20T16:09:46Z</time>
      </trkpt>
      <trkpt lat="48.55135" lon="2.0521">
        <ele>173.8</ele>
        <time>2026-03-20T16:09:47Z</time>
      </trkpt>
      <trkpt lat="48.55139" lon="2.05215">
        <ele>173.6</ele>
        <time>2026-03-20T16:09:48Z</time>
      </trkpt>
      <trkpt lat="48.55144" lon="2.05219">
        <ele>173.6</ele>
        <time>2026-03-20T16:09:49Z</time>
      </trkpt>
      <trkpt lat="48.55148" lon="2.05223">
        <ele>173.6</ele>
        <time>2026-03-20T16:09:50Z</time>
      </trkpt>
      <trkpt lat="48.55153" lon="2.05228">
        <ele>174</ele>
        <time>2026-03-20T16:09:51Z</time>
      </trkpt>
      <trkpt lat="48.55157" lon="2.05232">
        <ele>174.2</ele>
        <time>2026-03-20T16:09:52Z</time>
      </trkpt>
      <trkpt lat="48.55162" lon="2.05236">
        <ele>174.2</ele>
        <time>2026-03-20T16:09:53Z</time>
      </trkpt>
      <trkpt lat="48.55166" lon="2.05241">
        <ele>174.2</ele>
        <time>2026-03-20T16:09:54Z</time>
      </trkpt>
      <trkpt lat="48.55171" lon="2.05245">
        <ele>174.2</ele>
        <time>2026-03-20T16:09:55Z</time>
      </trkpt>
      <trkpt lat="48.55176" lon="2.0525">
        <ele>174.2</ele>
        <time>2026-03-20T16:09:56Z</time>
      </trkpt>
      <trkpt lat="48.5518" lon="2.05254">
        <ele>174.2</ele>
        <time>2026-03-20T16:09:57Z</time>
      </trkpt>
      <trkpt lat="48.55185" lon="2.05259">
        <ele>174.2</ele>
        <time>2026-03-20T16:09:58Z</time>
      </trkpt>
      <trkpt lat="48.55189" lon="2.05263">
        <ele>173.8</ele>
        <time>2026-03-20T16:09:59Z</time>
      </trkpt>
      <trkpt lat="48.55194" lon="2.05268">
        <ele>174.2</ele>
        <time>2026-03-20T16:10:00Z</time>
      </trkpt>
      <trkpt lat="48.55198" lon="2.05273">
        <ele>174.2</ele>
        <time>2026-03-20T16:10:01Z</time>
      </trkpt>
      <trkpt lat="48.55203" lon="2.05277">
        <ele>174.2</ele>
        <time>2026-03-20T16:10:02Z</time>
      </trkpt>
      <trkpt lat="48.55207" lon="2.05281">
        <ele>173.4</ele>
        <time>2026-03-20T16:10:03Z</time>
      </trkpt>
      <trkpt lat="48.55212" lon="2.05285">
        <ele>173.4</ele>
        <time>2026-03-20T16:10:04Z</time>
      </trkpt>
      <trkpt lat="48.55216" lon="2.05289">
        <ele>173.4</ele>
        <time>2026-03-20T16:10:05Z</time>
      </trkpt>
      <trkpt lat="48.55221" lon="2.05294">
        <ele>173.4</ele>
        <time>2026-03-20T16:10:06Z</time>
      </trkpt>
      <trkpt lat="48.55225" lon="2.05298">
        <ele>173.4</ele>
        <time>2026-03-20T16:10:07Z</time>
      </trkpt>
      <trkpt lat="48.5523" lon="2.05303">
        <ele>172.6</ele>
        <time>2026-03-20T16:10:08Z</time>
      </trkpt>
      <trkpt lat="48.55235" lon="2.05307">
        <ele>172.6</ele>
        <time>2026-03-20T16:10:09Z</time>
      </trkpt>
      <trkpt lat="48.55239" lon="2.05312">
        <ele>172.6</ele>
        <time>2026-03-20T16:10:10Z</time>
      </trkpt>
      <trkpt lat="48.55244" lon="2.05316">
        <ele>172.6</ele>
        <time>2026-03-20T16:10:11Z</time>
      </trkpt>
      <trkpt lat="48.55248" lon="2.05321">
        <ele>172.8</ele>
        <time>2026-03-20T16:10:12Z</time>
      </trkpt>
      <trkpt lat="48.55253" lon="2.05325">
        <ele>172.8</ele>
        <time>2026-03-20T16:10:13Z</time>
      </trkpt>
      <trkpt lat="48.55258" lon="2.05329">
        <ele>172.8</ele>
        <time>2026-03-20T16:10:14Z</time>
      </trkpt>
      <trkpt lat="48.55263" lon="2.05334">
        <ele>171.8</ele>
        <time>2026-03-20T16:10:15Z</time>
      </trkpt>
      <trkpt lat="48.55268" lon="2.05339">
        <ele>171.2</ele>
        <time>2026-03-20T16:10:16Z</time>
      </trkpt>
      <trkpt lat="48.55273" lon="2.05344">
        <ele>171.2</ele>
        <time>2026-03-20T16:10:17Z</time>
      </trkpt>
      <trkpt lat="48.55278" lon="2.05349">
        <ele>171.2</ele>
        <time>2026-03-20T16:10:18Z</time>
      </trkpt>
      <trkpt lat="48.55284" lon="2.05354">
        <ele>170.2</ele>
        <time>2026-03-20T16:10:19Z</time>
      </trkpt>
      <trkpt lat="48.55289" lon="2.05359">
        <ele>170.2</ele>
        <time>2026-03-20T16:10:20Z</time>
      </trkpt>
      <trkpt lat="48.55295" lon="2.05365">
        <ele>170.2</ele>
        <time>2026-03-20T16:10:21Z</time>
      </trkpt>
      <trkpt lat="48.55301" lon="2.0537">
        <ele>170.2</ele>
        <time>2026-03-20T16:10:22Z</time>
      </trkpt>
      <trkpt lat="48.55307" lon="2.05376">
        <ele>169.2</ele>
        <time>2026-03-20T16:10:23Z</time>
      </trkpt>
      <trkpt lat="48.55312" lon="2.05382">
        <ele>169.4</ele>
        <time>2026-03-20T16:10:24Z</time>
      </trkpt>
      <trkpt lat="48.55318" lon="2.05388">
        <ele>169.4</ele>
        <time>2026-03-20T16:10:25Z</time>
      </trkpt>
      <trkpt lat="48.55325" lon="2.05393">
        <ele>169.4</ele>
        <time>2026-03-20T16:10:26Z</time>
      </trkpt>
      <trkpt lat="48.55331" lon="2.05399">
        <ele>168.4</ele>
        <time>2026-03-20T16:10:27Z</time>
      </trkpt>
      <trkpt lat="48.55337" lon="2.05406">
        <ele>167.8</ele>
        <time>2026-03-20T16:10:28Z</time>
      </trkpt>
      <trkpt lat="48.55343" lon="2.05412">
        <ele>167.8</ele>
        <time>2026-03-20T16:10:29Z</time>
      </trkpt>
      <trkpt lat="48.55349" lon="2.05418">
        <ele>167.8</ele>
        <time>2026-03-20T16:10:30Z</time>
      </trkpt>
      <trkpt lat="48.55355" lon="2.05424">
        <ele>167.8</ele>
        <time>2026-03-20T16:10:31Z</time>
      </trkpt>
      <trkpt lat="48.55362" lon="2.05431">
        <ele>165.8</ele>
        <time>2026-03-20T16:10:32Z</time>
      </trkpt>
      <trkpt lat="48.55368" lon="2.05437">
        <ele>165.8</ele>
        <time>2026-03-20T16:10:33Z</time>
      </trkpt>
      <trkpt lat="48.55375" lon="2.05442">
        <ele>165.8</ele>
        <time>2026-03-20T16:10:34Z</time>
      </trkpt>
      <trkpt lat="48.55383" lon="2.05446">
        <ele>166</ele>
        <time>2026-03-20T16:10:35Z</time>
      </trkpt>
      <trkpt lat="48.55391" lon="2.05449">
        <ele>164</ele>
        <time>2026-03-20T16:10:36Z</time>
      </trkpt>
      <trkpt lat="48.554" lon="2.0545">
        <ele>164</ele>
        <time>2026-03-20T16:10:37Z</time>
      </trkpt>
      <trkpt lat="48.55409" lon="2.05449">
        <ele>164</ele>
        <time>2026-03-20T16:10:38Z</time>
      </trkpt>
      <trkpt lat="48.55419" lon="2.05445">
        <ele>164</ele>
        <time>2026-03-20T16:10:39Z</time>
      </trkpt>
      <trkpt lat="48.55428" lon="2.05438">
        <ele>163</ele>
        <time>2026-03-20T16:10:40Z</time>
      </trkpt>
      <trkpt lat="48.55436" lon="2.05429">
        <ele>163</ele>
        <time>2026-03-20T16:10:41Z</time>
      </trkpt>
      <trkpt lat="48.55443" lon="2.05417">
        <ele>163</ele>
        <time>2026-03-20T16:10:42Z</time>
      </trkpt>
      <trkpt lat="48.55449" lon="2.05403">
        <ele>163</ele>
        <time>2026-03-20T16:10:43Z</time>
      </trkpt>
      <trkpt lat="48.55454" lon="2.05389">
        <ele>159</ele>
        <time>2026-03-20T16:10:44Z</time>
      </trkpt>
      <trkpt lat="48.55459" lon="2.05376">
        <ele>159</ele>
        <time>2026-03-20T16:10:45Z</time>
      </trkpt>
      <trkpt lat="48.55463" lon="2.05363">
        <ele>159</ele>
        <time>2026-03-20T16:10:46Z</time>
      </trkpt>
      <trkpt lat="48.55469" lon="2.05351">
        <ele>159</ele>
        <time>2026-03-20T16:10:47Z</time>
      </trkpt>
      <trkpt lat="48.55474" lon="2.05338">
        <ele>158.4</ele>
        <time>2026-03-20T16:10:48Z</time>
      </trkpt>
      <trkpt lat="48.55479" lon="2.05324">
        <ele>158.4</ele>
        <time>2026-03-20T16:10:49Z</time>
      </trkpt>
      <trkpt lat="48.55485" lon="2.0531">
        <ele>158.4</ele>
        <time>2026-03-20T16:10:50Z</time>
      </trkpt>
      <trkpt lat="48.55491" lon="2.05298">
        <ele>157.4</ele>
        <time>2026-03-20T16:10:51Z</time>
      </trkpt>
      <trkpt lat="48.55497" lon="2.05285">
        <ele>154</ele>
        <time>2026-03-20T16:10:52Z</time>
      </trkpt>
      <trkpt lat="48.55503" lon="2.05271">
        <ele>154</ele>
        <time>2026-03-20T16:10:53Z</time>
      </trkpt>
      <trkpt lat="48.55509" lon="2.05257">
        <ele>154</ele>
        <time>2026-03-20T16:10:54Z</time>
      </trkpt>
      <trkpt lat="48.55515" lon="2.05244">
        <ele>154</ele>
        <time>2026-03-20T16:10:55Z</time>
      </trkpt>
      <trkpt lat="48.55521" lon="2.05231">
        <ele>148.6</ele>
        <time>2026-03-20T16:10:56Z</time>
      </trkpt>
      <trkpt lat="48.5553" lon="2.05219">
        <ele>148.6</ele>
        <time>2026-03-20T16:10:57Z</time>
      </trkpt>
      <trkpt lat="48.55537" lon="2.0521">
        <ele>148.6</ele>
        <time>2026-03-20T16:10:58Z</time>
      </trkpt>
      <trkpt lat="48.55545" lon="2.05201">
        <ele>147.6</ele>
        <time>2026-03-20T16:10:59Z</time>
      </trkpt>
      <trkpt lat="48.55554" lon="2.05192">
        <ele>145.4</ele>
        <time>2026-03-20T16:11:00Z</time>
      </trkpt>
      <trkpt lat="48.55564" lon="2.05183">
        <ele>145.4</ele>
        <time>2026-03-20T16:11:01Z</time>
      </trkpt>
      <trkpt lat="48.55572" lon="2.05175">
        <ele>145.4</ele>
        <time>2026-03-20T16:11:02Z</time>
      </trkpt>
      <trkpt lat="48.55583" lon="2.05166">
        <ele>144.4</ele>
        <time>2026-03-20T16:11:03Z</time>
      </trkpt>
      <trkpt lat="48.55593" lon="2.05159">
        <ele>143.6</ele>
        <time>2026-03-20T16:11:04Z</time>
      </trkpt>
      <trkpt lat="48.55602" lon="2.05152">
        <ele>143.6</ele>
        <time>2026-03-20T16:11:05Z</time>
      </trkpt>
      <trkpt lat="48.55612" lon="2.05147">
        <ele>143.6</ele>
        <time>2026-03-20T16:11:06Z</time>
      </trkpt>
      <trkpt lat="48.55623" lon="2.05144">
        <ele>142.6</ele>
        <time>2026-03-20T16:11:07Z</time>
      </trkpt>
      <trkpt lat="48.55635" lon="2.05143">
        <ele>139</ele>
        <time>2026-03-20T16:11:08Z</time>
      </trkpt>
      <trkpt lat="48.55648" lon="2.05143">
        <ele>139</ele>
        <time>2026-03-20T16:11:09Z</time>
      </trkpt>
      <trkpt lat="48.55661" lon="2.05143">
        <ele>139</ele>
        <time>2026-03-20T16:11:10Z</time>
      </trkpt>
      <trkpt lat="48.55674" lon="2.05142">
        <ele>139</ele>
        <time>2026-03-20T16:11:11Z</time>
      </trkpt>
      <trkpt lat="48.55687" lon="2.05143">
        <ele>137.2</ele>
        <time>2026-03-20T16:11:12Z</time>
      </trkpt>
      <trkpt lat="48.55699" lon="2.05144">
        <ele>137.2</ele>
        <time>2026-03-20T16:11:13Z</time>
      </trkpt>
      <trkpt lat="48.55711" lon="2.05145">
        <ele>137.2</ele>
        <time>2026-03-20T16:11:14Z</time>
      </trkpt>
      <trkpt lat="48.55723" lon="2.05147">
        <ele>136.2</ele>
        <time>2026-03-20T16:11:15Z</time>
      </trkpt>
      <trkpt lat="48.55735" lon="2.05148">
        <ele>132.6</ele>
        <time>2026-03-20T16:11:16Z</time>
      </trkpt>
      <trkpt lat="48.55748" lon="2.0515">
        <ele>132.6</ele>
        <time>2026-03-20T16:11:17Z</time>
      </trkpt>
      <trkpt lat="48.55759" lon="2.05151">
        <ele>132.6</ele>
        <time>2026-03-20T16:11:18Z</time>
      </trkpt>
      <trkpt lat="48.55771" lon="2.05152">
        <ele>132.6</ele>
        <time>2026-03-20T16:11:19Z</time>
      </trkpt>
      <trkpt lat="48.55783" lon="2.05153">
        <ele>132.4</ele>
        <time>2026-03-20T16:11:20Z</time>
      </trkpt>
      <trkpt lat="48.55793" lon="2.05154">
        <ele>132.4</ele>
        <time>2026-03-20T16:11:21Z</time>
      </trkpt>
      <trkpt lat="48.55804" lon="2.05156">
        <ele>132.4</ele>
        <time>2026-03-20T16:11:22Z</time>
      </trkpt>
      <trkpt lat="48.55816" lon="2.05157">
        <ele>131.4</ele>
        <time>2026-03-20T16:11:23Z</time>
      </trkpt>
      <trkpt lat="48.55828" lon="2.05157">
        <ele>135</ele>
        <time>2026-03-20T16:11:24Z</time>
      </trkpt>
      <trkpt lat="48.55841" lon="2.05157">
        <ele>135</ele>
        <time>2026-03-20T16:11:25Z</time>
      </trkpt>
      <trkpt lat="48.55853" lon="2.05158">
        <ele>135</ele>
        <time>2026-03-20T16:11:26Z</time>
      </trkpt>
      <trkpt lat="48.55865" lon="2.05159">
        <ele>134</ele>
        <time>2026-03-20T16:11:27Z</time>
      </trkpt>
      <trkpt lat="48.55877" lon="2.0516">
        <ele>132.6</ele>
        <time>2026-03-20T16:11:28Z</time>
      </trkpt>
      <trkpt lat="48.55888" lon="2.0516">
        <ele>132.6</ele>
        <time>2026-03-20T16:11:29Z</time>
      </trkpt>
      <trkpt lat="48.55899" lon="2.05158">
        <ele>132.6</ele>
        <time>2026-03-20T16:11:30Z</time>
      </trkpt>
      <trkpt lat="48.55909" lon="2.05154">
        <ele>131.6</ele>
        <time>2026-03-20T16:11:31Z</time>
      </trkpt>
      <trkpt lat="48.55919" lon="2.05146">
        <ele>128.8</ele>
        <time>2026-03-20T16:11:32Z</time>
      </trkpt>
      <trkpt lat="48.55926" lon="2.0514">
        <ele>128.8</ele>
        <time>2026-03-20T16:11:33Z</time>
      </trkpt>
      <trkpt lat="48.55932" lon="2.0513">
        <ele>128.8</ele>
        <time>2026-03-20T16:11:34Z</time>
      </trkpt>
      <trkpt lat="48.55936" lon="2.05117">
        <ele>128.8</ele>
        <time>2026-03-20T16:11:35Z</time>
      </trkpt>
      <trkpt lat="48.5594" lon="2.05104">
        <ele>127.4</ele>
        <time>2026-03-20T16:11:36Z</time>
      </trkpt>
      <trkpt lat="48.55944" lon="2.0509">
        <ele>127.4</ele>
        <time>2026-03-20T16:11:37Z</time>
      </trkpt>
      <trkpt lat="48.55948" lon="2.05075">
        <ele>127.4</ele>
        <time>2026-03-20T16:11:38Z</time>
      </trkpt>
      <trkpt lat="48.55952" lon="2.05059">
        <ele>127.4</ele>
        <time>2026-03-20T16:11:39Z</time>
      </trkpt>
      <trkpt lat="48.55956" lon="2.05045">
        <ele>125.4</ele>
        <time>2026-03-20T16:11:40Z</time>
      </trkpt>
      <trkpt lat="48.55959" lon="2.0503">
        <ele>125.4</ele>
        <time>2026-03-20T16:11:41Z</time>
      </trkpt>
      <trkpt lat="48.55964" lon="2.05015">
        <ele>125.4</ele>
        <time>2026-03-20T16:11:42Z</time>
      </trkpt>
      <trkpt lat="48.55969" lon="2.05001">
        <ele>124.4</ele>
        <time>2026-03-20T16:11:43Z</time>
      </trkpt>
      <trkpt lat="48.55976" lon="2.04988">
        <ele>122.8</ele>
        <time>2026-03-20T16:11:44Z</time>
      </trkpt>
      <trkpt lat="48.55984" lon="2.04976">
        <ele>122.8</ele>
        <time>2026-03-20T16:11:45Z</time>
      </trkpt>
      <trkpt lat="48.55994" lon="2.04965">
        <ele>122.8</ele>
        <time>2026-03-20T16:11:46Z</time>
      </trkpt>
      <trkpt lat="48.56004" lon="2.04956">
        <ele>122.4</ele>
        <time>2026-03-20T16:11:47Z</time>
      </trkpt>
      <trkpt lat="48.56014" lon="2.04946">
        <ele>120.4</ele>
        <time>2026-03-20T16:11:48Z</time>
      </trkpt>
      <trkpt lat="48.56025" lon="2.04937">
        <ele>120.4</ele>
        <time>2026-03-20T16:11:49Z</time>
      </trkpt>
      <trkpt lat="48.56035" lon="2.04929">
        <ele>120.4</ele>
        <time>2026-03-20T16:11:50Z</time>
      </trkpt>
      <trkpt lat="48.56046" lon="2.04921">
        <ele>120.2</ele>
        <time>2026-03-20T16:11:51Z</time>
      </trkpt>
      <trkpt lat="48.56056" lon="2.04917">
        <ele>118</ele>
        <time>2026-03-20T16:11:52Z</time>
      </trkpt>
      <trkpt lat="48.56067" lon="2.04914">
        <ele>118</ele>
        <time>2026-03-20T16:11:53Z</time>
      </trkpt>
      <trkpt lat="48.56078" lon="2.04913">
        <ele>118</ele>
        <time>2026-03-20T16:11:54Z</time>
      </trkpt>
      <trkpt lat="48.56088" lon="2.04913">
        <ele>119</ele>
        <time>2026-03-20T16:11:55Z</time>
      </trkpt>
      <trkpt lat="48.56098" lon="2.04914">
        <ele>119</ele>
        <time>2026-03-20T16:11:56Z</time>
      </trkpt>
      <trkpt lat="48.56107" lon="2.04918">
        <ele>119</ele>
        <time>2026-03-20T16:11:57Z</time>
      </trkpt>
      <trkpt lat="48.56116" lon="2.04924">
        <ele>119</ele>
        <time>2026-03-20T16:11:58Z</time>
      </trkpt>
      <trkpt lat="48.56123" lon="2.0493">
        <ele>118</ele>
        <time>2026-03-20T16:11:59Z</time>
      </trkpt>
      <trkpt lat="48.5613" lon="2.04935">
        <ele>116.8</ele>
        <time>2026-03-20T16:12:00Z</time>
      </trkpt>
      <trkpt lat="48.56138" lon="2.04942">
        <ele>116.8</ele>
        <time>2026-03-20T16:12:01Z</time>
      </trkpt>
      <trkpt lat="48.56146" lon="2.04947">
        <ele>116.8</ele>
        <time>2026-03-20T16:12:02Z</time>
      </trkpt>
      <trkpt lat="48.56154" lon="2.04952">
        <ele>115.8</ele>
        <time>2026-03-20T16:12:03Z</time>
      </trkpt>
      <trkpt lat="48.56163" lon="2.04955">
        <ele>112.8</ele>
        <time>2026-03-20T16:12:04Z</time>
      </trkpt>
      <trkpt lat="48.56172" lon="2.04959">
        <ele>112.8</ele>
        <time>2026-03-20T16:12:05Z</time>
      </trkpt>
      <trkpt lat="48.56181" lon="2.04963">
        <ele>112.8</ele>
        <time>2026-03-20T16:12:06Z</time>
      </trkpt>
      <trkpt lat="48.5619" lon="2.04966">
        <ele>111.8</ele>
        <time>2026-03-20T16:12:07Z</time>
      </trkpt>
      <trkpt lat="48.56199" lon="2.04968">
        <ele>108.8</ele>
        <time>2026-03-20T16:12:08Z</time>
      </trkpt>
      <trkpt lat="48.56208" lon="2.0497">
        <ele>108.8</ele>
        <time>2026-03-20T16:12:09Z</time>
      </trkpt>
      <trkpt lat="48.56217" lon="2.04969">
        <ele>108.8</ele>
        <time>2026-03-20T16:12:10Z</time>
      </trkpt>
      <trkpt lat="48.56225" lon="2.04967">
        <ele>107.8</ele>
        <time>2026-03-20T16:12:11Z</time>
      </trkpt>
      <trkpt lat="48.56233" lon="2.04964">
        <ele>106.6</ele>
        <time>2026-03-20T16:12:12Z</time>
      </trkpt>
      <trkpt lat="48.5624" lon="2.0496">
        <ele>106.6</ele>
        <time>2026-03-20T16:12:13Z</time>
      </trkpt>
      <trkpt lat="48.56247" lon="2.04956">
        <ele>106.6</ele>
        <time>2026-03-20T16:12:14Z</time>
      </trkpt>
      <trkpt lat="48.56252" lon="2.04953">
        <ele>106.6</ele>
        <time>2026-03-20T16:12:15Z</time>
      </trkpt>
      <trkpt lat="48.56257" lon="2.04951">
        <ele>106</ele>
        <time>2026-03-20T16:12:16Z</time>
      </trkpt>
      <trkpt lat="48.56263" lon="2.04949">
        <ele>106</ele>
        <time>2026-03-20T16:12:17Z</time>
      </trkpt>
      <trkpt lat="48.56269" lon="2.04947">
        <ele>106</ele>
        <time>2026-03-20T16:12:18Z</time>
      </trkpt>
      <trkpt lat="48.56276" lon="2.04946">
        <ele>105</ele>
        <time>2026-03-20T16:12:19Z</time>
      </trkpt>
      <trkpt lat="48.56284" lon="2.04946">
        <ele>101.4</ele>
        <time>2026-03-20T16:12:20Z</time>
      </trkpt>
      <trkpt lat="48.56292" lon="2.04947">
        <ele>101.4</ele>
        <time>2026-03-20T16:12:21Z</time>
      </trkpt>
      <trkpt lat="48.563" lon="2.04947">
        <ele>101.4</ele>
        <time>2026-03-20T16:12:22Z</time>
      </trkpt>
      <trkpt lat="48.56309" lon="2.04948">
        <ele>101.4</ele>
        <time>2026-03-20T16:12:23Z</time>
      </trkpt>
      <trkpt lat="48.56318" lon="2.04949">
        <ele>99.2</ele>
        <time>2026-03-20T16:12:24Z</time>
      </trkpt>
      <trkpt lat="48.56326" lon="2.0495">
        <ele>99.2</ele>
        <time>2026-03-20T16:12:25Z</time>
      </trkpt>
      <trkpt lat="48.56333" lon="2.04952">
        <ele>99.2</ele>
        <time>2026-03-20T16:12:26Z</time>
      </trkpt>
      <trkpt lat="48.56339" lon="2.04953">
        <ele>100.2</ele>
        <time>2026-03-20T16:12:27Z</time>
      </trkpt>
      <trkpt lat="48.56344" lon="2.04953">
        <ele>100.6</ele>
        <time>2026-03-20T16:12:28Z</time>
      </trkpt>
      <trkpt lat="48.56348" lon="2.04953">
        <ele>100.6</ele>
        <time>2026-03-20T16:12:29Z</time>
      </trkpt>
      <trkpt lat="48.56351" lon="2.04953">
        <ele>100.6</ele>
        <time>2026-03-20T16:12:30Z</time>
      </trkpt>
      <trkpt lat="48.56353" lon="2.04952">
        <ele>101</ele>
        <time>2026-03-20T16:12:31Z</time>
      </trkpt>
      <trkpt lat="48.56355" lon="2.04951">
        <ele>101</ele>
        <time>2026-03-20T16:12:32Z</time>
      </trkpt>
      <trkpt lat="48.56357" lon="2.04948">
        <ele>101</ele>
        <time>2026-03-20T16:12:33Z</time>
      </trkpt>
      <trkpt lat="48.56359" lon="2.04944">
        <ele>101</ele>
        <time>2026-03-20T16:12:34Z</time>
      </trkpt>
      <trkpt lat="48.5636" lon="2.04939">
        <ele>100.6</ele>
        <time>2026-03-20T16:12:35Z</time>
      </trkpt>
      <trkpt lat="48.56361" lon="2.04932">
        <ele>100.8</ele>
        <time>2026-03-20T16:12:36Z</time>
      </trkpt>
      <trkpt lat="48.56361" lon="2.04926">
        <ele>100.8</ele>
        <time>2026-03-20T16:12:37Z</time>
      </trkpt>
      <trkpt lat="48.56362" lon="2.04919">
        <ele>100.8</ele>
        <time>2026-03-20T16:12:38Z</time>
      </trkpt>
      <trkpt lat="48.56363" lon="2.04911">
        <ele>100</ele>
        <time>2026-03-20T16:12:39Z</time>
      </trkpt>
      <trkpt lat="48.56363" lon="2.04903">
        <ele>100.2</ele>
        <time>2026-03-20T16:12:40Z</time>
      </trkpt>
      <trkpt lat="48.56364" lon="2.04895">
        <ele>100.2</ele>
        <time>2026-03-20T16:12:41Z</time>
      </trkpt>
      <trkpt lat="48.56365" lon="2.04886">
        <ele>100.2</ele>
        <time>2026-03-20T16:12:42Z</time>
      </trkpt>
      <trkpt lat="48.56366" lon="2.04878">
        <ele>99.8</ele>
        <time>2026-03-20T16:12:43Z</time>
      </trkpt>
      <trkpt lat="48.56367" lon="2.04869">
        <ele>99.6</ele>
        <time>2026-03-20T16:12:44Z</time>
      </trkpt>
      <trkpt lat="48.56367" lon="2.0486">
        <ele>99.6</ele>
        <time>2026-03-20T16:12:45Z</time>
      </trkpt>
      <trkpt lat="48.56369" lon="2.04852">
        <ele>99.6</ele>
        <time>2026-03-20T16:12:46Z</time>
      </trkpt>
      <trkpt lat="48.56369" lon="2.04843">
        <ele>98.6</ele>
        <time>2026-03-20T16:12:47Z</time>
      </trkpt>
      <trkpt lat="48.5637" lon="2.04834">
        <ele>99</ele>
        <time>2026-03-20T16:12:48Z</time>
      </trkpt>
      <trkpt lat="48.56371" lon="2.04825">
        <ele>99</ele>
        <time>2026-03-20T16:12:49Z</time>
      </trkpt>
      <trkpt lat="48.56371" lon="2.04816">
        <ele>99</ele>
        <time>2026-03-20T16:12:50Z</time>
      </trkpt>
      <trkpt lat="48.56372" lon="2.04807">
        <ele>99</ele>
        <time>2026-03-20T16:12:51Z</time>
      </trkpt>
      <trkpt lat="48.56373" lon="2.04798">
        <ele>99.2</ele>
        <time>2026-03-20T16:12:52Z</time>
      </trkpt>
      <trkpt lat="48.56373" lon="2.0479">
        <ele>99.2</ele>
        <time>2026-03-20T16:12:53Z</time>
      </trkpt>
      <trkpt lat="48.56374" lon="2.04781">
        <ele>99.2</ele>
        <time>2026-03-20T16:12:54Z</time>
      </trkpt>
      <trkpt lat="48.56374" lon="2.04773">
        <ele>99.6</ele>
        <time>2026-03-20T16:12:55Z</time>
      </trkpt>
      <trkpt lat="48.56375" lon="2.04764">
        <ele>98.8</ele>
        <time>2026-03-20T16:12:56Z</time>
      </trkpt>
      <trkpt lat="48.56376" lon="2.04756">
        <ele>98.8</ele>
        <time>2026-03-20T16:12:57Z</time>
      </trkpt>
      <trkpt lat="48.56377" lon="2.04748">
        <ele>98.8</ele>
        <time>2026-03-20T16:12:58Z</time>
      </trkpt>
      <trkpt lat="48.56377" lon="2.04739">
        <ele>99</ele>
        <time>2026-03-20T16:12:59Z</time>
      </trkpt>
      <trkpt lat="48.56378" lon="2.0473">
        <ele>99.6</ele>
        <time>2026-03-20T16:13:00Z</time>
      </trkpt>
      <trkpt lat="48.56379" lon="2.04722">
        <ele>99.6</ele>
        <time>2026-03-20T16:13:01Z</time>
      </trkpt>
      <trkpt lat="48.56379" lon="2.04713">
        <ele>99.6</ele>
        <time>2026-03-20T16:13:02Z</time>
      </trkpt>
      <trkpt lat="48.5638" lon="2.04705">
        <ele>99.4</ele>
        <time>2026-03-20T16:13:03Z</time>
      </trkpt>
      <trkpt lat="48.5638" lon="2.04696">
        <ele>99.4</ele>
        <time>2026-03-20T16:13:04Z</time>
      </trkpt>
      <trkpt lat="48.56381" lon="2.04688">
        <ele>99.4</ele>
        <time>2026-03-20T16:13:05Z</time>
      </trkpt>
      <trkpt lat="48.56382" lon="2.04679">
        <ele>99.4</ele>
        <time>2026-03-20T16:13:06Z</time>
      </trkpt>
      <trkpt lat="48.56382" lon="2.04671">
        <ele>99.4</ele>
        <time>2026-03-20T16:13:07Z</time>
      </trkpt>
      <trkpt lat="48.56383" lon="2.04663">
        <ele>100.6</ele>
        <time>2026-03-20T16:13:08Z</time>
      </trkpt>
      <trkpt lat="48.56384" lon="2.04655">
        <ele>100.6</ele>
        <time>2026-03-20T16:13:09Z</time>
      </trkpt>
      <trkpt lat="48.56384" lon="2.04647">
        <ele>100.6</ele>
        <time>2026-03-20T16:13:10Z</time>
      </trkpt>
      <trkpt lat="48.56385" lon="2.04639">
        <ele>100.6</ele>
        <time>2026-03-20T16:13:11Z</time>
      </trkpt>
      <trkpt lat="48.56385" lon="2.04631">
        <ele>100.8</ele>
        <time>2026-03-20T16:13:12Z</time>
      </trkpt>
      <trkpt lat="48.56386" lon="2.04623">
        <ele>100.8</ele>
        <time>2026-03-20T16:13:13Z</time>
      </trkpt>
      <trkpt lat="48.56387" lon="2.04615">
        <ele>100.8</ele>
        <time>2026-03-20T16:13:14Z</time>
      </trkpt>
      <trkpt lat="48.56387" lon="2.04608">
        <ele>100.8</ele>
        <time>2026-03-20T16:13:15Z</time>
      </trkpt>
      <trkpt lat="48.56388" lon="2.046">
        <ele>101</ele>
        <time>2026-03-20T16:13:16Z</time>
      </trkpt>
      <trkpt lat="48.56388" lon="2.04592">
        <ele>101</ele>
        <time>2026-03-20T16:13:17Z</time>
      </trkpt>
      <trkpt lat="48.56389" lon="2.04584">
        <ele>101</ele>
        <time>2026-03-20T16:13:18Z</time>
      </trkpt>
      <trkpt lat="48.5639" lon="2.04577">
        <ele>102</ele>
        <time>2026-03-20T16:13:19Z</time>
      </trkpt>
      <trkpt lat="48.5639" lon="2.0457">
        <ele>101.8</ele>
        <time>2026-03-20T16:13:20Z</time>
      </trkpt>
      <trkpt lat="48.56391" lon="2.04563">
        <ele>101.8</ele>
        <time>2026-03-20T16:13:21Z</time>
      </trkpt>
      <trkpt lat="48.56391" lon="2.04555">
        <ele>101.8</ele>
        <time>2026-03-20T16:13:22Z</time>
      </trkpt>
      <trkpt lat="48.56392" lon="2.04547">
        <ele>101.8</ele>
        <time>2026-03-20T16:13:23Z</time>
      </trkpt>
      <trkpt lat="48.56393" lon="2.0454">
        <ele>102.2</ele>
        <time>2026-03-20T16:13:24Z</time>
      </trkpt>
      <trkpt lat="48.56393" lon="2.04532">
        <ele>102.2</ele>
        <time>2026-03-20T16:13:25Z</time>
      </trkpt>
      <trkpt lat="48.56394" lon="2.04524">
        <ele>102.2</ele>
        <time>2026-03-20T16:13:26Z</time>
      </trkpt>
      <trkpt lat="48.56394" lon="2.04517">
        <ele>102.2</ele>
        <time>2026-03-20T16:13:27Z</time>
      </trkpt>
      <trkpt lat="48.56395" lon="2.04509">
        <ele>103.2</ele>
        <time>2026-03-20T16:13:28Z</time>
      </trkpt>
      <trkpt lat="48.56395" lon="2.04501">
        <ele>103.2</ele>
        <time>2026-03-20T16:13:29Z</time>
      </trkpt>
      <trkpt lat="48.56396" lon="2.04493">
        <ele>103.2</ele>
        <time>2026-03-20T16:13:30Z</time>
      </trkpt>
      <trkpt lat="48.56397" lon="2.04486">
        <ele>103.2</ele>
        <time>2026-03-20T16:13:31Z</time>
      </trkpt>
      <trkpt lat="48.56397" lon="2.04478">
        <ele>103.4</ele>
        <time>2026-03-20T16:13:32Z</time>
      </trkpt>
      <trkpt lat="48.56398" lon="2.0447">
        <ele>103.4</ele>
        <time>2026-03-20T16:13:33Z</time>
      </trkpt>
      <trkpt lat="48.56399" lon="2.04463">
        <ele>103.4</ele>
        <time>2026-03-20T16:13:34Z</time>
      </trkpt>
      <trkpt lat="48.56399" lon="2.04455">
        <ele>103.4</ele>
        <time>2026-03-20T16:13:35Z</time>
      </trkpt>
      <trkpt lat="48.564" lon="2.04448">
        <ele>104.6</ele>
        <time>2026-03-20T16:13:36Z</time>
      </trkpt>
      <trkpt lat="48.564" lon="2.0444">
        <ele>104.6</ele>
        <time>2026-03-20T16:13:37Z</time>
      </trkpt>
      <trkpt lat="48.56401" lon="2.04432">
        <ele>104.6</ele>
        <time>2026-03-20T16:13:38Z</time>
      </trkpt>
      <trkpt lat="48.56401" lon="2.04425">
        <ele>104.6</ele>
        <time>2026-03-20T16:13:39Z</time>
      </trkpt>
      <trkpt lat="48.56402" lon="2.04417">
        <ele>104.8</ele>
        <time>2026-03-20T16:13:40Z</time>
      </trkpt>
      <trkpt lat="48.56402" lon="2.04409">
        <ele>104.8</ele>
        <time>2026-03-20T16:13:41Z</time>
      </trkpt>
      <trkpt lat="48.56403" lon="2.04402">
        <ele>104.8</ele>
        <time>2026-03-20T16:13:42Z</time>
      </trkpt>
      <trkpt lat="48.56403" lon="2.04394">
        <ele>104.6</ele>
        <time>2026-03-20T16:13:43Z</time>
      </trkpt>
      <trkpt lat="48.56404" lon="2.04386">
        <ele>104.6</ele>
        <time>2026-03-20T16:13:44Z</time>
      </trkpt>
      <trkpt lat="48.56405" lon="2.04379">
        <ele>104.6</ele>
        <time>2026-03-20T16:13:45Z</time>
      </trkpt>
      <trkpt lat="48.56406" lon="2.04372">
        <ele>104.6</ele>
        <time>2026-03-20T16:13:46Z</time>
      </trkpt>
      <trkpt lat="48.56406" lon="2.04364">
        <ele>105</ele>
        <time>2026-03-20T16:13:47Z</time>
      </trkpt>
      <trkpt lat="48.56407" lon="2.04356">
        <ele>104.6</ele>
        <time>2026-03-20T16:13:48Z</time>
      </trkpt>
      <trkpt lat="48.56407" lon="2.04348">
        <ele>104.6</ele>
        <time>2026-03-20T16:13:49Z</time>
      </trkpt>
      <trkpt lat="48.56408" lon="2.04339">
        <ele>104.6</ele>
        <time>2026-03-20T16:13:50Z</time>
      </trkpt>
      <trkpt lat="48.56409" lon="2.04331">
        <ele>104.6</ele>
        <time>2026-03-20T16:13:51Z</time>
      </trkpt>
      <trkpt lat="48.56411" lon="2.04323">
        <ele>104.6</ele>
        <time>2026-03-20T16:13:52Z</time>
      </trkpt>
      <trkpt lat="48.56412" lon="2.04315">
        <ele>104.6</ele>
        <time>2026-03-20T16:13:53Z</time>
      </trkpt>
      <trkpt lat="48.56413" lon="2.04307">
        <ele>104.6</ele>
        <time>2026-03-20T16:13:54Z</time>
      </trkpt>
      <trkpt lat="48.56414" lon="2.04299">
        <ele>105.6</ele>
        <time>2026-03-20T16:13:55Z</time>
      </trkpt>
      <trkpt lat="48.56416" lon="2.0429">
        <ele>105.2</ele>
        <time>2026-03-20T16:13:56Z</time>
      </trkpt>
      <trkpt lat="48.56417" lon="2.04282">
        <ele>105.2</ele>
        <time>2026-03-20T16:13:57Z</time>
      </trkpt>
      <trkpt lat="48.56419" lon="2.04274">
        <ele>105.2</ele>
        <time>2026-03-20T16:13:58Z</time>
      </trkpt>
      <trkpt lat="48.56421" lon="2.04266">
        <ele>104.2</ele>
        <time>2026-03-20T16:13:59Z</time>
      </trkpt>
      <trkpt lat="48.56422" lon="2.04257">
        <ele>103.6</ele>
        <time>2026-03-20T16:14:00Z</time>
      </trkpt>
      <trkpt lat="48.56424" lon="2.04249">
        <ele>103.6</ele>
        <time>2026-03-20T16:14:01Z</time>
      </trkpt>
      <trkpt lat="48.56426" lon="2.0424">
        <ele>103.6</ele>
        <time>2026-03-20T16:14:02Z</time>
      </trkpt>
      <trkpt lat="48.56428" lon="2.04231">
        <ele>103.6</ele>
        <time>2026-03-20T16:14:03Z</time>
      </trkpt>
      <trkpt lat="48.5643" lon="2.04221">
        <ele>102.8</ele>
        <time>2026-03-20T16:14:04Z</time>
      </trkpt>
      <trkpt lat="48.56432" lon="2.04211">
        <ele>102.8</ele>
        <time>2026-03-20T16:14:05Z</time>
      </trkpt>
      <trkpt lat="48.56434" lon="2.04202">
        <ele>102.8</ele>
        <time>2026-03-20T16:14:06Z</time>
      </trkpt>
      <trkpt lat="48.56437" lon="2.04192">
        <ele>102.8</ele>
        <time>2026-03-20T16:14:07Z</time>
      </trkpt>
      <trkpt lat="48.56439" lon="2.04182">
        <ele>99.8</ele>
        <time>2026-03-20T16:14:08Z</time>
      </trkpt>
      <trkpt lat="48.56441" lon="2.04171">
        <ele>99.8</ele>
        <time>2026-03-20T16:14:09Z</time>
      </trkpt>
      <trkpt lat="48.56443" lon="2.0416">
        <ele>99.8</ele>
        <time>2026-03-20T16:14:10Z</time>
      </trkpt>
      <trkpt lat="48.56446" lon="2.0415">
        <ele>99.8</ele>
        <time>2026-03-20T16:14:11Z</time>
      </trkpt>
      <trkpt lat="48.56448" lon="2.04139">
        <ele>98.6</ele>
        <time>2026-03-20T16:14:12Z</time>
      </trkpt>
      <trkpt lat="48.56451" lon="2.04128">
        <ele>98.6</ele>
        <time>2026-03-20T16:14:13Z</time>
      </trkpt>
      <trkpt lat="48.56453" lon="2.04117">
        <ele>98.6</ele>
        <time>2026-03-20T16:14:14Z</time>
      </trkpt>
      <trkpt lat="48.56456" lon="2.04106">
        <ele>98.6</ele>
        <time>2026-03-20T16:14:15Z</time>
      </trkpt>
      <trkpt lat="48.56458" lon="2.04095">
        <ele>97.4</ele>
        <time>2026-03-20T16:14:16Z</time>
      </trkpt>
      <trkpt lat="48.56461" lon="2.04084">
        <ele>97.4</ele>
        <time>2026-03-20T16:14:17Z</time>
      </trkpt>
      <trkpt lat="48.56465" lon="2.04073">
        <ele>97.4</ele>
        <time>2026-03-20T16:14:18Z</time>
      </trkpt>
      <trkpt lat="48.56467" lon="2.04062">
        <ele>97.4</ele>
        <time>2026-03-20T16:14:19Z</time>
      </trkpt>
      <trkpt lat="48.56471" lon="2.04051">
        <ele>96.2</ele>
        <time>2026-03-20T16:14:20Z</time>
      </trkpt>
      <trkpt lat="48.56474" lon="2.04039">
        <ele>96.2</ele>
        <time>2026-03-20T16:14:21Z</time>
      </trkpt>
      <trkpt lat="48.56477" lon="2.04028">
        <ele>96.2</ele>
        <time>2026-03-20T16:14:22Z</time>
      </trkpt>
      <trkpt lat="48.5648" lon="2.04016">
        <ele>95.2</ele>
        <time>2026-03-20T16:14:23Z</time>
      </trkpt>
      <trkpt lat="48.56483" lon="2.04005">
        <ele>94.4</ele>
        <time>2026-03-20T16:14:24Z</time>
      </trkpt>
      <trkpt lat="48.56487" lon="2.03994">
        <ele>94.4</ele>
        <time>2026-03-20T16:14:25Z</time>
      </trkpt>
      <trkpt lat="48.5649" lon="2.03983">
        <ele>94.4</ele>
        <time>2026-03-20T16:14:26Z</time>
      </trkpt>
      <trkpt lat="48.56493" lon="2.03972">
        <ele>95.4</ele>
        <time>2026-03-20T16:14:27Z</time>
      </trkpt>
      <trkpt lat="48.56497" lon="2.03962">
        <ele>95.4</ele>
        <time>2026-03-20T16:14:28Z</time>
      </trkpt>
      <trkpt lat="48.565" lon="2.03951">
        <ele>95.4</ele>
        <time>2026-03-20T16:14:29Z</time>
      </trkpt>
      <trkpt lat="48.56504" lon="2.0394">
        <ele>95.4</ele>
        <time>2026-03-20T16:14:30Z</time>
      </trkpt>
      <trkpt lat="48.56508" lon="2.03931">
        <ele>95.4</ele>
        <time>2026-03-20T16:14:31Z</time>
      </trkpt>
      <trkpt lat="48.56513" lon="2.03923">
        <ele>94.6</ele>
        <time>2026-03-20T16:14:32Z</time>
      </trkpt>
      <trkpt lat="48.56518" lon="2.03914">
        <ele>94.6</ele>
        <time>2026-03-20T16:14:33Z</time>
      </trkpt>
      <trkpt lat="48.56523" lon="2.03907">
        <ele>94.6</ele>
        <time>2026-03-20T16:14:34Z</time>
      </trkpt>
      <trkpt lat="48.56528" lon="2.03899">
        <ele>94.6</ele>
        <time>2026-03-20T16:14:35Z</time>
      </trkpt>
      <trkpt lat="48.56533" lon="2.03891">
        <ele>93.6</ele>
        <time>2026-03-20T16:14:36Z</time>
      </trkpt>
      <trkpt lat="48.56538" lon="2.03883">
        <ele>93.6</ele>
        <time>2026-03-20T16:14:37Z</time>
      </trkpt>
      <trkpt lat="48.56543" lon="2.03875">
        <ele>93.6</ele>
        <time>2026-03-20T16:14:38Z</time>
      </trkpt>
      <trkpt lat="48.56547" lon="2.03867">
        <ele>93.8</ele>
        <time>2026-03-20T16:14:39Z</time>
      </trkpt>
      <trkpt lat="48.56552" lon="2.0386">
        <ele>94.4</ele>
        <time>2026-03-20T16:14:40Z</time>
      </trkpt>
      <trkpt lat="48.56557" lon="2.03852">
        <ele>94.4</ele>
        <time>2026-03-20T16:14:41Z</time>
      </trkpt>
      <trkpt lat="48.56562" lon="2.03845">
        <ele>94.4</ele>
        <time>2026-03-20T16:14:42Z</time>
      </trkpt>
      <trkpt lat="48.56566" lon="2.03838">
        <ele>94.4</ele>
        <time>2026-03-20T16:14:43Z</time>
      </trkpt>
      <trkpt lat="48.56571" lon="2.0383">
        <ele>94.6</ele>
        <time>2026-03-20T16:14:44Z</time>
      </trkpt>
      <trkpt lat="48.56575" lon="2.03823">
        <ele>94.6</ele>
        <time>2026-03-20T16:14:45Z</time>
      </trkpt>
      <trkpt lat="48.5658" lon="2.03817">
        <ele>94.6</ele>
        <time>2026-03-20T16:14:46Z</time>
      </trkpt>
      <trkpt lat="48.56584" lon="2.0381">
        <ele>95.2</ele>
        <time>2026-03-20T16:14:47Z</time>
      </trkpt>
      <trkpt lat="48.56589" lon="2.03803">
        <ele>95.2</ele>
        <time>2026-03-20T16:14:48Z</time>
      </trkpt>
      <trkpt lat="48.56594" lon="2.03796">
        <ele>95.2</ele>
        <time>2026-03-20T16:14:49Z</time>
      </trkpt>
      <trkpt lat="48.56598" lon="2.03789">
        <ele>95.2</ele>
        <time>2026-03-20T16:14:50Z</time>
      </trkpt>
      <trkpt lat="48.56603" lon="2.03782">
        <ele>94.8</ele>
        <time>2026-03-20T16:14:51Z</time>
      </trkpt>
      <trkpt lat="48.56607" lon="2.03775">
        <ele>94.8</ele>
        <time>2026-03-20T16:14:52Z</time>
      </trkpt>
      <trkpt lat="48.56611" lon="2.03768">
        <ele>94.8</ele>
        <time>2026-03-20T16:14:53Z</time>
      </trkpt>
      <trkpt lat="48.56615" lon="2.0376">
        <ele>94.8</ele>
        <time>2026-03-20T16:14:54Z</time>
      </trkpt>
      <trkpt lat="48.56618" lon="2.03752">
        <ele>94.8</ele>
        <time>2026-03-20T16:14:55Z</time>
      </trkpt>
      <trkpt lat="48.56621" lon="2.03744">
        <ele>95.6</ele>
        <time>2026-03-20T16:14:56Z</time>
      </trkpt>
      <trkpt lat="48.56624" lon="2.03735">
        <ele>95.6</ele>
        <time>2026-03-20T16:14:57Z</time>
      </trkpt>
      <trkpt lat="48.56626" lon="2.03727">
        <ele>95.6</ele>
        <time>2026-03-20T16:14:58Z</time>
      </trkpt>
      <trkpt lat="48.56628" lon="2.03718">
        <ele>95.6</ele>
        <time>2026-03-20T16:14:59Z</time>
      </trkpt>
      <trkpt lat="48.56629" lon="2.03709">
        <ele>96.2</ele>
        <time>2026-03-20T16:15:00Z</time>
      </trkpt>
      <trkpt lat="48.56631" lon="2.037">
        <ele>96.2</ele>
        <time>2026-03-20T16:15:01Z</time>
      </trkpt>
      <trkpt lat="48.56632" lon="2.03692">
        <ele>96.2</ele>
        <time>2026-03-20T16:15:02Z</time>
      </trkpt>
      <trkpt lat="48.56633" lon="2.03683">
        <ele>96.2</ele>
        <time>2026-03-20T16:15:03Z</time>
      </trkpt>
      <trkpt lat="48.56635" lon="2.03674">
        <ele>95.8</ele>
        <time>2026-03-20T16:15:04Z</time>
      </trkpt>
      <trkpt lat="48.56636" lon="2.03666">
        <ele>95.8</ele>
        <time>2026-03-20T16:15:05Z</time>
      </trkpt>
      <trkpt lat="48.56638" lon="2.03657">
        <ele>95.8</ele>
        <time>2026-03-20T16:15:06Z</time>
      </trkpt>
      <trkpt lat="48.56639" lon="2.03648">
        <ele>95.8</ele>
        <time>2026-03-20T16:15:07Z</time>
      </trkpt>
      <trkpt lat="48.56641" lon="2.0364">
        <ele>94.6</ele>
        <time>2026-03-20T16:15:08Z</time>
      </trkpt>
      <trkpt lat="48.56643" lon="2.03632">
        <ele>94.6</ele>
        <time>2026-03-20T16:15:09Z</time>
      </trkpt>
      <trkpt lat="48.56645" lon="2.03624">
        <ele>94.6</ele>
        <time>2026-03-20T16:15:10Z</time>
      </trkpt>
      <trkpt lat="48.56648" lon="2.03615">
        <ele>95.4</ele>
        <time>2026-03-20T16:15:11Z</time>
      </trkpt>
      <trkpt lat="48.5665" lon="2.03607">
        <ele>96</ele>
        <time>2026-03-20T16:15:12Z</time>
      </trkpt>
      <trkpt lat="48.56652" lon="2.03599">
        <ele>96</ele>
        <time>2026-03-20T16:15:13Z</time>
      </trkpt>
      <trkpt lat="48.56654" lon="2.03591">
        <ele>96</ele>
        <time>2026-03-20T16:15:14Z</time>
      </trkpt>
      <trkpt lat="48.56656" lon="2.03583">
        <ele>95.2</ele>
        <time>2026-03-20T16:15:15Z</time>
      </trkpt>
      <trkpt lat="48.56658" lon="2.03575">
        <ele>95.4</ele>
        <time>2026-03-20T16:15:16Z</time>
      </trkpt>
      <trkpt lat="48.5666" lon="2.03566">
        <ele>95.4</ele>
        <time>2026-03-20T16:15:17Z</time>
      </trkpt>
      <trkpt lat="48.56662" lon="2.03558">
        <ele>95.4</ele>
        <time>2026-03-20T16:15:18Z</time>
      </trkpt>
      <trkpt lat="48.56664" lon="2.0355">
        <ele>95.6</ele>
        <time>2026-03-20T16:15:19Z</time>
      </trkpt>
      <trkpt lat="48.56665" lon="2.03542">
        <ele>96.2</ele>
        <time>2026-03-20T16:15:20Z</time>
      </trkpt>
      <trkpt lat="48.56667" lon="2.03534">
        <ele>96.2</ele>
        <time>2026-03-20T16:15:21Z</time>
      </trkpt>
      <trkpt lat="48.56669" lon="2.03526">
        <ele>96.2</ele>
        <time>2026-03-20T16:15:22Z</time>
      </trkpt>
      <trkpt lat="48.56671" lon="2.03519">
        <ele>96.2</ele>
        <time>2026-03-20T16:15:23Z</time>
      </trkpt>
      <trkpt lat="48.56673" lon="2.03511">
        <ele>96.6</ele>
        <time>2026-03-20T16:15:24Z</time>
      </trkpt>
      <trkpt lat="48.56674" lon="2.03503">
        <ele>96.6</ele>
        <time>2026-03-20T16:15:25Z</time>
      </trkpt>
      <trkpt lat="48.56676" lon="2.03495">
        <ele>96.6</ele>
        <time>2026-03-20T16:15:26Z</time>
      </trkpt>
      <trkpt lat="48.56677" lon="2.03487">
        <ele>96.8</ele>
        <time>2026-03-20T16:15:27Z</time>
      </trkpt>
      <trkpt lat="48.56679" lon="2.03479">
        <ele>97</ele>
        <time>2026-03-20T16:15:28Z</time>
      </trkpt>
      <trkpt lat="48.5668" lon="2.03471">
        <ele>97</ele>
        <time>2026-03-20T16:15:29Z</time>
      </trkpt>
      <trkpt lat="48.56681" lon="2.03463">
        <ele>97</ele>
        <time>2026-03-20T16:15:30Z</time>
      </trkpt>
      <trkpt lat="48.56682" lon="2.03455">
        <ele>97</ele>
        <time>2026-03-20T16:15:31Z</time>
      </trkpt>
      <trkpt lat="48.56684" lon="2.03447">
        <ele>96.8</ele>
        <time>2026-03-20T16:15:32Z</time>
      </trkpt>
      <trkpt lat="48.56685" lon="2.03439">
        <ele>96.8</ele>
        <time>2026-03-20T16:15:33Z</time>
      </trkpt>
      <trkpt lat="48.56687" lon="2.03431">
        <ele>96.8</ele>
        <time>2026-03-20T16:15:34Z</time>
      </trkpt>
      <trkpt lat="48.56687" lon="2.03423">
        <ele>96.8</ele>
        <time>2026-03-20T16:15:35Z</time>
      </trkpt>
      <trkpt lat="48.56689" lon="2.03415">
        <ele>97.6</ele>
        <time>2026-03-20T16:15:36Z</time>
      </trkpt>
      <trkpt lat="48.5669" lon="2.03407">
        <ele>97.6</ele>
        <time>2026-03-20T16:15:37Z</time>
      </trkpt>
      <trkpt lat="48.56692" lon="2.03399">
        <ele>97.6</ele>
        <time>2026-03-20T16:15:38Z</time>
      </trkpt>
      <trkpt lat="48.56694" lon="2.03391">
        <ele>97.6</ele>
        <time>2026-03-20T16:15:39Z</time>
      </trkpt>
      <trkpt lat="48.56696" lon="2.03384">
        <ele>97.8</ele>
        <time>2026-03-20T16:15:40Z</time>
      </trkpt>
      <trkpt lat="48.56698" lon="2.03376">
        <ele>97.8</ele>
        <time>2026-03-20T16:15:41Z</time>
      </trkpt>
      <trkpt lat="48.567" lon="2.03368">
        <ele>97.8</ele>
        <time>2026-03-20T16:15:42Z</time>
      </trkpt>
      <trkpt lat="48.56702" lon="2.03361">
        <ele>97.6</ele>
        <time>2026-03-20T16:15:43Z</time>
      </trkpt>
      <trkpt lat="48.56705" lon="2.03353">
        <ele>97.6</ele>
        <time>2026-03-20T16:15:44Z</time>
      </trkpt>
      <trkpt lat="48.56707" lon="2.03346">
        <ele>97.6</ele>
        <time>2026-03-20T16:15:45Z</time>
      </trkpt>
      <trkpt lat="48.56709" lon="2.03338">
        <ele>97.6</ele>
        <time>2026-03-20T16:15:46Z</time>
      </trkpt>
      <trkpt lat="48.56711" lon="2.03331">
        <ele>97.6</ele>
        <time>2026-03-20T16:15:47Z</time>
      </trkpt>
      <trkpt lat="48.56713" lon="2.03323">
        <ele>97.8</ele>
        <time>2026-03-20T16:15:48Z</time>
      </trkpt>
      <trkpt lat="48.56716" lon="2.03316">
        <ele>97.8</ele>
        <time>2026-03-20T16:15:49Z</time>
      </trkpt>
      <trkpt lat="48.56718" lon="2.03308">
        <ele>97.8</ele>
        <time>2026-03-20T16:15:50Z</time>
      </trkpt>
      <trkpt lat="48.5672" lon="2.03301">
        <ele>97.8</ele>
        <time>2026-03-20T16:15:51Z</time>
      </trkpt>
      <trkpt lat="48.56723" lon="2.03293">
        <ele>97.8</ele>
        <time>2026-03-20T16:15:52Z</time>
      </trkpt>
      <trkpt lat="48.56725" lon="2.03286">
        <ele>97.8</ele>
        <time>2026-03-20T16:15:53Z</time>
      </trkpt>
      <trkpt lat="48.56727" lon="2.03279">
        <ele>97.8</ele>
        <time>2026-03-20T16:15:54Z</time>
      </trkpt>
      <trkpt lat="48.5673" lon="2.03272">
        <ele>98.2</ele>
        <time>2026-03-20T16:15:55Z</time>
      </trkpt>
      <trkpt lat="48.56733" lon="2.03265">
        <ele>98.4</ele>
        <time>2026-03-20T16:15:56Z</time>
      </trkpt>
      <trkpt lat="48.56736" lon="2.03259">
        <ele>98.4</ele>
        <time>2026-03-20T16:15:57Z</time>
      </trkpt>
      <trkpt lat="48.56739" lon="2.03253">
        <ele>98.4</ele>
        <time>2026-03-20T16:15:58Z</time>
      </trkpt>
      <trkpt lat="48.56743" lon="2.03247">
        <ele>97.8</ele>
        <time>2026-03-20T16:15:59Z</time>
      </trkpt>
      <trkpt lat="48.56746" lon="2.03241">
        <ele>97.8</ele>
        <time>2026-03-20T16:16:00Z</time>
      </trkpt>
      <trkpt lat="48.5675" lon="2.03235">
        <ele>97.8</ele>
        <time>2026-03-20T16:16:01Z</time>
      </trkpt>
      <trkpt lat="48.56754" lon="2.03229">
        <ele>97.8</ele>
        <time>2026-03-20T16:16:02Z</time>
      </trkpt>
      <trkpt lat="48.56759" lon="2.03224">
        <ele>97.8</ele>
        <time>2026-03-20T16:16:03Z</time>
      </trkpt>
      <trkpt lat="48.56763" lon="2.03218">
        <ele>97.2</ele>
        <time>2026-03-20T16:16:04Z</time>
      </trkpt>
      <trkpt lat="48.56768" lon="2.03213">
        <ele>97.2</ele>
        <time>2026-03-20T16:16:05Z</time>
      </trkpt>
      <trkpt lat="48.56773" lon="2.03209">
        <ele>97.2</ele>
        <time>2026-03-20T16:16:06Z</time>
      </trkpt>
      <trkpt lat="48.56778" lon="2.03205">
        <ele>97.2</ele>
        <time>2026-03-20T16:16:07Z</time>
      </trkpt>
      <trkpt lat="48.56784" lon="2.03201">
        <ele>97.2</ele>
        <time>2026-03-20T16:16:08Z</time>
      </trkpt>
      <trkpt lat="48.56789" lon="2.03198">
        <ele>97.2</ele>
        <time>2026-03-20T16:16:09Z</time>
      </trkpt>
      <trkpt lat="48.56794" lon="2.03196">
        <ele>97.2</ele>
        <time>2026-03-20T16:16:10Z</time>
      </trkpt>
      <trkpt lat="48.568" lon="2.03194">
        <ele>96.8</ele>
        <time>2026-03-20T16:16:11Z</time>
      </trkpt>
      <trkpt lat="48.56806" lon="2.03192">
        <ele>97.2</ele>
        <time>2026-03-20T16:16:12Z</time>
      </trkpt>
      <trkpt lat="48.56811" lon="2.0319">
        <ele>97.2</ele>
        <time>2026-03-20T16:16:13Z</time>
      </trkpt>
      <trkpt lat="48.56816" lon="2.03189">
        <ele>97.2</ele>
        <time>2026-03-20T16:16:14Z</time>
      </trkpt>
      <trkpt lat="48.5682" lon="2.03187">
        <ele>97.2</ele>
        <time>2026-03-20T16:16:15Z</time>
      </trkpt>
      <trkpt lat="48.56823" lon="2.03184">
        <ele>98</ele>
        <time>2026-03-20T16:16:16Z</time>
      </trkpt>
      <trkpt lat="48.56825" lon="2.03181">
        <ele>98</ele>
        <time>2026-03-20T16:16:17Z</time>
      </trkpt>
      <trkpt lat="48.56827" lon="2.03179">
        <ele>98</ele>
        <time>2026-03-20T16:16:18Z</time>
      </trkpt>
      <trkpt lat="48.56829" lon="2.03176">
        <ele>98.2</ele>
        <time>2026-03-20T16:16:19Z</time>
      </trkpt>
      <trkpt lat="48.56831" lon="2.03172">
        <ele>97.8</ele>
        <time>2026-03-20T16:16:20Z</time>
      </trkpt>
      <trkpt lat="48.56834" lon="2.03168">
        <ele>97.8</ele>
        <time>2026-03-20T16:16:21Z</time>
      </trkpt>
      <trkpt lat="48.56837" lon="2.03164">
        <ele>97.8</ele>
        <time>2026-03-20T16:16:22Z</time>
      </trkpt>
      <trkpt lat="48.5684" lon="2.03158">
        <ele>97.8</ele>
        <time>2026-03-20T16:16:23Z</time>
      </trkpt>
      <trkpt lat="48.56843" lon="2.03152">
        <ele>98.2</ele>
        <time>2026-03-20T16:16:24Z</time>
      </trkpt>
      <trkpt lat="48.56847" lon="2.03146">
        <ele>98.2</ele>
        <time>2026-03-20T16:16:25Z</time>
      </trkpt>
      <trkpt lat="48.56851" lon="2.0314">
        <ele>98.2</ele>
        <time>2026-03-20T16:16:26Z</time>
      </trkpt>
      <trkpt lat="48.56854" lon="2.03134">
        <ele>97.2</ele>
        <time>2026-03-20T16:16:27Z</time>
      </trkpt>
      <trkpt lat="48.56858" lon="2.03128">
        <ele>97.2</ele>
        <time>2026-03-20T16:16:28Z</time>
      </trkpt>
      <trkpt lat="48.56862" lon="2.03122">
        <ele>97.2</ele>
        <time>2026-03-20T16:16:29Z</time>
      </trkpt>
      <trkpt lat="48.56865" lon="2.03115">
        <ele>97.2</ele>
        <time>2026-03-20T16:16:30Z</time>
      </trkpt>
      <trkpt lat="48.56869" lon="2.03109">
        <ele>97.2</ele>
        <time>2026-03-20T16:16:31Z</time>
      </trkpt>
      <trkpt lat="48.56872" lon="2.03102">
        <ele>97.4</ele>
        <time>2026-03-20T16:16:32Z</time>
      </trkpt>
      <trkpt lat="48.56875" lon="2.03095">
        <ele>97.4</ele>
        <time>2026-03-20T16:16:33Z</time>
      </trkpt>
      <trkpt lat="48.56877" lon="2.03088">
        <ele>97.4</ele>
        <time>2026-03-20T16:16:34Z</time>
      </trkpt>
      <trkpt lat="48.5688" lon="2.03081">
        <ele>97</ele>
        <time>2026-03-20T16:16:35Z</time>
      </trkpt>
      <trkpt lat="48.56882" lon="2.03074">
        <ele>97.8</ele>
        <time>2026-03-20T16:16:36Z</time>
      </trkpt>
      <trkpt lat="48.56885" lon="2.03067">
        <ele>97.8</ele>
        <time>2026-03-20T16:16:37Z</time>
      </trkpt>
      <trkpt lat="48.56888" lon="2.03061">
        <ele>97.8</ele>
        <time>2026-03-20T16:16:38Z</time>
      </trkpt>
      <trkpt lat="48.56891" lon="2.03055">
        <ele>97.8</ele>
        <time>2026-03-20T16:16:39Z</time>
      </trkpt>
      <trkpt lat="48.56893" lon="2.03048">
        <ele>98.2</ele>
        <time>2026-03-20T16:16:40Z</time>
      </trkpt>
      <trkpt lat="48.56896" lon="2.03041">
        <ele>98.2</ele>
        <time>2026-03-20T16:16:41Z</time>
      </trkpt>
      <trkpt lat="48.56898" lon="2.03035">
        <ele>98.2</ele>
        <time>2026-03-20T16:16:42Z</time>
      </trkpt>
      <trkpt lat="48.56901" lon="2.03028">
        <ele>97.6</ele>
        <time>2026-03-20T16:16:43Z</time>
      </trkpt>
      <trkpt lat="48.56903" lon="2.03021">
        <ele>97.6</ele>
        <time>2026-03-20T16:16:44Z</time>
      </trkpt>
      <trkpt lat="48.56905" lon="2.03015">
        <ele>97.6</ele>
        <time>2026-03-20T16:16:45Z</time>
      </trkpt>
      <trkpt lat="48.56908" lon="2.03008">
        <ele>97.6</ele>
        <time>2026-03-20T16:16:46Z</time>
      </trkpt>
      <trkpt lat="48.5691" lon="2.03002">
        <ele>98.6</ele>
        <time>2026-03-20T16:16:47Z</time>
      </trkpt>
      <trkpt lat="48.56913" lon="2.02996">
        <ele>98.6</ele>
        <time>2026-03-20T16:16:48Z</time>
      </trkpt>
      <trkpt lat="48.56915" lon="2.02989">
        <ele>98.6</ele>
        <time>2026-03-20T16:16:49Z</time>
      </trkpt>
      <trkpt lat="48.56917" lon="2.02983">
        <ele>98.6</ele>
        <time>2026-03-20T16:16:50Z</time>
      </trkpt>
      <trkpt lat="48.56919" lon="2.02977">
        <ele>98.8</ele>
        <time>2026-03-20T16:16:51Z</time>
      </trkpt>
      <trkpt lat="48.56922" lon="2.02971">
        <ele>99.2</ele>
        <time>2026-03-20T16:16:52Z</time>
      </trkpt>
      <trkpt lat="48.56924" lon="2.02965">
        <ele>99.2</ele>
        <time>2026-03-20T16:16:53Z</time>
      </trkpt>
      <trkpt lat="48.56927" lon="2.02959">
        <ele>99.2</ele>
        <time>2026-03-20T16:16:54Z</time>
      </trkpt>
      <trkpt lat="48.5693" lon="2.02953">
        <ele>99.2</ele>
        <time>2026-03-20T16:16:55Z</time>
      </trkpt>
      <trkpt lat="48.56932" lon="2.02947">
        <ele>99.4</ele>
        <time>2026-03-20T16:16:56Z</time>
      </trkpt>
      <trkpt lat="48.56935" lon="2.02941">
        <ele>99.4</ele>
        <time>2026-03-20T16:16:57Z</time>
      </trkpt>
      <trkpt lat="48.56938" lon="2.02935">
        <ele>99.4</ele>
        <time>2026-03-20T16:16:58Z</time>
      </trkpt>
      <trkpt lat="48.56941" lon="2.0293">
        <ele>100.4</ele>
        <time>2026-03-20T16:16:59Z</time>
      </trkpt>
      <trkpt lat="48.56944" lon="2.02924">
        <ele>101</ele>
        <time>2026-03-20T16:17:00Z</time>
      </trkpt>
      <trkpt lat="48.56947" lon="2.02918">
        <ele>101</ele>
        <time>2026-03-20T16:17:01Z</time>
      </trkpt>
      <trkpt lat="48.5695" lon="2.02913">
        <ele>101</ele>
        <time>2026-03-20T16:17:02Z</time>
      </trkpt>
      <trkpt lat="48.56953" lon="2.02908">
        <ele>101</ele>
        <time>2026-03-20T16:17:03Z</time>
      </trkpt>
      <trkpt lat="48.56956" lon="2.02903">
        <ele>101</ele>
        <time>2026-03-20T16:17:04Z</time>
      </trkpt>
      <trkpt lat="48.56959" lon="2.02898">
        <ele>101</ele>
        <time>2026-03-20T16:17:05Z</time>
      </trkpt>
      <trkpt lat="48.56962" lon="2.02893">
        <ele>101</ele>
        <time>2026-03-20T16:17:06Z</time>
      </trkpt>
      <trkpt lat="48.56965" lon="2.02888">
        <ele>101</ele>
        <time>2026-03-20T16:17:07Z</time>
      </trkpt>
      <trkpt lat="48.56969" lon="2.02883">
        <ele>102.2</ele>
        <time>2026-03-20T16:17:08Z</time>
      </trkpt>
      <trkpt lat="48.56972" lon="2.02879">
        <ele>102.2</ele>
        <time>2026-03-20T16:17:09Z</time>
      </trkpt>
      <trkpt lat="48.56975" lon="2.02874">
        <ele>102.2</ele>
        <time>2026-03-20T16:17:10Z</time>
      </trkpt>
      <trkpt lat="48.56978" lon="2.02869">
        <ele>103</ele>
        <time>2026-03-20T16:17:11Z</time>
      </trkpt>
      <trkpt lat="48.56982" lon="2.02865">
        <ele>103</ele>
        <time>2026-03-20T16:17:12Z</time>
      </trkpt>
      <trkpt lat="48.56985" lon="2.0286">
        <ele>103</ele>
        <time>2026-03-20T16:17:13Z</time>
      </trkpt>
      <trkpt lat="48.56989" lon="2.02856">
        <ele>103</ele>
        <time>2026-03-20T16:17:14Z</time>
      </trkpt>
      <trkpt lat="48.56992" lon="2.02851">
        <ele>103.6</ele>
        <time>2026-03-20T16:17:15Z</time>
      </trkpt>
      <trkpt lat="48.56995" lon="2.02847">
        <ele>103.2</ele>
        <time>2026-03-20T16:17:16Z</time>
      </trkpt>
      <trkpt lat="48.56999" lon="2.02842">
        <ele>103.2</ele>
        <time>2026-03-20T16:17:17Z</time>
      </trkpt>
      <trkpt lat="48.57002" lon="2.02838">
        <ele>103.2</ele>
        <time>2026-03-20T16:17:18Z</time>
      </trkpt>
      <trkpt lat="48.57005" lon="2.02833">
        <ele>103.6</ele>
        <time>2026-03-20T16:17:19Z</time>
      </trkpt>
      <trkpt lat="48.57009" lon="2.02829">
        <ele>104</ele>
        <time>2026-03-20T16:17:20Z</time>
      </trkpt>
      <trkpt lat="48.57012" lon="2.02824">
        <ele>104</ele>
        <time>2026-03-20T16:17:21Z</time>
      </trkpt>
      <trkpt lat="48.57015" lon="2.02819">
        <ele>104</ele>
        <time>2026-03-20T16:17:22Z</time>
      </trkpt>
      <trkpt lat="48.57018" lon="2.02815">
        <ele>104</ele>
        <time>2026-03-20T16:17:23Z</time>
      </trkpt>
      <trkpt lat="48.57022" lon="2.02811">
        <ele>103.6</ele>
        <time>2026-03-20T16:17:24Z</time>
      </trkpt>
      <trkpt lat="48.57025" lon="2.02806">
        <ele>103.6</ele>
        <time>2026-03-20T16:17:25Z</time>
      </trkpt>
      <trkpt lat="48.57028" lon="2.02802">
        <ele>103.6</ele>
        <time>2026-03-20T16:17:26Z</time>
      </trkpt>
      <trkpt lat="48.57032" lon="2.02798">
        <ele>103.8</ele>
        <time>2026-03-20T16:17:27Z</time>
      </trkpt>
      <trkpt lat="48.57035" lon="2.02793">
        <ele>104</ele>
        <time>2026-03-20T16:17:28Z</time>
      </trkpt>
      <trkpt lat="48.57038" lon="2.02789">
        <ele>104</ele>
        <time>2026-03-20T16:17:29Z</time>
      </trkpt>
      <trkpt lat="48.57042" lon="2.02784">
        <ele>104</ele>
        <time>2026-03-20T16:17:30Z</time>
      </trkpt>
      <trkpt lat="48.57045" lon="2.0278">
        <ele>104.6</ele>
        <time>2026-03-20T16:17:31Z</time>
      </trkpt>
      <trkpt lat="48.57048" lon="2.02775">
        <ele>104.8</ele>
        <time>2026-03-20T16:17:32Z</time>
      </trkpt>
      <trkpt lat="48.57052" lon="2.02771">
        <ele>104.8</ele>
        <time>2026-03-20T16:17:33Z</time>
      </trkpt>
      <trkpt lat="48.57055" lon="2.02766">
        <ele>104.8</ele>
        <time>2026-03-20T16:17:34Z</time>
      </trkpt>
      <trkpt lat="48.57058" lon="2.02762">
        <ele>104.8</ele>
        <time>2026-03-20T16:17:35Z</time>
      </trkpt>
      <trkpt lat="48.57061" lon="2.02758">
        <ele>105.6</ele>
        <time>2026-03-20T16:17:36Z</time>
      </trkpt>
      <trkpt lat="48.57064" lon="2.02753">
        <ele>105.6</ele>
        <time>2026-03-20T16:17:37Z</time>
      </trkpt>
      <trkpt lat="48.57068" lon="2.02749">
        <ele>105.6</ele>
        <time>2026-03-20T16:17:38Z</time>
      </trkpt>
      <trkpt lat="48.57071" lon="2.02745">
        <ele>106.4</ele>
        <time>2026-03-20T16:17:39Z</time>
      </trkpt>
      <trkpt lat="48.57074" lon="2.02741">
        <ele>106.2</ele>
        <time>2026-03-20T16:17:40Z</time>
      </trkpt>
      <trkpt lat="48.57077" lon="2.02736">
        <ele>106.2</ele>
        <time>2026-03-20T16:17:41Z</time>
      </trkpt>
      <trkpt lat="48.5708" lon="2.02732">
        <ele>106.2</ele>
        <time>2026-03-20T16:17:42Z</time>
      </trkpt>
      <trkpt lat="48.57083" lon="2.02728">
        <ele>106.2</ele>
        <time>2026-03-20T16:17:43Z</time>
      </trkpt>
      <trkpt lat="48.57087" lon="2.02724">
        <ele>106.2</ele>
        <time>2026-03-20T16:17:44Z</time>
      </trkpt>
      <trkpt lat="48.5709" lon="2.0272">
        <ele>106.2</ele>
        <time>2026-03-20T16:17:45Z</time>
      </trkpt>
      <trkpt lat="48.57093" lon="2.02715">
        <ele>106.2</ele>
        <time>2026-03-20T16:17:46Z</time>
      </trkpt>
      <trkpt lat="48.57097" lon="2.02711">
        <ele>106.6</ele>
        <time>2026-03-20T16:17:47Z</time>
      </trkpt>
      <trkpt lat="48.571" lon="2.02706">
        <ele>106.6</ele>
        <time>2026-03-20T16:17:48Z</time>
      </trkpt>
      <trkpt lat="48.57103" lon="2.02702">
        <ele>106.6</ele>
        <time>2026-03-20T16:17:49Z</time>
      </trkpt>
      <trkpt lat="48.57107" lon="2.02697">
        <ele>106.6</ele>
        <time>2026-03-20T16:17:50Z</time>
      </trkpt>
      <trkpt lat="48.5711" lon="2.02693">
        <ele>106.6</ele>
        <time>2026-03-20T16:17:51Z</time>
      </trkpt>
      <trkpt lat="48.57113" lon="2.02688">
        <ele>106.4</ele>
        <time>2026-03-20T16:17:52Z</time>
      </trkpt>
      <trkpt lat="48.57117" lon="2.02684">
        <ele>106.4</ele>
        <time>2026-03-20T16:17:53Z</time>
      </trkpt>
      <trkpt lat="48.5712" lon="2.0268">
        <ele>106.4</ele>
        <time>2026-03-20T16:17:54Z</time>
      </trkpt>
      <trkpt lat="48.57123" lon="2.02675">
        <ele>106.4</ele>
        <time>2026-03-20T16:17:55Z</time>
      </trkpt>
      <trkpt lat="48.57127" lon="2.02671">
        <ele>106.8</ele>
        <time>2026-03-20T16:17:56Z</time>
      </trkpt>
      <trkpt lat="48.5713" lon="2.02666">
        <ele>106.8</ele>
        <time>2026-03-20T16:17:57Z</time>
      </trkpt>
      <trkpt lat="48.57133" lon="2.02662">
        <ele>106.8</ele>
        <time>2026-03-20T16:17:58Z</time>
      </trkpt>
      <trkpt lat="48.57136" lon="2.02657">
        <ele>106.2</ele>
        <time>2026-03-20T16:17:59Z</time>
      </trkpt>
      <trkpt lat="48.5714" lon="2.02653">
        <ele>106.8</ele>
        <time>2026-03-20T16:18:00Z</time>
      </trkpt>
      <trkpt lat="48.57143" lon="2.02649">
        <ele>106.8</ele>
        <time>2026-03-20T16:18:01Z</time>
      </trkpt>
      <trkpt lat="48.57146" lon="2.02644">
        <ele>106.8</ele>
        <time>2026-03-20T16:18:02Z</time>
      </trkpt>
      <trkpt lat="48.57149" lon="2.0264">
        <ele>106.8</ele>
        <time>2026-03-20T16:18:03Z</time>
      </trkpt>
      <trkpt lat="48.57153" lon="2.02635">
        <ele>107</ele>
        <time>2026-03-20T16:18:04Z</time>
      </trkpt>
      <trkpt lat="48.57156" lon="2.02631">
        <ele>107</ele>
        <time>2026-03-20T16:18:05Z</time>
      </trkpt>
      <trkpt lat="48.5716" lon="2.02626">
        <ele>107</ele>
        <time>2026-03-20T16:18:06Z</time>
      </trkpt>
      <trkpt lat="48.57163" lon="2.02621">
        <ele>107</ele>
        <time>2026-03-20T16:18:07Z</time>
      </trkpt>
      <trkpt lat="48.57167" lon="2.02616">
        <ele>107.6</ele>
        <time>2026-03-20T16:18:08Z</time>
      </trkpt>
      <trkpt lat="48.5717" lon="2.02611">
        <ele>107.6</ele>
        <time>2026-03-20T16:18:09Z</time>
      </trkpt>
      <trkpt lat="48.57174" lon="2.02606">
        <ele>107.6</ele>
        <time>2026-03-20T16:18:10Z</time>
      </trkpt>
      <trkpt lat="48.57178" lon="2.02602">
        <ele>106.8</ele>
        <time>2026-03-20T16:18:11Z</time>
      </trkpt>
      <trkpt lat="48.57181" lon="2.02596">
        <ele>107.2</ele>
        <time>2026-03-20T16:18:12Z</time>
      </trkpt>
      <trkpt lat="48.57185" lon="2.02591">
        <ele>107.2</ele>
        <time>2026-03-20T16:18:13Z</time>
      </trkpt>
      <trkpt lat="48.57189" lon="2.02586">
        <ele>107.2</ele>
        <time>2026-03-20T16:18:14Z</time>
      </trkpt>
      <trkpt lat="48.57193" lon="2.02581">
        <ele>106.8</ele>
        <time>2026-03-20T16:18:15Z</time>
      </trkpt>
      <trkpt lat="48.57197" lon="2.02576">
        <ele>106.6</ele>
        <time>2026-03-20T16:18:16Z</time>
      </trkpt>
      <trkpt lat="48.57201" lon="2.0257">
        <ele>106.6</ele>
        <time>2026-03-20T16:18:17Z</time>
      </trkpt>
      <trkpt lat="48.57205" lon="2.02565">
        <ele>106.6</ele>
        <time>2026-03-20T16:18:18Z</time>
      </trkpt>
      <trkpt lat="48.57208" lon="2.02559">
        <ele>107</ele>
        <time>2026-03-20T16:18:19Z</time>
      </trkpt>
      <trkpt lat="48.57212" lon="2.02554">
        <ele>107</ele>
        <time>2026-03-20T16:18:20Z</time>
      </trkpt>
      <trkpt lat="48.57216" lon="2.02548">
        <ele>107</ele>
        <time>2026-03-20T16:18:21Z</time>
      </trkpt>
      <trkpt lat="48.5722" lon="2.02542">
        <ele>107</ele>
        <time>2026-03-20T16:18:22Z</time>
      </trkpt>
      <trkpt lat="48.57223" lon="2.02536">
        <ele>107</ele>
        <time>2026-03-20T16:18:23Z</time>
      </trkpt>
      <trkpt lat="48.57227" lon="2.0253">
        <ele>108</ele>
        <time>2026-03-20T16:18:24Z</time>
      </trkpt>
      <trkpt lat="48.5723" lon="2.02524">
        <ele>108</ele>
        <time>2026-03-20T16:18:25Z</time>
      </trkpt>
      <trkpt lat="48.57233" lon="2.02518">
        <ele>108</ele>
        <time>2026-03-20T16:18:26Z</time>
      </trkpt>
      <trkpt lat="48.57237" lon="2.02512">
        <ele>108</ele>
        <time>2026-03-20T16:18:27Z</time>
      </trkpt>
      <trkpt lat="48.5724" lon="2.02506">
        <ele>107.8</ele>
        <time>2026-03-20T16:18:28Z</time>
      </trkpt>
      <trkpt lat="48.57243" lon="2.025">
        <ele>107.8</ele>
        <time>2026-03-20T16:18:29Z</time>
      </trkpt>
      <trkpt lat="48.57246" lon="2.02493">
        <ele>107.8</ele>
        <time>2026-03-20T16:18:30Z</time>
      </trkpt>
      <trkpt lat="48.57248" lon="2.02487">
        <ele>108.4</ele>
        <time>2026-03-20T16:18:31Z</time>
      </trkpt>
      <trkpt lat="48.57251" lon="2.0248">
        <ele>108.2</ele>
        <time>2026-03-20T16:18:32Z</time>
      </trkpt>
      <trkpt lat="48.57253" lon="2.02474">
        <ele>108.2</ele>
        <time>2026-03-20T16:18:33Z</time>
      </trkpt>
      <trkpt lat="48.57255" lon="2.02468">
        <ele>108.2</ele>
        <time>2026-03-20T16:18:34Z</time>
      </trkpt>
      <trkpt lat="48.57257" lon="2.02463">
        <ele>108.6</ele>
        <time>2026-03-20T16:18:35Z</time>
      </trkpt>
      <trkpt lat="48.57259" lon="2.02457">
        <ele>109.4</ele>
        <time>2026-03-20T16:18:36Z</time>
      </trkpt>
      <trkpt lat="48.57262" lon="2.02451">
        <ele>109.4</ele>
        <time>2026-03-20T16:18:37Z</time>
      </trkpt>
      <trkpt lat="48.57264" lon="2.02446">
        <ele>109.4</ele>
        <time>2026-03-20T16:18:38Z</time>
      </trkpt>
      <trkpt lat="48.57266" lon="2.0244">
        <ele>109.4</ele>
        <time>2026-03-20T16:18:39Z</time>
      </trkpt>
      <trkpt lat="48.57268" lon="2.02435">
        <ele>109.8</ele>
        <time>2026-03-20T16:18:40Z</time>
      </trkpt>
      <trkpt lat="48.5727" lon="2.02429">
        <ele>109.8</ele>
        <time>2026-03-20T16:18:41Z</time>
      </trkpt>
      <trkpt lat="48.57272" lon="2.02424">
        <ele>109.8</ele>
        <time>2026-03-20T16:18:42Z</time>
      </trkpt>
      <trkpt lat="48.57274" lon="2.02418">
        <ele>110</ele>
        <time>2026-03-20T16:18:43Z</time>
      </trkpt>
      <trkpt lat="48.57276" lon="2.02412">
        <ele>110.2</ele>
        <time>2026-03-20T16:18:44Z</time>
      </trkpt>
      <trkpt lat="48.57278" lon="2.02406">
        <ele>110.2</ele>
        <time>2026-03-20T16:18:45Z</time>
      </trkpt>
      <trkpt lat="48.5728" lon="2.024">
        <ele>110.2</ele>
        <time>2026-03-20T16:18:46Z</time>
      </trkpt>
      <trkpt lat="48.57282" lon="2.02395">
        <ele>110.4</ele>
        <time>2026-03-20T16:18:47Z</time>
      </trkpt>
      <trkpt lat="48.57283" lon="2.02389">
        <ele>111.6</ele>
        <time>2026-03-20T16:18:48Z</time>
      </trkpt>
      <trkpt lat="48.57285" lon="2.02383">
        <ele>111.6</ele>
        <time>2026-03-20T16:18:49Z</time>
      </trkpt>
      <trkpt lat="48.57287" lon="2.02377">
        <ele>111.6</ele>
        <time>2026-03-20T16:18:50Z</time>
      </trkpt>
      <trkpt lat="48.57289" lon="2.02371">
        <ele>111.6</ele>
        <time>2026-03-20T16:18:51Z</time>
      </trkpt>
      <trkpt lat="48.57291" lon="2.02365">
        <ele>112</ele>
        <time>2026-03-20T16:18:52Z</time>
      </trkpt>
      <trkpt lat="48.57293" lon="2.02359">
        <ele>112</ele>
        <time>2026-03-20T16:18:53Z</time>
      </trkpt>
      <trkpt lat="48.57295" lon="2.02353">
        <ele>112</ele>
        <time>2026-03-20T16:18:54Z</time>
      </trkpt>
      <trkpt lat="48.57297" lon="2.02347">
        <ele>112</ele>
        <time>2026-03-20T16:18:55Z</time>
      </trkpt>
      <trkpt lat="48.57299" lon="2.0234">
        <ele>112.8</ele>
        <time>2026-03-20T16:18:56Z</time>
      </trkpt>
      <trkpt lat="48.57301" lon="2.02334">
        <ele>112.8</ele>
        <time>2026-03-20T16:18:57Z</time>
      </trkpt>
      <trkpt lat="48.57303" lon="2.02328">
        <ele>112.8</ele>
        <time>2026-03-20T16:18:58Z</time>
      </trkpt>
      <trkpt lat="48.57305" lon="2.02322">
        <ele>112.8</ele>
        <time>2026-03-20T16:18:59Z</time>
      </trkpt>
      <trkpt lat="48.57307" lon="2.02315">
        <ele>113</ele>
        <time>2026-03-20T16:19:00Z</time>
      </trkpt>
      <trkpt lat="48.57308" lon="2.02309">
        <ele>113</ele>
        <time>2026-03-20T16:19:01Z</time>
      </trkpt>
      <trkpt lat="48.5731" lon="2.02303">
        <ele>113</ele>
        <time>2026-03-20T16:19:02Z</time>
      </trkpt>
      <trkpt lat="48.57312" lon="2.02298">
        <ele>113</ele>
        <time>2026-03-20T16:19:03Z</time>
      </trkpt>
      <trkpt lat="48.57314" lon="2.02291">
        <ele>113.8</ele>
        <time>2026-03-20T16:19:04Z</time>
      </trkpt>
      <trkpt lat="48.57315" lon="2.02285">
        <ele>113.8</ele>
        <time>2026-03-20T16:19:05Z</time>
      </trkpt>
      <trkpt lat="48.57317" lon="2.0228">
        <ele>113.8</ele>
        <time>2026-03-20T16:19:06Z</time>
      </trkpt>
      <trkpt lat="48.57319" lon="2.02274">
        <ele>113.8</ele>
        <time>2026-03-20T16:19:07Z</time>
      </trkpt>
      <trkpt lat="48.57321" lon="2.02267">
        <ele>114.6</ele>
        <time>2026-03-20T16:19:08Z</time>
      </trkpt>
      <trkpt lat="48.57322" lon="2.02261">
        <ele>114.6</ele>
        <time>2026-03-20T16:19:09Z</time>
      </trkpt>
      <trkpt lat="48.57324" lon="2.02255">
        <ele>114.6</ele>
        <time>2026-03-20T16:19:10Z</time>
      </trkpt>
      <trkpt lat="48.57326" lon="2.02248">
        <ele>114.6</ele>
        <time>2026-03-20T16:19:11Z</time>
      </trkpt>
      <trkpt lat="48.57328" lon="2.02242">
        <ele>115</ele>
        <time>2026-03-20T16:19:12Z</time>
      </trkpt>
      <trkpt lat="48.57329" lon="2.02235">
        <ele>115</ele>
        <time>2026-03-20T16:19:13Z</time>
      </trkpt>
      <trkpt lat="48.57331" lon="2.02228">
        <ele>115</ele>
        <time>2026-03-20T16:19:14Z</time>
      </trkpt>
      <trkpt lat="48.57333" lon="2.02222">
        <ele>114.8</ele>
        <time>2026-03-20T16:19:15Z</time>
      </trkpt>
      <trkpt lat="48.57334" lon="2.02215">
        <ele>114.8</ele>
        <time>2026-03-20T16:19:16Z</time>
      </trkpt>
      <trkpt lat="48.57336" lon="2.02208">
        <ele>114.8</ele>
        <time>2026-03-20T16:19:17Z</time>
      </trkpt>
      <trkpt lat="48.57338" lon="2.02201">
        <ele>114.8</ele>
        <time>2026-03-20T16:19:18Z</time>
      </trkpt>
      <trkpt lat="48.57339" lon="2.02194">
        <ele>114.8</ele>
        <time>2026-03-20T16:19:19Z</time>
      </trkpt>
      <trkpt lat="48.57341" lon="2.02188">
        <ele>115.6</ele>
        <time>2026-03-20T16:19:20Z</time>
      </trkpt>
      <trkpt lat="48.57342" lon="2.02181">
        <ele>115.6</ele>
        <time>2026-03-20T16:19:21Z</time>
      </trkpt>
      <trkpt lat="48.57344" lon="2.02174">
        <ele>115.6</ele>
        <time>2026-03-20T16:19:22Z</time>
      </trkpt>
      <trkpt lat="48.57346" lon="2.02167">
        <ele>115.8</ele>
        <time>2026-03-20T16:19:23Z</time>
      </trkpt>
      <trkpt lat="48.57347" lon="2.0216">
        <ele>115.4</ele>
        <time>2026-03-20T16:19:24Z</time>
      </trkpt>
      <trkpt lat="48.57349" lon="2.02153">
        <ele>115.4</ele>
        <time>2026-03-20T16:19:25Z</time>
      </trkpt>
      <trkpt lat="48.5735" lon="2.02146">
        <ele>115.4</ele>
        <time>2026-03-20T16:19:26Z</time>
      </trkpt>
      <trkpt lat="48.57351" lon="2.02139">
        <ele>115.4</ele>
        <time>2026-03-20T16:19:27Z</time>
      </trkpt>
      <trkpt lat="48.57353" lon="2.02132">
        <ele>115.6</ele>
        <time>2026-03-20T16:19:28Z</time>
      </trkpt>
      <trkpt lat="48.57354" lon="2.02125">
        <ele>115.6</ele>
        <time>2026-03-20T16:19:29Z</time>
      </trkpt>
      <trkpt lat="48.57355" lon="2.02118">
        <ele>115.6</ele>
        <time>2026-03-20T16:19:30Z</time>
      </trkpt>
      <trkpt lat="48.57357" lon="2.0211">
        <ele>115</ele>
        <time>2026-03-20T16:19:31Z</time>
      </trkpt>
      <trkpt lat="48.57358" lon="2.02103">
        <ele>114.8</ele>
        <time>2026-03-20T16:19:32Z</time>
      </trkpt>
      <trkpt lat="48.5736" lon="2.02095">
        <ele>114.8</ele>
        <time>2026-03-20T16:19:33Z</time>
      </trkpt>
      <trkpt lat="48.57361" lon="2.02087">
        <ele>114.8</ele>
        <time>2026-03-20T16:19:34Z</time>
      </trkpt>
      <trkpt lat="48.57363" lon="2.0208">
        <ele>114.8</ele>
        <time>2026-03-20T16:19:35Z</time>
      </trkpt>
      <trkpt lat="48.57364" lon="2.02072">
        <ele>115.2</ele>
        <time>2026-03-20T16:19:36Z</time>
      </trkpt>
      <trkpt lat="48.57365" lon="2.02064">
        <ele>115.2</ele>
        <time>2026-03-20T16:19:37Z</time>
      </trkpt>
      <trkpt lat="48.57367" lon="2.02056">
        <ele>115.2</ele>
        <time>2026-03-20T16:19:38Z</time>
      </trkpt>
      <trkpt lat="48.57368" lon="2.02047">
        <ele>114.4</ele>
        <time>2026-03-20T16:19:39Z</time>
      </trkpt>
      <trkpt lat="48.5737" lon="2.02039">
        <ele>114.6</ele>
        <time>2026-03-20T16:19:40Z</time>
      </trkpt>
      <trkpt lat="48.57371" lon="2.02031">
        <ele>114.6</ele>
        <time>2026-03-20T16:19:41Z</time>
      </trkpt>
      <trkpt lat="48.57373" lon="2.02022">
        <ele>114.6</ele>
        <time>2026-03-20T16:19:42Z</time>
      </trkpt>
      <trkpt lat="48.57374" lon="2.02014">
        <ele>114.4</ele>
        <time>2026-03-20T16:19:43Z</time>
      </trkpt>
      <trkpt lat="48.57376" lon="2.02005">
        <ele>114.4</ele>
        <time>2026-03-20T16:19:44Z</time>
      </trkpt>
      <trkpt lat="48.57377" lon="2.01996">
        <ele>114.4</ele>
        <time>2026-03-20T16:19:45Z</time>
      </trkpt>
      <trkpt lat="48.57379" lon="2.01988">
        <ele>114.4</ele>
        <time>2026-03-20T16:19:46Z</time>
      </trkpt>
      <trkpt lat="48.5738" lon="2.01979">
        <ele>113.8</ele>
        <time>2026-03-20T16:19:47Z</time>
      </trkpt>
      <trkpt lat="48.57382" lon="2.0197">
        <ele>113.6</ele>
        <time>2026-03-20T16:19:48Z</time>
      </trkpt>
      <trkpt lat="48.57384" lon="2.01962">
        <ele>113.6</ele>
        <time>2026-03-20T16:19:49Z</time>
      </trkpt>
      <trkpt lat="48.57385" lon="2.01952">
        <ele>113.6</ele>
        <time>2026-03-20T16:19:50Z</time>
      </trkpt>
      <trkpt lat="48.57387" lon="2.01943">
        <ele>113.6</ele>
        <time>2026-03-20T16:19:51Z</time>
      </trkpt>
      <trkpt lat="48.57388" lon="2.01934">
        <ele>112.8</ele>
        <time>2026-03-20T16:19:52Z</time>
      </trkpt>
      <trkpt lat="48.5739" lon="2.01925">
        <ele>112.8</ele>
        <time>2026-03-20T16:19:53Z</time>
      </trkpt>
      <trkpt lat="48.57392" lon="2.01916">
        <ele>112.8</ele>
        <time>2026-03-20T16:19:54Z</time>
      </trkpt>
      <trkpt lat="48.57393" lon="2.01906">
        <ele>112.8</ele>
        <time>2026-03-20T16:19:55Z</time>
      </trkpt>
      <trkpt lat="48.57395" lon="2.01897">
        <ele>112.8</ele>
        <time>2026-03-20T16:19:56Z</time>
      </trkpt>
      <trkpt lat="48.57396" lon="2.01887">
        <ele>112.8</ele>
        <time>2026-03-20T16:19:57Z</time>
      </trkpt>
      <trkpt lat="48.57398" lon="2.01878">
        <ele>112.8</ele>
        <time>2026-03-20T16:19:58Z</time>
      </trkpt>
      <trkpt lat="48.574" lon="2.01869">
        <ele>112.4</ele>
        <time>2026-03-20T16:19:59Z</time>
      </trkpt>
      <trkpt lat="48.57402" lon="2.0186">
        <ele>112.6</ele>
        <time>2026-03-20T16:20:00Z</time>
      </trkpt>
      <trkpt lat="48.57403" lon="2.0185">
        <ele>112.6</ele>
        <time>2026-03-20T16:20:01Z</time>
      </trkpt>
      <trkpt lat="48.57405" lon="2.01841">
        <ele>112.6</ele>
        <time>2026-03-20T16:20:02Z</time>
      </trkpt>
      <trkpt lat="48.57406" lon="2.01832">
        <ele>112.6</ele>
        <time>2026-03-20T16:20:03Z</time>
      </trkpt>
      <trkpt lat="48.57408" lon="2.01823">
        <ele>112.6</ele>
        <time>2026-03-20T16:20:04Z</time>
      </trkpt>
      <trkpt lat="48.57409" lon="2.01813">
        <ele>112.6</ele>
        <time>2026-03-20T16:20:05Z</time>
      </trkpt>
      <trkpt lat="48.5741" lon="2.01804">
        <ele>112.6</ele>
        <time>2026-03-20T16:20:06Z</time>
      </trkpt>
      <trkpt lat="48.57412" lon="2.01795">
        <ele>112.6</ele>
        <time>2026-03-20T16:20:07Z</time>
      </trkpt>
      <trkpt lat="48.57414" lon="2.01786">
        <ele>112.4</ele>
        <time>2026-03-20T16:20:08Z</time>
      </trkpt>
      <trkpt lat="48.57415" lon="2.01777">
        <ele>112.4</ele>
        <time>2026-03-20T16:20:09Z</time>
      </trkpt>
      <trkpt lat="48.57417" lon="2.01768">
        <ele>112.4</ele>
        <time>2026-03-20T16:20:10Z</time>
      </trkpt>
      <trkpt lat="48.57419" lon="2.01759">
        <ele>112.4</ele>
        <time>2026-03-20T16:20:11Z</time>
      </trkpt>
      <trkpt lat="48.5742" lon="2.01749">
        <ele>111.8</ele>
        <time>2026-03-20T16:20:12Z</time>
      </trkpt>
      <trkpt lat="48.57422" lon="2.0174">
        <ele>111.8</ele>
        <time>2026-03-20T16:20:13Z</time>
      </trkpt>
      <trkpt lat="48.57424" lon="2.01731">
        <ele>111.8</ele>
        <time>2026-03-20T16:20:14Z</time>
      </trkpt>
      <trkpt lat="48.57425" lon="2.01721">
        <ele>111.8</ele>
        <time>2026-03-20T16:20:15Z</time>
      </trkpt>
      <trkpt lat="48.57427" lon="2.01712">
        <ele>111.6</ele>
        <time>2026-03-20T16:20:16Z</time>
      </trkpt>
      <trkpt lat="48.57428" lon="2.01702">
        <ele>111.6</ele>
        <time>2026-03-20T16:20:17Z</time>
      </trkpt>
      <trkpt lat="48.5743" lon="2.01693">
        <ele>111.6</ele>
        <time>2026-03-20T16:20:18Z</time>
      </trkpt>
      <trkpt lat="48.57432" lon="2.01683">
        <ele>111.6</ele>
        <time>2026-03-20T16:20:19Z</time>
      </trkpt>
      <trkpt lat="48.57433" lon="2.01673">
        <ele>110.8</ele>
        <time>2026-03-20T16:20:20Z</time>
      </trkpt>
      <trkpt lat="48.57435" lon="2.01664">
        <ele>110.8</ele>
        <time>2026-03-20T16:20:21Z</time>
      </trkpt>
      <trkpt lat="48.57437" lon="2.01654">
        <ele>110.8</ele>
        <time>2026-03-20T16:20:22Z</time>
      </trkpt>
      <trkpt lat="48.57438" lon="2.01644">
        <ele>110.8</ele>
        <time>2026-03-20T16:20:23Z</time>
      </trkpt>
      <trkpt lat="48.5744" lon="2.01634">
        <ele>111.4</ele>
        <time>2026-03-20T16:20:24Z</time>
      </trkpt>
      <trkpt lat="48.57442" lon="2.01624">
        <ele>111.4</ele>
        <time>2026-03-20T16:20:25Z</time>
      </trkpt>
      <trkpt lat="48.57443" lon="2.01614">
        <ele>111.4</ele>
        <time>2026-03-20T16:20:26Z</time>
      </trkpt>
      <trkpt lat="48.57445" lon="2.01604">
        <ele>111</ele>
        <time>2026-03-20T16:20:27Z</time>
      </trkpt>
      <trkpt lat="48.57447" lon="2.01595">
        <ele>111.6</ele>
        <time>2026-03-20T16:20:28Z</time>
      </trkpt>
      <trkpt lat="48.57448" lon="2.01586">
        <ele>111.6</ele>
        <time>2026-03-20T16:20:29Z</time>
      </trkpt>
      <trkpt lat="48.5745" lon="2.01576">
        <ele>111.6</ele>
        <time>2026-03-20T16:20:30Z</time>
      </trkpt>
      <trkpt lat="48.57451" lon="2.01567">
        <ele>111.2</ele>
        <time>2026-03-20T16:20:31Z</time>
      </trkpt>
      <trkpt lat="48.57453" lon="2.01558">
        <ele>111.4</ele>
        <time>2026-03-20T16:20:32Z</time>
      </trkpt>
      <trkpt lat="48.57455" lon="2.01549">
        <ele>111.4</ele>
        <time>2026-03-20T16:20:33Z</time>
      </trkpt>
      <trkpt lat="48.57456" lon="2.0154">
        <ele>111.4</ele>
        <time>2026-03-20T16:20:34Z</time>
      </trkpt>
      <trkpt lat="48.57458" lon="2.01531">
        <ele>111.4</ele>
        <time>2026-03-20T16:20:35Z</time>
      </trkpt>
      <trkpt lat="48.57459" lon="2.01522">
        <ele>111.8</ele>
        <time>2026-03-20T16:20:36Z</time>
      </trkpt>
      <trkpt lat="48.57461" lon="2.01513">
        <ele>111.8</ele>
        <time>2026-03-20T16:20:37Z</time>
      </trkpt>
      <trkpt lat="48.57462" lon="2.01504">
        <ele>111.8</ele>
        <time>2026-03-20T16:20:38Z</time>
      </trkpt>
      <trkpt lat="48.57464" lon="2.01495">
        <ele>111.8</ele>
        <time>2026-03-20T16:20:39Z</time>
      </trkpt>
      <trkpt lat="48.57465" lon="2.01486">
        <ele>111.6</ele>
        <time>2026-03-20T16:20:40Z</time>
      </trkpt>
      <trkpt lat="48.57467" lon="2.01477">
        <ele>111.6</ele>
        <time>2026-03-20T16:20:41Z</time>
      </trkpt>
      <trkpt lat="48.57468" lon="2.01468">
        <ele>111.6</ele>
        <time>2026-03-20T16:20:42Z</time>
      </trkpt>
      <trkpt lat="48.5747" lon="2.0146">
        <ele>112.2</ele>
        <time>2026-03-20T16:20:43Z</time>
      </trkpt>
      <trkpt lat="48.57471" lon="2.01451">
        <ele>112</ele>
        <time>2026-03-20T16:20:44Z</time>
      </trkpt>
      <trkpt lat="48.57473" lon="2.01443">
        <ele>112</ele>
        <time>2026-03-20T16:20:45Z</time>
      </trkpt>
      <trkpt lat="48.57474" lon="2.01434">
        <ele>112</ele>
        <time>2026-03-20T16:20:46Z</time>
      </trkpt>
      <trkpt lat="48.57476" lon="2.01426">
        <ele>112.2</ele>
        <time>2026-03-20T16:20:47Z</time>
      </trkpt>
      <trkpt lat="48.57477" lon="2.01418">
        <ele>112.2</ele>
        <time>2026-03-20T16:20:48Z</time>
      </trkpt>
      <trkpt lat="48.57478" lon="2.0141">
        <ele>112.2</ele>
        <time>2026-03-20T16:20:49Z</time>
      </trkpt>
      <trkpt lat="48.5748" lon="2.01401">
        <ele>112.2</ele>
        <time>2026-03-20T16:20:50Z</time>
      </trkpt>
      <trkpt lat="48.57481" lon="2.01393">
        <ele>112.2</ele>
        <time>2026-03-20T16:20:51Z</time>
      </trkpt>
      <trkpt lat="48.57483" lon="2.01384">
        <ele>112.6</ele>
        <time>2026-03-20T16:20:52Z</time>
      </trkpt>
      <trkpt lat="48.57484" lon="2.01375">
        <ele>112.6</ele>
        <time>2026-03-20T16:20:53Z</time>
      </trkpt>
      <trkpt lat="48.57486" lon="2.01366">
        <ele>112.6</ele>
        <time>2026-03-20T16:20:54Z</time>
      </trkpt>
      <trkpt lat="48.57487" lon="2.01358">
        <ele>112.6</ele>
        <time>2026-03-20T16:20:55Z</time>
      </trkpt>
      <trkpt lat="48.57488" lon="2.01349">
        <ele>114</ele>
        <time>2026-03-20T16:20:56Z</time>
      </trkpt>
      <trkpt lat="48.5749" lon="2.0134">
        <ele>114</ele>
        <time>2026-03-20T16:20:57Z</time>
      </trkpt>
      <trkpt lat="48.57491" lon="2.01331">
        <ele>114</ele>
        <time>2026-03-20T16:20:58Z</time>
      </trkpt>
      <trkpt lat="48.57493" lon="2.01322">
        <ele>114</ele>
        <time>2026-03-20T16:20:59Z</time>
      </trkpt>
      <trkpt lat="48.57494" lon="2.01312">
        <ele>112.8</ele>
        <time>2026-03-20T16:21:00Z</time>
      </trkpt>
      <trkpt lat="48.57496" lon="2.01303">
        <ele>112.8</ele>
        <time>2026-03-20T16:21:01Z</time>
      </trkpt>
      <trkpt lat="48.57497" lon="2.01294">
        <ele>112.8</ele>
        <time>2026-03-20T16:21:02Z</time>
      </trkpt>
      <trkpt lat="48.57498" lon="2.01284">
        <ele>112.8</ele>
        <time>2026-03-20T16:21:03Z</time>
      </trkpt>
      <trkpt lat="48.575" lon="2.01274">
        <ele>112.2</ele>
        <time>2026-03-20T16:21:04Z</time>
      </trkpt>
      <trkpt lat="48.57501" lon="2.01264">
        <ele>112.2</ele>
        <time>2026-03-20T16:21:05Z</time>
      </trkpt>
      <trkpt lat="48.57502" lon="2.01254">
        <ele>112.2</ele>
        <time>2026-03-20T16:21:06Z</time>
      </trkpt>
      <trkpt lat="48.57503" lon="2.01244">
        <ele>113.2</ele>
        <time>2026-03-20T16:21:07Z</time>
      </trkpt>
      <trkpt lat="48.57504" lon="2.01234">
        <ele>112.8</ele>
        <time>2026-03-20T16:21:08Z</time>
      </trkpt>
      <trkpt lat="48.57505" lon="2.01224">
        <ele>112.8</ele>
        <time>2026-03-20T16:21:09Z</time>
      </trkpt>
      <trkpt lat="48.57506" lon="2.01214">
        <ele>112.8</ele>
        <time>2026-03-20T16:21:10Z</time>
      </trkpt>
      <trkpt lat="48.57508" lon="2.01204">
        <ele>112.8</ele>
        <time>2026-03-20T16:21:11Z</time>
      </trkpt>
      <trkpt lat="48.57509" lon="2.01194">
        <ele>111.8</ele>
        <time>2026-03-20T16:21:12Z</time>
      </trkpt>
      <trkpt lat="48.5751" lon="2.01183">
        <ele>111.8</ele>
        <time>2026-03-20T16:21:13Z</time>
      </trkpt>
      <trkpt lat="48.57512" lon="2.01172">
        <ele>111.8</ele>
        <time>2026-03-20T16:21:14Z</time>
      </trkpt>
      <trkpt lat="48.57513" lon="2.01162">
        <ele>111.8</ele>
        <time>2026-03-20T16:21:15Z</time>
      </trkpt>
      <trkpt lat="48.57514" lon="2.01151">
        <ele>111.2</ele>
        <time>2026-03-20T16:21:16Z</time>
      </trkpt>
      <trkpt lat="48.57516" lon="2.01141">
        <ele>111.2</ele>
        <time>2026-03-20T16:21:17Z</time>
      </trkpt>
      <trkpt lat="48.57517" lon="2.0113">
        <ele>111.2</ele>
        <time>2026-03-20T16:21:18Z</time>
      </trkpt>
      <trkpt lat="48.57518" lon="2.0112">
        <ele>111.2</ele>
        <time>2026-03-20T16:21:19Z</time>
      </trkpt>
      <trkpt lat="48.57519" lon="2.0111">
        <ele>113.2</ele>
        <time>2026-03-20T16:21:20Z</time>
      </trkpt>
      <trkpt lat="48.5752" lon="2.011">
        <ele>113.2</ele>
        <time>2026-03-20T16:21:21Z</time>
      </trkpt>
      <trkpt lat="48.57522" lon="2.0109">
        <ele>113.2</ele>
        <time>2026-03-20T16:21:22Z</time>
      </trkpt>
      <trkpt lat="48.57523" lon="2.0108">
        <ele>112.6</ele>
        <time>2026-03-20T16:21:23Z</time>
      </trkpt>
      <trkpt lat="48.57525" lon="2.0107">
        <ele>112.6</ele>
        <time>2026-03-20T16:21:24Z</time>
      </trkpt>
      <trkpt lat="48.57526" lon="2.01061">
        <ele>112.6</ele>
        <time>2026-03-20T16:21:25Z</time>
      </trkpt>
      <trkpt lat="48.57527" lon="2.01052">
        <ele>112.6</ele>
        <time>2026-03-20T16:21:26Z</time>
      </trkpt>
      <trkpt lat="48.57529" lon="2.01043">
        <ele>112.8</ele>
        <time>2026-03-20T16:21:27Z</time>
      </trkpt>
      <trkpt lat="48.5753" lon="2.01034">
        <ele>112.8</ele>
        <time>2026-03-20T16:21:28Z</time>
      </trkpt>
      <trkpt lat="48.57531" lon="2.01025">
        <ele>112.8</ele>
        <time>2026-03-20T16:21:29Z</time>
      </trkpt>
      <trkpt lat="48.57533" lon="2.01016">
        <ele>112.8</ele>
        <time>2026-03-20T16:21:30Z</time>
      </trkpt>
      <trkpt lat="48.57534" lon="2.01006">
        <ele>112</ele>
        <time>2026-03-20T16:21:31Z</time>
      </trkpt>
      <trkpt lat="48.57536" lon="2.00997">
        <ele>112.2</ele>
        <time>2026-03-20T16:21:32Z</time>
      </trkpt>
      <trkpt lat="48.57537" lon="2.00987">
        <ele>112.2</ele>
        <time>2026-03-20T16:21:33Z</time>
      </trkpt>
      <trkpt lat="48.57538" lon="2.00977">
        <ele>112.2</ele>
        <time>2026-03-20T16:21:34Z</time>
      </trkpt>
      <trkpt lat="48.5754" lon="2.00968">
        <ele>112.2</ele>
        <time>2026-03-20T16:21:35Z</time>
      </trkpt>
      <trkpt lat="48.57541" lon="2.00958">
        <ele>111.6</ele>
        <time>2026-03-20T16:21:36Z</time>
      </trkpt>
      <trkpt lat="48.57541" lon="2.00948">
        <ele>111.6</ele>
        <time>2026-03-20T16:21:37Z</time>
      </trkpt>
      <trkpt lat="48.57542" lon="2.00938">
        <ele>111.6</ele>
        <time>2026-03-20T16:21:38Z</time>
      </trkpt>
      <trkpt lat="48.57542" lon="2.00928">
        <ele>111.6</ele>
        <time>2026-03-20T16:21:39Z</time>
      </trkpt>
      <trkpt lat="48.57542" lon="2.00918">
        <ele>112</ele>
        <time>2026-03-20T16:21:40Z</time>
      </trkpt>
      <trkpt lat="48.57542" lon="2.00907">
        <ele>112</ele>
        <time>2026-03-20T16:21:41Z</time>
      </trkpt>
      <trkpt lat="48.57542" lon="2.00897">
        <ele>112</ele>
        <time>2026-03-20T16:21:42Z</time>
      </trkpt>
      <trkpt lat="48.57542" lon="2.00886">
        <ele>112</ele>
        <time>2026-03-20T16:21:43Z</time>
      </trkpt>
      <trkpt lat="48.57541" lon="2.00875">
        <ele>110.6</ele>
        <time>2026-03-20T16:21:44Z</time>
      </trkpt>
      <trkpt lat="48.5754" lon="2.00865">
        <ele>110.6</ele>
        <time>2026-03-20T16:21:45Z</time>
      </trkpt>
      <trkpt lat="48.57539" lon="2.00855">
        <ele>110.6</ele>
        <time>2026-03-20T16:21:46Z</time>
      </trkpt>
      <trkpt lat="48.57538" lon="2.00844">
        <ele>111</ele>
        <time>2026-03-20T16:21:47Z</time>
      </trkpt>
      <trkpt lat="48.57536" lon="2.00834">
        <ele>111</ele>
        <time>2026-03-20T16:21:48Z</time>
      </trkpt>
      <trkpt lat="48.57534" lon="2.00823">
        <ele>111</ele>
        <time>2026-03-20T16:21:49Z</time>
      </trkpt>
      <trkpt lat="48.57532" lon="2.00813">
        <ele>111</ele>
        <time>2026-03-20T16:21:50Z</time>
      </trkpt>
      <trkpt lat="48.5753" lon="2.00803">
        <ele>111</ele>
        <time>2026-03-20T16:21:51Z</time>
      </trkpt>
      <trkpt lat="48.57527" lon="2.00793">
        <ele>111.6</ele>
        <time>2026-03-20T16:21:52Z</time>
      </trkpt>
      <trkpt lat="48.57524" lon="2.00783">
        <ele>111.6</ele>
        <time>2026-03-20T16:21:53Z</time>
      </trkpt>
      <trkpt lat="48.57521" lon="2.00773">
        <ele>111.6</ele>
        <time>2026-03-20T16:21:54Z</time>
      </trkpt>
      <trkpt lat="48.57518" lon="2.00763">
        <ele>112.4</ele>
        <time>2026-03-20T16:21:55Z</time>
      </trkpt>
      <trkpt lat="48.57515" lon="2.00754">
        <ele>112.4</ele>
        <time>2026-03-20T16:21:56Z</time>
      </trkpt>
      <trkpt lat="48.57511" lon="2.00744">
        <ele>112.4</ele>
        <time>2026-03-20T16:21:57Z</time>
      </trkpt>
      <trkpt lat="48.57508" lon="2.00735">
        <ele>112.4</ele>
        <time>2026-03-20T16:21:58Z</time>
      </trkpt>
      <trkpt lat="48.57505" lon="2.00726">
        <ele>111.4</ele>
        <time>2026-03-20T16:21:59Z</time>
      </trkpt>
      <trkpt lat="48.57502" lon="2.00717">
        <ele>111.6</ele>
        <time>2026-03-20T16:22:00Z</time>
      </trkpt>
      <trkpt lat="48.57498" lon="2.00708">
        <ele>111.6</ele>
        <time>2026-03-20T16:22:01Z</time>
      </trkpt>
      <trkpt lat="48.57495" lon="2.007">
        <ele>111.6</ele>
        <time>2026-03-20T16:22:02Z</time>
      </trkpt>
      <trkpt lat="48.57492" lon="2.00692">
        <ele>112.6</ele>
        <time>2026-03-20T16:22:03Z</time>
      </trkpt>
      <trkpt lat="48.57488" lon="2.00684">
        <ele>113</ele>
        <time>2026-03-20T16:22:04Z</time>
      </trkpt>
      <trkpt lat="48.57485" lon="2.00675">
        <ele>113</ele>
        <time>2026-03-20T16:22:05Z</time>
      </trkpt>
      <trkpt lat="48.57482" lon="2.00667">
        <ele>113</ele>
        <time>2026-03-20T16:22:06Z</time>
      </trkpt>
      <trkpt lat="48.57479" lon="2.00658">
        <ele>113</ele>
        <time>2026-03-20T16:22:07Z</time>
      </trkpt>
      <trkpt lat="48.57476" lon="2.0065">
        <ele>113.6</ele>
        <time>2026-03-20T16:22:08Z</time>
      </trkpt>
      <trkpt lat="48.57472" lon="2.00642">
        <ele>113.6</ele>
        <time>2026-03-20T16:22:09Z</time>
      </trkpt>
      <trkpt lat="48.5747" lon="2.00634">
        <ele>113.6</ele>
        <time>2026-03-20T16:22:10Z</time>
      </trkpt>
      <trkpt lat="48.57467" lon="2.00626">
        <ele>113.6</ele>
        <time>2026-03-20T16:22:11Z</time>
      </trkpt>
      <trkpt lat="48.57464" lon="2.00618">
        <ele>113.2</ele>
        <time>2026-03-20T16:22:12Z</time>
      </trkpt>
      <trkpt lat="48.57461" lon="2.0061">
        <ele>113.2</ele>
        <time>2026-03-20T16:22:13Z</time>
      </trkpt>
      <trkpt lat="48.57458" lon="2.00601">
        <ele>113.2</ele>
        <time>2026-03-20T16:22:14Z</time>
      </trkpt>
      <trkpt lat="48.57456" lon="2.00593">
        <ele>113.2</ele>
        <time>2026-03-20T16:22:15Z</time>
      </trkpt>
      <trkpt lat="48.57453" lon="2.00585">
        <ele>113.6</ele>
        <time>2026-03-20T16:22:16Z</time>
      </trkpt>
      <trkpt lat="48.57451" lon="2.00577">
        <ele>113.6</ele>
        <time>2026-03-20T16:22:17Z</time>
      </trkpt>
      <trkpt lat="48.57449" lon="2.00568">
        <ele>113.6</ele>
        <time>2026-03-20T16:22:18Z</time>
      </trkpt>
      <trkpt lat="48.57447" lon="2.0056">
        <ele>114.4</ele>
        <time>2026-03-20T16:22:19Z</time>
      </trkpt>
      <trkpt lat="48.57445" lon="2.00552">
        <ele>114.8</ele>
        <time>2026-03-20T16:22:20Z</time>
      </trkpt>
      <trkpt lat="48.57443" lon="2.00543">
        <ele>114.8</ele>
        <time>2026-03-20T16:22:21Z</time>
      </trkpt>
      <trkpt lat="48.57441" lon="2.00535">
        <ele>114.8</ele>
        <time>2026-03-20T16:22:22Z</time>
      </trkpt>
      <trkpt lat="48.5744" lon="2.00526">
        <ele>114.2</ele>
        <time>2026-03-20T16:22:23Z</time>
      </trkpt>
      <trkpt lat="48.57439" lon="2.00518">
        <ele>113.8</ele>
        <time>2026-03-20T16:22:24Z</time>
      </trkpt>
      <trkpt lat="48.57438" lon="2.00509">
        <ele>113.8</ele>
        <time>2026-03-20T16:22:25Z</time>
      </trkpt>
      <trkpt lat="48.57437" lon="2.00501">
        <ele>113.8</ele>
        <time>2026-03-20T16:22:26Z</time>
      </trkpt>
      <trkpt lat="48.57437" lon="2.00492">
        <ele>113.8</ele>
        <time>2026-03-20T16:22:27Z</time>
      </trkpt>
      <trkpt lat="48.57436" lon="2.00484">
        <ele>114.6</ele>
        <time>2026-03-20T16:22:28Z</time>
      </trkpt>
      <trkpt lat="48.57436" lon="2.00476">
        <ele>114.6</ele>
        <time>2026-03-20T16:22:29Z</time>
      </trkpt>
      <trkpt lat="48.57436" lon="2.00467">
        <ele>114.6</ele>
        <time>2026-03-20T16:22:30Z</time>
      </trkpt>
      <trkpt lat="48.57436" lon="2.00459">
        <ele>114.6</ele>
        <time>2026-03-20T16:22:31Z</time>
      </trkpt>
      <trkpt lat="48.57436" lon="2.0045">
        <ele>114.6</ele>
        <time>2026-03-20T16:22:32Z</time>
      </trkpt>
      <trkpt lat="48.57436" lon="2.00442">
        <ele>114.6</ele>
        <time>2026-03-20T16:22:33Z</time>
      </trkpt>
      <trkpt lat="48.57437" lon="2.00433">
        <ele>114.6</ele>
        <time>2026-03-20T16:22:34Z</time>
      </trkpt>
      <trkpt lat="48.57438" lon="2.00425">
        <ele>114.6</ele>
        <time>2026-03-20T16:22:35Z</time>
      </trkpt>
      <trkpt lat="48.57439" lon="2.00417">
        <ele>114.8</ele>
        <time>2026-03-20T16:22:36Z</time>
      </trkpt>
      <trkpt lat="48.5744" lon="2.00408">
        <ele>114.8</ele>
        <time>2026-03-20T16:22:37Z</time>
      </trkpt>
      <trkpt lat="48.57441" lon="2.004">
        <ele>114.8</ele>
        <time>2026-03-20T16:22:38Z</time>
      </trkpt>
      <trkpt lat="48.57442" lon="2.00392">
        <ele>115.4</ele>
        <time>2026-03-20T16:22:39Z</time>
      </trkpt>
      <trkpt lat="48.57444" lon="2.00384">
        <ele>115.8</ele>
        <time>2026-03-20T16:22:40Z</time>
      </trkpt>
      <trkpt lat="48.57445" lon="2.00376">
        <ele>115.8</ele>
        <time>2026-03-20T16:22:41Z</time>
      </trkpt>
      <trkpt lat="48.57447" lon="2.00367">
        <ele>115.8</ele>
        <time>2026-03-20T16:22:42Z</time>
      </trkpt>
      <trkpt lat="48.57449" lon="2.00359">
        <ele>115.8</ele>
        <time>2026-03-20T16:22:43Z</time>
      </trkpt>
      <trkpt lat="48.5745" lon="2.00351">
        <ele>115.8</ele>
        <time>2026-03-20T16:22:44Z</time>
      </trkpt>
      <trkpt lat="48.57452" lon="2.00343">
        <ele>115.8</ele>
        <time>2026-03-20T16:22:45Z</time>
      </trkpt>
      <trkpt lat="48.57454" lon="2.00335">
        <ele>115.8</ele>
        <time>2026-03-20T16:22:46Z</time>
      </trkpt>
      <trkpt lat="48.57456" lon="2.00327">
        <ele>115.8</ele>
        <time>2026-03-20T16:22:47Z</time>
      </trkpt>
      <trkpt lat="48.57458" lon="2.00319">
        <ele>116.2</ele>
        <time>2026-03-20T16:22:48Z</time>
      </trkpt>
      <trkpt lat="48.57459" lon="2.00311">
        <ele>116.2</ele>
        <time>2026-03-20T16:22:49Z</time>
      </trkpt>
      <trkpt lat="48.57461" lon="2.00303">
        <ele>116.2</ele>
        <time>2026-03-20T16:22:50Z</time>
      </trkpt>
      <trkpt lat="48.57463" lon="2.00296">
        <ele>117.2</ele>
        <time>2026-03-20T16:22:51Z</time>
      </trkpt>
      <trkpt lat="48.57465" lon="2.00288">
        <ele>117</ele>
        <time>2026-03-20T16:22:52Z</time>
      </trkpt>
      <trkpt lat="48.57466" lon="2.0028">
        <ele>117</ele>
        <time>2026-03-20T16:22:53Z</time>
      </trkpt>
      <trkpt lat="48.57468" lon="2.00272">
        <ele>117</ele>
        <time>2026-03-20T16:22:54Z</time>
      </trkpt>
      <trkpt lat="48.5747" lon="2.00264">
        <ele>117.8</ele>
        <time>2026-03-20T16:22:55Z</time>
      </trkpt>
      <trkpt lat="48.57472" lon="2.00256">
        <ele>117.6</ele>
        <time>2026-03-20T16:22:56Z</time>
      </trkpt>
      <trkpt lat="48.57474" lon="2.00248">
        <ele>117.6</ele>
        <time>2026-03-20T16:22:57Z</time>
      </trkpt>
      <trkpt lat="48.57475" lon="2.0024">
        <ele>117.6</ele>
        <time>2026-03-20T16:22:58Z</time>
      </trkpt>
      <trkpt lat="48.57477" lon="2.00232">
        <ele>117.6</ele>
        <time>2026-03-20T16:22:59Z</time>
      </trkpt>
      <trkpt lat="48.57479" lon="2.00223">
        <ele>116.8</ele>
        <time>2026-03-20T16:23:00Z</time>
      </trkpt>
      <trkpt lat="48.57481" lon="2.00215">
        <ele>116.8</ele>
        <time>2026-03-20T16:23:01Z</time>
      </trkpt>
      <trkpt lat="48.57483" lon="2.00207">
        <ele>116.8</ele>
        <time>2026-03-20T16:23:02Z</time>
      </trkpt>
      <trkpt lat="48.57485" lon="2.00198">
        <ele>116.8</ele>
        <time>2026-03-20T16:23:03Z</time>
      </trkpt>
      <trkpt lat="48.57487" lon="2.0019">
        <ele>116.2</ele>
        <time>2026-03-20T16:23:04Z</time>
      </trkpt>
      <trkpt lat="48.57489" lon="2.00181">
        <ele>116.2</ele>
        <time>2026-03-20T16:23:05Z</time>
      </trkpt>
      <trkpt lat="48.57491" lon="2.00173">
        <ele>116.2</ele>
        <time>2026-03-20T16:23:06Z</time>
      </trkpt>
      <trkpt lat="48.57493" lon="2.00164">
        <ele>115.8</ele>
        <time>2026-03-20T16:23:07Z</time>
      </trkpt>
      <trkpt lat="48.57495" lon="2.00155">
        <ele>115.6</ele>
        <time>2026-03-20T16:23:08Z</time>
      </trkpt>
      <trkpt lat="48.57497" lon="2.00146">
        <ele>115.6</ele>
        <time>2026-03-20T16:23:09Z</time>
      </trkpt>
      <trkpt lat="48.57499" lon="2.00136">
        <ele>115.6</ele>
        <time>2026-03-20T16:23:10Z</time>
      </trkpt>
      <trkpt lat="48.575" lon="2.00127">
        <ele>114.6</ele>
        <time>2026-03-20T16:23:11Z</time>
      </trkpt>
      <trkpt lat="48.57501" lon="2.00117">
        <ele>113.4</ele>
        <time>2026-03-20T16:23:12Z</time>
      </trkpt>
      <trkpt lat="48.57503" lon="2.00106">
        <ele>113.4</ele>
        <time>2026-03-20T16:23:13Z</time>
      </trkpt>
      <trkpt lat="48.57504" lon="2.00095">
        <ele>113.4</ele>
        <time>2026-03-20T16:23:14Z</time>
      </trkpt>
      <trkpt lat="48.57505" lon="2.00084">
        <ele>112.4</ele>
        <time>2026-03-20T16:23:15Z</time>
      </trkpt>
      <trkpt lat="48.57506" lon="2.00072">
        <ele>111</ele>
        <time>2026-03-20T16:23:16Z</time>
      </trkpt>
      <trkpt lat="48.57507" lon="2.0006">
        <ele>111</ele>
        <time>2026-03-20T16:23:17Z</time>
      </trkpt>
      <trkpt lat="48.57508" lon="2.00047">
        <ele>111</ele>
        <time>2026-03-20T16:23:18Z</time>
      </trkpt>
      <trkpt lat="48.57509" lon="2.00034">
        <ele>110</ele>
        <time>2026-03-20T16:23:19Z</time>
      </trkpt>
      <trkpt lat="48.57509" lon="2.0002">
        <ele>109</ele>
        <time>2026-03-20T16:23:20Z</time>
      </trkpt>
      <trkpt lat="48.5751" lon="2.00007">
        <ele>109</ele>
        <time>2026-03-20T16:23:21Z</time>
      </trkpt>
      <trkpt lat="48.57511" lon="1.99993">
        <ele>109</ele>
        <time>2026-03-20T16:23:22Z</time>
      </trkpt>
      <trkpt lat="48.57512" lon="1.99979">
        <ele>108</ele>
        <time>2026-03-20T16:23:23Z</time>
      </trkpt>
      <trkpt lat="48.57513" lon="1.99965">
        <ele>106.6</ele>
        <time>2026-03-20T16:23:24Z</time>
      </trkpt>
      <trkpt lat="48.57514" lon="1.99951">
        <ele>106.6</ele>
        <time>2026-03-20T16:23:25Z</time>
      </trkpt>
      <trkpt lat="48.57515" lon="1.99937">
        <ele>106.6</ele>
        <time>2026-03-20T16:23:26Z</time>
      </trkpt>
      <trkpt lat="48.57515" lon="1.99924">
        <ele>105.8</ele>
        <time>2026-03-20T16:23:27Z</time>
      </trkpt>
      <trkpt lat="48.57515" lon="1.9991">
        <ele>106.2</ele>
        <time>2026-03-20T16:23:28Z</time>
      </trkpt>
      <trkpt lat="48.57516" lon="1.99896">
        <ele>106.2</ele>
        <time>2026-03-20T16:23:29Z</time>
      </trkpt>
      <trkpt lat="48.57516" lon="1.99882">
        <ele>106.2</ele>
        <time>2026-03-20T16:23:30Z</time>
      </trkpt>
      <trkpt lat="48.57516" lon="1.99869">
        <ele>106.2</ele>
        <time>2026-03-20T16:23:31Z</time>
      </trkpt>
      <trkpt lat="48.57515" lon="1.99855">
        <ele>109.2</ele>
        <time>2026-03-20T16:23:32Z</time>
      </trkpt>
      <trkpt lat="48.57515" lon="1.99842">
        <ele>109.2</ele>
        <time>2026-03-20T16:23:33Z</time>
      </trkpt>
      <trkpt lat="48.57516" lon="1.99829">
        <ele>109.2</ele>
        <time>2026-03-20T16:23:34Z</time>
      </trkpt>
      <trkpt lat="48.57515" lon="1.99816">
        <ele>109.6</ele>
        <time>2026-03-20T16:23:35Z</time>
      </trkpt>
      <trkpt lat="48.57515" lon="1.99804">
        <ele>109.4</ele>
        <time>2026-03-20T16:23:36Z</time>
      </trkpt>
      <trkpt lat="48.57515" lon="1.99791">
        <ele>109.4</ele>
        <time>2026-03-20T16:23:37Z</time>
      </trkpt>
      <trkpt lat="48.57515" lon="1.9978">
        <ele>109.4</ele>
        <time>2026-03-20T16:23:38Z</time>
      </trkpt>
      <trkpt lat="48.57515" lon="1.99768">
        <ele>109.2</ele>
        <time>2026-03-20T16:23:39Z</time>
      </trkpt>
      <trkpt lat="48.57515" lon="1.99756">
        <ele>109.2</ele>
        <time>2026-03-20T16:23:40Z</time>
      </trkpt>
      <trkpt lat="48.57515" lon="1.99745">
        <ele>109.2</ele>
        <time>2026-03-20T16:23:41Z</time>
      </trkpt>
      <trkpt lat="48.57515" lon="1.99733">
        <ele>109.2</ele>
        <time>2026-03-20T16:23:42Z</time>
      </trkpt>
      <trkpt lat="48.57516" lon="1.99722">
        <ele>109.2</ele>
        <time>2026-03-20T16:23:43Z</time>
      </trkpt>
      <trkpt lat="48.57516" lon="1.99711">
        <ele>109.2</ele>
        <time>2026-03-20T16:23:44Z</time>
      </trkpt>
      <trkpt lat="48.57516" lon="1.997">
        <ele>109.2</ele>
        <time>2026-03-20T16:23:45Z</time>
      </trkpt>
      <trkpt lat="48.57517" lon="1.99688">
        <ele>109.2</ele>
        <time>2026-03-20T16:23:46Z</time>
      </trkpt>
      <trkpt lat="48.57518" lon="1.99677">
        <ele>108.2</ele>
        <time>2026-03-20T16:23:47Z</time>
      </trkpt>
      <trkpt lat="48.57519" lon="1.99666">
        <ele>109.2</ele>
        <time>2026-03-20T16:23:48Z</time>
      </trkpt>
      <trkpt lat="48.57521" lon="1.99656">
        <ele>109.2</ele>
        <time>2026-03-20T16:23:49Z</time>
      </trkpt>
      <trkpt lat="48.57522" lon="1.99645">
        <ele>109.2</ele>
        <time>2026-03-20T16:23:50Z</time>
      </trkpt>
      <trkpt lat="48.57524" lon="1.99635">
        <ele>110.2</ele>
        <time>2026-03-20T16:23:51Z</time>
      </trkpt>
      <trkpt lat="48.57527" lon="1.99625">
        <ele>111.4</ele>
        <time>2026-03-20T16:23:52Z</time>
      </trkpt>
      <trkpt lat="48.57529" lon="1.99615">
        <ele>111.4</ele>
        <time>2026-03-20T16:23:53Z</time>
      </trkpt>
      <trkpt lat="48.57531" lon="1.99606">
        <ele>111.4</ele>
        <time>2026-03-20T16:23:54Z</time>
      </trkpt>
      <trkpt lat="48.57534" lon="1.99597">
        <ele>111.4</ele>
        <time>2026-03-20T16:23:55Z</time>
      </trkpt>
      <trkpt lat="48.57537" lon="1.99587">
        <ele>111</ele>
        <time>2026-03-20T16:23:56Z</time>
      </trkpt>
      <trkpt lat="48.57539" lon="1.99578">
        <ele>111</ele>
        <time>2026-03-20T16:23:57Z</time>
      </trkpt>
      <trkpt lat="48.57542" lon="1.99569">
        <ele>111</ele>
        <time>2026-03-20T16:23:58Z</time>
      </trkpt>
      <trkpt lat="48.57544" lon="1.99561">
        <ele>111</ele>
        <time>2026-03-20T16:23:59Z</time>
      </trkpt>
      <trkpt lat="48.57547" lon="1.99552">
        <ele>110.6</ele>
        <time>2026-03-20T16:24:00Z</time>
      </trkpt>
      <trkpt lat="48.5755" lon="1.99543">
        <ele>110.6</ele>
        <time>2026-03-20T16:24:01Z</time>
      </trkpt>
      <trkpt lat="48.57553" lon="1.99534">
        <ele>110.6</ele>
        <time>2026-03-20T16:24:02Z</time>
      </trkpt>
      <trkpt lat="48.57556" lon="1.99525">
        <ele>110.4</ele>
        <time>2026-03-20T16:24:03Z</time>
      </trkpt>
      <trkpt lat="48.57558" lon="1.99516">
        <ele>110.2</ele>
        <time>2026-03-20T16:24:04Z</time>
      </trkpt>
      <trkpt lat="48.57561" lon="1.99507">
        <ele>110.2</ele>
        <time>2026-03-20T16:24:05Z</time>
      </trkpt>
      <trkpt lat="48.57564" lon="1.99498">
        <ele>110.2</ele>
        <time>2026-03-20T16:24:06Z</time>
      </trkpt>
      <trkpt lat="48.57567" lon="1.99489">
        <ele>111</ele>
        <time>2026-03-20T16:24:07Z</time>
      </trkpt>
      <trkpt lat="48.5757" lon="1.9948">
        <ele>111.2</ele>
        <time>2026-03-20T16:24:08Z</time>
      </trkpt>
      <trkpt lat="48.57573" lon="1.9947">
        <ele>111.2</ele>
        <time>2026-03-20T16:24:09Z</time>
      </trkpt>
      <trkpt lat="48.57576" lon="1.99462">
        <ele>111.2</ele>
        <time>2026-03-20T16:24:10Z</time>
      </trkpt>
      <trkpt lat="48.57579" lon="1.99453">
        <ele>111.2</ele>
        <time>2026-03-20T16:24:11Z</time>
      </trkpt>
      <trkpt lat="48.57582" lon="1.99445">
        <ele>110</ele>
        <time>2026-03-20T16:24:12Z</time>
      </trkpt>
      <trkpt lat="48.57585" lon="1.99437">
        <ele>110</ele>
        <time>2026-03-20T16:24:13Z</time>
      </trkpt>
      <trkpt lat="48.57587" lon="1.99428">
        <ele>110</ele>
        <time>2026-03-20T16:24:14Z</time>
      </trkpt>
      <trkpt lat="48.5759" lon="1.9942">
        <ele>110</ele>
        <time>2026-03-20T16:24:15Z</time>
      </trkpt>
      <trkpt lat="48.57593" lon="1.99412">
        <ele>110.2</ele>
        <time>2026-03-20T16:24:16Z</time>
      </trkpt>
      <trkpt lat="48.57596" lon="1.99404">
        <ele>110.2</ele>
        <time>2026-03-20T16:24:17Z</time>
      </trkpt>
      <trkpt lat="48.576" lon="1.99396">
        <ele>110.2</ele>
        <time>2026-03-20T16:24:18Z</time>
      </trkpt>
      <trkpt lat="48.57603" lon="1.99388">
        <ele>110.2</ele>
        <time>2026-03-20T16:24:19Z</time>
      </trkpt>
      <trkpt lat="48.57606" lon="1.9938">
        <ele>110.2</ele>
        <time>2026-03-20T16:24:20Z</time>
      </trkpt>
      <trkpt lat="48.57609" lon="1.99372">
        <ele>110.2</ele>
        <time>2026-03-20T16:24:21Z</time>
      </trkpt>
      <trkpt lat="48.57612" lon="1.99364">
        <ele>110.2</ele>
        <time>2026-03-20T16:24:22Z</time>
      </trkpt>
      <trkpt lat="48.57615" lon="1.99356">
        <ele>110.2</ele>
        <time>2026-03-20T16:24:23Z</time>
      </trkpt>
      <trkpt lat="48.57618" lon="1.99348">
        <ele>110.2</ele>
        <time>2026-03-20T16:24:24Z</time>
      </trkpt>
      <trkpt lat="48.57621" lon="1.99341">
        <ele>110.2</ele>
        <time>2026-03-20T16:24:25Z</time>
      </trkpt>
      <trkpt lat="48.57624" lon="1.99333">
        <ele>110.2</ele>
        <time>2026-03-20T16:24:26Z</time>
      </trkpt>
      <trkpt lat="48.57627" lon="1.99325">
        <ele>111.2</ele>
        <time>2026-03-20T16:24:27Z</time>
      </trkpt>
      <trkpt lat="48.57631" lon="1.99317">
        <ele>111.4</ele>
        <time>2026-03-20T16:24:28Z</time>
      </trkpt>
      <trkpt lat="48.57633" lon="1.99309">
        <ele>111.4</ele>
        <time>2026-03-20T16:24:29Z</time>
      </trkpt>
      <trkpt lat="48.57636" lon="1.99301">
        <ele>111.4</ele>
        <time>2026-03-20T16:24:30Z</time>
      </trkpt>
      <trkpt lat="48.57639" lon="1.99293">
        <ele>111.6</ele>
        <time>2026-03-20T16:24:31Z</time>
      </trkpt>
      <trkpt lat="48.57641" lon="1.99284">
        <ele>112.2</ele>
        <time>2026-03-20T16:24:32Z</time>
      </trkpt>
      <trkpt lat="48.57642" lon="1.99276">
        <ele>112.2</ele>
        <time>2026-03-20T16:24:33Z</time>
      </trkpt>
      <trkpt lat="48.57643" lon="1.99267">
        <ele>112.2</ele>
        <time>2026-03-20T16:24:34Z</time>
      </trkpt>
      <trkpt lat="48.57645" lon="1.99259">
        <ele>112.2</ele>
        <time>2026-03-20T16:24:35Z</time>
      </trkpt>
      <trkpt lat="48.57649" lon="1.99253">
        <ele>111.6</ele>
        <time>2026-03-20T16:24:36Z</time>
      </trkpt>
      <trkpt lat="48.57654" lon="1.99248">
        <ele>111.6</ele>
        <time>2026-03-20T16:24:37Z</time>
      </trkpt>
      <trkpt lat="48.57659" lon="1.99245">
        <ele>111.6</ele>
        <time>2026-03-20T16:24:38Z</time>
      </trkpt>
      <trkpt lat="48.57665" lon="1.99243">
        <ele>111.6</ele>
        <time>2026-03-20T16:24:39Z</time>
      </trkpt>
      <trkpt lat="48.5767" lon="1.9924">
        <ele>110.8</ele>
        <time>2026-03-20T16:24:40Z</time>
      </trkpt>
      <trkpt lat="48.57675" lon="1.99238">
        <ele>110.8</ele>
        <time>2026-03-20T16:24:41Z</time>
      </trkpt>
      <trkpt lat="48.57681" lon="1.99236">
        <ele>110.8</ele>
        <time>2026-03-20T16:24:42Z</time>
      </trkpt>
      <trkpt lat="48.57686" lon="1.99233">
        <ele>110.8</ele>
        <time>2026-03-20T16:24:43Z</time>
      </trkpt>
      <trkpt lat="48.57691" lon="1.99231">
        <ele>111.4</ele>
        <time>2026-03-20T16:24:44Z</time>
      </trkpt>
      <trkpt lat="48.57696" lon="1.99229">
        <ele>111.4</ele>
        <time>2026-03-20T16:24:45Z</time>
      </trkpt>
      <trkpt lat="48.57701" lon="1.99227">
        <ele>111.4</ele>
        <time>2026-03-20T16:24:46Z</time>
      </trkpt>
      <trkpt lat="48.57705" lon="1.99225">
        <ele>111.4</ele>
        <time>2026-03-20T16:24:47Z</time>
      </trkpt>
      <trkpt lat="48.5771" lon="1.99222">
        <ele>111.8</ele>
        <time>2026-03-20T16:24:48Z</time>
      </trkpt>
      <trkpt lat="48.57715" lon="1.9922">
        <ele>111.8</ele>
        <time>2026-03-20T16:24:49Z</time>
      </trkpt>
      <trkpt lat="48.5772" lon="1.99219">
        <ele>111.8</ele>
        <time>2026-03-20T16:24:50Z</time>
      </trkpt>
      <trkpt lat="48.57724" lon="1.99217">
        <ele>111.8</ele>
        <time>2026-03-20T16:24:51Z</time>
      </trkpt>
      <trkpt lat="48.57729" lon="1.99215">
        <ele>112.8</ele>
        <time>2026-03-20T16:24:52Z</time>
      </trkpt>
      <trkpt lat="48.57733" lon="1.99213">
        <ele>112.8</ele>
        <time>2026-03-20T16:24:53Z</time>
      </trkpt>
      <trkpt lat="48.57737" lon="1.99212">
        <ele>112.8</ele>
        <time>2026-03-20T16:24:54Z</time>
      </trkpt>
      <trkpt lat="48.57742" lon="1.9921">
        <ele>112.8</ele>
        <time>2026-03-20T16:24:55Z</time>
      </trkpt>
      <trkpt lat="48.57746" lon="1.99209">
        <ele>112.6</ele>
        <time>2026-03-20T16:24:56Z</time>
      </trkpt>
      <trkpt lat="48.5775" lon="1.99207">
        <ele>112.6</ele>
        <time>2026-03-20T16:24:57Z</time>
      </trkpt>
      <trkpt lat="48.57755" lon="1.99206">
        <ele>112.6</ele>
        <time>2026-03-20T16:24:58Z</time>
      </trkpt>
      <trkpt lat="48.57759" lon="1.99203">
        <ele>113.2</ele>
        <time>2026-03-20T16:24:59Z</time>
      </trkpt>
      <trkpt lat="48.57763" lon="1.99201">
        <ele>113.2</ele>
        <time>2026-03-20T16:25:00Z</time>
      </trkpt>
      <trkpt lat="48.57767" lon="1.99199">
        <ele>113.2</ele>
        <time>2026-03-20T16:25:01Z</time>
      </trkpt>
      <trkpt lat="48.57771" lon="1.99198">
        <ele>113.2</ele>
        <time>2026-03-20T16:25:02Z</time>
      </trkpt>
      <trkpt lat="48.57776" lon="1.99197">
        <ele>113.8</ele>
        <time>2026-03-20T16:25:03Z</time>
      </trkpt>
      <trkpt lat="48.5778" lon="1.99196">
        <ele>113.8</ele>
        <time>2026-03-20T16:25:04Z</time>
      </trkpt>
      <trkpt lat="48.57784" lon="1.99194">
        <ele>113.8</ele>
        <time>2026-03-20T16:25:05Z</time>
      </trkpt>
      <trkpt lat="48.57789" lon="1.99192">
        <ele>113.8</ele>
        <time>2026-03-20T16:25:06Z</time>
      </trkpt>
      <trkpt lat="48.57793" lon="1.99191">
        <ele>114.2</ele>
        <time>2026-03-20T16:25:07Z</time>
      </trkpt>
      <trkpt lat="48.57797" lon="1.99189">
        <ele>115</ele>
        <time>2026-03-20T16:25:08Z</time>
      </trkpt>
      <trkpt lat="48.57801" lon="1.99187">
        <ele>115</ele>
        <time>2026-03-20T16:25:09Z</time>
      </trkpt>
      <trkpt lat="48.57805" lon="1.99185">
        <ele>115</ele>
        <time>2026-03-20T16:25:10Z</time>
      </trkpt>
      <trkpt lat="48.5781" lon="1.99183">
        <ele>115.8</ele>
        <time>2026-03-20T16:25:11Z</time>
      </trkpt>
      <trkpt lat="48.57814" lon="1.99182">
        <ele>115.8</ele>
        <time>2026-03-20T16:25:12Z</time>
      </trkpt>
      <trkpt lat="48.57818" lon="1.99181">
        <ele>115.8</ele>
        <time>2026-03-20T16:25:13Z</time>
      </trkpt>
      <trkpt lat="48.57823" lon="1.99179">
        <ele>115.8</ele>
        <time>2026-03-20T16:25:14Z</time>
      </trkpt>
      <trkpt lat="48.57828" lon="1.99176">
        <ele>116.2</ele>
        <time>2026-03-20T16:25:15Z</time>
      </trkpt>
      <trkpt lat="48.57832" lon="1.99173">
        <ele>116.8</ele>
        <time>2026-03-20T16:25:16Z</time>
      </trkpt>
      <trkpt lat="48.57837" lon="1.9917">
        <ele>116.8</ele>
        <time>2026-03-20T16:25:17Z</time>
      </trkpt>
      <trkpt lat="48.57842" lon="1.99168">
        <ele>116.8</ele>
        <time>2026-03-20T16:25:18Z</time>
      </trkpt>
      <trkpt lat="48.57847" lon="1.99164">
        <ele>116.8</ele>
        <time>2026-03-20T16:25:19Z</time>
      </trkpt>
      <trkpt lat="48.57851" lon="1.9916">
        <ele>117.4</ele>
        <time>2026-03-20T16:25:20Z</time>
      </trkpt>
      <trkpt lat="48.57855" lon="1.99157">
        <ele>117.4</ele>
        <time>2026-03-20T16:25:21Z</time>
      </trkpt>
      <trkpt lat="48.57859" lon="1.99153">
        <ele>117.4</ele>
        <time>2026-03-20T16:25:22Z</time>
      </trkpt>
      <trkpt lat="48.57863" lon="1.99149">
        <ele>117.4</ele>
        <time>2026-03-20T16:25:23Z</time>
      </trkpt>
      <trkpt lat="48.57867" lon="1.99147">
        <ele>118</ele>
        <time>2026-03-20T16:25:24Z</time>
      </trkpt>
      <trkpt lat="48.5787" lon="1.99142">
        <ele>118</ele>
        <time>2026-03-20T16:25:25Z</time>
      </trkpt>
      <trkpt lat="48.57874" lon="1.99138">
        <ele>118</ele>
        <time>2026-03-20T16:25:26Z</time>
      </trkpt>
      <trkpt lat="48.57877" lon="1.99135">
        <ele>118</ele>
        <time>2026-03-20T16:25:27Z</time>
      </trkpt>
      <trkpt lat="48.57881" lon="1.99132">
        <ele>118.8</ele>
        <time>2026-03-20T16:25:28Z</time>
      </trkpt>
      <trkpt lat="48.57886" lon="1.9913">
        <ele>118.8</ele>
        <time>2026-03-20T16:25:29Z</time>
      </trkpt>
      <trkpt lat="48.5789" lon="1.99127">
        <ele>118.8</ele>
        <time>2026-03-20T16:25:30Z</time>
      </trkpt>
      <trkpt lat="48.57894" lon="1.99127">
        <ele>119.4</ele>
        <time>2026-03-20T16:25:31Z</time>
      </trkpt>
      <trkpt lat="48.57899" lon="1.99125">
        <ele>119.8</ele>
        <time>2026-03-20T16:25:32Z</time>
      </trkpt>
      <trkpt lat="48.57903" lon="1.99122">
        <ele>119.8</ele>
        <time>2026-03-20T16:25:33Z</time>
      </trkpt>
      <trkpt lat="48.57907" lon="1.99119">
        <ele>119.8</ele>
        <time>2026-03-20T16:25:34Z</time>
      </trkpt>
      <trkpt lat="48.57911" lon="1.99117">
        <ele>119.8</ele>
        <time>2026-03-20T16:25:35Z</time>
      </trkpt>
      <trkpt lat="48.57915" lon="1.99114">
        <ele>120.4</ele>
        <time>2026-03-20T16:25:36Z</time>
      </trkpt>
      <trkpt lat="48.57919" lon="1.99111">
        <ele>120.4</ele>
        <time>2026-03-20T16:25:37Z</time>
      </trkpt>
      <trkpt lat="48.57922" lon="1.99109">
        <ele>120.4</ele>
        <time>2026-03-20T16:25:38Z</time>
      </trkpt>
      <trkpt lat="48.57926" lon="1.99106">
        <ele>120.4</ele>
        <time>2026-03-20T16:25:39Z</time>
      </trkpt>
      <trkpt lat="48.57929" lon="1.99104">
        <ele>120.4</ele>
        <time>2026-03-20T16:25:40Z</time>
      </trkpt>
      <trkpt lat="48.57933" lon="1.99101">
        <ele>120.4</ele>
        <time>2026-03-20T16:25:41Z</time>
      </trkpt>
      <trkpt lat="48.57936" lon="1.99098">
        <ele>120.4</ele>
        <time>2026-03-20T16:25:42Z</time>
      </trkpt>
      <trkpt lat="48.57939" lon="1.99096">
        <ele>119.8</ele>
        <time>2026-03-20T16:25:43Z</time>
      </trkpt>
      <trkpt lat="48.57943" lon="1.99094">
        <ele>120.4</ele>
        <time>2026-03-20T16:25:44Z</time>
      </trkpt>
      <trkpt lat="48.57946" lon="1.99091">
        <ele>120.4</ele>
        <time>2026-03-20T16:25:45Z</time>
      </trkpt>
      <trkpt lat="48.5795" lon="1.99088">
        <ele>120.4</ele>
        <time>2026-03-20T16:25:46Z</time>
      </trkpt>
      <trkpt lat="48.57952" lon="1.99086">
        <ele>120.4</ele>
        <time>2026-03-20T16:25:47Z</time>
      </trkpt>
      <trkpt lat="48.57956" lon="1.99084">
        <ele>120.4</ele>
        <time>2026-03-20T16:25:48Z</time>
      </trkpt>
      <trkpt lat="48.5796" lon="1.99082">
        <ele>120.4</ele>
        <time>2026-03-20T16:25:49Z</time>
      </trkpt>
      <trkpt lat="48.57963" lon="1.9908">
        <ele>120.4</ele>
        <time>2026-03-20T16:25:50Z</time>
      </trkpt>
      <trkpt lat="48.57967" lon="1.99077">
        <ele>120.4</ele>
        <time>2026-03-20T16:25:51Z</time>
      </trkpt>
      <trkpt lat="48.5797" lon="1.99075">
        <ele>121</ele>
        <time>2026-03-20T16:25:52Z</time>
      </trkpt>
      <trkpt lat="48.57974" lon="1.99072">
        <ele>121</ele>
        <time>2026-03-20T16:25:53Z</time>
      </trkpt>
      <trkpt lat="48.57978" lon="1.9907">
        <ele>121</ele>
        <time>2026-03-20T16:25:54Z</time>
      </trkpt>
      <trkpt lat="48.57982" lon="1.99067">
        <ele>121.4</ele>
        <time>2026-03-20T16:25:55Z</time>
      </trkpt>
      <trkpt lat="48.57986" lon="1.99065">
        <ele>121.4</ele>
        <time>2026-03-20T16:25:56Z</time>
      </trkpt>
      <trkpt lat="48.57989" lon="1.99062">
        <ele>121.4</ele>
        <time>2026-03-20T16:25:57Z</time>
      </trkpt>
      <trkpt lat="48.57994" lon="1.99059">
        <ele>121.4</ele>
        <time>2026-03-20T16:25:58Z</time>
      </trkpt>
      <trkpt lat="48.57998" lon="1.99056">
        <ele>121.4</ele>
        <time>2026-03-20T16:25:59Z</time>
      </trkpt>
      <trkpt lat="48.58002" lon="1.99054">
        <ele>121.6</ele>
        <time>2026-03-20T16:26:00Z</time>
      </trkpt>
      <trkpt lat="48.58006" lon="1.99051">
        <ele>121.6</ele>
        <time>2026-03-20T16:26:01Z</time>
      </trkpt>
      <trkpt lat="48.58011" lon="1.99048">
        <ele>121.6</ele>
        <time>2026-03-20T16:26:02Z</time>
      </trkpt>
      <trkpt lat="48.58015" lon="1.99046">
        <ele>121.2</ele>
        <time>2026-03-20T16:26:03Z</time>
      </trkpt>
      <trkpt lat="48.5802" lon="1.99043">
        <ele>121.2</ele>
        <time>2026-03-20T16:26:04Z</time>
      </trkpt>
      <trkpt lat="48.58024" lon="1.9904">
        <ele>121.2</ele>
        <time>2026-03-20T16:26:05Z</time>
      </trkpt>
      <trkpt lat="48.58029" lon="1.99037">
        <ele>121.2</ele>
        <time>2026-03-20T16:26:06Z</time>
      </trkpt>
      <trkpt lat="48.58033" lon="1.99034">
        <ele>121.2</ele>
        <time>2026-03-20T16:26:07Z</time>
      </trkpt>
      <trkpt lat="48.58037" lon="1.99031">
        <ele>121</ele>
        <time>2026-03-20T16:26:08Z</time>
      </trkpt>
      <trkpt lat="48.58042" lon="1.99028">
        <ele>121</ele>
        <time>2026-03-20T16:26:09Z</time>
      </trkpt>
      <trkpt lat="48.58046" lon="1.99025">
        <ele>121</ele>
        <time>2026-03-20T16:26:10Z</time>
      </trkpt>
      <trkpt lat="48.5805" lon="1.99023">
        <ele>121</ele>
        <time>2026-03-20T16:26:11Z</time>
      </trkpt>
      <trkpt lat="48.58055" lon="1.9902">
        <ele>120.6</ele>
        <time>2026-03-20T16:26:12Z</time>
      </trkpt>
      <trkpt lat="48.58059" lon="1.99017">
        <ele>120.6</ele>
        <time>2026-03-20T16:26:13Z</time>
      </trkpt>
      <trkpt lat="48.58063" lon="1.99015">
        <ele>120.6</ele>
        <time>2026-03-20T16:26:14Z</time>
      </trkpt>
      <trkpt lat="48.58068" lon="1.99012">
        <ele>120.6</ele>
        <time>2026-03-20T16:26:15Z</time>
      </trkpt>
      <trkpt lat="48.58072" lon="1.99009">
        <ele>120.8</ele>
        <time>2026-03-20T16:26:16Z</time>
      </trkpt>
      <trkpt lat="48.58076" lon="1.99006">
        <ele>120.8</ele>
        <time>2026-03-20T16:26:17Z</time>
      </trkpt>
      <trkpt lat="48.58081" lon="1.99003">
        <ele>120.8</ele>
        <time>2026-03-20T16:26:18Z</time>
      </trkpt>
      <trkpt lat="48.58085" lon="1.99">
        <ele>120.8</ele>
        <time>2026-03-20T16:26:19Z</time>
      </trkpt>
      <trkpt lat="48.58089" lon="1.98997">
        <ele>120.6</ele>
        <time>2026-03-20T16:26:20Z</time>
      </trkpt>
      <trkpt lat="48.58094" lon="1.98994">
        <ele>120.6</ele>
        <time>2026-03-20T16:26:21Z</time>
      </trkpt>
      <trkpt lat="48.58098" lon="1.98991">
        <ele>120.6</ele>
        <time>2026-03-20T16:26:22Z</time>
      </trkpt>
      <trkpt lat="48.58102" lon="1.98988">
        <ele>120.6</ele>
        <time>2026-03-20T16:26:23Z</time>
      </trkpt>
      <trkpt lat="48.58106" lon="1.98986">
        <ele>120.8</ele>
        <time>2026-03-20T16:26:24Z</time>
      </trkpt>
      <trkpt lat="48.58111" lon="1.98983">
        <ele>120.8</ele>
        <time>2026-03-20T16:26:25Z</time>
      </trkpt>
      <trkpt lat="48.58115" lon="1.9898">
        <ele>120.8</ele>
        <time>2026-03-20T16:26:26Z</time>
      </trkpt>
      <trkpt lat="48.58119" lon="1.98977">
        <ele>120.4</ele>
        <time>2026-03-20T16:26:27Z</time>
      </trkpt>
      <trkpt lat="48.58124" lon="1.98974">
        <ele>119.4</ele>
        <time>2026-03-20T16:26:28Z</time>
      </trkpt>
      <trkpt lat="48.58128" lon="1.98971">
        <ele>119.4</ele>
        <time>2026-03-20T16:26:29Z</time>
      </trkpt>
      <trkpt lat="48.58133" lon="1.98968">
        <ele>119.4</ele>
        <time>2026-03-20T16:26:30Z</time>
      </trkpt>
      <trkpt lat="48.58137" lon="1.98965">
        <ele>119.8</ele>
        <time>2026-03-20T16:26:31Z</time>
      </trkpt>
      <trkpt lat="48.58141" lon="1.98962">
        <ele>120.2</ele>
        <time>2026-03-20T16:26:32Z</time>
      </trkpt>
      <trkpt lat="48.58146" lon="1.9896">
        <ele>120.2</ele>
        <time>2026-03-20T16:26:33Z</time>
      </trkpt>
      <trkpt lat="48.5815" lon="1.98957">
        <ele>120.2</ele>
        <time>2026-03-20T16:26:34Z</time>
      </trkpt>
      <trkpt lat="48.58154" lon="1.98954">
        <ele>120</ele>
        <time>2026-03-20T16:26:35Z</time>
      </trkpt>
      <trkpt lat="48.58159" lon="1.98951">
        <ele>120</ele>
        <time>2026-03-20T16:26:36Z</time>
      </trkpt>
      <trkpt lat="48.58163" lon="1.98948">
        <ele>120</ele>
        <time>2026-03-20T16:26:37Z</time>
      </trkpt>
      <trkpt lat="48.58167" lon="1.98945">
        <ele>120</ele>
        <time>2026-03-20T16:26:38Z</time>
      </trkpt>
      <trkpt lat="48.58172" lon="1.98942">
        <ele>120</ele>
        <time>2026-03-20T16:26:39Z</time>
      </trkpt>
      <trkpt lat="48.58176" lon="1.98939">
        <ele>120</ele>
        <time>2026-03-20T16:26:40Z</time>
      </trkpt>
      <trkpt lat="48.58181" lon="1.98936">
        <ele>120</ele>
        <time>2026-03-20T16:26:41Z</time>
      </trkpt>
      <trkpt lat="48.58186" lon="1.98933">
        <ele>120</ele>
        <time>2026-03-20T16:26:42Z</time>
      </trkpt>
      <trkpt lat="48.5819" lon="1.9893">
        <ele>121</ele>
        <time>2026-03-20T16:26:43Z</time>
      </trkpt>
      <trkpt lat="48.58195" lon="1.98927">
        <ele>120.6</ele>
        <time>2026-03-20T16:26:44Z</time>
      </trkpt>
      <trkpt lat="48.582" lon="1.98925">
        <ele>120.6</ele>
        <time>2026-03-20T16:26:45Z</time>
      </trkpt>
      <trkpt lat="48.58204" lon="1.98921">
        <ele>120.6</ele>
        <time>2026-03-20T16:26:46Z</time>
      </trkpt>
      <trkpt lat="48.58208" lon="1.98917">
        <ele>120.6</ele>
        <time>2026-03-20T16:26:47Z</time>
      </trkpt>
      <trkpt lat="48.58213" lon="1.98914">
        <ele>119.8</ele>
        <time>2026-03-20T16:26:48Z</time>
      </trkpt>
      <trkpt lat="48.58218" lon="1.98911">
        <ele>119.8</ele>
        <time>2026-03-20T16:26:49Z</time>
      </trkpt>
      <trkpt lat="48.58222" lon="1.98908">
        <ele>119.8</ele>
        <time>2026-03-20T16:26:50Z</time>
      </trkpt>
      <trkpt lat="48.58227" lon="1.98905">
        <ele>120.6</ele>
        <time>2026-03-20T16:26:51Z</time>
      </trkpt>
      <trkpt lat="48.58232" lon="1.98902">
        <ele>119.8</ele>
        <time>2026-03-20T16:26:52Z</time>
      </trkpt>
      <trkpt lat="48.58236" lon="1.98899">
        <ele>119.8</ele>
        <time>2026-03-20T16:26:53Z</time>
      </trkpt>
      <trkpt lat="48.58241" lon="1.98896">
        <ele>119.8</ele>
        <time>2026-03-20T16:26:54Z</time>
      </trkpt>
      <trkpt lat="48.58246" lon="1.98893">
        <ele>119.8</ele>
        <time>2026-03-20T16:26:55Z</time>
      </trkpt>
      <trkpt lat="48.58251" lon="1.9889">
        <ele>119.8</ele>
        <time>2026-03-20T16:26:56Z</time>
      </trkpt>
      <trkpt lat="48.58256" lon="1.98887">
        <ele>119.8</ele>
        <time>2026-03-20T16:26:57Z</time>
      </trkpt>
      <trkpt lat="48.5826" lon="1.98885">
        <ele>119.8</ele>
        <time>2026-03-20T16:26:58Z</time>
      </trkpt>
      <trkpt lat="48.58265" lon="1.98882">
        <ele>119.8</ele>
        <time>2026-03-20T16:26:59Z</time>
      </trkpt>
      <trkpt lat="48.5827" lon="1.98879">
        <ele>119.4</ele>
        <time>2026-03-20T16:27:00Z</time>
      </trkpt>
      <trkpt lat="48.58274" lon="1.98876">
        <ele>119.4</ele>
        <time>2026-03-20T16:27:01Z</time>
      </trkpt>
      <trkpt lat="48.58279" lon="1.98873">
        <ele>119.4</ele>
        <time>2026-03-20T16:27:02Z</time>
      </trkpt>
      <trkpt lat="48.58283" lon="1.98869">
        <ele>119.4</ele>
        <time>2026-03-20T16:27:03Z</time>
      </trkpt>
      <trkpt lat="48.58288" lon="1.98866">
        <ele>120</ele>
        <time>2026-03-20T16:27:04Z</time>
      </trkpt>
      <trkpt lat="48.58292" lon="1.98863">
        <ele>120</ele>
        <time>2026-03-20T16:27:05Z</time>
      </trkpt>
      <trkpt lat="48.58297" lon="1.9886">
        <ele>120</ele>
        <time>2026-03-20T16:27:06Z</time>
      </trkpt>
      <trkpt lat="48.58302" lon="1.98858">
        <ele>120</ele>
        <time>2026-03-20T16:27:07Z</time>
      </trkpt>
      <trkpt lat="48.58307" lon="1.98856">
        <ele>119.6</ele>
        <time>2026-03-20T16:27:08Z</time>
      </trkpt>
      <trkpt lat="48.58311" lon="1.98854">
        <ele>119.6</ele>
        <time>2026-03-20T16:27:09Z</time>
      </trkpt>
      <trkpt lat="48.58316" lon="1.9885">
        <ele>119.6</ele>
        <time>2026-03-20T16:27:10Z</time>
      </trkpt>
      <trkpt lat="48.5832" lon="1.98847">
        <ele>119.6</ele>
        <time>2026-03-20T16:27:11Z</time>
      </trkpt>
      <trkpt lat="48.58325" lon="1.98844">
        <ele>120.4</ele>
        <time>2026-03-20T16:27:12Z</time>
      </trkpt>
      <trkpt lat="48.58329" lon="1.98841">
        <ele>120.4</ele>
        <time>2026-03-20T16:27:13Z</time>
      </trkpt>
      <trkpt lat="48.58334" lon="1.98837">
        <ele>120.4</ele>
        <time>2026-03-20T16:27:14Z</time>
      </trkpt>
      <trkpt lat="48.58338" lon="1.98834">
        <ele>120.4</ele>
        <time>2026-03-20T16:27:15Z</time>
      </trkpt>
      <trkpt lat="48.58342" lon="1.98831">
        <ele>120.4</ele>
        <time>2026-03-20T16:27:16Z</time>
      </trkpt>
      <trkpt lat="48.58347" lon="1.98828">
        <ele>120.4</ele>
        <time>2026-03-20T16:27:17Z</time>
      </trkpt>
      <trkpt lat="48.58351" lon="1.98824">
        <ele>120.4</ele>
        <time>2026-03-20T16:27:18Z</time>
      </trkpt>
      <trkpt lat="48.58355" lon="1.98821">
        <ele>121.4</ele>
        <time>2026-03-20T16:27:19Z</time>
      </trkpt>
      <trkpt lat="48.5836" lon="1.98818">
        <ele>121.4</ele>
        <time>2026-03-20T16:27:20Z</time>
      </trkpt>
      <trkpt lat="48.58364" lon="1.98815">
        <ele>121.4</ele>
        <time>2026-03-20T16:27:21Z</time>
      </trkpt>
      <trkpt lat="48.58369" lon="1.98813">
        <ele>121.4</ele>
        <time>2026-03-20T16:27:22Z</time>
      </trkpt>
      <trkpt lat="48.58373" lon="1.9881">
        <ele>121.6</ele>
        <time>2026-03-20T16:27:23Z</time>
      </trkpt>
      <trkpt lat="48.58377" lon="1.98807">
        <ele>121.6</ele>
        <time>2026-03-20T16:27:24Z</time>
      </trkpt>
      <trkpt lat="48.58381" lon="1.98804">
        <ele>121.6</ele>
        <time>2026-03-20T16:27:25Z</time>
      </trkpt>
      <trkpt lat="48.58386" lon="1.98803">
        <ele>121.6</ele>
        <time>2026-03-20T16:27:26Z</time>
      </trkpt>
      <trkpt lat="48.5839" lon="1.98804">
        <ele>122.4</ele>
        <time>2026-03-20T16:27:27Z</time>
      </trkpt>
      <trkpt lat="48.58392" lon="1.98808">
        <ele>122.2</ele>
        <time>2026-03-20T16:27:28Z</time>
      </trkpt>
      <trkpt lat="48.58395" lon="1.98812">
        <ele>122.2</ele>
        <time>2026-03-20T16:27:29Z</time>
      </trkpt>
      <trkpt lat="48.58396" lon="1.98817">
        <ele>122.2</ele>
        <time>2026-03-20T16:27:30Z</time>
      </trkpt>
      <trkpt lat="48.58398" lon="1.98822">
        <ele>122.2</ele>
        <time>2026-03-20T16:27:31Z</time>
      </trkpt>
      <trkpt lat="48.584" lon="1.98828">
        <ele>122.8</ele>
        <time>2026-03-20T16:27:32Z</time>
      </trkpt>
      <trkpt lat="48.58402" lon="1.98833">
        <ele>122.8</ele>
        <time>2026-03-20T16:27:33Z</time>
      </trkpt>
      <trkpt lat="48.58405" lon="1.98837">
        <ele>122.8</ele>
        <time>2026-03-20T16:27:34Z</time>
      </trkpt>
      <trkpt lat="48.58407" lon="1.98841">
        <ele>122.8</ele>
        <time>2026-03-20T16:27:35Z</time>
      </trkpt>
      <trkpt lat="48.5841" lon="1.98843">
        <ele>122.6</ele>
        <time>2026-03-20T16:27:36Z</time>
      </trkpt>
      <trkpt lat="48.58414" lon="1.98845">
        <ele>122.6</ele>
        <time>2026-03-20T16:27:37Z</time>
      </trkpt>
      <trkpt lat="48.58418" lon="1.98846">
        <ele>122.6</ele>
        <time>2026-03-20T16:27:38Z</time>
      </trkpt>
      <trkpt lat="48.58422" lon="1.98845">
        <ele>123.6</ele>
        <time>2026-03-20T16:27:39Z</time>
      </trkpt>
      <trkpt lat="48.58426" lon="1.98845">
        <ele>123.8</ele>
        <time>2026-03-20T16:27:40Z</time>
      </trkpt>
      <trkpt lat="48.5843" lon="1.98844">
        <ele>123.8</ele>
        <time>2026-03-20T16:27:41Z</time>
      </trkpt>
      <trkpt lat="48.58434" lon="1.98843">
        <ele>123.8</ele>
        <time>2026-03-20T16:27:42Z</time>
      </trkpt>
      <trkpt lat="48.58438" lon="1.98841">
        <ele>124.4</ele>
        <time>2026-03-20T16:27:43Z</time>
      </trkpt>
      <trkpt lat="48.58441" lon="1.9884">
        <ele>124.8</ele>
        <time>2026-03-20T16:27:44Z</time>
      </trkpt>
      <trkpt lat="48.58445" lon="1.98838">
        <ele>124.8</ele>
        <time>2026-03-20T16:27:45Z</time>
      </trkpt>
      <trkpt lat="48.58448" lon="1.98837">
        <ele>124.8</ele>
        <time>2026-03-20T16:27:46Z</time>
      </trkpt>
      <trkpt lat="48.58452" lon="1.98836">
        <ele>124.8</ele>
        <time>2026-03-20T16:27:47Z</time>
      </trkpt>
      <trkpt lat="48.58455" lon="1.98835">
        <ele>125.2</ele>
        <time>2026-03-20T16:27:48Z</time>
      </trkpt>
      <trkpt lat="48.58458" lon="1.98834">
        <ele>125.2</ele>
        <time>2026-03-20T16:27:49Z</time>
      </trkpt>
      <trkpt lat="48.58459" lon="1.98833">
        <ele>125.2</ele>
        <time>2026-03-20T16:27:50Z</time>
      </trkpt>
      <trkpt lat="48.58463" lon="1.98831">
        <ele>126.2</ele>
        <time>2026-03-20T16:27:51Z</time>
      </trkpt>
      <trkpt lat="48.58467" lon="1.9883">
        <ele>126.2</ele>
        <time>2026-03-20T16:27:52Z</time>
      </trkpt>
      <trkpt lat="48.5847" lon="1.98829">
        <ele>126.2</ele>
        <time>2026-03-20T16:27:53Z</time>
      </trkpt>
      <trkpt lat="48.58473" lon="1.98828">
        <ele>126.2</ele>
        <time>2026-03-20T16:27:54Z</time>
      </trkpt>
      <trkpt lat="48.58476" lon="1.98827">
        <ele>127.2</ele>
        <time>2026-03-20T16:27:55Z</time>
      </trkpt>
      <trkpt lat="48.58481" lon="1.98826">
        <ele>127.4</ele>
        <time>2026-03-20T16:27:56Z</time>
      </trkpt>
      <trkpt lat="48.58484" lon="1.98825">
        <ele>127.4</ele>
        <time>2026-03-20T16:27:57Z</time>
      </trkpt>
      <trkpt lat="48.58488" lon="1.98824">
        <ele>127.4</ele>
        <time>2026-03-20T16:27:58Z</time>
      </trkpt>
      <trkpt lat="48.58492" lon="1.98823">
        <ele>128.2</ele>
        <time>2026-03-20T16:27:59Z</time>
      </trkpt>
      <trkpt lat="48.58495" lon="1.98822">
        <ele>128</ele>
        <time>2026-03-20T16:28:00Z</time>
      </trkpt>
      <trkpt lat="48.58499" lon="1.98821">
        <ele>128</ele>
        <time>2026-03-20T16:28:01Z</time>
      </trkpt>
      <trkpt lat="48.58503" lon="1.9882">
        <ele>128</ele>
        <time>2026-03-20T16:28:02Z</time>
      </trkpt>
      <trkpt lat="48.58506" lon="1.98819">
        <ele>128</ele>
        <time>2026-03-20T16:28:03Z</time>
      </trkpt>
      <trkpt lat="48.58511" lon="1.98819">
        <ele>128</ele>
        <time>2026-03-20T16:28:04Z</time>
      </trkpt>
      <trkpt lat="48.58514" lon="1.98819">
        <ele>128</ele>
        <time>2026-03-20T16:28:05Z</time>
      </trkpt>
      <trkpt lat="48.58517" lon="1.98819">
        <ele>128</ele>
        <time>2026-03-20T16:28:06Z</time>
      </trkpt>
      <trkpt lat="48.5852" lon="1.98818">
        <ele>128.4</ele>
        <time>2026-03-20T16:28:07Z</time>
      </trkpt>
      <trkpt lat="48.58522" lon="1.98817">
        <ele>128.8</ele>
        <time>2026-03-20T16:28:08Z</time>
      </trkpt>
      <trkpt lat="48.58524" lon="1.98817">
        <ele>128.8</ele>
        <time>2026-03-20T16:28:09Z</time>
      </trkpt>
      <trkpt lat="48.58526" lon="1.98818">
        <ele>128.8</ele>
        <time>2026-03-20T16:28:10Z</time>
      </trkpt>
      <trkpt lat="48.58531" lon="1.98819">
        <ele>129.8</ele>
        <time>2026-03-20T16:28:11Z</time>
      </trkpt>
      <trkpt lat="48.58535" lon="1.9882">
        <ele>130.2</ele>
        <time>2026-03-20T16:28:12Z</time>
      </trkpt>
      <trkpt lat="48.58539" lon="1.98821">
        <ele>130.2</ele>
        <time>2026-03-20T16:28:13Z</time>
      </trkpt>
      <trkpt lat="48.58542" lon="1.98822">
        <ele>130.2</ele>
        <time>2026-03-20T16:28:14Z</time>
      </trkpt>
      <trkpt lat="48.58546" lon="1.98824">
        <ele>130.2</ele>
        <time>2026-03-20T16:28:15Z</time>
      </trkpt>
      <trkpt lat="48.5855" lon="1.98826">
        <ele>130</ele>
        <time>2026-03-20T16:28:16Z</time>
      </trkpt>
      <trkpt lat="48.58555" lon="1.98828">
        <ele>130</ele>
        <time>2026-03-20T16:28:17Z</time>
      </trkpt>
      <trkpt lat="48.58558" lon="1.9883">
        <ele>130</ele>
        <time>2026-03-20T16:28:18Z</time>
      </trkpt>
      <trkpt lat="48.58564" lon="1.98833">
        <ele>131</ele>
        <time>2026-03-20T16:28:19Z</time>
      </trkpt>
      <trkpt lat="48.58568" lon="1.98836">
        <ele>130.4</ele>
        <time>2026-03-20T16:28:20Z</time>
      </trkpt>
      <trkpt lat="48.58573" lon="1.98839">
        <ele>130.4</ele>
        <time>2026-03-20T16:28:21Z</time>
      </trkpt>
      <trkpt lat="48.58577" lon="1.98843">
        <ele>130.4</ele>
        <time>2026-03-20T16:28:22Z</time>
      </trkpt>
      <trkpt lat="48.58582" lon="1.98847">
        <ele>131</ele>
        <time>2026-03-20T16:28:23Z</time>
      </trkpt>
      <trkpt lat="48.58587" lon="1.98851">
        <ele>132</ele>
        <time>2026-03-20T16:28:24Z</time>
      </trkpt>
      <trkpt lat="48.5859" lon="1.98855">
        <ele>132</ele>
        <time>2026-03-20T16:28:25Z</time>
      </trkpt>
      <trkpt lat="48.58594" lon="1.9886">
        <ele>132</ele>
        <time>2026-03-20T16:28:26Z</time>
      </trkpt>
      <trkpt lat="48.58597" lon="1.98864">
        <ele>132</ele>
        <time>2026-03-20T16:28:27Z</time>
      </trkpt>
      <trkpt lat="48.586" lon="1.98868">
        <ele>132.6</ele>
        <time>2026-03-20T16:28:28Z</time>
      </trkpt>
      <trkpt lat="48.58604" lon="1.98871">
        <ele>132.6</ele>
        <time>2026-03-20T16:28:29Z</time>
      </trkpt>
      <trkpt lat="48.58608" lon="1.98872">
        <ele>132.6</ele>
        <time>2026-03-20T16:28:30Z</time>
      </trkpt>
      <trkpt lat="48.58612" lon="1.98873">
        <ele>131.6</ele>
        <time>2026-03-20T16:28:31Z</time>
      </trkpt>
      <trkpt lat="48.58615" lon="1.98874">
        <ele>131.6</ele>
        <time>2026-03-20T16:28:32Z</time>
      </trkpt>
      <trkpt lat="48.58619" lon="1.98876">
        <ele>131.6</ele>
        <time>2026-03-20T16:28:33Z</time>
      </trkpt>
      <trkpt lat="48.58623" lon="1.98877">
        <ele>131.6</ele>
        <time>2026-03-20T16:28:34Z</time>
      </trkpt>
      <trkpt lat="48.58627" lon="1.98879">
        <ele>130.8</ele>
        <time>2026-03-20T16:28:35Z</time>
      </trkpt>
      <trkpt lat="48.58632" lon="1.9888">
        <ele>130.8</ele>
        <time>2026-03-20T16:28:36Z</time>
      </trkpt>
      <trkpt lat="48.58636" lon="1.98882">
        <ele>130.8</ele>
        <time>2026-03-20T16:28:37Z</time>
      </trkpt>
      <trkpt lat="48.5864" lon="1.98885">
        <ele>130.8</ele>
        <time>2026-03-20T16:28:38Z</time>
      </trkpt>
      <trkpt lat="48.58643" lon="1.98887">
        <ele>130.8</ele>
        <time>2026-03-20T16:28:39Z</time>
      </trkpt>
      <trkpt lat="48.58648" lon="1.98889">
        <ele>131</ele>
        <time>2026-03-20T16:28:40Z</time>
      </trkpt>
      <trkpt lat="48.58653" lon="1.98891">
        <ele>131</ele>
        <time>2026-03-20T16:28:41Z</time>
      </trkpt>
      <trkpt lat="48.58658" lon="1.98893">
        <ele>131</ele>
        <time>2026-03-20T16:28:42Z</time>
      </trkpt>
      <trkpt lat="48.58661" lon="1.98895">
        <ele>131</ele>
        <time>2026-03-20T16:28:43Z</time>
      </trkpt>
      <trkpt lat="48.58665" lon="1.98897">
        <ele>131</ele>
        <time>2026-03-20T16:28:44Z</time>
      </trkpt>
      <trkpt lat="48.58668" lon="1.98899">
        <ele>131</ele>
        <time>2026-03-20T16:28:45Z</time>
      </trkpt>
      <trkpt lat="48.58672" lon="1.989">
        <ele>131</ele>
        <time>2026-03-20T16:28:46Z</time>
      </trkpt>
      <trkpt lat="48.58677" lon="1.98902">
        <ele>130.2</ele>
        <time>2026-03-20T16:28:47Z</time>
      </trkpt>
      <trkpt lat="48.58681" lon="1.98904">
        <ele>129.8</ele>
        <time>2026-03-20T16:28:48Z</time>
      </trkpt>
      <trkpt lat="48.58686" lon="1.98906">
        <ele>129.8</ele>
        <time>2026-03-20T16:28:49Z</time>
      </trkpt>
      <trkpt lat="48.5869" lon="1.98909">
        <ele>129.8</ele>
        <time>2026-03-20T16:28:50Z</time>
      </trkpt>
      <trkpt lat="48.58695" lon="1.9891">
        <ele>129.8</ele>
        <time>2026-03-20T16:28:51Z</time>
      </trkpt>
      <trkpt lat="48.58699" lon="1.98912">
        <ele>129.8</ele>
        <time>2026-03-20T16:28:52Z</time>
      </trkpt>
      <trkpt lat="48.58703" lon="1.98915">
        <ele>129.8</ele>
        <time>2026-03-20T16:28:53Z</time>
      </trkpt>
      <trkpt lat="48.58707" lon="1.98918">
        <ele>129.8</ele>
        <time>2026-03-20T16:28:54Z</time>
      </trkpt>
      <trkpt lat="48.58711" lon="1.9892">
        <ele>129.8</ele>
        <time>2026-03-20T16:28:55Z</time>
      </trkpt>
      <trkpt lat="48.58716" lon="1.98922">
        <ele>129.6</ele>
        <time>2026-03-20T16:28:56Z</time>
      </trkpt>
      <trkpt lat="48.5872" lon="1.98924">
        <ele>129.6</ele>
        <time>2026-03-20T16:28:57Z</time>
      </trkpt>
      <trkpt lat="48.58723" lon="1.98927">
        <ele>129.6</ele>
        <time>2026-03-20T16:28:58Z</time>
      </trkpt>
      <trkpt lat="48.58726" lon="1.98929">
        <ele>130</ele>
        <time>2026-03-20T16:28:59Z</time>
      </trkpt>
      <trkpt lat="48.58729" lon="1.98931">
        <ele>130</ele>
        <time>2026-03-20T16:29:00Z</time>
      </trkpt>
      <trkpt lat="48.58734" lon="1.98933">
        <ele>130</ele>
        <time>2026-03-20T16:29:01Z</time>
      </trkpt>
      <trkpt lat="48.58737" lon="1.98935">
        <ele>130</ele>
        <time>2026-03-20T16:29:02Z</time>
      </trkpt>
      <trkpt lat="48.58741" lon="1.98937">
        <ele>130</ele>
        <time>2026-03-20T16:29:03Z</time>
      </trkpt>
      <trkpt lat="48.58744" lon="1.9894">
        <ele>129.2</ele>
        <time>2026-03-20T16:29:04Z</time>
      </trkpt>
      <trkpt lat="48.58749" lon="1.98942">
        <ele>129.2</ele>
        <time>2026-03-20T16:29:05Z</time>
      </trkpt>
      <trkpt lat="48.58753" lon="1.98944">
        <ele>129.2</ele>
        <time>2026-03-20T16:29:06Z</time>
      </trkpt>
      <trkpt lat="48.58756" lon="1.98947">
        <ele>129.2</ele>
        <time>2026-03-20T16:29:07Z</time>
      </trkpt>
      <trkpt lat="48.5876" lon="1.9895">
        <ele>129.4</ele>
        <time>2026-03-20T16:29:08Z</time>
      </trkpt>
      <trkpt lat="48.58764" lon="1.98952">
        <ele>129.4</ele>
        <time>2026-03-20T16:29:09Z</time>
      </trkpt>
      <trkpt lat="48.58769" lon="1.98955">
        <ele>129.4</ele>
        <time>2026-03-20T16:29:10Z</time>
      </trkpt>
      <trkpt lat="48.58773" lon="1.98957">
        <ele>128.8</ele>
        <time>2026-03-20T16:29:11Z</time>
      </trkpt>
      <trkpt lat="48.58778" lon="1.98959">
        <ele>129.2</ele>
        <time>2026-03-20T16:29:12Z</time>
      </trkpt>
      <trkpt lat="48.58782" lon="1.98962">
        <ele>129.2</ele>
        <time>2026-03-20T16:29:13Z</time>
      </trkpt>
      <trkpt lat="48.58787" lon="1.98965">
        <ele>129.2</ele>
        <time>2026-03-20T16:29:14Z</time>
      </trkpt>
      <trkpt lat="48.58791" lon="1.98968">
        <ele>128.2</ele>
        <time>2026-03-20T16:29:15Z</time>
      </trkpt>
      <trkpt lat="48.58796" lon="1.98971">
        <ele>127.6</ele>
        <time>2026-03-20T16:29:16Z</time>
      </trkpt>
      <trkpt lat="48.58801" lon="1.98973">
        <ele>127.6</ele>
        <time>2026-03-20T16:29:17Z</time>
      </trkpt>
      <trkpt lat="48.58806" lon="1.98976">
        <ele>127.6</ele>
        <time>2026-03-20T16:29:18Z</time>
      </trkpt>
      <trkpt lat="48.58811" lon="1.98978">
        <ele>127.6</ele>
        <time>2026-03-20T16:29:19Z</time>
      </trkpt>
      <trkpt lat="48.58816" lon="1.98981">
        <ele>127.4</ele>
        <time>2026-03-20T16:29:20Z</time>
      </trkpt>
      <trkpt lat="48.5882" lon="1.98984">
        <ele>127.4</ele>
        <time>2026-03-20T16:29:21Z</time>
      </trkpt>
      <trkpt lat="48.58826" lon="1.98987">
        <ele>127.4</ele>
        <time>2026-03-20T16:29:22Z</time>
      </trkpt>
      <trkpt lat="48.58831" lon="1.9899">
        <ele>126.4</ele>
        <time>2026-03-20T16:29:23Z</time>
      </trkpt>
      <trkpt lat="48.58836" lon="1.98993">
        <ele>126.2</ele>
        <time>2026-03-20T16:29:24Z</time>
      </trkpt>
      <trkpt lat="48.58841" lon="1.98996">
        <ele>126.2</ele>
        <time>2026-03-20T16:29:25Z</time>
      </trkpt>
      <trkpt lat="48.58846" lon="1.98999">
        <ele>126.2</ele>
        <time>2026-03-20T16:29:26Z</time>
      </trkpt>
      <trkpt lat="48.58851" lon="1.99001">
        <ele>125.2</ele>
        <time>2026-03-20T16:29:27Z</time>
      </trkpt>
      <trkpt lat="48.58856" lon="1.99004">
        <ele>125.4</ele>
        <time>2026-03-20T16:29:28Z</time>
      </trkpt>
      <trkpt lat="48.58861" lon="1.99007">
        <ele>125.4</ele>
        <time>2026-03-20T16:29:29Z</time>
      </trkpt>
      <trkpt lat="48.58866" lon="1.99009">
        <ele>125.4</ele>
        <time>2026-03-20T16:29:30Z</time>
      </trkpt>
      <trkpt lat="48.5887" lon="1.99012">
        <ele>126.4</ele>
        <time>2026-03-20T16:29:31Z</time>
      </trkpt>
      <trkpt lat="48.58875" lon="1.99015">
        <ele>126.2</ele>
        <time>2026-03-20T16:29:32Z</time>
      </trkpt>
      <trkpt lat="48.5888" lon="1.99018">
        <ele>126.2</ele>
        <time>2026-03-20T16:29:33Z</time>
      </trkpt>
      <trkpt lat="48.58885" lon="1.9902">
        <ele>126.2</ele>
        <time>2026-03-20T16:29:34Z</time>
      </trkpt>
      <trkpt lat="48.58889" lon="1.99023">
        <ele>126.2</ele>
        <time>2026-03-20T16:29:35Z</time>
      </trkpt>
      <trkpt lat="48.58894" lon="1.99026">
        <ele>126.6</ele>
        <time>2026-03-20T16:29:36Z</time>
      </trkpt>
      <trkpt lat="48.58898" lon="1.99029">
        <ele>126.6</ele>
        <time>2026-03-20T16:29:37Z</time>
      </trkpt>
      <trkpt lat="48.58904" lon="1.99031">
        <ele>126.6</ele>
        <time>2026-03-20T16:29:38Z</time>
      </trkpt>
      <trkpt lat="48.58909" lon="1.99034">
        <ele>126.6</ele>
        <time>2026-03-20T16:29:39Z</time>
      </trkpt>
      <trkpt lat="48.58914" lon="1.99037">
        <ele>126</ele>
        <time>2026-03-20T16:29:40Z</time>
      </trkpt>
      <trkpt lat="48.5892" lon="1.9904">
        <ele>126</ele>
        <time>2026-03-20T16:29:41Z</time>
      </trkpt>
      <trkpt lat="48.58925" lon="1.99043">
        <ele>126</ele>
        <time>2026-03-20T16:29:42Z</time>
      </trkpt>
      <trkpt lat="48.58931" lon="1.99046">
        <ele>126</ele>
        <time>2026-03-20T16:29:43Z</time>
      </trkpt>
      <trkpt lat="48.58936" lon="1.9905">
        <ele>125.8</ele>
        <time>2026-03-20T16:29:44Z</time>
      </trkpt>
      <trkpt lat="48.58941" lon="1.99053">
        <ele>125.8</ele>
        <time>2026-03-20T16:29:45Z</time>
      </trkpt>
      <trkpt lat="48.58946" lon="1.99056">
        <ele>125.8</ele>
        <time>2026-03-20T16:29:46Z</time>
      </trkpt>
      <trkpt lat="48.58951" lon="1.99059">
        <ele>125.8</ele>
        <time>2026-03-20T16:29:47Z</time>
      </trkpt>
      <trkpt lat="48.58956" lon="1.99063">
        <ele>126.4</ele>
        <time>2026-03-20T16:29:48Z</time>
      </trkpt>
      <trkpt lat="48.58961" lon="1.99065">
        <ele>126.4</ele>
        <time>2026-03-20T16:29:49Z</time>
      </trkpt>
      <trkpt lat="48.58967" lon="1.99069">
        <ele>126.4</ele>
        <time>2026-03-20T16:29:50Z</time>
      </trkpt>
      <trkpt lat="48.58971" lon="1.99072">
        <ele>126.2</ele>
        <time>2026-03-20T16:29:51Z</time>
      </trkpt>
      <trkpt lat="48.58976" lon="1.99075">
        <ele>126.4</ele>
        <time>2026-03-20T16:29:52Z</time>
      </trkpt>
      <trkpt lat="48.58981" lon="1.99078">
        <ele>126.4</ele>
        <time>2026-03-20T16:29:53Z</time>
      </trkpt>
      <trkpt lat="48.58986" lon="1.9908">
        <ele>126.4</ele>
        <time>2026-03-20T16:29:54Z</time>
      </trkpt>
      <trkpt lat="48.58991" lon="1.99083">
        <ele>126.4</ele>
        <time>2026-03-20T16:29:55Z</time>
      </trkpt>
      <trkpt lat="48.58995" lon="1.99085">
        <ele>127</ele>
        <time>2026-03-20T16:29:56Z</time>
      </trkpt>
      <trkpt lat="48.58999" lon="1.99088">
        <ele>127</ele>
        <time>2026-03-20T16:29:57Z</time>
      </trkpt>
      <trkpt lat="48.59003" lon="1.9909">
        <ele>127</ele>
        <time>2026-03-20T16:29:58Z</time>
      </trkpt>
      <trkpt lat="48.59007" lon="1.99093">
        <ele>127</ele>
        <time>2026-03-20T16:29:59Z</time>
      </trkpt>
      <trkpt lat="48.59011" lon="1.99095">
        <ele>127.6</ele>
        <time>2026-03-20T16:30:00Z</time>
      </trkpt>
      <trkpt lat="48.59015" lon="1.99098">
        <ele>127.6</ele>
        <time>2026-03-20T16:30:01Z</time>
      </trkpt>
      <trkpt lat="48.5902" lon="1.991">
        <ele>127.6</ele>
        <time>2026-03-20T16:30:02Z</time>
      </trkpt>
      <trkpt lat="48.59024" lon="1.99103">
        <ele>127.4</ele>
        <time>2026-03-20T16:30:03Z</time>
      </trkpt>
      <trkpt lat="48.59028" lon="1.99105">
        <ele>128.2</ele>
        <time>2026-03-20T16:30:04Z</time>
      </trkpt>
      <trkpt lat="48.59033" lon="1.99108">
        <ele>128.2</ele>
        <time>2026-03-20T16:30:05Z</time>
      </trkpt>
      <trkpt lat="48.59037" lon="1.99111">
        <ele>128.2</ele>
        <time>2026-03-20T16:30:06Z</time>
      </trkpt>
      <trkpt lat="48.59041" lon="1.99113">
        <ele>128</ele>
        <time>2026-03-20T16:30:07Z</time>
      </trkpt>
      <trkpt lat="48.59045" lon="1.99116">
        <ele>127.8</ele>
        <time>2026-03-20T16:30:08Z</time>
      </trkpt>
      <trkpt lat="48.59049" lon="1.99118">
        <ele>127.8</ele>
        <time>2026-03-20T16:30:09Z</time>
      </trkpt>
      <trkpt lat="48.59054" lon="1.99121">
        <ele>127.8</ele>
        <time>2026-03-20T16:30:10Z</time>
      </trkpt>
      <trkpt lat="48.59059" lon="1.99124">
        <ele>127.8</ele>
        <time>2026-03-20T16:30:11Z</time>
      </trkpt>
      <trkpt lat="48.59063" lon="1.99127">
        <ele>128.6</ele>
        <time>2026-03-20T16:30:12Z</time>
      </trkpt>
      <trkpt lat="48.59066" lon="1.99129">
        <ele>128.6</ele>
        <time>2026-03-20T16:30:13Z</time>
      </trkpt>
      <trkpt lat="48.59069" lon="1.99132">
        <ele>128.6</ele>
        <time>2026-03-20T16:30:14Z</time>
      </trkpt>
      <trkpt lat="48.59073" lon="1.99134">
        <ele>129.6</ele>
        <time>2026-03-20T16:30:15Z</time>
      </trkpt>
      <trkpt lat="48.59077" lon="1.99137">
        <ele>129.2</ele>
        <time>2026-03-20T16:30:16Z</time>
      </trkpt>
      <trkpt lat="48.59081" lon="1.99139">
        <ele>129.2</ele>
        <time>2026-03-20T16:30:17Z</time>
      </trkpt>
      <trkpt lat="48.59085" lon="1.99143">
        <ele>129.2</ele>
        <time>2026-03-20T16:30:18Z</time>
      </trkpt>
      <trkpt lat="48.5909" lon="1.99145">
        <ele>130.2</ele>
        <time>2026-03-20T16:30:19Z</time>
      </trkpt>
      <trkpt lat="48.59095" lon="1.99148">
        <ele>130.6</ele>
        <time>2026-03-20T16:30:20Z</time>
      </trkpt>
      <trkpt lat="48.59099" lon="1.9915">
        <ele>130.6</ele>
        <time>2026-03-20T16:30:21Z</time>
      </trkpt>
      <trkpt lat="48.59104" lon="1.99152">
        <ele>130.6</ele>
        <time>2026-03-20T16:30:22Z</time>
      </trkpt>
      <trkpt lat="48.59109" lon="1.99155">
        <ele>130.6</ele>
        <time>2026-03-20T16:30:23Z</time>
      </trkpt>
      <trkpt lat="48.59113" lon="1.99158">
        <ele>131.4</ele>
        <time>2026-03-20T16:30:24Z</time>
      </trkpt>
      <trkpt lat="48.59117" lon="1.99161">
        <ele>131.4</ele>
        <time>2026-03-20T16:30:25Z</time>
      </trkpt>
      <trkpt lat="48.59121" lon="1.99164">
        <ele>131.4</ele>
        <time>2026-03-20T16:30:26Z</time>
      </trkpt>
      <trkpt lat="48.59126" lon="1.99166">
        <ele>131.8</ele>
        <time>2026-03-20T16:30:27Z</time>
      </trkpt>
      <trkpt lat="48.59131" lon="1.99169">
        <ele>132</ele>
        <time>2026-03-20T16:30:28Z</time>
      </trkpt>
      <trkpt lat="48.59135" lon="1.99171">
        <ele>132</ele>
        <time>2026-03-20T16:30:29Z</time>
      </trkpt>
      <trkpt lat="48.5914" lon="1.99173">
        <ele>132</ele>
        <time>2026-03-20T16:30:30Z</time>
      </trkpt>
      <trkpt lat="48.59144" lon="1.99176">
        <ele>132</ele>
        <time>2026-03-20T16:30:31Z</time>
      </trkpt>
      <trkpt lat="48.59149" lon="1.99177">
        <ele>133.2</ele>
        <time>2026-03-20T16:30:32Z</time>
      </trkpt>
      <trkpt lat="48.59153" lon="1.99179">
        <ele>133.2</ele>
        <time>2026-03-20T16:30:33Z</time>
      </trkpt>
      <trkpt lat="48.59158" lon="1.99182">
        <ele>133.2</ele>
        <time>2026-03-20T16:30:34Z</time>
      </trkpt>
      <trkpt lat="48.59163" lon="1.99183">
        <ele>133.2</ele>
        <time>2026-03-20T16:30:35Z</time>
      </trkpt>
      <trkpt lat="48.59168" lon="1.99185">
        <ele>133.2</ele>
        <time>2026-03-20T16:30:36Z</time>
      </trkpt>
      <trkpt lat="48.59172" lon="1.99186">
        <ele>133.2</ele>
        <time>2026-03-20T16:30:37Z</time>
      </trkpt>
      <trkpt lat="48.59176" lon="1.99188">
        <ele>133.2</ele>
        <time>2026-03-20T16:30:38Z</time>
      </trkpt>
      <trkpt lat="48.59181" lon="1.9919">
        <ele>133.6</ele>
        <time>2026-03-20T16:30:39Z</time>
      </trkpt>
      <trkpt lat="48.59185" lon="1.99192">
        <ele>134.2</ele>
        <time>2026-03-20T16:30:40Z</time>
      </trkpt>
      <trkpt lat="48.5919" lon="1.99194">
        <ele>134.2</ele>
        <time>2026-03-20T16:30:41Z</time>
      </trkpt>
      <trkpt lat="48.59195" lon="1.99195">
        <ele>134.2</ele>
        <time>2026-03-20T16:30:42Z</time>
      </trkpt>
      <trkpt lat="48.59198" lon="1.99197">
        <ele>134.2</ele>
        <time>2026-03-20T16:30:43Z</time>
      </trkpt>
      <trkpt lat="48.59202" lon="1.99199">
        <ele>133.6</ele>
        <time>2026-03-20T16:30:44Z</time>
      </trkpt>
      <trkpt lat="48.59205" lon="1.99201">
        <ele>133.6</ele>
        <time>2026-03-20T16:30:45Z</time>
      </trkpt>
      <trkpt lat="48.59209" lon="1.99203">
        <ele>133.6</ele>
        <time>2026-03-20T16:30:46Z</time>
      </trkpt>
      <trkpt lat="48.59212" lon="1.99204">
        <ele>134.4</ele>
        <time>2026-03-20T16:30:47Z</time>
      </trkpt>
      <trkpt lat="48.59214" lon="1.99205">
        <ele>134.8</ele>
        <time>2026-03-20T16:30:48Z</time>
      </trkpt>
      <trkpt lat="48.59217" lon="1.99206">
        <ele>134.8</ele>
        <time>2026-03-20T16:30:49Z</time>
      </trkpt>
      <trkpt lat="48.59219" lon="1.99207">
        <ele>134.8</ele>
        <time>2026-03-20T16:30:50Z</time>
      </trkpt>
      <trkpt lat="48.59222" lon="1.99209">
        <ele>135.2</ele>
        <time>2026-03-20T16:30:51Z</time>
      </trkpt>
      <trkpt lat="48.59225" lon="1.9921">
        <ele>135.2</ele>
        <time>2026-03-20T16:30:52Z</time>
      </trkpt>
      <trkpt lat="48.59229" lon="1.99212">
        <ele>135.2</ele>
        <time>2026-03-20T16:30:53Z</time>
      </trkpt>
      <trkpt lat="48.59231" lon="1.99213">
        <ele>135.2</ele>
        <time>2026-03-20T16:30:54Z</time>
      </trkpt>
      <trkpt lat="48.59235" lon="1.99215">
        <ele>135.2</ele>
        <time>2026-03-20T16:30:55Z</time>
      </trkpt>
      <trkpt lat="48.59239" lon="1.99217">
        <ele>135.4</ele>
        <time>2026-03-20T16:30:56Z</time>
      </trkpt>
      <trkpt lat="48.59241" lon="1.99218">
        <ele>135.4</ele>
        <time>2026-03-20T16:30:57Z</time>
      </trkpt>
      <trkpt lat="48.59244" lon="1.99219">
        <ele>135.4</ele>
        <time>2026-03-20T16:30:58Z</time>
      </trkpt>
      <trkpt lat="48.59247" lon="1.9922">
        <ele>135.4</ele>
        <time>2026-03-20T16:30:59Z</time>
      </trkpt>
      <trkpt lat="48.59251" lon="1.99221">
        <ele>135.2</ele>
        <time>2026-03-20T16:31:00Z</time>
      </trkpt>
      <trkpt lat="48.59255" lon="1.99222">
        <ele>135.2</ele>
        <time>2026-03-20T16:31:01Z</time>
      </trkpt>
      <trkpt lat="48.59259" lon="1.99223">
        <ele>135.2</ele>
        <time>2026-03-20T16:31:02Z</time>
      </trkpt>
      <trkpt lat="48.59262" lon="1.99224">
        <ele>135.4</ele>
        <time>2026-03-20T16:31:03Z</time>
      </trkpt>
      <trkpt lat="48.59266" lon="1.99225">
        <ele>135</ele>
        <time>2026-03-20T16:31:04Z</time>
      </trkpt>
      <trkpt lat="48.59269" lon="1.99226">
        <ele>135</ele>
        <time>2026-03-20T16:31:05Z</time>
      </trkpt>
      <trkpt lat="48.59273" lon="1.99227">
        <ele>135</ele>
        <time>2026-03-20T16:31:06Z</time>
      </trkpt>
      <trkpt lat="48.59277" lon="1.99229">
        <ele>135</ele>
        <time>2026-03-20T16:31:07Z</time>
      </trkpt>
      <trkpt lat="48.59282" lon="1.9923">
        <ele>135.2</ele>
        <time>2026-03-20T16:31:08Z</time>
      </trkpt>
      <trkpt lat="48.59286" lon="1.99232">
        <ele>135.2</ele>
        <time>2026-03-20T16:31:09Z</time>
      </trkpt>
      <trkpt lat="48.59289" lon="1.99234">
        <ele>135.2</ele>
        <time>2026-03-20T16:31:10Z</time>
      </trkpt>
      <trkpt lat="48.59293" lon="1.99236">
        <ele>135.2</ele>
        <time>2026-03-20T16:31:11Z</time>
      </trkpt>
      <trkpt lat="48.59297" lon="1.99238">
        <ele>135.2</ele>
        <time>2026-03-20T16:31:12Z</time>
      </trkpt>
      <trkpt lat="48.59302" lon="1.9924">
        <ele>135.2</ele>
        <time>2026-03-20T16:31:13Z</time>
      </trkpt>
      <trkpt lat="48.59309" lon="1.99243">
        <ele>135.2</ele>
        <time>2026-03-20T16:31:14Z</time>
      </trkpt>
      <trkpt lat="48.59316" lon="1.99246">
        <ele>135.2</ele>
        <time>2026-03-20T16:31:15Z</time>
      </trkpt>
      <trkpt lat="48.59321" lon="1.99249">
        <ele>135.2</ele>
        <time>2026-03-20T16:31:16Z</time>
      </trkpt>
      <trkpt lat="48.59326" lon="1.99251">
        <ele>135.2</ele>
        <time>2026-03-20T16:31:17Z</time>
      </trkpt>
      <trkpt lat="48.5933" lon="1.99253">
        <ele>135.2</ele>
        <time>2026-03-20T16:31:18Z</time>
      </trkpt>
      <trkpt lat="48.59332" lon="1.99255">
        <ele>135.2</ele>
        <time>2026-03-20T16:31:19Z</time>
      </trkpt>
      <trkpt lat="48.59335" lon="1.99256">
        <ele>135.8</ele>
        <time>2026-03-20T16:31:20Z</time>
      </trkpt>
      <trkpt lat="48.59336" lon="1.99256">
        <ele>135.8</ele>
        <time>2026-03-20T16:31:21Z</time>
      </trkpt>
      <trkpt lat="48.59337" lon="1.99256">
        <ele>135.8</ele>
        <time>2026-03-20T16:31:22Z</time>
      </trkpt>
      <trkpt lat="48.59344" lon="1.99255">
        <ele>135.8</ele>
        <time>2026-03-20T16:31:35Z</time>
      </trkpt>
      <trkpt lat="48.59347" lon="1.99256">
        <ele>136</ele>
        <time>2026-03-20T16:31:36Z</time>
      </trkpt>
      <trkpt lat="48.5935" lon="1.99257">
        <ele>136</ele>
        <time>2026-03-20T16:31:37Z</time>
      </trkpt>
      <trkpt lat="48.59353" lon="1.99258">
        <ele>136</ele>
        <time>2026-03-20T16:31:38Z</time>
      </trkpt>
      <trkpt lat="48.59357" lon="1.99257">
        <ele>135.6</ele>
        <time>2026-03-20T16:31:39Z</time>
      </trkpt>
      <trkpt lat="48.5936" lon="1.99257">
        <ele>135.2</ele>
        <time>2026-03-20T16:31:40Z</time>
      </trkpt>
      <trkpt lat="48.59364" lon="1.99257">
        <ele>135.2</ele>
        <time>2026-03-20T16:31:41Z</time>
      </trkpt>
      <trkpt lat="48.59368" lon="1.99257">
        <ele>135.2</ele>
        <time>2026-03-20T16:31:42Z</time>
      </trkpt>
      <trkpt lat="48.59372" lon="1.99256">
        <ele>135.2</ele>
        <time>2026-03-20T16:31:43Z</time>
      </trkpt>
      <trkpt lat="48.59376" lon="1.99255">
        <ele>134.8</ele>
        <time>2026-03-20T16:31:44Z</time>
      </trkpt>
      <trkpt lat="48.5938" lon="1.99254">
        <ele>134.8</ele>
        <time>2026-03-20T16:31:45Z</time>
      </trkpt>
      <trkpt lat="48.59384" lon="1.99256">
        <ele>134.8</ele>
        <time>2026-03-20T16:31:46Z</time>
      </trkpt>
      <trkpt lat="48.59387" lon="1.99257">
        <ele>135</ele>
        <time>2026-03-20T16:31:47Z</time>
      </trkpt>
      <trkpt lat="48.5939" lon="1.99257">
        <ele>135</ele>
        <time>2026-03-20T16:31:48Z</time>
      </trkpt>
      <trkpt lat="48.59394" lon="1.99258">
        <ele>135</ele>
        <time>2026-03-20T16:31:49Z</time>
      </trkpt>
      <trkpt lat="48.59398" lon="1.9926">
        <ele>135</ele>
        <time>2026-03-20T16:31:50Z</time>
      </trkpt>
      <trkpt lat="48.59401" lon="1.99261">
        <ele>134</ele>
        <time>2026-03-20T16:31:51Z</time>
      </trkpt>
      <trkpt lat="48.59405" lon="1.99262">
        <ele>134</ele>
        <time>2026-03-20T16:31:52Z</time>
      </trkpt>
      <trkpt lat="48.59408" lon="1.99263">
        <ele>134</ele>
        <time>2026-03-20T16:31:53Z</time>
      </trkpt>
      <trkpt lat="48.59412" lon="1.99264">
        <ele>134</ele>
        <time>2026-03-20T16:31:54Z</time>
      </trkpt>
      <trkpt lat="48.59416" lon="1.99266">
        <ele>134</ele>
        <time>2026-03-20T16:31:55Z</time>
      </trkpt>
      <trkpt lat="48.59421" lon="1.99267">
        <ele>133.8</ele>
        <time>2026-03-20T16:31:56Z</time>
      </trkpt>
      <trkpt lat="48.59425" lon="1.99269">
        <ele>133.8</ele>
        <time>2026-03-20T16:31:57Z</time>
      </trkpt>
      <trkpt lat="48.5943" lon="1.99271">
        <ele>133.8</ele>
        <time>2026-03-20T16:31:58Z</time>
      </trkpt>
      <trkpt lat="48.59433" lon="1.99273">
        <ele>133.8</ele>
        <time>2026-03-20T16:31:59Z</time>
      </trkpt>
      <trkpt lat="48.59437" lon="1.99275">
        <ele>134</ele>
        <time>2026-03-20T16:32:00Z</time>
      </trkpt>
      <trkpt lat="48.59442" lon="1.99278">
        <ele>134</ele>
        <time>2026-03-20T16:32:01Z</time>
      </trkpt>
      <trkpt lat="48.59445" lon="1.99281">
        <ele>134</ele>
        <time>2026-03-20T16:32:02Z</time>
      </trkpt>
      <trkpt lat="48.59449" lon="1.99284">
        <ele>134</ele>
        <time>2026-03-20T16:32:03Z</time>
      </trkpt>
      <trkpt lat="48.59453" lon="1.99288">
        <ele>132.6</ele>
        <time>2026-03-20T16:32:04Z</time>
      </trkpt>
      <trkpt lat="48.59458" lon="1.9929">
        <ele>132.6</ele>
        <time>2026-03-20T16:32:05Z</time>
      </trkpt>
      <trkpt lat="48.59462" lon="1.99293">
        <ele>132.6</ele>
        <time>2026-03-20T16:32:06Z</time>
      </trkpt>
      <trkpt lat="48.59466" lon="1.99297">
        <ele>133.6</ele>
        <time>2026-03-20T16:32:07Z</time>
      </trkpt>
      <trkpt lat="48.5947" lon="1.993">
        <ele>133.8</ele>
        <time>2026-03-20T16:32:08Z</time>
      </trkpt>
      <trkpt lat="48.59474" lon="1.99303">
        <ele>133.8</ele>
        <time>2026-03-20T16:32:09Z</time>
      </trkpt>
      <trkpt lat="48.59479" lon="1.99306">
        <ele>133.8</ele>
        <time>2026-03-20T16:32:10Z</time>
      </trkpt>
      <trkpt lat="48.59483" lon="1.99309">
        <ele>133.4</ele>
        <time>2026-03-20T16:32:11Z</time>
      </trkpt>
      <trkpt lat="48.59487" lon="1.99312">
        <ele>133</ele>
        <time>2026-03-20T16:32:12Z</time>
      </trkpt>
      <trkpt lat="48.59492" lon="1.99316">
        <ele>133</ele>
        <time>2026-03-20T16:32:13Z</time>
      </trkpt>
      <trkpt lat="48.59496" lon="1.99319">
        <ele>133</ele>
        <time>2026-03-20T16:32:14Z</time>
      </trkpt>
      <trkpt lat="48.595" lon="1.99323">
        <ele>133</ele>
        <time>2026-03-20T16:32:15Z</time>
      </trkpt>
      <trkpt lat="48.59504" lon="1.99326">
        <ele>132.2</ele>
        <time>2026-03-20T16:32:16Z</time>
      </trkpt>
      <trkpt lat="48.59508" lon="1.99329">
        <ele>132.2</ele>
        <time>2026-03-20T16:32:17Z</time>
      </trkpt>
      <trkpt lat="48.59513" lon="1.99332">
        <ele>132.2</ele>
        <time>2026-03-20T16:32:18Z</time>
      </trkpt>
      <trkpt lat="48.59518" lon="1.99335">
        <ele>132.2</ele>
        <time>2026-03-20T16:32:19Z</time>
      </trkpt>
      <trkpt lat="48.59522" lon="1.99338">
        <ele>132</ele>
        <time>2026-03-20T16:32:20Z</time>
      </trkpt>
      <trkpt lat="48.59527" lon="1.99341">
        <ele>132</ele>
        <time>2026-03-20T16:32:21Z</time>
      </trkpt>
      <trkpt lat="48.59532" lon="1.99344">
        <ele>132</ele>
        <time>2026-03-20T16:32:22Z</time>
      </trkpt>
      <trkpt lat="48.59538" lon="1.99346">
        <ele>132</ele>
        <time>2026-03-20T16:32:23Z</time>
      </trkpt>
      <trkpt lat="48.59543" lon="1.99348">
        <ele>132.8</ele>
        <time>2026-03-20T16:32:24Z</time>
      </trkpt>
      <trkpt lat="48.59549" lon="1.9935">
        <ele>132.8</ele>
        <time>2026-03-20T16:32:25Z</time>
      </trkpt>
      <trkpt lat="48.59554" lon="1.99351">
        <ele>132.8</ele>
        <time>2026-03-20T16:32:26Z</time>
      </trkpt>
      <trkpt lat="48.5956" lon="1.99353">
        <ele>131.8</ele>
        <time>2026-03-20T16:32:27Z</time>
      </trkpt>
      <trkpt lat="48.59566" lon="1.99354">
        <ele>132</ele>
        <time>2026-03-20T16:32:28Z</time>
      </trkpt>
      <trkpt lat="48.59572" lon="1.99354">
        <ele>132</ele>
        <time>2026-03-20T16:32:29Z</time>
      </trkpt>
      <trkpt lat="48.59578" lon="1.99354">
        <ele>132</ele>
        <time>2026-03-20T16:32:30Z</time>
      </trkpt>
      <trkpt lat="48.59584" lon="1.99354">
        <ele>131</ele>
        <time>2026-03-20T16:32:31Z</time>
      </trkpt>
      <trkpt lat="48.5959" lon="1.99354">
        <ele>131</ele>
        <time>2026-03-20T16:32:32Z</time>
      </trkpt>
      <trkpt lat="48.59596" lon="1.99353">
        <ele>131</ele>
        <time>2026-03-20T16:32:33Z</time>
      </trkpt>
      <trkpt lat="48.59602" lon="1.99353">
        <ele>131</ele>
        <time>2026-03-20T16:32:34Z</time>
      </trkpt>
      <trkpt lat="48.59607" lon="1.99352">
        <ele>131</ele>
        <time>2026-03-20T16:32:35Z</time>
      </trkpt>
      <trkpt lat="48.59613" lon="1.9935">
        <ele>131.2</ele>
        <time>2026-03-20T16:32:36Z</time>
      </trkpt>
      <trkpt lat="48.59619" lon="1.99348">
        <ele>131.2</ele>
        <time>2026-03-20T16:32:37Z</time>
      </trkpt>
      <trkpt lat="48.59624" lon="1.99347">
        <ele>131.2</ele>
        <time>2026-03-20T16:32:38Z</time>
      </trkpt>
      <trkpt lat="48.59631" lon="1.99346">
        <ele>131.2</ele>
        <time>2026-03-20T16:32:39Z</time>
      </trkpt>
      <trkpt lat="48.59636" lon="1.99344">
        <ele>130.4</ele>
        <time>2026-03-20T16:32:40Z</time>
      </trkpt>
      <trkpt lat="48.59642" lon="1.99343">
        <ele>130.4</ele>
        <time>2026-03-20T16:32:41Z</time>
      </trkpt>
      <trkpt lat="48.59648" lon="1.99342">
        <ele>130.4</ele>
        <time>2026-03-20T16:32:42Z</time>
      </trkpt>
      <trkpt lat="48.59654" lon="1.99341">
        <ele>130.4</ele>
        <time>2026-03-20T16:32:43Z</time>
      </trkpt>
      <trkpt lat="48.5966" lon="1.99339">
        <ele>129.4</ele>
        <time>2026-03-20T16:32:44Z</time>
      </trkpt>
      <trkpt lat="48.59665" lon="1.99338">
        <ele>129.4</ele>
        <time>2026-03-20T16:32:45Z</time>
      </trkpt>
      <trkpt lat="48.59671" lon="1.99336">
        <ele>129.4</ele>
        <time>2026-03-20T16:32:46Z</time>
      </trkpt>
      <trkpt lat="48.59677" lon="1.99335">
        <ele>128.6</ele>
        <time>2026-03-20T16:32:47Z</time>
      </trkpt>
      <trkpt lat="48.59683" lon="1.99334">
        <ele>127.4</ele>
        <time>2026-03-20T16:32:48Z</time>
      </trkpt>
      <trkpt lat="48.5969" lon="1.99334">
        <ele>127.4</ele>
        <time>2026-03-20T16:32:49Z</time>
      </trkpt>
      <trkpt lat="48.59697" lon="1.99334">
        <ele>127.4</ele>
        <time>2026-03-20T16:32:50Z</time>
      </trkpt>
      <trkpt lat="48.59704" lon="1.99334">
        <ele>127.4</ele>
        <time>2026-03-20T16:32:51Z</time>
      </trkpt>
      <trkpt lat="48.59711" lon="1.99334">
        <ele>125</ele>
        <time>2026-03-20T16:32:52Z</time>
      </trkpt>
      <trkpt lat="48.59718" lon="1.99335">
        <ele>125</ele>
        <time>2026-03-20T16:32:53Z</time>
      </trkpt>
      <trkpt lat="48.59725" lon="1.99337">
        <ele>125</ele>
        <time>2026-03-20T16:32:54Z</time>
      </trkpt>
      <trkpt lat="48.59733" lon="1.99338">
        <ele>124</ele>
        <time>2026-03-20T16:32:55Z</time>
      </trkpt>
      <trkpt lat="48.59741" lon="1.99339">
        <ele>123.4</ele>
        <time>2026-03-20T16:32:56Z</time>
      </trkpt>
      <trkpt lat="48.59747" lon="1.9934">
        <ele>123.4</ele>
        <time>2026-03-20T16:32:57Z</time>
      </trkpt>
      <trkpt lat="48.59755" lon="1.99341">
        <ele>123.4</ele>
        <time>2026-03-20T16:32:58Z</time>
      </trkpt>
      <trkpt lat="48.59763" lon="1.99341">
        <ele>122.4</ele>
        <time>2026-03-20T16:32:59Z</time>
      </trkpt>
      <trkpt lat="48.59769" lon="1.99342">
        <ele>121.4</ele>
        <time>2026-03-20T16:33:00Z</time>
      </trkpt>
      <trkpt lat="48.59776" lon="1.99343">
        <ele>121.4</ele>
        <time>2026-03-20T16:33:01Z</time>
      </trkpt>
      <trkpt lat="48.59784" lon="1.99345">
        <ele>121.4</ele>
        <time>2026-03-20T16:33:02Z</time>
      </trkpt>
      <trkpt lat="48.59792" lon="1.99346">
        <ele>120.4</ele>
        <time>2026-03-20T16:33:03Z</time>
      </trkpt>
      <trkpt lat="48.59801" lon="1.99347">
        <ele>119.2</ele>
        <time>2026-03-20T16:33:04Z</time>
      </trkpt>
      <trkpt lat="48.59808" lon="1.99348">
        <ele>119.2</ele>
        <time>2026-03-20T16:33:05Z</time>
      </trkpt>
      <trkpt lat="48.59816" lon="1.99349">
        <ele>119.2</ele>
        <time>2026-03-20T16:33:06Z</time>
      </trkpt>
      <trkpt lat="48.59825" lon="1.9935">
        <ele>118.2</ele>
        <time>2026-03-20T16:33:07Z</time>
      </trkpt>
      <trkpt lat="48.59833" lon="1.99351">
        <ele>117.6</ele>
        <time>2026-03-20T16:33:08Z</time>
      </trkpt>
      <trkpt lat="48.59841" lon="1.99352">
        <ele>117.6</ele>
        <time>2026-03-20T16:33:09Z</time>
      </trkpt>
      <trkpt lat="48.5985" lon="1.99354">
        <ele>117.6</ele>
        <time>2026-03-20T16:33:10Z</time>
      </trkpt>
      <trkpt lat="48.59859" lon="1.99355">
        <ele>116.6</ele>
        <time>2026-03-20T16:33:11Z</time>
      </trkpt>
      <trkpt lat="48.59869" lon="1.99356">
        <ele>115.2</ele>
        <time>2026-03-20T16:33:12Z</time>
      </trkpt>
      <trkpt lat="48.59877" lon="1.99358">
        <ele>115.2</ele>
        <time>2026-03-20T16:33:13Z</time>
      </trkpt>
      <trkpt lat="48.59886" lon="1.99359">
        <ele>115.2</ele>
        <time>2026-03-20T16:33:14Z</time>
      </trkpt>
      <trkpt lat="48.59895" lon="1.9936">
        <ele>114.8</ele>
        <time>2026-03-20T16:33:15Z</time>
      </trkpt>
      <trkpt lat="48.59903" lon="1.99362">
        <ele>113.6</ele>
        <time>2026-03-20T16:33:16Z</time>
      </trkpt>
      <trkpt lat="48.59912" lon="1.99363">
        <ele>113.6</ele>
        <time>2026-03-20T16:33:17Z</time>
      </trkpt>
      <trkpt lat="48.59922" lon="1.99363">
        <ele>113.6</ele>
        <time>2026-03-20T16:33:18Z</time>
      </trkpt>
      <trkpt lat="48.59932" lon="1.99364">
        <ele>113.6</ele>
        <time>2026-03-20T16:33:19Z</time>
      </trkpt>
      <trkpt lat="48.59942" lon="1.99365">
        <ele>112.6</ele>
        <time>2026-03-20T16:33:20Z</time>
      </trkpt>
      <trkpt lat="48.59951" lon="1.99365">
        <ele>112.6</ele>
        <time>2026-03-20T16:33:21Z</time>
      </trkpt>
      <trkpt lat="48.5996" lon="1.99366">
        <ele>112.6</ele>
        <time>2026-03-20T16:33:22Z</time>
      </trkpt>
      <trkpt lat="48.59969" lon="1.99367">
        <ele>113.4</ele>
        <time>2026-03-20T16:33:23Z</time>
      </trkpt>
      <trkpt lat="48.59978" lon="1.99368">
        <ele>114.2</ele>
        <time>2026-03-20T16:33:24Z</time>
      </trkpt>
      <trkpt lat="48.59987" lon="1.99369">
        <ele>114.2</ele>
        <time>2026-03-20T16:33:25Z</time>
      </trkpt>
      <trkpt lat="48.59995" lon="1.9937">
        <ele>114.2</ele>
        <time>2026-03-20T16:33:26Z</time>
      </trkpt>
      <trkpt lat="48.60004" lon="1.99371">
        <ele>113.2</ele>
        <time>2026-03-20T16:33:27Z</time>
      </trkpt>
      <trkpt lat="48.60012" lon="1.99372">
        <ele>112.2</ele>
        <time>2026-03-20T16:33:28Z</time>
      </trkpt>
      <trkpt lat="48.60021" lon="1.99373">
        <ele>112.2</ele>
        <time>2026-03-20T16:33:29Z</time>
      </trkpt>
      <trkpt lat="48.60029" lon="1.99373">
        <ele>112.2</ele>
        <time>2026-03-20T16:33:30Z</time>
      </trkpt>
      <trkpt lat="48.60037" lon="1.99374">
        <ele>112.4</ele>
        <time>2026-03-20T16:33:31Z</time>
      </trkpt>
      <trkpt lat="48.60045" lon="1.99375">
        <ele>111.6</ele>
        <time>2026-03-20T16:33:32Z</time>
      </trkpt>
      <trkpt lat="48.60053" lon="1.99376">
        <ele>111.6</ele>
        <time>2026-03-20T16:33:33Z</time>
      </trkpt>
      <trkpt lat="48.60061" lon="1.99377">
        <ele>111.6</ele>
        <time>2026-03-20T16:33:34Z</time>
      </trkpt>
      <trkpt lat="48.60069" lon="1.99378">
        <ele>111.6</ele>
        <time>2026-03-20T16:33:35Z</time>
      </trkpt>
      <trkpt lat="48.60077" lon="1.99379">
        <ele>111.4</ele>
        <time>2026-03-20T16:33:36Z</time>
      </trkpt>
      <trkpt lat="48.60084" lon="1.9938">
        <ele>111.4</ele>
        <time>2026-03-20T16:33:37Z</time>
      </trkpt>
      <trkpt lat="48.60092" lon="1.99381">
        <ele>111.4</ele>
        <time>2026-03-20T16:33:38Z</time>
      </trkpt>
      <trkpt lat="48.601" lon="1.99382">
        <ele>111.4</ele>
        <time>2026-03-20T16:33:39Z</time>
      </trkpt>
      <trkpt lat="48.60108" lon="1.99382">
        <ele>110.8</ele>
        <time>2026-03-20T16:33:40Z</time>
      </trkpt>
      <trkpt lat="48.60115" lon="1.99384">
        <ele>110.8</ele>
        <time>2026-03-20T16:33:41Z</time>
      </trkpt>
      <trkpt lat="48.60122" lon="1.99385">
        <ele>110.8</ele>
        <time>2026-03-20T16:33:42Z</time>
      </trkpt>
      <trkpt lat="48.6013" lon="1.99386">
        <ele>110.6</ele>
        <time>2026-03-20T16:33:43Z</time>
      </trkpt>
      <trkpt lat="48.60137" lon="1.99388">
        <ele>110.2</ele>
        <time>2026-03-20T16:33:44Z</time>
      </trkpt>
      <trkpt lat="48.60144" lon="1.9939">
        <ele>110.2</ele>
        <time>2026-03-20T16:33:45Z</time>
      </trkpt>
      <trkpt lat="48.60151" lon="1.99392">
        <ele>110.2</ele>
        <time>2026-03-20T16:33:46Z</time>
      </trkpt>
      <trkpt lat="48.60158" lon="1.99394">
        <ele>110.2</ele>
        <time>2026-03-20T16:33:47Z</time>
      </trkpt>
      <trkpt lat="48.60166" lon="1.99393">
        <ele>109.6</ele>
        <time>2026-03-20T16:33:48Z</time>
      </trkpt>
      <trkpt lat="48.60172" lon="1.99389">
        <ele>109.6</ele>
        <time>2026-03-20T16:33:49Z</time>
      </trkpt>
      <trkpt lat="48.60177" lon="1.99384">
        <ele>109.6</ele>
        <time>2026-03-20T16:33:50Z</time>
      </trkpt>
      <trkpt lat="48.60181" lon="1.99377">
        <ele>109.4</ele>
        <time>2026-03-20T16:33:51Z</time>
      </trkpt>
      <trkpt lat="48.60185" lon="1.9937">
        <ele>109.6</ele>
        <time>2026-03-20T16:33:52Z</time>
      </trkpt>
      <trkpt lat="48.6019" lon="1.99363">
        <ele>109.6</ele>
        <time>2026-03-20T16:33:53Z</time>
      </trkpt>
      <trkpt lat="48.60194" lon="1.99357">
        <ele>109.6</ele>
        <time>2026-03-20T16:33:54Z</time>
      </trkpt>
      <trkpt lat="48.60198" lon="1.9935">
        <ele>109.6</ele>
        <time>2026-03-20T16:33:55Z</time>
      </trkpt>
      <trkpt lat="48.60201" lon="1.99344">
        <ele>109.8</ele>
        <time>2026-03-20T16:33:56Z</time>
      </trkpt>
      <trkpt lat="48.60205" lon="1.99338">
        <ele>109.8</ele>
        <time>2026-03-20T16:33:57Z</time>
      </trkpt>
      <trkpt lat="48.60209" lon="1.99332">
        <ele>109.8</ele>
        <time>2026-03-20T16:33:58Z</time>
      </trkpt>
      <trkpt lat="48.60213" lon="1.99326">
        <ele>110.4</ele>
        <time>2026-03-20T16:33:59Z</time>
      </trkpt>
      <trkpt lat="48.60216" lon="1.9932">
        <ele>110.4</ele>
        <time>2026-03-20T16:34:00Z</time>
      </trkpt>
      <trkpt lat="48.60219" lon="1.99313">
        <ele>110.4</ele>
        <time>2026-03-20T16:34:01Z</time>
      </trkpt>
      <trkpt lat="48.60222" lon="1.99307">
        <ele>110.4</ele>
        <time>2026-03-20T16:34:02Z</time>
      </trkpt>
      <trkpt lat="48.60226" lon="1.99301">
        <ele>110.4</ele>
        <time>2026-03-20T16:34:03Z</time>
      </trkpt>
      <trkpt lat="48.60229" lon="1.99295">
        <ele>111.2</ele>
        <time>2026-03-20T16:34:04Z</time>
      </trkpt>
      <trkpt lat="48.60232" lon="1.99289">
        <ele>111.2</ele>
        <time>2026-03-20T16:34:05Z</time>
      </trkpt>
      <trkpt lat="48.60235" lon="1.99283">
        <ele>111.2</ele>
        <time>2026-03-20T16:34:06Z</time>
      </trkpt>
      <trkpt lat="48.60239" lon="1.99277">
        <ele>110.8</ele>
        <time>2026-03-20T16:34:07Z</time>
      </trkpt>
      <trkpt lat="48.60242" lon="1.99272">
        <ele>110.4</ele>
        <time>2026-03-20T16:34:08Z</time>
      </trkpt>
      <trkpt lat="48.60245" lon="1.99266">
        <ele>110.4</ele>
        <time>2026-03-20T16:34:09Z</time>
      </trkpt>
      <trkpt lat="48.60248" lon="1.9926">
        <ele>110.4</ele>
        <time>2026-03-20T16:34:10Z</time>
      </trkpt>
      <trkpt lat="48.60252" lon="1.99255">
        <ele>110.8</ele>
        <time>2026-03-20T16:34:11Z</time>
      </trkpt>
      <trkpt lat="48.60255" lon="1.99249">
        <ele>110.6</ele>
        <time>2026-03-20T16:34:12Z</time>
      </trkpt>
      <trkpt lat="48.60258" lon="1.99243">
        <ele>110.6</ele>
        <time>2026-03-20T16:34:13Z</time>
      </trkpt>
      <trkpt lat="48.60261" lon="1.99238">
        <ele>110.6</ele>
        <time>2026-03-20T16:34:14Z</time>
      </trkpt>
      <trkpt lat="48.60264" lon="1.99232">
        <ele>110.6</ele>
        <time>2026-03-20T16:34:15Z</time>
      </trkpt>
      <trkpt lat="48.60267" lon="1.99227">
        <ele>111</ele>
        <time>2026-03-20T16:34:16Z</time>
      </trkpt>
      <trkpt lat="48.6027" lon="1.99222">
        <ele>111</ele>
        <time>2026-03-20T16:34:17Z</time>
      </trkpt>
      <trkpt lat="48.60273" lon="1.99216">
        <ele>111</ele>
        <time>2026-03-20T16:34:18Z</time>
      </trkpt>
      <trkpt lat="48.60276" lon="1.99211">
        <ele>110.8</ele>
        <time>2026-03-20T16:34:19Z</time>
      </trkpt>
      <trkpt lat="48.60279" lon="1.99206">
        <ele>111.4</ele>
        <time>2026-03-20T16:34:20Z</time>
      </trkpt>
      <trkpt lat="48.60282" lon="1.99201">
        <ele>111.4</ele>
        <time>2026-03-20T16:34:21Z</time>
      </trkpt>
      <trkpt lat="48.60285" lon="1.99197">
        <ele>111.4</ele>
        <time>2026-03-20T16:34:22Z</time>
      </trkpt>
      <trkpt lat="48.60288" lon="1.99191">
        <ele>111.4</ele>
        <time>2026-03-20T16:34:23Z</time>
      </trkpt>
      <trkpt lat="48.60291" lon="1.99186">
        <ele>112.2</ele>
        <time>2026-03-20T16:34:24Z</time>
      </trkpt>
      <trkpt lat="48.60293" lon="1.99181">
        <ele>112.2</ele>
        <time>2026-03-20T16:34:25Z</time>
      </trkpt>
      <trkpt lat="48.60296" lon="1.99176">
        <ele>112.2</ele>
        <time>2026-03-20T16:34:26Z</time>
      </trkpt>
      <trkpt lat="48.60299" lon="1.99171">
        <ele>111.8</ele>
        <time>2026-03-20T16:34:27Z</time>
      </trkpt>
      <trkpt lat="48.60302" lon="1.99166">
        <ele>111.6</ele>
        <time>2026-03-20T16:34:28Z</time>
      </trkpt>
      <trkpt lat="48.60305" lon="1.9916">
        <ele>111.6</ele>
        <time>2026-03-20T16:34:29Z</time>
      </trkpt>
      <trkpt lat="48.60308" lon="1.99155">
        <ele>111.6</ele>
        <time>2026-03-20T16:34:30Z</time>
      </trkpt>
      <trkpt lat="48.60311" lon="1.9915">
        <ele>111.6</ele>
        <time>2026-03-20T16:34:31Z</time>
      </trkpt>
      <trkpt lat="48.60314" lon="1.99145">
        <ele>111.6</ele>
        <time>2026-03-20T16:34:32Z</time>
      </trkpt>
      <trkpt lat="48.60317" lon="1.9914">
        <ele>111.6</ele>
        <time>2026-03-20T16:34:33Z</time>
      </trkpt>
      <trkpt lat="48.6032" lon="1.99135">
        <ele>111.6</ele>
        <time>2026-03-20T16:34:34Z</time>
      </trkpt>
      <trkpt lat="48.60323" lon="1.9913">
        <ele>111.6</ele>
        <time>2026-03-20T16:34:35Z</time>
      </trkpt>
      <trkpt lat="48.60326" lon="1.99124">
        <ele>111.8</ele>
        <time>2026-03-20T16:34:36Z</time>
      </trkpt>
      <trkpt lat="48.60329" lon="1.99119">
        <ele>111.8</ele>
        <time>2026-03-20T16:34:37Z</time>
      </trkpt>
      <trkpt lat="48.60332" lon="1.99114">
        <ele>111.8</ele>
        <time>2026-03-20T16:34:38Z</time>
      </trkpt>
      <trkpt lat="48.60335" lon="1.99109">
        <ele>111.8</ele>
        <time>2026-03-20T16:34:39Z</time>
      </trkpt>
      <trkpt lat="48.60338" lon="1.99104">
        <ele>112.2</ele>
        <time>2026-03-20T16:34:40Z</time>
      </trkpt>
      <trkpt lat="48.6034" lon="1.99099">
        <ele>112.2</ele>
        <time>2026-03-20T16:34:41Z</time>
      </trkpt>
      <trkpt lat="48.60343" lon="1.99094">
        <ele>112.2</ele>
        <time>2026-03-20T16:34:42Z</time>
      </trkpt>
      <trkpt lat="48.60346" lon="1.99089">
        <ele>112.2</ele>
        <time>2026-03-20T16:34:43Z</time>
      </trkpt>
      <trkpt lat="48.60349" lon="1.99084">
        <ele>112.2</ele>
        <time>2026-03-20T16:34:44Z</time>
      </trkpt>
      <trkpt lat="48.60352" lon="1.99079">
        <ele>112.2</ele>
        <time>2026-03-20T16:34:45Z</time>
      </trkpt>
      <trkpt lat="48.60355" lon="1.99074">
        <ele>112.2</ele>
        <time>2026-03-20T16:34:46Z</time>
      </trkpt>
      <trkpt lat="48.60358" lon="1.99069">
        <ele>112.2</ele>
        <time>2026-03-20T16:34:47Z</time>
      </trkpt>
      <trkpt lat="48.60361" lon="1.99064">
        <ele>112.2</ele>
        <time>2026-03-20T16:34:48Z</time>
      </trkpt>
      <trkpt lat="48.60364" lon="1.99059">
        <ele>112.2</ele>
        <time>2026-03-20T16:34:49Z</time>
      </trkpt>
      <trkpt lat="48.60367" lon="1.99054">
        <ele>112.2</ele>
        <time>2026-03-20T16:34:50Z</time>
      </trkpt>
      <trkpt lat="48.6037" lon="1.99049">
        <ele>112.2</ele>
        <time>2026-03-20T16:34:51Z</time>
      </trkpt>
      <trkpt lat="48.60373" lon="1.99045">
        <ele>112.2</ele>
        <time>2026-03-20T16:34:52Z</time>
      </trkpt>
      <trkpt lat="48.60376" lon="1.99039">
        <ele>112.2</ele>
        <time>2026-03-20T16:34:53Z</time>
      </trkpt>
      <trkpt lat="48.60378" lon="1.99034">
        <ele>112.2</ele>
        <time>2026-03-20T16:34:54Z</time>
      </trkpt>
      <trkpt lat="48.60381" lon="1.99029">
        <ele>113.2</ele>
        <time>2026-03-20T16:34:55Z</time>
      </trkpt>
      <trkpt lat="48.60384" lon="1.99024">
        <ele>112.6</ele>
        <time>2026-03-20T16:34:56Z</time>
      </trkpt>
      <trkpt lat="48.60387" lon="1.9902">
        <ele>112.6</ele>
        <time>2026-03-20T16:34:57Z</time>
      </trkpt>
      <trkpt lat="48.6039" lon="1.99015">
        <ele>112.6</ele>
        <time>2026-03-20T16:34:58Z</time>
      </trkpt>
      <trkpt lat="48.60394" lon="1.99011">
        <ele>113.4</ele>
        <time>2026-03-20T16:34:59Z</time>
      </trkpt>
      <trkpt lat="48.60396" lon="1.99005">
        <ele>113</ele>
        <time>2026-03-20T16:35:00Z</time>
      </trkpt>
      <trkpt lat="48.60399" lon="1.99001">
        <ele>113</ele>
        <time>2026-03-20T16:35:01Z</time>
      </trkpt>
      <trkpt lat="48.60402" lon="1.98996">
        <ele>113</ele>
        <time>2026-03-20T16:35:02Z</time>
      </trkpt>
      <trkpt lat="48.60405" lon="1.98991">
        <ele>113.4</ele>
        <time>2026-03-20T16:35:03Z</time>
      </trkpt>
      <trkpt lat="48.60408" lon="1.98986">
        <ele>113.4</ele>
        <time>2026-03-20T16:35:04Z</time>
      </trkpt>
      <trkpt lat="48.60411" lon="1.98981">
        <ele>113.4</ele>
        <time>2026-03-20T16:35:05Z</time>
      </trkpt>
      <trkpt lat="48.60414" lon="1.98976">
        <ele>113.4</ele>
        <time>2026-03-20T16:35:06Z</time>
      </trkpt>
      <trkpt lat="48.60418" lon="1.98971">
        <ele>113.4</ele>
        <time>2026-03-20T16:35:07Z</time>
      </trkpt>
      <trkpt lat="48.60421" lon="1.98965">
        <ele>113.6</ele>
        <time>2026-03-20T16:35:08Z</time>
      </trkpt>
      <trkpt lat="48.60424" lon="1.9896">
        <ele>113.6</ele>
        <time>2026-03-20T16:35:09Z</time>
      </trkpt>
      <trkpt lat="48.60427" lon="1.98955">
        <ele>113.6</ele>
        <time>2026-03-20T16:35:10Z</time>
      </trkpt>
      <trkpt lat="48.6043" lon="1.9895">
        <ele>113</ele>
        <time>2026-03-20T16:35:11Z</time>
      </trkpt>
      <trkpt lat="48.60433" lon="1.98945">
        <ele>113</ele>
        <time>2026-03-20T16:35:12Z</time>
      </trkpt>
      <trkpt lat="48.60435" lon="1.9894">
        <ele>113</ele>
        <time>2026-03-20T16:35:13Z</time>
      </trkpt>
      <trkpt lat="48.60438" lon="1.98934">
        <ele>113</ele>
        <time>2026-03-20T16:35:14Z</time>
      </trkpt>
      <trkpt lat="48.60442" lon="1.98929">
        <ele>113</ele>
        <time>2026-03-20T16:35:15Z</time>
      </trkpt>
      <trkpt lat="48.60444" lon="1.98924">
        <ele>113.4</ele>
        <time>2026-03-20T16:35:16Z</time>
      </trkpt>
      <trkpt lat="48.60447" lon="1.98919">
        <ele>113.4</ele>
        <time>2026-03-20T16:35:17Z</time>
      </trkpt>
      <trkpt lat="48.60451" lon="1.98915">
        <ele>113.4</ele>
        <time>2026-03-20T16:35:18Z</time>
      </trkpt>
      <trkpt lat="48.60454" lon="1.9891">
        <ele>113.2</ele>
        <time>2026-03-20T16:35:19Z</time>
      </trkpt>
      <trkpt lat="48.60456" lon="1.98904">
        <ele>113.4</ele>
        <time>2026-03-20T16:35:20Z</time>
      </trkpt>
      <trkpt lat="48.60459" lon="1.98899">
        <ele>113.4</ele>
        <time>2026-03-20T16:35:21Z</time>
      </trkpt>
      <trkpt lat="48.60462" lon="1.98894">
        <ele>113.4</ele>
        <time>2026-03-20T16:35:22Z</time>
      </trkpt>
      <trkpt lat="48.60465" lon="1.98889">
        <ele>113.4</ele>
        <time>2026-03-20T16:35:23Z</time>
      </trkpt>
      <trkpt lat="48.60468" lon="1.98884">
        <ele>113.6</ele>
        <time>2026-03-20T16:35:24Z</time>
      </trkpt>
      <trkpt lat="48.60471" lon="1.98879">
        <ele>113.6</ele>
        <time>2026-03-20T16:35:25Z</time>
      </trkpt>
      <trkpt lat="48.60474" lon="1.98874">
        <ele>113.6</ele>
        <time>2026-03-20T16:35:26Z</time>
      </trkpt>
      <trkpt lat="48.60477" lon="1.98869">
        <ele>113.6</ele>
        <time>2026-03-20T16:35:27Z</time>
      </trkpt>
      <trkpt lat="48.6048" lon="1.98864">
        <ele>113.8</ele>
        <time>2026-03-20T16:35:28Z</time>
      </trkpt>
      <trkpt lat="48.60483" lon="1.98858">
        <ele>113.8</ele>
        <time>2026-03-20T16:35:29Z</time>
      </trkpt>
      <trkpt lat="48.60486" lon="1.98853">
        <ele>113.8</ele>
        <time>2026-03-20T16:35:30Z</time>
      </trkpt>
      <trkpt lat="48.60489" lon="1.98848">
        <ele>113.6</ele>
        <time>2026-03-20T16:35:31Z</time>
      </trkpt>
      <trkpt lat="48.60493" lon="1.98843">
        <ele>113.4</ele>
        <time>2026-03-20T16:35:32Z</time>
      </trkpt>
      <trkpt lat="48.60496" lon="1.98839">
        <ele>113.4</ele>
        <time>2026-03-20T16:35:33Z</time>
      </trkpt>
      <trkpt lat="48.60499" lon="1.98834">
        <ele>113.4</ele>
        <time>2026-03-20T16:35:34Z</time>
      </trkpt>
      <trkpt lat="48.60502" lon="1.98829">
        <ele>113.4</ele>
        <time>2026-03-20T16:35:35Z</time>
      </trkpt>
      <trkpt lat="48.60505" lon="1.98823">
        <ele>113.8</ele>
        <time>2026-03-20T16:35:36Z</time>
      </trkpt>
      <trkpt lat="48.60508" lon="1.98818">
        <ele>113.8</ele>
        <time>2026-03-20T16:35:37Z</time>
      </trkpt>
      <trkpt lat="48.60511" lon="1.98813">
        <ele>113.8</ele>
        <time>2026-03-20T16:35:38Z</time>
      </trkpt>
      <trkpt lat="48.60514" lon="1.98808">
        <ele>113.8</ele>
        <time>2026-03-20T16:35:39Z</time>
      </trkpt>
      <trkpt lat="48.60518" lon="1.98802">
        <ele>114</ele>
        <time>2026-03-20T16:35:40Z</time>
      </trkpt>
      <trkpt lat="48.60521" lon="1.98797">
        <ele>114</ele>
        <time>2026-03-20T16:35:41Z</time>
      </trkpt>
      <trkpt lat="48.60524" lon="1.98792">
        <ele>114</ele>
        <time>2026-03-20T16:35:42Z</time>
      </trkpt>
      <trkpt lat="48.60527" lon="1.98787">
        <ele>114</ele>
        <time>2026-03-20T16:35:43Z</time>
      </trkpt>
      <trkpt lat="48.60531" lon="1.98781">
        <ele>114</ele>
        <time>2026-03-20T16:35:44Z</time>
      </trkpt>
      <trkpt lat="48.60533" lon="1.98776">
        <ele>114</ele>
        <time>2026-03-20T16:35:45Z</time>
      </trkpt>
      <trkpt lat="48.60536" lon="1.98771">
        <ele>114</ele>
        <time>2026-03-20T16:35:46Z</time>
      </trkpt>
      <trkpt lat="48.60538" lon="1.98765">
        <ele>114</ele>
        <time>2026-03-20T16:35:47Z</time>
      </trkpt>
      <trkpt lat="48.60541" lon="1.98759">
        <ele>114</ele>
        <time>2026-03-20T16:35:48Z</time>
      </trkpt>
      <trkpt lat="48.60544" lon="1.98755">
        <ele>114</ele>
        <time>2026-03-20T16:35:49Z</time>
      </trkpt>
      <trkpt lat="48.60546" lon="1.98751">
        <ele>114</ele>
        <time>2026-03-20T16:35:50Z</time>
      </trkpt>
      <trkpt lat="48.60549" lon="1.98745">
        <ele>114</ele>
        <time>2026-03-20T16:35:51Z</time>
      </trkpt>
      <trkpt lat="48.60552" lon="1.9874">
        <ele>114.2</ele>
        <time>2026-03-20T16:35:52Z</time>
      </trkpt>
      <trkpt lat="48.60555" lon="1.98736">
        <ele>114.2</ele>
        <time>2026-03-20T16:35:53Z</time>
      </trkpt>
      <trkpt lat="48.60558" lon="1.98731">
        <ele>114.2</ele>
        <time>2026-03-20T16:35:54Z</time>
      </trkpt>
      <trkpt lat="48.60561" lon="1.98725">
        <ele>114.2</ele>
        <time>2026-03-20T16:35:55Z</time>
      </trkpt>
      <trkpt lat="48.60564" lon="1.9872">
        <ele>114.2</ele>
        <time>2026-03-20T16:35:56Z</time>
      </trkpt>
      <trkpt lat="48.60568" lon="1.98715">
        <ele>114.2</ele>
        <time>2026-03-20T16:35:57Z</time>
      </trkpt>
      <trkpt lat="48.60571" lon="1.98709">
        <ele>114.2</ele>
        <time>2026-03-20T16:35:58Z</time>
      </trkpt>
      <trkpt lat="48.60574" lon="1.98704">
        <ele>114.2</ele>
        <time>2026-03-20T16:35:59Z</time>
      </trkpt>
      <trkpt lat="48.60577" lon="1.98698">
        <ele>114</ele>
        <time>2026-03-20T16:36:00Z</time>
      </trkpt>
      <trkpt lat="48.6058" lon="1.98692">
        <ele>114</ele>
        <time>2026-03-20T16:36:01Z</time>
      </trkpt>
      <trkpt lat="48.60583" lon="1.98688">
        <ele>114</ele>
        <time>2026-03-20T16:36:02Z</time>
      </trkpt>
      <trkpt lat="48.60585" lon="1.98682">
        <ele>114.6</ele>
        <time>2026-03-20T16:36:03Z</time>
      </trkpt>
      <trkpt lat="48.60588" lon="1.98676">
        <ele>114.8</ele>
        <time>2026-03-20T16:36:04Z</time>
      </trkpt>
      <trkpt lat="48.60591" lon="1.9867">
        <ele>114.8</ele>
        <time>2026-03-20T16:36:05Z</time>
      </trkpt>
      <trkpt lat="48.60594" lon="1.98665">
        <ele>114.8</ele>
        <time>2026-03-20T16:36:06Z</time>
      </trkpt>
      <trkpt lat="48.60596" lon="1.9866">
        <ele>114.6</ele>
        <time>2026-03-20T16:36:07Z</time>
      </trkpt>
      <trkpt lat="48.60599" lon="1.98655">
        <ele>114.8</ele>
        <time>2026-03-20T16:36:08Z</time>
      </trkpt>
      <trkpt lat="48.60602" lon="1.9865">
        <ele>114.8</ele>
        <time>2026-03-20T16:36:09Z</time>
      </trkpt>
      <trkpt lat="48.60606" lon="1.98644">
        <ele>114.8</ele>
        <time>2026-03-20T16:36:10Z</time>
      </trkpt>
      <trkpt lat="48.60609" lon="1.98638">
        <ele>114.8</ele>
        <time>2026-03-20T16:36:11Z</time>
      </trkpt>
      <trkpt lat="48.60612" lon="1.98633">
        <ele>114.8</ele>
        <time>2026-03-20T16:36:12Z</time>
      </trkpt>
      <trkpt lat="48.60615" lon="1.98628">
        <ele>114.8</ele>
        <time>2026-03-20T16:36:13Z</time>
      </trkpt>
      <trkpt lat="48.60619" lon="1.98623">
        <ele>114.8</ele>
        <time>2026-03-20T16:36:14Z</time>
      </trkpt>
      <trkpt lat="48.60622" lon="1.98619">
        <ele>114.8</ele>
        <time>2026-03-20T16:36:15Z</time>
      </trkpt>
      <trkpt lat="48.60624" lon="1.98613">
        <ele>115</ele>
        <time>2026-03-20T16:36:16Z</time>
      </trkpt>
      <trkpt lat="48.60626" lon="1.98608">
        <ele>115</ele>
        <time>2026-03-20T16:36:17Z</time>
      </trkpt>
      <trkpt lat="48.60629" lon="1.98602">
        <ele>115</ele>
        <time>2026-03-20T16:36:18Z</time>
      </trkpt>
      <trkpt lat="48.60632" lon="1.98596">
        <ele>115.2</ele>
        <time>2026-03-20T16:36:19Z</time>
      </trkpt>
      <trkpt lat="48.60635" lon="1.9859">
        <ele>115.6</ele>
        <time>2026-03-20T16:36:20Z</time>
      </trkpt>
      <trkpt lat="48.60638" lon="1.98585">
        <ele>115.6</ele>
        <time>2026-03-20T16:36:21Z</time>
      </trkpt>
      <trkpt lat="48.60641" lon="1.98578">
        <ele>115.6</ele>
        <time>2026-03-20T16:36:22Z</time>
      </trkpt>
      <trkpt lat="48.60643" lon="1.98572">
        <ele>115.6</ele>
        <time>2026-03-20T16:36:23Z</time>
      </trkpt>
      <trkpt lat="48.60646" lon="1.98565">
        <ele>115.6</ele>
        <time>2026-03-20T16:36:24Z</time>
      </trkpt>
      <trkpt lat="48.60648" lon="1.98559">
        <ele>115.6</ele>
        <time>2026-03-20T16:36:25Z</time>
      </trkpt>
      <trkpt lat="48.60651" lon="1.98553">
        <ele>115.6</ele>
        <time>2026-03-20T16:36:26Z</time>
      </trkpt>
      <trkpt lat="48.60653" lon="1.98547">
        <ele>115.6</ele>
        <time>2026-03-20T16:36:27Z</time>
      </trkpt>
      <trkpt lat="48.60655" lon="1.9854">
        <ele>115.4</ele>
        <time>2026-03-20T16:36:28Z</time>
      </trkpt>
      <trkpt lat="48.60657" lon="1.98533">
        <ele>115.4</ele>
        <time>2026-03-20T16:36:29Z</time>
      </trkpt>
      <trkpt lat="48.60658" lon="1.98526">
        <ele>115.4</ele>
        <time>2026-03-20T16:36:30Z</time>
      </trkpt>
      <trkpt lat="48.6066" lon="1.9852">
        <ele>116</ele>
        <time>2026-03-20T16:36:31Z</time>
      </trkpt>
      <trkpt lat="48.60661" lon="1.98514">
        <ele>115.4</ele>
        <time>2026-03-20T16:36:32Z</time>
      </trkpt>
      <trkpt lat="48.60663" lon="1.98507">
        <ele>115.4</ele>
        <time>2026-03-20T16:36:33Z</time>
      </trkpt>
      <trkpt lat="48.60665" lon="1.98501">
        <ele>115.4</ele>
        <time>2026-03-20T16:36:34Z</time>
      </trkpt>
      <trkpt lat="48.60667" lon="1.98494">
        <ele>115.6</ele>
        <time>2026-03-20T16:36:35Z</time>
      </trkpt>
      <trkpt lat="48.60668" lon="1.98488">
        <ele>115.8</ele>
        <time>2026-03-20T16:36:36Z</time>
      </trkpt>
      <trkpt lat="48.6067" lon="1.98482">
        <ele>115.8</ele>
        <time>2026-03-20T16:36:37Z</time>
      </trkpt>
      <trkpt lat="48.60671" lon="1.98476">
        <ele>115.8</ele>
        <time>2026-03-20T16:36:38Z</time>
      </trkpt>
      <trkpt lat="48.60673" lon="1.9847">
        <ele>115.8</ele>
        <time>2026-03-20T16:36:39Z</time>
      </trkpt>
      <trkpt lat="48.60675" lon="1.98463">
        <ele>115.6</ele>
        <time>2026-03-20T16:36:40Z</time>
      </trkpt>
      <trkpt lat="48.60677" lon="1.98456">
        <ele>115.6</ele>
        <time>2026-03-20T16:36:41Z</time>
      </trkpt>
      <trkpt lat="48.60678" lon="1.9845">
        <ele>115.6</ele>
        <time>2026-03-20T16:36:42Z</time>
      </trkpt>
      <trkpt lat="48.6068" lon="1.98443">
        <ele>116.2</ele>
        <time>2026-03-20T16:36:43Z</time>
      </trkpt>
      <trkpt lat="48.60682" lon="1.98436">
        <ele>116</ele>
        <time>2026-03-20T16:36:44Z</time>
      </trkpt>
      <trkpt lat="48.60684" lon="1.98429">
        <ele>116</ele>
        <time>2026-03-20T16:36:45Z</time>
      </trkpt>
      <trkpt lat="48.60687" lon="1.98421">
        <ele>116</ele>
        <time>2026-03-20T16:36:46Z</time>
      </trkpt>
      <trkpt lat="48.60689" lon="1.98414">
        <ele>116</ele>
        <time>2026-03-20T16:36:47Z</time>
      </trkpt>
      <trkpt lat="48.60691" lon="1.98407">
        <ele>116.4</ele>
        <time>2026-03-20T16:36:48Z</time>
      </trkpt>
      <trkpt lat="48.60692" lon="1.984">
        <ele>116.4</ele>
        <time>2026-03-20T16:36:49Z</time>
      </trkpt>
      <trkpt lat="48.60693" lon="1.98394">
        <ele>116.4</ele>
        <time>2026-03-20T16:36:50Z</time>
      </trkpt>
      <trkpt lat="48.60695" lon="1.98388">
        <ele>116.4</ele>
        <time>2026-03-20T16:36:51Z</time>
      </trkpt>
      <trkpt lat="48.60696" lon="1.98382">
        <ele>116.2</ele>
        <time>2026-03-20T16:36:52Z</time>
      </trkpt>
      <trkpt lat="48.60699" lon="1.98375">
        <ele>116.2</ele>
        <time>2026-03-20T16:36:53Z</time>
      </trkpt>
      <trkpt lat="48.607" lon="1.98368">
        <ele>116.2</ele>
        <time>2026-03-20T16:36:54Z</time>
      </trkpt>
      <trkpt lat="48.60701" lon="1.98363">
        <ele>116.8</ele>
        <time>2026-03-20T16:36:55Z</time>
      </trkpt>
      <trkpt lat="48.60703" lon="1.98356">
        <ele>116.8</ele>
        <time>2026-03-20T16:36:56Z</time>
      </trkpt>
      <trkpt lat="48.60704" lon="1.9835">
        <ele>116.8</ele>
        <time>2026-03-20T16:36:57Z</time>
      </trkpt>
      <trkpt lat="48.60706" lon="1.98344">
        <ele>116.8</ele>
        <time>2026-03-20T16:36:58Z</time>
      </trkpt>
      <trkpt lat="48.60708" lon="1.98339">
        <ele>117</ele>
        <time>2026-03-20T16:36:59Z</time>
      </trkpt>
      <trkpt lat="48.6071" lon="1.98332">
        <ele>117.6</ele>
        <time>2026-03-20T16:37:00Z</time>
      </trkpt>
      <trkpt lat="48.60713" lon="1.98326">
        <ele>117.6</ele>
        <time>2026-03-20T16:37:01Z</time>
      </trkpt>
      <trkpt lat="48.60715" lon="1.9832">
        <ele>117.6</ele>
        <time>2026-03-20T16:37:02Z</time>
      </trkpt>
      <trkpt lat="48.60718" lon="1.98315">
        <ele>117.6</ele>
        <time>2026-03-20T16:37:03Z</time>
      </trkpt>
      <trkpt lat="48.6072" lon="1.9831">
        <ele>118.2</ele>
        <time>2026-03-20T16:37:04Z</time>
      </trkpt>
      <trkpt lat="48.60723" lon="1.98305">
        <ele>118.2</ele>
        <time>2026-03-20T16:37:05Z</time>
      </trkpt>
      <trkpt lat="48.60726" lon="1.98301">
        <ele>118.2</ele>
        <time>2026-03-20T16:37:06Z</time>
      </trkpt>
      <trkpt lat="48.6073" lon="1.98295">
        <ele>118.2</ele>
        <time>2026-03-20T16:37:07Z</time>
      </trkpt>
      <trkpt lat="48.60733" lon="1.9829">
        <ele>118.4</ele>
        <time>2026-03-20T16:37:08Z</time>
      </trkpt>
      <trkpt lat="48.60736" lon="1.98286">
        <ele>118.4</ele>
        <time>2026-03-20T16:37:09Z</time>
      </trkpt>
      <trkpt lat="48.6074" lon="1.98282">
        <ele>118.4</ele>
        <time>2026-03-20T16:37:10Z</time>
      </trkpt>
      <trkpt lat="48.60743" lon="1.98277">
        <ele>117.8</ele>
        <time>2026-03-20T16:37:11Z</time>
      </trkpt>
      <trkpt lat="48.60746" lon="1.98273">
        <ele>118.2</ele>
        <time>2026-03-20T16:37:12Z</time>
      </trkpt>
      <trkpt lat="48.60749" lon="1.98269">
        <ele>118.2</ele>
        <time>2026-03-20T16:37:13Z</time>
      </trkpt>
      <trkpt lat="48.60753" lon="1.98265">
        <ele>118.2</ele>
        <time>2026-03-20T16:37:14Z</time>
      </trkpt>
      <trkpt lat="48.60756" lon="1.98261">
        <ele>117.8</ele>
        <time>2026-03-20T16:37:15Z</time>
      </trkpt>
      <trkpt lat="48.60758" lon="1.98256">
        <ele>118.4</ele>
        <time>2026-03-20T16:37:16Z</time>
      </trkpt>
      <trkpt lat="48.60762" lon="1.98251">
        <ele>118.4</ele>
        <time>2026-03-20T16:37:17Z</time>
      </trkpt>
      <trkpt lat="48.60766" lon="1.98247">
        <ele>118.4</ele>
        <time>2026-03-20T16:37:18Z</time>
      </trkpt>
      <trkpt lat="48.6077" lon="1.98241">
        <ele>118.2</ele>
        <time>2026-03-20T16:37:19Z</time>
      </trkpt>
      <trkpt lat="48.60774" lon="1.98234">
        <ele>117.8</ele>
        <time>2026-03-20T16:37:20Z</time>
      </trkpt>
      <trkpt lat="48.60777" lon="1.98228">
        <ele>117.8</ele>
        <time>2026-03-20T16:37:21Z</time>
      </trkpt>
      <trkpt lat="48.6078" lon="1.98222">
        <ele>117.8</ele>
        <time>2026-03-20T16:37:22Z</time>
      </trkpt>
      <trkpt lat="48.60783" lon="1.98216">
        <ele>117.8</ele>
        <time>2026-03-20T16:37:23Z</time>
      </trkpt>
      <trkpt lat="48.60786" lon="1.9821">
        <ele>117.4</ele>
        <time>2026-03-20T16:37:24Z</time>
      </trkpt>
      <trkpt lat="48.60789" lon="1.98203">
        <ele>117.4</ele>
        <time>2026-03-20T16:37:25Z</time>
      </trkpt>
      <trkpt lat="48.60792" lon="1.98197">
        <ele>117.4</ele>
        <time>2026-03-20T16:37:26Z</time>
      </trkpt>
      <trkpt lat="48.60795" lon="1.98191">
        <ele>117.4</ele>
        <time>2026-03-20T16:37:27Z</time>
      </trkpt>
      <trkpt lat="48.60799" lon="1.98185">
        <ele>117</ele>
        <time>2026-03-20T16:37:28Z</time>
      </trkpt>
      <trkpt lat="48.60802" lon="1.98179">
        <ele>117</ele>
        <time>2026-03-20T16:37:29Z</time>
      </trkpt>
      <trkpt lat="48.60806" lon="1.98172">
        <ele>117</ele>
        <time>2026-03-20T16:37:30Z</time>
      </trkpt>
      <trkpt lat="48.60809" lon="1.98167">
        <ele>117</ele>
        <time>2026-03-20T16:37:31Z</time>
      </trkpt>
      <trkpt lat="48.60814" lon="1.98161">
        <ele>116.4</ele>
        <time>2026-03-20T16:37:32Z</time>
      </trkpt>
      <trkpt lat="48.60817" lon="1.98154">
        <ele>116.4</ele>
        <time>2026-03-20T16:37:33Z</time>
      </trkpt>
      <trkpt lat="48.60821" lon="1.98148">
        <ele>116.4</ele>
        <time>2026-03-20T16:37:34Z</time>
      </trkpt>
      <trkpt lat="48.60825" lon="1.98142">
        <ele>116.4</ele>
        <time>2026-03-20T16:37:35Z</time>
      </trkpt>
      <trkpt lat="48.60829" lon="1.98136">
        <ele>116</ele>
        <time>2026-03-20T16:37:36Z</time>
      </trkpt>
      <trkpt lat="48.60833" lon="1.98129">
        <ele>116</ele>
        <time>2026-03-20T16:37:37Z</time>
      </trkpt>
      <trkpt lat="48.60836" lon="1.98124">
        <ele>116</ele>
        <time>2026-03-20T16:37:38Z</time>
      </trkpt>
      <trkpt lat="48.6084" lon="1.98118">
        <ele>116.2</ele>
        <time>2026-03-20T16:37:39Z</time>
      </trkpt>
      <trkpt lat="48.60844" lon="1.98112">
        <ele>116.6</ele>
        <time>2026-03-20T16:37:40Z</time>
      </trkpt>
      <trkpt lat="48.60849" lon="1.98107">
        <ele>116.6</ele>
        <time>2026-03-20T16:37:41Z</time>
      </trkpt>
      <trkpt lat="48.60853" lon="1.98101">
        <ele>116.6</ele>
        <time>2026-03-20T16:37:42Z</time>
      </trkpt>
      <trkpt lat="48.60857" lon="1.98094">
        <ele>116.2</ele>
        <time>2026-03-20T16:37:43Z</time>
      </trkpt>
      <trkpt lat="48.60861" lon="1.98089">
        <ele>116</ele>
        <time>2026-03-20T16:37:44Z</time>
      </trkpt>
      <trkpt lat="48.60864" lon="1.98083">
        <ele>116</ele>
        <time>2026-03-20T16:37:45Z</time>
      </trkpt>
      <trkpt lat="48.60868" lon="1.98077">
        <ele>116</ele>
        <time>2026-03-20T16:37:46Z</time>
      </trkpt>
      <trkpt lat="48.60872" lon="1.98072">
        <ele>116</ele>
        <time>2026-03-20T16:37:47Z</time>
      </trkpt>
      <trkpt lat="48.60876" lon="1.98067">
        <ele>115.2</ele>
        <time>2026-03-20T16:37:48Z</time>
      </trkpt>
      <trkpt lat="48.6088" lon="1.98062">
        <ele>115.2</ele>
        <time>2026-03-20T16:37:49Z</time>
      </trkpt>
      <trkpt lat="48.60884" lon="1.98057">
        <ele>115.2</ele>
        <time>2026-03-20T16:37:50Z</time>
      </trkpt>
      <trkpt lat="48.60887" lon="1.98052">
        <ele>115.2</ele>
        <time>2026-03-20T16:37:51Z</time>
      </trkpt>
      <trkpt lat="48.60891" lon="1.98048">
        <ele>115.6</ele>
        <time>2026-03-20T16:37:52Z</time>
      </trkpt>
      <trkpt lat="48.60895" lon="1.98043">
        <ele>115.6</ele>
        <time>2026-03-20T16:37:53Z</time>
      </trkpt>
      <trkpt lat="48.60898" lon="1.98039">
        <ele>115.6</ele>
        <time>2026-03-20T16:37:54Z</time>
      </trkpt>
      <trkpt lat="48.60903" lon="1.98033">
        <ele>115.6</ele>
        <time>2026-03-20T16:37:55Z</time>
      </trkpt>
      <trkpt lat="48.60907" lon="1.98028">
        <ele>115.2</ele>
        <time>2026-03-20T16:37:56Z</time>
      </trkpt>
      <trkpt lat="48.60911" lon="1.98024">
        <ele>115.2</ele>
        <time>2026-03-20T16:37:57Z</time>
      </trkpt>
      <trkpt lat="48.60915" lon="1.98018">
        <ele>115.2</ele>
        <time>2026-03-20T16:37:58Z</time>
      </trkpt>
      <trkpt lat="48.60919" lon="1.98013">
        <ele>115.2</ele>
        <time>2026-03-20T16:37:59Z</time>
      </trkpt>
      <trkpt lat="48.60923" lon="1.98006">
        <ele>115.6</ele>
        <time>2026-03-20T16:38:00Z</time>
      </trkpt>
      <trkpt lat="48.60928" lon="1.98001">
        <ele>115.6</ele>
        <time>2026-03-20T16:38:01Z</time>
      </trkpt>
      <trkpt lat="48.60932" lon="1.97995">
        <ele>115.6</ele>
        <time>2026-03-20T16:38:02Z</time>
      </trkpt>
      <trkpt lat="48.60937" lon="1.97989">
        <ele>115.6</ele>
        <time>2026-03-20T16:38:03Z</time>
      </trkpt>
      <trkpt lat="48.60941" lon="1.97984">
        <ele>115.6</ele>
        <time>2026-03-20T16:38:04Z</time>
      </trkpt>
      <trkpt lat="48.60946" lon="1.97979">
        <ele>115.6</ele>
        <time>2026-03-20T16:38:05Z</time>
      </trkpt>
      <trkpt lat="48.6095" lon="1.97973">
        <ele>115.6</ele>
        <time>2026-03-20T16:38:06Z</time>
      </trkpt>
      <trkpt lat="48.60954" lon="1.97968">
        <ele>115.8</ele>
        <time>2026-03-20T16:38:07Z</time>
      </trkpt>
      <trkpt lat="48.60958" lon="1.97962">
        <ele>115.6</ele>
        <time>2026-03-20T16:38:08Z</time>
      </trkpt>
      <trkpt lat="48.60962" lon="1.97956">
        <ele>115.6</ele>
        <time>2026-03-20T16:38:09Z</time>
      </trkpt>
      <trkpt lat="48.60966" lon="1.9795">
        <ele>115.6</ele>
        <time>2026-03-20T16:38:10Z</time>
      </trkpt>
      <trkpt lat="48.60971" lon="1.97945">
        <ele>116</ele>
        <time>2026-03-20T16:38:11Z</time>
      </trkpt>
      <trkpt lat="48.60975" lon="1.97941">
        <ele>115.8</ele>
        <time>2026-03-20T16:38:12Z</time>
      </trkpt>
      <trkpt lat="48.60979" lon="1.97935">
        <ele>115.8</ele>
        <time>2026-03-20T16:38:13Z</time>
      </trkpt>
      <trkpt lat="48.60983" lon="1.9793">
        <ele>115.8</ele>
        <time>2026-03-20T16:38:14Z</time>
      </trkpt>
      <trkpt lat="48.60987" lon="1.97925">
        <ele>115.8</ele>
        <time>2026-03-20T16:38:15Z</time>
      </trkpt>
      <trkpt lat="48.60992" lon="1.97919">
        <ele>115.6</ele>
        <time>2026-03-20T16:38:16Z</time>
      </trkpt>
      <trkpt lat="48.60996" lon="1.97914">
        <ele>115.6</ele>
        <time>2026-03-20T16:38:17Z</time>
      </trkpt>
      <trkpt lat="48.61001" lon="1.97908">
        <ele>115.6</ele>
        <time>2026-03-20T16:38:18Z</time>
      </trkpt>
      <trkpt lat="48.61005" lon="1.97904">
        <ele>114.8</ele>
        <time>2026-03-20T16:38:19Z</time>
      </trkpt>
      <trkpt lat="48.6101" lon="1.97899">
        <ele>115</ele>
        <time>2026-03-20T16:38:20Z</time>
      </trkpt>
      <trkpt lat="48.61015" lon="1.97895">
        <ele>115</ele>
        <time>2026-03-20T16:38:21Z</time>
      </trkpt>
      <trkpt lat="48.6102" lon="1.9789">
        <ele>115</ele>
        <time>2026-03-20T16:38:22Z</time>
      </trkpt>
      <trkpt lat="48.61025" lon="1.97886">
        <ele>115.2</ele>
        <time>2026-03-20T16:38:23Z</time>
      </trkpt>
      <trkpt lat="48.6103" lon="1.97883">
        <ele>115.2</ele>
        <time>2026-03-20T16:38:24Z</time>
      </trkpt>
      <trkpt lat="48.61035" lon="1.9788">
        <ele>115.2</ele>
        <time>2026-03-20T16:38:25Z</time>
      </trkpt>
      <trkpt lat="48.61039" lon="1.97877">
        <ele>115.2</ele>
        <time>2026-03-20T16:38:26Z</time>
      </trkpt>
      <trkpt lat="48.61044" lon="1.97874">
        <ele>114.8</ele>
        <time>2026-03-20T16:38:27Z</time>
      </trkpt>
      <trkpt lat="48.61049" lon="1.97871">
        <ele>114.2</ele>
        <time>2026-03-20T16:38:28Z</time>
      </trkpt>
      <trkpt lat="48.61055" lon="1.97868">
        <ele>114.2</ele>
        <time>2026-03-20T16:38:29Z</time>
      </trkpt>
      <trkpt lat="48.61061" lon="1.97865">
        <ele>114.2</ele>
        <time>2026-03-20T16:38:30Z</time>
      </trkpt>
      <trkpt lat="48.61066" lon="1.97862">
        <ele>114.2</ele>
        <time>2026-03-20T16:38:31Z</time>
      </trkpt>
      <trkpt lat="48.61072" lon="1.9786">
        <ele>114.8</ele>
        <time>2026-03-20T16:38:32Z</time>
      </trkpt>
      <trkpt lat="48.61077" lon="1.97857">
        <ele>114.8</ele>
        <time>2026-03-20T16:38:33Z</time>
      </trkpt>
      <trkpt lat="48.61082" lon="1.97855">
        <ele>114.8</ele>
        <time>2026-03-20T16:38:34Z</time>
      </trkpt>
      <trkpt lat="48.61087" lon="1.97853">
        <ele>114.6</ele>
        <time>2026-03-20T16:38:35Z</time>
      </trkpt>
      <trkpt lat="48.61092" lon="1.9785">
        <ele>114.2</ele>
        <time>2026-03-20T16:38:36Z</time>
      </trkpt>
      <trkpt lat="48.61097" lon="1.97848">
        <ele>114.2</ele>
        <time>2026-03-20T16:38:37Z</time>
      </trkpt>
      <trkpt lat="48.61101" lon="1.97847">
        <ele>114.2</ele>
        <time>2026-03-20T16:38:38Z</time>
      </trkpt>
      <trkpt lat="48.61106" lon="1.97844">
        <ele>115</ele>
        <time>2026-03-20T16:38:39Z</time>
      </trkpt>
      <trkpt lat="48.61111" lon="1.97842">
        <ele>114.8</ele>
        <time>2026-03-20T16:38:40Z</time>
      </trkpt>
      <trkpt lat="48.61116" lon="1.97839">
        <ele>114.8</ele>
        <time>2026-03-20T16:38:41Z</time>
      </trkpt>
      <trkpt lat="48.61121" lon="1.97836">
        <ele>114.8</ele>
        <time>2026-03-20T16:38:42Z</time>
      </trkpt>
      <trkpt lat="48.61127" lon="1.97833">
        <ele>114.6</ele>
        <time>2026-03-20T16:38:43Z</time>
      </trkpt>
      <trkpt lat="48.61132" lon="1.97831">
        <ele>114.6</ele>
        <time>2026-03-20T16:38:44Z</time>
      </trkpt>
      <trkpt lat="48.61138" lon="1.97827">
        <ele>114.6</ele>
        <time>2026-03-20T16:38:45Z</time>
      </trkpt>
      <trkpt lat="48.61143" lon="1.97824">
        <ele>114.6</ele>
        <time>2026-03-20T16:38:46Z</time>
      </trkpt>
      <trkpt lat="48.61148" lon="1.97822">
        <ele>114.6</ele>
        <time>2026-03-20T16:38:47Z</time>
      </trkpt>
      <trkpt lat="48.61153" lon="1.9782">
        <ele>115.4</ele>
        <time>2026-03-20T16:38:48Z</time>
      </trkpt>
      <trkpt lat="48.61158" lon="1.97818">
        <ele>115.4</ele>
        <time>2026-03-20T16:38:49Z</time>
      </trkpt>
      <trkpt lat="48.61163" lon="1.97816">
        <ele>115.4</ele>
        <time>2026-03-20T16:38:50Z</time>
      </trkpt>
      <trkpt lat="48.61166" lon="1.97815">
        <ele>115.2</ele>
        <time>2026-03-20T16:38:51Z</time>
      </trkpt>
      <trkpt lat="48.6117" lon="1.97813">
        <ele>115.2</ele>
        <time>2026-03-20T16:38:52Z</time>
      </trkpt>
      <trkpt lat="48.61174" lon="1.97811">
        <ele>115.2</ele>
        <time>2026-03-20T16:38:53Z</time>
      </trkpt>
      <trkpt lat="48.61178" lon="1.9781">
        <ele>115.2</ele>
        <time>2026-03-20T16:38:54Z</time>
      </trkpt>
      <trkpt lat="48.61182" lon="1.97809">
        <ele>115.6</ele>
        <time>2026-03-20T16:38:55Z</time>
      </trkpt>
      <trkpt lat="48.61185" lon="1.97808">
        <ele>116</ele>
        <time>2026-03-20T16:38:56Z</time>
      </trkpt>
      <trkpt lat="48.61188" lon="1.97809">
        <ele>116</ele>
        <time>2026-03-20T16:38:57Z</time>
      </trkpt>
      <trkpt lat="48.6119" lon="1.97811">
        <ele>116</ele>
        <time>2026-03-20T16:38:58Z</time>
      </trkpt>
      <trkpt lat="48.61192" lon="1.97814">
        <ele>116</ele>
        <time>2026-03-20T16:38:59Z</time>
      </trkpt>
      <trkpt lat="48.61193" lon="1.97818">
        <ele>115.2</ele>
        <time>2026-03-20T16:39:00Z</time>
      </trkpt>
      <trkpt lat="48.61195" lon="1.97822">
        <ele>115.2</ele>
        <time>2026-03-20T16:39:01Z</time>
      </trkpt>
      <trkpt lat="48.61197" lon="1.97826">
        <ele>115.2</ele>
        <time>2026-03-20T16:39:02Z</time>
      </trkpt>
      <trkpt lat="48.61199" lon="1.97831">
        <ele>115.2</ele>
        <time>2026-03-20T16:39:03Z</time>
      </trkpt>
      <trkpt lat="48.61201" lon="1.97837">
        <ele>114.6</ele>
        <time>2026-03-20T16:39:04Z</time>
      </trkpt>
      <trkpt lat="48.61203" lon="1.97842">
        <ele>114.6</ele>
        <time>2026-03-20T16:39:05Z</time>
      </trkpt>
      <trkpt lat="48.61205" lon="1.97848">
        <ele>114.6</ele>
        <time>2026-03-20T16:39:06Z</time>
      </trkpt>
      <trkpt lat="48.61207" lon="1.97854">
        <ele>114.6</ele>
        <time>2026-03-20T16:39:07Z</time>
      </trkpt>
      <trkpt lat="48.61209" lon="1.9786">
        <ele>114.8</ele>
        <time>2026-03-20T16:39:08Z</time>
      </trkpt>
      <trkpt lat="48.61212" lon="1.97866">
        <ele>114.8</ele>
        <time>2026-03-20T16:39:09Z</time>
      </trkpt>
      <trkpt lat="48.61214" lon="1.97872">
        <ele>114.8</ele>
        <time>2026-03-20T16:39:10Z</time>
      </trkpt>
      <trkpt lat="48.61217" lon="1.97878">
        <ele>114.6</ele>
        <time>2026-03-20T16:39:11Z</time>
      </trkpt>
      <trkpt lat="48.61219" lon="1.97884">
        <ele>114.8</ele>
        <time>2026-03-20T16:39:12Z</time>
      </trkpt>
      <trkpt lat="48.61221" lon="1.97891">
        <ele>114.8</ele>
        <time>2026-03-20T16:39:13Z</time>
      </trkpt>
      <trkpt lat="48.61223" lon="1.97897">
        <ele>114.8</ele>
        <time>2026-03-20T16:39:14Z</time>
      </trkpt>
      <trkpt lat="48.61226" lon="1.97904">
        <ele>114.6</ele>
        <time>2026-03-20T16:39:15Z</time>
      </trkpt>
      <trkpt lat="48.61228" lon="1.9791">
        <ele>114.2</ele>
        <time>2026-03-20T16:39:16Z</time>
      </trkpt>
      <trkpt lat="48.6123" lon="1.97916">
        <ele>114.2</ele>
        <time>2026-03-20T16:39:17Z</time>
      </trkpt>
      <trkpt lat="48.61233" lon="1.97923">
        <ele>114.2</ele>
        <time>2026-03-20T16:39:18Z</time>
      </trkpt>
      <trkpt lat="48.61235" lon="1.97929">
        <ele>114.8</ele>
        <time>2026-03-20T16:39:19Z</time>
      </trkpt>
      <trkpt lat="48.61237" lon="1.97935">
        <ele>114.8</ele>
        <time>2026-03-20T16:39:20Z</time>
      </trkpt>
      <trkpt lat="48.61239" lon="1.97941">
        <ele>114.8</ele>
        <time>2026-03-20T16:39:21Z</time>
      </trkpt>
      <trkpt lat="48.61241" lon="1.97947">
        <ele>114.8</ele>
        <time>2026-03-20T16:39:22Z</time>
      </trkpt>
      <trkpt lat="48.61243" lon="1.97954">
        <ele>115</ele>
        <time>2026-03-20T16:39:23Z</time>
      </trkpt>
      <trkpt lat="48.61246" lon="1.9796">
        <ele>114.8</ele>
        <time>2026-03-20T16:39:24Z</time>
      </trkpt>
      <trkpt lat="48.61248" lon="1.97965">
        <ele>114.8</ele>
        <time>2026-03-20T16:39:25Z</time>
      </trkpt>
      <trkpt lat="48.61251" lon="1.9797">
        <ele>114.8</ele>
        <time>2026-03-20T16:39:26Z</time>
      </trkpt>
      <trkpt lat="48.61254" lon="1.97975">
        <ele>114.8</ele>
        <time>2026-03-20T16:39:27Z</time>
      </trkpt>
      <trkpt lat="48.61257" lon="1.9798">
        <ele>114.6</ele>
        <time>2026-03-20T16:39:28Z</time>
      </trkpt>
      <trkpt lat="48.6126" lon="1.97984">
        <ele>114.6</ele>
        <time>2026-03-20T16:39:29Z</time>
      </trkpt>
      <trkpt lat="48.61264" lon="1.97988">
        <ele>114.6</ele>
        <time>2026-03-20T16:39:30Z</time>
      </trkpt>
      <trkpt lat="48.61268" lon="1.97992">
        <ele>115.2</ele>
        <time>2026-03-20T16:39:31Z</time>
      </trkpt>
      <trkpt lat="48.61272" lon="1.97995">
        <ele>115.2</ele>
        <time>2026-03-20T16:39:32Z</time>
      </trkpt>
      <trkpt lat="48.61276" lon="1.97999">
        <ele>115.2</ele>
        <time>2026-03-20T16:39:33Z</time>
      </trkpt>
      <trkpt lat="48.6128" lon="1.98002">
        <ele>115.2</ele>
        <time>2026-03-20T16:39:34Z</time>
      </trkpt>
      <trkpt lat="48.61284" lon="1.98005">
        <ele>115.4</ele>
        <time>2026-03-20T16:39:35Z</time>
      </trkpt>
      <trkpt lat="48.61289" lon="1.98007">
        <ele>115.2</ele>
        <time>2026-03-20T16:39:36Z</time>
      </trkpt>
      <trkpt lat="48.61294" lon="1.98009">
        <ele>115.2</ele>
        <time>2026-03-20T16:39:37Z</time>
      </trkpt>
      <trkpt lat="48.61298" lon="1.98011">
        <ele>115.2</ele>
        <time>2026-03-20T16:39:38Z</time>
      </trkpt>
      <trkpt lat="48.61303" lon="1.98013">
        <ele>116</ele>
        <time>2026-03-20T16:39:39Z</time>
      </trkpt>
      <trkpt lat="48.61308" lon="1.98014">
        <ele>115.8</ele>
        <time>2026-03-20T16:39:40Z</time>
      </trkpt>
      <trkpt lat="48.61313" lon="1.98016">
        <ele>115.8</ele>
        <time>2026-03-20T16:39:41Z</time>
      </trkpt>
      <trkpt lat="48.61317" lon="1.98017">
        <ele>115.8</ele>
        <time>2026-03-20T16:39:42Z</time>
      </trkpt>
      <trkpt lat="48.61322" lon="1.98019">
        <ele>115.8</ele>
        <time>2026-03-20T16:39:43Z</time>
      </trkpt>
      <trkpt lat="48.61327" lon="1.9802">
        <ele>116</ele>
        <time>2026-03-20T16:39:44Z</time>
      </trkpt>
      <trkpt lat="48.61332" lon="1.98022">
        <ele>116</ele>
        <time>2026-03-20T16:39:45Z</time>
      </trkpt>
      <trkpt lat="48.61337" lon="1.98024">
        <ele>116</ele>
        <time>2026-03-20T16:39:46Z</time>
      </trkpt>
      <trkpt lat="48.61341" lon="1.98026">
        <ele>116.6</ele>
        <time>2026-03-20T16:39:47Z</time>
      </trkpt>
      <trkpt lat="48.61346" lon="1.98029">
        <ele>116</ele>
        <time>2026-03-20T16:39:48Z</time>
      </trkpt>
      <trkpt lat="48.61351" lon="1.98032">
        <ele>116</ele>
        <time>2026-03-20T16:39:49Z</time>
      </trkpt>
      <trkpt lat="48.61355" lon="1.98035">
        <ele>116</ele>
        <time>2026-03-20T16:39:50Z</time>
      </trkpt>
      <trkpt lat="48.61359" lon="1.98039">
        <ele>116</ele>
        <time>2026-03-20T16:39:51Z</time>
      </trkpt>
      <trkpt lat="48.61363" lon="1.98042">
        <ele>116.8</ele>
        <time>2026-03-20T16:39:52Z</time>
      </trkpt>
      <trkpt lat="48.61367" lon="1.98045">
        <ele>116.8</ele>
        <time>2026-03-20T16:39:53Z</time>
      </trkpt>
      <trkpt lat="48.61371" lon="1.98048">
        <ele>116.8</ele>
        <time>2026-03-20T16:39:54Z</time>
      </trkpt>
      <trkpt lat="48.61374" lon="1.98052">
        <ele>116.8</ele>
        <time>2026-03-20T16:39:55Z</time>
      </trkpt>
      <trkpt lat="48.61377" lon="1.98055">
        <ele>116.6</ele>
        <time>2026-03-20T16:39:56Z</time>
      </trkpt>
      <trkpt lat="48.61381" lon="1.98059">
        <ele>116.6</ele>
        <time>2026-03-20T16:39:57Z</time>
      </trkpt>
      <trkpt lat="48.61384" lon="1.98062">
        <ele>116.6</ele>
        <time>2026-03-20T16:39:58Z</time>
      </trkpt>
      <trkpt lat="48.61387" lon="1.98066">
        <ele>117.4</ele>
        <time>2026-03-20T16:39:59Z</time>
      </trkpt>
      <trkpt lat="48.6139" lon="1.9807">
        <ele>117.8</ele>
        <time>2026-03-20T16:40:00Z</time>
      </trkpt>
      <trkpt lat="48.61393" lon="1.98073">
        <ele>117.8</ele>
        <time>2026-03-20T16:40:01Z</time>
      </trkpt>
      <trkpt lat="48.61397" lon="1.98077">
        <ele>117.8</ele>
        <time>2026-03-20T16:40:02Z</time>
      </trkpt>
      <trkpt lat="48.614" lon="1.9808">
        <ele>118.2</ele>
        <time>2026-03-20T16:40:03Z</time>
      </trkpt>
      <trkpt lat="48.61403" lon="1.98084">
        <ele>118.6</ele>
        <time>2026-03-20T16:40:04Z</time>
      </trkpt>
      <trkpt lat="48.61406" lon="1.98087">
        <ele>118.6</ele>
        <time>2026-03-20T16:40:05Z</time>
      </trkpt>
      <trkpt lat="48.61409" lon="1.98091">
        <ele>118.6</ele>
        <time>2026-03-20T16:40:06Z</time>
      </trkpt>
      <trkpt lat="48.61412" lon="1.98095">
        <ele>118.6</ele>
        <time>2026-03-20T16:40:07Z</time>
      </trkpt>
      <trkpt lat="48.61415" lon="1.98099">
        <ele>119.2</ele>
        <time>2026-03-20T16:40:08Z</time>
      </trkpt>
      <trkpt lat="48.61418" lon="1.98103">
        <ele>119.2</ele>
        <time>2026-03-20T16:40:09Z</time>
      </trkpt>
      <trkpt lat="48.6142" lon="1.98107">
        <ele>119.2</ele>
        <time>2026-03-20T16:40:10Z</time>
      </trkpt>
      <trkpt lat="48.61423" lon="1.98111">
        <ele>119.4</ele>
        <time>2026-03-20T16:40:11Z</time>
      </trkpt>
      <trkpt lat="48.61426" lon="1.98115">
        <ele>119.8</ele>
        <time>2026-03-20T16:40:12Z</time>
      </trkpt>
      <trkpt lat="48.61429" lon="1.98119">
        <ele>119.8</ele>
        <time>2026-03-20T16:40:13Z</time>
      </trkpt>
      <trkpt lat="48.61432" lon="1.98123">
        <ele>119.8</ele>
        <time>2026-03-20T16:40:14Z</time>
      </trkpt>
      <trkpt lat="48.61434" lon="1.98127">
        <ele>119.8</ele>
        <time>2026-03-20T16:40:15Z</time>
      </trkpt>
      <trkpt lat="48.61436" lon="1.98132">
        <ele>120.4</ele>
        <time>2026-03-20T16:40:16Z</time>
      </trkpt>
      <trkpt lat="48.61438" lon="1.98137">
        <ele>120.4</ele>
        <time>2026-03-20T16:40:17Z</time>
      </trkpt>
      <trkpt lat="48.6144" lon="1.98141">
        <ele>120.4</ele>
        <time>2026-03-20T16:40:18Z</time>
      </trkpt>
      <trkpt lat="48.61442" lon="1.98146">
        <ele>121.4</ele>
        <time>2026-03-20T16:40:19Z</time>
      </trkpt>
      <trkpt lat="48.61444" lon="1.98151">
        <ele>121.4</ele>
        <time>2026-03-20T16:40:20Z</time>
      </trkpt>
      <trkpt lat="48.61447" lon="1.98155">
        <ele>121.4</ele>
        <time>2026-03-20T16:40:21Z</time>
      </trkpt>
      <trkpt lat="48.61449" lon="1.9816">
        <ele>121.4</ele>
        <time>2026-03-20T16:40:22Z</time>
      </trkpt>
      <trkpt lat="48.61451" lon="1.98165">
        <ele>121.4</ele>
        <time>2026-03-20T16:40:23Z</time>
      </trkpt>
      <trkpt lat="48.61453" lon="1.98169">
        <ele>121.8</ele>
        <time>2026-03-20T16:40:24Z</time>
      </trkpt>
      <trkpt lat="48.61455" lon="1.98174">
        <ele>121.8</ele>
        <time>2026-03-20T16:40:25Z</time>
      </trkpt>
      <trkpt lat="48.61458" lon="1.98179">
        <ele>121.8</ele>
        <time>2026-03-20T16:40:26Z</time>
      </trkpt>
      <trkpt lat="48.6146" lon="1.98183">
        <ele>121.8</ele>
        <time>2026-03-20T16:40:27Z</time>
      </trkpt>
      <trkpt lat="48.61462" lon="1.98188">
        <ele>121.8</ele>
        <time>2026-03-20T16:40:28Z</time>
      </trkpt>
      <trkpt lat="48.61464" lon="1.98192">
        <ele>121.8</ele>
        <time>2026-03-20T16:40:29Z</time>
      </trkpt>
      <trkpt lat="48.61467" lon="1.98197">
        <ele>121.8</ele>
        <time>2026-03-20T16:40:30Z</time>
      </trkpt>
      <trkpt lat="48.6147" lon="1.98202">
        <ele>121.2</ele>
        <time>2026-03-20T16:40:31Z</time>
      </trkpt>
      <trkpt lat="48.61473" lon="1.98207">
        <ele>121.2</ele>
        <time>2026-03-20T16:40:32Z</time>
      </trkpt>
      <trkpt lat="48.61476" lon="1.98213">
        <ele>121.2</ele>
        <time>2026-03-20T16:40:33Z</time>
      </trkpt>
      <trkpt lat="48.6148" lon="1.98218">
        <ele>121.2</ele>
        <time>2026-03-20T16:40:34Z</time>
      </trkpt>
      <trkpt lat="48.61483" lon="1.98224">
        <ele>120.4</ele>
        <time>2026-03-20T16:40:35Z</time>
      </trkpt>
      <trkpt lat="48.61487" lon="1.98229">
        <ele>119.8</ele>
        <time>2026-03-20T16:40:36Z</time>
      </trkpt>
      <trkpt lat="48.6149" lon="1.98235">
        <ele>119.8</ele>
        <time>2026-03-20T16:40:37Z</time>
      </trkpt>
      <trkpt lat="48.61494" lon="1.98241">
        <ele>119.8</ele>
        <time>2026-03-20T16:40:38Z</time>
      </trkpt>
      <trkpt lat="48.61498" lon="1.98247">
        <ele>120.4</ele>
        <time>2026-03-20T16:40:39Z</time>
      </trkpt>
      <trkpt lat="48.61502" lon="1.98252">
        <ele>120.8</ele>
        <time>2026-03-20T16:40:40Z</time>
      </trkpt>
      <trkpt lat="48.61506" lon="1.98258">
        <ele>120.8</ele>
        <time>2026-03-20T16:40:41Z</time>
      </trkpt>
      <trkpt lat="48.61509" lon="1.98263">
        <ele>120.8</ele>
        <time>2026-03-20T16:40:42Z</time>
      </trkpt>
      <trkpt lat="48.61513" lon="1.98269">
        <ele>120.4</ele>
        <time>2026-03-20T16:40:43Z</time>
      </trkpt>
      <trkpt lat="48.61517" lon="1.98274">
        <ele>120.4</ele>
        <time>2026-03-20T16:40:44Z</time>
      </trkpt>
      <trkpt lat="48.6152" lon="1.9828">
        <ele>120.4</ele>
        <time>2026-03-20T16:40:45Z</time>
      </trkpt>
      <trkpt lat="48.61524" lon="1.98285">
        <ele>120.4</ele>
        <time>2026-03-20T16:40:46Z</time>
      </trkpt>
      <trkpt lat="48.61527" lon="1.9829">
        <ele>119.8</ele>
        <time>2026-03-20T16:40:47Z</time>
      </trkpt>
      <trkpt lat="48.6153" lon="1.98295">
        <ele>119.4</ele>
        <time>2026-03-20T16:40:48Z</time>
      </trkpt>
      <trkpt lat="48.61534" lon="1.983">
        <ele>119.4</ele>
        <time>2026-03-20T16:40:49Z</time>
      </trkpt>
      <trkpt lat="48.61537" lon="1.98305">
        <ele>119.4</ele>
        <time>2026-03-20T16:40:50Z</time>
      </trkpt>
      <trkpt lat="48.6154" lon="1.98309">
        <ele>119.6</ele>
        <time>2026-03-20T16:40:51Z</time>
      </trkpt>
      <trkpt lat="48.61543" lon="1.98315">
        <ele>119.6</ele>
        <time>2026-03-20T16:40:52Z</time>
      </trkpt>
      <trkpt lat="48.61547" lon="1.98319">
        <ele>119.6</ele>
        <time>2026-03-20T16:40:53Z</time>
      </trkpt>
      <trkpt lat="48.6155" lon="1.98324">
        <ele>119.6</ele>
        <time>2026-03-20T16:40:54Z</time>
      </trkpt>
      <trkpt lat="48.61554" lon="1.9833">
        <ele>119.6</ele>
        <time>2026-03-20T16:40:55Z</time>
      </trkpt>
      <trkpt lat="48.61558" lon="1.98335">
        <ele>119.8</ele>
        <time>2026-03-20T16:40:56Z</time>
      </trkpt>
      <trkpt lat="48.61561" lon="1.98339">
        <ele>119.8</ele>
        <time>2026-03-20T16:40:57Z</time>
      </trkpt>
      <trkpt lat="48.61565" lon="1.98345">
        <ele>119.8</ele>
        <time>2026-03-20T16:40:58Z</time>
      </trkpt>
      <trkpt lat="48.61568" lon="1.9835">
        <ele>119.4</ele>
        <time>2026-03-20T16:40:59Z</time>
      </trkpt>
      <trkpt lat="48.61572" lon="1.98355">
        <ele>119.4</ele>
        <time>2026-03-20T16:41:00Z</time>
      </trkpt>
      <trkpt lat="48.61577" lon="1.9836">
        <ele>119.4</ele>
        <time>2026-03-20T16:41:01Z</time>
      </trkpt>
      <trkpt lat="48.6158" lon="1.98365">
        <ele>119.4</ele>
        <time>2026-03-20T16:41:02Z</time>
      </trkpt>
      <trkpt lat="48.61584" lon="1.9837">
        <ele>119.4</ele>
        <time>2026-03-20T16:41:03Z</time>
      </trkpt>
      <trkpt lat="48.61588" lon="1.98375">
        <ele>119.8</ele>
        <time>2026-03-20T16:41:04Z</time>
      </trkpt>
      <trkpt lat="48.61591" lon="1.9838">
        <ele>119.8</ele>
        <time>2026-03-20T16:41:05Z</time>
      </trkpt>
      <trkpt lat="48.61595" lon="1.98385">
        <ele>119.8</ele>
        <time>2026-03-20T16:41:06Z</time>
      </trkpt>
      <trkpt lat="48.61599" lon="1.9839">
        <ele>119.4</ele>
        <time>2026-03-20T16:41:07Z</time>
      </trkpt>
      <trkpt lat="48.61603" lon="1.98395">
        <ele>119.8</ele>
        <time>2026-03-20T16:41:08Z</time>
      </trkpt>
      <trkpt lat="48.61607" lon="1.98399">
        <ele>119.8</ele>
        <time>2026-03-20T16:41:09Z</time>
      </trkpt>
      <trkpt lat="48.61612" lon="1.98404">
        <ele>119.8</ele>
        <time>2026-03-20T16:41:10Z</time>
      </trkpt>
      <trkpt lat="48.61616" lon="1.98409">
        <ele>119.8</ele>
        <time>2026-03-20T16:41:11Z</time>
      </trkpt>
      <trkpt lat="48.6162" lon="1.98413">
        <ele>118.6</ele>
        <time>2026-03-20T16:41:12Z</time>
      </trkpt>
      <trkpt lat="48.61624" lon="1.98418">
        <ele>118.6</ele>
        <time>2026-03-20T16:41:13Z</time>
      </trkpt>
      <trkpt lat="48.61628" lon="1.98422">
        <ele>118.6</ele>
        <time>2026-03-20T16:41:14Z</time>
      </trkpt>
      <trkpt lat="48.61632" lon="1.98427">
        <ele>119</ele>
        <time>2026-03-20T16:41:15Z</time>
      </trkpt>
      <trkpt lat="48.61636" lon="1.98431">
        <ele>118.6</ele>
        <time>2026-03-20T16:41:16Z</time>
      </trkpt>
      <trkpt lat="48.61641" lon="1.98435">
        <ele>118.6</ele>
        <time>2026-03-20T16:41:17Z</time>
      </trkpt>
      <trkpt lat="48.61645" lon="1.9844">
        <ele>118.6</ele>
        <time>2026-03-20T16:41:18Z</time>
      </trkpt>
      <trkpt lat="48.61649" lon="1.98444">
        <ele>119</ele>
        <time>2026-03-20T16:41:19Z</time>
      </trkpt>
      <trkpt lat="48.61654" lon="1.98448">
        <ele>118.4</ele>
        <time>2026-03-20T16:41:20Z</time>
      </trkpt>
      <trkpt lat="48.61658" lon="1.98453">
        <ele>118.4</ele>
        <time>2026-03-20T16:41:21Z</time>
      </trkpt>
      <trkpt lat="48.61663" lon="1.98457">
        <ele>118.4</ele>
        <time>2026-03-20T16:41:22Z</time>
      </trkpt>
      <trkpt lat="48.61667" lon="1.98462">
        <ele>119</ele>
        <time>2026-03-20T16:41:23Z</time>
      </trkpt>
      <trkpt lat="48.61672" lon="1.98466">
        <ele>119.4</ele>
        <time>2026-03-20T16:41:24Z</time>
      </trkpt>
      <trkpt lat="48.61676" lon="1.98471">
        <ele>119.4</ele>
        <time>2026-03-20T16:41:25Z</time>
      </trkpt>
      <trkpt lat="48.6168" lon="1.98475">
        <ele>119.4</ele>
        <time>2026-03-20T16:41:26Z</time>
      </trkpt>
      <trkpt lat="48.61685" lon="1.9848">
        <ele>118.8</ele>
        <time>2026-03-20T16:41:27Z</time>
      </trkpt>
      <trkpt lat="48.61689" lon="1.98484">
        <ele>118.6</ele>
        <time>2026-03-20T16:41:28Z</time>
      </trkpt>
      <trkpt lat="48.61694" lon="1.98489">
        <ele>118.6</ele>
        <time>2026-03-20T16:41:29Z</time>
      </trkpt>
      <trkpt lat="48.61698" lon="1.98494">
        <ele>118.6</ele>
        <time>2026-03-20T16:41:30Z</time>
      </trkpt>
      <trkpt lat="48.61703" lon="1.98498">
        <ele>117.8</ele>
        <time>2026-03-20T16:41:31Z</time>
      </trkpt>
      <trkpt lat="48.61707" lon="1.98503">
        <ele>118.4</ele>
        <time>2026-03-20T16:41:32Z</time>
      </trkpt>
      <trkpt lat="48.61711" lon="1.98508">
        <ele>118.4</ele>
        <time>2026-03-20T16:41:33Z</time>
      </trkpt>
      <trkpt lat="48.61716" lon="1.98513">
        <ele>118.4</ele>
        <time>2026-03-20T16:41:34Z</time>
      </trkpt>
      <trkpt lat="48.6172" lon="1.98518">
        <ele>118.4</ele>
        <time>2026-03-20T16:41:35Z</time>
      </trkpt>
      <trkpt lat="48.61724" lon="1.98523">
        <ele>117.8</ele>
        <time>2026-03-20T16:41:36Z</time>
      </trkpt>
      <trkpt lat="48.61728" lon="1.98528">
        <ele>117.8</ele>
        <time>2026-03-20T16:41:37Z</time>
      </trkpt>
      <trkpt lat="48.61732" lon="1.98534">
        <ele>117.8</ele>
        <time>2026-03-20T16:41:38Z</time>
      </trkpt>
      <trkpt lat="48.61736" lon="1.9854">
        <ele>117.8</ele>
        <time>2026-03-20T16:41:39Z</time>
      </trkpt>
      <trkpt lat="48.6174" lon="1.98546">
        <ele>117.6</ele>
        <time>2026-03-20T16:41:40Z</time>
      </trkpt>
      <trkpt lat="48.61744" lon="1.98552">
        <ele>117.6</ele>
        <time>2026-03-20T16:41:41Z</time>
      </trkpt>
      <trkpt lat="48.61748" lon="1.98558">
        <ele>117.6</ele>
        <time>2026-03-20T16:41:42Z</time>
      </trkpt>
      <trkpt lat="48.61751" lon="1.98564">
        <ele>118</ele>
        <time>2026-03-20T16:41:43Z</time>
      </trkpt>
      <trkpt lat="48.61754" lon="1.98571">
        <ele>117.6</ele>
        <time>2026-03-20T16:41:44Z</time>
      </trkpt>
      <trkpt lat="48.61757" lon="1.98578">
        <ele>117.6</ele>
        <time>2026-03-20T16:41:45Z</time>
      </trkpt>
      <trkpt lat="48.6176" lon="1.98585">
        <ele>117.6</ele>
        <time>2026-03-20T16:41:46Z</time>
      </trkpt>
      <trkpt lat="48.61762" lon="1.98592">
        <ele>117.4</ele>
        <time>2026-03-20T16:41:47Z</time>
      </trkpt>
      <trkpt lat="48.61764" lon="1.98599">
        <ele>117.6</ele>
        <time>2026-03-20T16:41:48Z</time>
      </trkpt>
      <trkpt lat="48.61767" lon="1.98605">
        <ele>117.6</ele>
        <time>2026-03-20T16:41:49Z</time>
      </trkpt>
      <trkpt lat="48.61769" lon="1.98612">
        <ele>117.6</ele>
        <time>2026-03-20T16:41:50Z</time>
      </trkpt>
      <trkpt lat="48.6177" lon="1.98619">
        <ele>118.2</ele>
        <time>2026-03-20T16:41:51Z</time>
      </trkpt>
      <trkpt lat="48.61772" lon="1.98626">
        <ele>117.8</ele>
        <time>2026-03-20T16:41:52Z</time>
      </trkpt>
      <trkpt lat="48.61774" lon="1.98633">
        <ele>117.8</ele>
        <time>2026-03-20T16:41:53Z</time>
      </trkpt>
      <trkpt lat="48.61776" lon="1.98639">
        <ele>117.8</ele>
        <time>2026-03-20T16:41:54Z</time>
      </trkpt>
      <trkpt lat="48.61778" lon="1.98646">
        <ele>118.2</ele>
        <time>2026-03-20T16:41:55Z</time>
      </trkpt>
      <trkpt lat="48.61781" lon="1.98652">
        <ele>118.4</ele>
        <time>2026-03-20T16:41:56Z</time>
      </trkpt>
      <trkpt lat="48.61783" lon="1.98659">
        <ele>118.4</ele>
        <time>2026-03-20T16:41:57Z</time>
      </trkpt>
      <trkpt lat="48.61786" lon="1.98665">
        <ele>118.4</ele>
        <time>2026-03-20T16:41:58Z</time>
      </trkpt>
      <trkpt lat="48.61789" lon="1.98671">
        <ele>117.4</ele>
        <time>2026-03-20T16:41:59Z</time>
      </trkpt>
      <trkpt lat="48.61792" lon="1.98677">
        <ele>117.4</ele>
        <time>2026-03-20T16:42:00Z</time>
      </trkpt>
      <trkpt lat="48.61796" lon="1.98683">
        <ele>117.4</ele>
        <time>2026-03-20T16:42:01Z</time>
      </trkpt>
      <trkpt lat="48.61799" lon="1.98689">
        <ele>117.4</ele>
        <time>2026-03-20T16:42:02Z</time>
      </trkpt>
      <trkpt lat="48.61803" lon="1.98694">
        <ele>117.6</ele>
        <time>2026-03-20T16:42:03Z</time>
      </trkpt>
      <trkpt lat="48.61807" lon="1.98699">
        <ele>117.4</ele>
        <time>2026-03-20T16:42:04Z</time>
      </trkpt>
      <trkpt lat="48.61811" lon="1.98704">
        <ele>117.4</ele>
        <time>2026-03-20T16:42:05Z</time>
      </trkpt>
      <trkpt lat="48.61815" lon="1.98709">
        <ele>117.4</ele>
        <time>2026-03-20T16:42:06Z</time>
      </trkpt>
      <trkpt lat="48.61819" lon="1.98714">
        <ele>118.4</ele>
        <time>2026-03-20T16:42:07Z</time>
      </trkpt>
      <trkpt lat="48.61823" lon="1.98718">
        <ele>119.4</ele>
        <time>2026-03-20T16:42:08Z</time>
      </trkpt>
      <trkpt lat="48.61827" lon="1.98723">
        <ele>119.4</ele>
        <time>2026-03-20T16:42:09Z</time>
      </trkpt>
      <trkpt lat="48.61832" lon="1.98727">
        <ele>119.4</ele>
        <time>2026-03-20T16:42:10Z</time>
      </trkpt>
      <trkpt lat="48.61836" lon="1.98732">
        <ele>118.4</ele>
        <time>2026-03-20T16:42:11Z</time>
      </trkpt>
      <trkpt lat="48.6184" lon="1.98736">
        <ele>118.2</ele>
        <time>2026-03-20T16:42:12Z</time>
      </trkpt>
      <trkpt lat="48.61845" lon="1.9874">
        <ele>118.2</ele>
        <time>2026-03-20T16:42:13Z</time>
      </trkpt>
      <trkpt lat="48.61849" lon="1.98745">
        <ele>118.2</ele>
        <time>2026-03-20T16:42:14Z</time>
      </trkpt>
      <trkpt lat="48.61853" lon="1.98749">
        <ele>118.2</ele>
        <time>2026-03-20T16:42:15Z</time>
      </trkpt>
      <trkpt lat="48.61858" lon="1.98753">
        <ele>118.4</ele>
        <time>2026-03-20T16:42:16Z</time>
      </trkpt>
      <trkpt lat="48.61862" lon="1.98757">
        <ele>118.4</ele>
        <time>2026-03-20T16:42:17Z</time>
      </trkpt>
      <trkpt lat="48.61867" lon="1.98761">
        <ele>118.4</ele>
        <time>2026-03-20T16:42:18Z</time>
      </trkpt>
      <trkpt lat="48.61871" lon="1.98764">
        <ele>118.4</ele>
        <time>2026-03-20T16:42:19Z</time>
      </trkpt>
      <trkpt lat="48.61875" lon="1.98768">
        <ele>118.4</ele>
        <time>2026-03-20T16:42:20Z</time>
      </trkpt>
      <trkpt lat="48.61879" lon="1.98772">
        <ele>118.4</ele>
        <time>2026-03-20T16:42:21Z</time>
      </trkpt>
      <trkpt lat="48.61884" lon="1.98776">
        <ele>118.4</ele>
        <time>2026-03-20T16:42:22Z</time>
      </trkpt>
      <trkpt lat="48.61888" lon="1.9878">
        <ele>118.4</ele>
        <time>2026-03-20T16:42:23Z</time>
      </trkpt>
      <trkpt lat="48.61892" lon="1.98783">
        <ele>117.8</ele>
        <time>2026-03-20T16:42:24Z</time>
      </trkpt>
      <trkpt lat="48.61897" lon="1.98787">
        <ele>117.8</ele>
        <time>2026-03-20T16:42:25Z</time>
      </trkpt>
      <trkpt lat="48.61901" lon="1.9879">
        <ele>117.8</ele>
        <time>2026-03-20T16:42:26Z</time>
      </trkpt>
      <trkpt lat="48.61906" lon="1.98794">
        <ele>118.2</ele>
        <time>2026-03-20T16:42:27Z</time>
      </trkpt>
      <trkpt lat="48.6191" lon="1.98798">
        <ele>117.6</ele>
        <time>2026-03-20T16:42:28Z</time>
      </trkpt>
      <trkpt lat="48.61915" lon="1.98801">
        <ele>117.6</ele>
        <time>2026-03-20T16:42:29Z</time>
      </trkpt>
      <trkpt lat="48.61919" lon="1.98805">
        <ele>117.6</ele>
        <time>2026-03-20T16:42:30Z</time>
      </trkpt>
      <trkpt lat="48.61924" lon="1.98809">
        <ele>117.6</ele>
        <time>2026-03-20T16:42:31Z</time>
      </trkpt>
      <trkpt lat="48.61928" lon="1.98812">
        <ele>117.6</ele>
        <time>2026-03-20T16:42:32Z</time>
      </trkpt>
      <trkpt lat="48.61933" lon="1.98816">
        <ele>117.6</ele>
        <time>2026-03-20T16:42:33Z</time>
      </trkpt>
      <trkpt lat="48.61937" lon="1.9882">
        <ele>117.6</ele>
        <time>2026-03-20T16:42:34Z</time>
      </trkpt>
      <trkpt lat="48.61942" lon="1.98823">
        <ele>118.6</ele>
        <time>2026-03-20T16:42:35Z</time>
      </trkpt>
      <trkpt lat="48.61946" lon="1.98826">
        <ele>118.6</ele>
        <time>2026-03-20T16:42:36Z</time>
      </trkpt>
      <trkpt lat="48.61951" lon="1.9883">
        <ele>118.6</ele>
        <time>2026-03-20T16:42:37Z</time>
      </trkpt>
      <trkpt lat="48.61956" lon="1.98834">
        <ele>118.6</ele>
        <time>2026-03-20T16:42:38Z</time>
      </trkpt>
      <trkpt lat="48.6196" lon="1.98837">
        <ele>118.6</ele>
        <time>2026-03-20T16:42:39Z</time>
      </trkpt>
      <trkpt lat="48.61965" lon="1.98841">
        <ele>118.8</ele>
        <time>2026-03-20T16:42:40Z</time>
      </trkpt>
      <trkpt lat="48.6197" lon="1.98845">
        <ele>118.8</ele>
        <time>2026-03-20T16:42:41Z</time>
      </trkpt>
      <trkpt lat="48.61974" lon="1.98848">
        <ele>118.8</ele>
        <time>2026-03-20T16:42:42Z</time>
      </trkpt>
      <trkpt lat="48.61979" lon="1.98852">
        <ele>118.8</ele>
        <time>2026-03-20T16:42:43Z</time>
      </trkpt>
      <trkpt lat="48.61984" lon="1.98856">
        <ele>119.4</ele>
        <time>2026-03-20T16:42:44Z</time>
      </trkpt>
      <trkpt lat="48.61988" lon="1.9886">
        <ele>119.4</ele>
        <time>2026-03-20T16:42:45Z</time>
      </trkpt>
      <trkpt lat="48.61993" lon="1.98865">
        <ele>119.4</ele>
        <time>2026-03-20T16:42:46Z</time>
      </trkpt>
      <trkpt lat="48.61997" lon="1.9887">
        <ele>119.4</ele>
        <time>2026-03-20T16:42:47Z</time>
      </trkpt>
      <trkpt lat="48.62001" lon="1.98875">
        <ele>117.8</ele>
        <time>2026-03-20T16:42:48Z</time>
      </trkpt>
      <trkpt lat="48.62004" lon="1.98881">
        <ele>117.8</ele>
        <time>2026-03-20T16:42:49Z</time>
      </trkpt>
      <trkpt lat="48.62008" lon="1.98887">
        <ele>117.8</ele>
        <time>2026-03-20T16:42:50Z</time>
      </trkpt>
      <trkpt lat="48.62011" lon="1.98893">
        <ele>117.8</ele>
        <time>2026-03-20T16:42:51Z</time>
      </trkpt>
      <trkpt lat="48.62014" lon="1.98899">
        <ele>118.4</ele>
        <time>2026-03-20T16:42:52Z</time>
      </trkpt>
      <trkpt lat="48.62017" lon="1.98905">
        <ele>118.4</ele>
        <time>2026-03-20T16:42:53Z</time>
      </trkpt>
      <trkpt lat="48.62019" lon="1.98911">
        <ele>118.4</ele>
        <time>2026-03-20T16:42:54Z</time>
      </trkpt>
      <trkpt lat="48.62022" lon="1.98917">
        <ele>119</ele>
        <time>2026-03-20T16:42:55Z</time>
      </trkpt>
      <trkpt lat="48.62024" lon="1.98924">
        <ele>118.4</ele>
        <time>2026-03-20T16:42:56Z</time>
      </trkpt>
      <trkpt lat="48.62026" lon="1.9893">
        <ele>118.4</ele>
        <time>2026-03-20T16:42:57Z</time>
      </trkpt>
      <trkpt lat="48.62028" lon="1.98937">
        <ele>118.4</ele>
        <time>2026-03-20T16:42:58Z</time>
      </trkpt>
      <trkpt lat="48.62031" lon="1.98944">
        <ele>118.8</ele>
        <time>2026-03-20T16:42:59Z</time>
      </trkpt>
      <trkpt lat="48.62033" lon="1.98951">
        <ele>118.4</ele>
        <time>2026-03-20T16:43:00Z</time>
      </trkpt>
      <trkpt lat="48.62036" lon="1.98957">
        <ele>118.4</ele>
        <time>2026-03-20T16:43:01Z</time>
      </trkpt>
      <trkpt lat="48.62038" lon="1.98964">
        <ele>118.4</ele>
        <time>2026-03-20T16:43:02Z</time>
      </trkpt>
      <trkpt lat="48.62041" lon="1.98971">
        <ele>118.4</ele>
        <time>2026-03-20T16:43:03Z</time>
      </trkpt>
      <trkpt lat="48.62043" lon="1.98978">
        <ele>118</ele>
        <time>2026-03-20T16:43:04Z</time>
      </trkpt>
      <trkpt lat="48.62046" lon="1.98985">
        <ele>118</ele>
        <time>2026-03-20T16:43:05Z</time>
      </trkpt>
      <trkpt lat="48.62049" lon="1.98992">
        <ele>118</ele>
        <time>2026-03-20T16:43:06Z</time>
      </trkpt>
      <trkpt lat="48.62052" lon="1.98999">
        <ele>118</ele>
        <time>2026-03-20T16:43:07Z</time>
      </trkpt>
      <trkpt lat="48.62054" lon="1.99006">
        <ele>118</ele>
        <time>2026-03-20T16:43:08Z</time>
      </trkpt>
      <trkpt lat="48.62057" lon="1.99013">
        <ele>118</ele>
        <time>2026-03-20T16:43:09Z</time>
      </trkpt>
      <trkpt lat="48.62059" lon="1.9902">
        <ele>118</ele>
        <time>2026-03-20T16:43:10Z</time>
      </trkpt>
      <trkpt lat="48.62062" lon="1.99027">
        <ele>117.8</ele>
        <time>2026-03-20T16:43:11Z</time>
      </trkpt>
      <trkpt lat="48.62065" lon="1.99033">
        <ele>118</ele>
        <time>2026-03-20T16:43:12Z</time>
      </trkpt>
      <trkpt lat="48.62068" lon="1.9904">
        <ele>118</ele>
        <time>2026-03-20T16:43:13Z</time>
      </trkpt>
      <trkpt lat="48.62071" lon="1.99047">
        <ele>118</ele>
        <time>2026-03-20T16:43:14Z</time>
      </trkpt>
      <trkpt lat="48.62074" lon="1.99053">
        <ele>118</ele>
        <time>2026-03-20T16:43:15Z</time>
      </trkpt>
      <trkpt lat="48.62077" lon="1.9906">
        <ele>117.8</ele>
        <time>2026-03-20T16:43:16Z</time>
      </trkpt>
      <trkpt lat="48.6208" lon="1.99066">
        <ele>117.8</ele>
        <time>2026-03-20T16:43:17Z</time>
      </trkpt>
      <trkpt lat="48.62083" lon="1.99073">
        <ele>117.8</ele>
        <time>2026-03-20T16:43:18Z</time>
      </trkpt>
      <trkpt lat="48.62086" lon="1.99079">
        <ele>117.8</ele>
        <time>2026-03-20T16:43:19Z</time>
      </trkpt>
      <trkpt lat="48.6209" lon="1.99086">
        <ele>117.6</ele>
        <time>2026-03-20T16:43:20Z</time>
      </trkpt>
      <trkpt lat="48.62093" lon="1.99092">
        <ele>117.6</ele>
        <time>2026-03-20T16:43:21Z</time>
      </trkpt>
      <trkpt lat="48.62097" lon="1.99098">
        <ele>117.6</ele>
        <time>2026-03-20T16:43:22Z</time>
      </trkpt>
      <trkpt lat="48.621" lon="1.99104">
        <ele>117.6</ele>
        <time>2026-03-20T16:43:23Z</time>
      </trkpt>
      <trkpt lat="48.62103" lon="1.9911">
        <ele>118.2</ele>
        <time>2026-03-20T16:43:24Z</time>
      </trkpt>
      <trkpt lat="48.62107" lon="1.99115">
        <ele>118.2</ele>
        <time>2026-03-20T16:43:25Z</time>
      </trkpt>
      <trkpt lat="48.6211" lon="1.99121">
        <ele>118.2</ele>
        <time>2026-03-20T16:43:26Z</time>
      </trkpt>
      <trkpt lat="48.62113" lon="1.99127">
        <ele>118.4</ele>
        <time>2026-03-20T16:43:27Z</time>
      </trkpt>
      <trkpt lat="48.62116" lon="1.99133">
        <ele>118.4</ele>
        <time>2026-03-20T16:43:28Z</time>
      </trkpt>
      <trkpt lat="48.62119" lon="1.99138">
        <ele>118.4</ele>
        <time>2026-03-20T16:43:29Z</time>
      </trkpt>
      <trkpt lat="48.62121" lon="1.99144">
        <ele>118.4</ele>
        <time>2026-03-20T16:43:30Z</time>
      </trkpt>
      <trkpt lat="48.62124" lon="1.99149">
        <ele>118.4</ele>
        <time>2026-03-20T16:43:31Z</time>
      </trkpt>
      <trkpt lat="48.62128" lon="1.99154">
        <ele>118.4</ele>
        <time>2026-03-20T16:43:32Z</time>
      </trkpt>
      <trkpt lat="48.6213" lon="1.99159">
        <ele>118.4</ele>
        <time>2026-03-20T16:43:33Z</time>
      </trkpt>
      <trkpt lat="48.62133" lon="1.99164">
        <ele>118.4</ele>
        <time>2026-03-20T16:43:34Z</time>
      </trkpt>
      <trkpt lat="48.62135" lon="1.99169">
        <ele>118.8</ele>
        <time>2026-03-20T16:43:35Z</time>
      </trkpt>
      <trkpt lat="48.62138" lon="1.99174">
        <ele>118.4</ele>
        <time>2026-03-20T16:43:36Z</time>
      </trkpt>
      <trkpt lat="48.6214" lon="1.99179">
        <ele>118.4</ele>
        <time>2026-03-20T16:43:37Z</time>
      </trkpt>
      <trkpt lat="48.62142" lon="1.99183">
        <ele>118.4</ele>
        <time>2026-03-20T16:43:38Z</time>
      </trkpt>
      <trkpt lat="48.62144" lon="1.99188">
        <ele>119</ele>
        <time>2026-03-20T16:43:39Z</time>
      </trkpt>
      <trkpt lat="48.62146" lon="1.99193">
        <ele>119.2</ele>
        <time>2026-03-20T16:43:40Z</time>
      </trkpt>
      <trkpt lat="48.62149" lon="1.99198">
        <ele>119.2</ele>
        <time>2026-03-20T16:43:41Z</time>
      </trkpt>
      <trkpt lat="48.62151" lon="1.99203">
        <ele>119.2</ele>
        <time>2026-03-20T16:43:42Z</time>
      </trkpt>
      <trkpt lat="48.62154" lon="1.99208">
        <ele>119.2</ele>
        <time>2026-03-20T16:43:43Z</time>
      </trkpt>
      <trkpt lat="48.62156" lon="1.99213">
        <ele>120.2</ele>
        <time>2026-03-20T16:43:44Z</time>
      </trkpt>
      <trkpt lat="48.62158" lon="1.99218">
        <ele>120.2</ele>
        <time>2026-03-20T16:43:45Z</time>
      </trkpt>
      <trkpt lat="48.6216" lon="1.99224">
        <ele>120.2</ele>
        <time>2026-03-20T16:43:46Z</time>
      </trkpt>
      <trkpt lat="48.62163" lon="1.99229">
        <ele>119.4</ele>
        <time>2026-03-20T16:43:47Z</time>
      </trkpt>
      <trkpt lat="48.62165" lon="1.99235">
        <ele>119.6</ele>
        <time>2026-03-20T16:43:48Z</time>
      </trkpt>
      <trkpt lat="48.62168" lon="1.99241">
        <ele>119.6</ele>
        <time>2026-03-20T16:43:49Z</time>
      </trkpt>
      <trkpt lat="48.62171" lon="1.99247">
        <ele>119.6</ele>
        <time>2026-03-20T16:43:50Z</time>
      </trkpt>
      <trkpt lat="48.62173" lon="1.99254">
        <ele>119.6</ele>
        <time>2026-03-20T16:43:51Z</time>
      </trkpt>
      <trkpt lat="48.62175" lon="1.9926">
        <ele>119.8</ele>
        <time>2026-03-20T16:43:52Z</time>
      </trkpt>
      <trkpt lat="48.62177" lon="1.99267">
        <ele>119.8</ele>
        <time>2026-03-20T16:43:53Z</time>
      </trkpt>
      <trkpt lat="48.62179" lon="1.99274">
        <ele>119.8</ele>
        <time>2026-03-20T16:43:54Z</time>
      </trkpt>
      <trkpt lat="48.62181" lon="1.99281">
        <ele>119.8</ele>
        <time>2026-03-20T16:43:55Z</time>
      </trkpt>
      <trkpt lat="48.62182" lon="1.99287">
        <ele>119.2</ele>
        <time>2026-03-20T16:43:56Z</time>
      </trkpt>
      <trkpt lat="48.62183" lon="1.99295">
        <ele>119.2</ele>
        <time>2026-03-20T16:43:57Z</time>
      </trkpt>
      <trkpt lat="48.62185" lon="1.99302">
        <ele>119.2</ele>
        <time>2026-03-20T16:43:58Z</time>
      </trkpt>
      <trkpt lat="48.62187" lon="1.99309">
        <ele>119.2</ele>
        <time>2026-03-20T16:43:59Z</time>
      </trkpt>
      <trkpt lat="48.62188" lon="1.99316">
        <ele>119.8</ele>
        <time>2026-03-20T16:44:00Z</time>
      </trkpt>
      <trkpt lat="48.62189" lon="1.99323">
        <ele>119.8</ele>
        <time>2026-03-20T16:44:01Z</time>
      </trkpt>
      <trkpt lat="48.6219" lon="1.9933">
        <ele>119.8</ele>
        <time>2026-03-20T16:44:02Z</time>
      </trkpt>
      <trkpt lat="48.62191" lon="1.99337">
        <ele>119.6</ele>
        <time>2026-03-20T16:44:03Z</time>
      </trkpt>
      <trkpt lat="48.62192" lon="1.99344">
        <ele>120.2</ele>
        <time>2026-03-20T16:44:04Z</time>
      </trkpt>
      <trkpt lat="48.62192" lon="1.99351">
        <ele>120.2</ele>
        <time>2026-03-20T16:44:05Z</time>
      </trkpt>
      <trkpt lat="48.62192" lon="1.99358">
        <ele>120.2</ele>
        <time>2026-03-20T16:44:06Z</time>
      </trkpt>
      <trkpt lat="48.62193" lon="1.99366">
        <ele>120.4</ele>
        <time>2026-03-20T16:44:07Z</time>
      </trkpt>
      <trkpt lat="48.62194" lon="1.99373">
        <ele>120.2</ele>
        <time>2026-03-20T16:44:08Z</time>
      </trkpt>
      <trkpt lat="48.62194" lon="1.9938">
        <ele>120.2</ele>
        <time>2026-03-20T16:44:09Z</time>
      </trkpt>
      <trkpt lat="48.62195" lon="1.99387">
        <ele>120.2</ele>
        <time>2026-03-20T16:44:10Z</time>
      </trkpt>
      <trkpt lat="48.62195" lon="1.99394">
        <ele>120.8</ele>
        <time>2026-03-20T16:44:11Z</time>
      </trkpt>
      <trkpt lat="48.62195" lon="1.994">
        <ele>120</ele>
        <time>2026-03-20T16:44:12Z</time>
      </trkpt>
      <trkpt lat="48.62196" lon="1.99407">
        <ele>120</ele>
        <time>2026-03-20T16:44:13Z</time>
      </trkpt>
      <trkpt lat="48.62196" lon="1.99413">
        <ele>120</ele>
        <time>2026-03-20T16:44:14Z</time>
      </trkpt>
      <trkpt lat="48.62196" lon="1.9942">
        <ele>121</ele>
        <time>2026-03-20T16:44:15Z</time>
      </trkpt>
      <trkpt lat="48.62197" lon="1.99427">
        <ele>121.2</ele>
        <time>2026-03-20T16:44:16Z</time>
      </trkpt>
      <trkpt lat="48.62198" lon="1.99434">
        <ele>121.2</ele>
        <time>2026-03-20T16:44:17Z</time>
      </trkpt>
      <trkpt lat="48.62199" lon="1.9944">
        <ele>121.2</ele>
        <time>2026-03-20T16:44:18Z</time>
      </trkpt>
      <trkpt lat="48.62198" lon="1.99447">
        <ele>121.8</ele>
        <time>2026-03-20T16:44:19Z</time>
      </trkpt>
      <trkpt lat="48.62198" lon="1.99453">
        <ele>122.2</ele>
        <time>2026-03-20T16:44:20Z</time>
      </trkpt>
      <trkpt lat="48.62198" lon="1.99459">
        <ele>122.2</ele>
        <time>2026-03-20T16:44:21Z</time>
      </trkpt>
      <trkpt lat="48.62198" lon="1.99465">
        <ele>122.2</ele>
        <time>2026-03-20T16:44:22Z</time>
      </trkpt>
      <trkpt lat="48.62198" lon="1.99471">
        <ele>122.6</ele>
        <time>2026-03-20T16:44:23Z</time>
      </trkpt>
      <trkpt lat="48.62198" lon="1.99477">
        <ele>123</ele>
        <time>2026-03-20T16:44:24Z</time>
      </trkpt>
      <trkpt lat="48.62199" lon="1.99483">
        <ele>123</ele>
        <time>2026-03-20T16:44:25Z</time>
      </trkpt>
      <trkpt lat="48.62199" lon="1.99489">
        <ele>123</ele>
        <time>2026-03-20T16:44:26Z</time>
      </trkpt>
      <trkpt lat="48.62199" lon="1.99495">
        <ele>123.4</ele>
        <time>2026-03-20T16:44:27Z</time>
      </trkpt>
      <trkpt lat="48.62199" lon="1.995">
        <ele>123.4</ele>
        <time>2026-03-20T16:44:28Z</time>
      </trkpt>
      <trkpt lat="48.62199" lon="1.99506">
        <ele>123.4</ele>
        <time>2026-03-20T16:44:29Z</time>
      </trkpt>
      <trkpt lat="48.622" lon="1.99511">
        <ele>123.4</ele>
        <time>2026-03-20T16:44:30Z</time>
      </trkpt>
      <trkpt lat="48.622" lon="1.99516">
        <ele>124.4</ele>
        <time>2026-03-20T16:44:31Z</time>
      </trkpt>
      <trkpt lat="48.622" lon="1.99521">
        <ele>124</ele>
        <time>2026-03-20T16:44:32Z</time>
      </trkpt>
      <trkpt lat="48.62199" lon="1.99526">
        <ele>124</ele>
        <time>2026-03-20T16:44:33Z</time>
      </trkpt>
      <trkpt lat="48.62199" lon="1.99531">
        <ele>124</ele>
        <time>2026-03-20T16:44:34Z</time>
      </trkpt>
      <trkpt lat="48.62199" lon="1.99536">
        <ele>124</ele>
        <time>2026-03-20T16:44:35Z</time>
      </trkpt>
      <trkpt lat="48.62199" lon="1.99542">
        <ele>124.8</ele>
        <time>2026-03-20T16:44:36Z</time>
      </trkpt>
      <trkpt lat="48.62199" lon="1.99547">
        <ele>124.8</ele>
        <time>2026-03-20T16:44:37Z</time>
      </trkpt>
      <trkpt lat="48.622" lon="1.99553">
        <ele>124.8</ele>
        <time>2026-03-20T16:44:38Z</time>
      </trkpt>
      <trkpt lat="48.62199" lon="1.99558">
        <ele>125.4</ele>
        <time>2026-03-20T16:44:39Z</time>
      </trkpt>
      <trkpt lat="48.62199" lon="1.99564">
        <ele>125.6</ele>
        <time>2026-03-20T16:44:40Z</time>
      </trkpt>
      <trkpt lat="48.62198" lon="1.99569">
        <ele>125.6</ele>
        <time>2026-03-20T16:44:41Z</time>
      </trkpt>
      <trkpt lat="48.62199" lon="1.99574">
        <ele>125.6</ele>
        <time>2026-03-20T16:44:42Z</time>
      </trkpt>
      <trkpt lat="48.62198" lon="1.9958">
        <ele>126</ele>
        <time>2026-03-20T16:44:43Z</time>
      </trkpt>
      <trkpt lat="48.62197" lon="1.99585">
        <ele>126.4</ele>
        <time>2026-03-20T16:44:44Z</time>
      </trkpt>
      <trkpt lat="48.62198" lon="1.99591">
        <ele>126.4</ele>
        <time>2026-03-20T16:44:45Z</time>
      </trkpt>
      <trkpt lat="48.62198" lon="1.99597">
        <ele>126.4</ele>
        <time>2026-03-20T16:44:46Z</time>
      </trkpt>
      <trkpt lat="48.62198" lon="1.99603">
        <ele>127</ele>
        <time>2026-03-20T16:44:47Z</time>
      </trkpt>
      <trkpt lat="48.62197" lon="1.99608">
        <ele>127.4</ele>
        <time>2026-03-20T16:44:48Z</time>
      </trkpt>
      <trkpt lat="48.62196" lon="1.99614">
        <ele>127.4</ele>
        <time>2026-03-20T16:44:49Z</time>
      </trkpt>
      <trkpt lat="48.62195" lon="1.9962">
        <ele>127.4</ele>
        <time>2026-03-20T16:44:50Z</time>
      </trkpt>
      <trkpt lat="48.62195" lon="1.99626">
        <ele>127.8</ele>
        <time>2026-03-20T16:44:51Z</time>
      </trkpt>
      <trkpt lat="48.62194" lon="1.99632">
        <ele>127.8</ele>
        <time>2026-03-20T16:44:52Z</time>
      </trkpt>
      <trkpt lat="48.62194" lon="1.99639">
        <ele>127.8</ele>
        <time>2026-03-20T16:44:53Z</time>
      </trkpt>
      <trkpt lat="48.62194" lon="1.99646">
        <ele>127.8</ele>
        <time>2026-03-20T16:44:54Z</time>
      </trkpt>
      <trkpt lat="48.62194" lon="1.99653">
        <ele>127.8</ele>
        <time>2026-03-20T16:44:55Z</time>
      </trkpt>
      <trkpt lat="48.62193" lon="1.9966">
        <ele>128.2</ele>
        <time>2026-03-20T16:44:56Z</time>
      </trkpt>
      <trkpt lat="48.62193" lon="1.99667">
        <ele>128.2</ele>
        <time>2026-03-20T16:44:57Z</time>
      </trkpt>
      <trkpt lat="48.62193" lon="1.99675">
        <ele>128.2</ele>
        <time>2026-03-20T16:44:58Z</time>
      </trkpt>
      <trkpt lat="48.62193" lon="1.99682">
        <ele>128.2</ele>
        <time>2026-03-20T16:44:59Z</time>
      </trkpt>
      <trkpt lat="48.62193" lon="1.99689">
        <ele>128.6</ele>
        <time>2026-03-20T16:45:00Z</time>
      </trkpt>
      <trkpt lat="48.62192" lon="1.99695">
        <ele>128.6</ele>
        <time>2026-03-20T16:45:01Z</time>
      </trkpt>
      <trkpt lat="48.62192" lon="1.99702">
        <ele>128.6</ele>
        <time>2026-03-20T16:45:02Z</time>
      </trkpt>
      <trkpt lat="48.62191" lon="1.99708">
        <ele>129.4</ele>
        <time>2026-03-20T16:45:03Z</time>
      </trkpt>
      <trkpt lat="48.6219" lon="1.99714">
        <ele>130</ele>
        <time>2026-03-20T16:45:04Z</time>
      </trkpt>
      <trkpt lat="48.62189" lon="1.99721">
        <ele>130</ele>
        <time>2026-03-20T16:45:05Z</time>
      </trkpt>
      <trkpt lat="48.62188" lon="1.99729">
        <ele>130</ele>
        <time>2026-03-20T16:45:06Z</time>
      </trkpt>
      <trkpt lat="48.62187" lon="1.99736">
        <ele>130.4</ele>
        <time>2026-03-20T16:45:07Z</time>
      </trkpt>
      <trkpt lat="48.62185" lon="1.99742">
        <ele>130.2</ele>
        <time>2026-03-20T16:45:08Z</time>
      </trkpt>
      <trkpt lat="48.62182" lon="1.99749">
        <ele>130.2</ele>
        <time>2026-03-20T16:45:09Z</time>
      </trkpt>
      <trkpt lat="48.62178" lon="1.99754">
        <ele>130.2</ele>
        <time>2026-03-20T16:45:10Z</time>
      </trkpt>
      <trkpt lat="48.62175" lon="1.99759">
        <ele>129.2</ele>
        <time>2026-03-20T16:45:11Z</time>
      </trkpt>
      <trkpt lat="48.62173" lon="1.99765">
        <ele>130.2</ele>
        <time>2026-03-20T16:45:12Z</time>
      </trkpt>
      <trkpt lat="48.62169" lon="1.99769">
        <ele>130.2</ele>
        <time>2026-03-20T16:45:13Z</time>
      </trkpt>
      <trkpt lat="48.62164" lon="1.99773">
        <ele>130.2</ele>
        <time>2026-03-20T16:45:14Z</time>
      </trkpt>
      <trkpt lat="48.6216" lon="1.99778">
        <ele>130.2</ele>
        <time>2026-03-20T16:45:15Z</time>
      </trkpt>
      <trkpt lat="48.62157" lon="1.99783">
        <ele>129.4</ele>
        <time>2026-03-20T16:45:16Z</time>
      </trkpt>
      <trkpt lat="48.62154" lon="1.99788">
        <ele>129.4</ele>
        <time>2026-03-20T16:45:17Z</time>
      </trkpt>
      <trkpt lat="48.6215" lon="1.99793">
        <ele>129.4</ele>
        <time>2026-03-20T16:45:18Z</time>
      </trkpt>
      <trkpt lat="48.6215" lon="1.99799">
        <ele>129.4</ele>
        <time>2026-03-20T16:45:19Z</time>
      </trkpt>
      <trkpt lat="48.62144" lon="1.99804">
        <ele>128.6</ele>
        <time>2026-03-20T16:45:20Z</time>
      </trkpt>
      <trkpt lat="48.6214" lon="1.99809">
        <ele>128.6</ele>
        <time>2026-03-20T16:45:21Z</time>
      </trkpt>
      <trkpt lat="48.62134" lon="1.99813">
        <ele>128.6</ele>
        <time>2026-03-20T16:45:22Z</time>
      </trkpt>
      <trkpt lat="48.6213" lon="1.99816">
        <ele>128.6</ele>
        <time>2026-03-20T16:45:23Z</time>
      </trkpt>
      <trkpt lat="48.62124" lon="1.9982">
        <ele>127.6</ele>
        <time>2026-03-20T16:45:24Z</time>
      </trkpt>
      <trkpt lat="48.62119" lon="1.99824">
        <ele>127.6</ele>
        <time>2026-03-20T16:45:25Z</time>
      </trkpt>
      <trkpt lat="48.62115" lon="1.99828">
        <ele>127.6</ele>
        <time>2026-03-20T16:45:26Z</time>
      </trkpt>
      <trkpt lat="48.62113" lon="1.99833">
        <ele>127.6</ele>
        <time>2026-03-20T16:45:27Z</time>
      </trkpt>
      <trkpt lat="48.62107" lon="1.99836">
        <ele>127.6</ele>
        <time>2026-03-20T16:45:28Z</time>
      </trkpt>
      <trkpt lat="48.62102" lon="1.99841">
        <ele>127.6</ele>
        <time>2026-03-20T16:45:29Z</time>
      </trkpt>
      <trkpt lat="48.62098" lon="1.99846">
        <ele>127.6</ele>
        <time>2026-03-20T16:45:30Z</time>
      </trkpt>
      <trkpt lat="48.62096" lon="1.99853">
        <ele>126.8</ele>
        <time>2026-03-20T16:45:31Z</time>
      </trkpt>
      <trkpt lat="48.62091" lon="1.99859">
        <ele>125.8</ele>
        <time>2026-03-20T16:45:32Z</time>
      </trkpt>
      <trkpt lat="48.62085" lon="1.99864">
        <ele>125.8</ele>
        <time>2026-03-20T16:45:33Z</time>
      </trkpt>
      <trkpt lat="48.62079" lon="1.99869">
        <ele>125.8</ele>
        <time>2026-03-20T16:45:34Z</time>
      </trkpt>
      <trkpt lat="48.62073" lon="1.99874">
        <ele>125.8</ele>
        <time>2026-03-20T16:45:35Z</time>
      </trkpt>
      <trkpt lat="48.62067" lon="1.99879">
        <ele>126.2</ele>
        <time>2026-03-20T16:45:36Z</time>
      </trkpt>
      <trkpt lat="48.62062" lon="1.99885">
        <ele>126.2</ele>
        <time>2026-03-20T16:45:37Z</time>
      </trkpt>
      <trkpt lat="48.62057" lon="1.99892">
        <ele>126.2</ele>
        <time>2026-03-20T16:45:38Z</time>
      </trkpt>
      <trkpt lat="48.62054" lon="1.99902">
        <ele>125.2</ele>
        <time>2026-03-20T16:45:39Z</time>
      </trkpt>
      <trkpt lat="48.62053" lon="1.99912">
        <ele>124.2</ele>
        <time>2026-03-20T16:45:40Z</time>
      </trkpt>
      <trkpt lat="48.62053" lon="1.99922">
        <ele>124.2</ele>
        <time>2026-03-20T16:45:41Z</time>
      </trkpt>
      <trkpt lat="48.62054" lon="1.99932">
        <ele>124.2</ele>
        <time>2026-03-20T16:45:42Z</time>
      </trkpt>
      <trkpt lat="48.62055" lon="1.99942">
        <ele>125.2</ele>
        <time>2026-03-20T16:45:43Z</time>
      </trkpt>
      <trkpt lat="48.62056" lon="1.99953">
        <ele>124.4</ele>
        <time>2026-03-20T16:45:44Z</time>
      </trkpt>
      <trkpt lat="48.62057" lon="1.99963">
        <ele>124.4</ele>
        <time>2026-03-20T16:45:45Z</time>
      </trkpt>
      <trkpt lat="48.62058" lon="1.99972">
        <ele>124.4</ele>
        <time>2026-03-20T16:45:46Z</time>
      </trkpt>
      <trkpt lat="48.62059" lon="1.99981">
        <ele>124.4</ele>
        <time>2026-03-20T16:45:47Z</time>
      </trkpt>
      <trkpt lat="48.6206" lon="1.99989">
        <ele>124.4</ele>
        <time>2026-03-20T16:45:48Z</time>
      </trkpt>
      <trkpt lat="48.62061" lon="1.99998">
        <ele>124.4</ele>
        <time>2026-03-20T16:45:49Z</time>
      </trkpt>
      <trkpt lat="48.62061" lon="2.00006">
        <ele>124.4</ele>
        <time>2026-03-20T16:45:50Z</time>
      </trkpt>
      <trkpt lat="48.62062" lon="2.00014">
        <ele>124.4</ele>
        <time>2026-03-20T16:45:51Z</time>
      </trkpt>
      <trkpt lat="48.62064" lon="2.00022">
        <ele>124.8</ele>
        <time>2026-03-20T16:45:52Z</time>
      </trkpt>
      <trkpt lat="48.62065" lon="2.0003">
        <ele>124.8</ele>
        <time>2026-03-20T16:45:53Z</time>
      </trkpt>
      <trkpt lat="48.62067" lon="2.00038">
        <ele>124.8</ele>
        <time>2026-03-20T16:45:54Z</time>
      </trkpt>
      <trkpt lat="48.6207" lon="2.00046">
        <ele>124.8</ele>
        <time>2026-03-20T16:45:55Z</time>
      </trkpt>
      <trkpt lat="48.62072" lon="2.00053">
        <ele>126</ele>
        <time>2026-03-20T16:45:56Z</time>
      </trkpt>
      <trkpt lat="48.62074" lon="2.0006">
        <ele>126</ele>
        <time>2026-03-20T16:45:57Z</time>
      </trkpt>
      <trkpt lat="48.62075" lon="2.00067">
        <ele>126</ele>
        <time>2026-03-20T16:45:58Z</time>
      </trkpt>
      <trkpt lat="48.62077" lon="2.00073">
        <ele>126</ele>
        <time>2026-03-20T16:45:59Z</time>
      </trkpt>
      <trkpt lat="48.62079" lon="2.0008">
        <ele>126.6</ele>
        <time>2026-03-20T16:46:00Z</time>
      </trkpt>
      <trkpt lat="48.6208" lon="2.00086">
        <ele>126.6</ele>
        <time>2026-03-20T16:46:01Z</time>
      </trkpt>
      <trkpt lat="48.62082" lon="2.00092">
        <ele>126.6</ele>
        <time>2026-03-20T16:46:02Z</time>
      </trkpt>
      <trkpt lat="48.62084" lon="2.00098">
        <ele>126.6</ele>
        <time>2026-03-20T16:46:03Z</time>
      </trkpt>
      <trkpt lat="48.62085" lon="2.00103">
        <ele>127.4</ele>
        <time>2026-03-20T16:46:04Z</time>
      </trkpt>
      <trkpt lat="48.62088" lon="2.00108">
        <ele>127.4</ele>
        <time>2026-03-20T16:46:05Z</time>
      </trkpt>
      <trkpt lat="48.6209" lon="2.00114">
        <ele>127.4</ele>
        <time>2026-03-20T16:46:06Z</time>
      </trkpt>
      <trkpt lat="48.62091" lon="2.00119">
        <ele>127</ele>
        <time>2026-03-20T16:46:07Z</time>
      </trkpt>
      <trkpt lat="48.62093" lon="2.00125">
        <ele>127.8</ele>
        <time>2026-03-20T16:46:08Z</time>
      </trkpt>
      <trkpt lat="48.62095" lon="2.0013">
        <ele>127.8</ele>
        <time>2026-03-20T16:46:09Z</time>
      </trkpt>
      <trkpt lat="48.62097" lon="2.00135">
        <ele>127.8</ele>
        <time>2026-03-20T16:46:10Z</time>
      </trkpt>
      <trkpt lat="48.62098" lon="2.0014">
        <ele>127.8</ele>
        <time>2026-03-20T16:46:11Z</time>
      </trkpt>
      <trkpt lat="48.621" lon="2.00145">
        <ele>128</ele>
        <time>2026-03-20T16:46:12Z</time>
      </trkpt>
      <trkpt lat="48.62101" lon="2.0015">
        <ele>128</ele>
        <time>2026-03-20T16:46:13Z</time>
      </trkpt>
      <trkpt lat="48.62103" lon="2.00155">
        <ele>128</ele>
        <time>2026-03-20T16:46:14Z</time>
      </trkpt>
      <trkpt lat="48.62105" lon="2.0016">
        <ele>128</ele>
        <time>2026-03-20T16:46:15Z</time>
      </trkpt>
      <trkpt lat="48.62106" lon="2.00165">
        <ele>128.2</ele>
        <time>2026-03-20T16:46:16Z</time>
      </trkpt>
      <trkpt lat="48.62108" lon="2.0017">
        <ele>128.2</ele>
        <time>2026-03-20T16:46:17Z</time>
      </trkpt>
      <trkpt lat="48.6211" lon="2.00175">
        <ele>128.2</ele>
        <time>2026-03-20T16:46:18Z</time>
      </trkpt>
      <trkpt lat="48.62111" lon="2.0018">
        <ele>128.2</ele>
        <time>2026-03-20T16:46:19Z</time>
      </trkpt>
      <trkpt lat="48.62113" lon="2.00186">
        <ele>128.6</ele>
        <time>2026-03-20T16:46:20Z</time>
      </trkpt>
      <trkpt lat="48.62115" lon="2.00191">
        <ele>128.6</ele>
        <time>2026-03-20T16:46:21Z</time>
      </trkpt>
      <trkpt lat="48.62117" lon="2.00196">
        <ele>128.6</ele>
        <time>2026-03-20T16:46:22Z</time>
      </trkpt>
      <trkpt lat="48.62119" lon="2.00201">
        <ele>128.6</ele>
        <time>2026-03-20T16:46:23Z</time>
      </trkpt>
      <trkpt lat="48.6212" lon="2.00206">
        <ele>129.4</ele>
        <time>2026-03-20T16:46:24Z</time>
      </trkpt>
      <trkpt lat="48.62121" lon="2.0021">
        <ele>129.4</ele>
        <time>2026-03-20T16:46:25Z</time>
      </trkpt>
      <trkpt lat="48.62123" lon="2.00214">
        <ele>129.4</ele>
        <time>2026-03-20T16:46:26Z</time>
      </trkpt>
      <trkpt lat="48.62124" lon="2.00218">
        <ele>129.4</ele>
        <time>2026-03-20T16:46:27Z</time>
      </trkpt>
      <trkpt lat="48.62124" lon="2.00222">
        <ele>129.8</ele>
        <time>2026-03-20T16:46:28Z</time>
      </trkpt>
      <trkpt lat="48.62125" lon="2.00226">
        <ele>129.8</ele>
        <time>2026-03-20T16:46:29Z</time>
      </trkpt>
      <trkpt lat="48.62125" lon="2.0023">
        <ele>129.8</ele>
        <time>2026-03-20T16:46:30Z</time>
      </trkpt>
      <trkpt lat="48.62125" lon="2.00235">
        <ele>129.8</ele>
        <time>2026-03-20T16:46:31Z</time>
      </trkpt>
      <trkpt lat="48.62125" lon="2.0024">
        <ele>129.8</ele>
        <time>2026-03-20T16:46:32Z</time>
      </trkpt>
      <trkpt lat="48.62124" lon="2.00246">
        <ele>129.4</ele>
        <time>2026-03-20T16:46:33Z</time>
      </trkpt>
      <trkpt lat="48.62124" lon="2.00253">
        <ele>129.4</ele>
        <time>2026-03-20T16:46:34Z</time>
      </trkpt>
      <trkpt lat="48.62124" lon="2.0026">
        <ele>129.4</ele>
        <time>2026-03-20T16:46:35Z</time>
      </trkpt>
      <trkpt lat="48.62126" lon="2.00266">
        <ele>130.4</ele>
        <time>2026-03-20T16:46:36Z</time>
      </trkpt>
      <trkpt lat="48.62128" lon="2.00271">
        <ele>130.4</ele>
        <time>2026-03-20T16:46:37Z</time>
      </trkpt>
      <trkpt lat="48.62131" lon="2.00275">
        <ele>130.4</ele>
        <time>2026-03-20T16:46:38Z</time>
      </trkpt>
      <trkpt lat="48.62134" lon="2.0028">
        <ele>130.4</ele>
        <time>2026-03-20T16:46:39Z</time>
      </trkpt>
      <trkpt lat="48.62137" lon="2.00284">
        <ele>130.4</ele>
        <time>2026-03-20T16:46:40Z</time>
      </trkpt>
      <trkpt lat="48.6214" lon="2.00289">
        <ele>130.4</ele>
        <time>2026-03-20T16:46:41Z</time>
      </trkpt>
      <trkpt lat="48.62141" lon="2.00293">
        <ele>130.4</ele>
        <time>2026-03-20T16:46:42Z</time>
      </trkpt>
      <trkpt lat="48.62143" lon="2.00299">
        <ele>130.4</ele>
        <time>2026-03-20T16:46:43Z</time>
      </trkpt>
      <trkpt lat="48.62144" lon="2.00304">
        <ele>130</ele>
        <time>2026-03-20T16:46:44Z</time>
      </trkpt>
      <trkpt lat="48.62146" lon="2.00309">
        <ele>130</ele>
        <time>2026-03-20T16:46:45Z</time>
      </trkpt>
      <trkpt lat="48.62147" lon="2.00315">
        <ele>130</ele>
        <time>2026-03-20T16:46:46Z</time>
      </trkpt>
      <trkpt lat="48.62148" lon="2.00321">
        <ele>130.2</ele>
        <time>2026-03-20T16:46:47Z</time>
      </trkpt>
      <trkpt lat="48.6215" lon="2.00326">
        <ele>130.4</ele>
        <time>2026-03-20T16:46:48Z</time>
      </trkpt>
      <trkpt lat="48.6215" lon="2.00332">
        <ele>130.4</ele>
        <time>2026-03-20T16:46:49Z</time>
      </trkpt>
      <trkpt lat="48.6215" lon="2.00338">
        <ele>130.4</ele>
        <time>2026-03-20T16:46:50Z</time>
      </trkpt>
      <trkpt lat="48.62151" lon="2.00344">
        <ele>130</ele>
        <time>2026-03-20T16:46:51Z</time>
      </trkpt>
      <trkpt lat="48.62151" lon="2.0035">
        <ele>130</ele>
        <time>2026-03-20T16:46:52Z</time>
      </trkpt>
      <trkpt lat="48.62151" lon="2.00356">
        <ele>130</ele>
        <time>2026-03-20T16:46:53Z</time>
      </trkpt>
      <trkpt lat="48.62152" lon="2.00362">
        <ele>130</ele>
        <time>2026-03-20T16:46:54Z</time>
      </trkpt>
      <trkpt lat="48.62152" lon="2.00369">
        <ele>130</ele>
        <time>2026-03-20T16:46:55Z</time>
      </trkpt>
      <trkpt lat="48.62153" lon="2.00375">
        <ele>130.4</ele>
        <time>2026-03-20T16:46:56Z</time>
      </trkpt>
      <trkpt lat="48.62154" lon="2.00381">
        <ele>130.4</ele>
        <time>2026-03-20T16:46:57Z</time>
      </trkpt>
      <trkpt lat="48.62155" lon="2.00387">
        <ele>130.4</ele>
        <time>2026-03-20T16:46:58Z</time>
      </trkpt>
      <trkpt lat="48.62154" lon="2.00392">
        <ele>130.4</ele>
        <time>2026-03-20T16:46:59Z</time>
      </trkpt>
      <trkpt lat="48.62155" lon="2.00398">
        <ele>130</ele>
        <time>2026-03-20T16:47:00Z</time>
      </trkpt>
      <trkpt lat="48.62154" lon="2.00403">
        <ele>130</ele>
        <time>2026-03-20T16:47:01Z</time>
      </trkpt>
      <trkpt lat="48.62152" lon="2.00409">
        <ele>130</ele>
        <time>2026-03-20T16:47:02Z</time>
      </trkpt>
      <trkpt lat="48.6215" lon="2.00413">
        <ele>130</ele>
        <time>2026-03-20T16:47:03Z</time>
      </trkpt>
      <trkpt lat="48.62151" lon="2.00419">
        <ele>130</ele>
        <time>2026-03-20T16:47:04Z</time>
      </trkpt>
      <trkpt lat="48.62152" lon="2.00425">
        <ele>130</ele>
        <time>2026-03-20T16:47:05Z</time>
      </trkpt>
      <trkpt lat="48.62152" lon="2.00431">
        <ele>130</ele>
        <time>2026-03-20T16:47:06Z</time>
      </trkpt>
      <trkpt lat="48.62151" lon="2.00436">
        <ele>130</ele>
        <time>2026-03-20T16:47:07Z</time>
      </trkpt>
      <trkpt lat="48.62152" lon="2.00443">
        <ele>130.4</ele>
        <time>2026-03-20T16:47:08Z</time>
      </trkpt>
      <trkpt lat="48.62151" lon="2.00448">
        <ele>130.4</ele>
        <time>2026-03-20T16:47:09Z</time>
      </trkpt>
      <trkpt lat="48.62152" lon="2.00454">
        <ele>130.4</ele>
        <time>2026-03-20T16:47:10Z</time>
      </trkpt>
      <trkpt lat="48.62152" lon="2.0046">
        <ele>130.6</ele>
        <time>2026-03-20T16:47:11Z</time>
      </trkpt>
      <trkpt lat="48.62155" lon="2.00467">
        <ele>130.8</ele>
        <time>2026-03-20T16:47:12Z</time>
      </trkpt>
      <trkpt lat="48.62155" lon="2.00473">
        <ele>130.8</ele>
        <time>2026-03-20T16:47:13Z</time>
      </trkpt>
      <trkpt lat="48.62154" lon="2.00478">
        <ele>130.8</ele>
        <time>2026-03-20T16:47:14Z</time>
      </trkpt>
      <trkpt lat="48.62154" lon="2.00485">
        <ele>130.8</ele>
        <time>2026-03-20T16:47:15Z</time>
      </trkpt>
      <trkpt lat="48.62155" lon="2.0049">
        <ele>130.6</ele>
        <time>2026-03-20T16:47:16Z</time>
      </trkpt>
      <trkpt lat="48.62155" lon="2.00496">
        <ele>130.6</ele>
        <time>2026-03-20T16:47:17Z</time>
      </trkpt>
      <trkpt lat="48.62155" lon="2.00501">
        <ele>130.6</ele>
        <time>2026-03-20T16:47:18Z</time>
      </trkpt>
      <trkpt lat="48.62155" lon="2.00507">
        <ele>130.8</ele>
        <time>2026-03-20T16:47:19Z</time>
      </trkpt>
      <trkpt lat="48.62154" lon="2.00513">
        <ele>130.8</ele>
        <time>2026-03-20T16:47:20Z</time>
      </trkpt>
      <trkpt lat="48.62154" lon="2.00519">
        <ele>130.8</ele>
        <time>2026-03-20T16:47:21Z</time>
      </trkpt>
      <trkpt lat="48.62153" lon="2.00525">
        <ele>130.8</ele>
        <time>2026-03-20T16:47:22Z</time>
      </trkpt>
      <trkpt lat="48.62152" lon="2.0053">
        <ele>130.8</ele>
        <time>2026-03-20T16:47:23Z</time>
      </trkpt>
      <trkpt lat="48.62152" lon="2.00536">
        <ele>130.8</ele>
        <time>2026-03-20T16:47:24Z</time>
      </trkpt>
      <trkpt lat="48.62153" lon="2.00542">
        <ele>130.8</ele>
        <time>2026-03-20T16:47:25Z</time>
      </trkpt>
      <trkpt lat="48.62155" lon="2.0055">
        <ele>130.8</ele>
        <time>2026-03-20T16:47:26Z</time>
      </trkpt>
      <trkpt lat="48.62156" lon="2.00557">
        <ele>130.8</ele>
        <time>2026-03-20T16:47:27Z</time>
      </trkpt>
      <trkpt lat="48.62155" lon="2.00562">
        <ele>130.8</ele>
        <time>2026-03-20T16:47:28Z</time>
      </trkpt>
      <trkpt lat="48.62155" lon="2.00568">
        <ele>130.8</ele>
        <time>2026-03-20T16:47:29Z</time>
      </trkpt>
      <trkpt lat="48.62154" lon="2.00574">
        <ele>130.8</ele>
        <time>2026-03-20T16:47:30Z</time>
      </trkpt>
      <trkpt lat="48.62154" lon="2.0058">
        <ele>131</ele>
        <time>2026-03-20T16:47:31Z</time>
      </trkpt>
      <trkpt lat="48.62154" lon="2.00586">
        <ele>131.4</ele>
        <time>2026-03-20T16:47:32Z</time>
      </trkpt>
      <trkpt lat="48.62153" lon="2.00592">
        <ele>131.4</ele>
        <time>2026-03-20T16:47:33Z</time>
      </trkpt>
      <trkpt lat="48.62152" lon="2.00597">
        <ele>131.4</ele>
        <time>2026-03-20T16:47:34Z</time>
      </trkpt>
      <trkpt lat="48.6215" lon="2.00602">
        <ele>131.4</ele>
        <time>2026-03-20T16:47:35Z</time>
      </trkpt>
      <trkpt lat="48.62149" lon="2.00608">
        <ele>131.2</ele>
        <time>2026-03-20T16:47:36Z</time>
      </trkpt>
      <trkpt lat="48.6215" lon="2.00614">
        <ele>131.2</ele>
        <time>2026-03-20T16:47:37Z</time>
      </trkpt>
      <trkpt lat="48.62151" lon="2.00621">
        <ele>131.2</ele>
        <time>2026-03-20T16:47:38Z</time>
      </trkpt>
      <trkpt lat="48.6215" lon="2.00627">
        <ele>131.2</ele>
        <time>2026-03-20T16:47:39Z</time>
      </trkpt>
      <trkpt lat="48.62151" lon="2.00634">
        <ele>131.6</ele>
        <time>2026-03-20T16:47:40Z</time>
      </trkpt>
      <trkpt lat="48.62153" lon="2.00642">
        <ele>131.6</ele>
        <time>2026-03-20T16:47:41Z</time>
      </trkpt>
      <trkpt lat="48.62156" lon="2.0065">
        <ele>131.6</ele>
        <time>2026-03-20T16:47:42Z</time>
      </trkpt>
      <trkpt lat="48.62156" lon="2.00656">
        <ele>131.6</ele>
        <time>2026-03-20T16:47:43Z</time>
      </trkpt>
      <trkpt lat="48.62158" lon="2.00663">
        <ele>131.4</ele>
        <time>2026-03-20T16:47:44Z</time>
      </trkpt>
      <trkpt lat="48.62159" lon="2.00672">
        <ele>131.4</ele>
        <time>2026-03-20T16:47:45Z</time>
      </trkpt>
      <trkpt lat="48.62156" lon="2.00677">
        <ele>131.4</ele>
        <time>2026-03-20T16:47:46Z</time>
      </trkpt>
      <trkpt lat="48.62157" lon="2.00684">
        <ele>131</ele>
        <time>2026-03-20T16:47:47Z</time>
      </trkpt>
      <trkpt lat="48.62159" lon="2.00692">
        <ele>131.4</ele>
        <time>2026-03-20T16:47:48Z</time>
      </trkpt>
      <trkpt lat="48.62161" lon="2.007">
        <ele>131.4</ele>
        <time>2026-03-20T16:47:49Z</time>
      </trkpt>
      <trkpt lat="48.62164" lon="2.00708">
        <ele>131.4</ele>
        <time>2026-03-20T16:47:50Z</time>
      </trkpt>
      <trkpt lat="48.62166" lon="2.00716">
        <ele>131.8</ele>
        <time>2026-03-20T16:47:51Z</time>
      </trkpt>
      <trkpt lat="48.62168" lon="2.00723">
        <ele>132</ele>
        <time>2026-03-20T16:47:52Z</time>
      </trkpt>
      <trkpt lat="48.62169" lon="2.0073">
        <ele>132</ele>
        <time>2026-03-20T16:47:53Z</time>
      </trkpt>
      <trkpt lat="48.62169" lon="2.00738">
        <ele>132</ele>
        <time>2026-03-20T16:47:54Z</time>
      </trkpt>
      <trkpt lat="48.62171" lon="2.00746">
        <ele>132</ele>
        <time>2026-03-20T16:47:55Z</time>
      </trkpt>
      <trkpt lat="48.62172" lon="2.00755">
        <ele>132</ele>
        <time>2026-03-20T16:47:56Z</time>
      </trkpt>
      <trkpt lat="48.62174" lon="2.00763">
        <ele>132</ele>
        <time>2026-03-20T16:47:57Z</time>
      </trkpt>
      <trkpt lat="48.62176" lon="2.00772">
        <ele>132</ele>
        <time>2026-03-20T16:47:58Z</time>
      </trkpt>
      <trkpt lat="48.62181" lon="2.00782">
        <ele>132.6</ele>
        <time>2026-03-20T16:47:59Z</time>
      </trkpt>
      <trkpt lat="48.62182" lon="2.0079">
        <ele>132.6</ele>
        <time>2026-03-20T16:48:00Z</time>
      </trkpt>
      <trkpt lat="48.62185" lon="2.00799">
        <ele>132.6</ele>
        <time>2026-03-20T16:48:01Z</time>
      </trkpt>
      <trkpt lat="48.62189" lon="2.00809">
        <ele>132.6</ele>
        <time>2026-03-20T16:48:02Z</time>
      </trkpt>
      <trkpt lat="48.62191" lon="2.00818">
        <ele>133.6</ele>
        <time>2026-03-20T16:48:03Z</time>
      </trkpt>
      <trkpt lat="48.62193" lon="2.00826">
        <ele>134.8</ele>
        <time>2026-03-20T16:48:04Z</time>
      </trkpt>
      <trkpt lat="48.62195" lon="2.00835">
        <ele>134.8</ele>
        <time>2026-03-20T16:48:05Z</time>
      </trkpt>
      <trkpt lat="48.62197" lon="2.00843">
        <ele>134.8</ele>
        <time>2026-03-20T16:48:06Z</time>
      </trkpt>
      <trkpt lat="48.62199" lon="2.00851">
        <ele>135</ele>
        <time>2026-03-20T16:48:07Z</time>
      </trkpt>
      <trkpt lat="48.62201" lon="2.00859">
        <ele>135.8</ele>
        <time>2026-03-20T16:48:08Z</time>
      </trkpt>
      <trkpt lat="48.62203" lon="2.00867">
        <ele>135.8</ele>
        <time>2026-03-20T16:48:09Z</time>
      </trkpt>
      <trkpt lat="48.62205" lon="2.00875">
        <ele>135.8</ele>
        <time>2026-03-20T16:48:10Z</time>
      </trkpt>
      <trkpt lat="48.62207" lon="2.00883">
        <ele>135.8</ele>
        <time>2026-03-20T16:48:11Z</time>
      </trkpt>
      <trkpt lat="48.6221" lon="2.00891">
        <ele>136.6</ele>
        <time>2026-03-20T16:48:12Z</time>
      </trkpt>
      <trkpt lat="48.62212" lon="2.00899">
        <ele>136.6</ele>
        <time>2026-03-20T16:48:13Z</time>
      </trkpt>
      <trkpt lat="48.62213" lon="2.00906">
        <ele>136.6</ele>
        <time>2026-03-20T16:48:14Z</time>
      </trkpt>
      <trkpt lat="48.62214" lon="2.00914">
        <ele>137.6</ele>
        <time>2026-03-20T16:48:15Z</time>
      </trkpt>
      <trkpt lat="48.62215" lon="2.00921">
        <ele>138</ele>
        <time>2026-03-20T16:48:16Z</time>
      </trkpt>
      <trkpt lat="48.62216" lon="2.00929">
        <ele>138</ele>
        <time>2026-03-20T16:48:17Z</time>
      </trkpt>
      <trkpt lat="48.62218" lon="2.00937">
        <ele>138</ele>
        <time>2026-03-20T16:48:18Z</time>
      </trkpt>
      <trkpt lat="48.62219" lon="2.00944">
        <ele>138.4</ele>
        <time>2026-03-20T16:48:19Z</time>
      </trkpt>
      <trkpt lat="48.6222" lon="2.00951">
        <ele>139</ele>
        <time>2026-03-20T16:48:20Z</time>
      </trkpt>
      <trkpt lat="48.62221" lon="2.00959">
        <ele>139</ele>
        <time>2026-03-20T16:48:21Z</time>
      </trkpt>
      <trkpt lat="48.62222" lon="2.00966">
        <ele>139</ele>
        <time>2026-03-20T16:48:22Z</time>
      </trkpt>
      <trkpt lat="48.62223" lon="2.00973">
        <ele>139</ele>
        <time>2026-03-20T16:48:23Z</time>
      </trkpt>
      <trkpt lat="48.62223" lon="2.0098">
        <ele>139.6</ele>
        <time>2026-03-20T16:48:24Z</time>
      </trkpt>
      <trkpt lat="48.62223" lon="2.00988">
        <ele>139.6</ele>
        <time>2026-03-20T16:48:25Z</time>
      </trkpt>
      <trkpt lat="48.62225" lon="2.00995">
        <ele>139.6</ele>
        <time>2026-03-20T16:48:26Z</time>
      </trkpt>
      <trkpt lat="48.62225" lon="2.01002">
        <ele>140.6</ele>
        <time>2026-03-20T16:48:27Z</time>
      </trkpt>
      <trkpt lat="48.62227" lon="2.01009">
        <ele>141.6</ele>
        <time>2026-03-20T16:48:28Z</time>
      </trkpt>
      <trkpt lat="48.62227" lon="2.01016">
        <ele>141.6</ele>
        <time>2026-03-20T16:48:29Z</time>
      </trkpt>
      <trkpt lat="48.62227" lon="2.01022">
        <ele>141.6</ele>
        <time>2026-03-20T16:48:30Z</time>
      </trkpt>
      <trkpt lat="48.62228" lon="2.01029">
        <ele>142.4</ele>
        <time>2026-03-20T16:48:31Z</time>
      </trkpt>
      <trkpt lat="48.62229" lon="2.01036">
        <ele>142.2</ele>
        <time>2026-03-20T16:48:32Z</time>
      </trkpt>
      <trkpt lat="48.62231" lon="2.01043">
        <ele>142.2</ele>
        <time>2026-03-20T16:48:33Z</time>
      </trkpt>
      <trkpt lat="48.62231" lon="2.01049">
        <ele>142.2</ele>
        <time>2026-03-20T16:48:34Z</time>
      </trkpt>
      <trkpt lat="48.62231" lon="2.01056">
        <ele>142.8</ele>
        <time>2026-03-20T16:48:35Z</time>
      </trkpt>
      <trkpt lat="48.62231" lon="2.01062">
        <ele>143.4</ele>
        <time>2026-03-20T16:48:36Z</time>
      </trkpt>
      <trkpt lat="48.62231" lon="2.01068">
        <ele>143.4</ele>
        <time>2026-03-20T16:48:37Z</time>
      </trkpt>
      <trkpt lat="48.62232" lon="2.01075">
        <ele>143.4</ele>
        <time>2026-03-20T16:48:38Z</time>
      </trkpt>
      <trkpt lat="48.62231" lon="2.01082">
        <ele>144.4</ele>
        <time>2026-03-20T16:48:39Z</time>
      </trkpt>
      <trkpt lat="48.62231" lon="2.01089">
        <ele>144.4</ele>
        <time>2026-03-20T16:48:40Z</time>
      </trkpt>
      <trkpt lat="48.6223" lon="2.01095">
        <ele>144.4</ele>
        <time>2026-03-20T16:48:41Z</time>
      </trkpt>
      <trkpt lat="48.6223" lon="2.01102">
        <ele>144.4</ele>
        <time>2026-03-20T16:48:42Z</time>
      </trkpt>
      <trkpt lat="48.62228" lon="2.01108">
        <ele>145.4</ele>
        <time>2026-03-20T16:48:43Z</time>
      </trkpt>
      <trkpt lat="48.62227" lon="2.01114">
        <ele>146.2</ele>
        <time>2026-03-20T16:48:44Z</time>
      </trkpt>
      <trkpt lat="48.62226" lon="2.01121">
        <ele>146.2</ele>
        <time>2026-03-20T16:48:45Z</time>
      </trkpt>
      <trkpt lat="48.62226" lon="2.01128">
        <ele>146.2</ele>
        <time>2026-03-20T16:48:46Z</time>
      </trkpt>
      <trkpt lat="48.62227" lon="2.01135">
        <ele>146.2</ele>
        <time>2026-03-20T16:48:47Z</time>
      </trkpt>
      <trkpt lat="48.62226" lon="2.01141">
        <ele>147.4</ele>
        <time>2026-03-20T16:48:48Z</time>
      </trkpt>
      <trkpt lat="48.62228" lon="2.01148">
        <ele>147.4</ele>
        <time>2026-03-20T16:48:49Z</time>
      </trkpt>
      <trkpt lat="48.6223" lon="2.01155">
        <ele>147.4</ele>
        <time>2026-03-20T16:48:50Z</time>
      </trkpt>
      <trkpt lat="48.62234" lon="2.01161">
        <ele>147.4</ele>
        <time>2026-03-20T16:48:51Z</time>
      </trkpt>
      <trkpt lat="48.62238" lon="2.01167">
        <ele>147</ele>
        <time>2026-03-20T16:48:52Z</time>
      </trkpt>
      <trkpt lat="48.62239" lon="2.01173">
        <ele>147</ele>
        <time>2026-03-20T16:48:53Z</time>
      </trkpt>
      <trkpt lat="48.62238" lon="2.01179">
        <ele>147</ele>
        <time>2026-03-20T16:48:54Z</time>
      </trkpt>
      <trkpt lat="48.62239" lon="2.01186">
        <ele>146.4</ele>
        <time>2026-03-20T16:48:55Z</time>
      </trkpt>
      <trkpt lat="48.62239" lon="2.01193">
        <ele>145</ele>
        <time>2026-03-20T16:48:56Z</time>
      </trkpt>
      <trkpt lat="48.62239" lon="2.012">
        <ele>145</ele>
        <time>2026-03-20T16:48:57Z</time>
      </trkpt>
      <trkpt lat="48.62239" lon="2.01207">
        <ele>145</ele>
        <time>2026-03-20T16:48:58Z</time>
      </trkpt>
      <trkpt lat="48.6224" lon="2.01215">
        <ele>144.4</ele>
        <time>2026-03-20T16:48:59Z</time>
      </trkpt>
      <trkpt lat="48.62242" lon="2.01224">
        <ele>144.2</ele>
        <time>2026-03-20T16:49:00Z</time>
      </trkpt>
      <trkpt lat="48.62243" lon="2.01232">
        <ele>144.2</ele>
        <time>2026-03-20T16:49:01Z</time>
      </trkpt>
      <trkpt lat="48.62244" lon="2.01241">
        <ele>144.2</ele>
        <time>2026-03-20T16:49:02Z</time>
      </trkpt>
      <trkpt lat="48.62245" lon="2.01249">
        <ele>143.2</ele>
        <time>2026-03-20T16:49:03Z</time>
      </trkpt>
      <trkpt lat="48.62245" lon="2.01259">
        <ele>142</ele>
        <time>2026-03-20T16:49:04Z</time>
      </trkpt>
      <trkpt lat="48.62245" lon="2.01268">
        <ele>142</ele>
        <time>2026-03-20T16:49:05Z</time>
      </trkpt>
      <trkpt lat="48.62245" lon="2.01277">
        <ele>142</ele>
        <time>2026-03-20T16:49:06Z</time>
      </trkpt>
      <trkpt lat="48.62245" lon="2.01287">
        <ele>142</ele>
        <time>2026-03-20T16:49:07Z</time>
      </trkpt>
      <trkpt lat="48.62245" lon="2.01296">
        <ele>141.2</ele>
        <time>2026-03-20T16:49:08Z</time>
      </trkpt>
      <trkpt lat="48.62245" lon="2.01306">
        <ele>141.2</ele>
        <time>2026-03-20T16:49:09Z</time>
      </trkpt>
      <trkpt lat="48.62245" lon="2.01316">
        <ele>141.2</ele>
        <time>2026-03-20T16:49:10Z</time>
      </trkpt>
      <trkpt lat="48.62245" lon="2.01327">
        <ele>140.2</ele>
        <time>2026-03-20T16:49:11Z</time>
      </trkpt>
      <trkpt lat="48.62245" lon="2.01337">
        <ele>138.8</ele>
        <time>2026-03-20T16:49:12Z</time>
      </trkpt>
      <trkpt lat="48.62245" lon="2.01347">
        <ele>138.8</ele>
        <time>2026-03-20T16:49:13Z</time>
      </trkpt>
      <trkpt lat="48.62244" lon="2.01357">
        <ele>138.8</ele>
        <time>2026-03-20T16:49:14Z</time>
      </trkpt>
      <trkpt lat="48.62244" lon="2.01368">
        <ele>138.8</ele>
        <time>2026-03-20T16:49:15Z</time>
      </trkpt>
      <trkpt lat="48.62244" lon="2.01378">
        <ele>138.8</ele>
        <time>2026-03-20T16:49:16Z</time>
      </trkpt>
      <trkpt lat="48.62244" lon="2.01389">
        <ele>138.8</ele>
        <time>2026-03-20T16:49:17Z</time>
      </trkpt>
      <trkpt lat="48.62244" lon="2.01399">
        <ele>138.8</ele>
        <time>2026-03-20T16:49:18Z</time>
      </trkpt>
      <trkpt lat="48.62244" lon="2.0141">
        <ele>138.8</ele>
        <time>2026-03-20T16:49:19Z</time>
      </trkpt>
      <trkpt lat="48.62244" lon="2.0142">
        <ele>138.4</ele>
        <time>2026-03-20T16:49:20Z</time>
      </trkpt>
      <trkpt lat="48.62244" lon="2.01431">
        <ele>138.4</ele>
        <time>2026-03-20T16:49:21Z</time>
      </trkpt>
      <trkpt lat="48.62244" lon="2.01441">
        <ele>138.4</ele>
        <time>2026-03-20T16:49:22Z</time>
      </trkpt>
      <trkpt lat="48.62244" lon="2.01452">
        <ele>138.4</ele>
        <time>2026-03-20T16:49:23Z</time>
      </trkpt>
      <trkpt lat="48.62243" lon="2.01462">
        <ele>138.6</ele>
        <time>2026-03-20T16:49:24Z</time>
      </trkpt>
      <trkpt lat="48.62243" lon="2.01473">
        <ele>138.6</ele>
        <time>2026-03-20T16:49:25Z</time>
      </trkpt>
      <trkpt lat="48.62243" lon="2.01484">
        <ele>138.6</ele>
        <time>2026-03-20T16:49:26Z</time>
      </trkpt>
      <trkpt lat="48.62243" lon="2.01494">
        <ele>137.8</ele>
        <time>2026-03-20T16:49:27Z</time>
      </trkpt>
      <trkpt lat="48.62243" lon="2.01505">
        <ele>138.8</ele>
        <time>2026-03-20T16:49:28Z</time>
      </trkpt>
      <trkpt lat="48.62243" lon="2.01515">
        <ele>138.8</ele>
        <time>2026-03-20T16:49:29Z</time>
      </trkpt>
      <trkpt lat="48.62242" lon="2.01526">
        <ele>138.8</ele>
        <time>2026-03-20T16:49:30Z</time>
      </trkpt>
      <trkpt lat="48.62242" lon="2.01536">
        <ele>138</ele>
        <time>2026-03-20T16:49:31Z</time>
      </trkpt>
      <trkpt lat="48.62242" lon="2.01546">
        <ele>138.4</ele>
        <time>2026-03-20T16:49:32Z</time>
      </trkpt>
      <trkpt lat="48.62242" lon="2.01557">
        <ele>138.4</ele>
        <time>2026-03-20T16:49:33Z</time>
      </trkpt>
      <trkpt lat="48.62242" lon="2.01567">
        <ele>138.4</ele>
        <time>2026-03-20T16:49:34Z</time>
      </trkpt>
      <trkpt lat="48.62242" lon="2.01577">
        <ele>138.2</ele>
        <time>2026-03-20T16:49:35Z</time>
      </trkpt>
      <trkpt lat="48.62242" lon="2.01588">
        <ele>137.6</ele>
        <time>2026-03-20T16:49:36Z</time>
      </trkpt>
      <trkpt lat="48.62242" lon="2.01598">
        <ele>137.6</ele>
        <time>2026-03-20T16:49:37Z</time>
      </trkpt>
      <trkpt lat="48.62242" lon="2.01608">
        <ele>137.6</ele>
        <time>2026-03-20T16:49:38Z</time>
      </trkpt>
      <trkpt lat="48.62242" lon="2.01619">
        <ele>137.6</ele>
        <time>2026-03-20T16:49:39Z</time>
      </trkpt>
      <trkpt lat="48.62242" lon="2.01629">
        <ele>138.2</ele>
        <time>2026-03-20T16:49:40Z</time>
      </trkpt>
      <trkpt lat="48.62242" lon="2.01638">
        <ele>138.2</ele>
        <time>2026-03-20T16:49:41Z</time>
      </trkpt>
      <trkpt lat="48.62242" lon="2.01648">
        <ele>138.2</ele>
        <time>2026-03-20T16:49:42Z</time>
      </trkpt>
      <trkpt lat="48.62241" lon="2.01657">
        <ele>138.2</ele>
        <time>2026-03-20T16:49:43Z</time>
      </trkpt>
      <trkpt lat="48.6224" lon="2.01666">
        <ele>138</ele>
        <time>2026-03-20T16:49:44Z</time>
      </trkpt>
      <trkpt lat="48.62239" lon="2.01676">
        <ele>138</ele>
        <time>2026-03-20T16:49:45Z</time>
      </trkpt>
      <trkpt lat="48.62237" lon="2.01685">
        <ele>138</ele>
        <time>2026-03-20T16:49:46Z</time>
      </trkpt>
      <trkpt lat="48.62235" lon="2.01695">
        <ele>138</ele>
        <time>2026-03-20T16:49:47Z</time>
      </trkpt>
      <trkpt lat="48.62235" lon="2.01706">
        <ele>137.6</ele>
        <time>2026-03-20T16:49:48Z</time>
      </trkpt>
      <trkpt lat="48.62235" lon="2.01716">
        <ele>137.6</ele>
        <time>2026-03-20T16:49:49Z</time>
      </trkpt>
      <trkpt lat="48.62233" lon="2.01726">
        <ele>137.6</ele>
        <time>2026-03-20T16:49:50Z</time>
      </trkpt>
      <trkpt lat="48.62233" lon="2.01735">
        <ele>137.6</ele>
        <time>2026-03-20T16:49:51Z</time>
      </trkpt>
      <trkpt lat="48.62231" lon="2.01745">
        <ele>137</ele>
        <time>2026-03-20T16:49:52Z</time>
      </trkpt>
      <trkpt lat="48.6223" lon="2.01755">
        <ele>137</ele>
        <time>2026-03-20T16:49:53Z</time>
      </trkpt>
      <trkpt lat="48.6223" lon="2.01766">
        <ele>137</ele>
        <time>2026-03-20T16:49:54Z</time>
      </trkpt>
      <trkpt lat="48.62229" lon="2.01776">
        <ele>137</ele>
        <time>2026-03-20T16:49:55Z</time>
      </trkpt>
      <trkpt lat="48.62227" lon="2.01787">
        <ele>137</ele>
        <time>2026-03-20T16:49:56Z</time>
      </trkpt>
      <trkpt lat="48.62225" lon="2.01797">
        <ele>137</ele>
        <time>2026-03-20T16:49:57Z</time>
      </trkpt>
      <trkpt lat="48.62224" lon="2.01809">
        <ele>137</ele>
        <time>2026-03-20T16:49:58Z</time>
      </trkpt>
      <trkpt lat="48.62224" lon="2.0182">
        <ele>136.4</ele>
        <time>2026-03-20T16:49:59Z</time>
      </trkpt>
      <trkpt lat="48.62222" lon="2.0183">
        <ele>136.2</ele>
        <time>2026-03-20T16:50:00Z</time>
      </trkpt>
      <trkpt lat="48.62221" lon="2.0184">
        <ele>136.2</ele>
        <time>2026-03-20T16:50:01Z</time>
      </trkpt>
      <trkpt lat="48.6222" lon="2.0185">
        <ele>136.2</ele>
        <time>2026-03-20T16:50:02Z</time>
      </trkpt>
      <trkpt lat="48.62219" lon="2.0186">
        <ele>136.6</ele>
        <time>2026-03-20T16:50:03Z</time>
      </trkpt>
      <trkpt lat="48.62218" lon="2.01868">
        <ele>137</ele>
        <time>2026-03-20T16:50:04Z</time>
      </trkpt>
      <trkpt lat="48.62221" lon="2.01875">
        <ele>137</ele>
        <time>2026-03-20T16:50:05Z</time>
      </trkpt>
      <trkpt lat="48.62225" lon="2.01879">
        <ele>137</ele>
        <time>2026-03-20T16:50:06Z</time>
      </trkpt>
      <trkpt lat="48.62228" lon="2.01882">
        <ele>138</ele>
        <time>2026-03-20T16:50:07Z</time>
      </trkpt>
      <trkpt lat="48.62228" lon="2.01883">
        <ele>139.2</ele>
        <time>2026-03-20T16:50:08Z</time>
      </trkpt>
      <trkpt lat="48.62227" lon="2.01884">
        <ele>139.2</ele>
        <time>2026-03-20T16:50:09Z</time>
      </trkpt>
      <trkpt lat="48.62227" lon="2.01884">
        <ele>139.2</ele>
        <time>2026-03-20T16:50:10Z</time>
      </trkpt>
      <trkpt lat="48.62226" lon="2.01885">
        <ele>139.2</ele>
        <time>2026-03-20T16:50:11Z</time>
      </trkpt>
      <trkpt lat="48.62226" lon="2.01886">
        <ele>139.4</ele>
        <time>2026-03-20T16:50:12Z</time>
      </trkpt>
      <trkpt lat="48.62225" lon="2.01887">
        <ele>139.4</ele>
        <time>2026-03-20T16:50:13Z</time>
      </trkpt>
      <trkpt lat="48.62225" lon="2.01888">
        <ele>139.4</ele>
        <time>2026-03-20T16:50:14Z</time>
      </trkpt>
      <trkpt lat="48.62225" lon="2.01889">
        <ele>139.2</ele>
        <time>2026-03-20T16:50:15Z</time>
      </trkpt>
      <trkpt lat="48.62224" lon="2.0189">
        <ele>139.2</ele>
        <time>2026-03-20T16:50:16Z</time>
      </trkpt>
      <trkpt lat="48.62224" lon="2.01891">
        <ele>137.8</ele>
        <time>2026-03-20T16:50:29Z</time>
      </trkpt>
      <trkpt lat="48.62223" lon="2.01892">
        <ele>137.8</ele>
        <time>2026-03-20T16:50:30Z</time>
      </trkpt>
      <trkpt lat="48.62222" lon="2.01897">
        <ele>137.8</ele>
        <time>2026-03-20T16:50:31Z</time>
      </trkpt>
      <trkpt lat="48.6222" lon="2.01903">
        <ele>137</ele>
        <time>2026-03-20T16:50:32Z</time>
      </trkpt>
      <trkpt lat="48.62219" lon="2.0191">
        <ele>137</ele>
        <time>2026-03-20T16:50:33Z</time>
      </trkpt>
      <trkpt lat="48.62218" lon="2.01918">
        <ele>137</ele>
        <time>2026-03-20T16:50:34Z</time>
      </trkpt>
      <trkpt lat="48.62216" lon="2.01926">
        <ele>136.6</ele>
        <time>2026-03-20T16:50:35Z</time>
      </trkpt>
      <trkpt lat="48.62215" lon="2.01933">
        <ele>136.6</ele>
        <time>2026-03-20T16:50:36Z</time>
      </trkpt>
      <trkpt lat="48.62214" lon="2.01941">
        <ele>136.6</ele>
        <time>2026-03-20T16:50:37Z</time>
      </trkpt>
      <trkpt lat="48.62213" lon="2.01949">
        <ele>136.6</ele>
        <time>2026-03-20T16:50:38Z</time>
      </trkpt>
      <trkpt lat="48.62212" lon="2.01956">
        <ele>136.6</ele>
        <time>2026-03-20T16:50:39Z</time>
      </trkpt>
      <trkpt lat="48.62211" lon="2.01963">
        <ele>136.2</ele>
        <time>2026-03-20T16:50:40Z</time>
      </trkpt>
      <trkpt lat="48.62209" lon="2.0197">
        <ele>136.2</ele>
        <time>2026-03-20T16:50:41Z</time>
      </trkpt>
      <trkpt lat="48.62208" lon="2.01977">
        <ele>136.2</ele>
        <time>2026-03-20T16:50:42Z</time>
      </trkpt>
      <trkpt lat="48.62207" lon="2.01984">
        <ele>136.2</ele>
        <time>2026-03-20T16:50:43Z</time>
      </trkpt>
      <trkpt lat="48.62205" lon="2.01991">
        <ele>137.2</ele>
        <time>2026-03-20T16:50:44Z</time>
      </trkpt>
      <trkpt lat="48.62204" lon="2.01998">
        <ele>137.2</ele>
        <time>2026-03-20T16:50:45Z</time>
      </trkpt>
      <trkpt lat="48.62203" lon="2.02005">
        <ele>137.2</ele>
        <time>2026-03-20T16:50:46Z</time>
      </trkpt>
      <trkpt lat="48.62201" lon="2.02013">
        <ele>137.2</ele>
        <time>2026-03-20T16:50:47Z</time>
      </trkpt>
      <trkpt lat="48.622" lon="2.0202">
        <ele>137.4</ele>
        <time>2026-03-20T16:50:48Z</time>
      </trkpt>
      <trkpt lat="48.62199" lon="2.02028">
        <ele>137.4</ele>
        <time>2026-03-20T16:50:49Z</time>
      </trkpt>
      <trkpt lat="48.62199" lon="2.02036">
        <ele>137.4</ele>
        <time>2026-03-20T16:50:50Z</time>
      </trkpt>
      <trkpt lat="48.62198" lon="2.02044">
        <ele>137.4</ele>
        <time>2026-03-20T16:50:51Z</time>
      </trkpt>
      <trkpt lat="48.62197" lon="2.02051">
        <ele>137.4</ele>
        <time>2026-03-20T16:50:52Z</time>
      </trkpt>
      <trkpt lat="48.62198" lon="2.02059">
        <ele>137.4</ele>
        <time>2026-03-20T16:50:53Z</time>
      </trkpt>
      <trkpt lat="48.62197" lon="2.02067">
        <ele>137.4</ele>
        <time>2026-03-20T16:50:54Z</time>
      </trkpt>
      <trkpt lat="48.62196" lon="2.02075">
        <ele>136.4</ele>
        <time>2026-03-20T16:50:55Z</time>
      </trkpt>
      <trkpt lat="48.62196" lon="2.02084">
        <ele>136.6</ele>
        <time>2026-03-20T16:50:56Z</time>
      </trkpt>
      <trkpt lat="48.62196" lon="2.02092">
        <ele>136.6</ele>
        <time>2026-03-20T16:50:57Z</time>
      </trkpt>
      <trkpt lat="48.62195" lon="2.021">
        <ele>136.6</ele>
        <time>2026-03-20T16:50:58Z</time>
      </trkpt>
      <trkpt lat="48.62194" lon="2.02107">
        <ele>136.6</ele>
        <time>2026-03-20T16:50:59Z</time>
      </trkpt>
      <trkpt lat="48.62194" lon="2.02115">
        <ele>136.6</ele>
        <time>2026-03-20T16:51:00Z</time>
      </trkpt>
      <trkpt lat="48.62193" lon="2.02122">
        <ele>136.6</ele>
        <time>2026-03-20T16:51:01Z</time>
      </trkpt>
      <trkpt lat="48.62193" lon="2.02129">
        <ele>136.6</ele>
        <time>2026-03-20T16:51:02Z</time>
      </trkpt>
      <trkpt lat="48.62192" lon="2.02137">
        <ele>136.8</ele>
        <time>2026-03-20T16:51:03Z</time>
      </trkpt>
      <trkpt lat="48.62192" lon="2.02144">
        <ele>137</ele>
        <time>2026-03-20T16:51:04Z</time>
      </trkpt>
      <trkpt lat="48.62191" lon="2.02151">
        <ele>137</ele>
        <time>2026-03-20T16:51:05Z</time>
      </trkpt>
      <trkpt lat="48.62191" lon="2.02159">
        <ele>137</ele>
        <time>2026-03-20T16:51:06Z</time>
      </trkpt>
      <trkpt lat="48.6219" lon="2.02166">
        <ele>137</ele>
        <time>2026-03-20T16:51:07Z</time>
      </trkpt>
      <trkpt lat="48.62189" lon="2.02172">
        <ele>137.4</ele>
        <time>2026-03-20T16:51:08Z</time>
      </trkpt>
      <trkpt lat="48.62189" lon="2.02179">
        <ele>137.4</ele>
        <time>2026-03-20T16:51:09Z</time>
      </trkpt>
      <trkpt lat="48.62189" lon="2.02186">
        <ele>137.4</ele>
        <time>2026-03-20T16:51:10Z</time>
      </trkpt>
      <trkpt lat="48.62188" lon="2.02194">
        <ele>136.8</ele>
        <time>2026-03-20T16:51:11Z</time>
      </trkpt>
      <trkpt lat="48.62187" lon="2.02201">
        <ele>136.6</ele>
        <time>2026-03-20T16:51:12Z</time>
      </trkpt>
      <trkpt lat="48.62187" lon="2.02208">
        <ele>136.6</ele>
        <time>2026-03-20T16:51:13Z</time>
      </trkpt>
      <trkpt lat="48.62187" lon="2.02215">
        <ele>136.6</ele>
        <time>2026-03-20T16:51:14Z</time>
      </trkpt>
      <trkpt lat="48.62187" lon="2.02223">
        <ele>136.6</ele>
        <time>2026-03-20T16:51:15Z</time>
      </trkpt>
      <trkpt lat="48.62188" lon="2.02231">
        <ele>136.4</ele>
        <time>2026-03-20T16:51:16Z</time>
      </trkpt>
      <trkpt lat="48.62189" lon="2.02239">
        <ele>136.4</ele>
        <time>2026-03-20T16:51:17Z</time>
      </trkpt>
      <trkpt lat="48.6219" lon="2.02247">
        <ele>136.4</ele>
        <time>2026-03-20T16:51:18Z</time>
      </trkpt>
      <trkpt lat="48.62191" lon="2.02255">
        <ele>136.4</ele>
        <time>2026-03-20T16:51:19Z</time>
      </trkpt>
      <trkpt lat="48.62192" lon="2.02263">
        <ele>136.2</ele>
        <time>2026-03-20T16:51:20Z</time>
      </trkpt>
      <trkpt lat="48.62193" lon="2.0227">
        <ele>136.2</ele>
        <time>2026-03-20T16:51:21Z</time>
      </trkpt>
      <trkpt lat="48.62193" lon="2.02278">
        <ele>136.2</ele>
        <time>2026-03-20T16:51:22Z</time>
      </trkpt>
      <trkpt lat="48.62194" lon="2.02286">
        <ele>136</ele>
        <time>2026-03-20T16:51:23Z</time>
      </trkpt>
      <trkpt lat="48.62194" lon="2.02293">
        <ele>136.2</ele>
        <time>2026-03-20T16:51:24Z</time>
      </trkpt>
      <trkpt lat="48.62195" lon="2.02301">
        <ele>136.2</ele>
        <time>2026-03-20T16:51:25Z</time>
      </trkpt>
      <trkpt lat="48.62195" lon="2.02309">
        <ele>136.2</ele>
        <time>2026-03-20T16:51:26Z</time>
      </trkpt>
      <trkpt lat="48.62196" lon="2.02316">
        <ele>136.2</ele>
        <time>2026-03-20T16:51:27Z</time>
      </trkpt>
      <trkpt lat="48.62197" lon="2.02324">
        <ele>136.2</ele>
        <time>2026-03-20T16:51:28Z</time>
      </trkpt>
      <trkpt lat="48.62198" lon="2.02331">
        <ele>136.2</ele>
        <time>2026-03-20T16:51:29Z</time>
      </trkpt>
      <trkpt lat="48.62199" lon="2.02339">
        <ele>136.2</ele>
        <time>2026-03-20T16:51:30Z</time>
      </trkpt>
      <trkpt lat="48.62201" lon="2.02346">
        <ele>136.6</ele>
        <time>2026-03-20T16:51:31Z</time>
      </trkpt>
      <trkpt lat="48.62202" lon="2.02354">
        <ele>136.6</ele>
        <time>2026-03-20T16:51:32Z</time>
      </trkpt>
      <trkpt lat="48.62203" lon="2.02361">
        <ele>136.6</ele>
        <time>2026-03-20T16:51:33Z</time>
      </trkpt>
      <trkpt lat="48.62203" lon="2.02369">
        <ele>136.6</ele>
        <time>2026-03-20T16:51:34Z</time>
      </trkpt>
      <trkpt lat="48.62203" lon="2.02376">
        <ele>136.6</ele>
        <time>2026-03-20T16:51:35Z</time>
      </trkpt>
      <trkpt lat="48.62202" lon="2.02383">
        <ele>136.6</ele>
        <time>2026-03-20T16:51:36Z</time>
      </trkpt>
      <trkpt lat="48.622" lon="2.0239">
        <ele>136.6</ele>
        <time>2026-03-20T16:51:37Z</time>
      </trkpt>
      <trkpt lat="48.62197" lon="2.02396">
        <ele>136.6</ele>
        <time>2026-03-20T16:51:38Z</time>
      </trkpt>
      <trkpt lat="48.62194" lon="2.02402">
        <ele>136.6</ele>
        <time>2026-03-20T16:51:39Z</time>
      </trkpt>
      <trkpt lat="48.6219" lon="2.02407">
        <ele>136</ele>
        <time>2026-03-20T16:51:40Z</time>
      </trkpt>
      <trkpt lat="48.62186" lon="2.02413">
        <ele>136</ele>
        <time>2026-03-20T16:51:41Z</time>
      </trkpt>
      <trkpt lat="48.62183" lon="2.02419">
        <ele>136</ele>
        <time>2026-03-20T16:51:42Z</time>
      </trkpt>
      <trkpt lat="48.62179" lon="2.02425">
        <ele>136</ele>
        <time>2026-03-20T16:51:43Z</time>
      </trkpt>
      <trkpt lat="48.62176" lon="2.0243">
        <ele>136</ele>
        <time>2026-03-20T16:51:44Z</time>
      </trkpt>
      <trkpt lat="48.62172" lon="2.02435">
        <ele>136</ele>
        <time>2026-03-20T16:51:45Z</time>
      </trkpt>
      <trkpt lat="48.62169" lon="2.02439">
        <ele>136</ele>
        <time>2026-03-20T16:51:46Z</time>
      </trkpt>
      <trkpt lat="48.62165" lon="2.02443">
        <ele>136</ele>
        <time>2026-03-20T16:51:47Z</time>
      </trkpt>
      <trkpt lat="48.62162" lon="2.02448">
        <ele>136.2</ele>
        <time>2026-03-20T16:51:48Z</time>
      </trkpt>
      <trkpt lat="48.62159" lon="2.02452">
        <ele>136.2</ele>
        <time>2026-03-20T16:51:49Z</time>
      </trkpt>
      <trkpt lat="48.62157" lon="2.02457">
        <ele>136.2</ele>
        <time>2026-03-20T16:51:50Z</time>
      </trkpt>
      <trkpt lat="48.62153" lon="2.02462">
        <ele>136</ele>
        <time>2026-03-20T16:51:51Z</time>
      </trkpt>
      <trkpt lat="48.6215" lon="2.02467">
        <ele>136.4</ele>
        <time>2026-03-20T16:51:52Z</time>
      </trkpt>
      <trkpt lat="48.62146" lon="2.02471">
        <ele>136.4</ele>
        <time>2026-03-20T16:51:53Z</time>
      </trkpt>
      <trkpt lat="48.62143" lon="2.02475">
        <ele>136.4</ele>
        <time>2026-03-20T16:51:54Z</time>
      </trkpt>
      <trkpt lat="48.62139" lon="2.02479">
        <ele>136.4</ele>
        <time>2026-03-20T16:51:55Z</time>
      </trkpt>
      <trkpt lat="48.62135" lon="2.02484">
        <ele>136.2</ele>
        <time>2026-03-20T16:51:56Z</time>
      </trkpt>
      <trkpt lat="48.62131" lon="2.02487">
        <ele>136.2</ele>
        <time>2026-03-20T16:51:57Z</time>
      </trkpt>
      <trkpt lat="48.62127" lon="2.02491">
        <ele>136.2</ele>
        <time>2026-03-20T16:51:58Z</time>
      </trkpt>
      <trkpt lat="48.62123" lon="2.02495">
        <ele>136.2</ele>
        <time>2026-03-20T16:51:59Z</time>
      </trkpt>
      <trkpt lat="48.62119" lon="2.02499">
        <ele>136.2</ele>
        <time>2026-03-20T16:52:00Z</time>
      </trkpt>
      <trkpt lat="48.62115" lon="2.02503">
        <ele>136.2</ele>
        <time>2026-03-20T16:52:01Z</time>
      </trkpt>
      <trkpt lat="48.62111" lon="2.02506">
        <ele>136.2</ele>
        <time>2026-03-20T16:52:02Z</time>
      </trkpt>
      <trkpt lat="48.62106" lon="2.02508">
        <ele>136</ele>
        <time>2026-03-20T16:52:03Z</time>
      </trkpt>
      <trkpt lat="48.62101" lon="2.02509">
        <ele>136</ele>
        <time>2026-03-20T16:52:04Z</time>
      </trkpt>
      <trkpt lat="48.62097" lon="2.02509">
        <ele>136</ele>
        <time>2026-03-20T16:52:05Z</time>
      </trkpt>
      <trkpt lat="48.62092" lon="2.02508">
        <ele>136</ele>
        <time>2026-03-20T16:52:06Z</time>
      </trkpt>
      <trkpt lat="48.62088" lon="2.02507">
        <ele>136</ele>
        <time>2026-03-20T16:52:07Z</time>
      </trkpt>
      <trkpt lat="48.62084" lon="2.02507">
        <ele>136.2</ele>
        <time>2026-03-20T16:52:08Z</time>
      </trkpt>
      <trkpt lat="48.6208" lon="2.02506">
        <ele>136.2</ele>
        <time>2026-03-20T16:52:09Z</time>
      </trkpt>
      <trkpt lat="48.62076" lon="2.02505">
        <ele>136.2</ele>
        <time>2026-03-20T16:52:10Z</time>
      </trkpt>
      <trkpt lat="48.62072" lon="2.02505">
        <ele>136.2</ele>
        <time>2026-03-20T16:52:11Z</time>
      </trkpt>
      <trkpt lat="48.62068" lon="2.02504">
        <ele>136.6</ele>
        <time>2026-03-20T16:52:12Z</time>
      </trkpt>
      <trkpt lat="48.62064" lon="2.02504">
        <ele>136.6</ele>
        <time>2026-03-20T16:52:13Z</time>
      </trkpt>
      <trkpt lat="48.6206" lon="2.02504">
        <ele>136.6</ele>
        <time>2026-03-20T16:52:14Z</time>
      </trkpt>
      <trkpt lat="48.62056" lon="2.02505">
        <ele>136.6</ele>
        <time>2026-03-20T16:52:15Z</time>
      </trkpt>
      <trkpt lat="48.62052" lon="2.02507">
        <ele>136.6</ele>
        <time>2026-03-20T16:52:16Z</time>
      </trkpt>
      <trkpt lat="48.62049" lon="2.02509">
        <ele>136.6</ele>
        <time>2026-03-20T16:52:17Z</time>
      </trkpt>
      <trkpt lat="48.62045" lon="2.02511">
        <ele>136.6</ele>
        <time>2026-03-20T16:52:18Z</time>
      </trkpt>
      <trkpt lat="48.62042" lon="2.02513">
        <ele>136.6</ele>
        <time>2026-03-20T16:52:19Z</time>
      </trkpt>
      <trkpt lat="48.6204" lon="2.02516">
        <ele>137</ele>
        <time>2026-03-20T16:52:20Z</time>
      </trkpt>
      <trkpt lat="48.62039" lon="2.02517">
        <ele>137</ele>
        <time>2026-03-20T16:52:21Z</time>
      </trkpt>
      <trkpt lat="48.62038" lon="2.02518">
        <ele>137</ele>
        <time>2026-03-20T16:52:22Z</time>
      </trkpt>
      <trkpt lat="48.62038" lon="2.02518">
        <ele>136.6</ele>
        <time>2026-03-20T16:52:23Z</time>
      </trkpt>
      <trkpt lat="48.62034" lon="2.02525">
        <ele>137.2</ele>
        <time>2026-03-20T16:57:17Z</time>
      </trkpt>
      <trkpt lat="48.62031" lon="2.02525">
        <ele>137.2</ele>
        <time>2026-03-20T16:57:18Z</time>
      </trkpt>
      <trkpt lat="48.62029" lon="2.02527">
        <ele>137.2</ele>
        <time>2026-03-20T16:57:19Z</time>
      </trkpt>
      <trkpt lat="48.62027" lon="2.02528">
        <ele>136.8</ele>
        <time>2026-03-20T16:57:20Z</time>
      </trkpt>
      <trkpt lat="48.62024" lon="2.0253">
        <ele>136.8</ele>
        <time>2026-03-20T16:57:21Z</time>
      </trkpt>
      <trkpt lat="48.62021" lon="2.02532">
        <ele>136.8</ele>
        <time>2026-03-20T16:57:22Z</time>
      </trkpt>
      <trkpt lat="48.62017" lon="2.02533">
        <ele>136.8</ele>
        <time>2026-03-20T16:57:23Z</time>
      </trkpt>
      <trkpt lat="48.62013" lon="2.02535">
        <ele>136.4</ele>
        <time>2026-03-20T16:57:24Z</time>
      </trkpt>
      <trkpt lat="48.62008" lon="2.02538">
        <ele>136.4</ele>
        <time>2026-03-20T16:57:25Z</time>
      </trkpt>
      <trkpt lat="48.62003" lon="2.0254">
        <ele>136.4</ele>
        <time>2026-03-20T16:57:26Z</time>
      </trkpt>
      <trkpt lat="48.61998" lon="2.02543">
        <ele>135.4</ele>
        <time>2026-03-20T16:57:27Z</time>
      </trkpt>
      <trkpt lat="48.61992" lon="2.02546">
        <ele>136.6</ele>
        <time>2026-03-20T16:57:28Z</time>
      </trkpt>
      <trkpt lat="48.61987" lon="2.02549">
        <ele>136.6</ele>
        <time>2026-03-20T16:57:29Z</time>
      </trkpt>
      <trkpt lat="48.61981" lon="2.02552">
        <ele>136.6</ele>
        <time>2026-03-20T16:57:30Z</time>
      </trkpt>
      <trkpt lat="48.61976" lon="2.02555">
        <ele>136.2</ele>
        <time>2026-03-20T16:57:31Z</time>
      </trkpt>
      <trkpt lat="48.61971" lon="2.02558">
        <ele>136.8</ele>
        <time>2026-03-20T16:57:32Z</time>
      </trkpt>
      <trkpt lat="48.61967" lon="2.02564">
        <ele>136.8</ele>
        <time>2026-03-20T16:57:33Z</time>
      </trkpt>
      <trkpt lat="48.61964" lon="2.02569">
        <ele>136.8</ele>
        <time>2026-03-20T16:57:34Z</time>
      </trkpt>
      <trkpt lat="48.61961" lon="2.02573">
        <ele>136.8</ele>
        <time>2026-03-20T16:57:35Z</time>
      </trkpt>
      <trkpt lat="48.61958" lon="2.02578">
        <ele>136.8</ele>
        <time>2026-03-20T16:57:36Z</time>
      </trkpt>
      <trkpt lat="48.61955" lon="2.02583">
        <ele>136.8</ele>
        <time>2026-03-20T16:57:37Z</time>
      </trkpt>
      <trkpt lat="48.61953" lon="2.02588">
        <ele>136.8</ele>
        <time>2026-03-20T16:57:38Z</time>
      </trkpt>
      <trkpt lat="48.6195" lon="2.02593">
        <ele>137.6</ele>
        <time>2026-03-20T16:57:39Z</time>
      </trkpt>
      <trkpt lat="48.61947" lon="2.02598">
        <ele>137.6</ele>
        <time>2026-03-20T16:57:40Z</time>
      </trkpt>
      <trkpt lat="48.61945" lon="2.02602">
        <ele>137.6</ele>
        <time>2026-03-20T16:57:41Z</time>
      </trkpt>
      <trkpt lat="48.61942" lon="2.02607">
        <ele>137.6</ele>
        <time>2026-03-20T16:57:42Z</time>
      </trkpt>
      <trkpt lat="48.61939" lon="2.02612">
        <ele>137.6</ele>
        <time>2026-03-20T16:57:43Z</time>
      </trkpt>
      <trkpt lat="48.61936" lon="2.02617">
        <ele>137.6</ele>
        <time>2026-03-20T16:57:44Z</time>
      </trkpt>
      <trkpt lat="48.61934" lon="2.02622">
        <ele>137.6</ele>
        <time>2026-03-20T16:57:45Z</time>
      </trkpt>
      <trkpt lat="48.6193" lon="2.02627">
        <ele>137.6</ele>
        <time>2026-03-20T16:57:46Z</time>
      </trkpt>
      <trkpt lat="48.61927" lon="2.02632">
        <ele>138</ele>
        <time>2026-03-20T16:57:47Z</time>
      </trkpt>
      <trkpt lat="48.61924" lon="2.02637">
        <ele>138.6</ele>
        <time>2026-03-20T16:57:48Z</time>
      </trkpt>
      <trkpt lat="48.6192" lon="2.02642">
        <ele>138.6</ele>
        <time>2026-03-20T16:57:49Z</time>
      </trkpt>
      <trkpt lat="48.61917" lon="2.02647">
        <ele>138.6</ele>
        <time>2026-03-20T16:57:50Z</time>
      </trkpt>
      <trkpt lat="48.61914" lon="2.02653">
        <ele>137.6</ele>
        <time>2026-03-20T16:57:51Z</time>
      </trkpt>
      <trkpt lat="48.6191" lon="2.02659">
        <ele>136.8</ele>
        <time>2026-03-20T16:57:52Z</time>
      </trkpt>
      <trkpt lat="48.61906" lon="2.02664">
        <ele>136.8</ele>
        <time>2026-03-20T16:57:53Z</time>
      </trkpt>
      <trkpt lat="48.61903" lon="2.0267">
        <ele>136.8</ele>
        <time>2026-03-20T16:57:54Z</time>
      </trkpt>
      <trkpt lat="48.61899" lon="2.02675">
        <ele>135.8</ele>
        <time>2026-03-20T16:57:55Z</time>
      </trkpt>
      <trkpt lat="48.61895" lon="2.0268">
        <ele>135.8</ele>
        <time>2026-03-20T16:57:56Z</time>
      </trkpt>
      <trkpt lat="48.61891" lon="2.02685">
        <ele>135.8</ele>
        <time>2026-03-20T16:57:57Z</time>
      </trkpt>
      <trkpt lat="48.61887" lon="2.0269">
        <ele>135.8</ele>
        <time>2026-03-20T16:57:58Z</time>
      </trkpt>
      <trkpt lat="48.61883" lon="2.02696">
        <ele>135.8</ele>
        <time>2026-03-20T16:57:59Z</time>
      </trkpt>
      <trkpt lat="48.61879" lon="2.02701">
        <ele>135.6</ele>
        <time>2026-03-20T16:58:00Z</time>
      </trkpt>
      <trkpt lat="48.61875" lon="2.02707">
        <ele>135.6</ele>
        <time>2026-03-20T16:58:01Z</time>
      </trkpt>
      <trkpt lat="48.61871" lon="2.02713">
        <ele>135.6</ele>
        <time>2026-03-20T16:58:02Z</time>
      </trkpt>
      <trkpt lat="48.61867" lon="2.02719">
        <ele>135.6</ele>
        <time>2026-03-20T16:58:03Z</time>
      </trkpt>
      <trkpt lat="48.61862" lon="2.02725">
        <ele>135</ele>
        <time>2026-03-20T16:58:04Z</time>
      </trkpt>
      <trkpt lat="48.61858" lon="2.02731">
        <ele>135</ele>
        <time>2026-03-20T16:58:05Z</time>
      </trkpt>
      <trkpt lat="48.61854" lon="2.02737">
        <ele>135</ele>
        <time>2026-03-20T16:58:06Z</time>
      </trkpt>
      <trkpt lat="48.61849" lon="2.02743">
        <ele>135</ele>
        <time>2026-03-20T16:58:07Z</time>
      </trkpt>
      <trkpt lat="48.61845" lon="2.02749">
        <ele>134.4</ele>
        <time>2026-03-20T16:58:08Z</time>
      </trkpt>
      <trkpt lat="48.6184" lon="2.02754">
        <ele>134.4</ele>
        <time>2026-03-20T16:58:09Z</time>
      </trkpt>
      <trkpt lat="48.61836" lon="2.0276">
        <ele>134.4</ele>
        <time>2026-03-20T16:58:10Z</time>
      </trkpt>
      <trkpt lat="48.61832" lon="2.02766">
        <ele>134.4</ele>
        <time>2026-03-20T16:58:11Z</time>
      </trkpt>
      <trkpt lat="48.61829" lon="2.02773">
        <ele>133.8</ele>
        <time>2026-03-20T16:58:12Z</time>
      </trkpt>
      <trkpt lat="48.61825" lon="2.02779">
        <ele>133.8</ele>
        <time>2026-03-20T16:58:13Z</time>
      </trkpt>
      <trkpt lat="48.61822" lon="2.02783">
        <ele>133.8</ele>
        <time>2026-03-20T16:58:14Z</time>
      </trkpt>
      <trkpt lat="48.61819" lon="2.02788">
        <ele>134.8</ele>
        <time>2026-03-20T16:58:15Z</time>
      </trkpt>
      <trkpt lat="48.61816" lon="2.02792">
        <ele>134.6</ele>
        <time>2026-03-20T16:58:16Z</time>
      </trkpt>
      <trkpt lat="48.61814" lon="2.02797">
        <ele>134.6</ele>
        <time>2026-03-20T16:58:17Z</time>
      </trkpt>
      <trkpt lat="48.61814" lon="2.02799">
        <ele>134.6</ele>
        <time>2026-03-20T16:58:18Z</time>
      </trkpt>
      <trkpt lat="48.61814" lon="2.028">
        <ele>135.6</ele>
        <time>2026-03-20T16:58:19Z</time>
      </trkpt>
      <trkpt lat="48.61813" lon="2.02791">
        <ele>135.2</ele>
        <time>2026-03-20T17:01:41Z</time>
      </trkpt>
      <trkpt lat="48.61814" lon="2.02788">
        <ele>135.2</ele>
        <time>2026-03-20T17:01:42Z</time>
      </trkpt>
      <trkpt lat="48.61816" lon="2.02786">
        <ele>135.2</ele>
        <time>2026-03-20T17:01:43Z</time>
      </trkpt>
      <trkpt lat="48.61817" lon="2.02783">
        <ele>135.4</ele>
        <time>2026-03-20T17:01:44Z</time>
      </trkpt>
      <trkpt lat="48.61818" lon="2.0278">
        <ele>135.4</ele>
        <time>2026-03-20T17:01:45Z</time>
      </trkpt>
      <trkpt lat="48.6182" lon="2.02778">
        <ele>135.4</ele>
        <time>2026-03-20T17:01:46Z</time>
      </trkpt>
      <trkpt lat="48.61821" lon="2.02776">
        <ele>135.6</ele>
        <time>2026-03-20T17:01:47Z</time>
      </trkpt>
      <trkpt lat="48.61822" lon="2.02775">
        <ele>135.8</ele>
        <time>2026-03-20T17:01:48Z</time>
      </trkpt>
      <trkpt lat="48.61823" lon="2.02773">
        <ele>135.8</ele>
        <time>2026-03-20T17:01:49Z</time>
      </trkpt>
      <trkpt lat="48.61823" lon="2.02773">
        <ele>135.8</ele>
        <time>2026-03-20T17:01:50Z</time>
      </trkpt>
      <trkpt lat="48.61823" lon="2.02769">
        <ele>135.6</ele>
        <time>2026-03-20T17:02:06Z</time>
      </trkpt>
      <trkpt lat="48.61824" lon="2.02766">
        <ele>135.6</ele>
        <time>2026-03-20T17:02:07Z</time>
      </trkpt>
      <trkpt lat="48.61826" lon="2.02764">
        <ele>135.4</ele>
        <time>2026-03-20T17:02:08Z</time>
      </trkpt>
      <trkpt lat="48.61828" lon="2.02761">
        <ele>135.4</ele>
        <time>2026-03-20T17:02:09Z</time>
      </trkpt>
      <trkpt lat="48.6183" lon="2.02758">
        <ele>135.4</ele>
        <time>2026-03-20T17:02:10Z</time>
      </trkpt>
      <trkpt lat="48.61832" lon="2.02755">
        <ele>135</ele>
        <time>2026-03-20T17:02:11Z</time>
      </trkpt>
      <trkpt lat="48.61835" lon="2.02752">
        <ele>135.2</ele>
        <time>2026-03-20T17:02:12Z</time>
      </trkpt>
      <trkpt lat="48.61838" lon="2.02747">
        <ele>135.2</ele>
        <time>2026-03-20T17:02:13Z</time>
      </trkpt>
      <trkpt lat="48.61841" lon="2.02743">
        <ele>135.2</ele>
        <time>2026-03-20T17:02:14Z</time>
      </trkpt>
      <trkpt lat="48.61844" lon="2.02738">
        <ele>135.2</ele>
        <time>2026-03-20T17:02:15Z</time>
      </trkpt>
      <trkpt lat="48.61848" lon="2.02732">
        <ele>135.2</ele>
        <time>2026-03-20T17:02:16Z</time>
      </trkpt>
      <trkpt lat="48.61852" lon="2.02726">
        <ele>135.2</ele>
        <time>2026-03-20T17:02:17Z</time>
      </trkpt>
      <trkpt lat="48.61856" lon="2.02721">
        <ele>135.2</ele>
        <time>2026-03-20T17:02:18Z</time>
      </trkpt>
      <trkpt lat="48.61861" lon="2.02716">
        <ele>134.6</ele>
        <time>2026-03-20T17:02:19Z</time>
      </trkpt>
      <trkpt lat="48.61866" lon="2.02712">
        <ele>134.2</ele>
        <time>2026-03-20T17:02:20Z</time>
      </trkpt>
      <trkpt lat="48.61871" lon="2.02705">
        <ele>134.2</ele>
        <time>2026-03-20T17:02:21Z</time>
      </trkpt>
      <trkpt lat="48.61876" lon="2.02699">
        <ele>134.2</ele>
        <time>2026-03-20T17:02:22Z</time>
      </trkpt>
      <trkpt lat="48.61881" lon="2.02692">
        <ele>134.8</ele>
        <time>2026-03-20T17:02:23Z</time>
      </trkpt>
      <trkpt lat="48.61886" lon="2.02687">
        <ele>135.6</ele>
        <time>2026-03-20T17:02:24Z</time>
      </trkpt>
      <trkpt lat="48.6189" lon="2.0268">
        <ele>135.6</ele>
        <time>2026-03-20T17:02:25Z</time>
      </trkpt>
      <trkpt lat="48.61894" lon="2.02674">
        <ele>135.6</ele>
        <time>2026-03-20T17:02:26Z</time>
      </trkpt>
      <trkpt lat="48.61898" lon="2.02669">
        <ele>135.6</ele>
        <time>2026-03-20T17:02:27Z</time>
      </trkpt>
      <trkpt lat="48.61902" lon="2.02663">
        <ele>136.2</ele>
        <time>2026-03-20T17:02:28Z</time>
      </trkpt>
      <trkpt lat="48.61905" lon="2.02658">
        <ele>136.2</ele>
        <time>2026-03-20T17:02:29Z</time>
      </trkpt>
      <trkpt lat="48.6191" lon="2.02652">
        <ele>136.2</ele>
        <time>2026-03-20T17:02:30Z</time>
      </trkpt>
      <trkpt lat="48.61914" lon="2.02646">
        <ele>135.4</ele>
        <time>2026-03-20T17:02:31Z</time>
      </trkpt>
      <trkpt lat="48.61918" lon="2.02641">
        <ele>136</ele>
        <time>2026-03-20T17:02:32Z</time>
      </trkpt>
      <trkpt lat="48.61922" lon="2.02635">
        <ele>136</ele>
        <time>2026-03-20T17:02:33Z</time>
      </trkpt>
      <trkpt lat="48.61926" lon="2.02629">
        <ele>136</ele>
        <time>2026-03-20T17:02:34Z</time>
      </trkpt>
      <trkpt lat="48.61929" lon="2.02623">
        <ele>136.4</ele>
        <time>2026-03-20T17:02:35Z</time>
      </trkpt>
      <trkpt lat="48.61931" lon="2.02617">
        <ele>136.8</ele>
        <time>2026-03-20T17:02:36Z</time>
      </trkpt>
      <trkpt lat="48.61934" lon="2.02611">
        <ele>136.8</ele>
        <time>2026-03-20T17:02:37Z</time>
      </trkpt>
      <trkpt lat="48.61936" lon="2.02605">
        <ele>136.8</ele>
        <time>2026-03-20T17:02:38Z</time>
      </trkpt>
      <trkpt lat="48.61937" lon="2.02601">
        <ele>136.8</ele>
        <time>2026-03-20T17:02:39Z</time>
      </trkpt>
      <trkpt lat="48.6194" lon="2.02596">
        <ele>136.8</ele>
        <time>2026-03-20T17:02:40Z</time>
      </trkpt>
      <trkpt lat="48.61943" lon="2.02591">
        <ele>136.8</ele>
        <time>2026-03-20T17:02:41Z</time>
      </trkpt>
      <trkpt lat="48.61947" lon="2.02585">
        <ele>136.8</ele>
        <time>2026-03-20T17:02:42Z</time>
      </trkpt>
      <trkpt lat="48.61951" lon="2.02577">
        <ele>135.8</ele>
        <time>2026-03-20T17:02:43Z</time>
      </trkpt>
      <trkpt lat="48.61956" lon="2.0257">
        <ele>136.2</ele>
        <time>2026-03-20T17:02:44Z</time>
      </trkpt>
      <trkpt lat="48.61962" lon="2.02565">
        <ele>136.2</ele>
        <time>2026-03-20T17:02:45Z</time>
      </trkpt>
      <trkpt lat="48.61968" lon="2.02561">
        <ele>136.2</ele>
        <time>2026-03-20T17:02:46Z</time>
      </trkpt>
      <trkpt lat="48.61974" lon="2.02557">
        <ele>136.2</ele>
        <time>2026-03-20T17:02:47Z</time>
      </trkpt>
      <trkpt lat="48.61981" lon="2.02553">
        <ele>135.2</ele>
        <time>2026-03-20T17:02:48Z</time>
      </trkpt>
      <trkpt lat="48.61987" lon="2.02549">
        <ele>135.2</ele>
        <time>2026-03-20T17:02:49Z</time>
      </trkpt>
      <trkpt lat="48.61993" lon="2.02545">
        <ele>135.2</ele>
        <time>2026-03-20T17:02:50Z</time>
      </trkpt>
      <trkpt lat="48.62" lon="2.02541">
        <ele>134.4</ele>
        <time>2026-03-20T17:02:51Z</time>
      </trkpt>
      <trkpt lat="48.62006" lon="2.02537">
        <ele>133.4</ele>
        <time>2026-03-20T17:02:52Z</time>
      </trkpt>
      <trkpt lat="48.62013" lon="2.02533">
        <ele>133.4</ele>
        <time>2026-03-20T17:02:53Z</time>
      </trkpt>
      <trkpt lat="48.62019" lon="2.02528">
        <ele>133.4</ele>
        <time>2026-03-20T17:02:54Z</time>
      </trkpt>
      <trkpt lat="48.62025" lon="2.02524">
        <ele>133.4</ele>
        <time>2026-03-20T17:02:55Z</time>
      </trkpt>
      <trkpt lat="48.62032" lon="2.02521">
        <ele>134.2</ele>
        <time>2026-03-20T17:02:56Z</time>
      </trkpt>
      <trkpt lat="48.62038" lon="2.02517">
        <ele>134.2</ele>
        <time>2026-03-20T17:02:57Z</time>
      </trkpt>
      <trkpt lat="48.62044" lon="2.02513">
        <ele>134.2</ele>
        <time>2026-03-20T17:02:58Z</time>
      </trkpt>
      <trkpt lat="48.6205" lon="2.0251">
        <ele>134.2</ele>
        <time>2026-03-20T17:02:59Z</time>
      </trkpt>
      <trkpt lat="48.62056" lon="2.02508">
        <ele>134</ele>
        <time>2026-03-20T17:03:00Z</time>
      </trkpt>
      <trkpt lat="48.62062" lon="2.02509">
        <ele>134</ele>
        <time>2026-03-20T17:03:01Z</time>
      </trkpt>
      <trkpt lat="48.62068" lon="2.02509">
        <ele>134</ele>
        <time>2026-03-20T17:03:02Z</time>
      </trkpt>
      <trkpt lat="48.62074" lon="2.0251">
        <ele>134</ele>
        <time>2026-03-20T17:03:03Z</time>
      </trkpt>
      <trkpt lat="48.62079" lon="2.0251">
        <ele>134.8</ele>
        <time>2026-03-20T17:03:04Z</time>
      </trkpt>
      <trkpt lat="48.62085" lon="2.02511">
        <ele>134.8</ele>
        <time>2026-03-20T17:03:05Z</time>
      </trkpt>
      <trkpt lat="48.6209" lon="2.02512">
        <ele>134.8</ele>
        <time>2026-03-20T17:03:06Z</time>
      </trkpt>
      <trkpt lat="48.62096" lon="2.02512">
        <ele>134.8</ele>
        <time>2026-03-20T17:03:07Z</time>
      </trkpt>
      <trkpt lat="48.62102" lon="2.0251">
        <ele>135.4</ele>
        <time>2026-03-20T17:03:08Z</time>
      </trkpt>
      <trkpt lat="48.62107" lon="2.02507">
        <ele>135.4</ele>
        <time>2026-03-20T17:03:09Z</time>
      </trkpt>
      <trkpt lat="48.62112" lon="2.02502">
        <ele>135.4</ele>
        <time>2026-03-20T17:03:10Z</time>
      </trkpt>
      <trkpt lat="48.62117" lon="2.02498">
        <ele>135.4</ele>
        <time>2026-03-20T17:03:11Z</time>
      </trkpt>
      <trkpt lat="48.62122" lon="2.02494">
        <ele>135.2</ele>
        <time>2026-03-20T17:03:12Z</time>
      </trkpt>
      <trkpt lat="48.62127" lon="2.0249">
        <ele>135.2</ele>
        <time>2026-03-20T17:03:13Z</time>
      </trkpt>
      <trkpt lat="48.62132" lon="2.02486">
        <ele>135.2</ele>
        <time>2026-03-20T17:03:14Z</time>
      </trkpt>
      <trkpt lat="48.62136" lon="2.02481">
        <ele>135.2</ele>
        <time>2026-03-20T17:03:15Z</time>
      </trkpt>
      <trkpt lat="48.6214" lon="2.02476">
        <ele>135.2</ele>
        <time>2026-03-20T17:03:16Z</time>
      </trkpt>
      <trkpt lat="48.62145" lon="2.0247">
        <ele>135.2</ele>
        <time>2026-03-20T17:03:17Z</time>
      </trkpt>
      <trkpt lat="48.62149" lon="2.02465">
        <ele>135.2</ele>
        <time>2026-03-20T17:03:18Z</time>
      </trkpt>
      <trkpt lat="48.62153" lon="2.0246">
        <ele>136.2</ele>
        <time>2026-03-20T17:03:19Z</time>
      </trkpt>
      <trkpt lat="48.62157" lon="2.02456">
        <ele>136.6</ele>
        <time>2026-03-20T17:03:20Z</time>
      </trkpt>
      <trkpt lat="48.6216" lon="2.02451">
        <ele>136.6</ele>
        <time>2026-03-20T17:03:21Z</time>
      </trkpt>
      <trkpt lat="48.62162" lon="2.02447">
        <ele>136.6</ele>
        <time>2026-03-20T17:03:22Z</time>
      </trkpt>
      <trkpt lat="48.62163" lon="2.02444">
        <ele>136.8</ele>
        <time>2026-03-20T17:03:23Z</time>
      </trkpt>
      <trkpt lat="48.62161" lon="2.02439">
        <ele>137.2</ele>
        <time>2026-03-20T17:03:24Z</time>
      </trkpt>
      <trkpt lat="48.62159" lon="2.02435">
        <ele>137.2</ele>
        <time>2026-03-20T17:03:25Z</time>
      </trkpt>
      <trkpt lat="48.62157" lon="2.0243">
        <ele>137.2</ele>
        <time>2026-03-20T17:03:26Z</time>
      </trkpt>
      <trkpt lat="48.62155" lon="2.02424">
        <ele>136.2</ele>
        <time>2026-03-20T17:03:27Z</time>
      </trkpt>
      <trkpt lat="48.62153" lon="2.02418">
        <ele>135</ele>
        <time>2026-03-20T17:03:28Z</time>
      </trkpt>
      <trkpt lat="48.6215" lon="2.02411">
        <ele>135</ele>
        <time>2026-03-20T17:03:29Z</time>
      </trkpt>
      <trkpt lat="48.62147" lon="2.02404">
        <ele>135</ele>
        <time>2026-03-20T17:03:30Z</time>
      </trkpt>
      <trkpt lat="48.62144" lon="2.02396">
        <ele>135</ele>
        <time>2026-03-20T17:03:31Z</time>
      </trkpt>
      <trkpt lat="48.62142" lon="2.02388">
        <ele>134</ele>
        <time>2026-03-20T17:03:32Z</time>
      </trkpt>
      <trkpt lat="48.62139" lon="2.02379">
        <ele>134</ele>
        <time>2026-03-20T17:03:33Z</time>
      </trkpt>
      <trkpt lat="48.62137" lon="2.02369">
        <ele>134</ele>
        <time>2026-03-20T17:03:34Z</time>
      </trkpt>
      <trkpt lat="48.62135" lon="2.0236">
        <ele>134</ele>
        <time>2026-03-20T17:03:35Z</time>
      </trkpt>
      <trkpt lat="48.62133" lon="2.0235">
        <ele>133.8</ele>
        <time>2026-03-20T17:03:36Z</time>
      </trkpt>
      <trkpt lat="48.62132" lon="2.02341">
        <ele>133.8</ele>
        <time>2026-03-20T17:03:37Z</time>
      </trkpt>
      <trkpt lat="48.62131" lon="2.02331">
        <ele>133.8</ele>
        <time>2026-03-20T17:03:38Z</time>
      </trkpt>
      <trkpt lat="48.62132" lon="2.02321">
        <ele>133.8</ele>
        <time>2026-03-20T17:03:39Z</time>
      </trkpt>
      <trkpt lat="48.62133" lon="2.02312">
        <ele>133.8</ele>
        <time>2026-03-20T17:03:40Z</time>
      </trkpt>
      <trkpt lat="48.62136" lon="2.02303">
        <ele>133.8</ele>
        <time>2026-03-20T17:03:41Z</time>
      </trkpt>
      <trkpt lat="48.62141" lon="2.02298">
        <ele>133.8</ele>
        <time>2026-03-20T17:03:42Z</time>
      </trkpt>
      <trkpt lat="48.62144" lon="2.02291">
        <ele>134.8</ele>
        <time>2026-03-20T17:03:43Z</time>
      </trkpt>
      <trkpt lat="48.62147" lon="2.02285">
        <ele>135.2</ele>
        <time>2026-03-20T17:03:44Z</time>
      </trkpt>
      <trkpt lat="48.6215" lon="2.02279">
        <ele>135.2</ele>
        <time>2026-03-20T17:03:45Z</time>
      </trkpt>
      <trkpt lat="48.62154" lon="2.02274">
        <ele>135.2</ele>
        <time>2026-03-20T17:03:46Z</time>
      </trkpt>
      <trkpt lat="48.62157" lon="2.02267">
        <ele>135.6</ele>
        <time>2026-03-20T17:03:47Z</time>
      </trkpt>
      <trkpt lat="48.6216" lon="2.02259">
        <ele>134.8</ele>
        <time>2026-03-20T17:03:48Z</time>
      </trkpt>
      <trkpt lat="48.62163" lon="2.02251">
        <ele>134.8</ele>
        <time>2026-03-20T17:03:49Z</time>
      </trkpt>
      <trkpt lat="48.62166" lon="2.02244">
        <ele>134.8</ele>
        <time>2026-03-20T17:03:50Z</time>
      </trkpt>
      <trkpt lat="48.6217" lon="2.02239">
        <ele>135.4</ele>
        <time>2026-03-20T17:03:51Z</time>
      </trkpt>
      <trkpt lat="48.62174" lon="2.02234">
        <ele>136.6</ele>
        <time>2026-03-20T17:03:52Z</time>
      </trkpt>
      <trkpt lat="48.62178" lon="2.02229">
        <ele>136.6</ele>
        <time>2026-03-20T17:03:53Z</time>
      </trkpt>
      <trkpt lat="48.62182" lon="2.02225">
        <ele>136.6</ele>
        <time>2026-03-20T17:03:54Z</time>
      </trkpt>
      <trkpt lat="48.62184" lon="2.02219">
        <ele>136.6</ele>
        <time>2026-03-20T17:03:55Z</time>
      </trkpt>
      <trkpt lat="48.62185" lon="2.02213">
        <ele>137.6</ele>
        <time>2026-03-20T17:03:56Z</time>
      </trkpt>
      <trkpt lat="48.62186" lon="2.02207">
        <ele>137.6</ele>
        <time>2026-03-20T17:03:57Z</time>
      </trkpt>
      <trkpt lat="48.62188" lon="2.02202">
        <ele>137.6</ele>
        <time>2026-03-20T17:03:58Z</time>
      </trkpt>
      <trkpt lat="48.62189" lon="2.02193">
        <ele>136.6</ele>
        <time>2026-03-20T17:03:59Z</time>
      </trkpt>
      <trkpt lat="48.62191" lon="2.02184">
        <ele>136.2</ele>
        <time>2026-03-20T17:04:00Z</time>
      </trkpt>
      <trkpt lat="48.62194" lon="2.02176">
        <ele>136.2</ele>
        <time>2026-03-20T17:04:01Z</time>
      </trkpt>
      <trkpt lat="48.62196" lon="2.02166">
        <ele>136.2</ele>
        <time>2026-03-20T17:04:02Z</time>
      </trkpt>
      <trkpt lat="48.62198" lon="2.02156">
        <ele>136</ele>
        <time>2026-03-20T17:04:03Z</time>
      </trkpt>
      <trkpt lat="48.62199" lon="2.02146">
        <ele>135.4</ele>
        <time>2026-03-20T17:04:04Z</time>
      </trkpt>
      <trkpt lat="48.622" lon="2.02136">
        <ele>135.4</ele>
        <time>2026-03-20T17:04:05Z</time>
      </trkpt>
      <trkpt lat="48.62201" lon="2.02126">
        <ele>135.4</ele>
        <time>2026-03-20T17:04:06Z</time>
      </trkpt>
      <trkpt lat="48.62202" lon="2.02115">
        <ele>135.4</ele>
        <time>2026-03-20T17:04:07Z</time>
      </trkpt>
      <trkpt lat="48.62203" lon="2.02104">
        <ele>135.6</ele>
        <time>2026-03-20T17:04:08Z</time>
      </trkpt>
      <trkpt lat="48.62204" lon="2.02094">
        <ele>135.6</ele>
        <time>2026-03-20T17:04:09Z</time>
      </trkpt>
      <trkpt lat="48.62205" lon="2.02083">
        <ele>135.6</ele>
        <time>2026-03-20T17:04:10Z</time>
      </trkpt>
      <trkpt lat="48.62206" lon="2.02072">
        <ele>135.6</ele>
        <time>2026-03-20T17:04:11Z</time>
      </trkpt>
      <trkpt lat="48.62207" lon="2.02062">
        <ele>135.8</ele>
        <time>2026-03-20T17:04:12Z</time>
      </trkpt>
      <trkpt lat="48.62208" lon="2.02052">
        <ele>135.8</ele>
        <time>2026-03-20T17:04:13Z</time>
      </trkpt>
      <trkpt lat="48.62209" lon="2.02041">
        <ele>135.8</ele>
        <time>2026-03-20T17:04:14Z</time>
      </trkpt>
      <trkpt lat="48.6221" lon="2.02032">
        <ele>136.2</ele>
        <time>2026-03-20T17:04:15Z</time>
      </trkpt>
      <trkpt lat="48.62211" lon="2.02022">
        <ele>136</ele>
        <time>2026-03-20T17:04:16Z</time>
      </trkpt>
      <trkpt lat="48.62212" lon="2.02012">
        <ele>136</ele>
        <time>2026-03-20T17:04:17Z</time>
      </trkpt>
      <trkpt lat="48.62214" lon="2.02002">
        <ele>136</ele>
        <time>2026-03-20T17:04:18Z</time>
      </trkpt>
      <trkpt lat="48.62214" lon="2.01992">
        <ele>136.2</ele>
        <time>2026-03-20T17:04:19Z</time>
      </trkpt>
      <trkpt lat="48.62215" lon="2.01982">
        <ele>135.8</ele>
        <time>2026-03-20T17:04:20Z</time>
      </trkpt>
      <trkpt lat="48.62216" lon="2.01972">
        <ele>135.8</ele>
        <time>2026-03-20T17:04:21Z</time>
      </trkpt>
      <trkpt lat="48.62216" lon="2.01962">
        <ele>135.8</ele>
        <time>2026-03-20T17:04:22Z</time>
      </trkpt>
      <trkpt lat="48.62217" lon="2.01953">
        <ele>135.8</ele>
        <time>2026-03-20T17:04:23Z</time>
      </trkpt>
      <trkpt lat="48.62218" lon="2.01944">
        <ele>136.8</ele>
        <time>2026-03-20T17:04:24Z</time>
      </trkpt>
      <trkpt lat="48.62219" lon="2.01935">
        <ele>136.8</ele>
        <time>2026-03-20T17:04:25Z</time>
      </trkpt>
      <trkpt lat="48.62221" lon="2.01926">
        <ele>136.8</ele>
        <time>2026-03-20T17:04:26Z</time>
      </trkpt>
      <trkpt lat="48.62222" lon="2.01916">
        <ele>136.8</ele>
        <time>2026-03-20T17:04:27Z</time>
      </trkpt>
      <trkpt lat="48.62224" lon="2.01908">
        <ele>137</ele>
        <time>2026-03-20T17:04:28Z</time>
      </trkpt>
      <trkpt lat="48.62227" lon="2.019">
        <ele>137</ele>
        <time>2026-03-20T17:04:29Z</time>
      </trkpt>
      <trkpt lat="48.62232" lon="2.01895">
        <ele>137</ele>
        <time>2026-03-20T17:04:30Z</time>
      </trkpt>
      <trkpt lat="48.62237" lon="2.01891">
        <ele>137</ele>
        <time>2026-03-20T17:04:31Z</time>
      </trkpt>
      <trkpt lat="48.62241" lon="2.01887">
        <ele>137.2</ele>
        <time>2026-03-20T17:04:32Z</time>
      </trkpt>
      <trkpt lat="48.62245" lon="2.01881">
        <ele>137.2</ele>
        <time>2026-03-20T17:04:33Z</time>
      </trkpt>
      <trkpt lat="48.62246" lon="2.01874">
        <ele>137.2</ele>
        <time>2026-03-20T17:04:34Z</time>
      </trkpt>
      <trkpt lat="48.62244" lon="2.01868">
        <ele>138</ele>
        <time>2026-03-20T17:04:35Z</time>
      </trkpt>
      <trkpt lat="48.62243" lon="2.01861">
        <ele>137.6</ele>
        <time>2026-03-20T17:04:36Z</time>
      </trkpt>
      <trkpt lat="48.62242" lon="2.01854">
        <ele>137.6</ele>
        <time>2026-03-20T17:04:37Z</time>
      </trkpt>
      <trkpt lat="48.62244" lon="2.01848">
        <ele>137.6</ele>
        <time>2026-03-20T17:04:38Z</time>
      </trkpt>
      <trkpt lat="48.62248" lon="2.01843">
        <ele>137.6</ele>
        <time>2026-03-20T17:04:39Z</time>
      </trkpt>
      <trkpt lat="48.62252" lon="2.01839">
        <ele>138</ele>
        <time>2026-03-20T17:04:40Z</time>
      </trkpt>
      <trkpt lat="48.62255" lon="2.01836">
        <ele>138</ele>
        <time>2026-03-20T17:04:41Z</time>
      </trkpt>
      <trkpt lat="48.62256" lon="2.01833">
        <ele>138</ele>
        <time>2026-03-20T17:04:42Z</time>
      </trkpt>
      <trkpt lat="48.62259" lon="2.01833">
        <ele>138</ele>
        <time>2026-03-20T17:04:43Z</time>
      </trkpt>
      <trkpt lat="48.6226" lon="2.01833">
        <ele>138.8</ele>
        <time>2026-03-20T17:04:44Z</time>
      </trkpt>
      <trkpt lat="48.62259" lon="2.01832">
        <ele>138.8</ele>
        <time>2026-03-20T17:04:45Z</time>
      </trkpt>
    </trkseg>
  </trk>
</gpx>